<?xml version='1.0' encoding='UTF-8'?><gpx version="1.1" creator="JPX - https://github.com/jenetics/jpx" xmlns="http://www.topografix.com/GPX/1/1"><trk><trkseg><trkpt lat="40.7273733" lon="17.5813616"><ele>240.0</ele><time>2026-05-02T14:22:51.504Z</time></trkpt><trkpt lat="40.7264025" lon="17.5794156"><ele>240.0</ele><time>2026-05-02T14:23:32.505Z</time></trkpt><trkpt lat="40.7263487" lon="17.5793565"><ele>240.0</ele><time>2026-05-02T14:23:33.505Z</time></trkpt><trkpt lat="40.7262879" lon="17.5793113"><ele>240.0</ele><time>2026-05-02T14:23:34.505Z</time></trkpt><trkpt lat="40.7261786" lon="17.5792726"><ele>240.0</ele><time>2026-05-02T14:23:36.504Z</time></trkpt><trkpt lat="40.7261099" lon="17.5792483"><ele>240.0</ele><time>2026-05-02T14:23:39.504Z</time></trkpt><trkpt lat="40.7260472" lon="17.5791951"><ele>240.0</ele><time>2026-05-02T14:24:32.505Z</time></trkpt><trkpt lat="40.7259926" lon="17.5791356"><ele>240.0</ele><time>2026-05-02T14:24:34.505Z</time></trkpt><trkpt lat="40.7260044" lon="17.5790387"><ele>240.0</ele><time>2026-05-02T14:24:36.504Z</time></trkpt><trkpt lat="40.7260397" lon="17.5789445"><ele>240.0</ele><time>2026-05-02T14:24:37.505Z</time></trkpt><trkpt lat="40.7260916" lon="17.5788059"><ele>240.0</ele><time>2026-05-02T14:24:39.505Z</time></trkpt><trkpt lat="40.7261438" lon="17.5786606"><ele>240.0</ele><time>2026-05-02T14:24:41.504Z</time></trkpt><trkpt lat="40.7262013" lon="17.5785198"><ele>240.2</ele><time>2026-05-02T14:24:43.504Z</time></trkpt><trkpt lat="40.7262614" lon="17.5783752"><ele>240.4</ele><time>2026-05-02T14:24:45.504Z</time></trkpt><trkpt lat="40.7263167" lon="17.5782379"><ele>240.60000000000002</ele><time>2026-05-02T14:24:47.505Z</time></trkpt><trkpt lat="40.7263712" lon="17.5781208"><ele>240.8</ele><time>2026-05-02T14:24:49.504Z</time></trkpt><trkpt lat="40.7264112" lon="17.5780217"><ele>241.0</ele><time>2026-05-02T14:24:51.505Z</time></trkpt><trkpt lat="40.7264505" lon="17.5779037"><ele>241.20000000000002</ele><time>2026-05-02T14:24:54.505Z</time></trkpt><trkpt lat="40.7264877" lon="17.5778009"><ele>241.40000000000003</ele><time>2026-05-02T14:24:56.505Z</time></trkpt><trkpt lat="40.7265382" lon="17.577664"><ele>241.6</ele><time>2026-05-02T14:24:58.505Z</time></trkpt><trkpt lat="40.7265946" lon="17.5775191"><ele>241.8</ele><time>2026-05-02T14:25:00.505Z</time></trkpt><trkpt lat="40.7266407" lon="17.5773837"><ele>242.0</ele><time>2026-05-02T14:25:02.505Z</time></trkpt><trkpt lat="40.726694" lon="17.5772487"><ele>242.0</ele><time>2026-05-02T14:25:04.505Z</time></trkpt><trkpt lat="40.7267421" lon="17.5771246"><ele>242.0</ele><time>2026-05-02T14:25:06.505Z</time></trkpt><trkpt lat="40.7267816" lon="17.5770037"><ele>242.0</ele><time>2026-05-02T14:25:08.505Z</time></trkpt><trkpt lat="40.7268228" lon="17.5768862"><ele>242.0</ele><time>2026-05-02T14:25:10.504Z</time></trkpt><trkpt lat="40.7268723" lon="17.5767626"><ele>242.0</ele><time>2026-05-02T14:25:12.505Z</time></trkpt><trkpt lat="40.7269178" lon="17.5766456"><ele>242.0</ele><time>2026-05-02T14:25:14.505Z</time></trkpt><trkpt lat="40.7269674" lon="17.5765208"><ele>242.0</ele><time>2026-05-02T14:25:16.506Z</time></trkpt><trkpt lat="40.7270068" lon="17.5764023"><ele>242.0</ele><time>2026-05-02T14:25:18.504Z</time></trkpt><trkpt lat="40.7270428" lon="17.5763077"><ele>242.0</ele><time>2026-05-02T14:25:20.505Z</time></trkpt><trkpt lat="40.7270722" lon="17.5762277"><ele>242.0</ele><time>2026-05-02T14:25:21.506Z</time></trkpt><trkpt lat="40.7271224" lon="17.5760818"><ele>242.0</ele><time>2026-05-02T14:25:23.506Z</time></trkpt><trkpt lat="40.7271833" lon="17.5759275"><ele>242.0</ele><time>2026-05-02T14:25:25.506Z</time></trkpt><trkpt lat="40.7272298" lon="17.5757787"><ele>242.0</ele><time>2026-05-02T14:25:27.504Z</time></trkpt><trkpt lat="40.7272636" lon="17.5757069"><ele>242.0</ele><time>2026-05-02T14:25:28.505Z</time></trkpt><trkpt lat="40.7273149" lon="17.5755707"><ele>242.0</ele><time>2026-05-02T14:25:30.505Z</time></trkpt><trkpt lat="40.7273579" lon="17.5754655"><ele>242.00000000000003</ele><time>2026-05-02T14:25:32.505Z</time></trkpt><trkpt lat="40.7273884" lon="17.5753646"><ele>242.0</ele><time>2026-05-02T14:25:38.505Z</time></trkpt><trkpt lat="40.7274286" lon="17.5752583"><ele>242.0</ele><time>2026-05-02T14:25:41.505Z</time></trkpt><trkpt lat="40.7274655" lon="17.5751631"><ele>242.0</ele><time>2026-05-02T14:25:43.505Z</time></trkpt><trkpt lat="40.7275045" lon="17.5750659"><ele>242.00000000000003</ele><time>2026-05-02T14:25:45.504Z</time></trkpt><trkpt lat="40.7275389" lon="17.5749711"><ele>242.0</ele><time>2026-05-02T14:25:47.505Z</time></trkpt><trkpt lat="40.7275744" lon="17.5748674"><ele>241.50000000000003</ele><time>2026-05-02T14:25:49.505Z</time></trkpt><trkpt lat="40.7276116" lon="17.5747596"><ele>241.0</ele><time>2026-05-02T14:25:51.505Z</time></trkpt><trkpt lat="40.7276633" lon="17.5746492"><ele>240.5</ele><time>2026-05-02T14:25:53.505Z</time></trkpt><trkpt lat="40.7276956" lon="17.5745666"><ele>240.0</ele><time>2026-05-02T14:25:55.504Z</time></trkpt><trkpt lat="40.7277471" lon="17.5745171"><ele>239.50000000000003</ele><time>2026-05-02T14:26:53.504Z</time></trkpt><trkpt lat="40.7277887" lon="17.5744243"><ele>239.0</ele><time>2026-05-02T14:26:56.504Z</time></trkpt><trkpt lat="40.7278362" lon="17.5742995"><ele>238.42857142857144</ele><time>2026-05-02T14:26:58.503Z</time></trkpt><trkpt lat="40.727884" lon="17.5741895"><ele>237.85714285714286</ele><time>2026-05-02T14:27:00.504Z</time></trkpt><trkpt lat="40.7279142" lon="17.574108"><ele>237.28571428571428</ele><time>2026-05-02T14:27:01.503Z</time></trkpt><trkpt lat="40.7279488" lon="17.5740381"><ele>236.71428571428572</ele><time>2026-05-02T14:27:02.503Z</time></trkpt><trkpt lat="40.72797" lon="17.5739543"><ele>236.1428571428571</ele><time>2026-05-02T14:27:03.503Z</time></trkpt><trkpt lat="40.7279993" lon="17.573877"><ele>235.57142857142856</ele><time>2026-05-02T14:27:04.503Z</time></trkpt><trkpt lat="40.7280326" lon="17.5737983"><ele>235.0</ele><time>2026-05-02T14:27:05.504Z</time></trkpt><trkpt lat="40.7280647" lon="17.5737191"><ele>234.7142857142857</ele><time>2026-05-02T14:27:06.504Z</time></trkpt><trkpt lat="40.7280965" lon="17.5736358"><ele>234.4285714285714</ele><time>2026-05-02T14:27:07.505Z</time></trkpt><trkpt lat="40.7281275" lon="17.573552"><ele>234.14285714285714</ele><time>2026-05-02T14:27:08.503Z</time></trkpt><trkpt lat="40.7281587" lon="17.5734715"><ele>233.85714285714283</ele><time>2026-05-02T14:27:09.503Z</time></trkpt><trkpt lat="40.7281904" lon="17.5733842"><ele>233.57142857142856</ele><time>2026-05-02T14:27:10.503Z</time></trkpt><trkpt lat="40.7282175" lon="17.5732982"><ele>233.28571428571428</ele><time>2026-05-02T14:27:11.505Z</time></trkpt><trkpt lat="40.7282416" lon="17.5732129"><ele>233.0</ele><time>2026-05-02T14:27:12.504Z</time></trkpt><trkpt lat="40.7282844" lon="17.5731188"><ele>233.0</ele><time>2026-05-02T14:27:13.504Z</time></trkpt><trkpt lat="40.7283033" lon="17.5729706"><ele>233.0</ele><time>2026-05-02T14:27:15.505Z</time></trkpt><trkpt lat="40.7283783" lon="17.5728461"><ele>233.0</ele><time>2026-05-02T14:27:17.504Z</time></trkpt><trkpt lat="40.7284231" lon="17.5727874"><ele>233.0</ele><time>2026-05-02T14:27:18.504Z</time></trkpt><trkpt lat="40.7285141" lon="17.5727371"><ele>233.0</ele><time>2026-05-02T14:27:19.504Z</time></trkpt><trkpt lat="40.7285797" lon="17.5727168"><ele>232.50000000000003</ele><time>2026-05-02T14:27:20.504Z</time></trkpt><trkpt lat="40.728648" lon="17.5727066"><ele>232.0</ele><time>2026-05-02T14:27:21.505Z</time></trkpt><trkpt lat="40.7287227" lon="17.5726914"><ele>231.5</ele><time>2026-05-02T14:27:22.504Z</time></trkpt><trkpt lat="40.7288027" lon="17.5726794"><ele>231.0</ele><time>2026-05-02T14:27:23.505Z</time></trkpt><trkpt lat="40.7288848" lon="17.572679"><ele>230.50000000000003</ele><time>2026-05-02T14:27:24.504Z</time></trkpt><trkpt lat="40.7289634" lon="17.5727229"><ele>230.0</ele><time>2026-05-02T14:27:25.505Z</time></trkpt><trkpt lat="40.729044" lon="17.5727624"><ele>230.0</ele><time>2026-05-02T14:27:26.503Z</time></trkpt><trkpt lat="40.7291229" lon="17.5728294"><ele>230.0</ele><time>2026-05-02T14:27:27.503Z</time></trkpt><trkpt lat="40.7292001" lon="17.5729154"><ele>230.0</ele><time>2026-05-02T14:27:28.504Z</time></trkpt><trkpt lat="40.7292805" lon="17.5730178"><ele>230.0</ele><time>2026-05-02T14:27:29.503Z</time></trkpt><trkpt lat="40.7293601" lon="17.5731213"><ele>230.0</ele><time>2026-05-02T14:27:30.503Z</time></trkpt><trkpt lat="40.7294427" lon="17.5732287"><ele>230.25</ele><time>2026-05-02T14:27:31.505Z</time></trkpt><trkpt lat="40.7295286" lon="17.5733289"><ele>230.5</ele><time>2026-05-02T14:27:32.503Z</time></trkpt><trkpt lat="40.7296143" lon="17.5734256"><ele>230.75</ele><time>2026-05-02T14:27:33.505Z</time></trkpt><trkpt lat="40.7297013" lon="17.5735202"><ele>231.0</ele><time>2026-05-02T14:27:34.505Z</time></trkpt><trkpt lat="40.7297866" lon="17.5736166"><ele>230.0</ele><time>2026-05-02T14:27:35.504Z</time></trkpt><trkpt lat="40.729875" lon="17.5737077"><ele>229.00000000000003</ele><time>2026-05-02T14:27:36.504Z</time></trkpt><trkpt lat="40.7299599" lon="17.5737992"><ele>228.00000000000003</ele><time>2026-05-02T14:27:37.504Z</time></trkpt><trkpt lat="40.7300516" lon="17.5738759"><ele>227.0</ele><time>2026-05-02T14:27:38.505Z</time></trkpt><trkpt lat="40.7301483" lon="17.5739363"><ele>226.0</ele><time>2026-05-02T14:27:39.504Z</time></trkpt><trkpt lat="40.7302468" lon="17.57397"><ele>224.83333333333331</ele><time>2026-05-02T14:27:40.504Z</time></trkpt><trkpt lat="40.7303456" lon="17.5739638"><ele>223.66666666666666</ele><time>2026-05-02T14:27:41.503Z</time></trkpt><trkpt lat="40.7304296" lon="17.5739326"><ele>222.5</ele><time>2026-05-02T14:27:42.504Z</time></trkpt><trkpt lat="40.7305012" lon="17.5738682"><ele>221.33333333333331</ele><time>2026-05-02T14:27:43.504Z</time></trkpt><trkpt lat="40.7305541" lon="17.5737835"><ele>220.16666666666666</ele><time>2026-05-02T14:27:44.505Z</time></trkpt><trkpt lat="40.7305851" lon="17.5736809"><ele>219.0</ele><time>2026-05-02T14:27:45.504Z</time></trkpt><trkpt lat="40.7306047" lon="17.5735725"><ele>219.0</ele><time>2026-05-02T14:27:46.505Z</time></trkpt><trkpt lat="40.7305788" lon="17.5734637"><ele>219.0</ele><time>2026-05-02T14:27:47.504Z</time></trkpt><trkpt lat="40.7305558" lon="17.5733578"><ele>219.0</ele><time>2026-05-02T14:27:48.504Z</time></trkpt><trkpt lat="40.7304932" lon="17.5732645"><ele>219.0</ele><time>2026-05-02T14:27:49.504Z</time></trkpt><trkpt lat="40.7304543" lon="17.573174"><ele>219.0</ele><time>2026-05-02T14:27:50.503Z</time></trkpt><trkpt lat="40.7304116" lon="17.573064"><ele>219.0</ele><time>2026-05-02T14:27:51.504Z</time></trkpt><trkpt lat="40.730371" lon="17.5729489"><ele>219.39999999999998</ele><time>2026-05-02T14:27:52.505Z</time></trkpt><trkpt lat="40.7303321" lon="17.5728234"><ele>219.79999999999998</ele><time>2026-05-02T14:27:53.503Z</time></trkpt><trkpt lat="40.7302909" lon="17.5726978"><ele>220.20000000000002</ele><time>2026-05-02T14:27:54.504Z</time></trkpt><trkpt lat="40.730236" lon="17.5725782"><ele>220.60000000000002</ele><time>2026-05-02T14:27:55.504Z</time></trkpt><trkpt lat="40.7301677" lon="17.5724649"><ele>221.0</ele><time>2026-05-02T14:27:56.504Z</time></trkpt><trkpt lat="40.7300915" lon="17.572358"><ele>221.0</ele><time>2026-05-02T14:27:57.503Z</time></trkpt><trkpt lat="40.7300121" lon="17.572275"><ele>221.00000000000003</ele><time>2026-05-02T14:27:58.504Z</time></trkpt><trkpt lat="40.7299348" lon="17.5721922"><ele>221.00000000000003</ele><time>2026-05-02T14:27:59.504Z</time></trkpt><trkpt lat="40.7298722" lon="17.5720986"><ele>221.0</ele><time>2026-05-02T14:28:00.504Z</time></trkpt><trkpt lat="40.7298248" lon="17.571993"><ele>221.0</ele><time>2026-05-02T14:28:01.504Z</time></trkpt><trkpt lat="40.7297958" lon="17.5718799"><ele>218.8</ele><time>2026-05-02T14:28:02.504Z</time></trkpt><trkpt lat="40.729801" lon="17.5717577"><ele>216.60000000000002</ele><time>2026-05-02T14:28:03.503Z</time></trkpt><trkpt lat="40.7298312" lon="17.5716394"><ele>214.4</ele><time>2026-05-02T14:28:04.504Z</time></trkpt><trkpt lat="40.7298784" lon="17.5715243"><ele>212.2</ele><time>2026-05-02T14:28:05.504Z</time></trkpt><trkpt lat="40.7299377" lon="17.5714186"><ele>210.0</ele><time>2026-05-02T14:28:06.503Z</time></trkpt><trkpt lat="40.7300076" lon="17.5713319"><ele>210.0</ele><time>2026-05-02T14:28:07.504Z</time></trkpt><trkpt lat="40.7300913" lon="17.5712584"><ele>210.0</ele><time>2026-05-02T14:28:08.504Z</time></trkpt><trkpt lat="40.7301799" lon="17.5711936"><ele>210.0</ele><time>2026-05-02T14:28:09.504Z</time></trkpt><trkpt lat="40.7302688" lon="17.571136"><ele>210.0</ele><time>2026-05-02T14:28:10.504Z</time></trkpt><trkpt lat="40.7303558" lon="17.5710804"><ele>210.0</ele><time>2026-05-02T14:28:11.504Z</time></trkpt><trkpt lat="40.7304447" lon="17.5710254"><ele>208.5</ele><time>2026-05-02T14:28:12.503Z</time></trkpt><trkpt lat="40.7305327" lon="17.5709705"><ele>207.0</ele><time>2026-05-02T14:28:13.504Z</time></trkpt><trkpt lat="40.730618" lon="17.570917"><ele>205.5</ele><time>2026-05-02T14:28:14.505Z</time></trkpt><trkpt lat="40.7306968" lon="17.5708664"><ele>204.0</ele><time>2026-05-02T14:28:15.503Z</time></trkpt><trkpt lat="40.7307652" lon="17.5708205"><ele>202.5</ele><time>2026-05-02T14:28:16.505Z</time></trkpt><trkpt lat="40.7308278" lon="17.5707812"><ele>201.0</ele><time>2026-05-02T14:28:17.505Z</time></trkpt><trkpt lat="40.7308864" lon="17.5707411"><ele>201.0</ele><time>2026-05-02T14:28:18.503Z</time></trkpt><trkpt lat="40.7310068" lon="17.5706759"><ele>201.0</ele><time>2026-05-02T14:28:20.504Z</time></trkpt><trkpt lat="40.7311058" lon="17.5705923"><ele>201.0</ele><time>2026-05-02T14:28:22.504Z</time></trkpt><trkpt lat="40.7311646" lon="17.570561"><ele>201.0</ele><time>2026-05-02T14:28:23.504Z</time></trkpt><trkpt lat="40.7312256" lon="17.570521"><ele>201.0</ele><time>2026-05-02T14:28:24.504Z</time></trkpt><trkpt lat="40.7312836" lon="17.570486"><ele>201.0</ele><time>2026-05-02T14:28:25.504Z</time></trkpt><trkpt lat="40.7313432" lon="17.5704475"><ele>199.83333333333334</ele><time>2026-05-02T14:28:26.504Z</time></trkpt><trkpt lat="40.7314062" lon="17.5704122"><ele>198.66666666666669</ele><time>2026-05-02T14:28:27.504Z</time></trkpt><trkpt lat="40.7315052" lon="17.5703253"><ele>197.5</ele><time>2026-05-02T14:28:29.504Z</time></trkpt><trkpt lat="40.7315758" lon="17.5703283"><ele>196.33333333333334</ele><time>2026-05-02T14:28:30.504Z</time></trkpt><trkpt lat="40.7316465" lon="17.5703135"><ele>195.16666666666669</ele><time>2026-05-02T14:28:31.504Z</time></trkpt><trkpt lat="40.7317196" lon="17.570274"><ele>194.0</ele><time>2026-05-02T14:28:32.504Z</time></trkpt><trkpt lat="40.7317819" lon="17.5702169"><ele>194.0</ele><time>2026-05-02T14:28:33.504Z</time></trkpt><trkpt lat="40.7318413" lon="17.5701263"><ele>194.0</ele><time>2026-05-02T14:28:34.503Z</time></trkpt><trkpt lat="40.7318951" lon="17.5700372"><ele>194.0</ele><time>2026-05-02T14:28:35.504Z</time></trkpt><trkpt lat="40.7319557" lon="17.5699303"><ele>194.0</ele><time>2026-05-02T14:28:36.505Z</time></trkpt><trkpt lat="40.7320085" lon="17.5698249"><ele>194.0</ele><time>2026-05-02T14:28:37.504Z</time></trkpt><trkpt lat="40.7320672" lon="17.5697223"><ele>192.6</ele><time>2026-05-02T14:28:38.504Z</time></trkpt><trkpt lat="40.73213" lon="17.5696217"><ele>191.2</ele><time>2026-05-02T14:28:39.503Z</time></trkpt><trkpt lat="40.7321929" lon="17.5695271"><ele>189.79999999999998</ele><time>2026-05-02T14:28:40.503Z</time></trkpt><trkpt lat="40.7322553" lon="17.5694301"><ele>188.39999999999998</ele><time>2026-05-02T14:28:41.505Z</time></trkpt><trkpt lat="40.7323391" lon="17.5692914"><ele>187.0</ele><time>2026-05-02T14:28:42.504Z</time></trkpt><trkpt lat="40.7324063" lon="17.5691997"><ele>187.0</ele><time>2026-05-02T14:28:43.503Z</time></trkpt><trkpt lat="40.7324688" lon="17.5691055"><ele>187.0</ele><time>2026-05-02T14:28:44.503Z</time></trkpt><trkpt lat="40.7325187" lon="17.5690336"><ele>187.0</ele><time>2026-05-02T14:28:45.504Z</time></trkpt><trkpt lat="40.7325724" lon="17.5689596"><ele>187.0</ele><time>2026-05-02T14:28:46.504Z</time></trkpt><trkpt lat="40.7326237" lon="17.5688941"><ele>187.0</ele><time>2026-05-02T14:28:47.505Z</time></trkpt><trkpt lat="40.7327128" lon="17.5688179"><ele>187.0</ele><time>2026-05-02T14:28:49.504Z</time></trkpt><trkpt lat="40.7327853" lon="17.5688395"><ele>185.2</ele><time>2026-05-02T14:28:51.505Z</time></trkpt><trkpt lat="40.7328645" lon="17.5689264"><ele>183.39999999999998</ele><time>2026-05-02T14:28:53.504Z</time></trkpt><trkpt lat="40.7329268" lon="17.56907"><ele>181.60000000000002</ele><time>2026-05-02T14:28:55.505Z</time></trkpt><trkpt lat="40.7329514" lon="17.5691556"><ele>179.8</ele><time>2026-05-02T14:28:56.504Z</time></trkpt><trkpt lat="40.7329803" lon="17.5692492"><ele>178.0</ele><time>2026-05-02T14:28:57.505Z</time></trkpt><trkpt lat="40.7330113" lon="17.569355"><ele>178.0</ele><time>2026-05-02T14:28:58.505Z</time></trkpt><trkpt lat="40.7330465" lon="17.569466"><ele>178.0</ele><time>2026-05-02T14:28:59.504Z</time></trkpt><trkpt lat="40.7330891" lon="17.5695782"><ele>178.0</ele><time>2026-05-02T14:29:00.504Z</time></trkpt><trkpt lat="40.7331365" lon="17.5696943"><ele>178.0</ele><time>2026-05-02T14:29:01.504Z</time></trkpt><trkpt lat="40.733187" lon="17.5698092"><ele>178.0</ele><time>2026-05-02T14:29:02.504Z</time></trkpt><trkpt lat="40.7332397" lon="17.5699204"><ele>177.5</ele><time>2026-05-02T14:29:03.503Z</time></trkpt><trkpt lat="40.7333006" lon="17.570033"><ele>177.0</ele><time>2026-05-02T14:29:04.504Z</time></trkpt><trkpt lat="40.733366" lon="17.5701505"><ele>176.5</ele><time>2026-05-02T14:29:05.504Z</time></trkpt><trkpt lat="40.7334385" lon="17.5702715"><ele>176.0</ele><time>2026-05-02T14:29:06.505Z</time></trkpt><trkpt lat="40.7335132" lon="17.5703949"><ele>174.0</ele><time>2026-05-02T14:29:07.504Z</time></trkpt><trkpt lat="40.733594" lon="17.5705203"><ele>172.0</ele><time>2026-05-02T14:29:08.503Z</time></trkpt><trkpt lat="40.733678" lon="17.5706528"><ele>170.0</ele><time>2026-05-02T14:29:09.503Z</time></trkpt><trkpt lat="40.7337672" lon="17.570786"><ele>168.0</ele><time>2026-05-02T14:29:10.504Z</time></trkpt><trkpt lat="40.7338571" lon="17.5709272"><ele>168.0</ele><time>2026-05-02T14:29:11.504Z</time></trkpt><trkpt lat="40.7339533" lon="17.571068"><ele>168.0</ele><time>2026-05-02T14:29:12.504Z</time></trkpt><trkpt lat="40.7340509" lon="17.5712082"><ele>168.0</ele><time>2026-05-02T14:29:13.503Z</time></trkpt><trkpt lat="40.7341475" lon="17.5713543"><ele>168.0</ele><time>2026-05-02T14:29:14.504Z</time></trkpt><trkpt lat="40.7342423" lon="17.5714957"><ele>168.5</ele><time>2026-05-02T14:29:15.504Z</time></trkpt><trkpt lat="40.7343414" lon="17.5716413"><ele>169.0</ele><time>2026-05-02T14:29:16.504Z</time></trkpt><trkpt lat="40.7344339" lon="17.57178"><ele>169.5</ele><time>2026-05-02T14:29:17.503Z</time></trkpt><trkpt lat="40.7345251" lon="17.5719195"><ele>170.0</ele><time>2026-05-02T14:29:18.503Z</time></trkpt><trkpt lat="40.73462" lon="17.5720583"><ele>169.0</ele><time>2026-05-02T14:29:19.504Z</time></trkpt><trkpt lat="40.7347191" lon="17.5721917"><ele>168.0</ele><time>2026-05-02T14:29:20.504Z</time></trkpt><trkpt lat="40.7348191" lon="17.5723233"><ele>167.0</ele><time>2026-05-02T14:29:21.504Z</time></trkpt><trkpt lat="40.7349309" lon="17.5724493"><ele>166.0</ele><time>2026-05-02T14:29:22.504Z</time></trkpt><trkpt lat="40.7350508" lon="17.5725547"><ele>166.0</ele><time>2026-05-02T14:29:23.504Z</time></trkpt><trkpt lat="40.7351709" lon="17.5726594"><ele>166.0</ele><time>2026-05-02T14:29:24.504Z</time></trkpt><trkpt lat="40.7352964" lon="17.5727565"><ele>166.0</ele><time>2026-05-02T14:29:25.504Z</time></trkpt><trkpt lat="40.735425" lon="17.5728437"><ele>166.0</ele><time>2026-05-02T14:29:26.504Z</time></trkpt><trkpt lat="40.7355562" lon="17.57292"><ele>166.25</ele><time>2026-05-02T14:29:27.505Z</time></trkpt><trkpt lat="40.7356944" lon="17.5729922"><ele>166.5</ele><time>2026-05-02T14:29:28.504Z</time></trkpt><trkpt lat="40.7358325" lon="17.5730589"><ele>166.75</ele><time>2026-05-02T14:29:29.504Z</time></trkpt><trkpt lat="40.7359711" lon="17.5731337"><ele>167.0</ele><time>2026-05-02T14:29:30.504Z</time></trkpt><trkpt lat="40.7361094" lon="17.5731993"><ele>165.5</ele><time>2026-05-02T14:29:31.504Z</time></trkpt><trkpt lat="40.7362395" lon="17.5732533"><ele>164.0</ele><time>2026-05-02T14:29:32.504Z</time></trkpt><trkpt lat="40.7363582" lon="17.5733049"><ele>162.5</ele><time>2026-05-02T14:29:33.504Z</time></trkpt><trkpt lat="40.7364638" lon="17.5733489"><ele>161.0</ele><time>2026-05-02T14:29:34.504Z</time></trkpt><trkpt lat="40.7365631" lon="17.5733978"><ele>161.0</ele><time>2026-05-02T14:29:35.504Z</time></trkpt><trkpt lat="40.7366587" lon="17.5734463"><ele>161.0</ele><time>2026-05-02T14:29:36.504Z</time></trkpt><trkpt lat="40.7367593" lon="17.5734841"><ele>161.0</ele><time>2026-05-02T14:29:37.504Z</time></trkpt><trkpt lat="40.7368584" lon="17.5735308"><ele>161.0</ele><time>2026-05-02T14:29:38.504Z</time></trkpt><trkpt lat="40.7369583" lon="17.5735855"><ele>161.0</ele><time>2026-05-02T14:29:39.504Z</time></trkpt><trkpt lat="40.7370602" lon="17.5736463"><ele>160.75</ele><time>2026-05-02T14:29:40.504Z</time></trkpt><trkpt lat="40.737169" lon="17.5737025"><ele>160.5</ele><time>2026-05-02T14:29:41.503Z</time></trkpt><trkpt lat="40.737278" lon="17.5737469"><ele>160.25</ele><time>2026-05-02T14:29:42.504Z</time></trkpt><trkpt lat="40.7373954" lon="17.573783"><ele>160.0</ele><time>2026-05-02T14:29:43.504Z</time></trkpt><trkpt lat="40.7375171" lon="17.5738191"><ele>160.0</ele><time>2026-05-02T14:29:44.504Z</time></trkpt><trkpt lat="40.7376377" lon="17.5738542"><ele>160.0</ele><time>2026-05-02T14:29:45.504Z</time></trkpt><trkpt lat="40.7377658" lon="17.573901"><ele>160.0</ele><time>2026-05-02T14:29:46.504Z</time></trkpt><trkpt lat="40.737889" lon="17.5739549"><ele>160.0</ele><time>2026-05-02T14:29:47.504Z</time></trkpt><trkpt lat="40.7380087" lon="17.5740313"><ele>156.25</ele><time>2026-05-02T14:29:48.503Z</time></trkpt><trkpt lat="40.7381268" lon="17.5741221"><ele>152.5</ele><time>2026-05-02T14:29:49.504Z</time></trkpt><trkpt lat="40.7382346" lon="17.5742279"><ele>148.75</ele><time>2026-05-02T14:29:50.505Z</time></trkpt><trkpt lat="40.7383415" lon="17.5743503"><ele>145.0</ele><time>2026-05-02T14:29:51.503Z</time></trkpt><trkpt lat="40.7384396" lon="17.5744901"><ele>148.0</ele><time>2026-05-02T14:29:52.504Z</time></trkpt><trkpt lat="40.7385347" lon="17.5746433"><ele>151.0</ele><time>2026-05-02T14:29:53.504Z</time></trkpt><trkpt lat="40.7386192" lon="17.5748118"><ele>154.0</ele><time>2026-05-02T14:29:54.504Z</time></trkpt><trkpt lat="40.7387" lon="17.5749875"><ele>149.0</ele><time>2026-05-02T14:29:55.504Z</time></trkpt><trkpt lat="40.7387721" lon="17.5751717"><ele>144.0</ele><time>2026-05-02T14:29:56.504Z</time></trkpt><trkpt lat="40.7388502" lon="17.5753536"><ele>139.0</ele><time>2026-05-02T14:29:57.503Z</time></trkpt><trkpt lat="40.7389315" lon="17.5755358"><ele>139.0</ele><time>2026-05-02T14:29:58.504Z</time></trkpt><trkpt lat="40.7390172" lon="17.5757079"><ele>139.0</ele><time>2026-05-02T14:29:59.503Z</time></trkpt><trkpt lat="40.739106" lon="17.575875"><ele>139.0</ele><time>2026-05-02T14:30:00.504Z</time></trkpt><trkpt lat="40.7391939" lon="17.5760263"><ele>139.0</ele><time>2026-05-02T14:30:01.504Z</time></trkpt><trkpt lat="40.7392795" lon="17.5761731"><ele>139.0</ele><time>2026-05-02T14:30:02.503Z</time></trkpt><trkpt lat="40.7393617" lon="17.576308"><ele>139.0</ele><time>2026-05-02T14:30:03.504Z</time></trkpt><trkpt lat="40.7394382" lon="17.5764367"><ele>139.0</ele><time>2026-05-02T14:30:04.505Z</time></trkpt><trkpt lat="40.7395045" lon="17.5765599"><ele>137.8</ele><time>2026-05-02T14:30:05.504Z</time></trkpt><trkpt lat="40.7395553" lon="17.5766873"><ele>136.60000000000002</ele><time>2026-05-02T14:30:06.504Z</time></trkpt><trkpt lat="40.7396016" lon="17.5768234"><ele>135.4</ele><time>2026-05-02T14:30:07.504Z</time></trkpt><trkpt lat="40.7396329" lon="17.5769599"><ele>134.20000000000002</ele><time>2026-05-02T14:30:08.504Z</time></trkpt><trkpt lat="40.7396542" lon="17.5770969"><ele>133.0</ele><time>2026-05-02T14:30:09.504Z</time></trkpt><trkpt lat="40.7396796" lon="17.5772201"><ele>133.0</ele><time>2026-05-02T14:30:10.504Z</time></trkpt><trkpt lat="40.7397204" lon="17.5773242"><ele>133.0</ele><time>2026-05-02T14:30:11.504Z</time></trkpt><trkpt lat="40.7397756" lon="17.5774063"><ele>133.0</ele><time>2026-05-02T14:30:12.504Z</time></trkpt><trkpt lat="40.7398433" lon="17.5774682"><ele>133.0</ele><time>2026-05-02T14:30:13.504Z</time></trkpt><trkpt lat="40.7399181" lon="17.5775061"><ele>133.0</ele><time>2026-05-02T14:30:14.504Z</time></trkpt><trkpt lat="40.7399933" lon="17.5775163"><ele>133.0</ele><time>2026-05-02T14:30:15.505Z</time></trkpt><trkpt lat="40.74007" lon="17.5774963"><ele>133.0</ele><time>2026-05-02T14:30:16.504Z</time></trkpt><trkpt lat="40.7401419" lon="17.577446"><ele>133.0</ele><time>2026-05-02T14:30:17.504Z</time></trkpt><trkpt lat="40.7402025" lon="17.5773698"><ele>133.0</ele><time>2026-05-02T14:30:18.504Z</time></trkpt><trkpt lat="40.7402483" lon="17.577273"><ele>133.0</ele><time>2026-05-02T14:30:19.504Z</time></trkpt><trkpt lat="40.7402772" lon="17.5771584"><ele>133.0</ele><time>2026-05-02T14:30:20.505Z</time></trkpt><trkpt lat="40.7402811" lon="17.5770394"><ele>133.0</ele><time>2026-05-02T14:30:21.504Z</time></trkpt><trkpt lat="40.7402601" lon="17.5769247"><ele>132.83333333333334</ele><time>2026-05-02T14:30:22.504Z</time></trkpt><trkpt lat="40.7402152" lon="17.5768247"><ele>132.66666666666669</ele><time>2026-05-02T14:30:23.505Z</time></trkpt><trkpt lat="40.7401741" lon="17.5767238"><ele>132.5</ele><time>2026-05-02T14:30:24.505Z</time></trkpt><trkpt lat="40.7401386" lon="17.5766246"><ele>132.33333333333334</ele><time>2026-05-02T14:30:25.504Z</time></trkpt><trkpt lat="40.7401146" lon="17.5765204"><ele>132.16666666666666</ele><time>2026-05-02T14:30:26.504Z</time></trkpt><trkpt lat="40.7401011" lon="17.5764127"><ele>132.0</ele><time>2026-05-02T14:30:27.504Z</time></trkpt><trkpt lat="40.7401018" lon="17.5762991"><ele>131.79999999999998</ele><time>2026-05-02T14:30:28.505Z</time></trkpt><trkpt lat="40.740119" lon="17.5761834"><ele>131.6</ele><time>2026-05-02T14:30:29.503Z</time></trkpt><trkpt lat="40.7401505" lon="17.5760654"><ele>131.39999999999998</ele><time>2026-05-02T14:30:30.505Z</time></trkpt><trkpt lat="40.7401935" lon="17.5759416"><ele>131.2</ele><time>2026-05-02T14:30:31.503Z</time></trkpt><trkpt lat="40.7402382" lon="17.5758137"><ele>131.0</ele><time>2026-05-02T14:30:32.505Z</time></trkpt><trkpt lat="40.7402876" lon="17.5756753"><ele>129.75</ele><time>2026-05-02T14:30:33.504Z</time></trkpt><trkpt lat="40.7403429" lon="17.575527"><ele>128.5</ele><time>2026-05-02T14:30:34.503Z</time></trkpt><trkpt lat="40.7403981" lon="17.5753727"><ele>127.25</ele><time>2026-05-02T14:30:35.504Z</time></trkpt><trkpt lat="40.7404522" lon="17.57521"><ele>126.0</ele><time>2026-05-02T14:30:36.505Z</time></trkpt><trkpt lat="40.7405181" lon="17.5750305"><ele>126.0</ele><time>2026-05-02T14:30:37.505Z</time></trkpt><trkpt lat="40.7405799" lon="17.574857"><ele>126.0</ele><time>2026-05-02T14:30:38.503Z</time></trkpt><trkpt lat="40.7406447" lon="17.5746709"><ele>126.0</ele><time>2026-05-02T14:30:39.504Z</time></trkpt><trkpt lat="40.7407125" lon="17.5744762"><ele>125.66666666666666</ele><time>2026-05-02T14:30:40.504Z</time></trkpt><trkpt lat="40.7407884" lon="17.5742624"><ele>125.33333333333333</ele><time>2026-05-02T14:30:41.504Z</time></trkpt><trkpt lat="40.7408585" lon="17.5740581"><ele>125.0</ele><time>2026-05-02T14:30:42.504Z</time></trkpt><trkpt lat="40.7409252" lon="17.5738557"><ele>125.33333333333333</ele><time>2026-05-02T14:30:43.504Z</time></trkpt><trkpt lat="40.7409949" lon="17.5736532"><ele>125.66666666666666</ele><time>2026-05-02T14:30:44.504Z</time></trkpt><trkpt lat="40.7410628" lon="17.5734556"><ele>126.0</ele><time>2026-05-02T14:30:45.505Z</time></trkpt><trkpt lat="40.7411327" lon="17.5732588"><ele>125.0</ele><time>2026-05-02T14:30:46.505Z</time></trkpt><trkpt lat="40.741196" lon="17.5730648"><ele>124.0</ele><time>2026-05-02T14:30:47.504Z</time></trkpt><trkpt lat="40.7412593" lon="17.5728793"><ele>123.0</ele><time>2026-05-02T14:30:48.504Z</time></trkpt><trkpt lat="40.7413257" lon="17.5727019"><ele>123.0</ele><time>2026-05-02T14:30:49.504Z</time></trkpt><trkpt lat="40.7413996" lon="17.5725356"><ele>123.0</ele><time>2026-05-02T14:30:50.505Z</time></trkpt><trkpt lat="40.741483" lon="17.5723907"><ele>123.0</ele><time>2026-05-02T14:30:51.504Z</time></trkpt><trkpt lat="40.7415801" lon="17.5722746"><ele>123.0</ele><time>2026-05-02T14:30:52.504Z</time></trkpt><trkpt lat="40.7416912" lon="17.5721819"><ele>123.0</ele><time>2026-05-02T14:30:53.504Z</time></trkpt><trkpt lat="40.7418158" lon="17.5721154"><ele>123.0</ele><time>2026-05-02T14:30:54.504Z</time></trkpt><trkpt lat="40.7419485" lon="17.5720681"><ele>123.0</ele><time>2026-05-02T14:30:55.504Z</time></trkpt><trkpt lat="40.7420875" lon="17.5720205"><ele>123.0</ele><time>2026-05-02T14:30:56.503Z</time></trkpt><trkpt lat="40.7422339" lon="17.5719728"><ele>122.0</ele><time>2026-05-02T14:30:57.504Z</time></trkpt><trkpt lat="40.7423816" lon="17.5719109"><ele>121.0</ele><time>2026-05-02T14:30:58.504Z</time></trkpt><trkpt lat="40.7425333" lon="17.5718424"><ele>120.0</ele><time>2026-05-02T14:30:59.504Z</time></trkpt><trkpt lat="40.742683" lon="17.5717681"><ele>119.66666666666666</ele><time>2026-05-02T14:31:00.502Z</time></trkpt><trkpt lat="40.7428339" lon="17.5716971"><ele>119.33333333333333</ele><time>2026-05-02T14:31:01.502Z</time></trkpt><trkpt lat="40.7429825" lon="17.5716152"><ele>119.0</ele><time>2026-05-02T14:31:02.502Z</time></trkpt><trkpt lat="40.7431277" lon="17.5715207"><ele>119.0</ele><time>2026-05-02T14:31:03.504Z</time></trkpt><trkpt lat="40.7432673" lon="17.5714093"><ele>119.0</ele><time>2026-05-02T14:31:04.503Z</time></trkpt><trkpt lat="40.7433987" lon="17.5712813"><ele>119.0</ele><time>2026-05-02T14:31:05.504Z</time></trkpt><trkpt lat="40.7435239" lon="17.571123"><ele>118.0</ele><time>2026-05-02T14:31:06.503Z</time></trkpt><trkpt lat="40.7436416" lon="17.5709614"><ele>117.0</ele><time>2026-05-02T14:31:07.502Z</time></trkpt><trkpt lat="40.7437602" lon="17.5707856"><ele>116.0</ele><time>2026-05-02T14:31:08.503Z</time></trkpt><trkpt lat="40.7438829" lon="17.5706076"><ele>116.0</ele><time>2026-05-02T14:31:09.503Z</time></trkpt><trkpt lat="40.7440131" lon="17.5704279"><ele>116.0</ele><time>2026-05-02T14:31:10.503Z</time></trkpt><trkpt lat="40.7441502" lon="17.5702474"><ele>116.0</ele><time>2026-05-02T14:31:11.504Z</time></trkpt><trkpt lat="40.744289" lon="17.5700696"><ele>114.66666666666666</ele><time>2026-05-02T14:31:12.503Z</time></trkpt><trkpt lat="40.7444302" lon="17.5698949"><ele>113.33333333333334</ele><time>2026-05-02T14:31:13.504Z</time></trkpt><trkpt lat="40.7445668" lon="17.5697114"><ele>112.0</ele><time>2026-05-02T14:31:14.504Z</time></trkpt><trkpt lat="40.744707" lon="17.5695293"><ele>112.0</ele><time>2026-05-02T14:31:15.502Z</time></trkpt><trkpt lat="40.7448483" lon="17.569341"><ele>112.0</ele><time>2026-05-02T14:31:16.503Z</time></trkpt><trkpt lat="40.7449968" lon="17.569146"><ele>112.0</ele><time>2026-05-02T14:31:17.503Z</time></trkpt><trkpt lat="40.7451447" lon="17.5689468"><ele>111.33333333333334</ele><time>2026-05-02T14:31:18.503Z</time></trkpt><trkpt lat="40.7452893" lon="17.5687483"><ele>110.66666666666666</ele><time>2026-05-02T14:31:19.503Z</time></trkpt><trkpt lat="40.7454265" lon="17.5685637"><ele>110.0</ele><time>2026-05-02T14:31:20.503Z</time></trkpt><trkpt lat="40.7455565" lon="17.5683897"><ele>110.0</ele><time>2026-05-02T14:31:21.503Z</time></trkpt><trkpt lat="40.7456839" lon="17.5682282"><ele>110.0</ele><time>2026-05-02T14:31:22.503Z</time></trkpt><trkpt lat="40.7458138" lon="17.5680756"><ele>110.0</ele><time>2026-05-02T14:31:23.503Z</time></trkpt><trkpt lat="40.7459491" lon="17.5679369"><ele>109.33333333333333</ele><time>2026-05-02T14:31:24.503Z</time></trkpt><trkpt lat="40.7460867" lon="17.5678023"><ele>108.66666666666666</ele><time>2026-05-02T14:31:25.503Z</time></trkpt><trkpt lat="40.7462252" lon="17.5676778"><ele>108.0</ele><time>2026-05-02T14:31:26.503Z</time></trkpt><trkpt lat="40.7463709" lon="17.5675316"><ele>108.0</ele><time>2026-05-02T14:31:27.503Z</time></trkpt><trkpt lat="40.7465144" lon="17.5673892"><ele>108.0</ele><time>2026-05-02T14:31:28.504Z</time></trkpt><trkpt lat="40.7466566" lon="17.5672389"><ele>108.0</ele><time>2026-05-02T14:31:29.503Z</time></trkpt><trkpt lat="40.7467854" lon="17.5670898"><ele>106.33333333333334</ele><time>2026-05-02T14:31:30.502Z</time></trkpt><trkpt lat="40.7469211" lon="17.5669124"><ele>104.66666666666667</ele><time>2026-05-02T14:31:31.503Z</time></trkpt><trkpt lat="40.747064" lon="17.5667474"><ele>103.0</ele><time>2026-05-02T14:31:32.503Z</time></trkpt><trkpt lat="40.7472052" lon="17.5665758"><ele>103.0</ele><time>2026-05-02T14:31:33.502Z</time></trkpt><trkpt lat="40.7473511" lon="17.5664027"><ele>103.0</ele><time>2026-05-02T14:31:34.503Z</time></trkpt><trkpt lat="40.7474926" lon="17.5662251"><ele>103.0</ele><time>2026-05-02T14:31:35.503Z</time></trkpt><trkpt lat="40.7476322" lon="17.5660477"><ele>101.33333333333334</ele><time>2026-05-02T14:31:36.503Z</time></trkpt><trkpt lat="40.7477698" lon="17.5658648"><ele>99.66666666666666</ele><time>2026-05-02T14:31:37.502Z</time></trkpt><trkpt lat="40.7479026" lon="17.5656846"><ele>98.0</ele><time>2026-05-02T14:31:38.503Z</time></trkpt><trkpt lat="40.7480338" lon="17.5655073"><ele>97.66666666666666</ele><time>2026-05-02T14:31:39.503Z</time></trkpt><trkpt lat="40.7481727" lon="17.5653395"><ele>97.33333333333334</ele><time>2026-05-02T14:31:40.502Z</time></trkpt><trkpt lat="40.7483216" lon="17.5651947"><ele>97.0</ele><time>2026-05-02T14:31:41.503Z</time></trkpt><trkpt lat="40.7484756" lon="17.5650664"><ele>95.66666666666667</ele><time>2026-05-02T14:31:42.502Z</time></trkpt><trkpt lat="40.7486351" lon="17.5649421"><ele>94.33333333333334</ele><time>2026-05-02T14:31:43.502Z</time></trkpt><trkpt lat="40.7488008" lon="17.5648282"><ele>93.0</ele><time>2026-05-02T14:31:44.503Z</time></trkpt><trkpt lat="40.748973" lon="17.5647247"><ele>93.0</ele><time>2026-05-02T14:31:45.504Z</time></trkpt><trkpt lat="40.7491485" lon="17.5646155"><ele>93.0</ele><time>2026-05-02T14:31:46.503Z</time></trkpt><trkpt lat="40.7493303" lon="17.5645202"><ele>93.0</ele><time>2026-05-02T14:31:47.504Z</time></trkpt><trkpt lat="40.7495178" lon="17.5644396"><ele>92.66666666666667</ele><time>2026-05-02T14:31:48.503Z</time></trkpt><trkpt lat="40.7497096" lon="17.564369"><ele>92.33333333333334</ele><time>2026-05-02T14:31:49.503Z</time></trkpt><trkpt lat="40.7499039" lon="17.5642923"><ele>92.0</ele><time>2026-05-02T14:31:50.503Z</time></trkpt><trkpt lat="40.750099" lon="17.5642064"><ele>91.33333333333334</ele><time>2026-05-02T14:31:51.504Z</time></trkpt><trkpt lat="40.7502985" lon="17.5641207"><ele>90.66666666666667</ele><time>2026-05-02T14:31:52.503Z</time></trkpt><trkpt lat="40.7505002" lon="17.56403"><ele>90.0</ele><time>2026-05-02T14:31:53.503Z</time></trkpt><trkpt lat="40.7507096" lon="17.5639479"><ele>90.0</ele><time>2026-05-02T14:31:54.502Z</time></trkpt><trkpt lat="40.7509239" lon="17.5638635"><ele>90.0</ele><time>2026-05-02T14:31:55.504Z</time></trkpt><trkpt lat="40.7511354" lon="17.5637782"><ele>90.0</ele><time>2026-05-02T14:31:56.503Z</time></trkpt><trkpt lat="40.7513447" lon="17.5636881"><ele>88.66666666666667</ele><time>2026-05-02T14:31:57.503Z</time></trkpt><trkpt lat="40.7515527" lon="17.5636105"><ele>87.33333333333334</ele><time>2026-05-02T14:31:58.503Z</time></trkpt><trkpt lat="40.75176" lon="17.5635393"><ele>86.0</ele><time>2026-05-02T14:31:59.504Z</time></trkpt><trkpt lat="40.7519627" lon="17.5634787"><ele>85.66666666666667</ele><time>2026-05-02T14:32:00.503Z</time></trkpt><trkpt lat="40.7521495" lon="17.5634366"><ele>85.33333333333333</ele><time>2026-05-02T14:32:01.503Z</time></trkpt><trkpt lat="40.7523329" lon="17.5634045"><ele>85.0</ele><time>2026-05-02T14:32:02.502Z</time></trkpt><trkpt lat="40.7525091" lon="17.5633959"><ele>85.0</ele><time>2026-05-02T14:32:03.502Z</time></trkpt><trkpt lat="40.752682" lon="17.5633852"><ele>85.0</ele><time>2026-05-02T14:32:04.503Z</time></trkpt><trkpt lat="40.7528623" lon="17.563427"><ele>85.0</ele><time>2026-05-02T14:32:05.503Z</time></trkpt><trkpt lat="40.7530509" lon="17.5634702"><ele>84.66666666666666</ele><time>2026-05-02T14:32:06.502Z</time></trkpt><trkpt lat="40.7532413" lon="17.5635175"><ele>84.33333333333333</ele><time>2026-05-02T14:32:07.503Z</time></trkpt><trkpt lat="40.7534354" lon="17.5635693"><ele>84.0</ele><time>2026-05-02T14:32:08.503Z</time></trkpt><trkpt lat="40.7536358" lon="17.5636275"><ele>84.0</ele><time>2026-05-02T14:32:09.503Z</time></trkpt><trkpt lat="40.7538379" lon="17.5636873"><ele>84.0</ele><time>2026-05-02T14:32:10.503Z</time></trkpt><trkpt lat="40.7540446" lon="17.5637463"><ele>84.0</ele><time>2026-05-02T14:32:11.503Z</time></trkpt><trkpt lat="40.7542526" lon="17.5638035"><ele>83.66666666666667</ele><time>2026-05-02T14:32:12.503Z</time></trkpt><trkpt lat="40.754463" lon="17.5638594"><ele>83.33333333333334</ele><time>2026-05-02T14:32:13.504Z</time></trkpt><trkpt lat="40.7546776" lon="17.563918"><ele>83.0</ele><time>2026-05-02T14:32:14.502Z</time></trkpt><trkpt lat="40.7548935" lon="17.5639676"><ele>83.0</ele><time>2026-05-02T14:32:15.503Z</time></trkpt><trkpt lat="40.7551068" lon="17.564025"><ele>83.0</ele><time>2026-05-02T14:32:16.503Z</time></trkpt><trkpt lat="40.7553239" lon="17.5640841"><ele>83.0</ele><time>2026-05-02T14:32:17.503Z</time></trkpt><trkpt lat="40.7555456" lon="17.5641474"><ele>82.5</ele><time>2026-05-02T14:32:18.502Z</time></trkpt><trkpt lat="40.755767" lon="17.5642082"><ele>82.0</ele><time>2026-05-02T14:32:19.503Z</time></trkpt><trkpt lat="40.7559918" lon="17.5642663"><ele>80.5</ele><time>2026-05-02T14:32:20.504Z</time></trkpt><trkpt lat="40.7562156" lon="17.564324"><ele>79.0</ele><time>2026-05-02T14:32:21.503Z</time></trkpt><trkpt lat="40.7564347" lon="17.5643769"><ele>79.0</ele><time>2026-05-02T14:32:22.502Z</time></trkpt><trkpt lat="40.7566499" lon="17.5644291"><ele>79.0</ele><time>2026-05-02T14:32:23.503Z</time></trkpt><trkpt lat="40.756859" lon="17.5644853"><ele>79.0</ele><time>2026-05-02T14:32:24.503Z</time></trkpt><trkpt lat="40.7570635" lon="17.5645409"><ele>78.33333333333333</ele><time>2026-05-02T14:32:25.504Z</time></trkpt><trkpt lat="40.7572588" lon="17.5645947"><ele>77.66666666666667</ele><time>2026-05-02T14:32:26.504Z</time></trkpt><trkpt lat="40.7574488" lon="17.5646458"><ele>77.0</ele><time>2026-05-02T14:32:27.503Z</time></trkpt><trkpt lat="40.757637" lon="17.5647002"><ele>76.33333333333334</ele><time>2026-05-02T14:32:28.503Z</time></trkpt><trkpt lat="40.7578176" lon="17.5647501"><ele>75.66666666666667</ele><time>2026-05-02T14:32:29.503Z</time></trkpt><trkpt lat="40.7579891" lon="17.5647924"><ele>75.0</ele><time>2026-05-02T14:32:30.503Z</time></trkpt><trkpt lat="40.7581609" lon="17.5648366"><ele>75.0</ele><time>2026-05-02T14:32:31.502Z</time></trkpt><trkpt lat="40.7583317" lon="17.5648709"><ele>75.0</ele><time>2026-05-02T14:32:32.503Z</time></trkpt><trkpt lat="40.7585032" lon="17.5648875"><ele>75.0</ele><time>2026-05-02T14:32:33.503Z</time></trkpt><trkpt lat="40.7586758" lon="17.5648932"><ele>73.66666666666667</ele><time>2026-05-02T14:32:34.504Z</time></trkpt><trkpt lat="40.7588478" lon="17.5648785"><ele>72.33333333333334</ele><time>2026-05-02T14:32:35.502Z</time></trkpt><trkpt lat="40.7590206" lon="17.5648394"><ele>71.0</ele><time>2026-05-02T14:32:36.503Z</time></trkpt><trkpt lat="40.7591985" lon="17.5647833"><ele>70.66666666666667</ele><time>2026-05-02T14:32:37.502Z</time></trkpt><trkpt lat="40.7593793" lon="17.5647143"><ele>70.33333333333333</ele><time>2026-05-02T14:32:38.502Z</time></trkpt><trkpt lat="40.7595632" lon="17.564639"><ele>70.0</ele><time>2026-05-02T14:32:39.503Z</time></trkpt><trkpt lat="40.7597508" lon="17.5645587"><ele>69.33333333333333</ele><time>2026-05-02T14:32:40.502Z</time></trkpt><trkpt lat="40.7599419" lon="17.5644816"><ele>68.66666666666667</ele><time>2026-05-02T14:32:41.503Z</time></trkpt><trkpt lat="40.7601337" lon="17.5644033"><ele>68.0</ele><time>2026-05-02T14:32:42.503Z</time></trkpt><trkpt lat="40.7603188" lon="17.5643251"><ele>68.0</ele><time>2026-05-02T14:32:43.503Z</time></trkpt><trkpt lat="40.7605027" lon="17.5642437"><ele>68.0</ele><time>2026-05-02T14:32:44.503Z</time></trkpt><trkpt lat="40.7606894" lon="17.5641593"><ele>68.0</ele><time>2026-05-02T14:32:45.503Z</time></trkpt><trkpt lat="40.7608683" lon="17.5640649"><ele>66.33333333333334</ele><time>2026-05-02T14:32:46.503Z</time></trkpt><trkpt lat="40.7610404" lon="17.5639584"><ele>64.66666666666667</ele><time>2026-05-02T14:32:47.504Z</time></trkpt><trkpt lat="40.7612068" lon="17.5638362"><ele>63.0</ele><time>2026-05-02T14:32:48.503Z</time></trkpt><trkpt lat="40.7613656" lon="17.5636995"><ele>63.33333333333333</ele><time>2026-05-02T14:32:49.503Z</time></trkpt><trkpt lat="40.7615173" lon="17.5635458"><ele>63.666666666666664</ele><time>2026-05-02T14:32:50.503Z</time></trkpt><trkpt lat="40.7616621" lon="17.5633822"><ele>64.0</ele><time>2026-05-02T14:32:51.504Z</time></trkpt><trkpt lat="40.7617995" lon="17.5631832"><ele>63.33333333333333</ele><time>2026-05-02T14:32:52.502Z</time></trkpt><trkpt lat="40.7619314" lon="17.5629723"><ele>62.66666666666667</ele><time>2026-05-02T14:32:53.503Z</time></trkpt><trkpt lat="40.7620616" lon="17.5627501"><ele>62.0</ele><time>2026-05-02T14:32:54.503Z</time></trkpt><trkpt lat="40.7621951" lon="17.5625222"><ele>62.0</ele><time>2026-05-02T14:32:55.503Z</time></trkpt><trkpt lat="40.7623285" lon="17.5622892"><ele>62.0</ele><time>2026-05-02T14:32:56.503Z</time></trkpt><trkpt lat="40.7624684" lon="17.5620539"><ele>62.0</ele><time>2026-05-02T14:32:57.502Z</time></trkpt><trkpt lat="40.7626082" lon="17.5618169"><ele>60.0</ele><time>2026-05-02T14:32:58.503Z</time></trkpt><trkpt lat="40.7627465" lon="17.561579"><ele>58.0</ele><time>2026-05-02T14:32:59.503Z</time></trkpt><trkpt lat="40.7628862" lon="17.5613366"><ele>58.5</ele><time>2026-05-02T14:33:00.503Z</time></trkpt><trkpt lat="40.7630265" lon="17.5610994"><ele>59.0</ele><time>2026-05-02T14:33:01.503Z</time></trkpt><trkpt lat="40.7631676" lon="17.5608617"><ele>59.0</ele><time>2026-05-02T14:33:02.503Z</time></trkpt><trkpt lat="40.7633042" lon="17.5606254"><ele>59.0</ele><time>2026-05-02T14:33:03.503Z</time></trkpt><trkpt lat="40.7634371" lon="17.5603961"><ele>59.0</ele><time>2026-05-02T14:33:04.503Z</time></trkpt><trkpt lat="40.7635713" lon="17.5601719"><ele>58.66666666666667</ele><time>2026-05-02T14:33:05.503Z</time></trkpt><trkpt lat="40.7637014" lon="17.559947"><ele>58.33333333333333</ele><time>2026-05-02T14:33:06.502Z</time></trkpt><trkpt lat="40.7638294" lon="17.5597238"><ele>58.0</ele><time>2026-05-02T14:33:07.503Z</time></trkpt><trkpt lat="40.7639544" lon="17.5595046"><ele>58.0</ele><time>2026-05-02T14:33:08.504Z</time></trkpt><trkpt lat="40.7640789" lon="17.5592916"><ele>58.0</ele><time>2026-05-02T14:33:09.502Z</time></trkpt><trkpt lat="40.7642014" lon="17.5590819"><ele>58.0</ele><time>2026-05-02T14:33:10.502Z</time></trkpt><trkpt lat="40.7643223" lon="17.5588743"><ele>58.0</ele><time>2026-05-02T14:33:11.503Z</time></trkpt><trkpt lat="40.7644373" lon="17.5586785"><ele>58.0</ele><time>2026-05-02T14:33:12.502Z</time></trkpt><trkpt lat="40.7645513" lon="17.5584826"><ele>58.0</ele><time>2026-05-02T14:33:13.504Z</time></trkpt><trkpt lat="40.764668" lon="17.5582939"><ele>58.0</ele><time>2026-05-02T14:33:14.504Z</time></trkpt><trkpt lat="40.7647933" lon="17.5581131"><ele>58.0</ele><time>2026-05-02T14:33:15.502Z</time></trkpt><trkpt lat="40.7649232" lon="17.5579431"><ele>58.0</ele><time>2026-05-02T14:33:16.502Z</time></trkpt><trkpt lat="40.7650579" lon="17.5577833"><ele>57.666666666666664</ele><time>2026-05-02T14:33:17.502Z</time></trkpt><trkpt lat="40.7651994" lon="17.5576349"><ele>57.33333333333333</ele><time>2026-05-02T14:33:18.503Z</time></trkpt><trkpt lat="40.7653467" lon="17.5575"><ele>57.0</ele><time>2026-05-02T14:33:19.502Z</time></trkpt><trkpt lat="40.7655015" lon="17.5573832"><ele>57.0</ele><time>2026-05-02T14:33:20.503Z</time></trkpt><trkpt lat="40.7656569" lon="17.5572833"><ele>57.0</ele><time>2026-05-02T14:33:21.504Z</time></trkpt><trkpt lat="40.7658305" lon="17.557221"><ele>57.0</ele><time>2026-05-02T14:33:22.503Z</time></trkpt><trkpt lat="40.7660163" lon="17.5571537"><ele>56.33333333333333</ele><time>2026-05-02T14:33:23.503Z</time></trkpt><trkpt lat="40.7662005" lon="17.557098"><ele>55.666666666666664</ele><time>2026-05-02T14:33:24.504Z</time></trkpt><trkpt lat="40.7663872" lon="17.55704"><ele>55.0</ele><time>2026-05-02T14:33:25.503Z</time></trkpt><trkpt lat="40.7665736" lon="17.556982"><ele>55.0</ele><time>2026-05-02T14:33:26.502Z</time></trkpt><trkpt lat="40.7667601" lon="17.5569284"><ele>55.0</ele><time>2026-05-02T14:33:27.502Z</time></trkpt><trkpt lat="40.766945" lon="17.5568734"><ele>55.0</ele><time>2026-05-02T14:33:28.504Z</time></trkpt><trkpt lat="40.7671328" lon="17.5568163"><ele>55.0</ele><time>2026-05-02T14:33:29.503Z</time></trkpt><trkpt lat="40.7673168" lon="17.55677"><ele>55.0</ele><time>2026-05-02T14:33:30.503Z</time></trkpt><trkpt lat="40.7675073" lon="17.5567199"><ele>55.0</ele><time>2026-05-02T14:33:31.503Z</time></trkpt><trkpt lat="40.7676962" lon="17.5566667"><ele>55.0</ele><time>2026-05-02T14:33:32.503Z</time></trkpt><trkpt lat="40.7678831" lon="17.5566233"><ele>55.0</ele><time>2026-05-02T14:33:33.503Z</time></trkpt><trkpt lat="40.7680699" lon="17.5565851"><ele>55.0</ele><time>2026-05-02T14:33:34.503Z</time></trkpt><trkpt lat="40.7682627" lon="17.5565454"><ele>55.0</ele><time>2026-05-02T14:33:35.503Z</time></trkpt><trkpt lat="40.7684424" lon="17.5565017"><ele>55.0</ele><time>2026-05-02T14:33:36.504Z</time></trkpt><trkpt lat="40.7686092" lon="17.5564533"><ele>55.0</ele><time>2026-05-02T14:33:37.503Z</time></trkpt><trkpt lat="40.7687619" lon="17.5563947"><ele>54.0</ele><time>2026-05-02T14:33:38.503Z</time></trkpt><trkpt lat="40.7689056" lon="17.5563091"><ele>53.0</ele><time>2026-05-02T14:33:39.503Z</time></trkpt><trkpt lat="40.7690392" lon="17.5561978"><ele>52.0</ele><time>2026-05-02T14:33:40.503Z</time></trkpt><trkpt lat="40.7691658" lon="17.5560624"><ele>52.0</ele><time>2026-05-02T14:33:41.503Z</time></trkpt><trkpt lat="40.7692859" lon="17.5559181"><ele>52.0</ele><time>2026-05-02T14:33:42.503Z</time></trkpt><trkpt lat="40.7694096" lon="17.5557643"><ele>52.0</ele><time>2026-05-02T14:33:43.503Z</time></trkpt><trkpt lat="40.7695341" lon="17.5556073"><ele>51.666666666666664</ele><time>2026-05-02T14:33:44.503Z</time></trkpt><trkpt lat="40.7696662" lon="17.5554396"><ele>51.33333333333333</ele><time>2026-05-02T14:33:45.502Z</time></trkpt><trkpt lat="40.7697983" lon="17.5552747"><ele>51.0</ele><time>2026-05-02T14:33:46.502Z</time></trkpt><trkpt lat="40.7699323" lon="17.5551074"><ele>51.0</ele><time>2026-05-02T14:33:47.503Z</time></trkpt><trkpt lat="40.7700687" lon="17.5549403"><ele>51.0</ele><time>2026-05-02T14:33:48.503Z</time></trkpt><trkpt lat="40.7702079" lon="17.5547804"><ele>51.0</ele><time>2026-05-02T14:33:49.503Z</time></trkpt><trkpt lat="40.7703538" lon="17.5546195"><ele>50.33333333333333</ele><time>2026-05-02T14:33:50.503Z</time></trkpt><trkpt lat="40.7705025" lon="17.554456"><ele>49.666666666666664</ele><time>2026-05-02T14:33:51.504Z</time></trkpt><trkpt lat="40.770648" lon="17.5542969"><ele>49.0</ele><time>2026-05-02T14:33:52.503Z</time></trkpt><trkpt lat="40.7707915" lon="17.5541363"><ele>49.0</ele><time>2026-05-02T14:33:53.503Z</time></trkpt><trkpt lat="40.7709323" lon="17.5539704"><ele>49.0</ele><time>2026-05-02T14:33:54.503Z</time></trkpt><trkpt lat="40.7710642" lon="17.5538018"><ele>49.0</ele><time>2026-05-02T14:33:55.502Z</time></trkpt><trkpt lat="40.7711971" lon="17.553634"><ele>48.666666666666664</ele><time>2026-05-02T14:33:56.503Z</time></trkpt><trkpt lat="40.7713415" lon="17.5534671"><ele>48.33333333333333</ele><time>2026-05-02T14:33:57.503Z</time></trkpt><trkpt lat="40.7714899" lon="17.5533079"><ele>48.0</ele><time>2026-05-02T14:33:58.503Z</time></trkpt><trkpt lat="40.7716499" lon="17.5531565"><ele>48.0</ele><time>2026-05-02T14:33:59.502Z</time></trkpt><trkpt lat="40.7718091" lon="17.5530144"><ele>48.0</ele><time>2026-05-02T14:34:00.502Z</time></trkpt><trkpt lat="40.7719617" lon="17.5528794"><ele>48.0</ele><time>2026-05-02T14:34:01.503Z</time></trkpt><trkpt lat="40.772115" lon="17.5527464"><ele>48.0</ele><time>2026-05-02T14:34:02.503Z</time></trkpt><trkpt lat="40.7722569" lon="17.5526142"><ele>48.0</ele><time>2026-05-02T14:34:03.503Z</time></trkpt><trkpt lat="40.7724096" lon="17.5524944"><ele>48.0</ele><time>2026-05-02T14:34:04.503Z</time></trkpt><trkpt lat="40.7725675" lon="17.5523785"><ele>47.333333333333336</ele><time>2026-05-02T14:34:05.503Z</time></trkpt><trkpt lat="40.7727349" lon="17.5522785"><ele>46.66666666666667</ele><time>2026-05-02T14:34:06.504Z</time></trkpt><trkpt lat="40.7729081" lon="17.5521826"><ele>46.0</ele><time>2026-05-02T14:34:07.503Z</time></trkpt><trkpt lat="40.7730796" lon="17.5520806"><ele>46.333333333333336</ele><time>2026-05-02T14:34:08.503Z</time></trkpt><trkpt lat="40.7732552" lon="17.5519676"><ele>46.666666666666664</ele><time>2026-05-02T14:34:09.503Z</time></trkpt><trkpt lat="40.7734301" lon="17.5518463"><ele>47.0</ele><time>2026-05-02T14:34:10.503Z</time></trkpt><trkpt lat="40.7736056" lon="17.5517156"><ele>46.33333333333333</ele><time>2026-05-02T14:34:11.502Z</time></trkpt><trkpt lat="40.7737863" lon="17.551584"><ele>45.666666666666664</ele><time>2026-05-02T14:34:12.503Z</time></trkpt><trkpt lat="40.7739613" lon="17.5514517"><ele>45.0</ele><time>2026-05-02T14:34:13.503Z</time></trkpt><trkpt lat="40.7741402" lon="17.551322"><ele>45.0</ele><time>2026-05-02T14:34:14.503Z</time></trkpt><trkpt lat="40.7743147" lon="17.5511948"><ele>45.0</ele><time>2026-05-02T14:34:15.502Z</time></trkpt><trkpt lat="40.7744858" lon="17.5510692"><ele>45.0</ele><time>2026-05-02T14:34:16.503Z</time></trkpt><trkpt lat="40.7746497" lon="17.5509453"><ele>45.0</ele><time>2026-05-02T14:34:17.503Z</time></trkpt><trkpt lat="40.7748095" lon="17.5508216"><ele>45.0</ele><time>2026-05-02T14:34:18.503Z</time></trkpt><trkpt lat="40.7749656" lon="17.5506958"><ele>45.0</ele><time>2026-05-02T14:34:19.504Z</time></trkpt><trkpt lat="40.7751187" lon="17.550555"><ele>45.0</ele><time>2026-05-02T14:34:20.503Z</time></trkpt><trkpt lat="40.7752552" lon="17.5504008"><ele>45.0</ele><time>2026-05-02T14:34:21.503Z</time></trkpt><trkpt lat="40.7753922" lon="17.5502469"><ele>45.0</ele><time>2026-05-02T14:34:22.504Z</time></trkpt><trkpt lat="40.7755198" lon="17.5500872"><ele>45.0</ele><time>2026-05-02T14:34:23.503Z</time></trkpt><trkpt lat="40.7756465" lon="17.5499345"><ele>45.0</ele><time>2026-05-02T14:34:24.503Z</time></trkpt><trkpt lat="40.775776" lon="17.549777"><ele>45.0</ele><time>2026-05-02T14:34:25.503Z</time></trkpt><trkpt lat="40.7759046" lon="17.5496229"><ele>45.333333333333336</ele><time>2026-05-02T14:34:26.503Z</time></trkpt><trkpt lat="40.7760246" lon="17.5494601"><ele>45.66666666666667</ele><time>2026-05-02T14:34:27.503Z</time></trkpt><trkpt lat="40.7761478" lon="17.5492839"><ele>46.0</ele><time>2026-05-02T14:34:28.503Z</time></trkpt><trkpt lat="40.7762622" lon="17.5491"><ele>46.0</ele><time>2026-05-02T14:34:29.503Z</time></trkpt><trkpt lat="40.7763769" lon="17.5489123"><ele>46.0</ele><time>2026-05-02T14:34:30.502Z</time></trkpt><trkpt lat="40.7764907" lon="17.5487114"><ele>46.0</ele><time>2026-05-02T14:34:31.503Z</time></trkpt><trkpt lat="40.7765933" lon="17.5485043"><ele>46.333333333333336</ele><time>2026-05-02T14:34:32.503Z</time></trkpt><trkpt lat="40.776692" lon="17.5482912"><ele>46.666666666666664</ele><time>2026-05-02T14:34:33.502Z</time></trkpt><trkpt lat="40.7767869" lon="17.5480753"><ele>47.0</ele><time>2026-05-02T14:34:34.503Z</time></trkpt><trkpt lat="40.7768778" lon="17.5478612"><ele>46.0</ele><time>2026-05-02T14:34:35.504Z</time></trkpt><trkpt lat="40.7769809" lon="17.547635"><ele>45.0</ele><time>2026-05-02T14:34:36.502Z</time></trkpt><trkpt lat="40.7770846" lon="17.5474102"><ele>44.0</ele><time>2026-05-02T14:34:37.503Z</time></trkpt><trkpt lat="40.777186" lon="17.5471853"><ele>44.0</ele><time>2026-05-02T14:34:38.503Z</time></trkpt><trkpt lat="40.777289" lon="17.5469674"><ele>44.0</ele><time>2026-05-02T14:34:39.503Z</time></trkpt><trkpt lat="40.7773943" lon="17.5467477"><ele>44.0</ele><time>2026-05-02T14:34:40.503Z</time></trkpt><trkpt lat="40.7775063" lon="17.546535"><ele>44.0</ele><time>2026-05-02T14:34:41.503Z</time></trkpt><trkpt lat="40.7776234" lon="17.5463318"><ele>44.0</ele><time>2026-05-02T14:34:42.502Z</time></trkpt><trkpt lat="40.7777469" lon="17.5461272"><ele>44.0</ele><time>2026-05-02T14:34:43.504Z</time></trkpt><trkpt lat="40.7778709" lon="17.5459213"><ele>44.0</ele><time>2026-05-02T14:34:44.504Z</time></trkpt><trkpt lat="40.778" lon="17.5457071"><ele>44.0</ele><time>2026-05-02T14:34:45.504Z</time></trkpt><trkpt lat="40.7781283" lon="17.5454943"><ele>44.0</ele><time>2026-05-02T14:34:46.504Z</time></trkpt><trkpt lat="40.7782568" lon="17.545282"><ele>43.666666666666664</ele><time>2026-05-02T14:34:47.503Z</time></trkpt><trkpt lat="40.7783836" lon="17.5450711"><ele>43.333333333333336</ele><time>2026-05-02T14:34:48.504Z</time></trkpt><trkpt lat="40.7785117" lon="17.5448704"><ele>43.0</ele><time>2026-05-02T14:34:49.503Z</time></trkpt><trkpt lat="40.7786412" lon="17.5446643"><ele>42.66666666666667</ele><time>2026-05-02T14:34:50.502Z</time></trkpt><trkpt lat="40.7787685" lon="17.5444652"><ele>42.333333333333336</ele><time>2026-05-02T14:34:51.503Z</time></trkpt><trkpt lat="40.7788995" lon="17.5442625"><ele>42.0</ele><time>2026-05-02T14:34:52.504Z</time></trkpt><trkpt lat="40.7790275" lon="17.5440631"><ele>42.0</ele><time>2026-05-02T14:34:53.503Z</time></trkpt><trkpt lat="40.7791551" lon="17.5438561"><ele>42.0</ele><time>2026-05-02T14:34:54.504Z</time></trkpt><trkpt lat="40.7792821" lon="17.543652"><ele>42.0</ele><time>2026-05-02T14:34:55.502Z</time></trkpt><trkpt lat="40.7794142" lon="17.5434456"><ele>42.0</ele><time>2026-05-02T14:34:56.502Z</time></trkpt><trkpt lat="40.779546" lon="17.5432361"><ele>42.0</ele><time>2026-05-02T14:34:57.503Z</time></trkpt><trkpt lat="40.7796774" lon="17.5430287"><ele>42.0</ele><time>2026-05-02T14:34:58.502Z</time></trkpt><trkpt lat="40.7798073" lon="17.5428245"><ele>42.333333333333336</ele><time>2026-05-02T14:34:59.502Z</time></trkpt><trkpt lat="40.779936" lon="17.542628"><ele>42.66666666666667</ele><time>2026-05-02T14:35:00.503Z</time></trkpt><trkpt lat="40.7800708" lon="17.5424197"><ele>43.0</ele><time>2026-05-02T14:35:01.503Z</time></trkpt><trkpt lat="40.7801911" lon="17.5422164"><ele>43.0</ele><time>2026-05-02T14:35:02.502Z</time></trkpt><trkpt lat="40.7803009" lon="17.5419979"><ele>43.0</ele><time>2026-05-02T14:35:03.503Z</time></trkpt><trkpt lat="40.780407" lon="17.541777"><ele>43.0</ele><time>2026-05-02T14:35:04.502Z</time></trkpt><trkpt lat="40.7804919" lon="17.5415512"><ele>43.0</ele><time>2026-05-02T14:35:05.502Z</time></trkpt><trkpt lat="40.7805767" lon="17.5413254"><ele>43.0</ele><time>2026-05-02T14:35:06.502Z</time></trkpt><trkpt lat="40.7806647" lon="17.5411052"><ele>43.0</ele><time>2026-05-02T14:35:07.502Z</time></trkpt><trkpt lat="40.7807502" lon="17.5408851"><ele>43.333333333333336</ele><time>2026-05-02T14:35:08.503Z</time></trkpt><trkpt lat="40.7808392" lon="17.5406648"><ele>43.666666666666664</ele><time>2026-05-02T14:35:09.502Z</time></trkpt><trkpt lat="40.7809296" lon="17.5404406"><ele>44.0</ele><time>2026-05-02T14:35:10.503Z</time></trkpt><trkpt lat="40.7810145" lon="17.5402182"><ele>44.33333333333333</ele><time>2026-05-02T14:35:11.503Z</time></trkpt><trkpt lat="40.7810998" lon="17.539997"><ele>44.666666666666664</ele><time>2026-05-02T14:35:12.501Z</time></trkpt><trkpt lat="40.7811851" lon="17.5397736"><ele>45.0</ele><time>2026-05-02T14:35:13.502Z</time></trkpt><trkpt lat="40.7812714" lon="17.5395494"><ele>45.0</ele><time>2026-05-02T14:35:14.502Z</time></trkpt><trkpt lat="40.7813613" lon="17.5393254"><ele>45.0</ele><time>2026-05-02T14:35:15.502Z</time></trkpt><trkpt lat="40.7814496" lon="17.5391012"><ele>45.0</ele><time>2026-05-02T14:35:16.502Z</time></trkpt><trkpt lat="40.7815353" lon="17.5388667"><ele>45.0</ele><time>2026-05-02T14:35:17.502Z</time></trkpt><trkpt lat="40.7816234" lon="17.5386361"><ele>45.0</ele><time>2026-05-02T14:35:18.502Z</time></trkpt><trkpt lat="40.7817119" lon="17.538401"><ele>45.0</ele><time>2026-05-02T14:35:19.503Z</time></trkpt><trkpt lat="40.7818025" lon="17.5381702"><ele>44.333333333333336</ele><time>2026-05-02T14:35:20.502Z</time></trkpt><trkpt lat="40.7818914" lon="17.5379388"><ele>43.66666666666667</ele><time>2026-05-02T14:35:21.501Z</time></trkpt><trkpt lat="40.7819761" lon="17.5377141"><ele>43.0</ele><time>2026-05-02T14:35:22.501Z</time></trkpt><trkpt lat="40.7820608" lon="17.5374929"><ele>43.0</ele><time>2026-05-02T14:35:23.503Z</time></trkpt><trkpt lat="40.7821441" lon="17.5372777"><ele>43.0</ele><time>2026-05-02T14:35:24.502Z</time></trkpt><trkpt lat="40.782236" lon="17.5370688"><ele>43.0</ele><time>2026-05-02T14:35:25.503Z</time></trkpt><trkpt lat="40.7823384" lon="17.5368698"><ele>43.0</ele><time>2026-05-02T14:35:26.503Z</time></trkpt><trkpt lat="40.7824508" lon="17.5366819"><ele>43.0</ele><time>2026-05-02T14:35:27.503Z</time></trkpt><trkpt lat="40.7825732" lon="17.5365022"><ele>43.0</ele><time>2026-05-02T14:35:28.503Z</time></trkpt><trkpt lat="40.7827075" lon="17.5363379"><ele>44.0</ele><time>2026-05-02T14:35:29.502Z</time></trkpt><trkpt lat="40.782853" lon="17.5361937"><ele>45.0</ele><time>2026-05-02T14:35:30.502Z</time></trkpt><trkpt lat="40.7830065" lon="17.5360638"><ele>46.0</ele><time>2026-05-02T14:35:31.502Z</time></trkpt><trkpt lat="40.7831684" lon="17.5359446"><ele>46.0</ele><time>2026-05-02T14:35:32.503Z</time></trkpt><trkpt lat="40.7833375" lon="17.5358585"><ele>46.0</ele><time>2026-05-02T14:35:33.502Z</time></trkpt><trkpt lat="40.7835167" lon="17.5357773"><ele>46.0</ele><time>2026-05-02T14:35:34.503Z</time></trkpt><trkpt lat="40.7836921" lon="17.5357174"><ele>45.333333333333336</ele><time>2026-05-02T14:35:35.502Z</time></trkpt><trkpt lat="40.783868" lon="17.5356745"><ele>44.666666666666664</ele><time>2026-05-02T14:35:36.502Z</time></trkpt><trkpt lat="40.7840456" lon="17.5356518"><ele>44.0</ele><time>2026-05-02T14:35:37.502Z</time></trkpt><trkpt lat="40.7842221" lon="17.5356455"><ele>43.33333333333333</ele><time>2026-05-02T14:35:38.501Z</time></trkpt><trkpt lat="40.7843982" lon="17.5356605"><ele>42.666666666666664</ele><time>2026-05-02T14:35:39.501Z</time></trkpt><trkpt lat="40.7845714" lon="17.5356957"><ele>42.0</ele><time>2026-05-02T14:35:40.503Z</time></trkpt><trkpt lat="40.7847461" lon="17.5357327"><ele>42.0</ele><time>2026-05-02T14:35:41.502Z</time></trkpt><trkpt lat="40.7849213" lon="17.5357622"><ele>42.0</ele><time>2026-05-02T14:35:42.501Z</time></trkpt><trkpt lat="40.7850963" lon="17.535794"><ele>42.0</ele><time>2026-05-02T14:35:43.502Z</time></trkpt><trkpt lat="40.785272" lon="17.5358247"><ele>41.0</ele><time>2026-05-02T14:35:44.502Z</time></trkpt><trkpt lat="40.7854475" lon="17.535856"><ele>40.0</ele><time>2026-05-02T14:35:45.501Z</time></trkpt><trkpt lat="40.7856211" lon="17.5358882"><ele>39.0</ele><time>2026-05-02T14:35:46.502Z</time></trkpt><trkpt lat="40.785798" lon="17.5359189"><ele>39.0</ele><time>2026-05-02T14:35:47.502Z</time></trkpt><trkpt lat="40.7859776" lon="17.5359545"><ele>39.0</ele><time>2026-05-02T14:35:48.501Z</time></trkpt><trkpt lat="40.7861543" lon="17.5359908"><ele>39.0</ele><time>2026-05-02T14:35:49.502Z</time></trkpt><trkpt lat="40.7863349" lon="17.5360264"><ele>39.0</ele><time>2026-05-02T14:35:50.502Z</time></trkpt><trkpt lat="40.7865162" lon="17.5360614"><ele>39.0</ele><time>2026-05-02T14:35:51.503Z</time></trkpt><trkpt lat="40.7866987" lon="17.5360989"><ele>39.0</ele><time>2026-05-02T14:35:52.501Z</time></trkpt><trkpt lat="40.7868834" lon="17.5361335"><ele>38.666666666666664</ele><time>2026-05-02T14:35:53.502Z</time></trkpt><trkpt lat="40.787069" lon="17.5361685"><ele>38.33333333333333</ele><time>2026-05-02T14:35:54.501Z</time></trkpt><trkpt lat="40.7872558" lon="17.536205"><ele>38.0</ele><time>2026-05-02T14:35:55.501Z</time></trkpt><trkpt lat="40.7874427" lon="17.5362424"><ele>38.0</ele><time>2026-05-02T14:35:56.502Z</time></trkpt><trkpt lat="40.78763" lon="17.5362786"><ele>38.0</ele><time>2026-05-02T14:35:57.503Z</time></trkpt><trkpt lat="40.7878163" lon="17.5363128"><ele>38.0</ele><time>2026-05-02T14:35:58.501Z</time></trkpt><trkpt lat="40.7880038" lon="17.5363489"><ele>37.33333333333333</ele><time>2026-05-02T14:35:59.501Z</time></trkpt><trkpt lat="40.7881904" lon="17.5363825"><ele>36.666666666666664</ele><time>2026-05-02T14:36:00.502Z</time></trkpt><trkpt lat="40.7883784" lon="17.5364164"><ele>36.0</ele><time>2026-05-02T14:36:01.501Z</time></trkpt><trkpt lat="40.7885626" lon="17.5364504"><ele>35.0</ele><time>2026-05-02T14:36:02.501Z</time></trkpt><trkpt lat="40.7887514" lon="17.5364832"><ele>34.0</ele><time>2026-05-02T14:36:03.501Z</time></trkpt><trkpt lat="40.7889418" lon="17.5365122"><ele>33.0</ele><time>2026-05-02T14:36:04.502Z</time></trkpt><trkpt lat="40.7891333" lon="17.5365445"><ele>33.0</ele><time>2026-05-02T14:36:05.502Z</time></trkpt><trkpt lat="40.7893211" lon="17.5365823"><ele>33.0</ele><time>2026-05-02T14:36:06.502Z</time></trkpt><trkpt lat="40.7895124" lon="17.5366144"><ele>33.0</ele><time>2026-05-02T14:36:07.502Z</time></trkpt><trkpt lat="40.7897065" lon="17.5366496"><ele>32.0</ele><time>2026-05-02T14:36:08.503Z</time></trkpt><trkpt lat="40.7899014" lon="17.5366888"><ele>31.0</ele><time>2026-05-02T14:36:09.502Z</time></trkpt><trkpt lat="40.7900963" lon="17.5367336"><ele>30.0</ele><time>2026-05-02T14:36:10.502Z</time></trkpt><trkpt lat="40.7902917" lon="17.5367898"><ele>29.666666666666664</ele><time>2026-05-02T14:36:11.502Z</time></trkpt><trkpt lat="40.7904856" lon="17.5368506"><ele>29.333333333333332</ele><time>2026-05-02T14:36:12.502Z</time></trkpt><trkpt lat="40.7906797" lon="17.5369171"><ele>29.0</ele><time>2026-05-02T14:36:13.501Z</time></trkpt><trkpt lat="40.7908757" lon="17.5369878"><ele>28.666666666666664</ele><time>2026-05-02T14:36:14.502Z</time></trkpt><trkpt lat="40.7910721" lon="17.5370645"><ele>28.333333333333336</ele><time>2026-05-02T14:36:15.501Z</time></trkpt><trkpt lat="40.7912695" lon="17.5371413"><ele>28.0</ele><time>2026-05-02T14:36:16.501Z</time></trkpt><trkpt lat="40.7914653" lon="17.5372149"><ele>28.0</ele><time>2026-05-02T14:36:17.503Z</time></trkpt><trkpt lat="40.7916593" lon="17.5372896"><ele>28.0</ele><time>2026-05-02T14:36:18.502Z</time></trkpt><trkpt lat="40.7918533" lon="17.5373654"><ele>28.0</ele><time>2026-05-02T14:36:19.502Z</time></trkpt><trkpt lat="40.7920455" lon="17.5374385"><ele>27.333333333333336</ele><time>2026-05-02T14:36:20.503Z</time></trkpt><trkpt lat="40.7922388" lon="17.5375148"><ele>26.666666666666664</ele><time>2026-05-02T14:36:21.501Z</time></trkpt><trkpt lat="40.7924323" lon="17.5375896"><ele>26.0</ele><time>2026-05-02T14:36:22.502Z</time></trkpt><trkpt lat="40.7926226" lon="17.5376643"><ele>25.666666666666664</ele><time>2026-05-02T14:36:23.501Z</time></trkpt><trkpt lat="40.7928126" lon="17.5377379"><ele>25.333333333333336</ele><time>2026-05-02T14:36:24.502Z</time></trkpt><trkpt lat="40.7930088" lon="17.5377936"><ele>25.0</ele><time>2026-05-02T14:36:25.503Z</time></trkpt><trkpt lat="40.7931997" lon="17.5378577"><ele>25.0</ele><time>2026-05-02T14:36:26.502Z</time></trkpt><trkpt lat="40.7933952" lon="17.5379103"><ele>25.0</ele><time>2026-05-02T14:36:27.503Z</time></trkpt><trkpt lat="40.7935855" lon="17.5379642"><ele>25.0</ele><time>2026-05-02T14:36:28.503Z</time></trkpt><trkpt lat="40.7937922" lon="17.5380131"><ele>25.0</ele><time>2026-05-02T14:36:29.502Z</time></trkpt><trkpt lat="40.7939924" lon="17.5380639"><ele>25.0</ele><time>2026-05-02T14:36:30.501Z</time></trkpt><trkpt lat="40.7941902" lon="17.5381165"><ele>25.0</ele><time>2026-05-02T14:36:31.502Z</time></trkpt><trkpt lat="40.7943884" lon="17.538168"><ele>24.0</ele><time>2026-05-02T14:36:32.503Z</time></trkpt><trkpt lat="40.7945808" lon="17.5382185"><ele>23.0</ele><time>2026-05-02T14:36:33.501Z</time></trkpt><trkpt lat="40.7947663" lon="17.5382751"><ele>22.0</ele><time>2026-05-02T14:36:34.501Z</time></trkpt><trkpt lat="40.7949513" lon="17.5383362"><ele>22.0</ele><time>2026-05-02T14:36:35.502Z</time></trkpt><trkpt lat="40.7951319" lon="17.538403"><ele>22.0</ele><time>2026-05-02T14:36:36.503Z</time></trkpt><trkpt lat="40.7953097" lon="17.5384776"><ele>22.0</ele><time>2026-05-02T14:36:37.501Z</time></trkpt><trkpt lat="40.7954843" lon="17.5385565"><ele>21.0</ele><time>2026-05-02T14:36:38.503Z</time></trkpt><trkpt lat="40.7956613" lon="17.538636"><ele>20.0</ele><time>2026-05-02T14:36:39.502Z</time></trkpt><trkpt lat="40.7958353" lon="17.5387197"><ele>19.0</ele><time>2026-05-02T14:36:40.501Z</time></trkpt><trkpt lat="40.7960139" lon="17.5388025"><ele>18.0</ele><time>2026-05-02T14:36:41.502Z</time></trkpt><trkpt lat="40.7961957" lon="17.5388851"><ele>17.0</ele><time>2026-05-02T14:36:42.502Z</time></trkpt><trkpt lat="40.7963784" lon="17.5389806"><ele>16.0</ele><time>2026-05-02T14:36:43.502Z</time></trkpt><trkpt lat="40.7965625" lon="17.5390633"><ele>16.0</ele><time>2026-05-02T14:36:44.502Z</time></trkpt><trkpt lat="40.7967439" lon="17.5391485"><ele>16.0</ele><time>2026-05-02T14:36:45.502Z</time></trkpt><trkpt lat="40.7969221" lon="17.5392347"><ele>16.0</ele><time>2026-05-02T14:36:46.502Z</time></trkpt><trkpt lat="40.7970992" lon="17.5393196"><ele>15.666666666666666</ele><time>2026-05-02T14:36:47.501Z</time></trkpt><trkpt lat="40.7972733" lon="17.5394065"><ele>15.333333333333332</ele><time>2026-05-02T14:36:48.501Z</time></trkpt><trkpt lat="40.7974448" lon="17.539485"><ele>15.0</ele><time>2026-05-02T14:36:49.502Z</time></trkpt><trkpt lat="40.7976095" lon="17.5395623"><ele>14.0</ele><time>2026-05-02T14:36:50.502Z</time></trkpt><trkpt lat="40.797762" lon="17.5396328"><ele>13.0</ele><time>2026-05-02T14:36:51.502Z</time></trkpt><trkpt lat="40.7979069" lon="17.5397023"><ele>12.0</ele><time>2026-05-02T14:36:52.501Z</time></trkpt><trkpt lat="40.7980427" lon="17.5397673"><ele>12.0</ele><time>2026-05-02T14:36:53.502Z</time></trkpt><trkpt lat="40.7981632" lon="17.5398288"><ele>12.0</ele><time>2026-05-02T14:36:54.502Z</time></trkpt><trkpt lat="40.7982706" lon="17.5398834"><ele>12.0</ele><time>2026-05-02T14:36:55.503Z</time></trkpt><trkpt lat="40.7983497" lon="17.5399331"><ele>12.0</ele><time>2026-05-02T14:36:56.502Z</time></trkpt><trkpt lat="40.798418" lon="17.5399859"><ele>12.0</ele><time>2026-05-02T14:36:57.501Z</time></trkpt><trkpt lat="40.7984691" lon="17.5400393"><ele>11.833333333333334</ele><time>2026-05-02T14:36:58.501Z</time></trkpt><trkpt lat="40.7985136" lon="17.5401003"><ele>11.666666666666666</ele><time>2026-05-02T14:36:59.502Z</time></trkpt><trkpt lat="40.7985836" lon="17.5402358"><ele>11.5</ele><time>2026-05-02T14:37:01.501Z</time></trkpt><trkpt lat="40.7986192" lon="17.5403071"><ele>11.333333333333332</ele><time>2026-05-02T14:37:02.502Z</time></trkpt><trkpt lat="40.7986638" lon="17.5403681"><ele>11.166666666666666</ele><time>2026-05-02T14:37:03.502Z</time></trkpt><trkpt lat="40.7987196" lon="17.5404154"><ele>11.0</ele><time>2026-05-02T14:37:04.501Z</time></trkpt><trkpt lat="40.798786" lon="17.5404506"><ele>11.0</ele><time>2026-05-02T14:37:05.501Z</time></trkpt><trkpt lat="40.7989228" lon="17.5404007"><ele>11.0</ele><time>2026-05-02T14:37:07.502Z</time></trkpt><trkpt lat="40.7989761" lon="17.5403352"><ele>11.0</ele><time>2026-05-02T14:37:08.503Z</time></trkpt><trkpt lat="40.799011" lon="17.5402454"><ele>11.0</ele><time>2026-05-02T14:37:09.502Z</time></trkpt><trkpt lat="40.7990262" lon="17.5401404"><ele>11.0</ele><time>2026-05-02T14:37:10.501Z</time></trkpt><trkpt lat="40.7990313" lon="17.5400367"><ele>11.0</ele><time>2026-05-02T14:37:11.503Z</time></trkpt><trkpt lat="40.7990365" lon="17.5399179"><ele>11.0</ele><time>2026-05-02T14:37:12.501Z</time></trkpt><trkpt lat="40.7990535" lon="17.5398029"><ele>11.0</ele><time>2026-05-02T14:37:13.501Z</time></trkpt><trkpt lat="40.7990914" lon="17.5396868"><ele>11.0</ele><time>2026-05-02T14:37:14.502Z</time></trkpt><trkpt lat="40.7991547" lon="17.5395691"><ele>11.0</ele><time>2026-05-02T14:37:15.502Z</time></trkpt><trkpt lat="40.7992299" lon="17.5394619"><ele>11.0</ele><time>2026-05-02T14:37:16.502Z</time></trkpt><trkpt lat="40.7993124" lon="17.5393586"><ele>11.0</ele><time>2026-05-02T14:37:17.502Z</time></trkpt><trkpt lat="40.7994114" lon="17.5392555"><ele>11.0</ele><time>2026-05-02T14:37:18.502Z</time></trkpt><trkpt lat="40.799526" lon="17.539165"><ele>11.0</ele><time>2026-05-02T14:37:19.502Z</time></trkpt><trkpt lat="40.7996636" lon="17.5390858"><ele>10.666666666666666</ele><time>2026-05-02T14:37:20.501Z</time></trkpt><trkpt lat="40.7998113" lon="17.5390228"><ele>10.333333333333334</ele><time>2026-05-02T14:37:21.502Z</time></trkpt><trkpt lat="40.7999625" lon="17.5389817"><ele>10.0</ele><time>2026-05-02T14:37:22.502Z</time></trkpt><trkpt lat="40.8001248" lon="17.5389591"><ele>9.666666666666668</ele><time>2026-05-02T14:37:23.501Z</time></trkpt><trkpt lat="40.8002897" lon="17.5389669"><ele>9.333333333333334</ele><time>2026-05-02T14:37:24.502Z</time></trkpt><trkpt lat="40.8004697" lon="17.5389916"><ele>9.0</ele><time>2026-05-02T14:37:25.502Z</time></trkpt><trkpt lat="40.8006492" lon="17.5390359"><ele>9.0</ele><time>2026-05-02T14:37:26.502Z</time></trkpt><trkpt lat="40.8008409" lon="17.5390799"><ele>9.0</ele><time>2026-05-02T14:37:27.503Z</time></trkpt><trkpt lat="40.8010304" lon="17.5391237"><ele>9.0</ele><time>2026-05-02T14:37:28.502Z</time></trkpt><trkpt lat="40.8012204" lon="17.5391579"><ele>8.0</ele><time>2026-05-02T14:37:29.502Z</time></trkpt><trkpt lat="40.8014138" lon="17.5391927"><ele>7.0</ele><time>2026-05-02T14:37:30.501Z</time></trkpt><trkpt lat="40.801598" lon="17.5392245"><ele>6.0</ele><time>2026-05-02T14:37:31.501Z</time></trkpt><trkpt lat="40.8017742" lon="17.5392522"><ele>6.0</ele><time>2026-05-02T14:37:32.502Z</time></trkpt><trkpt lat="40.8019485" lon="17.5392788"><ele>6.0</ele><time>2026-05-02T14:37:33.502Z</time></trkpt><trkpt lat="40.8021173" lon="17.5392902"><ele>6.0</ele><time>2026-05-02T14:37:34.502Z</time></trkpt><trkpt lat="40.8022761" lon="17.5392819"><ele>6.0</ele><time>2026-05-02T14:37:35.502Z</time></trkpt><trkpt lat="40.8024408" lon="17.5392487"><ele>6.0</ele><time>2026-05-02T14:37:36.503Z</time></trkpt><trkpt lat="40.8025868" lon="17.539204"><ele>6.0</ele><time>2026-05-02T14:37:37.502Z</time></trkpt><trkpt lat="40.8027313" lon="17.5391615"><ele>5.75</ele><time>2026-05-02T14:37:38.501Z</time></trkpt><trkpt lat="40.8028582" lon="17.5391104"><ele>5.5</ele><time>2026-05-02T14:37:39.502Z</time></trkpt><trkpt lat="40.8029732" lon="17.5390633"><ele>5.25</ele><time>2026-05-02T14:37:40.502Z</time></trkpt><trkpt lat="40.8030815" lon="17.539011"><ele>5.0</ele><time>2026-05-02T14:37:41.502Z</time></trkpt><trkpt lat="40.8031744" lon="17.538959"><ele>5.0</ele><time>2026-05-02T14:37:42.503Z</time></trkpt><trkpt lat="40.8032557" lon="17.5388971"><ele>5.0</ele><time>2026-05-02T14:37:43.502Z</time></trkpt><trkpt lat="40.8033123" lon="17.5388354"><ele>5.0</ele><time>2026-05-02T14:37:44.502Z</time></trkpt><trkpt lat="40.803353" lon="17.5387566"><ele>5.0</ele><time>2026-05-02T14:37:45.502Z</time></trkpt><trkpt lat="40.8033565" lon="17.5385983"><ele>5.0</ele><time>2026-05-02T14:37:47.501Z</time></trkpt><trkpt lat="40.8032778" lon="17.5384797"><ele>4.666666666666667</ele><time>2026-05-02T14:37:49.502Z</time></trkpt><trkpt lat="40.8032141" lon="17.5384383"><ele>4.333333333333334</ele><time>2026-05-02T14:37:50.502Z</time></trkpt><trkpt lat="40.8031336" lon="17.5383993"><ele>4.0</ele><time>2026-05-02T14:37:51.502Z</time></trkpt><trkpt lat="40.8030661" lon="17.5383434"><ele>3.666666666666667</ele><time>2026-05-02T14:37:52.502Z</time></trkpt><trkpt lat="40.8029919" lon="17.5382679"><ele>3.3333333333333335</ele><time>2026-05-02T14:37:53.503Z</time></trkpt><trkpt lat="40.8029098" lon="17.5382039"><ele>3.0</ele><time>2026-05-02T14:37:54.502Z</time></trkpt><trkpt lat="40.8028181" lon="17.5381679"><ele>3.0</ele><time>2026-05-02T14:37:55.502Z</time></trkpt><trkpt lat="40.802728" lon="17.5381265"><ele>3.0</ele><time>2026-05-02T14:37:56.502Z</time></trkpt><trkpt lat="40.8026479" lon="17.5381317"><ele>3.0</ele><time>2026-05-02T14:37:57.503Z</time></trkpt><trkpt lat="40.8025294" lon="17.5381842"><ele>3.0</ele><time>2026-05-02T14:37:58.503Z</time></trkpt><trkpt lat="40.8024279" lon="17.5382338"><ele>3.0</ele><time>2026-05-02T14:37:59.502Z</time></trkpt><trkpt lat="40.8023351" lon="17.5382713"><ele>3.5999999999999996</ele><time>2026-05-02T14:38:00.502Z</time></trkpt><trkpt lat="40.8022453" lon="17.5383121"><ele>4.199999999999999</ele><time>2026-05-02T14:38:01.502Z</time></trkpt><trkpt lat="40.8021632" lon="17.5383383"><ele>4.8</ele><time>2026-05-02T14:38:02.502Z</time></trkpt><trkpt lat="40.802089" lon="17.5383404"><ele>5.3999999999999995</ele><time>2026-05-02T14:38:03.503Z</time></trkpt><trkpt lat="40.8019802" lon="17.5382796"><ele>6.0</ele><time>2026-05-02T14:38:05.501Z</time></trkpt><trkpt lat="40.8019301" lon="17.5381729"><ele>6.0</ele><time>2026-05-02T14:38:07.503Z</time></trkpt><trkpt lat="40.8019147" lon="17.5380477"><ele>6.0</ele><time>2026-05-02T14:38:08.502Z</time></trkpt><trkpt lat="40.8018974" lon="17.5378253"><ele>6.0</ele><time>2026-05-02T14:38:10.502Z</time></trkpt><trkpt lat="40.8018774" lon="17.5377039"><ele>6.0</ele><time>2026-05-02T14:38:11.503Z</time></trkpt><trkpt lat="40.8018668" lon="17.5375812"><ele>6.0</ele><time>2026-05-02T14:38:12.503Z</time></trkpt><trkpt lat="40.8018739" lon="17.5374524"><ele>6.0</ele><time>2026-05-02T14:38:13.502Z</time></trkpt><trkpt lat="40.8018827" lon="17.5373226"><ele>6.0</ele><time>2026-05-02T14:38:14.502Z</time></trkpt><trkpt lat="40.80191" lon="17.5371991"><ele>6.0</ele><time>2026-05-02T14:38:15.502Z</time></trkpt><trkpt lat="40.8019509" lon="17.5370773"><ele>6.0</ele><time>2026-05-02T14:38:16.502Z</time></trkpt><trkpt lat="40.802013" lon="17.5369585"><ele>6.5</ele><time>2026-05-02T14:38:17.502Z</time></trkpt><trkpt lat="40.8020777" lon="17.5368395"><ele>7.0</ele><time>2026-05-02T14:38:18.502Z</time></trkpt><trkpt lat="40.8021502" lon="17.5367132"><ele>7.5</ele><time>2026-05-02T14:38:19.502Z</time></trkpt><trkpt lat="40.8022163" lon="17.5365886"><ele>8.0</ele><time>2026-05-02T14:38:20.503Z</time></trkpt><trkpt lat="40.8022858" lon="17.5364583"><ele>8.0</ele><time>2026-05-02T14:38:21.503Z</time></trkpt><trkpt lat="40.8023602" lon="17.5363265"><ele>8.0</ele><time>2026-05-02T14:38:22.502Z</time></trkpt><trkpt lat="40.8024364" lon="17.5361856"><ele>8.0</ele><time>2026-05-02T14:38:23.502Z</time></trkpt><trkpt lat="40.8025064" lon="17.5360435"><ele>8.0</ele><time>2026-05-02T14:38:24.502Z</time></trkpt><trkpt lat="40.8025883" lon="17.5359028"><ele>8.25</ele><time>2026-05-02T14:38:25.502Z</time></trkpt><trkpt lat="40.802671" lon="17.5357656"><ele>8.5</ele><time>2026-05-02T14:38:26.503Z</time></trkpt><trkpt lat="40.8027638" lon="17.5356289"><ele>8.75</ele><time>2026-05-02T14:38:27.502Z</time></trkpt><trkpt lat="40.8028536" lon="17.5354896"><ele>9.0</ele><time>2026-05-02T14:38:28.501Z</time></trkpt><trkpt lat="40.8029483" lon="17.535358"><ele>9.0</ele><time>2026-05-02T14:38:29.502Z</time></trkpt><trkpt lat="40.8030333" lon="17.535215"><ele>9.0</ele><time>2026-05-02T14:38:30.502Z</time></trkpt><trkpt lat="40.803113" lon="17.5350772"><ele>9.0</ele><time>2026-05-02T14:38:31.501Z</time></trkpt><trkpt lat="40.8031915" lon="17.5349357"><ele>9.0</ele><time>2026-05-02T14:38:32.502Z</time></trkpt><trkpt lat="40.8032653" lon="17.5348009"><ele>9.0</ele><time>2026-05-02T14:38:33.503Z</time></trkpt><trkpt lat="40.8033431" lon="17.5346669"><ele>9.0</ele><time>2026-05-02T14:38:34.503Z</time></trkpt><trkpt lat="40.8034183" lon="17.5345339"><ele>9.0</ele><time>2026-05-02T14:38:35.502Z</time></trkpt><trkpt lat="40.8034875" lon="17.5344139"><ele>9.0</ele><time>2026-05-02T14:38:36.502Z</time></trkpt><trkpt lat="40.8035545" lon="17.5342911"><ele>8.6</ele><time>2026-05-02T14:38:37.502Z</time></trkpt><trkpt lat="40.8036127" lon="17.534176"><ele>8.2</ele><time>2026-05-02T14:38:38.501Z</time></trkpt><trkpt lat="40.8036738" lon="17.5340606"><ele>7.799999999999999</ele><time>2026-05-02T14:38:39.502Z</time></trkpt><trkpt lat="40.8037391" lon="17.5339448"><ele>7.3999999999999995</ele><time>2026-05-02T14:38:40.501Z</time></trkpt><trkpt lat="40.8038072" lon="17.5338246"><ele>7.0</ele><time>2026-05-02T14:38:41.5Z</time></trkpt><trkpt lat="40.8038762" lon="17.5336979"><ele>7.0</ele><time>2026-05-02T14:38:42.501Z</time></trkpt><trkpt lat="40.8039516" lon="17.5335602"><ele>7.0</ele><time>2026-05-02T14:38:43.5Z</time></trkpt><trkpt lat="40.8040283" lon="17.5334188"><ele>7.0</ele><time>2026-05-02T14:38:44.501Z</time></trkpt><trkpt lat="40.8041112" lon="17.5332709"><ele>7.0</ele><time>2026-05-02T14:38:45.501Z</time></trkpt><trkpt lat="40.8041941" lon="17.533113"><ele>7.0</ele><time>2026-05-02T14:38:46.5Z</time></trkpt><trkpt lat="40.8042833" lon="17.5329536"><ele>7.0</ele><time>2026-05-02T14:38:47.501Z</time></trkpt><trkpt lat="40.8043749" lon="17.5327922"><ele>7.0</ele><time>2026-05-02T14:38:48.501Z</time></trkpt><trkpt lat="40.8044658" lon="17.5326233"><ele>6.666666666666667</ele><time>2026-05-02T14:38:49.502Z</time></trkpt><trkpt lat="40.8045602" lon="17.5324445"><ele>6.333333333333334</ele><time>2026-05-02T14:38:50.501Z</time></trkpt><trkpt lat="40.804662" lon="17.5322662"><ele>6.0</ele><time>2026-05-02T14:38:51.501Z</time></trkpt><trkpt lat="40.8047628" lon="17.5320814"><ele>6.0</ele><time>2026-05-02T14:38:52.501Z</time></trkpt><trkpt lat="40.8048674" lon="17.5318918"><ele>6.0</ele><time>2026-05-02T14:38:53.501Z</time></trkpt><trkpt lat="40.804973" lon="17.5316971"><ele>6.0</ele><time>2026-05-02T14:38:54.501Z</time></trkpt><trkpt lat="40.8050728" lon="17.5315058"><ele>4.666666666666667</ele><time>2026-05-02T14:38:55.501Z</time></trkpt><trkpt lat="40.8051734" lon="17.5313133"><ele>3.333333333333333</ele><time>2026-05-02T14:38:56.501Z</time></trkpt><trkpt lat="40.8052792" lon="17.5311232"><ele>2.0</ele><time>2026-05-02T14:38:57.5Z</time></trkpt><trkpt lat="40.805496" lon="17.5307198"><ele>2.0</ele><time>2026-05-02T14:38:59.501Z</time></trkpt><trkpt lat="40.8056085" lon="17.5305063"><ele>2.0</ele><time>2026-05-02T14:39:00.501Z</time></trkpt><trkpt lat="40.8057193" lon="17.5302938"><ele>2.0</ele><time>2026-05-02T14:39:01.5Z</time></trkpt><trkpt lat="40.8058364" lon="17.530084"><ele>2.0</ele><time>2026-05-02T14:39:02.501Z</time></trkpt><trkpt lat="40.8059494" lon="17.5298758"><ele>2.0</ele><time>2026-05-02T14:39:03.501Z</time></trkpt><trkpt lat="40.8060633" lon="17.5296704"><ele>2.0</ele><time>2026-05-02T14:39:04.502Z</time></trkpt><trkpt lat="40.8061768" lon="17.5294661"><ele>2.0</ele><time>2026-05-02T14:39:05.502Z</time></trkpt><trkpt lat="40.8062895" lon="17.5292642"><ele>2.0</ele><time>2026-05-02T14:39:06.501Z</time></trkpt><trkpt lat="40.8064015" lon="17.5290606"><ele>2.0</ele><time>2026-05-02T14:39:07.501Z</time></trkpt><trkpt lat="40.806513" lon="17.5288533"><ele>2.6666666666666665</ele><time>2026-05-02T14:39:08.5Z</time></trkpt><trkpt lat="40.8066196" lon="17.5286547"><ele>3.333333333333333</ele><time>2026-05-02T14:39:09.5Z</time></trkpt><trkpt lat="40.8067218" lon="17.5284549"><ele>4.0</ele><time>2026-05-02T14:39:10.5Z</time></trkpt><trkpt lat="40.8068241" lon="17.5282572"><ele>3.333333333333333</ele><time>2026-05-02T14:39:11.502Z</time></trkpt><trkpt lat="40.806921" lon="17.5280625"><ele>2.6666666666666665</ele><time>2026-05-02T14:39:12.501Z</time></trkpt><trkpt lat="40.8070166" lon="17.5278599"><ele>2.0</ele><time>2026-05-02T14:39:13.502Z</time></trkpt><trkpt lat="40.8071052" lon="17.5276601"><ele>2.0</ele><time>2026-05-02T14:39:14.501Z</time></trkpt><trkpt lat="40.8071916" lon="17.5274541"><ele>2.0</ele><time>2026-05-02T14:39:15.501Z</time></trkpt><trkpt lat="40.8072729" lon="17.5272468"><ele>2.0</ele><time>2026-05-02T14:39:16.502Z</time></trkpt><trkpt lat="40.8073558" lon="17.5270401"><ele>2.6666666666666665</ele><time>2026-05-02T14:39:17.501Z</time></trkpt><trkpt lat="40.8074376" lon="17.5268331"><ele>3.333333333333333</ele><time>2026-05-02T14:39:18.501Z</time></trkpt><trkpt lat="40.8075205" lon="17.5266206"><ele>4.0</ele><time>2026-05-02T14:39:19.501Z</time></trkpt><trkpt lat="40.8076019" lon="17.5264155"><ele>2.6666666666666665</ele><time>2026-05-02T14:39:20.501Z</time></trkpt><trkpt lat="40.8076839" lon="17.5262028"><ele>1.3333333333333333</ele><time>2026-05-02T14:39:21.502Z</time></trkpt><trkpt lat="40.8077634" lon="17.5260012"><ele>0.0</ele><time>2026-05-02T14:39:22.5Z</time></trkpt><trkpt lat="40.8078448" lon="17.5257984"><ele>0.0</ele><time>2026-05-02T14:39:23.501Z</time></trkpt><trkpt lat="40.8079235" lon="17.5255998"><ele>0.0</ele><time>2026-05-02T14:39:24.501Z</time></trkpt><trkpt lat="40.8080056" lon="17.5253994"><ele>0.0</ele><time>2026-05-02T14:39:25.501Z</time></trkpt><trkpt lat="40.8080855" lon="17.5251983"><ele>1.0</ele><time>2026-05-02T14:39:26.501Z</time></trkpt><trkpt lat="40.8081638" lon="17.5250023"><ele>2.0</ele><time>2026-05-02T14:39:27.5Z</time></trkpt><trkpt lat="40.8082438" lon="17.5248011"><ele>3.0</ele><time>2026-05-02T14:39:28.502Z</time></trkpt><trkpt lat="40.8083198" lon="17.5246062"><ele>3.333333333333333</ele><time>2026-05-02T14:39:29.501Z</time></trkpt><trkpt lat="40.8084033" lon="17.5243997"><ele>3.6666666666666665</ele><time>2026-05-02T14:39:30.502Z</time></trkpt><trkpt lat="40.8084811" lon="17.524201"><ele>4.0</ele><time>2026-05-02T14:39:31.501Z</time></trkpt><trkpt lat="40.8085599" lon="17.5240024"><ele>3.0</ele><time>2026-05-02T14:39:32.501Z</time></trkpt><trkpt lat="40.80864" lon="17.5238029"><ele>2.0</ele><time>2026-05-02T14:39:33.501Z</time></trkpt><trkpt lat="40.8087209" lon="17.5236017"><ele>1.0</ele><time>2026-05-02T14:39:34.5Z</time></trkpt><trkpt lat="40.8087996" lon="17.5233952"><ele>1.0</ele><time>2026-05-02T14:39:35.5Z</time></trkpt><trkpt lat="40.8088814" lon="17.5231911"><ele>1.0</ele><time>2026-05-02T14:39:36.5Z</time></trkpt><trkpt lat="40.8089627" lon="17.5229836"><ele>1.0</ele><time>2026-05-02T14:39:37.501Z</time></trkpt><trkpt lat="40.8090451" lon="17.5227736"><ele>1.3333333333333333</ele><time>2026-05-02T14:39:38.5Z</time></trkpt><trkpt lat="40.809126" lon="17.5225617"><ele>1.6666666666666665</ele><time>2026-05-02T14:39:39.5Z</time></trkpt><trkpt lat="40.8092087" lon="17.5223518"><ele>2.0</ele><time>2026-05-02T14:39:40.5Z</time></trkpt><trkpt lat="40.8092931" lon="17.5221401"><ele>1.0</ele><time>2026-05-02T14:39:41.501Z</time></trkpt><trkpt lat="40.8093747" lon="17.5219284"><ele>0.0</ele><time>2026-05-02T14:39:42.501Z</time></trkpt><trkpt lat="40.8094569" lon="17.5217202"><ele>-1.0</ele><time>2026-05-02T14:39:43.501Z</time></trkpt><trkpt lat="40.8095382" lon="17.5215119"><ele>-1.0</ele><time>2026-05-02T14:39:44.501Z</time></trkpt><trkpt lat="40.8096176" lon="17.5213021"><ele>-1.0</ele><time>2026-05-02T14:39:45.5Z</time></trkpt><trkpt lat="40.8097016" lon="17.5210942"><ele>-1.0</ele><time>2026-05-02T14:39:46.501Z</time></trkpt><trkpt lat="40.8097855" lon="17.5208855"><ele>-0.3333333333333333</ele><time>2026-05-02T14:39:47.501Z</time></trkpt><trkpt lat="40.809872" lon="17.5206754"><ele>0.3333333333333333</ele><time>2026-05-02T14:39:48.5Z</time></trkpt><trkpt lat="40.8099525" lon="17.5204615"><ele>1.0</ele><time>2026-05-02T14:39:49.501Z</time></trkpt><trkpt lat="40.810035" lon="17.5202546"><ele>1.6666666666666665</ele><time>2026-05-02T14:39:50.5Z</time></trkpt><trkpt lat="40.8101184" lon="17.5200378"><ele>2.3333333333333335</ele><time>2026-05-02T14:39:51.501Z</time></trkpt><trkpt lat="40.8102018" lon="17.5198181"><ele>3.0</ele><time>2026-05-02T14:39:52.5Z</time></trkpt><trkpt lat="40.8102851" lon="17.5196004"><ele>2.3333333333333335</ele><time>2026-05-02T14:39:53.5Z</time></trkpt><trkpt lat="40.8103739" lon="17.5193769"><ele>1.6666666666666665</ele><time>2026-05-02T14:39:54.501Z</time></trkpt><trkpt lat="40.810463" lon="17.5191501"><ele>1.0</ele><time>2026-05-02T14:39:55.501Z</time></trkpt><trkpt lat="40.8105596" lon="17.5189262"><ele>1.3333333333333333</ele><time>2026-05-02T14:39:56.501Z</time></trkpt><trkpt lat="40.8106577" lon="17.5186894"><ele>1.6666666666666665</ele><time>2026-05-02T14:39:57.501Z</time></trkpt><trkpt lat="40.810752" lon="17.5184497"><ele>2.0</ele><time>2026-05-02T14:39:58.501Z</time></trkpt><trkpt lat="40.8108457" lon="17.5182073"><ele>2.0</ele><time>2026-05-02T14:39:59.501Z</time></trkpt><trkpt lat="40.8109423" lon="17.5179572"><ele>2.0</ele><time>2026-05-02T14:40:00.5Z</time></trkpt><trkpt lat="40.8110392" lon="17.5177077"><ele>2.0</ele><time>2026-05-02T14:40:01.501Z</time></trkpt><trkpt lat="40.8111391" lon="17.5174575"><ele>1.3333333333333333</ele><time>2026-05-02T14:40:02.501Z</time></trkpt><trkpt lat="40.8112342" lon="17.5172064"><ele>0.6666666666666666</ele><time>2026-05-02T14:40:03.501Z</time></trkpt><trkpt lat="40.8113318" lon="17.5169579"><ele>0.0</ele><time>2026-05-02T14:40:04.501Z</time></trkpt><trkpt lat="40.8114316" lon="17.5167114"><ele>0.0</ele><time>2026-05-02T14:40:05.501Z</time></trkpt><trkpt lat="40.811528" lon="17.5164598"><ele>0.0</ele><time>2026-05-02T14:40:06.501Z</time></trkpt><trkpt lat="40.8116242" lon="17.5162157"><ele>0.0</ele><time>2026-05-02T14:40:07.501Z</time></trkpt><trkpt lat="40.8117233" lon="17.5159695"><ele>-0.3333333333333333</ele><time>2026-05-02T14:40:08.501Z</time></trkpt><trkpt lat="40.8118192" lon="17.5157265"><ele>-0.6666666666666666</ele><time>2026-05-02T14:40:09.502Z</time></trkpt><trkpt lat="40.8119166" lon="17.5154794"><ele>-1.0</ele><time>2026-05-02T14:40:10.502Z</time></trkpt><trkpt lat="40.8120138" lon="17.5152352"><ele>-0.3333333333333333</ele><time>2026-05-02T14:40:11.501Z</time></trkpt><trkpt lat="40.8121111" lon="17.5149908"><ele>0.3333333333333333</ele><time>2026-05-02T14:40:12.5Z</time></trkpt><trkpt lat="40.812211" lon="17.5147431"><ele>1.0</ele><time>2026-05-02T14:40:13.5Z</time></trkpt><trkpt lat="40.8123128" lon="17.5144872"><ele>1.3333333333333333</ele><time>2026-05-02T14:40:14.5Z</time></trkpt><trkpt lat="40.8124153" lon="17.5142291"><ele>1.6666666666666665</ele><time>2026-05-02T14:40:15.501Z</time></trkpt><trkpt lat="40.8125181" lon="17.5139668"><ele>2.0</ele><time>2026-05-02T14:40:16.501Z</time></trkpt><trkpt lat="40.8126237" lon="17.5137017"><ele>1.0</ele><time>2026-05-02T14:40:17.501Z</time></trkpt><trkpt lat="40.8127297" lon="17.5134353"><ele>0.0</ele><time>2026-05-02T14:40:18.501Z</time></trkpt><trkpt lat="40.8128336" lon="17.5131676"><ele>0.5</ele><time>2026-05-02T14:40:19.501Z</time></trkpt><trkpt lat="40.8129383" lon="17.5129019"><ele>1.0</ele><time>2026-05-02T14:40:20.5Z</time></trkpt><trkpt lat="40.8130429" lon="17.5126382"><ele>1.0</ele><time>2026-05-02T14:40:21.5Z</time></trkpt><trkpt lat="40.81315" lon="17.5123728"><ele>1.0</ele><time>2026-05-02T14:40:22.502Z</time></trkpt><trkpt lat="40.813251" lon="17.512113"><ele>1.0</ele><time>2026-05-02T14:40:23.501Z</time></trkpt><trkpt lat="40.8133531" lon="17.511847"><ele>1.3333333333333333</ele><time>2026-05-02T14:40:24.5Z</time></trkpt><trkpt lat="40.8134557" lon="17.5115818"><ele>1.6666666666666665</ele><time>2026-05-02T14:40:25.5Z</time></trkpt><trkpt lat="40.8135607" lon="17.5113205"><ele>2.0</ele><time>2026-05-02T14:40:26.501Z</time></trkpt><trkpt lat="40.813663" lon="17.5110582"><ele>1.6666666666666665</ele><time>2026-05-02T14:40:27.502Z</time></trkpt><trkpt lat="40.8137662" lon="17.510798"><ele>1.3333333333333333</ele><time>2026-05-02T14:40:28.501Z</time></trkpt><trkpt lat="40.8138659" lon="17.5105343"><ele>1.0</ele><time>2026-05-02T14:40:29.501Z</time></trkpt><trkpt lat="40.8139684" lon="17.5102738"><ele>1.0</ele><time>2026-05-02T14:40:30.501Z</time></trkpt><trkpt lat="40.8140693" lon="17.5100186"><ele>1.0</ele><time>2026-05-02T14:40:31.5Z</time></trkpt><trkpt lat="40.8141761" lon="17.5097574"><ele>1.0</ele><time>2026-05-02T14:40:32.5Z</time></trkpt><trkpt lat="40.8142777" lon="17.5095052"><ele>1.0</ele><time>2026-05-02T14:40:33.5Z</time></trkpt><trkpt lat="40.8143789" lon="17.5092487"><ele>1.0</ele><time>2026-05-02T14:40:34.5Z</time></trkpt><trkpt lat="40.8144756" lon="17.5089907"><ele>1.0</ele><time>2026-05-02T14:40:35.501Z</time></trkpt><trkpt lat="40.8145757" lon="17.5087383"><ele>1.0</ele><time>2026-05-02T14:40:36.5Z</time></trkpt><trkpt lat="40.8146748" lon="17.50849"><ele>1.0</ele><time>2026-05-02T14:40:37.501Z</time></trkpt><trkpt lat="40.8147732" lon="17.5082398"><ele>1.0</ele><time>2026-05-02T14:40:38.501Z</time></trkpt><trkpt lat="40.8148718" lon="17.5079882"><ele>1.3333333333333333</ele><time>2026-05-02T14:40:39.502Z</time></trkpt><trkpt lat="40.8149673" lon="17.5077383"><ele>1.6666666666666665</ele><time>2026-05-02T14:40:40.501Z</time></trkpt><trkpt lat="40.815064" lon="17.5074929"><ele>2.0</ele><time>2026-05-02T14:40:41.5Z</time></trkpt><trkpt lat="40.8151625" lon="17.5072452"><ele>1.6666666666666665</ele><time>2026-05-02T14:40:42.5Z</time></trkpt><trkpt lat="40.8152602" lon="17.5069994"><ele>1.3333333333333333</ele><time>2026-05-02T14:40:43.501Z</time></trkpt><trkpt lat="40.8153569" lon="17.5067501"><ele>1.0</ele><time>2026-05-02T14:40:44.501Z</time></trkpt><trkpt lat="40.8154553" lon="17.5065063"><ele>1.0</ele><time>2026-05-02T14:40:45.502Z</time></trkpt><trkpt lat="40.8155537" lon="17.5062584"><ele>1.0</ele><time>2026-05-02T14:40:46.5Z</time></trkpt><trkpt lat="40.8156498" lon="17.5060129"><ele>1.0</ele><time>2026-05-02T14:40:47.5Z</time></trkpt><trkpt lat="40.8157477" lon="17.5057682"><ele>1.0</ele><time>2026-05-02T14:40:48.5Z</time></trkpt><trkpt lat="40.8158438" lon="17.5055169"><ele>1.0</ele><time>2026-05-02T14:40:49.501Z</time></trkpt><trkpt lat="40.8159437" lon="17.5052688"><ele>1.0</ele><time>2026-05-02T14:40:50.502Z</time></trkpt><trkpt lat="40.8160436" lon="17.5050211"><ele>1.0</ele><time>2026-05-02T14:40:51.501Z</time></trkpt><trkpt lat="40.8161462" lon="17.5047738"><ele>1.0</ele><time>2026-05-02T14:40:52.501Z</time></trkpt><trkpt lat="40.8162466" lon="17.5045221"><ele>1.0</ele><time>2026-05-02T14:40:53.501Z</time></trkpt><trkpt lat="40.8163446" lon="17.5042687"><ele>1.3333333333333333</ele><time>2026-05-02T14:40:54.5Z</time></trkpt><trkpt lat="40.8164421" lon="17.5040194"><ele>1.6666666666666665</ele><time>2026-05-02T14:40:55.5Z</time></trkpt><trkpt lat="40.816542" lon="17.5037697"><ele>2.0</ele><time>2026-05-02T14:40:56.501Z</time></trkpt><trkpt lat="40.8166429" lon="17.5035216"><ele>2.0</ele><time>2026-05-02T14:40:57.501Z</time></trkpt><trkpt lat="40.8167433" lon="17.5032727"><ele>2.0</ele><time>2026-05-02T14:40:58.5Z</time></trkpt><trkpt lat="40.8168421" lon="17.5030276"><ele>2.0</ele><time>2026-05-02T14:40:59.501Z</time></trkpt><trkpt lat="40.8169408" lon="17.502781"><ele>1.3333333333333333</ele><time>2026-05-02T14:41:00.5Z</time></trkpt><trkpt lat="40.8170359" lon="17.5025351"><ele>0.6666666666666666</ele><time>2026-05-02T14:41:01.5Z</time></trkpt><trkpt lat="40.8171313" lon="17.5022888"><ele>0.0</ele><time>2026-05-02T14:41:02.502Z</time></trkpt><trkpt lat="40.8172304" lon="17.5020435"><ele>0.0</ele><time>2026-05-02T14:41:03.501Z</time></trkpt><trkpt lat="40.8173264" lon="17.501801"><ele>0.0</ele><time>2026-05-02T14:41:04.501Z</time></trkpt><trkpt lat="40.8174226" lon="17.5015542"><ele>0.0</ele><time>2026-05-02T14:41:05.501Z</time></trkpt><trkpt lat="40.8175168" lon="17.5013107"><ele>0.0</ele><time>2026-05-02T14:41:06.501Z</time></trkpt><trkpt lat="40.8176129" lon="17.5010656"><ele>0.0</ele><time>2026-05-02T14:41:07.5Z</time></trkpt><trkpt lat="40.8177075" lon="17.5008203"><ele>0.0</ele><time>2026-05-02T14:41:08.5Z</time></trkpt><trkpt lat="40.8178004" lon="17.5005744"><ele>0.0</ele><time>2026-05-02T14:41:09.502Z</time></trkpt><trkpt lat="40.8178959" lon="17.5003292"><ele>0.0</ele><time>2026-05-02T14:41:10.5Z</time></trkpt><trkpt lat="40.8179923" lon="17.5000815"><ele>0.0</ele><time>2026-05-02T14:41:11.501Z</time></trkpt><trkpt lat="40.8180947" lon="17.4998335"><ele>0.0</ele><time>2026-05-02T14:41:12.501Z</time></trkpt><trkpt lat="40.8181936" lon="17.4995903"><ele>0.0</ele><time>2026-05-02T14:41:13.502Z</time></trkpt><trkpt lat="40.8182888" lon="17.4993463"><ele>0.0</ele><time>2026-05-02T14:41:14.501Z</time></trkpt><trkpt lat="40.8183853" lon="17.4991"><ele>0.0</ele><time>2026-05-02T14:41:15.501Z</time></trkpt><trkpt lat="40.8184823" lon="17.4988535"><ele>0.0</ele><time>2026-05-02T14:41:16.501Z</time></trkpt><trkpt lat="40.8185811" lon="17.4986049"><ele>0.0</ele><time>2026-05-02T14:41:17.501Z</time></trkpt><trkpt lat="40.8186762" lon="17.4983596"><ele>0.0</ele><time>2026-05-02T14:41:18.501Z</time></trkpt><trkpt lat="40.8187727" lon="17.49812"><ele>0.0</ele><time>2026-05-02T14:41:19.502Z</time></trkpt><trkpt lat="40.8188621" lon="17.4978811"><ele>0.0</ele><time>2026-05-02T14:41:20.501Z</time></trkpt><trkpt lat="40.8189567" lon="17.497642"><ele>0.6666666666666666</ele><time>2026-05-02T14:41:21.501Z</time></trkpt><trkpt lat="40.8190471" lon="17.497407"><ele>1.3333333333333333</ele><time>2026-05-02T14:41:22.501Z</time></trkpt><trkpt lat="40.8191394" lon="17.4971707"><ele>2.0</ele><time>2026-05-02T14:41:23.5Z</time></trkpt><trkpt lat="40.8192346" lon="17.496935"><ele>1.6666666666666665</ele><time>2026-05-02T14:41:24.501Z</time></trkpt><trkpt lat="40.8193302" lon="17.4966969"><ele>1.3333333333333333</ele><time>2026-05-02T14:41:25.5Z</time></trkpt><trkpt lat="40.8194232" lon="17.4964555"><ele>1.0</ele><time>2026-05-02T14:41:26.501Z</time></trkpt><trkpt lat="40.8195172" lon="17.4962142"><ele>1.0</ele><time>2026-05-02T14:41:27.501Z</time></trkpt><trkpt lat="40.8196068" lon="17.4959749"><ele>1.0</ele><time>2026-05-02T14:41:28.502Z</time></trkpt><trkpt lat="40.8196993" lon="17.4957394"><ele>1.0</ele><time>2026-05-02T14:41:29.502Z</time></trkpt><trkpt lat="40.8197931" lon="17.4954997"><ele>0.6666666666666666</ele><time>2026-05-02T14:41:30.501Z</time></trkpt><trkpt lat="40.8198869" lon="17.4952597"><ele>0.3333333333333333</ele><time>2026-05-02T14:41:31.502Z</time></trkpt><trkpt lat="40.8199863" lon="17.4950147"><ele>0.0</ele><time>2026-05-02T14:41:32.5Z</time></trkpt><trkpt lat="40.8200897" lon="17.4947709"><ele>0.3333333333333333</ele><time>2026-05-02T14:41:33.5Z</time></trkpt><trkpt lat="40.8202001" lon="17.4945278"><ele>0.6666666666666666</ele><time>2026-05-02T14:41:34.501Z</time></trkpt><trkpt lat="40.8203176" lon="17.4942846"><ele>1.0</ele><time>2026-05-02T14:41:35.5Z</time></trkpt><trkpt lat="40.8204403" lon="17.4940412"><ele>1.0</ele><time>2026-05-02T14:41:36.502Z</time></trkpt><trkpt lat="40.8205645" lon="17.4937962"><ele>1.0</ele><time>2026-05-02T14:41:37.501Z</time></trkpt><trkpt lat="40.8206896" lon="17.4935544"><ele>1.0</ele><time>2026-05-02T14:41:38.501Z</time></trkpt><trkpt lat="40.8208197" lon="17.4933084"><ele>1.0</ele><time>2026-05-02T14:41:39.501Z</time></trkpt><trkpt lat="40.8209504" lon="17.4930573"><ele>1.0</ele><time>2026-05-02T14:41:40.501Z</time></trkpt><trkpt lat="40.8210865" lon="17.4928067"><ele>0.5</ele><time>2026-05-02T14:41:41.5Z</time></trkpt><trkpt lat="40.8212224" lon="17.4925526"><ele>0.0</ele><time>2026-05-02T14:41:42.501Z</time></trkpt><trkpt lat="40.821354" lon="17.4923008"><ele>0.5</ele><time>2026-05-02T14:41:43.501Z</time></trkpt><trkpt lat="40.8214885" lon="17.4920519"><ele>1.0</ele><time>2026-05-02T14:41:44.502Z</time></trkpt><trkpt lat="40.8216211" lon="17.4918034"><ele>1.0</ele><time>2026-05-02T14:41:45.5Z</time></trkpt><trkpt lat="40.8217544" lon="17.4915541"><ele>1.0</ele><time>2026-05-02T14:41:46.5Z</time></trkpt><trkpt lat="40.8218836" lon="17.4913077"><ele>1.6666666666666665</ele><time>2026-05-02T14:41:47.5Z</time></trkpt><trkpt lat="40.8220141" lon="17.4910693"><ele>2.3333333333333335</ele><time>2026-05-02T14:41:48.5Z</time></trkpt><trkpt lat="40.8221366" lon="17.4908326"><ele>3.0</ele><time>2026-05-02T14:41:49.502Z</time></trkpt><trkpt lat="40.8222549" lon="17.4906026"><ele>3.0</ele><time>2026-05-02T14:41:50.501Z</time></trkpt><trkpt lat="40.8223742" lon="17.4903794"><ele>3.0</ele><time>2026-05-02T14:41:51.501Z</time></trkpt><trkpt lat="40.8224867" lon="17.4901677"><ele>3.0</ele><time>2026-05-02T14:41:52.501Z</time></trkpt><trkpt lat="40.8225957" lon="17.4899629"><ele>2.0</ele><time>2026-05-02T14:41:53.501Z</time></trkpt><trkpt lat="40.8227054" lon="17.4897583"><ele>1.0</ele><time>2026-05-02T14:41:54.501Z</time></trkpt><trkpt lat="40.8228079" lon="17.489567"><ele>0.0</ele><time>2026-05-02T14:41:55.501Z</time></trkpt><trkpt lat="40.8228928" lon="17.4893905"><ele>0.0</ele><time>2026-05-02T14:41:56.5Z</time></trkpt><trkpt lat="40.8229627" lon="17.489218"><ele>0.0</ele><time>2026-05-02T14:41:57.502Z</time></trkpt><trkpt lat="40.8230161" lon="17.4890429"><ele>0.0</ele><time>2026-05-02T14:41:58.501Z</time></trkpt><trkpt lat="40.8230548" lon="17.4888543"><ele>0.0</ele><time>2026-05-02T14:41:59.501Z</time></trkpt><trkpt lat="40.8230712" lon="17.4886662"><ele>0.5</ele><time>2026-05-02T14:42:00.5Z</time></trkpt><trkpt lat="40.8230722" lon="17.4884761"><ele>1.0</ele><time>2026-05-02T14:42:01.501Z</time></trkpt><trkpt lat="40.8230671" lon="17.4882856"><ele>1.5</ele><time>2026-05-02T14:42:02.501Z</time></trkpt><trkpt lat="40.8230587" lon="17.4880904"><ele>2.0</ele><time>2026-05-02T14:42:03.501Z</time></trkpt><trkpt lat="40.8230485" lon="17.4878904"><ele>2.25</ele><time>2026-05-02T14:42:04.501Z</time></trkpt><trkpt lat="40.8230324" lon="17.4876909"><ele>2.5</ele><time>2026-05-02T14:42:05.502Z</time></trkpt><trkpt lat="40.8230248" lon="17.4875022"><ele>2.75</ele><time>2026-05-02T14:42:06.5Z</time></trkpt><trkpt lat="40.8230366" lon="17.4873153"><ele>3.0</ele><time>2026-05-02T14:42:07.499Z</time></trkpt><trkpt lat="40.8230569" lon="17.4871356"><ele>3.25</ele><time>2026-05-02T14:42:08.501Z</time></trkpt><trkpt lat="40.8231022" lon="17.4869559"><ele>3.5</ele><time>2026-05-02T14:42:09.5Z</time></trkpt><trkpt lat="40.8231596" lon="17.4867913"><ele>3.75</ele><time>2026-05-02T14:42:10.5Z</time></trkpt><trkpt lat="40.823224" lon="17.4866251"><ele>4.0</ele><time>2026-05-02T14:42:11.5Z</time></trkpt><trkpt lat="40.82329" lon="17.4864601"><ele>4.0</ele><time>2026-05-02T14:42:12.5Z</time></trkpt><trkpt lat="40.8233581" lon="17.486289"><ele>4.0</ele><time>2026-05-02T14:42:13.501Z</time></trkpt><trkpt lat="40.8234259" lon="17.4861115"><ele>4.0</ele><time>2026-05-02T14:42:14.501Z</time></trkpt><trkpt lat="40.8235014" lon="17.485928"><ele>3.333333333333333</ele><time>2026-05-02T14:42:15.5Z</time></trkpt><trkpt lat="40.8235758" lon="17.485733"><ele>2.6666666666666665</ele><time>2026-05-02T14:42:16.501Z</time></trkpt><trkpt lat="40.8236493" lon="17.4855372"><ele>2.0</ele><time>2026-05-02T14:42:17.5Z</time></trkpt><trkpt lat="40.823729" lon="17.4853416"><ele>2.0</ele><time>2026-05-02T14:42:18.5Z</time></trkpt><trkpt lat="40.8238054" lon="17.4851446"><ele>2.0</ele><time>2026-05-02T14:42:19.499Z</time></trkpt><trkpt lat="40.8238845" lon="17.4849474"><ele>2.0</ele><time>2026-05-02T14:42:20.499Z</time></trkpt><trkpt lat="40.8239653" lon="17.4847505"><ele>2.333333333333333</ele><time>2026-05-02T14:42:21.501Z</time></trkpt><trkpt lat="40.8240452" lon="17.4845552"><ele>2.6666666666666665</ele><time>2026-05-02T14:42:22.5Z</time></trkpt><trkpt lat="40.8241339" lon="17.4843488"><ele>3.0</ele><time>2026-05-02T14:42:23.5Z</time></trkpt><trkpt lat="40.8242132" lon="17.4841521"><ele>3.0</ele><time>2026-05-02T14:42:24.5Z</time></trkpt><trkpt lat="40.8242948" lon="17.4839579"><ele>3.0</ele><time>2026-05-02T14:42:25.501Z</time></trkpt><trkpt lat="40.824381" lon="17.4837662"><ele>3.0</ele><time>2026-05-02T14:42:26.5Z</time></trkpt><trkpt lat="40.8244679" lon="17.483576"><ele>2.0</ele><time>2026-05-02T14:42:27.5Z</time></trkpt><trkpt lat="40.8245539" lon="17.4833958"><ele>1.0</ele><time>2026-05-02T14:42:28.499Z</time></trkpt><trkpt lat="40.8246386" lon="17.4832112"><ele>0.0</ele><time>2026-05-02T14:42:29.501Z</time></trkpt><trkpt lat="40.8247244" lon="17.4830361"><ele>0.3333333333333333</ele><time>2026-05-02T14:42:30.5Z</time></trkpt><trkpt lat="40.8248079" lon="17.4828581"><ele>0.6666666666666666</ele><time>2026-05-02T14:42:31.5Z</time></trkpt><trkpt lat="40.8248955" lon="17.4826815"><ele>1.0</ele><time>2026-05-02T14:42:32.499Z</time></trkpt><trkpt lat="40.8249858" lon="17.4825078"><ele>1.0</ele><time>2026-05-02T14:42:33.501Z</time></trkpt><trkpt lat="40.8250774" lon="17.4823326"><ele>1.0</ele><time>2026-05-02T14:42:34.5Z</time></trkpt><trkpt lat="40.8251654" lon="17.4821593"><ele>1.0</ele><time>2026-05-02T14:42:35.501Z</time></trkpt><trkpt lat="40.8252558" lon="17.4819856"><ele>0.6666666666666666</ele><time>2026-05-02T14:42:36.5Z</time></trkpt><trkpt lat="40.8253462" lon="17.4818122"><ele>0.3333333333333333</ele><time>2026-05-02T14:42:37.5Z</time></trkpt><trkpt lat="40.8254349" lon="17.4816388"><ele>0.0</ele><time>2026-05-02T14:42:38.5Z</time></trkpt><trkpt lat="40.825526" lon="17.4814702"><ele>0.0</ele><time>2026-05-02T14:42:39.5Z</time></trkpt><trkpt lat="40.8256121" lon="17.4813003"><ele>0.0</ele><time>2026-05-02T14:42:40.5Z</time></trkpt><trkpt lat="40.8256998" lon="17.4811311"><ele>0.0</ele><time>2026-05-02T14:42:41.5Z</time></trkpt><trkpt lat="40.8257845" lon="17.4809662"><ele>0.3333333333333333</ele><time>2026-05-02T14:42:42.5Z</time></trkpt><trkpt lat="40.8258707" lon="17.4807961"><ele>0.6666666666666666</ele><time>2026-05-02T14:42:43.499Z</time></trkpt><trkpt lat="40.82596" lon="17.480628"><ele>1.0</ele><time>2026-05-02T14:42:44.5Z</time></trkpt><trkpt lat="40.8260529" lon="17.4804599"><ele>1.3333333333333333</ele><time>2026-05-02T14:42:45.501Z</time></trkpt><trkpt lat="40.8261466" lon="17.4802934"><ele>1.6666666666666665</ele><time>2026-05-02T14:42:46.5Z</time></trkpt><trkpt lat="40.8262415" lon="17.480124"><ele>2.0</ele><time>2026-05-02T14:42:47.5Z</time></trkpt><trkpt lat="40.8263362" lon="17.4799558"><ele>2.0</ele><time>2026-05-02T14:42:48.5Z</time></trkpt><trkpt lat="40.8264336" lon="17.4797784"><ele>2.0</ele><time>2026-05-02T14:42:49.499Z</time></trkpt><trkpt lat="40.826531" lon="17.4796034"><ele>2.0</ele><time>2026-05-02T14:42:50.499Z</time></trkpt><trkpt lat="40.826629" lon="17.4794276"><ele>2.333333333333333</ele><time>2026-05-02T14:42:51.501Z</time></trkpt><trkpt lat="40.8267292" lon="17.4792521"><ele>2.6666666666666665</ele><time>2026-05-02T14:42:52.5Z</time></trkpt><trkpt lat="40.8268344" lon="17.4790723"><ele>3.0</ele><time>2026-05-02T14:42:53.499Z</time></trkpt><trkpt lat="40.8269428" lon="17.4788903"><ele>3.0</ele><time>2026-05-02T14:42:54.501Z</time></trkpt><trkpt lat="40.8270533" lon="17.4787092"><ele>3.0</ele><time>2026-05-02T14:42:55.499Z</time></trkpt><trkpt lat="40.827171" lon="17.4785306"><ele>3.0</ele><time>2026-05-02T14:42:56.499Z</time></trkpt><trkpt lat="40.8272834" lon="17.4783502"><ele>3.0</ele><time>2026-05-02T14:42:57.5Z</time></trkpt><trkpt lat="40.8273961" lon="17.4781678"><ele>3.0</ele><time>2026-05-02T14:42:58.5Z</time></trkpt><trkpt lat="40.8275103" lon="17.4779899"><ele>3.0</ele><time>2026-05-02T14:42:59.5Z</time></trkpt><trkpt lat="40.8276211" lon="17.4778117"><ele>2.6666666666666665</ele><time>2026-05-02T14:43:00.499Z</time></trkpt><trkpt lat="40.8277257" lon="17.4776486"><ele>2.333333333333333</ele><time>2026-05-02T14:43:01.501Z</time></trkpt><trkpt lat="40.8278272" lon="17.4774942"><ele>2.0</ele><time>2026-05-02T14:43:02.5Z</time></trkpt><trkpt lat="40.827921" lon="17.4773513"><ele>2.0</ele><time>2026-05-02T14:43:03.5Z</time></trkpt><trkpt lat="40.8280118" lon="17.4772093"><ele>2.0</ele><time>2026-05-02T14:43:04.5Z</time></trkpt><trkpt lat="40.8281" lon="17.4770694"><ele>2.0</ele><time>2026-05-02T14:43:05.5Z</time></trkpt><trkpt lat="40.8281867" lon="17.4769281"><ele>2.0</ele><time>2026-05-02T14:43:06.5Z</time></trkpt><trkpt lat="40.8282779" lon="17.4767881"><ele>2.25</ele><time>2026-05-02T14:43:07.5Z</time></trkpt><trkpt lat="40.8283695" lon="17.4766486"><ele>2.5</ele><time>2026-05-02T14:43:08.5Z</time></trkpt><trkpt lat="40.8284575" lon="17.4765094"><ele>2.75</ele><time>2026-05-02T14:43:09.5Z</time></trkpt><trkpt lat="40.8285463" lon="17.4763712"><ele>3.0</ele><time>2026-05-02T14:43:10.499Z</time></trkpt><trkpt lat="40.8286357" lon="17.4762343"><ele>3.0</ele><time>2026-05-02T14:43:11.5Z</time></trkpt><trkpt lat="40.8287223" lon="17.4760938"><ele>3.0</ele><time>2026-05-02T14:43:12.5Z</time></trkpt><trkpt lat="40.8288115" lon="17.4759561"><ele>3.0</ele><time>2026-05-02T14:43:13.501Z</time></trkpt><trkpt lat="40.8289011" lon="17.4758163"><ele>3.0</ele><time>2026-05-02T14:43:14.499Z</time></trkpt><trkpt lat="40.8289941" lon="17.4756755"><ele>3.0</ele><time>2026-05-02T14:43:15.5Z</time></trkpt><trkpt lat="40.8290843" lon="17.4755392"><ele>3.0</ele><time>2026-05-02T14:43:16.5Z</time></trkpt><trkpt lat="40.8291713" lon="17.475396"><ele>3.0</ele><time>2026-05-02T14:43:17.5Z</time></trkpt><trkpt lat="40.8292579" lon="17.4752504"><ele>3.0</ele><time>2026-05-02T14:43:18.501Z</time></trkpt><trkpt lat="40.8293435" lon="17.4751023"><ele>3.0</ele><time>2026-05-02T14:43:19.5Z</time></trkpt><trkpt lat="40.8294319" lon="17.4749462"><ele>3.0</ele><time>2026-05-02T14:43:20.501Z</time></trkpt><trkpt lat="40.8295168" lon="17.4747868"><ele>3.0</ele><time>2026-05-02T14:43:21.501Z</time></trkpt><trkpt lat="40.8295978" lon="17.474627"><ele>3.0</ele><time>2026-05-02T14:43:22.5Z</time></trkpt><trkpt lat="40.8296813" lon="17.474466"><ele>2.75</ele><time>2026-05-02T14:43:23.501Z</time></trkpt><trkpt lat="40.8297667" lon="17.4743032"><ele>2.5</ele><time>2026-05-02T14:43:24.499Z</time></trkpt><trkpt lat="40.8298491" lon="17.4741375"><ele>2.25</ele><time>2026-05-02T14:43:25.499Z</time></trkpt><trkpt lat="40.8299306" lon="17.473975"><ele>2.0</ele><time>2026-05-02T14:43:26.5Z</time></trkpt><trkpt lat="40.830014" lon="17.4738162"><ele>2.0</ele><time>2026-05-02T14:43:27.5Z</time></trkpt><trkpt lat="40.8300941" lon="17.4736655"><ele>2.0</ele><time>2026-05-02T14:43:28.5Z</time></trkpt><trkpt lat="40.8301717" lon="17.4735141"><ele>2.0</ele><time>2026-05-02T14:43:29.5Z</time></trkpt><trkpt lat="40.8302461" lon="17.4733672"><ele>2.0</ele><time>2026-05-02T14:43:30.5Z</time></trkpt><trkpt lat="40.8303199" lon="17.4732214"><ele>2.0</ele><time>2026-05-02T14:43:31.499Z</time></trkpt><trkpt lat="40.8303947" lon="17.4730763"><ele>2.0</ele><time>2026-05-02T14:43:32.5Z</time></trkpt><trkpt lat="40.830472" lon="17.4729262"><ele>2.0</ele><time>2026-05-02T14:43:33.5Z</time></trkpt><trkpt lat="40.8305483" lon="17.4727747"><ele>2.0</ele><time>2026-05-02T14:43:34.499Z</time></trkpt><trkpt lat="40.8306193" lon="17.4726185"><ele>2.0</ele><time>2026-05-02T14:43:35.501Z</time></trkpt><trkpt lat="40.830685" lon="17.4724569"><ele>2.0</ele><time>2026-05-02T14:43:36.5Z</time></trkpt><trkpt lat="40.8307472" lon="17.4722901"><ele>2.0</ele><time>2026-05-02T14:43:37.5Z</time></trkpt><trkpt lat="40.8308119" lon="17.4721174"><ele>2.0</ele><time>2026-05-02T14:43:38.499Z</time></trkpt><trkpt lat="40.8308723" lon="17.4719434"><ele>2.0</ele><time>2026-05-02T14:43:39.501Z</time></trkpt><trkpt lat="40.8309405" lon="17.471768"><ele>2.0</ele><time>2026-05-02T14:43:40.499Z</time></trkpt><trkpt lat="40.8310046" lon="17.4715939"><ele>2.0</ele><time>2026-05-02T14:43:41.499Z</time></trkpt><trkpt lat="40.8310719" lon="17.4714193"><ele>2.0</ele><time>2026-05-02T14:43:42.5Z</time></trkpt><trkpt lat="40.8311395" lon="17.4712503"><ele>2.0</ele><time>2026-05-02T14:43:43.5Z</time></trkpt><trkpt lat="40.8312008" lon="17.4710842"><ele>2.0</ele><time>2026-05-02T14:43:44.499Z</time></trkpt><trkpt lat="40.8312586" lon="17.470916"><ele>2.0</ele><time>2026-05-02T14:43:45.5Z</time></trkpt><trkpt lat="40.8313097" lon="17.4707494"><ele>2.0</ele><time>2026-05-02T14:43:46.501Z</time></trkpt><trkpt lat="40.83135" lon="17.4705776"><ele>2.5</ele><time>2026-05-02T14:43:47.5Z</time></trkpt><trkpt lat="40.8313819" lon="17.4704104"><ele>3.0</ele><time>2026-05-02T14:43:48.5Z</time></trkpt><trkpt lat="40.8313914" lon="17.4702166"><ele>3.5</ele><time>2026-05-02T14:43:49.499Z</time></trkpt><trkpt lat="40.8314092" lon="17.4700389"><ele>4.0</ele><time>2026-05-02T14:43:50.5Z</time></trkpt><trkpt lat="40.8314276" lon="17.4698571"><ele>4.0</ele><time>2026-05-02T14:43:51.5Z</time></trkpt><trkpt lat="40.8314383" lon="17.4696653"><ele>4.0</ele><time>2026-05-02T14:43:52.5Z</time></trkpt><trkpt lat="40.8314544" lon="17.4694738"><ele>4.0</ele><time>2026-05-02T14:43:53.5Z</time></trkpt><trkpt lat="40.8314724" lon="17.4692853"><ele>4.0</ele><time>2026-05-02T14:43:54.499Z</time></trkpt><trkpt lat="40.8314941" lon="17.4690986"><ele>4.25</ele><time>2026-05-02T14:43:55.501Z</time></trkpt><trkpt lat="40.8315114" lon="17.4689014"><ele>4.5</ele><time>2026-05-02T14:43:56.5Z</time></trkpt><trkpt lat="40.8315239" lon="17.468715"><ele>4.75</ele><time>2026-05-02T14:43:57.499Z</time></trkpt><trkpt lat="40.8315479" lon="17.4685285"><ele>5.0</ele><time>2026-05-02T14:43:58.5Z</time></trkpt><trkpt lat="40.8315699" lon="17.4683416"><ele>5.0</ele><time>2026-05-02T14:43:59.5Z</time></trkpt><trkpt lat="40.8315878" lon="17.4681523"><ele>5.0</ele><time>2026-05-02T14:44:00.5Z</time></trkpt><trkpt lat="40.8316208" lon="17.4679729"><ele>5.0</ele><time>2026-05-02T14:44:01.499Z</time></trkpt><trkpt lat="40.8316603" lon="17.4677952"><ele>5.0</ele><time>2026-05-02T14:44:02.5Z</time></trkpt><trkpt lat="40.8317163" lon="17.4676232"><ele>4.5</ele><time>2026-05-02T14:44:03.499Z</time></trkpt><trkpt lat="40.8317732" lon="17.4674507"><ele>4.0</ele><time>2026-05-02T14:44:04.501Z</time></trkpt><trkpt lat="40.8318327" lon="17.4672773"><ele>3.5</ele><time>2026-05-02T14:44:05.501Z</time></trkpt><trkpt lat="40.831889" lon="17.4670985"><ele>3.0</ele><time>2026-05-02T14:44:06.5Z</time></trkpt><trkpt lat="40.8319483" lon="17.4669251"><ele>2.5</ele><time>2026-05-02T14:44:07.5Z</time></trkpt><trkpt lat="40.8320066" lon="17.4667494"><ele>2.0</ele><time>2026-05-02T14:44:08.5Z</time></trkpt><trkpt lat="40.8320686" lon="17.4665828"><ele>1.5</ele><time>2026-05-02T14:44:09.5Z</time></trkpt><trkpt lat="40.8321298" lon="17.4664006"><ele>1.0</ele><time>2026-05-02T14:44:10.5Z</time></trkpt><trkpt lat="40.8321939" lon="17.4662321"><ele>1.0</ele><time>2026-05-02T14:44:11.501Z</time></trkpt><trkpt lat="40.8322609" lon="17.4660763"><ele>1.0</ele><time>2026-05-02T14:44:12.5Z</time></trkpt><trkpt lat="40.8323327" lon="17.4659267"><ele>1.0</ele><time>2026-05-02T14:44:13.5Z</time></trkpt><trkpt lat="40.8324115" lon="17.4657763"><ele>1.0</ele><time>2026-05-02T14:44:14.5Z</time></trkpt><trkpt lat="40.8324895" lon="17.4656211"><ele>1.0</ele><time>2026-05-02T14:44:15.5Z</time></trkpt><trkpt lat="40.8325622" lon="17.465475"><ele>1.0</ele><time>2026-05-02T14:44:16.499Z</time></trkpt><trkpt lat="40.8326362" lon="17.4653249"><ele>1.0</ele><time>2026-05-02T14:44:17.5Z</time></trkpt><trkpt lat="40.8327143" lon="17.4651749"><ele>1.0</ele><time>2026-05-02T14:44:18.5Z</time></trkpt><trkpt lat="40.8327913" lon="17.46503"><ele>1.0</ele><time>2026-05-02T14:44:19.5Z</time></trkpt><trkpt lat="40.832868" lon="17.4648796"><ele>1.0</ele><time>2026-05-02T14:44:20.501Z</time></trkpt><trkpt lat="40.8329417" lon="17.4647291"><ele>1.0</ele><time>2026-05-02T14:44:21.5Z</time></trkpt><trkpt lat="40.8330191" lon="17.4645835"><ele>1.0</ele><time>2026-05-02T14:44:22.499Z</time></trkpt><trkpt lat="40.8330976" lon="17.46444"><ele>1.0</ele><time>2026-05-02T14:44:23.501Z</time></trkpt><trkpt lat="40.8331762" lon="17.4642985"><ele>1.0</ele><time>2026-05-02T14:44:24.5Z</time></trkpt><trkpt lat="40.8332627" lon="17.4641692"><ele>1.0</ele><time>2026-05-02T14:44:25.499Z</time></trkpt><trkpt lat="40.8333453" lon="17.4640392"><ele>1.0</ele><time>2026-05-02T14:44:26.5Z</time></trkpt><trkpt lat="40.8334269" lon="17.4639129"><ele>1.25</ele><time>2026-05-02T14:44:27.501Z</time></trkpt><trkpt lat="40.8335066" lon="17.4637883"><ele>1.5</ele><time>2026-05-02T14:44:28.5Z</time></trkpt><trkpt lat="40.8335872" lon="17.463668"><ele>1.75</ele><time>2026-05-02T14:44:29.5Z</time></trkpt><trkpt lat="40.8336696" lon="17.46355"><ele>2.0</ele><time>2026-05-02T14:44:30.5Z</time></trkpt><trkpt lat="40.833742" lon="17.4634414"><ele>2.1666666666666665</ele><time>2026-05-02T14:44:31.501Z</time></trkpt><trkpt lat="40.8338101" lon="17.463339"><ele>2.333333333333333</ele><time>2026-05-02T14:44:32.5Z</time></trkpt><trkpt lat="40.8338725" lon="17.4632471"><ele>2.5</ele><time>2026-05-02T14:44:33.5Z</time></trkpt><trkpt lat="40.8339305" lon="17.463158"><ele>2.6666666666666665</ele><time>2026-05-02T14:44:34.501Z</time></trkpt><trkpt lat="40.8339853" lon="17.4630746"><ele>2.8333333333333335</ele><time>2026-05-02T14:44:35.5Z</time></trkpt><trkpt lat="40.8340328" lon="17.4630051"><ele>3.0</ele><time>2026-05-02T14:44:36.5Z</time></trkpt><trkpt lat="40.8340838" lon="17.4629502"><ele>3.0</ele><time>2026-05-02T14:44:37.5Z</time></trkpt><trkpt lat="40.8341916" lon="17.4629173"><ele>3.0</ele><time>2026-05-02T14:44:39.499Z</time></trkpt><trkpt lat="40.8343048" lon="17.462929"><ele>3.0</ele><time>2026-05-02T14:44:41.499Z</time></trkpt><trkpt lat="40.8343665" lon="17.4629732"><ele>3.0</ele><time>2026-05-02T14:44:42.501Z</time></trkpt><trkpt lat="40.8344799" lon="17.4630691"><ele>3.0</ele><time>2026-05-02T14:44:44.499Z</time></trkpt><trkpt lat="40.8345536" lon="17.4631215"><ele>3.0</ele><time>2026-05-02T14:44:45.499Z</time></trkpt><trkpt lat="40.8346085" lon="17.4631872"><ele>3.0</ele><time>2026-05-02T14:44:46.5Z</time></trkpt><trkpt lat="40.83468" lon="17.4632552"><ele>3.0</ele><time>2026-05-02T14:44:47.5Z</time></trkpt><trkpt lat="40.8347529" lon="17.4633187"><ele>3.0</ele><time>2026-05-02T14:44:48.5Z</time></trkpt><trkpt lat="40.8348342" lon="17.463368"><ele>3.0</ele><time>2026-05-02T14:44:49.501Z</time></trkpt><trkpt lat="40.8349007" lon="17.4634372"><ele>3.0</ele><time>2026-05-02T14:44:50.5Z</time></trkpt><trkpt lat="40.8349803" lon="17.4634983"><ele>3.0</ele><time>2026-05-02T14:44:51.501Z</time></trkpt><trkpt lat="40.8350545" lon="17.4635665"><ele>3.0</ele><time>2026-05-02T14:44:52.501Z</time></trkpt><trkpt lat="40.8351261" lon="17.4636294"><ele>3.0</ele><time>2026-05-02T14:44:53.5Z</time></trkpt><trkpt lat="40.8352013" lon="17.4636865"><ele>3.0</ele><time>2026-05-02T14:44:54.5Z</time></trkpt><trkpt lat="40.8352622" lon="17.4637397"><ele>3.0</ele><time>2026-05-02T14:44:55.499Z</time></trkpt><trkpt lat="40.8353213" lon="17.4637916"><ele>3.0</ele><time>2026-05-02T14:44:56.5Z</time></trkpt><trkpt lat="40.8353803" lon="17.4638463"><ele>3.1428571428571423</ele><time>2026-05-02T14:44:57.501Z</time></trkpt><trkpt lat="40.8354371" lon="17.4639018"><ele>3.2857142857142856</ele><time>2026-05-02T14:44:58.5Z</time></trkpt><trkpt lat="40.8354903" lon="17.4639564"><ele>3.4285714285714284</ele><time>2026-05-02T14:44:59.499Z</time></trkpt><trkpt lat="40.8355428" lon="17.46401"><ele>3.571428571428571</ele><time>2026-05-02T14:45:00.5Z</time></trkpt><trkpt lat="40.8355976" lon="17.4640601"><ele>3.714285714285714</ele><time>2026-05-02T14:45:01.499Z</time></trkpt><trkpt lat="40.8356443" lon="17.4641198"><ele>3.8571428571428568</ele><time>2026-05-02T14:45:02.5Z</time></trkpt><trkpt lat="40.8356896" lon="17.4641823"><ele>4.0</ele><time>2026-05-02T14:45:03.5Z</time></trkpt><trkpt lat="40.8357359" lon="17.4642489"><ele>4.0</ele><time>2026-05-02T14:45:04.499Z</time></trkpt><trkpt lat="40.8357867" lon="17.4643162"><ele>3.9999999999999996</ele><time>2026-05-02T14:45:05.501Z</time></trkpt><trkpt lat="40.8358398" lon="17.464381"><ele>4.0</ele><time>2026-05-02T14:45:06.5Z</time></trkpt><trkpt lat="40.8358937" lon="17.4644394"><ele>4.0</ele><time>2026-05-02T14:45:07.499Z</time></trkpt><trkpt lat="40.8359406" lon="17.4645057"><ele>3.9999999999999996</ele><time>2026-05-02T14:45:08.499Z</time></trkpt><trkpt lat="40.83599" lon="17.4645705"><ele>4.0</ele><time>2026-05-02T14:45:09.499Z</time></trkpt><trkpt lat="40.836051" lon="17.4646508"><ele>4.0</ele><time>2026-05-02T14:45:10.501Z</time></trkpt><trkpt lat="40.8361439" lon="17.4647766"><ele>3.9999999999999996</ele><time>2026-05-02T14:45:12.499Z</time></trkpt><trkpt lat="40.8362369" lon="17.4649015"><ele>4.0</ele><time>2026-05-02T14:45:14.5Z</time></trkpt><trkpt lat="40.836283" lon="17.4649715"><ele>4.0</ele><time>2026-05-02T14:45:15.499Z</time></trkpt><trkpt lat="40.8363327" lon="17.4650321"><ele>4.0</ele><time>2026-05-02T14:45:16.5Z</time></trkpt><trkpt lat="40.8363843" lon="17.4651061"><ele>3.9999999999999996</ele><time>2026-05-02T14:45:17.5Z</time></trkpt><trkpt lat="40.8364399" lon="17.4651639"><ele>4.0</ele><time>2026-05-02T14:45:18.5Z</time></trkpt><trkpt lat="40.8364978" lon="17.4652323"><ele>3.9999999999999996</ele><time>2026-05-02T14:45:19.501Z</time></trkpt><trkpt lat="40.8365415" lon="17.4652995"><ele>4.0</ele><time>2026-05-02T14:45:20.501Z</time></trkpt><trkpt lat="40.836585" lon="17.4653647"><ele>4.0</ele><time>2026-05-02T14:45:21.501Z</time></trkpt><trkpt lat="40.8366796" lon="17.465481"><ele>4.0</ele><time>2026-05-02T14:45:23.5Z</time></trkpt><trkpt lat="40.8367271" lon="17.4655479"><ele>3.9999999999999996</ele><time>2026-05-02T14:45:24.5Z</time></trkpt><trkpt lat="40.8367827" lon="17.4655976"><ele>4.0</ele><time>2026-05-02T14:45:25.499Z</time></trkpt><trkpt lat="40.8368336" lon="17.4656586"><ele>4.0</ele><time>2026-05-02T14:45:26.5Z</time></trkpt><trkpt lat="40.8368872" lon="17.4657178"><ele>3.9999999999999996</ele><time>2026-05-02T14:45:27.499Z</time></trkpt><trkpt lat="40.8369413" lon="17.4657851"><ele>4.0</ele><time>2026-05-02T14:45:28.5Z</time></trkpt><trkpt lat="40.8370021" lon="17.4658442"><ele>4.0</ele><time>2026-05-02T14:45:29.499Z</time></trkpt><trkpt lat="40.8370568" lon="17.4659116"><ele>3.9999999999999996</ele><time>2026-05-02T14:45:30.499Z</time></trkpt><trkpt lat="40.8371099" lon="17.4659831"><ele>4.0</ele><time>2026-05-02T14:45:31.5Z</time></trkpt><trkpt lat="40.8371675" lon="17.4660459"><ele>4.0</ele><time>2026-05-02T14:45:32.499Z</time></trkpt><trkpt lat="40.8372238" lon="17.4661176"><ele>3.9999999999999996</ele><time>2026-05-02T14:45:33.5Z</time></trkpt><trkpt lat="40.8372788" lon="17.4661788"><ele>4.0</ele><time>2026-05-02T14:45:34.498Z</time></trkpt><trkpt lat="40.8373423" lon="17.4662338"><ele>4.0</ele><time>2026-05-02T14:45:35.5Z</time></trkpt><trkpt lat="40.837404" lon="17.4662931"><ele>4.0</ele><time>2026-05-02T14:45:36.5Z</time></trkpt><trkpt lat="40.8374716" lon="17.4663497"><ele>3.9999999999999996</ele><time>2026-05-02T14:45:37.499Z</time></trkpt><trkpt lat="40.8375334" lon="17.4663954"><ele>4.0</ele><time>2026-05-02T14:45:38.499Z</time></trkpt><trkpt lat="40.8375993" lon="17.466446"><ele>4.0</ele><time>2026-05-02T14:45:39.499Z</time></trkpt><trkpt lat="40.8376673" lon="17.4664887"><ele>3.9999999999999996</ele><time>2026-05-02T14:45:40.499Z</time></trkpt><trkpt lat="40.8377368" lon="17.4665211"><ele>4.0</ele><time>2026-05-02T14:45:41.498Z</time></trkpt><trkpt lat="40.8378013" lon="17.4665534"><ele>4.0</ele><time>2026-05-02T14:45:42.5Z</time></trkpt><trkpt lat="40.8378656" lon="17.4665825"><ele>3.9999999999999996</ele><time>2026-05-02T14:45:43.499Z</time></trkpt><trkpt lat="40.8379305" lon="17.4666138"><ele>4.0</ele><time>2026-05-02T14:45:44.499Z</time></trkpt><trkpt lat="40.8379942" lon="17.4666442"><ele>4.0</ele><time>2026-05-02T14:45:45.499Z</time></trkpt><trkpt lat="40.8380551" lon="17.4666711"><ele>4.0</ele><time>2026-05-02T14:45:46.498Z</time></trkpt><trkpt lat="40.8381192" lon="17.4666973"><ele>4.0</ele><time>2026-05-02T14:45:47.499Z</time></trkpt><trkpt lat="40.8381848" lon="17.4667236"><ele>4.0</ele><time>2026-05-02T14:45:48.5Z</time></trkpt><trkpt lat="40.8383026" lon="17.4667536"><ele>4.0</ele><time>2026-05-02T14:45:50.498Z</time></trkpt><trkpt lat="40.8384201" lon="17.4667905"><ele>4.0</ele><time>2026-05-02T14:45:52.499Z</time></trkpt><trkpt lat="40.838531" lon="17.4668249"><ele>4.2</ele><time>2026-05-02T14:45:54.498Z</time></trkpt><trkpt lat="40.8386305" lon="17.4668698"><ele>4.4</ele><time>2026-05-02T14:45:56.5Z</time></trkpt><trkpt lat="40.83872" lon="17.4668968"><ele>4.6</ele><time>2026-05-02T14:45:58.498Z</time></trkpt><trkpt lat="40.8387944" lon="17.4669158"><ele>4.8</ele><time>2026-05-02T14:46:00.5Z</time></trkpt><trkpt lat="40.8388831" lon="17.4669427"><ele>5.0</ele><time>2026-05-02T14:46:02.5Z</time></trkpt><trkpt lat="40.8389745" lon="17.4669621"><ele>5.0</ele><time>2026-05-02T14:46:04.499Z</time></trkpt><trkpt lat="40.8390647" lon="17.4669937"><ele>5.0</ele><time>2026-05-02T14:46:06.5Z</time></trkpt><trkpt lat="40.8391463" lon="17.4670262"><ele>5.0</ele><time>2026-05-02T14:46:08.498Z</time></trkpt><trkpt lat="40.839212" lon="17.4670252"><ele>5.0</ele><time>2026-05-02T14:46:12.498Z</time></trkpt><trkpt lat="40.8392826" lon="17.4670385"><ele>5.0</ele><time>2026-05-02T14:46:17.499Z</time></trkpt><trkpt lat="40.8393645" lon="17.4670531"><ele>5.0</ele><time>2026-05-02T14:46:20.499Z</time></trkpt><trkpt lat="40.839444" lon="17.4670717"><ele>5.166666666666667</ele><time>2026-05-02T14:46:23.498Z</time></trkpt><trkpt lat="40.8395252" lon="17.4671201"><ele>5.333333333333334</ele><time>2026-05-02T14:46:25.499Z</time></trkpt><trkpt lat="40.8395985" lon="17.4671621"><ele>5.5</ele><time>2026-05-02T14:46:27.498Z</time></trkpt><trkpt lat="40.839665" lon="17.4672274"><ele>5.666666666666667</ele><time>2026-05-02T14:46:29.499Z</time></trkpt><trkpt lat="40.8397351" lon="17.4672686"><ele>5.833333333333333</ele><time>2026-05-02T14:46:31.499Z</time></trkpt><trkpt lat="40.839815" lon="17.4673215"><ele>6.0</ele><time>2026-05-02T14:46:34.498Z</time></trkpt><trkpt lat="40.8398801" lon="17.4673717"><ele>6.0</ele><time>2026-05-02T14:46:38.499Z</time></trkpt><trkpt lat="40.8398892" lon="17.4674602"><ele>6.0</ele><time>2026-05-02T14:46:43.499Z</time></trkpt><trkpt lat="40.8398455" lon="17.4675232"><ele>6.0</ele><time>2026-05-02T14:46:45.499Z</time></trkpt><trkpt lat="40.8397867" lon="17.4676148"><ele>6.0</ele><time>2026-05-02T14:46:47.499Z</time></trkpt><trkpt lat="40.8397496" lon="17.4677378"><ele>6.0</ele><time>2026-05-02T14:46:49.499Z</time></trkpt><trkpt lat="40.839704" lon="17.4678317"><ele>6.0</ele><time>2026-05-02T14:46:51.499Z</time></trkpt><trkpt lat="40.8396584" lon="17.4679154"><ele>5.7142857142857135</ele><time>2026-05-02T14:46:53.499Z</time></trkpt><trkpt lat="40.8396198" lon="17.4679878"><ele>5.428571428571429</ele><time>2026-05-02T14:46:55.499Z</time></trkpt><trkpt lat="40.839579" lon="17.4680628"><ele>5.142857142857142</ele><time>2026-05-02T14:46:57.499Z</time></trkpt><trkpt lat="40.8395443" lon="17.4681333"><ele>4.857142857142857</ele><time>2026-05-02T14:46:59.499Z</time></trkpt><trkpt lat="40.8395199" lon="17.4682269"><ele>4.571428571428571</ele><time>2026-05-02T14:47:02.5Z</time></trkpt><trkpt lat="40.8395385" lon="17.4683277"><ele>4.285714285714286</ele><time>2026-05-02T14:47:05.5Z</time></trkpt><trkpt lat="40.8396061" lon="17.468399"><ele>4.0</ele><time>2026-05-02T14:47:08.499Z</time></trkpt><trkpt lat="40.839662" lon="17.4684641"><ele>3.9999999999999996</ele><time>2026-05-02T14:47:10.499Z</time></trkpt><trkpt lat="40.8397228" lon="17.4685513"><ele>4.0</ele><time>2026-05-02T14:47:12.498Z</time></trkpt><trkpt lat="40.8397768" lon="17.4686434"><ele>4.0</ele><time>2026-05-02T14:47:14.499Z</time></trkpt><trkpt lat="40.8398332" lon="17.4687301"><ele>4.0</ele><time>2026-05-02T14:47:16.499Z</time></trkpt><trkpt lat="40.8398843" lon="17.4688148"><ele>3.9999999999999996</ele><time>2026-05-02T14:47:18.498Z</time></trkpt><trkpt lat="40.8399284" lon="17.4689005"><ele>4.0</ele><time>2026-05-02T14:47:20.499Z</time></trkpt><trkpt lat="40.8399654" lon="17.4689937"><ele>3.6666666666666665</ele><time>2026-05-02T14:47:22.499Z</time></trkpt><trkpt lat="40.8400034" lon="17.4690978"><ele>3.333333333333333</ele><time>2026-05-02T14:47:24.499Z</time></trkpt><trkpt lat="40.8400375" lon="17.4692071"><ele>3.0</ele><time>2026-05-02T14:47:26.499Z</time></trkpt><trkpt lat="40.8400691" lon="17.4693185"><ele>2.6666666666666665</ele><time>2026-05-02T14:47:28.498Z</time></trkpt><trkpt lat="40.840087" lon="17.4694259"><ele>2.333333333333333</ele><time>2026-05-02T14:47:30.5Z</time></trkpt><trkpt lat="40.8401066" lon="17.469528"><ele>2.0</ele><time>2026-05-02T14:47:32.498Z</time></trkpt><trkpt lat="40.8401269" lon="17.4696325"><ele>1.9999999999999998</ele><time>2026-05-02T14:47:34.5Z</time></trkpt><trkpt lat="40.8401482" lon="17.4697479"><ele>2.0</ele><time>2026-05-02T14:47:36.5Z</time></trkpt><trkpt lat="40.8401855" lon="17.4698506"><ele>2.0</ele><time>2026-05-02T14:47:38.499Z</time></trkpt><trkpt lat="40.8402217" lon="17.4699501"><ele>2.0</ele><time>2026-05-02T14:47:40.498Z</time></trkpt><trkpt lat="40.8402589" lon="17.4700264"><ele>1.9999999999999998</ele><time>2026-05-02T14:47:42.499Z</time></trkpt><trkpt lat="40.8403033" lon="17.4700863"><ele>2.0</ele><time>2026-05-02T14:47:44.499Z</time></trkpt><trkpt lat="40.840363" lon="17.4701221"><ele>2.0</ele><time>2026-05-02T14:47:46.498Z</time></trkpt><trkpt lat="40.8404359" lon="17.4701506"><ele>1.9999999999999998</ele><time>2026-05-02T14:47:48.499Z</time></trkpt><trkpt lat="40.840515" lon="17.4701742"><ele>2.0</ele><time>2026-05-02T14:47:50.498Z</time></trkpt><trkpt lat="40.8405886" lon="17.4701878"><ele>2.0</ele><time>2026-05-02T14:47:52.499Z</time></trkpt><trkpt lat="40.8406552" lon="17.4701919"><ele>1.9999999999999998</ele><time>2026-05-02T14:47:54.498Z</time></trkpt><trkpt lat="40.8407253" lon="17.4701893"><ele>2.0</ele><time>2026-05-02T14:47:57.499Z</time></trkpt><trkpt lat="40.8407911" lon="17.4701847"><ele>2.0</ele><time>2026-05-02T14:48:01.498Z</time></trkpt><trkpt lat="40.8408577" lon="17.4701834"><ele>1.9999999999999998</ele><time>2026-05-02T14:48:06.498Z</time></trkpt><trkpt lat="40.8409363" lon="17.4701676"><ele>2.0</ele><time>2026-05-02T14:48:10.5Z</time></trkpt><trkpt lat="40.8410199" lon="17.4701485"><ele>2.0</ele><time>2026-05-02T14:48:13.499Z</time></trkpt><trkpt lat="40.8410949" lon="17.4701303"><ele>2.0</ele><time>2026-05-02T14:48:16.499Z</time></trkpt><trkpt lat="40.8411592" lon="17.4701149"><ele>1.9999999999999998</ele><time>2026-05-02T14:48:19.499Z</time></trkpt><trkpt lat="40.8412301" lon="17.4700996"><ele>2.0</ele><time>2026-05-02T14:48:22.499Z</time></trkpt><trkpt lat="40.8413151" lon="17.4700671"><ele>1.6666666666666665</ele><time>2026-05-02T14:48:25.499Z</time></trkpt><trkpt lat="40.8413968" lon="17.4700139"><ele>1.3333333333333333</ele><time>2026-05-02T14:48:28.5Z</time></trkpt><trkpt lat="40.8414764" lon="17.469952"><ele>1.0</ele><time>2026-05-02T14:48:31.499Z</time></trkpt><trkpt lat="40.8415495" lon="17.4698768"><ele>0.6666666666666666</ele><time>2026-05-02T14:48:34.5Z</time></trkpt><trkpt lat="40.8416119" lon="17.4698021"><ele>0.3333333333333333</ele><time>2026-05-02T14:48:37.499Z</time></trkpt><trkpt lat="40.8416591" lon="17.4697347"><ele>0.0</ele><time>2026-05-02T14:48:39.498Z</time></trkpt><trkpt lat="40.8417031" lon="17.4696514"><ele>0.0</ele><time>2026-05-02T14:48:41.499Z</time></trkpt><trkpt lat="40.8417474" lon="17.4695645"><ele>0.0</ele><time>2026-05-02T14:48:43.498Z</time></trkpt><trkpt lat="40.8417914" lon="17.4694852"><ele>0.0</ele><time>2026-05-02T14:48:45.498Z</time></trkpt><trkpt lat="40.8418316" lon="17.4694151"><ele>0.0</ele><time>2026-05-02T14:48:47.497Z</time></trkpt><trkpt lat="40.841891" lon="17.4693211"><ele>0.0</ele><time>2026-05-02T14:48:50.499Z</time></trkpt><trkpt lat="40.8419416" lon="17.4692558"><ele>0.0</ele><time>2026-05-02T14:48:52.497Z</time></trkpt><trkpt lat="40.8419936" lon="17.4691787"><ele>0.0</ele><time>2026-05-02T14:48:54.498Z</time></trkpt><trkpt lat="40.8420423" lon="17.4691033"><ele>0.0</ele><time>2026-05-02T14:48:56.499Z</time></trkpt><trkpt lat="40.8420836" lon="17.4690372"><ele>0.0</ele><time>2026-05-02T14:48:58.498Z</time></trkpt><trkpt lat="40.8421252" lon="17.4689726"><ele>0.0</ele><time>2026-05-02T14:49:00.498Z</time></trkpt><trkpt lat="40.8421632" lon="17.4689028"><ele>0.0</ele><time>2026-05-02T14:49:02.498Z</time></trkpt><trkpt lat="40.8422015" lon="17.468836"><ele>0.0</ele><time>2026-05-02T14:49:04.499Z</time></trkpt><trkpt lat="40.8422466" lon="17.468738"><ele>0.0</ele><time>2026-05-02T14:49:07.498Z</time></trkpt><trkpt lat="40.8422989" lon="17.4686379"><ele>0.3333333333333333</ele><time>2026-05-02T14:49:10.497Z</time></trkpt><trkpt lat="40.8423566" lon="17.4685442"><ele>0.6666666666666666</ele><time>2026-05-02T14:49:13.497Z</time></trkpt><trkpt lat="40.8424107" lon="17.468493"><ele>1.0</ele><time>2026-05-02T14:49:15.498Z</time></trkpt><trkpt lat="40.8424689" lon="17.4684176"><ele>1.3333333333333333</ele><time>2026-05-02T14:49:18.498Z</time></trkpt><trkpt lat="40.8425108" lon="17.4683373"><ele>1.6666666666666665</ele><time>2026-05-02T14:49:21.499Z</time></trkpt><trkpt lat="40.8425487" lon="17.4682444"><ele>2.0</ele><time>2026-05-02T14:49:24.498Z</time></trkpt><trkpt lat="40.8425798" lon="17.468168"><ele>1.9999999999999998</ele><time>2026-05-02T14:49:27.497Z</time></trkpt><trkpt lat="40.8426111" lon="17.4680902"><ele>2.0</ele><time>2026-05-02T14:49:30.498Z</time></trkpt><trkpt lat="40.8426457" lon="17.4679819"><ele>2.0</ele><time>2026-05-02T14:49:33.499Z</time></trkpt><trkpt lat="40.8426723" lon="17.4678635"><ele>2.0</ele><time>2026-05-02T14:49:36.498Z</time></trkpt><trkpt lat="40.8426972" lon="17.4677781"><ele>1.9999999999999998</ele><time>2026-05-02T14:49:38.498Z</time></trkpt><trkpt lat="40.8427209" lon="17.4676711"><ele>2.0</ele><time>2026-05-02T14:49:40.497Z</time></trkpt><trkpt lat="40.8427475" lon="17.4675657"><ele>1.8333333333333333</ele><time>2026-05-02T14:49:42.499Z</time></trkpt><trkpt lat="40.8427665" lon="17.467448"><ele>1.6666666666666665</ele><time>2026-05-02T14:49:44.497Z</time></trkpt><trkpt lat="40.8427922" lon="17.467332"><ele>1.5</ele><time>2026-05-02T14:49:46.498Z</time></trkpt><trkpt lat="40.8428121" lon="17.4672379"><ele>1.3333333333333333</ele><time>2026-05-02T14:49:48.498Z</time></trkpt><trkpt lat="40.8428367" lon="17.467138"><ele>1.1666666666666665</ele><time>2026-05-02T14:49:50.498Z</time></trkpt><trkpt lat="40.8428648" lon="17.4670215"><ele>1.0</ele><time>2026-05-02T14:49:52.497Z</time></trkpt><trkpt lat="40.8428909" lon="17.466901"><ele>1.0</ele><time>2026-05-02T14:49:54.499Z</time></trkpt><trkpt lat="40.842924" lon="17.4667938"><ele>1.0</ele><time>2026-05-02T14:49:56.499Z</time></trkpt><trkpt lat="40.8429595" lon="17.4666582"><ele>1.0</ele><time>2026-05-02T14:49:58.498Z</time></trkpt><trkpt lat="40.8430113" lon="17.4664989"><ele>1.0</ele><time>2026-05-02T14:50:00.498Z</time></trkpt><trkpt lat="40.8430428" lon="17.466413"><ele>1.0</ele><time>2026-05-02T14:50:01.499Z</time></trkpt><trkpt lat="40.8430748" lon="17.4663215"><ele>0.8333333333333333</ele><time>2026-05-02T14:50:02.497Z</time></trkpt><trkpt lat="40.8431066" lon="17.4662281"><ele>0.6666666666666666</ele><time>2026-05-02T14:50:03.498Z</time></trkpt><trkpt lat="40.8431422" lon="17.4661306"><ele>0.5</ele><time>2026-05-02T14:50:04.498Z</time></trkpt><trkpt lat="40.8431816" lon="17.4660272"><ele>0.3333333333333333</ele><time>2026-05-02T14:50:05.497Z</time></trkpt><trkpt lat="40.843219" lon="17.4659198"><ele>0.16666666666666666</ele><time>2026-05-02T14:50:06.498Z</time></trkpt><trkpt lat="40.843256" lon="17.4658125"><ele>0.0</ele><time>2026-05-02T14:50:07.499Z</time></trkpt><trkpt lat="40.8432907" lon="17.4657011"><ele>0.0</ele><time>2026-05-02T14:50:08.498Z</time></trkpt><trkpt lat="40.8433264" lon="17.465583"><ele>0.0</ele><time>2026-05-02T14:50:09.499Z</time></trkpt><trkpt lat="40.8433626" lon="17.465469"><ele>0.0</ele><time>2026-05-02T14:50:10.498Z</time></trkpt><trkpt lat="40.8433995" lon="17.4653561"><ele>0.0</ele><time>2026-05-02T14:50:11.498Z</time></trkpt><trkpt lat="40.8434372" lon="17.4652419"><ele>0.0</ele><time>2026-05-02T14:50:12.498Z</time></trkpt><trkpt lat="40.8434749" lon="17.4651285"><ele>0.0</ele><time>2026-05-02T14:50:13.498Z</time></trkpt><trkpt lat="40.8435137" lon="17.46502"><ele>0.0</ele><time>2026-05-02T14:50:14.498Z</time></trkpt><trkpt lat="40.8435523" lon="17.4649091"><ele>0.0</ele><time>2026-05-02T14:50:15.498Z</time></trkpt><trkpt lat="40.8435908" lon="17.4647956"><ele>0.0</ele><time>2026-05-02T14:50:16.498Z</time></trkpt><trkpt lat="40.8436308" lon="17.4646836"><ele>0.0</ele><time>2026-05-02T14:50:17.498Z</time></trkpt><trkpt lat="40.8436697" lon="17.4645697"><ele>-0.2</ele><time>2026-05-02T14:50:18.498Z</time></trkpt><trkpt lat="40.843709" lon="17.4644566"><ele>-0.4</ele><time>2026-05-02T14:50:19.497Z</time></trkpt><trkpt lat="40.8437455" lon="17.46434"><ele>-0.6000000000000001</ele><time>2026-05-02T14:50:20.498Z</time></trkpt><trkpt lat="40.8437832" lon="17.4642243"><ele>-0.8</ele><time>2026-05-02T14:50:21.498Z</time></trkpt><trkpt lat="40.8438226" lon="17.4641121"><ele>-1.0</ele><time>2026-05-02T14:50:22.497Z</time></trkpt><trkpt lat="40.8438566" lon="17.4639969"><ele>-0.9999999999999999</ele><time>2026-05-02T14:50:23.498Z</time></trkpt><trkpt lat="40.8438954" lon="17.46388"><ele>-1.0</ele><time>2026-05-02T14:50:24.498Z</time></trkpt><trkpt lat="40.8439259" lon="17.463766"><ele>-1.0</ele><time>2026-05-02T14:50:25.497Z</time></trkpt><trkpt lat="40.8439545" lon="17.463669"><ele>-1.0</ele><time>2026-05-02T14:50:26.497Z</time></trkpt><trkpt lat="40.8439853" lon="17.4635736"><ele>-0.9999999999999999</ele><time>2026-05-02T14:50:27.499Z</time></trkpt><trkpt lat="40.8440168" lon="17.4634781"><ele>-1.0</ele><time>2026-05-02T14:50:28.498Z</time></trkpt><trkpt lat="40.8440474" lon="17.463382"><ele>-0.8333333333333333</ele><time>2026-05-02T14:50:29.497Z</time></trkpt><trkpt lat="40.8440792" lon="17.4632871"><ele>-0.6666666666666666</ele><time>2026-05-02T14:50:30.498Z</time></trkpt><trkpt lat="40.8441115" lon="17.4631875"><ele>-0.5</ele><time>2026-05-02T14:50:31.498Z</time></trkpt><trkpt lat="40.8441504" lon="17.4630864"><ele>-0.3333333333333333</ele><time>2026-05-02T14:50:32.499Z</time></trkpt><trkpt lat="40.8441961" lon="17.4629884"><ele>-0.16666666666666666</ele><time>2026-05-02T14:50:33.499Z</time></trkpt><trkpt lat="40.8442489" lon="17.4628839"><ele>0.0</ele><time>2026-05-02T14:50:34.497Z</time></trkpt><trkpt lat="40.8443039" lon="17.4627774"><ele>0.2</ele><time>2026-05-02T14:50:35.498Z</time></trkpt><trkpt lat="40.8443598" lon="17.4626726"><ele>0.4</ele><time>2026-05-02T14:50:36.498Z</time></trkpt><trkpt lat="40.8444147" lon="17.4625692"><ele>0.6000000000000001</ele><time>2026-05-02T14:50:37.498Z</time></trkpt><trkpt lat="40.8444674" lon="17.462464"><ele>0.8</ele><time>2026-05-02T14:50:38.497Z</time></trkpt><trkpt lat="40.844525" lon="17.4623569"><ele>1.0</ele><time>2026-05-02T14:50:39.498Z</time></trkpt><trkpt lat="40.8445815" lon="17.4622518"><ele>1.0</ele><time>2026-05-02T14:50:40.498Z</time></trkpt><trkpt lat="40.8446362" lon="17.462148"><ele>1.0</ele><time>2026-05-02T14:50:41.498Z</time></trkpt><trkpt lat="40.8446974" lon="17.4620451"><ele>1.0</ele><time>2026-05-02T14:50:42.498Z</time></trkpt><trkpt lat="40.8447588" lon="17.4619303"><ele>1.0</ele><time>2026-05-02T14:50:43.499Z</time></trkpt><trkpt lat="40.8448175" lon="17.461809"><ele>1.0</ele><time>2026-05-02T14:50:44.498Z</time></trkpt><trkpt lat="40.8448804" lon="17.4616952"><ele>1.0</ele><time>2026-05-02T14:50:45.498Z</time></trkpt><trkpt lat="40.844949" lon="17.4615666"><ele>1.0</ele><time>2026-05-02T14:50:46.498Z</time></trkpt><trkpt lat="40.8450202" lon="17.4614377"><ele>1.0</ele><time>2026-05-02T14:50:47.498Z</time></trkpt><trkpt lat="40.8450919" lon="17.461303"><ele>1.0</ele><time>2026-05-02T14:50:48.498Z</time></trkpt><trkpt lat="40.8451631" lon="17.4611677"><ele>0.25</ele><time>2026-05-02T14:50:49.497Z</time></trkpt><trkpt lat="40.8452333" lon="17.4610352"><ele>-0.5</ele><time>2026-05-02T14:50:50.497Z</time></trkpt><trkpt lat="40.8453058" lon="17.4609009"><ele>-1.25</ele><time>2026-05-02T14:50:51.497Z</time></trkpt><trkpt lat="40.8453789" lon="17.4607661"><ele>-2.0</ele><time>2026-05-02T14:50:52.498Z</time></trkpt><trkpt lat="40.8454534" lon="17.4606276"><ele>-2.0</ele><time>2026-05-02T14:50:53.498Z</time></trkpt><trkpt lat="40.8455292" lon="17.460486"><ele>-2.0</ele><time>2026-05-02T14:50:54.497Z</time></trkpt><trkpt lat="40.8456071" lon="17.4603395"><ele>-2.0</ele><time>2026-05-02T14:50:55.497Z</time></trkpt><trkpt lat="40.8456857" lon="17.4601951"><ele>-2.0</ele><time>2026-05-02T14:50:56.499Z</time></trkpt><trkpt lat="40.8457659" lon="17.4600478"><ele>-2.0</ele><time>2026-05-02T14:50:57.498Z</time></trkpt><trkpt lat="40.8458449" lon="17.4598995"><ele>-2.0</ele><time>2026-05-02T14:50:58.497Z</time></trkpt><trkpt lat="40.8459223" lon="17.4597493"><ele>-2.0</ele><time>2026-05-02T14:50:59.497Z</time></trkpt><trkpt lat="40.8459982" lon="17.45959"><ele>-2.0</ele><time>2026-05-02T14:51:00.497Z</time></trkpt><trkpt lat="40.8460739" lon="17.4594301"><ele>-1.75</ele><time>2026-05-02T14:51:01.498Z</time></trkpt><trkpt lat="40.8461457" lon="17.459265"><ele>-1.5</ele><time>2026-05-02T14:51:02.498Z</time></trkpt><trkpt lat="40.8462139" lon="17.4591002"><ele>-1.25</ele><time>2026-05-02T14:51:03.499Z</time></trkpt><trkpt lat="40.8462782" lon="17.4589262"><ele>-1.0</ele><time>2026-05-02T14:51:04.498Z</time></trkpt><trkpt lat="40.8463394" lon="17.4587481"><ele>-1.0</ele><time>2026-05-02T14:51:05.497Z</time></trkpt><trkpt lat="40.8464038" lon="17.4585721"><ele>-1.0</ele><time>2026-05-02T14:51:06.498Z</time></trkpt><trkpt lat="40.8464673" lon="17.4583896"><ele>-1.0</ele><time>2026-05-02T14:51:07.499Z</time></trkpt><trkpt lat="40.8465374" lon="17.4582071"><ele>-1.0</ele><time>2026-05-02T14:51:08.498Z</time></trkpt><trkpt lat="40.8466173" lon="17.4580259"><ele>-1.0</ele><time>2026-05-02T14:51:09.497Z</time></trkpt><trkpt lat="40.846706" lon="17.4578459"><ele>-1.0</ele><time>2026-05-02T14:51:10.497Z</time></trkpt><trkpt lat="40.8467959" lon="17.4576688"><ele>-1.0</ele><time>2026-05-02T14:51:11.497Z</time></trkpt><trkpt lat="40.8468847" lon="17.4574883"><ele>-1.0</ele><time>2026-05-02T14:51:12.498Z</time></trkpt><trkpt lat="40.8469744" lon="17.4573016"><ele>-1.0</ele><time>2026-05-02T14:51:13.498Z</time></trkpt><trkpt lat="40.84707" lon="17.457116"><ele>-0.6666666666666666</ele><time>2026-05-02T14:51:14.498Z</time></trkpt><trkpt lat="40.847167" lon="17.4569287"><ele>-0.3333333333333333</ele><time>2026-05-02T14:51:15.497Z</time></trkpt><trkpt lat="40.8472618" lon="17.4567342"><ele>0.0</ele><time>2026-05-02T14:51:16.498Z</time></trkpt><trkpt lat="40.8473604" lon="17.4565412"><ele>0.0</ele><time>2026-05-02T14:51:17.498Z</time></trkpt><trkpt lat="40.8474568" lon="17.4563411"><ele>0.0</ele><time>2026-05-02T14:51:18.498Z</time></trkpt><trkpt lat="40.8475543" lon="17.4561443"><ele>0.0</ele><time>2026-05-02T14:51:19.499Z</time></trkpt><trkpt lat="40.847654" lon="17.455943"><ele>0.3333333333333333</ele><time>2026-05-02T14:51:20.499Z</time></trkpt><trkpt lat="40.8477507" lon="17.4557479"><ele>0.6666666666666666</ele><time>2026-05-02T14:51:21.499Z</time></trkpt><trkpt lat="40.8478466" lon="17.4555519"><ele>1.0</ele><time>2026-05-02T14:51:22.497Z</time></trkpt><trkpt lat="40.8479421" lon="17.4553551"><ele>1.0</ele><time>2026-05-02T14:51:23.497Z</time></trkpt><trkpt lat="40.848039" lon="17.4551615"><ele>1.0</ele><time>2026-05-02T14:51:24.497Z</time></trkpt><trkpt lat="40.8481361" lon="17.4549674"><ele>1.0</ele><time>2026-05-02T14:51:25.497Z</time></trkpt><trkpt lat="40.848232" lon="17.4547733"><ele>0.6666666666666666</ele><time>2026-05-02T14:51:26.498Z</time></trkpt><trkpt lat="40.8483271" lon="17.4545783"><ele>0.3333333333333333</ele><time>2026-05-02T14:51:27.498Z</time></trkpt><trkpt lat="40.8484225" lon="17.4543877"><ele>0.0</ele><time>2026-05-02T14:51:28.498Z</time></trkpt><trkpt lat="40.8485182" lon="17.4541942"><ele>-0.3333333333333333</ele><time>2026-05-02T14:51:29.498Z</time></trkpt><trkpt lat="40.8486111" lon="17.4540029"><ele>-0.6666666666666666</ele><time>2026-05-02T14:51:30.498Z</time></trkpt><trkpt lat="40.8487065" lon="17.4538146"><ele>-1.0</ele><time>2026-05-02T14:51:31.497Z</time></trkpt><trkpt lat="40.8488028" lon="17.4536231"><ele>-1.0</ele><time>2026-05-02T14:51:32.498Z</time></trkpt><trkpt lat="40.8488978" lon="17.4534344"><ele>-1.0</ele><time>2026-05-02T14:51:33.497Z</time></trkpt><trkpt lat="40.8489968" lon="17.4532497"><ele>-1.0</ele><time>2026-05-02T14:51:34.497Z</time></trkpt><trkpt lat="40.8491002" lon="17.4530727"><ele>-1.0</ele><time>2026-05-02T14:51:35.497Z</time></trkpt><trkpt lat="40.8492126" lon="17.4529054"><ele>-1.0</ele><time>2026-05-02T14:51:36.497Z</time></trkpt><trkpt lat="40.8493371" lon="17.4527529"><ele>-1.0</ele><time>2026-05-02T14:51:37.497Z</time></trkpt><trkpt lat="40.8494707" lon="17.4526169"><ele>-1.0</ele><time>2026-05-02T14:51:38.498Z</time></trkpt><trkpt lat="40.8496131" lon="17.4524886"><ele>-1.0</ele><time>2026-05-02T14:51:39.499Z</time></trkpt><trkpt lat="40.8497593" lon="17.4523746"><ele>-1.0</ele><time>2026-05-02T14:51:40.498Z</time></trkpt><trkpt lat="40.8499056" lon="17.4522691"><ele>-1.0</ele><time>2026-05-02T14:51:41.497Z</time></trkpt><trkpt lat="40.8500497" lon="17.4521628"><ele>-1.0</ele><time>2026-05-02T14:51:42.497Z</time></trkpt><trkpt lat="40.8501928" lon="17.4520615"><ele>-1.0</ele><time>2026-05-02T14:51:43.498Z</time></trkpt><trkpt lat="40.8503303" lon="17.4519608"><ele>-1.6666666666666665</ele><time>2026-05-02T14:51:44.497Z</time></trkpt><trkpt lat="40.850465" lon="17.4518564"><ele>-2.3333333333333335</ele><time>2026-05-02T14:51:45.497Z</time></trkpt><trkpt lat="40.8505941" lon="17.4517403"><ele>-3.0</ele><time>2026-05-02T14:51:46.498Z</time></trkpt><trkpt lat="40.8507175" lon="17.4516144"><ele>-3.0</ele><time>2026-05-02T14:51:47.498Z</time></trkpt><trkpt lat="40.8508391" lon="17.4514725"><ele>-3.0</ele><time>2026-05-02T14:51:48.498Z</time></trkpt><trkpt lat="40.8509485" lon="17.451325"><ele>-3.0</ele><time>2026-05-02T14:51:49.499Z</time></trkpt><trkpt lat="40.8510522" lon="17.4511585"><ele>-2.0</ele><time>2026-05-02T14:51:50.499Z</time></trkpt><trkpt lat="40.8511508" lon="17.4509862"><ele>-1.0</ele><time>2026-05-02T14:51:51.498Z</time></trkpt><trkpt lat="40.8512474" lon="17.4508085"><ele>0.0</ele><time>2026-05-02T14:51:52.497Z</time></trkpt><trkpt lat="40.8513422" lon="17.450627"><ele>0.0</ele><time>2026-05-02T14:51:53.497Z</time></trkpt><trkpt lat="40.8514337" lon="17.4504442"><ele>0.0</ele><time>2026-05-02T14:51:54.497Z</time></trkpt><trkpt lat="40.8515279" lon="17.4502583"><ele>0.0</ele><time>2026-05-02T14:51:55.497Z</time></trkpt><trkpt lat="40.8516207" lon="17.450072"><ele>0.0</ele><time>2026-05-02T14:51:56.498Z</time></trkpt><trkpt lat="40.8517144" lon="17.4498837"><ele>0.0</ele><time>2026-05-02T14:51:57.496Z</time></trkpt><trkpt lat="40.8518093" lon="17.4496965"><ele>0.0</ele><time>2026-05-02T14:51:58.496Z</time></trkpt><trkpt lat="40.8519066" lon="17.4495053"><ele>-0.3333333333333333</ele><time>2026-05-02T14:51:59.496Z</time></trkpt><trkpt lat="40.852006" lon="17.4493132"><ele>-0.6666666666666666</ele><time>2026-05-02T14:52:00.498Z</time></trkpt><trkpt lat="40.8521049" lon="17.4491197"><ele>-1.0</ele><time>2026-05-02T14:52:01.497Z</time></trkpt><trkpt lat="40.8522021" lon="17.4489284"><ele>-1.0</ele><time>2026-05-02T14:52:02.497Z</time></trkpt><trkpt lat="40.8522977" lon="17.4487382"><ele>-1.0</ele><time>2026-05-02T14:52:03.497Z</time></trkpt><trkpt lat="40.8523941" lon="17.448549"><ele>-1.0</ele><time>2026-05-02T14:52:04.496Z</time></trkpt><trkpt lat="40.852489" lon="17.4483616"><ele>-1.0</ele><time>2026-05-02T14:52:05.497Z</time></trkpt><trkpt lat="40.8525795" lon="17.448177"><ele>-1.0</ele><time>2026-05-02T14:52:06.496Z</time></trkpt><trkpt lat="40.8526598" lon="17.4479839"><ele>-1.0</ele><time>2026-05-02T14:52:07.497Z</time></trkpt><trkpt lat="40.8527293" lon="17.4477792"><ele>-0.6666666666666666</ele><time>2026-05-02T14:52:08.498Z</time></trkpt><trkpt lat="40.8527823" lon="17.4475775"><ele>-0.3333333333333333</ele><time>2026-05-02T14:52:09.497Z</time></trkpt><trkpt lat="40.8528235" lon="17.4473681"><ele>0.0</ele><time>2026-05-02T14:52:10.498Z</time></trkpt><trkpt lat="40.8528555" lon="17.4471644"><ele>0.0</ele><time>2026-05-02T14:52:11.498Z</time></trkpt><trkpt lat="40.8528907" lon="17.4469567"><ele>0.0</ele><time>2026-05-02T14:52:12.497Z</time></trkpt><trkpt lat="40.8529233" lon="17.4467555"><ele>0.0</ele><time>2026-05-02T14:52:13.498Z</time></trkpt><trkpt lat="40.8529535" lon="17.4465629"><ele>0.0</ele><time>2026-05-02T14:52:14.497Z</time></trkpt><trkpt lat="40.8529855" lon="17.4463755"><ele>0.0</ele><time>2026-05-02T14:52:15.496Z</time></trkpt><trkpt lat="40.8530139" lon="17.4461987"><ele>0.0</ele><time>2026-05-02T14:52:16.498Z</time></trkpt><trkpt lat="40.8530519" lon="17.4460304"><ele>0.0</ele><time>2026-05-02T14:52:17.498Z</time></trkpt><trkpt lat="40.8530924" lon="17.4458804"><ele>0.2</ele><time>2026-05-02T14:52:18.497Z</time></trkpt><trkpt lat="40.8531336" lon="17.4457457"><ele>0.4</ele><time>2026-05-02T14:52:19.497Z</time></trkpt><trkpt lat="40.8531823" lon="17.4456151"><ele>0.6000000000000001</ele><time>2026-05-02T14:52:20.498Z</time></trkpt><trkpt lat="40.8532298" lon="17.4454884"><ele>0.8</ele><time>2026-05-02T14:52:21.498Z</time></trkpt><trkpt lat="40.853282" lon="17.4453655"><ele>1.0</ele><time>2026-05-02T14:52:22.497Z</time></trkpt><trkpt lat="40.8533391" lon="17.4452344"><ele>1.0</ele><time>2026-05-02T14:52:23.496Z</time></trkpt><trkpt lat="40.8533982" lon="17.4451011"><ele>1.0</ele><time>2026-05-02T14:52:24.497Z</time></trkpt><trkpt lat="40.8534576" lon="17.444962"><ele>1.0</ele><time>2026-05-02T14:52:25.497Z</time></trkpt><trkpt lat="40.8535175" lon="17.4448201"><ele>1.0</ele><time>2026-05-02T14:52:26.496Z</time></trkpt><trkpt lat="40.8535801" lon="17.4446723"><ele>0.25</ele><time>2026-05-02T14:52:27.496Z</time></trkpt><trkpt lat="40.8536444" lon="17.4445167"><ele>-0.5</ele><time>2026-05-02T14:52:28.497Z</time></trkpt><trkpt lat="40.8537093" lon="17.4443581"><ele>-1.25</ele><time>2026-05-02T14:52:29.497Z</time></trkpt><trkpt lat="40.853777" lon="17.4441933"><ele>-2.0</ele><time>2026-05-02T14:52:30.497Z</time></trkpt><trkpt lat="40.8538469" lon="17.4440236"><ele>-2.0</ele><time>2026-05-02T14:52:31.497Z</time></trkpt><trkpt lat="40.8539222" lon="17.4438474"><ele>-2.0</ele><time>2026-05-02T14:52:32.497Z</time></trkpt><trkpt lat="40.8539971" lon="17.4436687"><ele>-2.0</ele><time>2026-05-02T14:52:33.497Z</time></trkpt><trkpt lat="40.854071" lon="17.4434852"><ele>-1.6666666666666665</ele><time>2026-05-02T14:52:34.497Z</time></trkpt><trkpt lat="40.8541468" lon="17.4432982"><ele>-1.3333333333333333</ele><time>2026-05-02T14:52:35.498Z</time></trkpt><trkpt lat="40.8542227" lon="17.4431126"><ele>-1.0</ele><time>2026-05-02T14:52:36.497Z</time></trkpt><trkpt lat="40.8542986" lon="17.4429266"><ele>-1.0</ele><time>2026-05-02T14:52:37.497Z</time></trkpt><trkpt lat="40.8543878" lon="17.4427419"><ele>-1.0</ele><time>2026-05-02T14:52:38.497Z</time></trkpt><trkpt lat="40.8544845" lon="17.4425588"><ele>-1.0</ele><time>2026-05-02T14:52:39.497Z</time></trkpt><trkpt lat="40.8546003" lon="17.4423786"><ele>-1.0</ele><time>2026-05-02T14:52:40.497Z</time></trkpt><trkpt lat="40.85472" lon="17.4422149"><ele>-1.0</ele><time>2026-05-02T14:52:41.497Z</time></trkpt><trkpt lat="40.8548523" lon="17.4420568"><ele>-1.0</ele><time>2026-05-02T14:52:42.497Z</time></trkpt><trkpt lat="40.8549895" lon="17.4418946"><ele>-0.6666666666666666</ele><time>2026-05-02T14:52:43.496Z</time></trkpt><trkpt lat="40.855125" lon="17.4417278"><ele>-0.3333333333333333</ele><time>2026-05-02T14:52:44.496Z</time></trkpt><trkpt lat="40.8552659" lon="17.4415585"><ele>0.0</ele><time>2026-05-02T14:52:45.496Z</time></trkpt><trkpt lat="40.8554077" lon="17.4413906"><ele>-0.3333333333333333</ele><time>2026-05-02T14:52:46.497Z</time></trkpt><trkpt lat="40.8555489" lon="17.4412231"><ele>-0.6666666666666666</ele><time>2026-05-02T14:52:47.497Z</time></trkpt><trkpt lat="40.8556897" lon="17.4410613"><ele>-1.0</ele><time>2026-05-02T14:52:48.497Z</time></trkpt><trkpt lat="40.8558242" lon="17.4409012"><ele>-1.0</ele><time>2026-05-02T14:52:49.497Z</time></trkpt><trkpt lat="40.8559468" lon="17.4407489"><ele>-1.0</ele><time>2026-05-02T14:52:50.497Z</time></trkpt><trkpt lat="40.856062" lon="17.4405972"><ele>-1.0</ele><time>2026-05-02T14:52:51.497Z</time></trkpt><trkpt lat="40.8561762" lon="17.440436"><ele>-1.0</ele><time>2026-05-02T14:52:52.497Z</time></trkpt><trkpt lat="40.8562754" lon="17.4402618"><ele>-1.0</ele><time>2026-05-02T14:52:53.497Z</time></trkpt><trkpt lat="40.8563642" lon="17.4400768"><ele>-1.0</ele><time>2026-05-02T14:52:54.497Z</time></trkpt><trkpt lat="40.8564432" lon="17.4398784"><ele>-1.0</ele><time>2026-05-02T14:52:55.497Z</time></trkpt><trkpt lat="40.8565021" lon="17.4396686"><ele>-1.0</ele><time>2026-05-02T14:52:56.496Z</time></trkpt><trkpt lat="40.856558" lon="17.4394396"><ele>-1.0</ele><time>2026-05-02T14:52:57.497Z</time></trkpt><trkpt lat="40.8565873" lon="17.4392106"><ele>-1.0</ele><time>2026-05-02T14:52:58.497Z</time></trkpt><trkpt lat="40.8566083" lon="17.4389724"><ele>-1.0</ele><time>2026-05-02T14:52:59.497Z</time></trkpt><trkpt lat="40.8566257" lon="17.4387338"><ele>-1.0</ele><time>2026-05-02T14:53:00.496Z</time></trkpt><trkpt lat="40.8566457" lon="17.4384921"><ele>-1.3333333333333333</ele><time>2026-05-02T14:53:01.497Z</time></trkpt><trkpt lat="40.8566632" lon="17.4382555"><ele>-1.6666666666666665</ele><time>2026-05-02T14:53:02.497Z</time></trkpt><trkpt lat="40.8566898" lon="17.4380124"><ele>-2.0</ele><time>2026-05-02T14:53:03.497Z</time></trkpt><trkpt lat="40.8567126" lon="17.437777"><ele>-1.3333333333333333</ele><time>2026-05-02T14:53:04.497Z</time></trkpt><trkpt lat="40.856741" lon="17.4375465"><ele>-0.6666666666666666</ele><time>2026-05-02T14:53:05.496Z</time></trkpt><trkpt lat="40.856779" lon="17.4373195"><ele>0.0</ele><time>2026-05-02T14:53:06.497Z</time></trkpt><trkpt lat="40.8568295" lon="17.4370993"><ele>0.3333333333333333</ele><time>2026-05-02T14:53:07.497Z</time></trkpt><trkpt lat="40.8568948" lon="17.4368878"><ele>0.6666666666666666</ele><time>2026-05-02T14:53:08.497Z</time></trkpt><trkpt lat="40.8569698" lon="17.4366746"><ele>1.0</ele><time>2026-05-02T14:53:09.497Z</time></trkpt><trkpt lat="40.8570535" lon="17.4364684"><ele>1.0</ele><time>2026-05-02T14:53:10.496Z</time></trkpt><trkpt lat="40.8571518" lon="17.4362659"><ele>1.0</ele><time>2026-05-02T14:53:11.497Z</time></trkpt><trkpt lat="40.8572535" lon="17.4360599"><ele>1.0</ele><time>2026-05-02T14:53:12.498Z</time></trkpt><trkpt lat="40.8573562" lon="17.4358478"><ele>1.0</ele><time>2026-05-02T14:53:13.497Z</time></trkpt><trkpt lat="40.857463" lon="17.4356339"><ele>1.0</ele><time>2026-05-02T14:53:14.497Z</time></trkpt><trkpt lat="40.8575689" lon="17.435427"><ele>1.0</ele><time>2026-05-02T14:53:15.496Z</time></trkpt><trkpt lat="40.8576692" lon="17.4352236"><ele>0.3333333333333333</ele><time>2026-05-02T14:53:16.497Z</time></trkpt><trkpt lat="40.8577733" lon="17.4350095"><ele>-0.3333333333333333</ele><time>2026-05-02T14:53:17.497Z</time></trkpt><trkpt lat="40.8578778" lon="17.434797"><ele>-1.0</ele><time>2026-05-02T14:53:18.496Z</time></trkpt><trkpt lat="40.8579746" lon="17.4345785"><ele>-1.0</ele><time>2026-05-02T14:53:19.498Z</time></trkpt><trkpt lat="40.8580686" lon="17.4343603"><ele>-1.0</ele><time>2026-05-02T14:53:20.498Z</time></trkpt><trkpt lat="40.8581584" lon="17.4341295"><ele>-1.0</ele><time>2026-05-02T14:53:21.498Z</time></trkpt><trkpt lat="40.8582482" lon="17.4338948"><ele>-1.0</ele><time>2026-05-02T14:53:22.496Z</time></trkpt><trkpt lat="40.858336" lon="17.4336643"><ele>-1.0</ele><time>2026-05-02T14:53:23.497Z</time></trkpt><trkpt lat="40.8584215" lon="17.4334318"><ele>-1.0</ele><time>2026-05-02T14:53:24.497Z</time></trkpt><trkpt lat="40.8585059" lon="17.4332076"><ele>-1.0</ele><time>2026-05-02T14:53:25.497Z</time></trkpt><trkpt lat="40.8585868" lon="17.4329909"><ele>-1.0</ele><time>2026-05-02T14:53:26.497Z</time></trkpt><trkpt lat="40.8586723" lon="17.4327794"><ele>-1.0</ele><time>2026-05-02T14:53:27.497Z</time></trkpt><trkpt lat="40.8587617" lon="17.4325797"><ele>-0.6666666666666666</ele><time>2026-05-02T14:53:28.497Z</time></trkpt><trkpt lat="40.8588595" lon="17.4323889"><ele>-0.3333333333333333</ele><time>2026-05-02T14:53:29.496Z</time></trkpt><trkpt lat="40.8589651" lon="17.4322038"><ele>0.0</ele><time>2026-05-02T14:53:30.497Z</time></trkpt><trkpt lat="40.859078" lon="17.432024"><ele>0.0</ele><time>2026-05-02T14:53:31.497Z</time></trkpt><trkpt lat="40.8591958" lon="17.4318489"><ele>0.0</ele><time>2026-05-02T14:53:32.497Z</time></trkpt><trkpt lat="40.8593152" lon="17.4316705"><ele>0.0</ele><time>2026-05-02T14:53:33.497Z</time></trkpt><trkpt lat="40.8594397" lon="17.4314886"><ele>0.0</ele><time>2026-05-02T14:53:34.497Z</time></trkpt><trkpt lat="40.8595678" lon="17.431302"><ele>0.0</ele><time>2026-05-02T14:53:35.496Z</time></trkpt><trkpt lat="40.8596967" lon="17.4311136"><ele>0.0</ele><time>2026-05-02T14:53:36.496Z</time></trkpt><trkpt lat="40.8598279" lon="17.4309204"><ele>0.0</ele><time>2026-05-02T14:53:37.496Z</time></trkpt><trkpt lat="40.8599626" lon="17.4307263"><ele>0.0</ele><time>2026-05-02T14:53:38.497Z</time></trkpt><trkpt lat="40.8601002" lon="17.4305309"><ele>0.0</ele><time>2026-05-02T14:53:39.497Z</time></trkpt><trkpt lat="40.8602382" lon="17.4303292"><ele>0.0</ele><time>2026-05-02T14:53:40.497Z</time></trkpt><trkpt lat="40.8603715" lon="17.4301269"><ele>0.0</ele><time>2026-05-02T14:53:41.498Z</time></trkpt><trkpt lat="40.8605074" lon="17.429927"><ele>0.0</ele><time>2026-05-02T14:53:42.496Z</time></trkpt><trkpt lat="40.8606437" lon="17.4297339"><ele>0.0</ele><time>2026-05-02T14:53:43.497Z</time></trkpt><trkpt lat="40.8607752" lon="17.4295472"><ele>0.0</ele><time>2026-05-02T14:53:44.497Z</time></trkpt><trkpt lat="40.8609122" lon="17.4293724"><ele>0.0</ele><time>2026-05-02T14:53:45.496Z</time></trkpt><trkpt lat="40.8610495" lon="17.4292028"><ele>0.0</ele><time>2026-05-02T14:53:46.497Z</time></trkpt><trkpt lat="40.8611886" lon="17.429048"><ele>0.0</ele><time>2026-05-02T14:53:47.496Z</time></trkpt><trkpt lat="40.8613258" lon="17.4289044"><ele>0.0</ele><time>2026-05-02T14:53:48.497Z</time></trkpt><trkpt lat="40.8614599" lon="17.4287628"><ele>0.0</ele><time>2026-05-02T14:53:49.498Z</time></trkpt><trkpt lat="40.8615879" lon="17.428619"><ele>0.0</ele><time>2026-05-02T14:53:50.496Z</time></trkpt><trkpt lat="40.861714" lon="17.4284704"><ele>0.0</ele><time>2026-05-02T14:53:51.496Z</time></trkpt><trkpt lat="40.8618328" lon="17.4283064"><ele>0.0</ele><time>2026-05-02T14:53:52.496Z</time></trkpt><trkpt lat="40.8619428" lon="17.4281306"><ele>0.0</ele><time>2026-05-02T14:53:53.496Z</time></trkpt><trkpt lat="40.8620467" lon="17.4279477"><ele>0.0</ele><time>2026-05-02T14:53:54.497Z</time></trkpt><trkpt lat="40.8621454" lon="17.4277565"><ele>0.0</ele><time>2026-05-02T14:53:55.496Z</time></trkpt><trkpt lat="40.8622364" lon="17.4275627"><ele>0.0</ele><time>2026-05-02T14:53:56.497Z</time></trkpt><trkpt lat="40.8623289" lon="17.4273698"><ele>0.0</ele><time>2026-05-02T14:53:57.497Z</time></trkpt><trkpt lat="40.8624179" lon="17.4271691"><ele>-0.3333333333333333</ele><time>2026-05-02T14:53:58.497Z</time></trkpt><trkpt lat="40.8625107" lon="17.426972"><ele>-0.6666666666666666</ele><time>2026-05-02T14:53:59.498Z</time></trkpt><trkpt lat="40.8626021" lon="17.4267739"><ele>-1.0</ele><time>2026-05-02T14:54:00.497Z</time></trkpt><trkpt lat="40.8626964" lon="17.4265772"><ele>-1.0</ele><time>2026-05-02T14:54:01.496Z</time></trkpt><trkpt lat="40.8627843" lon="17.4263801"><ele>-1.0</ele><time>2026-05-02T14:54:02.497Z</time></trkpt><trkpt lat="40.862872" lon="17.4261853"><ele>-1.0</ele><time>2026-05-02T14:54:03.497Z</time></trkpt><trkpt lat="40.8629582" lon="17.4259918"><ele>-1.0</ele><time>2026-05-02T14:54:04.497Z</time></trkpt><trkpt lat="40.863046" lon="17.4258018"><ele>-1.0</ele><time>2026-05-02T14:54:05.497Z</time></trkpt><trkpt lat="40.8631319" lon="17.4256159"><ele>-1.0</ele><time>2026-05-02T14:54:06.498Z</time></trkpt><trkpt lat="40.8632164" lon="17.4254308"><ele>-1.0</ele><time>2026-05-02T14:54:07.498Z</time></trkpt><trkpt lat="40.8633008" lon="17.4252483"><ele>-1.0</ele><time>2026-05-02T14:54:08.496Z</time></trkpt><trkpt lat="40.8633923" lon="17.4250676"><ele>-1.0</ele><time>2026-05-02T14:54:09.497Z</time></trkpt><trkpt lat="40.8634915" lon="17.4248915"><ele>-1.0</ele><time>2026-05-02T14:54:10.496Z</time></trkpt><trkpt lat="40.8635914" lon="17.4247219"><ele>-1.0</ele><time>2026-05-02T14:54:11.497Z</time></trkpt><trkpt lat="40.8636976" lon="17.4245573"><ele>-1.0</ele><time>2026-05-02T14:54:12.497Z</time></trkpt><trkpt lat="40.8638084" lon="17.4243925"><ele>-1.0</ele><time>2026-05-02T14:54:13.496Z</time></trkpt><trkpt lat="40.8639205" lon="17.4242312"><ele>-1.0</ele><time>2026-05-02T14:54:14.496Z</time></trkpt><trkpt lat="40.8640354" lon="17.4240641"><ele>-1.0</ele><time>2026-05-02T14:54:15.496Z</time></trkpt><trkpt lat="40.8641514" lon="17.4238954"><ele>-0.6666666666666666</ele><time>2026-05-02T14:54:16.497Z</time></trkpt><trkpt lat="40.8642637" lon="17.4237268"><ele>-0.3333333333333333</ele><time>2026-05-02T14:54:17.496Z</time></trkpt><trkpt lat="40.8643736" lon="17.423552"><ele>0.0</ele><time>2026-05-02T14:54:18.497Z</time></trkpt><trkpt lat="40.8644825" lon="17.4233713"><ele>0.0</ele><time>2026-05-02T14:54:19.498Z</time></trkpt><trkpt lat="40.8645852" lon="17.4231809"><ele>0.0</ele><time>2026-05-02T14:54:20.496Z</time></trkpt><trkpt lat="40.8646905" lon="17.4229841"><ele>0.0</ele><time>2026-05-02T14:54:21.498Z</time></trkpt><trkpt lat="40.8647975" lon="17.4227851"><ele>0.3333333333333333</ele><time>2026-05-02T14:54:22.496Z</time></trkpt><trkpt lat="40.8649096" lon="17.4225741"><ele>0.6666666666666666</ele><time>2026-05-02T14:54:23.496Z</time></trkpt><trkpt lat="40.8650166" lon="17.4223642"><ele>1.0</ele><time>2026-05-02T14:54:24.497Z</time></trkpt><trkpt lat="40.8651249" lon="17.4221454"><ele>1.0</ele><time>2026-05-02T14:54:25.496Z</time></trkpt><trkpt lat="40.8652362" lon="17.4219271"><ele>1.0</ele><time>2026-05-02T14:54:26.497Z</time></trkpt><trkpt lat="40.8653428" lon="17.4217181"><ele>1.0</ele><time>2026-05-02T14:54:27.496Z</time></trkpt><trkpt lat="40.8654507" lon="17.4215093"><ele>0.6666666666666666</ele><time>2026-05-02T14:54:28.496Z</time></trkpt><trkpt lat="40.8655536" lon="17.4213052"><ele>0.3333333333333333</ele><time>2026-05-02T14:54:29.498Z</time></trkpt><trkpt lat="40.8656587" lon="17.4211004"><ele>0.0</ele><time>2026-05-02T14:54:30.496Z</time></trkpt><trkpt lat="40.8657617" lon="17.4208989"><ele>0.0</ele><time>2026-05-02T14:54:31.497Z</time></trkpt><trkpt lat="40.8658661" lon="17.4207013"><ele>0.0</ele><time>2026-05-02T14:54:32.497Z</time></trkpt><trkpt lat="40.8659807" lon="17.4205064"><ele>0.0</ele><time>2026-05-02T14:54:33.497Z</time></trkpt><trkpt lat="40.8660984" lon="17.4203206"><ele>0.0</ele><time>2026-05-02T14:54:34.497Z</time></trkpt><trkpt lat="40.8662243" lon="17.4201401"><ele>0.0</ele><time>2026-05-02T14:54:35.497Z</time></trkpt><trkpt lat="40.8663566" lon="17.4199651"><ele>0.0</ele><time>2026-05-02T14:54:36.497Z</time></trkpt><trkpt lat="40.8664931" lon="17.4198062"><ele>0.0</ele><time>2026-05-02T14:54:37.497Z</time></trkpt><trkpt lat="40.8666375" lon="17.4196586"><ele>0.0</ele><time>2026-05-02T14:54:38.497Z</time></trkpt><trkpt lat="40.8667874" lon="17.4195152"><ele>0.0</ele><time>2026-05-02T14:54:39.498Z</time></trkpt><trkpt lat="40.8669373" lon="17.4193732"><ele>-0.3333333333333333</ele><time>2026-05-02T14:54:40.497Z</time></trkpt><trkpt lat="40.8670909" lon="17.4192283"><ele>-0.6666666666666666</ele><time>2026-05-02T14:54:41.497Z</time></trkpt><trkpt lat="40.8672474" lon="17.4190841"><ele>-1.0</ele><time>2026-05-02T14:54:42.497Z</time></trkpt><trkpt lat="40.8674038" lon="17.4189448"><ele>-0.6666666666666666</ele><time>2026-05-02T14:54:43.497Z</time></trkpt><trkpt lat="40.8675587" lon="17.418806"><ele>-0.3333333333333333</ele><time>2026-05-02T14:54:44.496Z</time></trkpt><trkpt lat="40.867714" lon="17.4186708"><ele>0.0</ele><time>2026-05-02T14:54:45.496Z</time></trkpt><trkpt lat="40.8678617" lon="17.4185448"><ele>0.0</ele><time>2026-05-02T14:54:46.497Z</time></trkpt><trkpt lat="40.8680054" lon="17.4184198"><ele>0.0</ele><time>2026-05-02T14:54:47.497Z</time></trkpt><trkpt lat="40.8681419" lon="17.4182955"><ele>0.0</ele><time>2026-05-02T14:54:48.497Z</time></trkpt><trkpt lat="40.868277" lon="17.4181707"><ele>0.0</ele><time>2026-05-02T14:54:49.497Z</time></trkpt><trkpt lat="40.868402" lon="17.418029"><ele>0.0</ele><time>2026-05-02T14:54:50.497Z</time></trkpt><trkpt lat="40.8685177" lon="17.417871"><ele>0.0</ele><time>2026-05-02T14:54:51.497Z</time></trkpt><trkpt lat="40.8686248" lon="17.4177047"><ele>0.0</ele><time>2026-05-02T14:54:52.497Z</time></trkpt><trkpt lat="40.8687217" lon="17.4175245"><ele>0.0</ele><time>2026-05-02T14:54:53.497Z</time></trkpt><trkpt lat="40.8688067" lon="17.4173284"><ele>0.0</ele><time>2026-05-02T14:54:54.496Z</time></trkpt><trkpt lat="40.8688806" lon="17.4171258"><ele>0.0</ele><time>2026-05-02T14:54:55.497Z</time></trkpt><trkpt lat="40.8689366" lon="17.4169199"><ele>0.0</ele><time>2026-05-02T14:54:56.497Z</time></trkpt><trkpt lat="40.8689823" lon="17.4167129"><ele>0.0</ele><time>2026-05-02T14:54:57.497Z</time></trkpt><trkpt lat="40.8690118" lon="17.4164982"><ele>0.0</ele><time>2026-05-02T14:54:58.496Z</time></trkpt><trkpt lat="40.8690295" lon="17.4162792"><ele>0.0</ele><time>2026-05-02T14:54:59.496Z</time></trkpt><trkpt lat="40.8690498" lon="17.4160597"><ele>0.0</ele><time>2026-05-02T14:55:00.497Z</time></trkpt><trkpt lat="40.8690772" lon="17.4158404"><ele>0.0</ele><time>2026-05-02T14:55:01.497Z</time></trkpt><trkpt lat="40.8691169" lon="17.4156233"><ele>0.0</ele><time>2026-05-02T14:55:02.498Z</time></trkpt><trkpt lat="40.8691716" lon="17.4154094"><ele>0.0</ele><time>2026-05-02T14:55:03.497Z</time></trkpt><trkpt lat="40.8692461" lon="17.4152025"><ele>-0.3333333333333333</ele><time>2026-05-02T14:55:04.497Z</time></trkpt><trkpt lat="40.8693275" lon="17.415005"><ele>-0.6666666666666666</ele><time>2026-05-02T14:55:05.496Z</time></trkpt><trkpt lat="40.8694213" lon="17.4148129"><ele>-1.0</ele><time>2026-05-02T14:55:06.496Z</time></trkpt><trkpt lat="40.8695206" lon="17.4146347"><ele>-1.0</ele><time>2026-05-02T14:55:07.496Z</time></trkpt><trkpt lat="40.8696259" lon="17.4144623"><ele>-1.0</ele><time>2026-05-02T14:55:08.496Z</time></trkpt><trkpt lat="40.869736" lon="17.4143055"><ele>-1.0</ele><time>2026-05-02T14:55:09.496Z</time></trkpt><trkpt lat="40.8698553" lon="17.414156"><ele>-1.0</ele><time>2026-05-02T14:55:10.496Z</time></trkpt><trkpt lat="40.8699766" lon="17.4140249"><ele>-1.0</ele><time>2026-05-02T14:55:11.496Z</time></trkpt><trkpt lat="40.8700973" lon="17.4138964"><ele>-1.0</ele><time>2026-05-02T14:55:12.496Z</time></trkpt><trkpt lat="40.8702077" lon="17.4137722"><ele>-0.75</ele><time>2026-05-02T14:55:13.496Z</time></trkpt><trkpt lat="40.8703127" lon="17.4136519"><ele>-0.5</ele><time>2026-05-02T14:55:14.496Z</time></trkpt><trkpt lat="40.8704101" lon="17.4135286"><ele>-0.25</ele><time>2026-05-02T14:55:15.495Z</time></trkpt><trkpt lat="40.8705011" lon="17.4133986"><ele>0.0</ele><time>2026-05-02T14:55:16.495Z</time></trkpt><trkpt lat="40.8705832" lon="17.4132588"><ele>0.0</ele><time>2026-05-02T14:55:17.495Z</time></trkpt><trkpt lat="40.8706546" lon="17.4131112"><ele>0.0</ele><time>2026-05-02T14:55:18.497Z</time></trkpt><trkpt lat="40.8707189" lon="17.4129633"><ele>0.0</ele><time>2026-05-02T14:55:19.496Z</time></trkpt><trkpt lat="40.8707783" lon="17.4128147"><ele>0.0</ele><time>2026-05-02T14:55:20.496Z</time></trkpt><trkpt lat="40.8708311" lon="17.4126652"><ele>0.5</ele><time>2026-05-02T14:55:21.496Z</time></trkpt><trkpt lat="40.8708849" lon="17.4125207"><ele>1.0</ele><time>2026-05-02T14:55:22.496Z</time></trkpt><trkpt lat="40.8709391" lon="17.4123842"><ele>1.5</ele><time>2026-05-02T14:55:23.495Z</time></trkpt><trkpt lat="40.8709974" lon="17.4122582"><ele>2.0</ele><time>2026-05-02T14:55:24.496Z</time></trkpt><trkpt lat="40.8710588" lon="17.4121378"><ele>2.2</ele><time>2026-05-02T14:55:25.497Z</time></trkpt><trkpt lat="40.8711263" lon="17.4120285"><ele>2.4000000000000004</ele><time>2026-05-02T14:55:26.497Z</time></trkpt><trkpt lat="40.8712008" lon="17.4119239"><ele>2.5999999999999996</ele><time>2026-05-02T14:55:27.496Z</time></trkpt><trkpt lat="40.8712841" lon="17.4118211"><ele>2.8</ele><time>2026-05-02T14:55:28.496Z</time></trkpt><trkpt lat="40.8713725" lon="17.4117239"><ele>3.0</ele><time>2026-05-02T14:55:29.495Z</time></trkpt><trkpt lat="40.8714559" lon="17.4116287"><ele>3.0</ele><time>2026-05-02T14:55:30.496Z</time></trkpt><trkpt lat="40.8715383" lon="17.4115356"><ele>3.0</ele><time>2026-05-02T14:55:31.496Z</time></trkpt><trkpt lat="40.8716197" lon="17.4114453"><ele>3.0</ele><time>2026-05-02T14:55:32.496Z</time></trkpt><trkpt lat="40.8717007" lon="17.4113577"><ele>3.0</ele><time>2026-05-02T14:55:33.496Z</time></trkpt><trkpt lat="40.871776" lon="17.4112704"><ele>3.0</ele><time>2026-05-02T14:55:34.496Z</time></trkpt><trkpt lat="40.8718485" lon="17.4111827"><ele>3.5999999999999996</ele><time>2026-05-02T14:55:35.495Z</time></trkpt><trkpt lat="40.8719202" lon="17.4110967"><ele>4.199999999999999</ele><time>2026-05-02T14:55:36.495Z</time></trkpt><trkpt lat="40.8719903" lon="17.4110175"><ele>4.8</ele><time>2026-05-02T14:55:37.495Z</time></trkpt><trkpt lat="40.8720631" lon="17.4109417"><ele>5.3999999999999995</ele><time>2026-05-02T14:55:38.495Z</time></trkpt><trkpt lat="40.8721295" lon="17.4108646"><ele>6.0</ele><time>2026-05-02T14:55:39.495Z</time></trkpt><trkpt lat="40.8721906" lon="17.4107956"><ele>6.0</ele><time>2026-05-02T14:55:40.496Z</time></trkpt><trkpt lat="40.8722593" lon="17.4107233"><ele>6.0</ele><time>2026-05-02T14:55:41.496Z</time></trkpt><trkpt lat="40.8723226" lon="17.4106633"><ele>6.0</ele><time>2026-05-02T14:55:42.496Z</time></trkpt><trkpt lat="40.8723758" lon="17.4105914"><ele>6.0</ele><time>2026-05-02T14:55:43.496Z</time></trkpt><trkpt lat="40.8724332" lon="17.4105293"><ele>6.0</ele><time>2026-05-02T14:55:44.496Z</time></trkpt><trkpt lat="40.8725152" lon="17.4104517"><ele>6.0</ele><time>2026-05-02T14:55:46.496Z</time></trkpt><trkpt lat="40.8725846" lon="17.4103734"><ele>5.6</ele><time>2026-05-02T14:55:48.495Z</time></trkpt><trkpt lat="40.8726657" lon="17.4102971"><ele>5.199999999999999</ele><time>2026-05-02T14:55:50.496Z</time></trkpt><trkpt lat="40.8727383" lon="17.4102192"><ele>4.800000000000001</ele><time>2026-05-02T14:55:52.495Z</time></trkpt><trkpt lat="40.8728089" lon="17.4101393"><ele>4.4</ele><time>2026-05-02T14:55:54.496Z</time></trkpt><trkpt lat="40.8728967" lon="17.4100385"><ele>4.0</ele><time>2026-05-02T14:55:56.496Z</time></trkpt><trkpt lat="40.8729458" lon="17.4099828"><ele>4.0</ele><time>2026-05-02T14:55:57.495Z</time></trkpt><trkpt lat="40.8730354" lon="17.4098751"><ele>4.0</ele><time>2026-05-02T14:55:59.496Z</time></trkpt><trkpt lat="40.8730983" lon="17.409818"><ele>4.0</ele><time>2026-05-02T14:56:00.497Z</time></trkpt><trkpt lat="40.8731932" lon="17.4096983"><ele>4.0</ele><time>2026-05-02T14:56:02.496Z</time></trkpt><trkpt lat="40.8732452" lon="17.4096377"><ele>4.0</ele><time>2026-05-02T14:56:03.495Z</time></trkpt><trkpt lat="40.8732969" lon="17.4095846"><ele>4.0</ele><time>2026-05-02T14:56:04.496Z</time></trkpt><trkpt lat="40.8733545" lon="17.4095254"><ele>3.9999999999999996</ele><time>2026-05-02T14:56:05.496Z</time></trkpt><trkpt lat="40.8734163" lon="17.4094752"><ele>4.0</ele><time>2026-05-02T14:56:06.496Z</time></trkpt><trkpt lat="40.8734738" lon="17.409414"><ele>4.0</ele><time>2026-05-02T14:56:07.497Z</time></trkpt><trkpt lat="40.8735361" lon="17.4093513"><ele>3.9999999999999996</ele><time>2026-05-02T14:56:08.497Z</time></trkpt><trkpt lat="40.8735932" lon="17.4092912"><ele>4.0</ele><time>2026-05-02T14:56:09.496Z</time></trkpt><trkpt lat="40.8736473" lon="17.4092234"><ele>4.0</ele><time>2026-05-02T14:56:10.497Z</time></trkpt><trkpt lat="40.8737064" lon="17.4091539"><ele>3.9999999999999996</ele><time>2026-05-02T14:56:11.496Z</time></trkpt><trkpt lat="40.8737613" lon="17.4090913"><ele>4.0</ele><time>2026-05-02T14:56:12.495Z</time></trkpt><trkpt lat="40.8738234" lon="17.4090294"><ele>4.0</ele><time>2026-05-02T14:56:13.495Z</time></trkpt><trkpt lat="40.8738806" lon="17.408963"><ele>4.0</ele><time>2026-05-02T14:56:14.496Z</time></trkpt><trkpt lat="40.873942" lon="17.4088897"><ele>3.9999999999999996</ele><time>2026-05-02T14:56:15.496Z</time></trkpt><trkpt lat="40.8740073" lon="17.4088234"><ele>4.0</ele><time>2026-05-02T14:56:16.496Z</time></trkpt><trkpt lat="40.874062" lon="17.4087622"><ele>3.9999999999999996</ele><time>2026-05-02T14:56:17.495Z</time></trkpt><trkpt lat="40.8741244" lon="17.4086994"><ele>4.0</ele><time>2026-05-02T14:56:18.496Z</time></trkpt><trkpt lat="40.874186" lon="17.4086322"><ele>4.0</ele><time>2026-05-02T14:56:19.495Z</time></trkpt><trkpt lat="40.8742424" lon="17.4085663"><ele>4.0</ele><time>2026-05-02T14:56:20.496Z</time></trkpt><trkpt lat="40.8743027" lon="17.4084957"><ele>3.9999999999999996</ele><time>2026-05-02T14:56:21.496Z</time></trkpt><trkpt lat="40.8743606" lon="17.4084298"><ele>4.0</ele><time>2026-05-02T14:56:22.496Z</time></trkpt><trkpt lat="40.8744232" lon="17.4083698"><ele>3.9999999999999996</ele><time>2026-05-02T14:56:23.495Z</time></trkpt><trkpt lat="40.8744836" lon="17.4083021"><ele>4.0</ele><time>2026-05-02T14:56:24.495Z</time></trkpt><trkpt lat="40.874542" lon="17.408235"><ele>4.0</ele><time>2026-05-02T14:56:25.496Z</time></trkpt><trkpt lat="40.874601" lon="17.408168"><ele>4.0</ele><time>2026-05-02T14:56:26.495Z</time></trkpt><trkpt lat="40.8746619" lon="17.408101"><ele>3.9999999999999996</ele><time>2026-05-02T14:56:27.496Z</time></trkpt><trkpt lat="40.874724" lon="17.4080385"><ele>4.0</ele><time>2026-05-02T14:56:28.496Z</time></trkpt><trkpt lat="40.8747882" lon="17.4079743"><ele>4.166666666666666</ele><time>2026-05-02T14:56:29.496Z</time></trkpt><trkpt lat="40.874844" lon="17.4078975"><ele>4.333333333333333</ele><time>2026-05-02T14:56:30.496Z</time></trkpt><trkpt lat="40.8749008" lon="17.4078371"><ele>4.5</ele><time>2026-05-02T14:56:31.496Z</time></trkpt><trkpt lat="40.8749614" lon="17.4077584"><ele>4.666666666666667</ele><time>2026-05-02T14:56:32.495Z</time></trkpt><trkpt lat="40.8750241" lon="17.4076894"><ele>4.833333333333334</ele><time>2026-05-02T14:56:33.496Z</time></trkpt><trkpt lat="40.8750854" lon="17.4076165"><ele>5.0</ele><time>2026-05-02T14:56:34.495Z</time></trkpt><trkpt lat="40.8751487" lon="17.4075336"><ele>4.6</ele><time>2026-05-02T14:56:35.497Z</time></trkpt><trkpt lat="40.8752154" lon="17.4074575"><ele>4.2</ele><time>2026-05-02T14:56:36.496Z</time></trkpt><trkpt lat="40.8752903" lon="17.4073726"><ele>3.8</ele><time>2026-05-02T14:56:37.495Z</time></trkpt><trkpt lat="40.8753667" lon="17.4072744"><ele>3.4</ele><time>2026-05-02T14:56:38.496Z</time></trkpt><trkpt lat="40.8754401" lon="17.4071846"><ele>3.0</ele><time>2026-05-02T14:56:39.497Z</time></trkpt><trkpt lat="40.8755161" lon="17.4070811"><ele>3.0</ele><time>2026-05-02T14:56:40.495Z</time></trkpt><trkpt lat="40.8755914" lon="17.4069799"><ele>3.0</ele><time>2026-05-02T14:56:41.497Z</time></trkpt><trkpt lat="40.8756695" lon="17.4068864"><ele>3.0</ele><time>2026-05-02T14:56:42.496Z</time></trkpt><trkpt lat="40.8757695" lon="17.40677"><ele>3.0</ele><time>2026-05-02T14:56:43.495Z</time></trkpt><trkpt lat="40.8758661" lon="17.4066391"><ele>3.0</ele><time>2026-05-02T14:56:44.496Z</time></trkpt><trkpt lat="40.8759616" lon="17.4065133"><ele>3.0</ele><time>2026-05-02T14:56:45.496Z</time></trkpt><trkpt lat="40.8760635" lon="17.4063797"><ele>3.0</ele><time>2026-05-02T14:56:46.495Z</time></trkpt><trkpt lat="40.8761592" lon="17.4062631"><ele>3.0</ele><time>2026-05-02T14:56:47.497Z</time></trkpt><trkpt lat="40.8762605" lon="17.4061354"><ele>3.0</ele><time>2026-05-02T14:56:48.497Z</time></trkpt><trkpt lat="40.8763671" lon="17.4060017"><ele>3.0</ele><time>2026-05-02T14:56:49.497Z</time></trkpt><trkpt lat="40.8764702" lon="17.4058664"><ele>3.0</ele><time>2026-05-02T14:56:50.495Z</time></trkpt><trkpt lat="40.876577" lon="17.40573"><ele>3.0</ele><time>2026-05-02T14:56:51.496Z</time></trkpt><trkpt lat="40.8766766" lon="17.4056081"><ele>2.25</ele><time>2026-05-02T14:56:52.496Z</time></trkpt><trkpt lat="40.8767763" lon="17.405474"><ele>1.5</ele><time>2026-05-02T14:56:53.495Z</time></trkpt><trkpt lat="40.8768765" lon="17.4053388"><ele>0.75</ele><time>2026-05-02T14:56:54.495Z</time></trkpt><trkpt lat="40.8769786" lon="17.4052081"><ele>0.0</ele><time>2026-05-02T14:56:55.496Z</time></trkpt><trkpt lat="40.8770775" lon="17.4050837"><ele>0.0</ele><time>2026-05-02T14:56:56.496Z</time></trkpt><trkpt lat="40.8771762" lon="17.4049547"><ele>0.0</ele><time>2026-05-02T14:56:57.497Z</time></trkpt><trkpt lat="40.8772744" lon="17.4048289"><ele>0.0</ele><time>2026-05-02T14:56:58.496Z</time></trkpt><trkpt lat="40.877368" lon="17.4047017"><ele>0.0</ele><time>2026-05-02T14:56:59.496Z</time></trkpt><trkpt lat="40.8774638" lon="17.4045718"><ele>0.0</ele><time>2026-05-02T14:57:00.495Z</time></trkpt><trkpt lat="40.877566" lon="17.4044486"><ele>0.0</ele><time>2026-05-02T14:57:01.496Z</time></trkpt><trkpt lat="40.8776674" lon="17.40433"><ele>0.0</ele><time>2026-05-02T14:57:02.496Z</time></trkpt><trkpt lat="40.8777695" lon="17.4042029"><ele>0.0</ele><time>2026-05-02T14:57:03.496Z</time></trkpt><trkpt lat="40.87787" lon="17.4040734"><ele>0.0</ele><time>2026-05-02T14:57:04.496Z</time></trkpt><trkpt lat="40.8779682" lon="17.4039389"><ele>0.0</ele><time>2026-05-02T14:57:05.497Z</time></trkpt><trkpt lat="40.8780744" lon="17.4038005"><ele>0.0</ele><time>2026-05-02T14:57:06.496Z</time></trkpt><trkpt lat="40.8781864" lon="17.4036554"><ele>0.0</ele><time>2026-05-02T14:57:07.496Z</time></trkpt><trkpt lat="40.8782966" lon="17.4035113"><ele>0.0</ele><time>2026-05-02T14:57:08.496Z</time></trkpt><trkpt lat="40.8784072" lon="17.4033675"><ele>0.0</ele><time>2026-05-02T14:57:09.496Z</time></trkpt><trkpt lat="40.8785194" lon="17.4032213"><ele>0.0</ele><time>2026-05-02T14:57:10.496Z</time></trkpt><trkpt lat="40.8786313" lon="17.403071"><ele>-0.3333333333333333</ele><time>2026-05-02T14:57:11.495Z</time></trkpt><trkpt lat="40.8787392" lon="17.4029208"><ele>-0.6666666666666666</ele><time>2026-05-02T14:57:12.495Z</time></trkpt><trkpt lat="40.8788472" lon="17.4027717"><ele>-1.0</ele><time>2026-05-02T14:57:13.496Z</time></trkpt><trkpt lat="40.8789676" lon="17.4026203"><ele>-1.0</ele><time>2026-05-02T14:57:14.495Z</time></trkpt><trkpt lat="40.8790814" lon="17.4024746"><ele>-1.0</ele><time>2026-05-02T14:57:15.496Z</time></trkpt><trkpt lat="40.8792014" lon="17.4023238"><ele>-1.0</ele><time>2026-05-02T14:57:16.497Z</time></trkpt><trkpt lat="40.8793203" lon="17.4021691"><ele>-1.0</ele><time>2026-05-02T14:57:17.496Z</time></trkpt><trkpt lat="40.8794332" lon="17.4020194"><ele>-1.0</ele><time>2026-05-02T14:57:18.496Z</time></trkpt><trkpt lat="40.8795516" lon="17.4018673"><ele>-1.0</ele><time>2026-05-02T14:57:19.496Z</time></trkpt><trkpt lat="40.8796712" lon="17.4017121"><ele>-1.0</ele><time>2026-05-02T14:57:20.496Z</time></trkpt><trkpt lat="40.8797917" lon="17.4015563"><ele>-1.0</ele><time>2026-05-02T14:57:21.496Z</time></trkpt><trkpt lat="40.8799112" lon="17.4014008"><ele>-1.0</ele><time>2026-05-02T14:57:22.496Z</time></trkpt><trkpt lat="40.8800297" lon="17.4012506"><ele>-1.0</ele><time>2026-05-02T14:57:23.497Z</time></trkpt><trkpt lat="40.8801478" lon="17.4010986"><ele>-1.0</ele><time>2026-05-02T14:57:24.496Z</time></trkpt><trkpt lat="40.880264" lon="17.4009463"><ele>-1.0</ele><time>2026-05-02T14:57:25.496Z</time></trkpt><trkpt lat="40.8803817" lon="17.4007949"><ele>-1.0</ele><time>2026-05-02T14:57:26.496Z</time></trkpt><trkpt lat="40.8804999" lon="17.4006457"><ele>-1.0</ele><time>2026-05-02T14:57:27.496Z</time></trkpt><trkpt lat="40.8806171" lon="17.4005024"><ele>-1.0</ele><time>2026-05-02T14:57:28.496Z</time></trkpt><trkpt lat="40.8807339" lon="17.4003535"><ele>-0.6666666666666666</ele><time>2026-05-02T14:57:29.497Z</time></trkpt><trkpt lat="40.8808475" lon="17.4002112"><ele>-0.3333333333333333</ele><time>2026-05-02T14:57:30.496Z</time></trkpt><trkpt lat="40.8809693" lon="17.4000725"><ele>0.0</ele><time>2026-05-02T14:57:31.496Z</time></trkpt><trkpt lat="40.8810952" lon="17.3999383"><ele>0.0</ele><time>2026-05-02T14:57:32.495Z</time></trkpt><trkpt lat="40.8812267" lon="17.3998119"><ele>0.0</ele><time>2026-05-02T14:57:33.495Z</time></trkpt><trkpt lat="40.8813569" lon="17.399688"><ele>0.0</ele><time>2026-05-02T14:57:34.496Z</time></trkpt><trkpt lat="40.881488" lon="17.3995654"><ele>0.3333333333333333</ele><time>2026-05-02T14:57:35.496Z</time></trkpt><trkpt lat="40.8816165" lon="17.3994464"><ele>0.6666666666666666</ele><time>2026-05-02T14:57:36.496Z</time></trkpt><trkpt lat="40.8817409" lon="17.3993243"><ele>1.0</ele><time>2026-05-02T14:57:37.495Z</time></trkpt><trkpt lat="40.8818661" lon="17.3991992"><ele>0.6666666666666666</ele><time>2026-05-02T14:57:38.496Z</time></trkpt><trkpt lat="40.8819934" lon="17.399071"><ele>0.3333333333333333</ele><time>2026-05-02T14:57:39.496Z</time></trkpt><trkpt lat="40.8821334" lon="17.3989418"><ele>0.0</ele><time>2026-05-02T14:57:40.497Z</time></trkpt><trkpt lat="40.8822672" lon="17.3988113"><ele>0.0</ele><time>2026-05-02T14:57:41.496Z</time></trkpt><trkpt lat="40.8824068" lon="17.3986784"><ele>0.0</ele><time>2026-05-02T14:57:42.496Z</time></trkpt><trkpt lat="40.8825457" lon="17.3985421"><ele>0.0</ele><time>2026-05-02T14:57:43.496Z</time></trkpt><trkpt lat="40.8826863" lon="17.3984048"><ele>0.0</ele><time>2026-05-02T14:57:44.497Z</time></trkpt><trkpt lat="40.8828274" lon="17.3982673"><ele>0.0</ele><time>2026-05-02T14:57:45.496Z</time></trkpt><trkpt lat="40.8829695" lon="17.3981286"><ele>0.0</ele><time>2026-05-02T14:57:46.495Z</time></trkpt><trkpt lat="40.8831111" lon="17.3979915"><ele>0.3333333333333333</ele><time>2026-05-02T14:57:47.495Z</time></trkpt><trkpt lat="40.8832511" lon="17.3978558"><ele>0.6666666666666666</ele><time>2026-05-02T14:57:48.496Z</time></trkpt><trkpt lat="40.8833908" lon="17.3977235"><ele>1.0</ele><time>2026-05-02T14:57:49.497Z</time></trkpt><trkpt lat="40.8835303" lon="17.3975894"><ele>0.3333333333333333</ele><time>2026-05-02T14:57:50.496Z</time></trkpt><trkpt lat="40.8836667" lon="17.3974569"><ele>-0.3333333333333333</ele><time>2026-05-02T14:57:51.495Z</time></trkpt><trkpt lat="40.8837978" lon="17.3973259"><ele>-1.0</ele><time>2026-05-02T14:57:52.496Z</time></trkpt><trkpt lat="40.8839262" lon="17.3971992"><ele>-0.3333333333333333</ele><time>2026-05-02T14:57:53.496Z</time></trkpt><trkpt lat="40.8840554" lon="17.3970743"><ele>0.3333333333333333</ele><time>2026-05-02T14:57:54.495Z</time></trkpt><trkpt lat="40.8841805" lon="17.3969492"><ele>1.0</ele><time>2026-05-02T14:57:55.496Z</time></trkpt><trkpt lat="40.8843056" lon="17.3968218"><ele>1.0</ele><time>2026-05-02T14:57:56.496Z</time></trkpt><trkpt lat="40.8844298" lon="17.3966986"><ele>1.0</ele><time>2026-05-02T14:57:57.496Z</time></trkpt><trkpt lat="40.884556" lon="17.3965846"><ele>1.0</ele><time>2026-05-02T14:57:58.495Z</time></trkpt><trkpt lat="40.8846857" lon="17.3964801"><ele>1.0</ele><time>2026-05-02T14:57:59.497Z</time></trkpt><trkpt lat="40.8848228" lon="17.396385"><ele>1.0</ele><time>2026-05-02T14:58:00.497Z</time></trkpt><trkpt lat="40.8849638" lon="17.3963045"><ele>1.0</ele><time>2026-05-02T14:58:01.497Z</time></trkpt><trkpt lat="40.8851099" lon="17.3962239"><ele>0.6666666666666666</ele><time>2026-05-02T14:58:02.496Z</time></trkpt><trkpt lat="40.8852568" lon="17.3961437"><ele>0.3333333333333333</ele><time>2026-05-02T14:58:03.496Z</time></trkpt><trkpt lat="40.8853977" lon="17.396056"><ele>0.0</ele><time>2026-05-02T14:58:04.496Z</time></trkpt><trkpt lat="40.8855306" lon="17.3959583"><ele>0.0</ele><time>2026-05-02T14:58:05.496Z</time></trkpt><trkpt lat="40.8856555" lon="17.3958382"><ele>0.0</ele><time>2026-05-02T14:58:06.495Z</time></trkpt><trkpt lat="40.8857687" lon="17.3956964"><ele>0.0</ele><time>2026-05-02T14:58:07.496Z</time></trkpt><trkpt lat="40.8858713" lon="17.3955397"><ele>-0.3333333333333333</ele><time>2026-05-02T14:58:08.496Z</time></trkpt><trkpt lat="40.8859644" lon="17.3953702"><ele>-0.6666666666666666</ele><time>2026-05-02T14:58:09.496Z</time></trkpt><trkpt lat="40.8860516" lon="17.3952091"><ele>-1.0</ele><time>2026-05-02T14:58:10.495Z</time></trkpt><trkpt lat="40.8861387" lon="17.3950537"><ele>-1.0</ele><time>2026-05-02T14:58:11.496Z</time></trkpt><trkpt lat="40.8862304" lon="17.3949156"><ele>-1.0</ele><time>2026-05-02T14:58:12.496Z</time></trkpt><trkpt lat="40.8863334" lon="17.3947975"><ele>-1.0</ele><time>2026-05-02T14:58:13.496Z</time></trkpt><trkpt lat="40.8864422" lon="17.3947"><ele>-1.0</ele><time>2026-05-02T14:58:14.496Z</time></trkpt><trkpt lat="40.8865564" lon="17.3946079"><ele>-0.75</ele><time>2026-05-02T14:58:15.497Z</time></trkpt><trkpt lat="40.8866631" lon="17.3945078"><ele>-0.5</ele><time>2026-05-02T14:58:16.497Z</time></trkpt><trkpt lat="40.8867625" lon="17.3944067"><ele>-0.25</ele><time>2026-05-02T14:58:17.495Z</time></trkpt><trkpt lat="40.8868667" lon="17.3942953"><ele>0.0</ele><time>2026-05-02T14:58:18.495Z</time></trkpt><trkpt lat="40.8869646" lon="17.394175"><ele>0.0</ele><time>2026-05-02T14:58:19.496Z</time></trkpt><trkpt lat="40.8870664" lon="17.3940484"><ele>0.0</ele><time>2026-05-02T14:58:20.495Z</time></trkpt><trkpt lat="40.8871693" lon="17.3939271"><ele>0.0</ele><time>2026-05-02T14:58:21.494Z</time></trkpt><trkpt lat="40.8872697" lon="17.3938025"><ele>0.0</ele><time>2026-05-02T14:58:22.496Z</time></trkpt><trkpt lat="40.8873583" lon="17.3936662"><ele>0.0</ele><time>2026-05-02T14:58:23.494Z</time></trkpt><trkpt lat="40.8874381" lon="17.3935213"><ele>0.0</ele><time>2026-05-02T14:58:24.495Z</time></trkpt><trkpt lat="40.8875034" lon="17.393356"><ele>0.0</ele><time>2026-05-02T14:58:25.495Z</time></trkpt><trkpt lat="40.8875513" lon="17.3931778"><ele>0.0</ele><time>2026-05-02T14:58:26.495Z</time></trkpt><trkpt lat="40.8875898" lon="17.3929825"><ele>-0.25</ele><time>2026-05-02T14:58:27.495Z</time></trkpt><trkpt lat="40.8876206" lon="17.3927918"><ele>-0.5</ele><time>2026-05-02T14:58:28.496Z</time></trkpt><trkpt lat="40.8876533" lon="17.3926015"><ele>-0.75</ele><time>2026-05-02T14:58:29.495Z</time></trkpt><trkpt lat="40.8876875" lon="17.3924106"><ele>-1.0</ele><time>2026-05-02T14:58:30.495Z</time></trkpt><trkpt lat="40.887727" lon="17.3922253"><ele>0.25</ele><time>2026-05-02T14:58:31.495Z</time></trkpt><trkpt lat="40.8877785" lon="17.3920451"><ele>1.5</ele><time>2026-05-02T14:58:32.495Z</time></trkpt><trkpt lat="40.8878421" lon="17.3918731"><ele>2.75</ele><time>2026-05-02T14:58:33.496Z</time></trkpt><trkpt lat="40.8879143" lon="17.3917046"><ele>4.0</ele><time>2026-05-02T14:58:34.495Z</time></trkpt><trkpt lat="40.8879987" lon="17.3915464"><ele>4.0</ele><time>2026-05-02T14:58:35.496Z</time></trkpt><trkpt lat="40.888088" lon="17.3913904"><ele>4.0</ele><time>2026-05-02T14:58:36.496Z</time></trkpt><trkpt lat="40.8881883" lon="17.3912336"><ele>4.0</ele><time>2026-05-02T14:58:37.496Z</time></trkpt><trkpt lat="40.888292" lon="17.3910794"><ele>3.6666666666666665</ele><time>2026-05-02T14:58:38.495Z</time></trkpt><trkpt lat="40.8884004" lon="17.3909341"><ele>3.333333333333333</ele><time>2026-05-02T14:58:39.494Z</time></trkpt><trkpt lat="40.8885173" lon="17.3907992"><ele>3.0</ele><time>2026-05-02T14:58:40.494Z</time></trkpt><trkpt lat="40.8886463" lon="17.3906709"><ele>2.3333333333333335</ele><time>2026-05-02T14:58:41.496Z</time></trkpt><trkpt lat="40.8887793" lon="17.3905443"><ele>1.6666666666666665</ele><time>2026-05-02T14:58:42.494Z</time></trkpt><trkpt lat="40.8889092" lon="17.3904192"><ele>1.0</ele><time>2026-05-02T14:58:43.495Z</time></trkpt><trkpt lat="40.8890406" lon="17.390281"><ele>0.6666666666666666</ele><time>2026-05-02T14:58:44.496Z</time></trkpt><trkpt lat="40.8891654" lon="17.3901367"><ele>0.3333333333333333</ele><time>2026-05-02T14:58:45.495Z</time></trkpt><trkpt lat="40.8892788" lon="17.3899728"><ele>0.0</ele><time>2026-05-02T14:58:46.496Z</time></trkpt><trkpt lat="40.8893809" lon="17.3897976"><ele>0.3333333333333333</ele><time>2026-05-02T14:58:47.495Z</time></trkpt><trkpt lat="40.889475" lon="17.3896085"><ele>0.6666666666666666</ele><time>2026-05-02T14:58:48.495Z</time></trkpt><trkpt lat="40.8895709" lon="17.3894184"><ele>1.0</ele><time>2026-05-02T14:58:49.494Z</time></trkpt><trkpt lat="40.8896647" lon="17.38922"><ele>1.0</ele><time>2026-05-02T14:58:50.494Z</time></trkpt><trkpt lat="40.8897623" lon="17.3890199"><ele>1.0</ele><time>2026-05-02T14:58:51.495Z</time></trkpt><trkpt lat="40.8898598" lon="17.3888202"><ele>1.0</ele><time>2026-05-02T14:58:52.495Z</time></trkpt><trkpt lat="40.8899553" lon="17.3886169"><ele>1.0</ele><time>2026-05-02T14:58:53.494Z</time></trkpt><trkpt lat="40.8900531" lon="17.3884128"><ele>1.0</ele><time>2026-05-02T14:58:54.494Z</time></trkpt><trkpt lat="40.8901319" lon="17.3882059"><ele>1.0</ele><time>2026-05-02T14:58:55.494Z</time></trkpt><trkpt lat="40.8902045" lon="17.3879892"><ele>1.0</ele><time>2026-05-02T14:58:56.494Z</time></trkpt><trkpt lat="40.8902731" lon="17.3877712"><ele>1.0</ele><time>2026-05-02T14:58:57.495Z</time></trkpt><trkpt lat="40.8903472" lon="17.3875549"><ele>1.0</ele><time>2026-05-02T14:58:58.495Z</time></trkpt><trkpt lat="40.8904188" lon="17.3873378"><ele>0.6666666666666666</ele><time>2026-05-02T14:58:59.494Z</time></trkpt><trkpt lat="40.8904888" lon="17.3871288"><ele>0.3333333333333333</ele><time>2026-05-02T14:59:00.494Z</time></trkpt><trkpt lat="40.8905622" lon="17.3869258"><ele>0.0</ele><time>2026-05-02T14:59:01.496Z</time></trkpt><trkpt lat="40.8906433" lon="17.3867224"><ele>0.0</ele><time>2026-05-02T14:59:02.495Z</time></trkpt><trkpt lat="40.8907303" lon="17.3865189"><ele>0.0</ele><time>2026-05-02T14:59:03.495Z</time></trkpt><trkpt lat="40.8908264" lon="17.3863168"><ele>0.0</ele><time>2026-05-02T14:59:04.495Z</time></trkpt><trkpt lat="40.8909249" lon="17.3861143"><ele>0.0</ele><time>2026-05-02T14:59:05.496Z</time></trkpt><trkpt lat="40.8910261" lon="17.38591"><ele>0.0</ele><time>2026-05-02T14:59:06.496Z</time></trkpt><trkpt lat="40.8911274" lon="17.3857133"><ele>0.0</ele><time>2026-05-02T14:59:07.495Z</time></trkpt><trkpt lat="40.8912277" lon="17.3855217"><ele>0.0</ele><time>2026-05-02T14:59:08.495Z</time></trkpt><trkpt lat="40.8913257" lon="17.3853356"><ele>0.0</ele><time>2026-05-02T14:59:09.495Z</time></trkpt><trkpt lat="40.8914158" lon="17.385146"><ele>0.0</ele><time>2026-05-02T14:59:10.495Z</time></trkpt><trkpt lat="40.8914987" lon="17.38495"><ele>0.0</ele><time>2026-05-02T14:59:11.494Z</time></trkpt><trkpt lat="40.89157" lon="17.3847455"><ele>0.0</ele><time>2026-05-02T14:59:12.494Z</time></trkpt><trkpt lat="40.8916318" lon="17.3845367"><ele>0.0</ele><time>2026-05-02T14:59:13.495Z</time></trkpt><trkpt lat="40.8916955" lon="17.3843262"><ele>0.0</ele><time>2026-05-02T14:59:14.494Z</time></trkpt><trkpt lat="40.8917587" lon="17.3841201"><ele>0.0</ele><time>2026-05-02T14:59:15.495Z</time></trkpt><trkpt lat="40.8918211" lon="17.3839086"><ele>0.0</ele><time>2026-05-02T14:59:16.494Z</time></trkpt><trkpt lat="40.8918816" lon="17.3836995"><ele>0.0</ele><time>2026-05-02T14:59:17.495Z</time></trkpt><trkpt lat="40.8919373" lon="17.3834921"><ele>0.0</ele><time>2026-05-02T14:59:18.495Z</time></trkpt><trkpt lat="40.8919854" lon="17.383275"><ele>0.0</ele><time>2026-05-02T14:59:19.495Z</time></trkpt><trkpt lat="40.8920251" lon="17.3830529"><ele>0.0</ele><time>2026-05-02T14:59:20.494Z</time></trkpt><trkpt lat="40.8920568" lon="17.3828253"><ele>0.0</ele><time>2026-05-02T14:59:21.496Z</time></trkpt><trkpt lat="40.8920875" lon="17.3825942"><ele>0.0</ele><time>2026-05-02T14:59:22.495Z</time></trkpt><trkpt lat="40.8921158" lon="17.3823671"><ele>0.3333333333333333</ele><time>2026-05-02T14:59:23.495Z</time></trkpt><trkpt lat="40.8921451" lon="17.3821483"><ele>0.6666666666666666</ele><time>2026-05-02T14:59:24.495Z</time></trkpt><trkpt lat="40.8921796" lon="17.3819414"><ele>1.0</ele><time>2026-05-02T14:59:25.494Z</time></trkpt><trkpt lat="40.8922271" lon="17.3817453"><ele>1.0</ele><time>2026-05-02T14:59:26.495Z</time></trkpt><trkpt lat="40.8922966" lon="17.3815552"><ele>1.0</ele><time>2026-05-02T14:59:27.495Z</time></trkpt><trkpt lat="40.8923817" lon="17.3813731"><ele>1.0</ele><time>2026-05-02T14:59:28.494Z</time></trkpt><trkpt lat="40.8924732" lon="17.3811944"><ele>1.3333333333333333</ele><time>2026-05-02T14:59:29.495Z</time></trkpt><trkpt lat="40.8925607" lon="17.3810083"><ele>1.6666666666666665</ele><time>2026-05-02T14:59:30.495Z</time></trkpt><trkpt lat="40.8926434" lon="17.3808162"><ele>2.0</ele><time>2026-05-02T14:59:31.495Z</time></trkpt><trkpt lat="40.8927201" lon="17.3806233"><ele>2.0</ele><time>2026-05-02T14:59:32.495Z</time></trkpt><trkpt lat="40.8927938" lon="17.3804197"><ele>2.0</ele><time>2026-05-02T14:59:33.496Z</time></trkpt><trkpt lat="40.8928714" lon="17.3802201"><ele>2.0</ele><time>2026-05-02T14:59:34.495Z</time></trkpt><trkpt lat="40.8929476" lon="17.3800144"><ele>2.0</ele><time>2026-05-02T14:59:35.495Z</time></trkpt><trkpt lat="40.8930227" lon="17.3798091"><ele>2.0</ele><time>2026-05-02T14:59:36.495Z</time></trkpt><trkpt lat="40.8930963" lon="17.3796095"><ele>2.0</ele><time>2026-05-02T14:59:37.495Z</time></trkpt><trkpt lat="40.8931671" lon="17.3794057"><ele>2.0</ele><time>2026-05-02T14:59:38.495Z</time></trkpt><trkpt lat="40.8932397" lon="17.3792041"><ele>2.0</ele><time>2026-05-02T14:59:39.495Z</time></trkpt><trkpt lat="40.8933113" lon="17.3790061"><ele>2.0</ele><time>2026-05-02T14:59:40.495Z</time></trkpt><trkpt lat="40.8933851" lon="17.3788098"><ele>1.3333333333333333</ele><time>2026-05-02T14:59:41.494Z</time></trkpt><trkpt lat="40.8934537" lon="17.3786106"><ele>0.6666666666666666</ele><time>2026-05-02T14:59:42.495Z</time></trkpt><trkpt lat="40.8935285" lon="17.3784087"><ele>0.0</ele><time>2026-05-02T14:59:43.495Z</time></trkpt><trkpt lat="40.8936004" lon="17.3782108"><ele>0.3333333333333333</ele><time>2026-05-02T14:59:44.495Z</time></trkpt><trkpt lat="40.8936616" lon="17.3780163"><ele>0.6666666666666666</ele><time>2026-05-02T14:59:45.495Z</time></trkpt><trkpt lat="40.8937343" lon="17.3778115"><ele>1.0</ele><time>2026-05-02T14:59:46.496Z</time></trkpt><trkpt lat="40.8938109" lon="17.3776089"><ele>1.0</ele><time>2026-05-02T14:59:47.495Z</time></trkpt><trkpt lat="40.8938834" lon="17.377408"><ele>1.0</ele><time>2026-05-02T14:59:48.495Z</time></trkpt><trkpt lat="40.8939571" lon="17.3772137"><ele>1.0</ele><time>2026-05-02T14:59:49.495Z</time></trkpt><trkpt lat="40.894044" lon="17.3770085"><ele>1.6666666666666665</ele><time>2026-05-02T14:59:50.495Z</time></trkpt><trkpt lat="40.8941137" lon="17.3768263"><ele>2.3333333333333335</ele><time>2026-05-02T14:59:51.494Z</time></trkpt><trkpt lat="40.89418" lon="17.376649"><ele>3.0</ele><time>2026-05-02T14:59:52.496Z</time></trkpt><trkpt lat="40.8942496" lon="17.376459"><ele>3.0</ele><time>2026-05-02T14:59:53.494Z</time></trkpt><trkpt lat="40.8943146" lon="17.3762845"><ele>3.0</ele><time>2026-05-02T14:59:54.495Z</time></trkpt><trkpt lat="40.8943788" lon="17.3761058"><ele>3.0</ele><time>2026-05-02T14:59:55.496Z</time></trkpt><trkpt lat="40.8944439" lon="17.3759237"><ele>3.0</ele><time>2026-05-02T14:59:56.494Z</time></trkpt><trkpt lat="40.8945161" lon="17.3757289"><ele>3.0</ele><time>2026-05-02T14:59:57.495Z</time></trkpt><trkpt lat="40.8945856" lon="17.375547"><ele>3.0</ele><time>2026-05-02T14:59:58.495Z</time></trkpt><trkpt lat="40.8946587" lon="17.3753554"><ele>3.0</ele><time>2026-05-02T14:59:59.495Z</time></trkpt><trkpt lat="40.8947275" lon="17.3751693"><ele>2.6666666666666665</ele><time>2026-05-02T15:00:00.494Z</time></trkpt><trkpt lat="40.8947976" lon="17.3749839"><ele>2.333333333333333</ele><time>2026-05-02T15:00:01.495Z</time></trkpt><trkpt lat="40.8948646" lon="17.374801"><ele>2.0</ele><time>2026-05-02T15:00:02.495Z</time></trkpt><trkpt lat="40.8949307" lon="17.3746207"><ele>2.0</ele><time>2026-05-02T15:00:03.495Z</time></trkpt><trkpt lat="40.8949963" lon="17.3744414"><ele>2.0</ele><time>2026-05-02T15:00:04.496Z</time></trkpt><trkpt lat="40.8950624" lon="17.3742632"><ele>2.0</ele><time>2026-05-02T15:00:05.495Z</time></trkpt><trkpt lat="40.8951272" lon="17.3740848"><ele>1.75</ele><time>2026-05-02T15:00:06.495Z</time></trkpt><trkpt lat="40.8951918" lon="17.3739092"><ele>1.5</ele><time>2026-05-02T15:00:07.495Z</time></trkpt><trkpt lat="40.8952573" lon="17.3737325"><ele>1.25</ele><time>2026-05-02T15:00:08.494Z</time></trkpt><trkpt lat="40.8953213" lon="17.3735562"><ele>1.0</ele><time>2026-05-02T15:00:09.494Z</time></trkpt><trkpt lat="40.8953878" lon="17.3733765"><ele>1.6666666666666665</ele><time>2026-05-02T15:00:10.495Z</time></trkpt><trkpt lat="40.8954521" lon="17.373199"><ele>2.3333333333333335</ele><time>2026-05-02T15:00:11.495Z</time></trkpt><trkpt lat="40.8955163" lon="17.3730172"><ele>3.0</ele><time>2026-05-02T15:00:12.495Z</time></trkpt><trkpt lat="40.8955847" lon="17.3728365"><ele>3.0</ele><time>2026-05-02T15:00:13.496Z</time></trkpt><trkpt lat="40.8956476" lon="17.3726602"><ele>3.0</ele><time>2026-05-02T15:00:14.495Z</time></trkpt><trkpt lat="40.8957122" lon="17.3724842"><ele>3.0</ele><time>2026-05-02T15:00:15.495Z</time></trkpt><trkpt lat="40.8957768" lon="17.3723061"><ele>3.0</ele><time>2026-05-02T15:00:16.496Z</time></trkpt><trkpt lat="40.895848" lon="17.3721302"><ele>2.5</ele><time>2026-05-02T15:00:17.494Z</time></trkpt><trkpt lat="40.8959107" lon="17.3719622"><ele>2.0</ele><time>2026-05-02T15:00:18.495Z</time></trkpt><trkpt lat="40.8959597" lon="17.3717994"><ele>1.5</ele><time>2026-05-02T15:00:19.496Z</time></trkpt><trkpt lat="40.8960162" lon="17.3716329"><ele>1.0</ele><time>2026-05-02T15:00:20.495Z</time></trkpt><trkpt lat="40.8960626" lon="17.3714664"><ele>1.5</ele><time>2026-05-02T15:00:21.495Z</time></trkpt><trkpt lat="40.8961076" lon="17.3713054"><ele>2.0</ele><time>2026-05-02T15:00:22.494Z</time></trkpt><trkpt lat="40.8961571" lon="17.3711421"><ele>2.5</ele><time>2026-05-02T15:00:23.496Z</time></trkpt><trkpt lat="40.8962046" lon="17.3709835"><ele>3.0</ele><time>2026-05-02T15:00:24.495Z</time></trkpt><trkpt lat="40.8962545" lon="17.3708242"><ele>3.0</ele><time>2026-05-02T15:00:25.495Z</time></trkpt><trkpt lat="40.8962961" lon="17.3706658"><ele>3.0</ele><time>2026-05-02T15:00:26.495Z</time></trkpt><trkpt lat="40.8963353" lon="17.3705101"><ele>3.0</ele><time>2026-05-02T15:00:27.495Z</time></trkpt><trkpt lat="40.8963691" lon="17.3703675"><ele>3.0</ele><time>2026-05-02T15:00:28.495Z</time></trkpt><trkpt lat="40.8964027" lon="17.3702217"><ele>2.6</ele><time>2026-05-02T15:00:29.496Z</time></trkpt><trkpt lat="40.8964424" lon="17.3700888"><ele>2.1999999999999997</ele><time>2026-05-02T15:00:30.495Z</time></trkpt><trkpt lat="40.8964686" lon="17.3699505"><ele>1.8</ele><time>2026-05-02T15:00:31.496Z</time></trkpt><trkpt lat="40.8965005" lon="17.3698298"><ele>1.4</ele><time>2026-05-02T15:00:32.496Z</time></trkpt><trkpt lat="40.8965241" lon="17.3697085"><ele>1.0</ele><time>2026-05-02T15:00:33.495Z</time></trkpt><trkpt lat="40.8965491" lon="17.3696224"><ele>1.0</ele><time>2026-05-02T15:00:34.495Z</time></trkpt><trkpt lat="40.8965807" lon="17.3694766"><ele>1.0</ele><time>2026-05-02T15:00:36.494Z</time></trkpt><trkpt lat="40.8965928" lon="17.3693562"><ele>1.0</ele><time>2026-05-02T15:00:38.494Z</time></trkpt><trkpt lat="40.8965651" lon="17.3692769"><ele>1.0</ele><time>2026-05-02T15:00:40.496Z</time></trkpt><trkpt lat="40.8965064" lon="17.3691836"><ele>1.0</ele><time>2026-05-02T15:00:42.496Z</time></trkpt><trkpt lat="40.8964017" lon="17.3690826"><ele>0.9999999999999999</ele><time>2026-05-02T15:00:44.495Z</time></trkpt><trkpt lat="40.8963457" lon="17.369028"><ele>1.0</ele><time>2026-05-02T15:00:45.494Z</time></trkpt><trkpt lat="40.8962871" lon="17.3689692"><ele>1.0</ele><time>2026-05-02T15:00:46.496Z</time></trkpt><trkpt lat="40.8962276" lon="17.3689095"><ele>1.0</ele><time>2026-05-02T15:00:47.496Z</time></trkpt><trkpt lat="40.8961668" lon="17.3688434"><ele>0.9999999999999999</ele><time>2026-05-02T15:00:48.494Z</time></trkpt><trkpt lat="40.8961044" lon="17.3687786"><ele>1.0</ele><time>2026-05-02T15:00:49.496Z</time></trkpt><trkpt lat="40.8960284" lon="17.3687199"><ele>1.2000000000000002</ele><time>2026-05-02T15:00:50.495Z</time></trkpt><trkpt lat="40.8959464" lon="17.3686534"><ele>1.4000000000000001</ele><time>2026-05-02T15:00:51.494Z</time></trkpt><trkpt lat="40.8958617" lon="17.3685831"><ele>1.6</ele><time>2026-05-02T15:00:52.494Z</time></trkpt><trkpt lat="40.8957836" lon="17.3685113"><ele>1.8</ele><time>2026-05-02T15:00:53.495Z</time></trkpt><trkpt lat="40.8956982" lon="17.3684334"><ele>2.0</ele><time>2026-05-02T15:00:54.495Z</time></trkpt><trkpt lat="40.8956141" lon="17.3683517"><ele>1.5</ele><time>2026-05-02T15:00:55.495Z</time></trkpt><trkpt lat="40.8955244" lon="17.3682661"><ele>1.0</ele><time>2026-05-02T15:00:56.495Z</time></trkpt><trkpt lat="40.8954318" lon="17.3681843"><ele>0.5</ele><time>2026-05-02T15:00:57.494Z</time></trkpt><trkpt lat="40.8953355" lon="17.368098"><ele>0.0</ele><time>2026-05-02T15:00:58.496Z</time></trkpt><trkpt lat="40.8952387" lon="17.3680113"><ele>0.0</ele><time>2026-05-02T15:00:59.495Z</time></trkpt><trkpt lat="40.8951433" lon="17.3679232"><ele>0.0</ele><time>2026-05-02T15:01:00.494Z</time></trkpt><trkpt lat="40.8950544" lon="17.3678311"><ele>0.0</ele><time>2026-05-02T15:01:01.494Z</time></trkpt><trkpt lat="40.8949656" lon="17.3677459"><ele>0.0</ele><time>2026-05-02T15:01:02.494Z</time></trkpt><trkpt lat="40.8948713" lon="17.3676625"><ele>0.25</ele><time>2026-05-02T15:01:03.496Z</time></trkpt><trkpt lat="40.8947739" lon="17.3675802"><ele>0.5</ele><time>2026-05-02T15:01:04.495Z</time></trkpt><trkpt lat="40.8946786" lon="17.3674924"><ele>0.75</ele><time>2026-05-02T15:01:05.496Z</time></trkpt><trkpt lat="40.8945801" lon="17.367403"><ele>1.0</ele><time>2026-05-02T15:01:06.495Z</time></trkpt><trkpt lat="40.894484" lon="17.3673182"><ele>1.0</ele><time>2026-05-02T15:01:07.495Z</time></trkpt><trkpt lat="40.8943908" lon="17.367232"><ele>1.0</ele><time>2026-05-02T15:01:08.495Z</time></trkpt><trkpt lat="40.8942963" lon="17.3671466"><ele>1.0</ele><time>2026-05-02T15:01:09.494Z</time></trkpt><trkpt lat="40.894202" lon="17.3670603"><ele>1.0</ele><time>2026-05-02T15:01:10.496Z</time></trkpt><trkpt lat="40.8941074" lon="17.3669733"><ele>1.4</ele><time>2026-05-02T15:01:11.494Z</time></trkpt><trkpt lat="40.8940232" lon="17.3668802"><ele>1.8</ele><time>2026-05-02T15:01:12.496Z</time></trkpt><trkpt lat="40.8939412" lon="17.3667897"><ele>2.1999999999999997</ele><time>2026-05-02T15:01:13.496Z</time></trkpt><trkpt lat="40.893861" lon="17.3667011"><ele>2.6</ele><time>2026-05-02T15:01:14.495Z</time></trkpt><trkpt lat="40.8937876" lon="17.366622"><ele>3.0</ele><time>2026-05-02T15:01:15.495Z</time></trkpt><trkpt lat="40.8937214" lon="17.3665525"><ele>2.9999999999999996</ele><time>2026-05-02T15:01:16.495Z</time></trkpt><trkpt lat="40.8936669" lon="17.3664814"><ele>3.0</ele><time>2026-05-02T15:01:17.496Z</time></trkpt><trkpt lat="40.8936085" lon="17.366416"><ele>3.0</ele><time>2026-05-02T15:01:18.496Z</time></trkpt><trkpt lat="40.8935553" lon="17.3663546"><ele>3.0</ele><time>2026-05-02T15:01:19.494Z</time></trkpt><trkpt lat="40.8935111" lon="17.3662855"><ele>3.0</ele><time>2026-05-02T15:01:20.495Z</time></trkpt><trkpt lat="40.8934867" lon="17.3661987"><ele>2.9999999999999996</ele><time>2026-05-02T15:01:21.495Z</time></trkpt><trkpt lat="40.893469" lon="17.3661065"><ele>3.0</ele><time>2026-05-02T15:01:22.494Z</time></trkpt><trkpt lat="40.8934622" lon="17.3660027"><ele>3.2</ele><time>2026-05-02T15:01:23.495Z</time></trkpt><trkpt lat="40.8934635" lon="17.3658891"><ele>3.4</ele><time>2026-05-02T15:01:24.495Z</time></trkpt><trkpt lat="40.8934629" lon="17.3657699"><ele>3.6000000000000005</ele><time>2026-05-02T15:01:25.496Z</time></trkpt><trkpt lat="40.8934646" lon="17.3656396"><ele>3.8000000000000003</ele><time>2026-05-02T15:01:26.496Z</time></trkpt><trkpt lat="40.8934684" lon="17.3655032"><ele>4.0</ele><time>2026-05-02T15:01:27.494Z</time></trkpt><trkpt lat="40.893475" lon="17.3653635"><ele>4.0</ele><time>2026-05-02T15:01:28.494Z</time></trkpt><trkpt lat="40.8934812" lon="17.3652241"><ele>4.0</ele><time>2026-05-02T15:01:29.494Z</time></trkpt><trkpt lat="40.8934837" lon="17.3650787"><ele>4.0</ele><time>2026-05-02T15:01:30.494Z</time></trkpt><trkpt lat="40.8934881" lon="17.3649316"><ele>4.0</ele><time>2026-05-02T15:01:31.494Z</time></trkpt><trkpt lat="40.8934898" lon="17.364781"><ele>4.0</ele><time>2026-05-02T15:01:32.494Z</time></trkpt><trkpt lat="40.8934953" lon="17.3646265"><ele>4.75</ele><time>2026-05-02T15:01:33.495Z</time></trkpt><trkpt lat="40.8935067" lon="17.3644718"><ele>5.5</ele><time>2026-05-02T15:01:34.494Z</time></trkpt><trkpt lat="40.8935233" lon="17.3643156"><ele>6.25</ele><time>2026-05-02T15:01:35.494Z</time></trkpt><trkpt lat="40.8935532" lon="17.3641675"><ele>7.0</ele><time>2026-05-02T15:01:36.493Z</time></trkpt><trkpt lat="40.8935956" lon="17.364018"><ele>7.0</ele><time>2026-05-02T15:01:37.494Z</time></trkpt><trkpt lat="40.8936483" lon="17.363871"><ele>7.0</ele><time>2026-05-02T15:01:38.494Z</time></trkpt><trkpt lat="40.8937095" lon="17.3637199"><ele>7.0</ele><time>2026-05-02T15:01:39.494Z</time></trkpt><trkpt lat="40.8937752" lon="17.363566"><ele>7.0</ele><time>2026-05-02T15:01:40.493Z</time></trkpt><trkpt lat="40.8938406" lon="17.3634126"><ele>7.0</ele><time>2026-05-02T15:01:41.493Z</time></trkpt><trkpt lat="40.8939067" lon="17.3632576"><ele>7.0</ele><time>2026-05-02T15:01:42.494Z</time></trkpt><trkpt lat="40.8939716" lon="17.3630976"><ele>7.0</ele><time>2026-05-02T15:01:43.494Z</time></trkpt><trkpt lat="40.8940377" lon="17.3629359"><ele>7.0</ele><time>2026-05-02T15:01:44.494Z</time></trkpt><trkpt lat="40.8941059" lon="17.3627688"><ele>7.0</ele><time>2026-05-02T15:01:45.494Z</time></trkpt><trkpt lat="40.8941736" lon="17.3626016"><ele>7.0</ele><time>2026-05-02T15:01:46.495Z</time></trkpt><trkpt lat="40.8942455" lon="17.3624371"><ele>7.0</ele><time>2026-05-02T15:01:47.494Z</time></trkpt><trkpt lat="40.8943176" lon="17.362268"><ele>7.0</ele><time>2026-05-02T15:01:48.494Z</time></trkpt><trkpt lat="40.8943866" lon="17.3621048"><ele>6.5</ele><time>2026-05-02T15:01:49.493Z</time></trkpt><trkpt lat="40.8944574" lon="17.3619329"><ele>6.0</ele><time>2026-05-02T15:01:50.494Z</time></trkpt><trkpt lat="40.8945332" lon="17.3617665"><ele>5.5</ele><time>2026-05-02T15:01:51.493Z</time></trkpt><trkpt lat="40.8946044" lon="17.3616074"><ele>5.0</ele><time>2026-05-02T15:01:52.495Z</time></trkpt><trkpt lat="40.8946769" lon="17.3614427"><ele>5.5</ele><time>2026-05-02T15:01:53.494Z</time></trkpt><trkpt lat="40.894749" lon="17.3612791"><ele>6.0</ele><time>2026-05-02T15:01:54.494Z</time></trkpt><trkpt lat="40.8948215" lon="17.3611141"><ele>6.5</ele><time>2026-05-02T15:01:55.494Z</time></trkpt><trkpt lat="40.8948977" lon="17.3609466"><ele>7.0</ele><time>2026-05-02T15:01:56.494Z</time></trkpt><trkpt lat="40.8949723" lon="17.3607828"><ele>7.0</ele><time>2026-05-02T15:01:57.494Z</time></trkpt><trkpt lat="40.8950473" lon="17.3606203"><ele>7.0</ele><time>2026-05-02T15:01:58.494Z</time></trkpt><trkpt lat="40.895122" lon="17.3604585"><ele>7.0</ele><time>2026-05-02T15:01:59.495Z</time></trkpt><trkpt lat="40.8951972" lon="17.3602963"><ele>7.0</ele><time>2026-05-02T15:02:00.493Z</time></trkpt><trkpt lat="40.895271" lon="17.3601355"><ele>7.0</ele><time>2026-05-02T15:02:01.495Z</time></trkpt><trkpt lat="40.8953451" lon="17.3599734"><ele>7.0</ele><time>2026-05-02T15:02:02.494Z</time></trkpt><trkpt lat="40.8954169" lon="17.3598107"><ele>7.0</ele><time>2026-05-02T15:02:03.494Z</time></trkpt><trkpt lat="40.8954876" lon="17.3596495"><ele>7.0</ele><time>2026-05-02T15:02:04.494Z</time></trkpt><trkpt lat="40.8955588" lon="17.3594972"><ele>7.0</ele><time>2026-05-02T15:02:05.494Z</time></trkpt><trkpt lat="40.8956289" lon="17.3593435"><ele>7.0</ele><time>2026-05-02T15:02:06.494Z</time></trkpt><trkpt lat="40.8956961" lon="17.3591963"><ele>7.0</ele><time>2026-05-02T15:02:07.493Z</time></trkpt><trkpt lat="40.8957582" lon="17.3590592"><ele>7.0</ele><time>2026-05-02T15:02:08.493Z</time></trkpt><trkpt lat="40.8958176" lon="17.3589312"><ele>7.0</ele><time>2026-05-02T15:02:09.493Z</time></trkpt><trkpt lat="40.8958763" lon="17.3588154"><ele>6.999999999999999</ele><time>2026-05-02T15:02:10.493Z</time></trkpt><trkpt lat="40.8959393" lon="17.358713"><ele>6.999999999999999</ele><time>2026-05-02T15:02:11.494Z</time></trkpt><trkpt lat="40.8960092" lon="17.3586283"><ele>7.0</ele><time>2026-05-02T15:02:12.493Z</time></trkpt><trkpt lat="40.8960881" lon="17.3585587"><ele>7.0</ele><time>2026-05-02T15:02:13.495Z</time></trkpt><trkpt lat="40.8961645" lon="17.3585044"><ele>6.8</ele><time>2026-05-02T15:02:14.494Z</time></trkpt><trkpt lat="40.8962425" lon="17.3584444"><ele>6.6</ele><time>2026-05-02T15:02:15.493Z</time></trkpt><trkpt lat="40.896315" lon="17.3583759"><ele>6.3999999999999995</ele><time>2026-05-02T15:02:16.494Z</time></trkpt><trkpt lat="40.8963819" lon="17.3582906"><ele>6.199999999999999</ele><time>2026-05-02T15:02:17.494Z</time></trkpt><trkpt lat="40.8964398" lon="17.3581944"><ele>6.0</ele><time>2026-05-02T15:02:18.494Z</time></trkpt><trkpt lat="40.8964917" lon="17.3580859"><ele>6.0</ele><time>2026-05-02T15:02:19.495Z</time></trkpt><trkpt lat="40.8965414" lon="17.3579769"><ele>6.0</ele><time>2026-05-02T15:02:20.494Z</time></trkpt><trkpt lat="40.896606" lon="17.3578621"><ele>6.0</ele><time>2026-05-02T15:02:21.494Z</time></trkpt><trkpt lat="40.8966687" lon="17.3577705"><ele>6.0</ele><time>2026-05-02T15:02:22.494Z</time></trkpt><trkpt lat="40.8967459" lon="17.3576877"><ele>6.0</ele><time>2026-05-02T15:02:23.493Z</time></trkpt><trkpt lat="40.8968221" lon="17.3576044"><ele>6.0</ele><time>2026-05-02T15:02:24.494Z</time></trkpt><trkpt lat="40.8969265" lon="17.3575255"><ele>6.0</ele><time>2026-05-02T15:02:25.493Z</time></trkpt><trkpt lat="40.8970254" lon="17.3574435"><ele>6.0</ele><time>2026-05-02T15:02:26.494Z</time></trkpt><trkpt lat="40.8971269" lon="17.3573594"><ele>6.0</ele><time>2026-05-02T15:02:27.494Z</time></trkpt><trkpt lat="40.8972358" lon="17.3572667"><ele>6.25</ele><time>2026-05-02T15:02:28.494Z</time></trkpt><trkpt lat="40.8973446" lon="17.3571764"><ele>6.5</ele><time>2026-05-02T15:02:29.494Z</time></trkpt><trkpt lat="40.8974588" lon="17.3570832"><ele>6.75</ele><time>2026-05-02T15:02:30.494Z</time></trkpt><trkpt lat="40.8975769" lon="17.35699"><ele>7.0</ele><time>2026-05-02T15:02:31.494Z</time></trkpt><trkpt lat="40.8976926" lon="17.3568948"><ele>7.0</ele><time>2026-05-02T15:02:32.493Z</time></trkpt><trkpt lat="40.8978087" lon="17.3568008"><ele>7.0</ele><time>2026-05-02T15:02:33.494Z</time></trkpt><trkpt lat="40.8979237" lon="17.3567014"><ele>7.0</ele><time>2026-05-02T15:02:34.494Z</time></trkpt><trkpt lat="40.8980351" lon="17.3566104"><ele>7.0</ele><time>2026-05-02T15:02:35.494Z</time></trkpt><trkpt lat="40.898149" lon="17.3565202"><ele>7.0</ele><time>2026-05-02T15:02:36.494Z</time></trkpt><trkpt lat="40.8982586" lon="17.3564256"><ele>7.0</ele><time>2026-05-02T15:02:37.493Z</time></trkpt><trkpt lat="40.8983653" lon="17.3563322"><ele>7.0</ele><time>2026-05-02T15:02:38.494Z</time></trkpt><trkpt lat="40.8984714" lon="17.3562493"><ele>7.0</ele><time>2026-05-02T15:02:39.494Z</time></trkpt><trkpt lat="40.898579" lon="17.3561632"><ele>6.3999999999999995</ele><time>2026-05-02T15:02:40.494Z</time></trkpt><trkpt lat="40.8986767" lon="17.3560779"><ele>5.799999999999999</ele><time>2026-05-02T15:02:41.494Z</time></trkpt><trkpt lat="40.8987705" lon="17.3560059"><ele>5.2</ele><time>2026-05-02T15:02:42.493Z</time></trkpt><trkpt lat="40.8988606" lon="17.3559428"><ele>4.6</ele><time>2026-05-02T15:02:43.494Z</time></trkpt><trkpt lat="40.898947" lon="17.3558965"><ele>4.0</ele><time>2026-05-02T15:02:44.494Z</time></trkpt><trkpt lat="40.8990235" lon="17.3558683"><ele>3.9999999999999996</ele><time>2026-05-02T15:02:45.495Z</time></trkpt><trkpt lat="40.8990999" lon="17.3558482"><ele>4.0</ele><time>2026-05-02T15:02:46.494Z</time></trkpt><trkpt lat="40.8991709" lon="17.355827"><ele>4.0</ele><time>2026-05-02T15:02:47.494Z</time></trkpt><trkpt lat="40.8992359" lon="17.3557943"><ele>4.0</ele><time>2026-05-02T15:02:48.493Z</time></trkpt><trkpt lat="40.8992877" lon="17.3557467"><ele>3.9999999999999996</ele><time>2026-05-02T15:02:49.493Z</time></trkpt><trkpt lat="40.8993407" lon="17.355603"><ele>4.0</ele><time>2026-05-02T15:02:51.494Z</time></trkpt><trkpt lat="40.899342" lon="17.3555115"><ele>4.166666666666666</ele><time>2026-05-02T15:02:52.494Z</time></trkpt><trkpt lat="40.899335" lon="17.355412"><ele>4.333333333333333</ele><time>2026-05-02T15:02:53.493Z</time></trkpt><trkpt lat="40.8993299" lon="17.355309"><ele>4.5</ele><time>2026-05-02T15:02:54.493Z</time></trkpt><trkpt lat="40.8993197" lon="17.355194"><ele>4.666666666666667</ele><time>2026-05-02T15:02:55.494Z</time></trkpt><trkpt lat="40.899317" lon="17.3550692"><ele>4.833333333333334</ele><time>2026-05-02T15:02:56.494Z</time></trkpt><trkpt lat="40.8993182" lon="17.3549369"><ele>5.0</ele><time>2026-05-02T15:02:57.494Z</time></trkpt><trkpt lat="40.8993219" lon="17.354807"><ele>5.0</ele><time>2026-05-02T15:02:58.494Z</time></trkpt><trkpt lat="40.8993287" lon="17.3546718"><ele>5.0</ele><time>2026-05-02T15:02:59.493Z</time></trkpt><trkpt lat="40.8993355" lon="17.354537"><ele>5.0</ele><time>2026-05-02T15:03:00.494Z</time></trkpt><trkpt lat="40.899343" lon="17.3544059"><ele>5.0</ele><time>2026-05-02T15:03:01.494Z</time></trkpt><trkpt lat="40.8993482" lon="17.3542773"><ele>5.0</ele><time>2026-05-02T15:03:02.494Z</time></trkpt><trkpt lat="40.8993536" lon="17.3541517"><ele>5.0</ele><time>2026-05-02T15:03:03.493Z</time></trkpt><trkpt lat="40.8993605" lon="17.3540244"><ele>5.0</ele><time>2026-05-02T15:03:04.493Z</time></trkpt><trkpt lat="40.8993646" lon="17.3538985"><ele>5.0</ele><time>2026-05-02T15:03:05.494Z</time></trkpt><trkpt lat="40.8993713" lon="17.3537787"><ele>5.0</ele><time>2026-05-02T15:03:06.494Z</time></trkpt><trkpt lat="40.8993779" lon="17.3536626"><ele>5.0</ele><time>2026-05-02T15:03:07.494Z</time></trkpt><trkpt lat="40.8993835" lon="17.3535539"><ele>5.0</ele><time>2026-05-02T15:03:08.494Z</time></trkpt><trkpt lat="40.8993914" lon="17.3534483"><ele>5.0</ele><time>2026-05-02T15:03:09.493Z</time></trkpt><trkpt lat="40.8993993" lon="17.35335"><ele>5.0</ele><time>2026-05-02T15:03:10.494Z</time></trkpt><trkpt lat="40.8994057" lon="17.3532647"><ele>5.0</ele><time>2026-05-02T15:03:11.494Z</time></trkpt><trkpt lat="40.8994208" lon="17.3531471"><ele>5.0</ele><time>2026-05-02T15:03:13.494Z</time></trkpt><trkpt lat="40.899431" lon="17.3530462"><ele>5.0</ele><time>2026-05-02T15:03:22.494Z</time></trkpt><trkpt lat="40.8994988" lon="17.3529682"><ele>5.4</ele><time>2026-05-02T15:03:26.494Z</time></trkpt><trkpt lat="40.8996047" lon="17.3529752"><ele>5.8</ele><time>2026-05-02T15:03:28.494Z</time></trkpt><trkpt lat="40.8997349" lon="17.3529827"><ele>6.199999999999999</ele><time>2026-05-02T15:03:30.493Z</time></trkpt><trkpt lat="40.8998129" lon="17.3529888"><ele>6.6</ele><time>2026-05-02T15:03:31.494Z</time></trkpt><trkpt lat="40.8998966" lon="17.3530004"><ele>7.0</ele><time>2026-05-02T15:03:32.494Z</time></trkpt><trkpt lat="40.899987" lon="17.3530092"><ele>7.0</ele><time>2026-05-02T15:03:33.494Z</time></trkpt><trkpt lat="40.900088" lon="17.3530247"><ele>6.999999999999999</ele><time>2026-05-02T15:03:34.494Z</time></trkpt><trkpt lat="40.9001931" lon="17.3530312"><ele>6.999999999999999</ele><time>2026-05-02T15:03:35.494Z</time></trkpt><trkpt lat="40.9003019" lon="17.3530353"><ele>7.0</ele><time>2026-05-02T15:03:36.494Z</time></trkpt><trkpt lat="40.9004186" lon="17.3530354"><ele>7.0</ele><time>2026-05-02T15:03:37.495Z</time></trkpt><trkpt lat="40.9005326" lon="17.3530366"><ele>7.0</ele><time>2026-05-02T15:03:38.494Z</time></trkpt><trkpt lat="40.9006409" lon="17.3530416"><ele>6.999999999999999</ele><time>2026-05-02T15:03:39.494Z</time></trkpt><trkpt lat="40.9007581" lon="17.3530383"><ele>6.999999999999999</ele><time>2026-05-02T15:03:40.494Z</time></trkpt><trkpt lat="40.9008616" lon="17.3530193"><ele>7.0</ele><time>2026-05-02T15:03:41.494Z</time></trkpt><trkpt lat="40.9009633" lon="17.3529974"><ele>7.0</ele><time>2026-05-02T15:03:42.494Z</time></trkpt><trkpt lat="40.9010653" lon="17.3529722"><ele>6.75</ele><time>2026-05-02T15:03:43.494Z</time></trkpt><trkpt lat="40.9011686" lon="17.3529314"><ele>6.5</ele><time>2026-05-02T15:03:44.494Z</time></trkpt><trkpt lat="40.9012712" lon="17.3528718"><ele>6.25</ele><time>2026-05-02T15:03:45.494Z</time></trkpt><trkpt lat="40.9013739" lon="17.3527955"><ele>6.0</ele><time>2026-05-02T15:03:46.494Z</time></trkpt><trkpt lat="40.9014804" lon="17.3527018"><ele>6.0</ele><time>2026-05-02T15:03:47.494Z</time></trkpt><trkpt lat="40.9015795" lon="17.3525995"><ele>6.0</ele><time>2026-05-02T15:03:48.494Z</time></trkpt><trkpt lat="40.9016871" lon="17.3524762"><ele>6.0</ele><time>2026-05-02T15:03:49.494Z</time></trkpt><trkpt lat="40.9017911" lon="17.352356"><ele>6.0</ele><time>2026-05-02T15:03:50.495Z</time></trkpt><trkpt lat="40.9018951" lon="17.352237"><ele>5.5</ele><time>2026-05-02T15:03:51.495Z</time></trkpt><trkpt lat="40.9020027" lon="17.3521135"><ele>5.0</ele><time>2026-05-02T15:03:52.494Z</time></trkpt><trkpt lat="40.9021131" lon="17.3519907"><ele>4.5</ele><time>2026-05-02T15:03:53.495Z</time></trkpt><trkpt lat="40.902223" lon="17.3518658"><ele>4.0</ele><time>2026-05-02T15:03:54.494Z</time></trkpt><trkpt lat="40.9023352" lon="17.3517436"><ele>4.0</ele><time>2026-05-02T15:03:55.494Z</time></trkpt><trkpt lat="40.9024476" lon="17.3516254"><ele>4.0</ele><time>2026-05-02T15:03:56.493Z</time></trkpt><trkpt lat="40.9025598" lon="17.3515082"><ele>4.0</ele><time>2026-05-02T15:03:57.494Z</time></trkpt><trkpt lat="40.9026714" lon="17.3513932"><ele>4.0</ele><time>2026-05-02T15:03:58.493Z</time></trkpt><trkpt lat="40.9027732" lon="17.3512813"><ele>4.25</ele><time>2026-05-02T15:03:59.494Z</time></trkpt><trkpt lat="40.9028773" lon="17.3511732"><ele>4.5</ele><time>2026-05-02T15:04:00.494Z</time></trkpt><trkpt lat="40.9029779" lon="17.3510676"><ele>4.75</ele><time>2026-05-02T15:04:01.493Z</time></trkpt><trkpt lat="40.9030759" lon="17.3509592"><ele>5.0</ele><time>2026-05-02T15:04:02.494Z</time></trkpt><trkpt lat="40.903173" lon="17.3508472"><ele>5.0</ele><time>2026-05-02T15:04:03.493Z</time></trkpt><trkpt lat="40.903272" lon="17.3507343"><ele>5.0</ele><time>2026-05-02T15:04:04.495Z</time></trkpt><trkpt lat="40.9033765" lon="17.3506324"><ele>5.0</ele><time>2026-05-02T15:04:05.494Z</time></trkpt><trkpt lat="40.9034849" lon="17.350521"><ele>5.0</ele><time>2026-05-02T15:04:06.493Z</time></trkpt><trkpt lat="40.9035905" lon="17.3504157"><ele>5.0</ele><time>2026-05-02T15:04:07.493Z</time></trkpt><trkpt lat="40.9036981" lon="17.3503141"><ele>5.0</ele><time>2026-05-02T15:04:08.493Z</time></trkpt><trkpt lat="40.9038001" lon="17.3502257"><ele>5.0</ele><time>2026-05-02T15:04:09.494Z</time></trkpt><trkpt lat="40.9039024" lon="17.3501466"><ele>5.0</ele><time>2026-05-02T15:04:10.495Z</time></trkpt><trkpt lat="40.9039931" lon="17.3500774"><ele>5.0</ele><time>2026-05-02T15:04:11.494Z</time></trkpt><trkpt lat="40.9040784" lon="17.3500164"><ele>5.0</ele><time>2026-05-02T15:04:12.495Z</time></trkpt><trkpt lat="40.9041677" lon="17.3499651"><ele>5.0</ele><time>2026-05-02T15:04:13.495Z</time></trkpt><trkpt lat="40.9042752" lon="17.3499214"><ele>5.0</ele><time>2026-05-02T15:04:15.493Z</time></trkpt><trkpt lat="40.9043388" lon="17.3498828"><ele>5.0</ele><time>2026-05-02T15:04:17.493Z</time></trkpt><trkpt lat="40.9043984" lon="17.349836"><ele>5.0</ele><time>2026-05-02T15:04:21.493Z</time></trkpt><trkpt lat="40.9044163" lon="17.3496808"><ele>5.166666666666667</ele><time>2026-05-02T15:04:24.494Z</time></trkpt><trkpt lat="40.9043937" lon="17.3495814"><ele>5.333333333333334</ele><time>2026-05-02T15:04:25.495Z</time></trkpt><trkpt lat="40.904366" lon="17.3494817"><ele>5.5</ele><time>2026-05-02T15:04:26.494Z</time></trkpt><trkpt lat="40.9043342" lon="17.3493966"><ele>5.666666666666667</ele><time>2026-05-02T15:04:27.495Z</time></trkpt><trkpt lat="40.9042985" lon="17.3493014"><ele>5.833333333333333</ele><time>2026-05-02T15:04:28.495Z</time></trkpt><trkpt lat="40.9042567" lon="17.349198"><ele>6.0</ele><time>2026-05-02T15:04:29.495Z</time></trkpt><trkpt lat="40.9042146" lon="17.3490863"><ele>6.25</ele><time>2026-05-02T15:04:30.494Z</time></trkpt><trkpt lat="40.9041683" lon="17.3489646"><ele>6.5</ele><time>2026-05-02T15:04:31.493Z</time></trkpt><trkpt lat="40.9041184" lon="17.3488357"><ele>6.75</ele><time>2026-05-02T15:04:32.493Z</time></trkpt><trkpt lat="40.9040657" lon="17.3486951"><ele>7.0</ele><time>2026-05-02T15:04:33.495Z</time></trkpt><trkpt lat="40.9040126" lon="17.3485492"><ele>7.75</ele><time>2026-05-02T15:04:34.494Z</time></trkpt><trkpt lat="40.9039607" lon="17.348414"><ele>8.5</ele><time>2026-05-02T15:04:35.493Z</time></trkpt><trkpt lat="40.9039095" lon="17.3482766"><ele>9.25</ele><time>2026-05-02T15:04:36.494Z</time></trkpt><trkpt lat="40.9038515" lon="17.3481331"><ele>10.0</ele><time>2026-05-02T15:04:37.494Z</time></trkpt><trkpt lat="40.9037923" lon="17.3479871"><ele>11.0</ele><time>2026-05-02T15:04:38.493Z</time></trkpt><trkpt lat="40.9037357" lon="17.3478365"><ele>12.0</ele><time>2026-05-02T15:04:39.494Z</time></trkpt><trkpt lat="40.9036754" lon="17.3476864"><ele>13.0</ele><time>2026-05-02T15:04:40.493Z</time></trkpt><trkpt lat="40.903617" lon="17.3475333"><ele>14.0</ele><time>2026-05-02T15:04:41.493Z</time></trkpt><trkpt lat="40.9035609" lon="17.3473828"><ele>14.0</ele><time>2026-05-02T15:04:42.493Z</time></trkpt><trkpt lat="40.9035043" lon="17.3472365"><ele>14.0</ele><time>2026-05-02T15:04:43.492Z</time></trkpt><trkpt lat="40.9034466" lon="17.3470864"><ele>14.0</ele><time>2026-05-02T15:04:44.493Z</time></trkpt><trkpt lat="40.9033842" lon="17.3469395"><ele>14.0</ele><time>2026-05-02T15:04:45.493Z</time></trkpt><trkpt lat="40.9033257" lon="17.3467975"><ele>15.5</ele><time>2026-05-02T15:04:46.493Z</time></trkpt><trkpt lat="40.9032787" lon="17.3466563"><ele>17.0</ele><time>2026-05-02T15:04:47.493Z</time></trkpt><trkpt lat="40.9032288" lon="17.3465159"><ele>18.5</ele><time>2026-05-02T15:04:48.494Z</time></trkpt><trkpt lat="40.9031711" lon="17.3463748"><ele>20.0</ele><time>2026-05-02T15:04:49.492Z</time></trkpt><trkpt lat="40.9031165" lon="17.3462317"><ele>21.0</ele><time>2026-05-02T15:04:50.493Z</time></trkpt><trkpt lat="40.9030626" lon="17.3460886"><ele>22.0</ele><time>2026-05-02T15:04:51.493Z</time></trkpt><trkpt lat="40.9030061" lon="17.3459424"><ele>23.0</ele><time>2026-05-02T15:04:52.494Z</time></trkpt><trkpt lat="40.9029491" lon="17.3457939"><ele>24.0</ele><time>2026-05-02T15:04:53.493Z</time></trkpt><trkpt lat="40.9028919" lon="17.3456406"><ele>23.5</ele><time>2026-05-02T15:04:54.494Z</time></trkpt><trkpt lat="40.9028274" lon="17.345487"><ele>23.0</ele><time>2026-05-02T15:04:55.493Z</time></trkpt><trkpt lat="40.9027599" lon="17.3453297"><ele>22.5</ele><time>2026-05-02T15:04:56.494Z</time></trkpt><trkpt lat="40.9026911" lon="17.3451668"><ele>22.0</ele><time>2026-05-02T15:04:57.493Z</time></trkpt><trkpt lat="40.9026212" lon="17.3450091"><ele>22.5</ele><time>2026-05-02T15:04:58.493Z</time></trkpt><trkpt lat="40.9025532" lon="17.3448564"><ele>23.0</ele><time>2026-05-02T15:04:59.492Z</time></trkpt><trkpt lat="40.902485" lon="17.3446973"><ele>23.5</ele><time>2026-05-02T15:05:00.493Z</time></trkpt><trkpt lat="40.902406" lon="17.3445434"><ele>24.0</ele><time>2026-05-02T15:05:01.494Z</time></trkpt><trkpt lat="40.9023321" lon="17.3443865"><ele>24.0</ele><time>2026-05-02T15:05:02.493Z</time></trkpt><trkpt lat="40.9022485" lon="17.3442283"><ele>24.0</ele><time>2026-05-02T15:05:03.492Z</time></trkpt><trkpt lat="40.9021598" lon="17.3440767"><ele>24.0</ele><time>2026-05-02T15:05:04.493Z</time></trkpt><trkpt lat="40.902073" lon="17.3439267"><ele>24.0</ele><time>2026-05-02T15:05:05.493Z</time></trkpt><trkpt lat="40.9019856" lon="17.3437748"><ele>24.25</ele><time>2026-05-02T15:05:06.494Z</time></trkpt><trkpt lat="40.901898" lon="17.3436234"><ele>24.5</ele><time>2026-05-02T15:05:07.493Z</time></trkpt><trkpt lat="40.9018108" lon="17.3434745"><ele>24.75</ele><time>2026-05-02T15:05:08.493Z</time></trkpt><trkpt lat="40.9017244" lon="17.3433212"><ele>25.0</ele><time>2026-05-02T15:05:09.493Z</time></trkpt><trkpt lat="40.9016398" lon="17.343166"><ele>26.25</ele><time>2026-05-02T15:05:10.493Z</time></trkpt><trkpt lat="40.9015529" lon="17.3430104"><ele>27.5</ele><time>2026-05-02T15:05:11.493Z</time></trkpt><trkpt lat="40.9014661" lon="17.34286"><ele>28.75</ele><time>2026-05-02T15:05:12.493Z</time></trkpt><trkpt lat="40.9013743" lon="17.3427084"><ele>30.0</ele><time>2026-05-02T15:05:13.494Z</time></trkpt><trkpt lat="40.9012807" lon="17.3425548"><ele>30.0</ele><time>2026-05-02T15:05:14.492Z</time></trkpt><trkpt lat="40.9011882" lon="17.342406"><ele>30.0</ele><time>2026-05-02T15:05:15.493Z</time></trkpt><trkpt lat="40.9010967" lon="17.3422486"><ele>30.0</ele><time>2026-05-02T15:05:16.494Z</time></trkpt><trkpt lat="40.9010031" lon="17.3420884"><ele>30.0</ele><time>2026-05-02T15:05:17.493Z</time></trkpt><trkpt lat="40.9009084" lon="17.3419268"><ele>31.0</ele><time>2026-05-02T15:05:18.493Z</time></trkpt><trkpt lat="40.9008137" lon="17.3417627"><ele>32.0</ele><time>2026-05-02T15:05:19.492Z</time></trkpt><trkpt lat="40.9007223" lon="17.341593"><ele>33.0</ele><time>2026-05-02T15:05:20.493Z</time></trkpt><trkpt lat="40.9006255" lon="17.3414278"><ele>33.666666666666664</ele><time>2026-05-02T15:05:21.493Z</time></trkpt><trkpt lat="40.9005329" lon="17.3412632"><ele>34.33333333333333</ele><time>2026-05-02T15:05:22.493Z</time></trkpt><trkpt lat="40.9004365" lon="17.3410947"><ele>35.0</ele><time>2026-05-02T15:05:23.493Z</time></trkpt><trkpt lat="40.9003421" lon="17.3409225"><ele>35.0</ele><time>2026-05-02T15:05:24.494Z</time></trkpt><trkpt lat="40.9002376" lon="17.3407497"><ele>35.0</ele><time>2026-05-02T15:05:25.493Z</time></trkpt><trkpt lat="40.9001378" lon="17.3405814"><ele>35.0</ele><time>2026-05-02T15:05:26.493Z</time></trkpt><trkpt lat="40.9000404" lon="17.3404141"><ele>34.666666666666664</ele><time>2026-05-02T15:05:27.493Z</time></trkpt><trkpt lat="40.8999413" lon="17.340247"><ele>34.333333333333336</ele><time>2026-05-02T15:05:28.492Z</time></trkpt><trkpt lat="40.8998409" lon="17.3400801"><ele>34.0</ele><time>2026-05-02T15:05:29.492Z</time></trkpt><trkpt lat="40.8997436" lon="17.3399086"><ele>34.0</ele><time>2026-05-02T15:05:30.493Z</time></trkpt><trkpt lat="40.8996452" lon="17.3397375"><ele>34.0</ele><time>2026-05-02T15:05:31.493Z</time></trkpt><trkpt lat="40.8995457" lon="17.3395687"><ele>34.0</ele><time>2026-05-02T15:05:32.493Z</time></trkpt><trkpt lat="40.8994472" lon="17.339401"><ele>34.0</ele><time>2026-05-02T15:05:33.493Z</time></trkpt><trkpt lat="40.8993521" lon="17.3392331"><ele>34.0</ele><time>2026-05-02T15:05:34.493Z</time></trkpt><trkpt lat="40.8992542" lon="17.3390678"><ele>34.0</ele><time>2026-05-02T15:05:35.492Z</time></trkpt><trkpt lat="40.8991566" lon="17.3388975"><ele>34.333333333333336</ele><time>2026-05-02T15:05:36.493Z</time></trkpt><trkpt lat="40.8990576" lon="17.3387275"><ele>34.666666666666664</ele><time>2026-05-02T15:05:37.493Z</time></trkpt><trkpt lat="40.8989622" lon="17.3385548"><ele>35.0</ele><time>2026-05-02T15:05:38.492Z</time></trkpt><trkpt lat="40.8988632" lon="17.3383913"><ele>35.0</ele><time>2026-05-02T15:05:39.493Z</time></trkpt><trkpt lat="40.8987711" lon="17.3382284"><ele>35.0</ele><time>2026-05-02T15:05:40.494Z</time></trkpt><trkpt lat="40.8986793" lon="17.3380662"><ele>35.0</ele><time>2026-05-02T15:05:41.492Z</time></trkpt><trkpt lat="40.8985886" lon="17.337909"><ele>34.75</ele><time>2026-05-02T15:05:42.494Z</time></trkpt><trkpt lat="40.8985002" lon="17.337754"><ele>34.5</ele><time>2026-05-02T15:05:43.492Z</time></trkpt><trkpt lat="40.8984132" lon="17.3375971"><ele>34.25</ele><time>2026-05-02T15:05:44.493Z</time></trkpt><trkpt lat="40.8983241" lon="17.3374424"><ele>34.0</ele><time>2026-05-02T15:05:45.493Z</time></trkpt><trkpt lat="40.8982384" lon="17.3372954"><ele>34.75</ele><time>2026-05-02T15:05:46.494Z</time></trkpt><trkpt lat="40.8981562" lon="17.3371494"><ele>35.5</ele><time>2026-05-02T15:05:47.493Z</time></trkpt><trkpt lat="40.8980749" lon="17.3370085"><ele>36.25</ele><time>2026-05-02T15:05:48.493Z</time></trkpt><trkpt lat="40.897997" lon="17.3368758"><ele>37.0</ele><time>2026-05-02T15:05:49.493Z</time></trkpt><trkpt lat="40.8979205" lon="17.3367435"><ele>37.0</ele><time>2026-05-02T15:05:50.492Z</time></trkpt><trkpt lat="40.8978403" lon="17.3366075"><ele>37.0</ele><time>2026-05-02T15:05:51.492Z</time></trkpt><trkpt lat="40.8977589" lon="17.3364707"><ele>37.0</ele><time>2026-05-02T15:05:52.493Z</time></trkpt><trkpt lat="40.8976778" lon="17.3363326"><ele>37.0</ele><time>2026-05-02T15:05:53.493Z</time></trkpt><trkpt lat="40.8975965" lon="17.3361927"><ele>37.5</ele><time>2026-05-02T15:05:54.493Z</time></trkpt><trkpt lat="40.8975163" lon="17.3360535"><ele>38.0</ele><time>2026-05-02T15:05:55.494Z</time></trkpt><trkpt lat="40.8974321" lon="17.335913"><ele>38.5</ele><time>2026-05-02T15:05:56.492Z</time></trkpt><trkpt lat="40.8973448" lon="17.3357682"><ele>39.0</ele><time>2026-05-02T15:05:57.492Z</time></trkpt><trkpt lat="40.8972514" lon="17.3356166"><ele>39.666666666666664</ele><time>2026-05-02T15:05:58.493Z</time></trkpt><trkpt lat="40.8971633" lon="17.3354595"><ele>40.33333333333333</ele><time>2026-05-02T15:05:59.493Z</time></trkpt><trkpt lat="40.8970718" lon="17.3353006"><ele>41.0</ele><time>2026-05-02T15:06:00.493Z</time></trkpt><trkpt lat="40.8969755" lon="17.3351405"><ele>41.0</ele><time>2026-05-02T15:06:01.492Z</time></trkpt><trkpt lat="40.8968798" lon="17.3349756"><ele>41.0</ele><time>2026-05-02T15:06:02.493Z</time></trkpt><trkpt lat="40.8967854" lon="17.3348131"><ele>41.0</ele><time>2026-05-02T15:06:03.493Z</time></trkpt><trkpt lat="40.8966929" lon="17.3346475"><ele>41.25</ele><time>2026-05-02T15:06:04.492Z</time></trkpt><trkpt lat="40.896598" lon="17.3344839"><ele>41.5</ele><time>2026-05-02T15:06:05.492Z</time></trkpt><trkpt lat="40.8965046" lon="17.3343277"><ele>41.75</ele><time>2026-05-02T15:06:06.492Z</time></trkpt><trkpt lat="40.8964156" lon="17.3341807"><ele>42.0</ele><time>2026-05-02T15:06:07.492Z</time></trkpt><trkpt lat="40.8963325" lon="17.3340329"><ele>42.0</ele><time>2026-05-02T15:06:08.492Z</time></trkpt><trkpt lat="40.8962506" lon="17.3338921"><ele>42.0</ele><time>2026-05-02T15:06:09.493Z</time></trkpt><trkpt lat="40.8961754" lon="17.3337526"><ele>42.0</ele><time>2026-05-02T15:06:10.492Z</time></trkpt><trkpt lat="40.8960957" lon="17.333616"><ele>42.0</ele><time>2026-05-02T15:06:11.492Z</time></trkpt><trkpt lat="40.8960239" lon="17.3334861"><ele>42.25</ele><time>2026-05-02T15:06:12.493Z</time></trkpt><trkpt lat="40.8959522" lon="17.3333614"><ele>42.5</ele><time>2026-05-02T15:06:13.493Z</time></trkpt><trkpt lat="40.8958852" lon="17.3332412"><ele>42.75</ele><time>2026-05-02T15:06:14.494Z</time></trkpt><trkpt lat="40.8958167" lon="17.33312"><ele>43.0</ele><time>2026-05-02T15:06:15.493Z</time></trkpt><trkpt lat="40.8957497" lon="17.3330055"><ele>43.4</ele><time>2026-05-02T15:06:16.493Z</time></trkpt><trkpt lat="40.895684" lon="17.3328957"><ele>43.8</ele><time>2026-05-02T15:06:17.494Z</time></trkpt><trkpt lat="40.8956237" lon="17.3327943"><ele>44.2</ele><time>2026-05-02T15:06:18.493Z</time></trkpt><trkpt lat="40.8955715" lon="17.3326955"><ele>44.6</ele><time>2026-05-02T15:06:19.494Z</time></trkpt><trkpt lat="40.8955184" lon="17.3326068"><ele>45.0</ele><time>2026-05-02T15:06:20.494Z</time></trkpt><trkpt lat="40.8954711" lon="17.3325189"><ele>45.0</ele><time>2026-05-02T15:06:21.492Z</time></trkpt><trkpt lat="40.8954201" lon="17.332423"><ele>45.0</ele><time>2026-05-02T15:06:22.494Z</time></trkpt><trkpt lat="40.8953681" lon="17.3323246"><ele>45.0</ele><time>2026-05-02T15:06:23.493Z</time></trkpt><trkpt lat="40.8953083" lon="17.3322203"><ele>45.0</ele><time>2026-05-02T15:06:24.492Z</time></trkpt><trkpt lat="40.8952488" lon="17.3321179"><ele>45.0</ele><time>2026-05-02T15:06:25.493Z</time></trkpt><trkpt lat="40.8951818" lon="17.3320085"><ele>45.25</ele><time>2026-05-02T15:06:26.493Z</time></trkpt><trkpt lat="40.8951134" lon="17.3318928"><ele>45.5</ele><time>2026-05-02T15:06:27.493Z</time></trkpt><trkpt lat="40.8950363" lon="17.3317779"><ele>45.75</ele><time>2026-05-02T15:06:28.493Z</time></trkpt><trkpt lat="40.894948" lon="17.3316688"><ele>46.0</ele><time>2026-05-02T15:06:29.494Z</time></trkpt><trkpt lat="40.8948549" lon="17.3315605"><ele>46.5</ele><time>2026-05-02T15:06:30.493Z</time></trkpt><trkpt lat="40.8947526" lon="17.3314493"><ele>47.0</ele><time>2026-05-02T15:06:31.492Z</time></trkpt><trkpt lat="40.894648" lon="17.3313365"><ele>47.5</ele><time>2026-05-02T15:06:32.493Z</time></trkpt><trkpt lat="40.8945387" lon="17.3312233"><ele>48.0</ele><time>2026-05-02T15:06:33.493Z</time></trkpt><trkpt lat="40.8944248" lon="17.33111"><ele>48.0</ele><time>2026-05-02T15:06:34.493Z</time></trkpt><trkpt lat="40.8943077" lon="17.3309972"><ele>48.0</ele><time>2026-05-02T15:06:35.492Z</time></trkpt><trkpt lat="40.8941889" lon="17.3308796"><ele>48.0</ele><time>2026-05-02T15:06:36.493Z</time></trkpt><trkpt lat="40.8940648" lon="17.3307637"><ele>48.0</ele><time>2026-05-02T15:06:37.493Z</time></trkpt><trkpt lat="40.8939425" lon="17.3306496"><ele>49.25</ele><time>2026-05-02T15:06:38.493Z</time></trkpt><trkpt lat="40.8938253" lon="17.3305384"><ele>50.5</ele><time>2026-05-02T15:06:39.492Z</time></trkpt><trkpt lat="40.8937065" lon="17.3304319"><ele>51.75</ele><time>2026-05-02T15:06:40.493Z</time></trkpt><trkpt lat="40.8935808" lon="17.330341"><ele>53.0</ele><time>2026-05-02T15:06:41.494Z</time></trkpt><trkpt lat="40.893449" lon="17.3302573"><ele>54.333333333333336</ele><time>2026-05-02T15:06:42.493Z</time></trkpt><trkpt lat="40.8933071" lon="17.3301725"><ele>55.66666666666667</ele><time>2026-05-02T15:06:43.492Z</time></trkpt><trkpt lat="40.8931655" lon="17.3300955"><ele>57.0</ele><time>2026-05-02T15:06:44.493Z</time></trkpt><trkpt lat="40.8930219" lon="17.330026"><ele>57.0</ele><time>2026-05-02T15:06:45.493Z</time></trkpt><trkpt lat="40.8928845" lon="17.3299617"><ele>57.0</ele><time>2026-05-02T15:06:46.493Z</time></trkpt><trkpt lat="40.8927536" lon="17.3298985"><ele>57.0</ele><time>2026-05-02T15:06:47.492Z</time></trkpt><trkpt lat="40.8926265" lon="17.3298398"><ele>57.0</ele><time>2026-05-02T15:06:48.492Z</time></trkpt><trkpt lat="40.8925058" lon="17.3297698"><ele>58.25</ele><time>2026-05-02T15:06:49.492Z</time></trkpt><trkpt lat="40.892392" lon="17.3296883"><ele>59.5</ele><time>2026-05-02T15:06:50.492Z</time></trkpt><trkpt lat="40.8922784" lon="17.329599"><ele>60.75</ele><time>2026-05-02T15:06:51.493Z</time></trkpt><trkpt lat="40.8921695" lon="17.3295036"><ele>62.0</ele><time>2026-05-02T15:06:52.493Z</time></trkpt><trkpt lat="40.8920616" lon="17.3294003"><ele>62.0</ele><time>2026-05-02T15:06:53.493Z</time></trkpt><trkpt lat="40.8919575" lon="17.329295"><ele>62.0</ele><time>2026-05-02T15:06:54.493Z</time></trkpt><trkpt lat="40.8918556" lon="17.3291811"><ele>62.0</ele><time>2026-05-02T15:06:55.493Z</time></trkpt><trkpt lat="40.891759" lon="17.3290545"><ele>62.0</ele><time>2026-05-02T15:06:56.493Z</time></trkpt><trkpt lat="40.8916654" lon="17.3289179"><ele>63.75</ele><time>2026-05-02T15:06:57.494Z</time></trkpt><trkpt lat="40.8915781" lon="17.328771"><ele>65.5</ele><time>2026-05-02T15:06:58.493Z</time></trkpt><trkpt lat="40.8914988" lon="17.3286094"><ele>67.25</ele><time>2026-05-02T15:06:59.493Z</time></trkpt><trkpt lat="40.891421" lon="17.3284477"><ele>69.0</ele><time>2026-05-02T15:07:00.493Z</time></trkpt><trkpt lat="40.8913406" lon="17.3282768"><ele>69.0</ele><time>2026-05-02T15:07:01.493Z</time></trkpt><trkpt lat="40.8912662" lon="17.3280984"><ele>69.0</ele><time>2026-05-02T15:07:02.493Z</time></trkpt><trkpt lat="40.8911814" lon="17.3279173"><ele>69.0</ele><time>2026-05-02T15:07:03.493Z</time></trkpt><trkpt lat="40.8910973" lon="17.3277276"><ele>69.33333333333333</ele><time>2026-05-02T15:07:04.493Z</time></trkpt><trkpt lat="40.8910118" lon="17.3275426"><ele>69.66666666666666</ele><time>2026-05-02T15:07:05.493Z</time></trkpt><trkpt lat="40.8909242" lon="17.3273525"><ele>70.0</ele><time>2026-05-02T15:07:06.492Z</time></trkpt><trkpt lat="40.8908315" lon="17.327155"><ele>70.33333333333333</ele><time>2026-05-02T15:07:07.492Z</time></trkpt><trkpt lat="40.890737" lon="17.326949"><ele>70.66666666666667</ele><time>2026-05-02T15:07:08.493Z</time></trkpt><trkpt lat="40.8906392" lon="17.3267443"><ele>71.0</ele><time>2026-05-02T15:07:09.493Z</time></trkpt><trkpt lat="40.8905382" lon="17.3265404"><ele>71.0</ele><time>2026-05-02T15:07:10.493Z</time></trkpt><trkpt lat="40.890434" lon="17.3263382"><ele>71.0</ele><time>2026-05-02T15:07:11.493Z</time></trkpt><trkpt lat="40.8903305" lon="17.3261347"><ele>71.0</ele><time>2026-05-02T15:07:12.493Z</time></trkpt><trkpt lat="40.8902288" lon="17.3259263"><ele>71.0</ele><time>2026-05-02T15:07:13.493Z</time></trkpt><trkpt lat="40.8901325" lon="17.3257218"><ele>71.0</ele><time>2026-05-02T15:07:14.492Z</time></trkpt><trkpt lat="40.8900304" lon="17.3255176"><ele>71.0</ele><time>2026-05-02T15:07:15.492Z</time></trkpt><trkpt lat="40.8899178" lon="17.3252955"><ele>71.0</ele><time>2026-05-02T15:07:16.492Z</time></trkpt><trkpt lat="40.8898089" lon="17.3250788"><ele>71.0</ele><time>2026-05-02T15:07:17.493Z</time></trkpt><trkpt lat="40.889702" lon="17.3248644"><ele>71.0</ele><time>2026-05-02T15:07:18.494Z</time></trkpt><trkpt lat="40.8895965" lon="17.3246619"><ele>70.66666666666667</ele><time>2026-05-02T15:07:19.492Z</time></trkpt><trkpt lat="40.889492" lon="17.324459"><ele>70.33333333333333</ele><time>2026-05-02T15:07:20.493Z</time></trkpt><trkpt lat="40.8893922" lon="17.3242515"><ele>70.0</ele><time>2026-05-02T15:07:21.493Z</time></trkpt><trkpt lat="40.8892911" lon="17.3240469"><ele>71.0</ele><time>2026-05-02T15:07:22.492Z</time></trkpt><trkpt lat="40.8891911" lon="17.323844"><ele>72.0</ele><time>2026-05-02T15:07:23.493Z</time></trkpt><trkpt lat="40.8890903" lon="17.3236431"><ele>73.0</ele><time>2026-05-02T15:07:24.493Z</time></trkpt><trkpt lat="40.8889911" lon="17.3234446"><ele>73.0</ele><time>2026-05-02T15:07:25.493Z</time></trkpt><trkpt lat="40.8888983" lon="17.3232579"><ele>73.0</ele><time>2026-05-02T15:07:26.494Z</time></trkpt><trkpt lat="40.8887979" lon="17.3230726"><ele>73.0</ele><time>2026-05-02T15:07:27.493Z</time></trkpt><trkpt lat="40.8886924" lon="17.322897"><ele>73.0</ele><time>2026-05-02T15:07:28.494Z</time></trkpt><trkpt lat="40.8885792" lon="17.3227312"><ele>73.0</ele><time>2026-05-02T15:07:29.493Z</time></trkpt><trkpt lat="40.888458" lon="17.3225876"><ele>73.0</ele><time>2026-05-02T15:07:30.493Z</time></trkpt><trkpt lat="40.8883208" lon="17.3224549"><ele>73.33333333333333</ele><time>2026-05-02T15:07:31.493Z</time></trkpt><trkpt lat="40.8881914" lon="17.3223311"><ele>73.66666666666667</ele><time>2026-05-02T15:07:32.493Z</time></trkpt><trkpt lat="40.8880432" lon="17.3222254"><ele>74.0</ele><time>2026-05-02T15:07:33.493Z</time></trkpt><trkpt lat="40.8879044" lon="17.3221115"><ele>74.0</ele><time>2026-05-02T15:07:34.493Z</time></trkpt><trkpt lat="40.8877674" lon="17.3219857"><ele>74.0</ele><time>2026-05-02T15:07:35.493Z</time></trkpt><trkpt lat="40.8876636" lon="17.3218294"><ele>74.0</ele><time>2026-05-02T15:07:36.492Z</time></trkpt><trkpt lat="40.8875433" lon="17.3216812"><ele>74.0</ele><time>2026-05-02T15:07:37.492Z</time></trkpt><trkpt lat="40.8874365" lon="17.3215159"><ele>74.0</ele><time>2026-05-02T15:07:38.493Z</time></trkpt><trkpt lat="40.8873312" lon="17.3213418"><ele>74.0</ele><time>2026-05-02T15:07:39.494Z</time></trkpt><trkpt lat="40.8872343" lon="17.3211652"><ele>74.0</ele><time>2026-05-02T15:07:40.492Z</time></trkpt><trkpt lat="40.8871318" lon="17.3209931"><ele>74.0</ele><time>2026-05-02T15:07:41.493Z</time></trkpt><trkpt lat="40.8870306" lon="17.3208217"><ele>74.0</ele><time>2026-05-02T15:07:42.493Z</time></trkpt><trkpt lat="40.8869293" lon="17.3206553"><ele>74.0</ele><time>2026-05-02T15:07:43.494Z</time></trkpt><trkpt lat="40.8868286" lon="17.3204946"><ele>74.0</ele><time>2026-05-02T15:07:44.493Z</time></trkpt><trkpt lat="40.8867249" lon="17.3203369"><ele>74.0</ele><time>2026-05-02T15:07:45.493Z</time></trkpt><trkpt lat="40.8866223" lon="17.3201802"><ele>74.0</ele><time>2026-05-02T15:07:46.493Z</time></trkpt><trkpt lat="40.886517" lon="17.320027"><ele>74.0</ele><time>2026-05-02T15:07:47.493Z</time></trkpt><trkpt lat="40.8864194" lon="17.3198652"><ele>74.0</ele><time>2026-05-02T15:07:48.492Z</time></trkpt><trkpt lat="40.8863296" lon="17.3196959"><ele>74.0</ele><time>2026-05-02T15:07:49.493Z</time></trkpt><trkpt lat="40.8862558" lon="17.3195095"><ele>74.0</ele><time>2026-05-02T15:07:50.492Z</time></trkpt><trkpt lat="40.8862043" lon="17.3193171"><ele>74.0</ele><time>2026-05-02T15:07:51.492Z</time></trkpt><trkpt lat="40.8861697" lon="17.3191074"><ele>74.0</ele><time>2026-05-02T15:07:52.493Z</time></trkpt><trkpt lat="40.8861411" lon="17.3188888"><ele>74.0</ele><time>2026-05-02T15:07:53.492Z</time></trkpt><trkpt lat="40.8861228" lon="17.3186627"><ele>74.0</ele><time>2026-05-02T15:07:54.492Z</time></trkpt><trkpt lat="40.886106" lon="17.3184262"><ele>74.0</ele><time>2026-05-02T15:07:55.492Z</time></trkpt><trkpt lat="40.886089" lon="17.3181978"><ele>74.0</ele><time>2026-05-02T15:07:56.491Z</time></trkpt><trkpt lat="40.8860713" lon="17.3179652"><ele>74.0</ele><time>2026-05-02T15:07:57.492Z</time></trkpt><trkpt lat="40.8860547" lon="17.3177316"><ele>74.0</ele><time>2026-05-02T15:07:58.492Z</time></trkpt><trkpt lat="40.8860403" lon="17.3175046"><ele>74.0</ele><time>2026-05-02T15:07:59.493Z</time></trkpt><trkpt lat="40.8860225" lon="17.3172783"><ele>74.0</ele><time>2026-05-02T15:08:00.492Z</time></trkpt><trkpt lat="40.886009" lon="17.3170511"><ele>74.66666666666667</ele><time>2026-05-02T15:08:01.492Z</time></trkpt><trkpt lat="40.8859925" lon="17.3168281"><ele>75.33333333333333</ele><time>2026-05-02T15:08:02.492Z</time></trkpt><trkpt lat="40.8859651" lon="17.3166137"><ele>76.0</ele><time>2026-05-02T15:08:03.492Z</time></trkpt><trkpt lat="40.8859276" lon="17.3164021"><ele>76.33333333333333</ele><time>2026-05-02T15:08:04.492Z</time></trkpt><trkpt lat="40.8858855" lon="17.3161895"><ele>76.66666666666667</ele><time>2026-05-02T15:08:05.492Z</time></trkpt><trkpt lat="40.8858319" lon="17.3159852"><ele>77.0</ele><time>2026-05-02T15:08:06.493Z</time></trkpt><trkpt lat="40.8857718" lon="17.3157848"><ele>77.0</ele><time>2026-05-02T15:08:07.492Z</time></trkpt><trkpt lat="40.8857001" lon="17.3155943"><ele>77.0</ele><time>2026-05-02T15:08:08.492Z</time></trkpt><trkpt lat="40.8856189" lon="17.3154127"><ele>77.0</ele><time>2026-05-02T15:08:09.491Z</time></trkpt><trkpt lat="40.8855261" lon="17.3152468"><ele>76.66666666666667</ele><time>2026-05-02T15:08:10.492Z</time></trkpt><trkpt lat="40.8854316" lon="17.31509"><ele>76.33333333333333</ele><time>2026-05-02T15:08:11.491Z</time></trkpt><trkpt lat="40.8853362" lon="17.3149344"><ele>76.0</ele><time>2026-05-02T15:08:12.492Z</time></trkpt><trkpt lat="40.885241" lon="17.3147855"><ele>76.5</ele><time>2026-05-02T15:08:13.491Z</time></trkpt><trkpt lat="40.8851367" lon="17.3146377"><ele>77.0</ele><time>2026-05-02T15:08:14.491Z</time></trkpt><trkpt lat="40.8850341" lon="17.3144976"><ele>77.5</ele><time>2026-05-02T15:08:15.491Z</time></trkpt><trkpt lat="40.8849425" lon="17.3143566"><ele>78.0</ele><time>2026-05-02T15:08:16.492Z</time></trkpt><trkpt lat="40.8848539" lon="17.3142341"><ele>78.25</ele><time>2026-05-02T15:08:17.492Z</time></trkpt><trkpt lat="40.8847601" lon="17.3141103"><ele>78.5</ele><time>2026-05-02T15:08:18.492Z</time></trkpt><trkpt lat="40.884668" lon="17.313984"><ele>78.75</ele><time>2026-05-02T15:08:19.492Z</time></trkpt><trkpt lat="40.8845762" lon="17.3138599"><ele>79.0</ele><time>2026-05-02T15:08:20.492Z</time></trkpt><trkpt lat="40.8844867" lon="17.3137294"><ele>79.5</ele><time>2026-05-02T15:08:21.492Z</time></trkpt><trkpt lat="40.8843972" lon="17.3135966"><ele>80.0</ele><time>2026-05-02T15:08:22.492Z</time></trkpt><trkpt lat="40.8843002" lon="17.3134624"><ele>80.5</ele><time>2026-05-02T15:08:23.491Z</time></trkpt><trkpt lat="40.884206" lon="17.3133221"><ele>81.0</ele><time>2026-05-02T15:08:24.492Z</time></trkpt><trkpt lat="40.8841086" lon="17.3131857"><ele>81.75</ele><time>2026-05-02T15:08:25.493Z</time></trkpt><trkpt lat="40.884015" lon="17.3130501"><ele>82.5</ele><time>2026-05-02T15:08:26.492Z</time></trkpt><trkpt lat="40.8839167" lon="17.3129203"><ele>83.25</ele><time>2026-05-02T15:08:27.492Z</time></trkpt><trkpt lat="40.8838239" lon="17.3127994"><ele>84.0</ele><time>2026-05-02T15:08:28.492Z</time></trkpt><trkpt lat="40.8837373" lon="17.3126813"><ele>84.0</ele><time>2026-05-02T15:08:29.493Z</time></trkpt><trkpt lat="40.8836617" lon="17.3125843"><ele>84.0</ele><time>2026-05-02T15:08:30.492Z</time></trkpt><trkpt lat="40.8835977" lon="17.3124971"><ele>84.0</ele><time>2026-05-02T15:08:31.493Z</time></trkpt><trkpt lat="40.8835381" lon="17.3124159"><ele>84.0</ele><time>2026-05-02T15:08:32.493Z</time></trkpt><trkpt lat="40.8834791" lon="17.3123396"><ele>84.0</ele><time>2026-05-02T15:08:33.491Z</time></trkpt><trkpt lat="40.8834337" lon="17.312278"><ele>84.0</ele><time>2026-05-02T15:08:34.492Z</time></trkpt><trkpt lat="40.8833762" lon="17.3122014"><ele>84.16666666666667</ele><time>2026-05-02T15:08:36.491Z</time></trkpt><trkpt lat="40.8833175" lon="17.3121285"><ele>84.33333333333333</ele><time>2026-05-02T15:08:38.492Z</time></trkpt><trkpt lat="40.8832465" lon="17.3120104"><ele>84.5</ele><time>2026-05-02T15:08:40.491Z</time></trkpt><trkpt lat="40.8832044" lon="17.3119395"><ele>84.66666666666666</ele><time>2026-05-02T15:08:41.493Z</time></trkpt><trkpt lat="40.8831532" lon="17.3118594"><ele>84.83333333333333</ele><time>2026-05-02T15:08:42.492Z</time></trkpt><trkpt lat="40.883091" lon="17.3117828"><ele>85.0</ele><time>2026-05-02T15:08:43.493Z</time></trkpt><trkpt lat="40.8830207" lon="17.3116922"><ele>85.0</ele><time>2026-05-02T15:08:44.492Z</time></trkpt><trkpt lat="40.8829496" lon="17.3115938"><ele>85.0</ele><time>2026-05-02T15:08:45.492Z</time></trkpt><trkpt lat="40.8828696" lon="17.3114897"><ele>85.0</ele><time>2026-05-02T15:08:46.492Z</time></trkpt><trkpt lat="40.8827805" lon="17.3113824"><ele>85.0</ele><time>2026-05-02T15:08:47.492Z</time></trkpt><trkpt lat="40.8826812" lon="17.3112624"><ele>85.75</ele><time>2026-05-02T15:08:48.492Z</time></trkpt><trkpt lat="40.8825841" lon="17.3111519"><ele>86.5</ele><time>2026-05-02T15:08:49.492Z</time></trkpt><trkpt lat="40.8824972" lon="17.3110391"><ele>87.25</ele><time>2026-05-02T15:08:50.493Z</time></trkpt><trkpt lat="40.8824087" lon="17.3109313"><ele>88.0</ele><time>2026-05-02T15:08:51.492Z</time></trkpt><trkpt lat="40.8823296" lon="17.3108245"><ele>88.0</ele><time>2026-05-02T15:08:52.491Z</time></trkpt><trkpt lat="40.8822547" lon="17.3107147"><ele>88.0</ele><time>2026-05-02T15:08:53.493Z</time></trkpt><trkpt lat="40.8821915" lon="17.3106076"><ele>88.0</ele><time>2026-05-02T15:08:54.493Z</time></trkpt><trkpt lat="40.8821428" lon="17.3105073"><ele>88.0</ele><time>2026-05-02T15:08:55.492Z</time></trkpt><trkpt lat="40.8821152" lon="17.3104189"><ele>88.0</ele><time>2026-05-02T15:08:56.492Z</time></trkpt><trkpt lat="40.8820961" lon="17.3102614"><ele>88.16666666666666</ele><time>2026-05-02T15:08:58.492Z</time></trkpt><trkpt lat="40.8820958" lon="17.3101772"><ele>88.33333333333333</ele><time>2026-05-02T15:08:59.492Z</time></trkpt><trkpt lat="40.882081" lon="17.3100901"><ele>88.5</ele><time>2026-05-02T15:09:00.492Z</time></trkpt><trkpt lat="40.8820406" lon="17.3100092"><ele>88.66666666666667</ele><time>2026-05-02T15:09:01.491Z</time></trkpt><trkpt lat="40.8819673" lon="17.3099569"><ele>88.83333333333334</ele><time>2026-05-02T15:09:02.492Z</time></trkpt><trkpt lat="40.8818995" lon="17.3098972"><ele>89.0</ele><time>2026-05-02T15:09:03.492Z</time></trkpt><trkpt lat="40.8818202" lon="17.3098123"><ele>89.5</ele><time>2026-05-02T15:09:04.492Z</time></trkpt><trkpt lat="40.8817665" lon="17.3097001"><ele>90.0</ele><time>2026-05-02T15:09:05.493Z</time></trkpt><trkpt lat="40.881708" lon="17.3095795"><ele>90.5</ele><time>2026-05-02T15:09:06.492Z</time></trkpt><trkpt lat="40.8816331" lon="17.3094508"><ele>91.0</ele><time>2026-05-02T15:09:07.492Z</time></trkpt><trkpt lat="40.8815548" lon="17.3093218"><ele>92.0</ele><time>2026-05-02T15:09:08.492Z</time></trkpt><trkpt lat="40.8814694" lon="17.309186"><ele>93.0</ele><time>2026-05-02T15:09:09.492Z</time></trkpt><trkpt lat="40.8813681" lon="17.3090565"><ele>94.0</ele><time>2026-05-02T15:09:10.491Z</time></trkpt><trkpt lat="40.8812616" lon="17.3089211"><ele>95.0</ele><time>2026-05-02T15:09:11.491Z</time></trkpt><trkpt lat="40.8811592" lon="17.3087996"><ele>95.5</ele><time>2026-05-02T15:09:12.491Z</time></trkpt><trkpt lat="40.8810537" lon="17.3086755"><ele>96.0</ele><time>2026-05-02T15:09:13.492Z</time></trkpt><trkpt lat="40.8809432" lon="17.3085421"><ele>96.5</ele><time>2026-05-02T15:09:14.492Z</time></trkpt><trkpt lat="40.8808367" lon="17.3084012"><ele>97.0</ele><time>2026-05-02T15:09:15.492Z</time></trkpt><trkpt lat="40.8807206" lon="17.3082527"><ele>97.66666666666667</ele><time>2026-05-02T15:09:16.492Z</time></trkpt><trkpt lat="40.8806105" lon="17.3080923"><ele>98.33333333333334</ele><time>2026-05-02T15:09:17.492Z</time></trkpt><trkpt lat="40.8804974" lon="17.307925"><ele>99.0</ele><time>2026-05-02T15:09:18.493Z</time></trkpt><trkpt lat="40.8803877" lon="17.3077499"><ele>100.0</ele><time>2026-05-02T15:09:19.491Z</time></trkpt><trkpt lat="40.8802773" lon="17.3075729"><ele>101.0</ele><time>2026-05-02T15:09:20.493Z</time></trkpt><trkpt lat="40.880175" lon="17.3073872"><ele>102.0</ele><time>2026-05-02T15:09:21.492Z</time></trkpt><trkpt lat="40.8800774" lon="17.3071962"><ele>103.0</ele><time>2026-05-02T15:09:22.492Z</time></trkpt><trkpt lat="40.8799805" lon="17.307001"><ele>104.0</ele><time>2026-05-02T15:09:23.492Z</time></trkpt><trkpt lat="40.8798902" lon="17.3068013"><ele>105.0</ele><time>2026-05-02T15:09:24.491Z</time></trkpt><trkpt lat="40.8797972" lon="17.3065959"><ele>106.33333333333334</ele><time>2026-05-02T15:09:25.492Z</time></trkpt><trkpt lat="40.8797076" lon="17.3063838"><ele>107.66666666666667</ele><time>2026-05-02T15:09:26.492Z</time></trkpt><trkpt lat="40.8796139" lon="17.3061724"><ele>109.0</ele><time>2026-05-02T15:09:27.493Z</time></trkpt><trkpt lat="40.879524" lon="17.3059628"><ele>109.0</ele><time>2026-05-02T15:09:28.493Z</time></trkpt><trkpt lat="40.8794408" lon="17.3057506"><ele>109.0</ele><time>2026-05-02T15:09:29.492Z</time></trkpt><trkpt lat="40.8793558" lon="17.3055377"><ele>109.0</ele><time>2026-05-02T15:09:30.492Z</time></trkpt><trkpt lat="40.8792734" lon="17.3053223"><ele>109.33333333333334</ele><time>2026-05-02T15:09:31.493Z</time></trkpt><trkpt lat="40.8791832" lon="17.3051051"><ele>109.66666666666666</ele><time>2026-05-02T15:09:32.492Z</time></trkpt><trkpt lat="40.8790972" lon="17.3048806"><ele>110.0</ele><time>2026-05-02T15:09:33.492Z</time></trkpt><trkpt lat="40.879014" lon="17.3046558"><ele>110.66666666666666</ele><time>2026-05-02T15:09:34.492Z</time></trkpt><trkpt lat="40.8789283" lon="17.3044267"><ele>111.33333333333334</ele><time>2026-05-02T15:09:35.492Z</time></trkpt><trkpt lat="40.8788449" lon="17.3042027"><ele>112.0</ele><time>2026-05-02T15:09:36.492Z</time></trkpt><trkpt lat="40.8787601" lon="17.3039758"><ele>113.33333333333334</ele><time>2026-05-02T15:09:37.493Z</time></trkpt><trkpt lat="40.8786781" lon="17.3037574"><ele>114.66666666666666</ele><time>2026-05-02T15:09:38.492Z</time></trkpt><trkpt lat="40.8785937" lon="17.303541"><ele>116.0</ele><time>2026-05-02T15:09:39.492Z</time></trkpt><trkpt lat="40.8785096" lon="17.3033166"><ele>116.0</ele><time>2026-05-02T15:09:40.492Z</time></trkpt><trkpt lat="40.878423" lon="17.3031027"><ele>116.0</ele><time>2026-05-02T15:09:41.492Z</time></trkpt><trkpt lat="40.8783404" lon="17.3028862"><ele>116.0</ele><time>2026-05-02T15:09:42.493Z</time></trkpt><trkpt lat="40.8782585" lon="17.3026763"><ele>117.33333333333333</ele><time>2026-05-02T15:09:43.493Z</time></trkpt><trkpt lat="40.8781781" lon="17.3024677"><ele>118.66666666666666</ele><time>2026-05-02T15:09:44.492Z</time></trkpt><trkpt lat="40.878097" lon="17.3022682"><ele>120.0</ele><time>2026-05-02T15:09:45.492Z</time></trkpt><trkpt lat="40.8780181" lon="17.302066"><ele>120.66666666666666</ele><time>2026-05-02T15:09:46.492Z</time></trkpt><trkpt lat="40.8779422" lon="17.3018683"><ele>121.33333333333333</ele><time>2026-05-02T15:09:47.492Z</time></trkpt><trkpt lat="40.8778684" lon="17.301672"><ele>122.0</ele><time>2026-05-02T15:09:48.493Z</time></trkpt><trkpt lat="40.8778177" lon="17.3014719"><ele>122.66666666666666</ele><time>2026-05-02T15:09:49.492Z</time></trkpt><trkpt lat="40.8777885" lon="17.3012659"><ele>123.33333333333334</ele><time>2026-05-02T15:09:50.492Z</time></trkpt><trkpt lat="40.8777839" lon="17.3010566"><ele>124.0</ele><time>2026-05-02T15:09:51.492Z</time></trkpt><trkpt lat="40.8778117" lon="17.30085"><ele>124.0</ele><time>2026-05-02T15:09:52.492Z</time></trkpt><trkpt lat="40.8778665" lon="17.3006546"><ele>124.0</ele><time>2026-05-02T15:09:53.492Z</time></trkpt><trkpt lat="40.8779498" lon="17.3004718"><ele>124.0</ele><time>2026-05-02T15:09:54.492Z</time></trkpt><trkpt lat="40.8780604" lon="17.3003072"><ele>124.0</ele><time>2026-05-02T15:09:55.492Z</time></trkpt><trkpt lat="40.8781922" lon="17.3001618"><ele>124.0</ele><time>2026-05-02T15:09:56.492Z</time></trkpt><trkpt lat="40.878343" lon="17.3000422"><ele>124.0</ele><time>2026-05-02T15:09:57.492Z</time></trkpt><trkpt lat="40.8784994" lon="17.2999276"><ele>124.0</ele><time>2026-05-02T15:09:58.492Z</time></trkpt><trkpt lat="40.8786586" lon="17.2998039"><ele>124.0</ele><time>2026-05-02T15:09:59.491Z</time></trkpt><trkpt lat="40.8788178" lon="17.2996883"><ele>124.0</ele><time>2026-05-02T15:10:00.491Z</time></trkpt><trkpt lat="40.8789804" lon="17.2995771"><ele>124.33333333333334</ele><time>2026-05-02T15:10:01.492Z</time></trkpt><trkpt lat="40.8791389" lon="17.299456"><ele>124.66666666666666</ele><time>2026-05-02T15:10:02.493Z</time></trkpt><trkpt lat="40.8792959" lon="17.2993258"><ele>125.0</ele><time>2026-05-02T15:10:03.491Z</time></trkpt><trkpt lat="40.8794548" lon="17.299186"><ele>125.0</ele><time>2026-05-02T15:10:04.492Z</time></trkpt><trkpt lat="40.8796114" lon="17.2990411"><ele>125.0</ele><time>2026-05-02T15:10:05.492Z</time></trkpt><trkpt lat="40.8797641" lon="17.2988882"><ele>125.0</ele><time>2026-05-02T15:10:06.492Z</time></trkpt><trkpt lat="40.8799093" lon="17.2987278"><ele>125.66666666666666</ele><time>2026-05-02T15:10:07.492Z</time></trkpt><trkpt lat="40.8800543" lon="17.29856"><ele>126.33333333333334</ele><time>2026-05-02T15:10:08.492Z</time></trkpt><trkpt lat="40.8801729" lon="17.2983761"><ele>127.0</ele><time>2026-05-02T15:10:09.493Z</time></trkpt><trkpt lat="40.8802923" lon="17.2981928"><ele>126.0</ele><time>2026-05-02T15:10:10.491Z</time></trkpt><trkpt lat="40.880399" lon="17.2980058"><ele>125.0</ele><time>2026-05-02T15:10:11.491Z</time></trkpt><trkpt lat="40.8804901" lon="17.2978068"><ele>124.0</ele><time>2026-05-02T15:10:12.492Z</time></trkpt><trkpt lat="40.8805747" lon="17.2975987"><ele>124.0</ele><time>2026-05-02T15:10:13.492Z</time></trkpt><trkpt lat="40.8806466" lon="17.2973865"><ele>124.0</ele><time>2026-05-02T15:10:14.491Z</time></trkpt><trkpt lat="40.880713" lon="17.2971551"><ele>124.0</ele><time>2026-05-02T15:10:15.491Z</time></trkpt><trkpt lat="40.8807683" lon="17.296919"><ele>124.33333333333334</ele><time>2026-05-02T15:10:16.491Z</time></trkpt><trkpt lat="40.8808084" lon="17.2966678"><ele>124.66666666666666</ele><time>2026-05-02T15:10:17.492Z</time></trkpt><trkpt lat="40.880836" lon="17.2964086"><ele>125.0</ele><time>2026-05-02T15:10:18.491Z</time></trkpt><trkpt lat="40.880853" lon="17.2961414"><ele>125.33333333333333</ele><time>2026-05-02T15:10:19.491Z</time></trkpt><trkpt lat="40.8808612" lon="17.2958715"><ele>125.66666666666666</ele><time>2026-05-02T15:10:20.491Z</time></trkpt><trkpt lat="40.880866" lon="17.2956031"><ele>126.0</ele><time>2026-05-02T15:10:21.493Z</time></trkpt><trkpt lat="40.8808747" lon="17.2953249"><ele>127.66666666666666</ele><time>2026-05-02T15:10:22.492Z</time></trkpt><trkpt lat="40.8808859" lon="17.2950486"><ele>129.33333333333331</ele><time>2026-05-02T15:10:23.492Z</time></trkpt><trkpt lat="40.8808891" lon="17.2947795"><ele>131.0</ele><time>2026-05-02T15:10:24.491Z</time></trkpt><trkpt lat="40.8808919" lon="17.294508"><ele>132.0</ele><time>2026-05-02T15:10:25.492Z</time></trkpt><trkpt lat="40.8808944" lon="17.2942404"><ele>133.0</ele><time>2026-05-02T15:10:26.492Z</time></trkpt><trkpt lat="40.8809016" lon="17.2939775"><ele>134.0</ele><time>2026-05-02T15:10:27.492Z</time></trkpt><trkpt lat="40.8809171" lon="17.2937296"><ele>133.33333333333331</ele><time>2026-05-02T15:10:28.492Z</time></trkpt><trkpt lat="40.880939" lon="17.2934947"><ele>132.66666666666666</ele><time>2026-05-02T15:10:29.492Z</time></trkpt><trkpt lat="40.8809752" lon="17.2932715"><ele>132.0</ele><time>2026-05-02T15:10:30.493Z</time></trkpt><trkpt lat="40.8810138" lon="17.2930523"><ele>132.0</ele><time>2026-05-02T15:10:31.491Z</time></trkpt><trkpt lat="40.8810549" lon="17.2928392"><ele>132.0</ele><time>2026-05-02T15:10:32.492Z</time></trkpt><trkpt lat="40.881088" lon="17.2926243"><ele>132.0</ele><time>2026-05-02T15:10:33.492Z</time></trkpt><trkpt lat="40.8811015" lon="17.2924115"><ele>134.0</ele><time>2026-05-02T15:10:34.493Z</time></trkpt><trkpt lat="40.8811067" lon="17.2921979"><ele>136.0</ele><time>2026-05-02T15:10:35.492Z</time></trkpt><trkpt lat="40.8810908" lon="17.2919873"><ele>138.0</ele><time>2026-05-02T15:10:36.492Z</time></trkpt><trkpt lat="40.8810663" lon="17.2917831"><ele>138.0</ele><time>2026-05-02T15:10:37.492Z</time></trkpt><trkpt lat="40.8810309" lon="17.2915858"><ele>138.0</ele><time>2026-05-02T15:10:38.492Z</time></trkpt><trkpt lat="40.8809777" lon="17.2913926"><ele>138.0</ele><time>2026-05-02T15:10:39.492Z</time></trkpt><trkpt lat="40.8809283" lon="17.2911985"><ele>143.33333333333334</ele><time>2026-05-02T15:10:40.491Z</time></trkpt><trkpt lat="40.8808161" lon="17.2910345"><ele>148.66666666666669</ele><time>2026-05-02T15:10:41.492Z</time></trkpt><trkpt lat="40.8807431" lon="17.2908664"><ele>154.0</ele><time>2026-05-02T15:10:42.493Z</time></trkpt><trkpt lat="40.8806549" lon="17.2906982"><ele>153.0</ele><time>2026-05-02T15:10:43.492Z</time></trkpt><trkpt lat="40.8805732" lon="17.2905256"><ele>152.0</ele><time>2026-05-02T15:10:44.492Z</time></trkpt><trkpt lat="40.8804912" lon="17.2903522"><ele>151.0</ele><time>2026-05-02T15:10:45.492Z</time></trkpt><trkpt lat="40.8804336" lon="17.2901619"><ele>151.0</ele><time>2026-05-02T15:10:46.492Z</time></trkpt><trkpt lat="40.8803684" lon="17.2899688"><ele>151.0</ele><time>2026-05-02T15:10:47.491Z</time></trkpt><trkpt lat="40.8803126" lon="17.2897636"><ele>151.0</ele><time>2026-05-02T15:10:48.492Z</time></trkpt><trkpt lat="40.8802688" lon="17.2895621"><ele>151.33333333333334</ele><time>2026-05-02T15:10:49.491Z</time></trkpt><trkpt lat="40.8802259" lon="17.2893534"><ele>151.66666666666666</ele><time>2026-05-02T15:10:50.492Z</time></trkpt><trkpt lat="40.8801937" lon="17.2891399"><ele>152.0</ele><time>2026-05-02T15:10:51.492Z</time></trkpt><trkpt lat="40.8801741" lon="17.2889246"><ele>153.66666666666666</ele><time>2026-05-02T15:10:52.491Z</time></trkpt><trkpt lat="40.8801615" lon="17.2887056"><ele>155.33333333333334</ele><time>2026-05-02T15:10:53.492Z</time></trkpt><trkpt lat="40.8801613" lon="17.2884824"><ele>157.0</ele><time>2026-05-02T15:10:54.493Z</time></trkpt><trkpt lat="40.8801621" lon="17.2882591"><ele>158.0</ele><time>2026-05-02T15:10:55.491Z</time></trkpt><trkpt lat="40.8801812" lon="17.2880362"><ele>159.0</ele><time>2026-05-02T15:10:56.491Z</time></trkpt><trkpt lat="40.8801987" lon="17.2878135"><ele>160.0</ele><time>2026-05-02T15:10:57.492Z</time></trkpt><trkpt lat="40.880216" lon="17.2875895"><ele>160.0</ele><time>2026-05-02T15:10:58.491Z</time></trkpt><trkpt lat="40.8802307" lon="17.2873616"><ele>160.0</ele><time>2026-05-02T15:10:59.49Z</time></trkpt><trkpt lat="40.880244" lon="17.2871387"><ele>160.0</ele><time>2026-05-02T15:11:00.491Z</time></trkpt><trkpt lat="40.8802601" lon="17.286911"><ele>161.66666666666669</ele><time>2026-05-02T15:11:01.491Z</time></trkpt><trkpt lat="40.8802762" lon="17.2866776"><ele>163.33333333333334</ele><time>2026-05-02T15:11:02.491Z</time></trkpt><trkpt lat="40.8802935" lon="17.2864468"><ele>165.0</ele><time>2026-05-02T15:11:03.492Z</time></trkpt><trkpt lat="40.8803076" lon="17.2862168"><ele>165.66666666666666</ele><time>2026-05-02T15:11:04.49Z</time></trkpt><trkpt lat="40.880327" lon="17.2859853"><ele>166.33333333333331</ele><time>2026-05-02T15:11:05.491Z</time></trkpt><trkpt lat="40.880343" lon="17.2857476"><ele>167.0</ele><time>2026-05-02T15:11:06.491Z</time></trkpt><trkpt lat="40.8803577" lon="17.2855133"><ele>168.33333333333331</ele><time>2026-05-02T15:11:07.492Z</time></trkpt><trkpt lat="40.8803742" lon="17.2852749"><ele>169.66666666666666</ele><time>2026-05-02T15:11:08.49Z</time></trkpt><trkpt lat="40.8803923" lon="17.2850403"><ele>171.0</ele><time>2026-05-02T15:11:09.491Z</time></trkpt><trkpt lat="40.8804186" lon="17.2848188"><ele>172.66666666666666</ele><time>2026-05-02T15:11:10.491Z</time></trkpt><trkpt lat="40.8804498" lon="17.2846102"><ele>174.33333333333331</ele><time>2026-05-02T15:11:11.491Z</time></trkpt><trkpt lat="40.8804888" lon="17.2844108"><ele>176.0</ele><time>2026-05-02T15:11:12.492Z</time></trkpt><trkpt lat="40.8805389" lon="17.2842328"><ele>176.0</ele><time>2026-05-02T15:11:13.491Z</time></trkpt><trkpt lat="40.8805898" lon="17.284071"><ele>176.0</ele><time>2026-05-02T15:11:14.491Z</time></trkpt><trkpt lat="40.8806335" lon="17.2839185"><ele>176.0</ele><time>2026-05-02T15:11:15.491Z</time></trkpt><trkpt lat="40.8806638" lon="17.2837749"><ele>176.0</ele><time>2026-05-02T15:11:16.491Z</time></trkpt><trkpt lat="40.880674" lon="17.2836362"><ele>177.60000000000002</ele><time>2026-05-02T15:11:17.491Z</time></trkpt><trkpt lat="40.8806529" lon="17.2835064"><ele>179.2</ele><time>2026-05-02T15:11:18.491Z</time></trkpt><trkpt lat="40.8806036" lon="17.2833864"><ele>180.8</ele><time>2026-05-02T15:11:19.491Z</time></trkpt><trkpt lat="40.8805351" lon="17.2832846"><ele>182.39999999999998</ele><time>2026-05-02T15:11:20.491Z</time></trkpt><trkpt lat="40.8804504" lon="17.2832036"><ele>184.0</ele><time>2026-05-02T15:11:21.491Z</time></trkpt><trkpt lat="40.8803503" lon="17.2831589"><ele>184.0</ele><time>2026-05-02T15:11:22.492Z</time></trkpt><trkpt lat="40.880247" lon="17.2831382"><ele>184.0</ele><time>2026-05-02T15:11:23.491Z</time></trkpt><trkpt lat="40.8801429" lon="17.2831871"><ele>184.0</ele><time>2026-05-02T15:11:24.49Z</time></trkpt><trkpt lat="40.8800509" lon="17.2832514"><ele>184.0</ele><time>2026-05-02T15:11:25.491Z</time></trkpt><trkpt lat="40.8799695" lon="17.2833375"><ele>184.0</ele><time>2026-05-02T15:11:26.491Z</time></trkpt><trkpt lat="40.8798913" lon="17.283452"><ele>184.75</ele><time>2026-05-02T15:11:27.491Z</time></trkpt><trkpt lat="40.879828" lon="17.2835853"><ele>185.5</ele><time>2026-05-02T15:11:28.491Z</time></trkpt><trkpt lat="40.8797726" lon="17.2837162"><ele>186.25</ele><time>2026-05-02T15:11:29.491Z</time></trkpt><trkpt lat="40.879721" lon="17.2838713"><ele>187.0</ele><time>2026-05-02T15:11:30.491Z</time></trkpt><trkpt lat="40.8796625" lon="17.2840134"><ele>187.0</ele><time>2026-05-02T15:11:31.492Z</time></trkpt><trkpt lat="40.8796032" lon="17.2841638"><ele>187.0</ele><time>2026-05-02T15:11:32.491Z</time></trkpt><trkpt lat="40.8795504" lon="17.2843058"><ele>187.0</ele><time>2026-05-02T15:11:33.492Z</time></trkpt><trkpt lat="40.8794921" lon="17.2844536"><ele>187.0</ele><time>2026-05-02T15:11:34.492Z</time></trkpt><trkpt lat="40.8794304" lon="17.2846052"><ele>186.75</ele><time>2026-05-02T15:11:35.491Z</time></trkpt><trkpt lat="40.8793659" lon="17.2847635"><ele>186.5</ele><time>2026-05-02T15:11:36.491Z</time></trkpt><trkpt lat="40.8792992" lon="17.2849248"><ele>186.25</ele><time>2026-05-02T15:11:37.492Z</time></trkpt><trkpt lat="40.8792324" lon="17.2850834"><ele>186.0</ele><time>2026-05-02T15:11:38.491Z</time></trkpt><trkpt lat="40.8791621" lon="17.2852464"><ele>189.5</ele><time>2026-05-02T15:11:39.491Z</time></trkpt><trkpt lat="40.8790903" lon="17.2854086"><ele>193.0</ele><time>2026-05-02T15:11:40.492Z</time></trkpt><trkpt lat="40.8790068" lon="17.2855763"><ele>196.5</ele><time>2026-05-02T15:11:41.49Z</time></trkpt><trkpt lat="40.8789223" lon="17.2857442"><ele>200.0</ele><time>2026-05-02T15:11:42.491Z</time></trkpt><trkpt lat="40.8788351" lon="17.2859037"><ele>200.0</ele><time>2026-05-02T15:11:43.491Z</time></trkpt><trkpt lat="40.8787437" lon="17.2860621"><ele>200.0</ele><time>2026-05-02T15:11:44.491Z</time></trkpt><trkpt lat="40.8786459" lon="17.286235"><ele>200.0</ele><time>2026-05-02T15:11:45.491Z</time></trkpt><trkpt lat="40.8785451" lon="17.286404"><ele>196.33333333333334</ele><time>2026-05-02T15:11:46.491Z</time></trkpt><trkpt lat="40.8784435" lon="17.286576"><ele>192.66666666666669</ele><time>2026-05-02T15:11:47.49Z</time></trkpt><trkpt lat="40.8783375" lon="17.2867464"><ele>189.0</ele><time>2026-05-02T15:11:48.492Z</time></trkpt><trkpt lat="40.8782364" lon="17.2869189"><ele>193.66666666666669</ele><time>2026-05-02T15:11:49.491Z</time></trkpt><trkpt lat="40.8781373" lon="17.2870911"><ele>198.33333333333334</ele><time>2026-05-02T15:11:50.491Z</time></trkpt><trkpt lat="40.8780285" lon="17.2872683"><ele>203.0</ele><time>2026-05-02T15:11:51.492Z</time></trkpt><trkpt lat="40.8779164" lon="17.2874464"><ele>203.0</ele><time>2026-05-02T15:11:52.491Z</time></trkpt><trkpt lat="40.8778042" lon="17.2876252"><ele>203.0</ele><time>2026-05-02T15:11:53.491Z</time></trkpt><trkpt lat="40.8776917" lon="17.2878026"><ele>203.0</ele><time>2026-05-02T15:11:54.491Z</time></trkpt><trkpt lat="40.8775665" lon="17.2879804"><ele>208.66666666666669</ele><time>2026-05-02T15:11:55.49Z</time></trkpt><trkpt lat="40.8774402" lon="17.2881496"><ele>214.33333333333331</ele><time>2026-05-02T15:11:56.49Z</time></trkpt><trkpt lat="40.8773048" lon="17.2883231"><ele>220.0</ele><time>2026-05-02T15:11:57.491Z</time></trkpt><trkpt lat="40.8771676" lon="17.2884911"><ele>220.0</ele><time>2026-05-02T15:11:58.491Z</time></trkpt><trkpt lat="40.8770306" lon="17.2886636"><ele>220.0</ele><time>2026-05-02T15:11:59.491Z</time></trkpt><trkpt lat="40.8768925" lon="17.2888269"><ele>220.0</ele><time>2026-05-02T15:12:00.491Z</time></trkpt><trkpt lat="40.8767588" lon="17.2889872"><ele>222.33333333333331</ele><time>2026-05-02T15:12:01.49Z</time></trkpt><trkpt lat="40.8766279" lon="17.2891427"><ele>224.66666666666669</ele><time>2026-05-02T15:12:02.491Z</time></trkpt><trkpt lat="40.8765023" lon="17.2892994"><ele>227.0</ele><time>2026-05-02T15:12:03.49Z</time></trkpt><trkpt lat="40.8763866" lon="17.2894715"><ele>227.0</ele><time>2026-05-02T15:12:04.491Z</time></trkpt><trkpt lat="40.8762865" lon="17.2896654"><ele>227.0</ele><time>2026-05-02T15:12:05.49Z</time></trkpt><trkpt lat="40.8761975" lon="17.2898622"><ele>227.0</ele><time>2026-05-02T15:12:06.492Z</time></trkpt><trkpt lat="40.8761268" lon="17.2900758"><ele>223.0</ele><time>2026-05-02T15:12:07.491Z</time></trkpt><trkpt lat="40.8760744" lon="17.2902983"><ele>219.0</ele><time>2026-05-02T15:12:08.491Z</time></trkpt><trkpt lat="40.8760365" lon="17.2905334"><ele>215.0</ele><time>2026-05-02T15:12:09.491Z</time></trkpt><trkpt lat="40.875996" lon="17.2907636"><ele>212.33333333333334</ele><time>2026-05-02T15:12:10.492Z</time></trkpt><trkpt lat="40.8759479" lon="17.2909951"><ele>209.66666666666669</ele><time>2026-05-02T15:12:11.491Z</time></trkpt><trkpt lat="40.875891" lon="17.291213"><ele>207.0</ele><time>2026-05-02T15:12:12.491Z</time></trkpt><trkpt lat="40.875827" lon="17.2914373"><ele>216.33333333333331</ele><time>2026-05-02T15:12:13.491Z</time></trkpt><trkpt lat="40.8757527" lon="17.2916545"><ele>225.66666666666666</ele><time>2026-05-02T15:12:14.49Z</time></trkpt><trkpt lat="40.8756672" lon="17.2918646"><ele>235.0</ele><time>2026-05-02T15:12:15.492Z</time></trkpt><trkpt lat="40.8755769" lon="17.2920754"><ele>230.66666666666666</ele><time>2026-05-02T15:12:16.49Z</time></trkpt><trkpt lat="40.8754816" lon="17.2922818"><ele>226.33333333333331</ele><time>2026-05-02T15:12:17.491Z</time></trkpt><trkpt lat="40.8753697" lon="17.292473"><ele>222.0</ele><time>2026-05-02T15:12:18.49Z</time></trkpt><trkpt lat="40.8752455" lon="17.2926406"><ele>222.0</ele><time>2026-05-02T15:12:19.491Z</time></trkpt><trkpt lat="40.8751076" lon="17.2927854"><ele>222.0</ele><time>2026-05-02T15:12:20.491Z</time></trkpt><trkpt lat="40.874964" lon="17.2928988"><ele>222.0</ele><time>2026-05-02T15:12:21.49Z</time></trkpt><trkpt lat="40.8748169" lon="17.2929884"><ele>231.33333333333331</ele><time>2026-05-02T15:12:22.492Z</time></trkpt><trkpt lat="40.8746635" lon="17.2930457"><ele>240.66666666666666</ele><time>2026-05-02T15:12:23.491Z</time></trkpt><trkpt lat="40.8745109" lon="17.2930769"><ele>250.0</ele><time>2026-05-02T15:12:24.491Z</time></trkpt><trkpt lat="40.8743512" lon="17.2930833"><ele>256.66666666666663</ele><time>2026-05-02T15:12:25.491Z</time></trkpt><trkpt lat="40.8741926" lon="17.2930607"><ele>263.3333333333333</ele><time>2026-05-02T15:12:26.491Z</time></trkpt><trkpt lat="40.8740352" lon="17.2930161"><ele>270.0</ele><time>2026-05-02T15:12:27.491Z</time></trkpt><trkpt lat="40.8738938" lon="17.2929324"><ele>270.0</ele><time>2026-05-02T15:12:28.492Z</time></trkpt><trkpt lat="40.8737575" lon="17.2928386"><ele>270.0</ele><time>2026-05-02T15:12:29.491Z</time></trkpt><trkpt lat="40.8736284" lon="17.2927268"><ele>270.0</ele><time>2026-05-02T15:12:30.491Z</time></trkpt><trkpt lat="40.8735089" lon="17.2925825"><ele>272.3333333333333</ele><time>2026-05-02T15:12:31.491Z</time></trkpt><trkpt lat="40.873397" lon="17.2924382"><ele>274.66666666666663</ele><time>2026-05-02T15:12:32.492Z</time></trkpt><trkpt lat="40.8733041" lon="17.2922789"><ele>277.0</ele><time>2026-05-02T15:12:33.491Z</time></trkpt><trkpt lat="40.8732188" lon="17.292113"><ele>277.0</ele><time>2026-05-02T15:12:34.491Z</time></trkpt><trkpt lat="40.8731359" lon="17.2919437"><ele>277.0</ele><time>2026-05-02T15:12:35.492Z</time></trkpt><trkpt lat="40.8730538" lon="17.2917687"><ele>277.0</ele><time>2026-05-02T15:12:36.491Z</time></trkpt><trkpt lat="40.8729816" lon="17.2915918"><ele>277.0</ele><time>2026-05-02T15:12:37.492Z</time></trkpt><trkpt lat="40.8728968" lon="17.2914333"><ele>277.0</ele><time>2026-05-02T15:12:38.491Z</time></trkpt><trkpt lat="40.8728085" lon="17.291278"><ele>277.0</ele><time>2026-05-02T15:12:39.491Z</time></trkpt><trkpt lat="40.8726995" lon="17.2911498"><ele>277.0</ele><time>2026-05-02T15:12:40.491Z</time></trkpt><trkpt lat="40.8725855" lon="17.2910322"><ele>278.5</ele><time>2026-05-02T15:12:41.492Z</time></trkpt><trkpt lat="40.8724572" lon="17.2909448"><ele>280.0</ele><time>2026-05-02T15:12:42.491Z</time></trkpt><trkpt lat="40.8723245" lon="17.2908687"><ele>281.5</ele><time>2026-05-02T15:12:43.491Z</time></trkpt><trkpt lat="40.8721886" lon="17.2908323"><ele>283.0</ele><time>2026-05-02T15:12:44.491Z</time></trkpt><trkpt lat="40.8720388" lon="17.2908278"><ele>283.0</ele><time>2026-05-02T15:12:45.492Z</time></trkpt><trkpt lat="40.8718964" lon="17.2908607"><ele>283.0</ele><time>2026-05-02T15:12:46.491Z</time></trkpt><trkpt lat="40.8717585" lon="17.2909052"><ele>283.0</ele><time>2026-05-02T15:12:47.492Z</time></trkpt><trkpt lat="40.8716215" lon="17.2909551"><ele>283.0</ele><time>2026-05-02T15:12:48.491Z</time></trkpt><trkpt lat="40.8714913" lon="17.2910094"><ele>283.25</ele><time>2026-05-02T15:12:49.491Z</time></trkpt><trkpt lat="40.8713692" lon="17.2910769"><ele>283.5</ele><time>2026-05-02T15:12:50.491Z</time></trkpt><trkpt lat="40.8712526" lon="17.2911533"><ele>283.75</ele><time>2026-05-02T15:12:51.492Z</time></trkpt><trkpt lat="40.8711363" lon="17.2912265"><ele>284.0</ele><time>2026-05-02T15:12:52.491Z</time></trkpt><trkpt lat="40.8710213" lon="17.2913051"><ele>282.0</ele><time>2026-05-02T15:12:53.491Z</time></trkpt><trkpt lat="40.8709004" lon="17.2913841"><ele>280.0</ele><time>2026-05-02T15:12:54.492Z</time></trkpt><trkpt lat="40.8707833" lon="17.2914693"><ele>278.0</ele><time>2026-05-02T15:12:55.49Z</time></trkpt><trkpt lat="40.8706627" lon="17.2915463"><ele>276.0</ele><time>2026-05-02T15:12:56.49Z</time></trkpt><trkpt lat="40.8705336" lon="17.2916235"><ele>276.0</ele><time>2026-05-02T15:12:57.49Z</time></trkpt><trkpt lat="40.8704024" lon="17.291694"><ele>276.0</ele><time>2026-05-02T15:12:58.491Z</time></trkpt><trkpt lat="40.870264" lon="17.2917557"><ele>276.0</ele><time>2026-05-02T15:12:59.491Z</time></trkpt><trkpt lat="40.8701225" lon="17.2918148"><ele>276.0</ele><time>2026-05-02T15:13:00.491Z</time></trkpt><trkpt lat="40.8699799" lon="17.2918731"><ele>283.3333333333333</ele><time>2026-05-02T15:13:01.491Z</time></trkpt><trkpt lat="40.8698346" lon="17.2919293"><ele>290.66666666666663</ele><time>2026-05-02T15:13:02.491Z</time></trkpt><trkpt lat="40.8696876" lon="17.2919915"><ele>298.0</ele><time>2026-05-02T15:13:03.491Z</time></trkpt><trkpt lat="40.8695345" lon="17.2920527"><ele>298.0</ele><time>2026-05-02T15:13:04.492Z</time></trkpt><trkpt lat="40.8693825" lon="17.2921185"><ele>298.0</ele><time>2026-05-02T15:13:05.492Z</time></trkpt><trkpt lat="40.8692287" lon="17.2921806"><ele>298.0</ele><time>2026-05-02T15:13:06.491Z</time></trkpt><trkpt lat="40.8690745" lon="17.2922384"><ele>293.0</ele><time>2026-05-02T15:13:07.491Z</time></trkpt><trkpt lat="40.8689262" lon="17.2922984"><ele>288.0</ele><time>2026-05-02T15:13:08.491Z</time></trkpt><trkpt lat="40.868774" lon="17.2923518"><ele>283.0</ele><time>2026-05-02T15:13:09.491Z</time></trkpt><trkpt lat="40.8686259" lon="17.2924039"><ele>283.0</ele><time>2026-05-02T15:13:10.491Z</time></trkpt><trkpt lat="40.8684759" lon="17.2924468"><ele>283.0</ele><time>2026-05-02T15:13:11.491Z</time></trkpt><trkpt lat="40.868325" lon="17.292484"><ele>283.0</ele><time>2026-05-02T15:13:12.49Z</time></trkpt><trkpt lat="40.8681666" lon="17.2925088"><ele>289.0</ele><time>2026-05-02T15:13:13.491Z</time></trkpt><trkpt lat="40.8680104" lon="17.2925299"><ele>295.0</ele><time>2026-05-02T15:13:14.49Z</time></trkpt><trkpt lat="40.8678466" lon="17.2925431"><ele>301.0</ele><time>2026-05-02T15:13:15.491Z</time></trkpt><trkpt lat="40.8676841" lon="17.2925384"><ele>301.3333333333333</ele><time>2026-05-02T15:13:16.491Z</time></trkpt><trkpt lat="40.8675172" lon="17.2925278"><ele>301.6666666666667</ele><time>2026-05-02T15:13:17.491Z</time></trkpt><trkpt lat="40.8673551" lon="17.2925104"><ele>302.0</ele><time>2026-05-02T15:13:18.49Z</time></trkpt><trkpt lat="40.8671883" lon="17.2924805"><ele>302.0</ele><time>2026-05-02T15:13:19.49Z</time></trkpt><trkpt lat="40.8670166" lon="17.2924425"><ele>302.0</ele><time>2026-05-02T15:13:20.491Z</time></trkpt><trkpt lat="40.866845" lon="17.2924039"><ele>302.0</ele><time>2026-05-02T15:13:21.491Z</time></trkpt><trkpt lat="40.8666742" lon="17.2923587"><ele>302.6666666666667</ele><time>2026-05-02T15:13:22.49Z</time></trkpt><trkpt lat="40.8664966" lon="17.2923187"><ele>303.3333333333333</ele><time>2026-05-02T15:13:23.491Z</time></trkpt><trkpt lat="40.8663223" lon="17.2922787"><ele>304.0</ele><time>2026-05-02T15:13:24.492Z</time></trkpt><trkpt lat="40.8661469" lon="17.2922317"><ele>314.66666666666663</ele><time>2026-05-02T15:13:25.491Z</time></trkpt><trkpt lat="40.8659713" lon="17.2921877"><ele>325.3333333333333</ele><time>2026-05-02T15:13:26.491Z</time></trkpt><trkpt lat="40.8657928" lon="17.2921431"><ele>336.0</ele><time>2026-05-02T15:13:27.491Z</time></trkpt><trkpt lat="40.865614" lon="17.2920939"><ele>336.0</ele><time>2026-05-02T15:13:28.49Z</time></trkpt><trkpt lat="40.8654389" lon="17.2920493"><ele>336.0</ele><time>2026-05-02T15:13:29.491Z</time></trkpt><trkpt lat="40.8652669" lon="17.2920021"><ele>336.0</ele><time>2026-05-02T15:13:30.491Z</time></trkpt><trkpt lat="40.8651042" lon="17.2919587"><ele>335.0</ele><time>2026-05-02T15:13:31.491Z</time></trkpt><trkpt lat="40.8649471" lon="17.2919156"><ele>334.0</ele><time>2026-05-02T15:13:32.491Z</time></trkpt><trkpt lat="40.8647938" lon="17.2918661"><ele>333.0</ele><time>2026-05-02T15:13:33.492Z</time></trkpt><trkpt lat="40.8646552" lon="17.2917922"><ele>333.0</ele><time>2026-05-02T15:13:34.491Z</time></trkpt><trkpt lat="40.8645245" lon="17.2917038"><ele>333.0</ele><time>2026-05-02T15:13:35.492Z</time></trkpt><trkpt lat="40.8644209" lon="17.2916001"><ele>333.0</ele><time>2026-05-02T15:13:36.491Z</time></trkpt><trkpt lat="40.8643295" lon="17.2914313"><ele>333.0</ele><time>2026-05-02T15:13:37.49Z</time></trkpt><trkpt lat="40.8642517" lon="17.2913058"><ele>335.75</ele><time>2026-05-02T15:13:38.491Z</time></trkpt><trkpt lat="40.8641807" lon="17.2911633"><ele>338.5</ele><time>2026-05-02T15:13:39.491Z</time></trkpt><trkpt lat="40.8641131" lon="17.2910202"><ele>341.25</ele><time>2026-05-02T15:13:40.49Z</time></trkpt><trkpt lat="40.8640471" lon="17.2908884"><ele>344.0</ele><time>2026-05-02T15:13:41.491Z</time></trkpt><trkpt lat="40.863991" lon="17.290769"><ele>344.0</ele><time>2026-05-02T15:13:42.491Z</time></trkpt><trkpt lat="40.8639434" lon="17.2906549"><ele>344.0</ele><time>2026-05-02T15:13:43.491Z</time></trkpt><trkpt lat="40.8638993" lon="17.290556"><ele>344.0</ele><time>2026-05-02T15:13:44.491Z</time></trkpt><trkpt lat="40.8638568" lon="17.2904736"><ele>344.0</ele><time>2026-05-02T15:13:45.49Z</time></trkpt><trkpt lat="40.863822" lon="17.2903986"><ele>344.0</ele><time>2026-05-02T15:13:46.492Z</time></trkpt><trkpt lat="40.8637574" lon="17.2903114"><ele>344.0</ele><time>2026-05-02T15:13:48.491Z</time></trkpt><trkpt lat="40.8636671" lon="17.2903336"><ele>344.0</ele><time>2026-05-02T15:13:51.491Z</time></trkpt><trkpt lat="40.8636122" lon="17.290483"><ele>344.0</ele><time>2026-05-02T15:13:53.491Z</time></trkpt><trkpt lat="40.8635971" lon="17.2905818"><ele>344.0</ele><time>2026-05-02T15:13:54.49Z</time></trkpt><trkpt lat="40.8635857" lon="17.2906821"><ele>344.0</ele><time>2026-05-02T15:13:55.491Z</time></trkpt><trkpt lat="40.86357" lon="17.2907956"><ele>344.0</ele><time>2026-05-02T15:13:56.491Z</time></trkpt><trkpt lat="40.8635437" lon="17.2909168"><ele>344.0</ele><time>2026-05-02T15:13:57.491Z</time></trkpt><trkpt lat="40.8635129" lon="17.2910489"><ele>344.0</ele><time>2026-05-02T15:13:58.491Z</time></trkpt><trkpt lat="40.8634811" lon="17.2911863"><ele>344.0</ele><time>2026-05-02T15:13:59.492Z</time></trkpt><trkpt lat="40.8634454" lon="17.2913263"><ele>344.0</ele><time>2026-05-02T15:14:00.49Z</time></trkpt><trkpt lat="40.8634092" lon="17.2914561"><ele>344.0</ele><time>2026-05-02T15:14:01.49Z</time></trkpt><trkpt lat="40.8633681" lon="17.2915884"><ele>343.0</ele><time>2026-05-02T15:14:02.489Z</time></trkpt><trkpt lat="40.8633082" lon="17.2917308"><ele>342.0</ele><time>2026-05-02T15:14:03.49Z</time></trkpt><trkpt lat="40.8632352" lon="17.2918552"><ele>341.0</ele><time>2026-05-02T15:14:04.49Z</time></trkpt><trkpt lat="40.8631444" lon="17.291966"><ele>340.0</ele><time>2026-05-02T15:14:05.49Z</time></trkpt><trkpt lat="40.8630484" lon="17.2920643"><ele>340.0</ele><time>2026-05-02T15:14:06.49Z</time></trkpt><trkpt lat="40.8629373" lon="17.2921579"><ele>340.0</ele><time>2026-05-02T15:14:07.491Z</time></trkpt><trkpt lat="40.8628199" lon="17.2922225"><ele>340.0</ele><time>2026-05-02T15:14:08.491Z</time></trkpt><trkpt lat="40.8626957" lon="17.292267"><ele>340.0</ele><time>2026-05-02T15:14:09.49Z</time></trkpt><trkpt lat="40.8625686" lon="17.2922787"><ele>338.25</ele><time>2026-05-02T15:14:10.49Z</time></trkpt><trkpt lat="40.8624425" lon="17.2922779"><ele>336.5</ele><time>2026-05-02T15:14:11.49Z</time></trkpt><trkpt lat="40.8623021" lon="17.2922422"><ele>334.75</ele><time>2026-05-02T15:14:12.49Z</time></trkpt><trkpt lat="40.8621722" lon="17.2922144"><ele>333.0</ele><time>2026-05-02T15:14:13.49Z</time></trkpt><trkpt lat="40.8620363" lon="17.2921908"><ele>336.75</ele><time>2026-05-02T15:14:14.49Z</time></trkpt><trkpt lat="40.8618975" lon="17.2921732"><ele>340.5</ele><time>2026-05-02T15:14:15.49Z</time></trkpt><trkpt lat="40.8617591" lon="17.2921533"><ele>344.25</ele><time>2026-05-02T15:14:16.491Z</time></trkpt><trkpt lat="40.8616253" lon="17.2921455"><ele>348.0</ele><time>2026-05-02T15:14:17.49Z</time></trkpt><trkpt lat="40.8614893" lon="17.292144"><ele>348.25</ele><time>2026-05-02T15:14:18.49Z</time></trkpt><trkpt lat="40.861352" lon="17.2921608"><ele>348.5</ele><time>2026-05-02T15:14:19.49Z</time></trkpt><trkpt lat="40.8612198" lon="17.2922045"><ele>348.75</ele><time>2026-05-02T15:14:20.49Z</time></trkpt><trkpt lat="40.861091" lon="17.2922744"><ele>349.0</ele><time>2026-05-02T15:14:21.49Z</time></trkpt><trkpt lat="40.8609646" lon="17.2923689"><ele>349.66666666666663</ele><time>2026-05-02T15:14:22.49Z</time></trkpt><trkpt lat="40.8608331" lon="17.2924705"><ele>350.3333333333333</ele><time>2026-05-02T15:14:23.491Z</time></trkpt><trkpt lat="40.8607022" lon="17.2925732"><ele>351.0</ele><time>2026-05-02T15:14:24.49Z</time></trkpt><trkpt lat="40.8605743" lon="17.2926807"><ele>351.0</ele><time>2026-05-02T15:14:25.489Z</time></trkpt><trkpt lat="40.8604426" lon="17.2927939"><ele>351.0</ele><time>2026-05-02T15:14:26.49Z</time></trkpt><trkpt lat="40.8603151" lon="17.2929074"><ele>351.0</ele><time>2026-05-02T15:14:27.49Z</time></trkpt><trkpt lat="40.8601818" lon="17.293007"><ele>350.3333333333333</ele><time>2026-05-02T15:14:28.491Z</time></trkpt><trkpt lat="40.8600445" lon="17.2931077"><ele>349.66666666666663</ele><time>2026-05-02T15:14:29.49Z</time></trkpt><trkpt lat="40.8599088" lon="17.293205"><ele>349.0</ele><time>2026-05-02T15:14:30.489Z</time></trkpt><trkpt lat="40.8597687" lon="17.2933068"><ele>349.0</ele><time>2026-05-02T15:14:31.491Z</time></trkpt><trkpt lat="40.8596046" lon="17.2933908"><ele>349.0</ele><time>2026-05-02T15:14:32.49Z</time></trkpt><trkpt lat="40.859453" lon="17.2934599"><ele>349.0</ele><time>2026-05-02T15:14:33.491Z</time></trkpt><trkpt lat="40.8592956" lon="17.2935216"><ele>350.66666666666663</ele><time>2026-05-02T15:14:34.489Z</time></trkpt><trkpt lat="40.8591286" lon="17.2935685"><ele>352.3333333333333</ele><time>2026-05-02T15:14:35.49Z</time></trkpt><trkpt lat="40.8589606" lon="17.2935983"><ele>354.0</ele><time>2026-05-02T15:14:36.49Z</time></trkpt><trkpt lat="40.8587871" lon="17.2936321"><ele>354.0</ele><time>2026-05-02T15:14:37.49Z</time></trkpt><trkpt lat="40.8586187" lon="17.2936642"><ele>354.0</ele><time>2026-05-02T15:14:38.49Z</time></trkpt><trkpt lat="40.85845" lon="17.293693"><ele>354.0</ele><time>2026-05-02T15:14:39.49Z</time></trkpt><trkpt lat="40.858284" lon="17.2937267"><ele>355.0</ele><time>2026-05-02T15:14:40.49Z</time></trkpt><trkpt lat="40.8581206" lon="17.2937606"><ele>356.0</ele><time>2026-05-02T15:14:41.49Z</time></trkpt><trkpt lat="40.8579539" lon="17.2938271"><ele>357.0</ele><time>2026-05-02T15:14:42.491Z</time></trkpt><trkpt lat="40.8577913" lon="17.2938932"><ele>357.0</ele><time>2026-05-02T15:14:43.489Z</time></trkpt><trkpt lat="40.8576305" lon="17.2939753"><ele>357.0</ele><time>2026-05-02T15:14:44.491Z</time></trkpt><trkpt lat="40.8574702" lon="17.294069"><ele>357.0</ele><time>2026-05-02T15:14:45.49Z</time></trkpt><trkpt lat="40.8573113" lon="17.2941808"><ele>357.0</ele><time>2026-05-02T15:14:46.49Z</time></trkpt><trkpt lat="40.8571667" lon="17.2943018"><ele>357.0</ele><time>2026-05-02T15:14:47.49Z</time></trkpt><trkpt lat="40.8570163" lon="17.2944324"><ele>357.0</ele><time>2026-05-02T15:14:48.49Z</time></trkpt><trkpt lat="40.8568742" lon="17.2945712"><ele>356.6666666666667</ele><time>2026-05-02T15:14:49.49Z</time></trkpt><trkpt lat="40.8567326" lon="17.2947049"><ele>356.33333333333337</ele><time>2026-05-02T15:14:50.489Z</time></trkpt><trkpt lat="40.8565912" lon="17.2948385"><ele>356.0</ele><time>2026-05-02T15:14:51.489Z</time></trkpt><trkpt lat="40.8564425" lon="17.2949637"><ele>356.0</ele><time>2026-05-02T15:14:52.491Z</time></trkpt><trkpt lat="40.8562862" lon="17.2950726"><ele>356.0</ele><time>2026-05-02T15:14:53.49Z</time></trkpt><trkpt lat="40.8561202" lon="17.2951751"><ele>356.0</ele><time>2026-05-02T15:14:54.49Z</time></trkpt><trkpt lat="40.8559491" lon="17.295274"><ele>357.33333333333337</ele><time>2026-05-02T15:14:55.49Z</time></trkpt><trkpt lat="40.8557745" lon="17.2953697"><ele>358.6666666666667</ele><time>2026-05-02T15:14:56.491Z</time></trkpt><trkpt lat="40.8555971" lon="17.2954713"><ele>360.0</ele><time>2026-05-02T15:14:57.491Z</time></trkpt><trkpt lat="40.8554163" lon="17.2955739"><ele>359.3333333333333</ele><time>2026-05-02T15:14:58.49Z</time></trkpt><trkpt lat="40.8552243" lon="17.2956766"><ele>358.66666666666663</ele><time>2026-05-02T15:14:59.49Z</time></trkpt><trkpt lat="40.8550426" lon="17.295779"><ele>358.0</ele><time>2026-05-02T15:15:00.491Z</time></trkpt><trkpt lat="40.8548603" lon="17.2958797"><ele>359.3333333333333</ele><time>2026-05-02T15:15:01.491Z</time></trkpt><trkpt lat="40.8546868" lon="17.2959717"><ele>360.6666666666667</ele><time>2026-05-02T15:15:02.49Z</time></trkpt><trkpt lat="40.8545162" lon="17.2960628"><ele>362.0</ele><time>2026-05-02T15:15:03.49Z</time></trkpt><trkpt lat="40.8543472" lon="17.2961568"><ele>363.0</ele><time>2026-05-02T15:15:04.49Z</time></trkpt><trkpt lat="40.8541903" lon="17.2962485"><ele>364.0</ele><time>2026-05-02T15:15:05.49Z</time></trkpt><trkpt lat="40.8540383" lon="17.296345"><ele>365.0</ele><time>2026-05-02T15:15:06.49Z</time></trkpt><trkpt lat="40.8538949" lon="17.2964356"><ele>365.0</ele><time>2026-05-02T15:15:07.49Z</time></trkpt><trkpt lat="40.8537439" lon="17.2965318"><ele>365.0</ele><time>2026-05-02T15:15:08.49Z</time></trkpt><trkpt lat="40.8535891" lon="17.2966222"><ele>365.0</ele><time>2026-05-02T15:15:09.49Z</time></trkpt><trkpt lat="40.8534347" lon="17.296713"><ele>365.33333333333337</ele><time>2026-05-02T15:15:10.491Z</time></trkpt><trkpt lat="40.853279" lon="17.2968055"><ele>365.6666666666667</ele><time>2026-05-02T15:15:11.489Z</time></trkpt><trkpt lat="40.8531205" lon="17.296897"><ele>366.0</ele><time>2026-05-02T15:15:12.49Z</time></trkpt><trkpt lat="40.8529646" lon="17.296973"><ele>366.0</ele><time>2026-05-02T15:15:13.49Z</time></trkpt><trkpt lat="40.8528032" lon="17.2970519"><ele>366.0</ele><time>2026-05-02T15:15:14.489Z</time></trkpt><trkpt lat="40.8526404" lon="17.2971257"><ele>366.0</ele><time>2026-05-02T15:15:15.49Z</time></trkpt><trkpt lat="40.8524858" lon="17.297184"><ele>366.3333333333333</ele><time>2026-05-02T15:15:16.49Z</time></trkpt><trkpt lat="40.852332" lon="17.2972466"><ele>366.66666666666663</ele><time>2026-05-02T15:15:17.491Z</time></trkpt><trkpt lat="40.8521752" lon="17.2973164"><ele>367.0</ele><time>2026-05-02T15:15:18.49Z</time></trkpt><trkpt lat="40.8520205" lon="17.2973972"><ele>367.0</ele><time>2026-05-02T15:15:19.49Z</time></trkpt><trkpt lat="40.8518632" lon="17.2974759"><ele>367.0</ele><time>2026-05-02T15:15:20.491Z</time></trkpt><trkpt lat="40.8517039" lon="17.2975733"><ele>367.0</ele><time>2026-05-02T15:15:21.49Z</time></trkpt><trkpt lat="40.8515463" lon="17.2976637"><ele>367.66666666666663</ele><time>2026-05-02T15:15:22.49Z</time></trkpt><trkpt lat="40.8513734" lon="17.2977626"><ele>368.3333333333333</ele><time>2026-05-02T15:15:23.491Z</time></trkpt><trkpt lat="40.8512046" lon="17.2978634"><ele>369.0</ele><time>2026-05-02T15:15:24.491Z</time></trkpt><trkpt lat="40.8510373" lon="17.2979624"><ele>369.0</ele><time>2026-05-02T15:15:25.49Z</time></trkpt><trkpt lat="40.8508687" lon="17.2980649"><ele>369.0</ele><time>2026-05-02T15:15:26.49Z</time></trkpt><trkpt lat="40.8506977" lon="17.2981617"><ele>369.0</ele><time>2026-05-02T15:15:27.49Z</time></trkpt><trkpt lat="40.8505304" lon="17.2982573"><ele>369.0</ele><time>2026-05-02T15:15:28.49Z</time></trkpt><trkpt lat="40.8503552" lon="17.2983547"><ele>369.0</ele><time>2026-05-02T15:15:29.491Z</time></trkpt><trkpt lat="40.8501962" lon="17.29846"><ele>369.0</ele><time>2026-05-02T15:15:30.49Z</time></trkpt><trkpt lat="40.8500287" lon="17.2985671"><ele>369.3333333333333</ele><time>2026-05-02T15:15:31.49Z</time></trkpt><trkpt lat="40.8498716" lon="17.2986692"><ele>369.66666666666663</ele><time>2026-05-02T15:15:32.489Z</time></trkpt><trkpt lat="40.8497113" lon="17.2987607"><ele>370.0</ele><time>2026-05-02T15:15:33.49Z</time></trkpt><trkpt lat="40.8495472" lon="17.2988398"><ele>370.0</ele><time>2026-05-02T15:15:34.49Z</time></trkpt><trkpt lat="40.8493838" lon="17.2988955"><ele>370.0</ele><time>2026-05-02T15:15:35.49Z</time></trkpt><trkpt lat="40.8492195" lon="17.2989371"><ele>370.0</ele><time>2026-05-02T15:15:36.49Z</time></trkpt><trkpt lat="40.8490477" lon="17.2989671"><ele>370.3333333333333</ele><time>2026-05-02T15:15:37.49Z</time></trkpt><trkpt lat="40.8488786" lon="17.2989957"><ele>370.6666666666667</ele><time>2026-05-02T15:15:38.491Z</time></trkpt><trkpt lat="40.8487139" lon="17.2990246"><ele>371.0</ele><time>2026-05-02T15:15:39.491Z</time></trkpt><trkpt lat="40.8485543" lon="17.2990598"><ele>371.33333333333337</ele><time>2026-05-02T15:15:40.489Z</time></trkpt><trkpt lat="40.8483867" lon="17.2991043"><ele>371.6666666666667</ele><time>2026-05-02T15:15:41.49Z</time></trkpt><trkpt lat="40.848235" lon="17.299171"><ele>372.0</ele><time>2026-05-02T15:15:42.49Z</time></trkpt><trkpt lat="40.8480846" lon="17.2992625"><ele>372.0</ele><time>2026-05-02T15:15:43.489Z</time></trkpt><trkpt lat="40.8479413" lon="17.2993751"><ele>372.0</ele><time>2026-05-02T15:15:44.49Z</time></trkpt><trkpt lat="40.8478018" lon="17.2995084"><ele>372.0</ele><time>2026-05-02T15:15:45.49Z</time></trkpt><trkpt lat="40.8476595" lon="17.2996483"><ele>372.3333333333333</ele><time>2026-05-02T15:15:46.49Z</time></trkpt><trkpt lat="40.8475245" lon="17.2997932"><ele>372.66666666666663</ele><time>2026-05-02T15:15:47.49Z</time></trkpt><trkpt lat="40.8473937" lon="17.2999427"><ele>373.0</ele><time>2026-05-02T15:15:48.491Z</time></trkpt><trkpt lat="40.8472638" lon="17.3001093"><ele>373.0</ele><time>2026-05-02T15:15:49.49Z</time></trkpt><trkpt lat="40.847138" lon="17.3002839"><ele>373.0</ele><time>2026-05-02T15:15:50.49Z</time></trkpt><trkpt lat="40.8470123" lon="17.3004743"><ele>373.0</ele><time>2026-05-02T15:15:51.49Z</time></trkpt><trkpt lat="40.8468876" lon="17.300664"><ele>372.66666666666663</ele><time>2026-05-02T15:15:52.49Z</time></trkpt><trkpt lat="40.8467692" lon="17.3008557"><ele>372.3333333333333</ele><time>2026-05-02T15:15:53.489Z</time></trkpt><trkpt lat="40.846639" lon="17.301044"><ele>372.0</ele><time>2026-05-02T15:15:54.49Z</time></trkpt><trkpt lat="40.846509" lon="17.3012295"><ele>372.0</ele><time>2026-05-02T15:15:55.49Z</time></trkpt><trkpt lat="40.8463721" lon="17.3013841"><ele>372.0</ele><time>2026-05-02T15:15:56.489Z</time></trkpt><trkpt lat="40.8462206" lon="17.3015404"><ele>372.0</ele><time>2026-05-02T15:15:57.489Z</time></trkpt><trkpt lat="40.8460645" lon="17.3016693"><ele>373.0</ele><time>2026-05-02T15:15:58.49Z</time></trkpt><trkpt lat="40.845899" lon="17.3017815"><ele>374.0</ele><time>2026-05-02T15:15:59.49Z</time></trkpt><trkpt lat="40.8457289" lon="17.3018828"><ele>375.0</ele><time>2026-05-02T15:16:00.49Z</time></trkpt><trkpt lat="40.8455589" lon="17.3019788"><ele>375.0</ele><time>2026-05-02T15:16:01.49Z</time></trkpt><trkpt lat="40.8453955" lon="17.3020707"><ele>375.0</ele><time>2026-05-02T15:16:02.49Z</time></trkpt><trkpt lat="40.8452331" lon="17.3021675"><ele>375.0</ele><time>2026-05-02T15:16:03.49Z</time></trkpt><trkpt lat="40.845069" lon="17.3022651"><ele>375.6666666666667</ele><time>2026-05-02T15:16:04.489Z</time></trkpt><trkpt lat="40.8449068" lon="17.3023556"><ele>376.33333333333337</ele><time>2026-05-02T15:16:05.491Z</time></trkpt><trkpt lat="40.8447439" lon="17.3024485"><ele>377.0</ele><time>2026-05-02T15:16:06.489Z</time></trkpt><trkpt lat="40.8445812" lon="17.3025453"><ele>377.0</ele><time>2026-05-02T15:16:07.49Z</time></trkpt><trkpt lat="40.8444157" lon="17.3026425"><ele>377.0</ele><time>2026-05-02T15:16:08.49Z</time></trkpt><trkpt lat="40.8442465" lon="17.3027424"><ele>377.0</ele><time>2026-05-02T15:16:09.49Z</time></trkpt><trkpt lat="40.8440704" lon="17.302839"><ele>377.6666666666667</ele><time>2026-05-02T15:16:10.49Z</time></trkpt><trkpt lat="40.8438933" lon="17.302941"><ele>378.3333333333333</ele><time>2026-05-02T15:16:11.489Z</time></trkpt><trkpt lat="40.8437186" lon="17.3030404"><ele>379.0</ele><time>2026-05-02T15:16:12.49Z</time></trkpt><trkpt lat="40.8435489" lon="17.3031374"><ele>379.0</ele><time>2026-05-02T15:16:13.491Z</time></trkpt><trkpt lat="40.8433833" lon="17.30324"><ele>379.0</ele><time>2026-05-02T15:16:14.49Z</time></trkpt><trkpt lat="40.8432292" lon="17.3033478"><ele>379.0</ele><time>2026-05-02T15:16:15.49Z</time></trkpt><trkpt lat="40.8430925" lon="17.3034596"><ele>379.0</ele><time>2026-05-02T15:16:16.49Z</time></trkpt><trkpt lat="40.8429879" lon="17.3035793"><ele>379.0</ele><time>2026-05-02T15:16:17.491Z</time></trkpt><trkpt lat="40.8428881" lon="17.3037222"><ele>379.0</ele><time>2026-05-02T15:16:18.49Z</time></trkpt><trkpt lat="40.8428178" lon="17.3038792"><ele>379.0</ele><time>2026-05-02T15:16:19.491Z</time></trkpt><trkpt lat="40.8427756" lon="17.3040492"><ele>378.25</ele><time>2026-05-02T15:16:20.49Z</time></trkpt><trkpt lat="40.8427555" lon="17.3042305"><ele>377.5</ele><time>2026-05-02T15:16:21.49Z</time></trkpt><trkpt lat="40.8427542" lon="17.3044178"><ele>376.75</ele><time>2026-05-02T15:16:22.491Z</time></trkpt><trkpt lat="40.8427715" lon="17.3046097"><ele>376.0</ele><time>2026-05-02T15:16:23.49Z</time></trkpt><trkpt lat="40.842794" lon="17.304802"><ele>374.66666666666663</ele><time>2026-05-02T15:16:24.489Z</time></trkpt><trkpt lat="40.8428318" lon="17.304998"><ele>373.3333333333333</ele><time>2026-05-02T15:16:25.489Z</time></trkpt><trkpt lat="40.8428803" lon="17.3052017"><ele>372.0</ele><time>2026-05-02T15:16:26.49Z</time></trkpt><trkpt lat="40.8429455" lon="17.305397"><ele>371.0</ele><time>2026-05-02T15:16:27.49Z</time></trkpt><trkpt lat="40.8430212" lon="17.305584"><ele>370.0</ele><time>2026-05-02T15:16:28.49Z</time></trkpt><trkpt lat="40.8431" lon="17.3057698"><ele>369.0</ele><time>2026-05-02T15:16:29.49Z</time></trkpt><trkpt lat="40.8431804" lon="17.3059598"><ele>369.0</ele><time>2026-05-02T15:16:30.489Z</time></trkpt><trkpt lat="40.8432614" lon="17.3061428"><ele>369.0</ele><time>2026-05-02T15:16:31.49Z</time></trkpt><trkpt lat="40.8433327" lon="17.3063209"><ele>369.0</ele><time>2026-05-02T15:16:32.49Z</time></trkpt><trkpt lat="40.8433913" lon="17.3064859"><ele>369.25</ele><time>2026-05-02T15:16:33.49Z</time></trkpt><trkpt lat="40.8434492" lon="17.306665"><ele>369.5</ele><time>2026-05-02T15:16:34.49Z</time></trkpt><trkpt lat="40.8434822" lon="17.3068295"><ele>369.75</ele><time>2026-05-02T15:16:35.49Z</time></trkpt><trkpt lat="40.8434865" lon="17.3070002"><ele>370.0</ele><time>2026-05-02T15:16:36.49Z</time></trkpt><trkpt lat="40.8434955" lon="17.3071577"><ele>369.5</ele><time>2026-05-02T15:16:37.49Z</time></trkpt><trkpt lat="40.8434298" lon="17.3073283"><ele>369.0</ele><time>2026-05-02T15:16:38.49Z</time></trkpt><trkpt lat="40.843386" lon="17.3074823"><ele>368.5</ele><time>2026-05-02T15:16:39.489Z</time></trkpt><trkpt lat="40.8433077" lon="17.3076366"><ele>368.0</ele><time>2026-05-02T15:16:40.491Z</time></trkpt><trkpt lat="40.8432206" lon="17.3077994"><ele>368.0</ele><time>2026-05-02T15:16:41.49Z</time></trkpt><trkpt lat="40.8431439" lon="17.3079696"><ele>368.0</ele><time>2026-05-02T15:16:42.49Z</time></trkpt><trkpt lat="40.8430617" lon="17.308138"><ele>368.0</ele><time>2026-05-02T15:16:43.49Z</time></trkpt><trkpt lat="40.8429778" lon="17.308314"><ele>366.6666666666667</ele><time>2026-05-02T15:16:44.49Z</time></trkpt><trkpt lat="40.8428884" lon="17.3084819"><ele>365.3333333333333</ele><time>2026-05-02T15:16:45.489Z</time></trkpt><trkpt lat="40.8428065" lon="17.3086613"><ele>364.0</ele><time>2026-05-02T15:16:46.491Z</time></trkpt><trkpt lat="40.8427175" lon="17.3088406"><ele>364.3333333333333</ele><time>2026-05-02T15:16:47.49Z</time></trkpt><trkpt lat="40.8426303" lon="17.3090169"><ele>364.6666666666667</ele><time>2026-05-02T15:16:48.491Z</time></trkpt><trkpt lat="40.8425447" lon="17.3092013"><ele>365.0</ele><time>2026-05-02T15:16:49.49Z</time></trkpt><trkpt lat="40.8424539" lon="17.3093857"><ele>365.0</ele><time>2026-05-02T15:16:50.49Z</time></trkpt><trkpt lat="40.8423702" lon="17.3095767"><ele>365.0</ele><time>2026-05-02T15:16:51.49Z</time></trkpt><trkpt lat="40.8422973" lon="17.3097738"><ele>365.0</ele><time>2026-05-02T15:16:52.491Z</time></trkpt><trkpt lat="40.842183" lon="17.3099715"><ele>365.6666666666667</ele><time>2026-05-02T15:16:53.489Z</time></trkpt><trkpt lat="40.8420981" lon="17.3101732"><ele>366.3333333333333</ele><time>2026-05-02T15:16:54.489Z</time></trkpt><trkpt lat="40.8420021" lon="17.3103804"><ele>367.0</ele><time>2026-05-02T15:16:55.489Z</time></trkpt><trkpt lat="40.8419034" lon="17.3105891"><ele>367.0</ele><time>2026-05-02T15:16:56.489Z</time></trkpt><trkpt lat="40.8418099" lon="17.3107892"><ele>367.0</ele><time>2026-05-02T15:16:57.491Z</time></trkpt><trkpt lat="40.8417179" lon="17.3109966"><ele>367.0</ele><time>2026-05-02T15:16:58.49Z</time></trkpt><trkpt lat="40.8416265" lon="17.3111923"><ele>367.0</ele><time>2026-05-02T15:16:59.49Z</time></trkpt><trkpt lat="40.8415361" lon="17.3113781"><ele>367.0</ele><time>2026-05-02T15:17:00.49Z</time></trkpt><trkpt lat="40.8414468" lon="17.3115592"><ele>367.0</ele><time>2026-05-02T15:17:01.49Z</time></trkpt><trkpt lat="40.8413686" lon="17.3117465"><ele>366.66666666666663</ele><time>2026-05-02T15:17:02.489Z</time></trkpt><trkpt lat="40.8412911" lon="17.3119362"><ele>366.3333333333333</ele><time>2026-05-02T15:17:03.491Z</time></trkpt><trkpt lat="40.8412205" lon="17.3121365"><ele>366.0</ele><time>2026-05-02T15:17:04.49Z</time></trkpt><trkpt lat="40.8411549" lon="17.3123187"><ele>366.0</ele><time>2026-05-02T15:17:05.489Z</time></trkpt><trkpt lat="40.8410884" lon="17.3124824"><ele>366.0</ele><time>2026-05-02T15:17:06.488Z</time></trkpt><trkpt lat="40.8410252" lon="17.3126229"><ele>366.0</ele><time>2026-05-02T15:17:07.489Z</time></trkpt><trkpt lat="40.840951" lon="17.3127662"><ele>366.0</ele><time>2026-05-02T15:17:08.489Z</time></trkpt><trkpt lat="40.8408739" lon="17.3130584"><ele>366.5</ele><time>2026-05-02T15:17:10.488Z</time></trkpt><trkpt lat="40.840832" lon="17.3132187"><ele>367.0</ele><time>2026-05-02T15:17:11.488Z</time></trkpt><trkpt lat="40.8408324" lon="17.313406"><ele>367.5</ele><time>2026-05-02T15:17:12.489Z</time></trkpt><trkpt lat="40.8408376" lon="17.313579"><ele>368.0</ele><time>2026-05-02T15:17:13.489Z</time></trkpt><trkpt lat="40.8408191" lon="17.3137496"><ele>368.75</ele><time>2026-05-02T15:17:14.488Z</time></trkpt><trkpt lat="40.8407775" lon="17.3139107"><ele>369.5</ele><time>2026-05-02T15:17:15.488Z</time></trkpt><trkpt lat="40.8407381" lon="17.3140685"><ele>370.25</ele><time>2026-05-02T15:17:16.489Z</time></trkpt><trkpt lat="40.8407036" lon="17.3142296"><ele>371.0</ele><time>2026-05-02T15:17:17.489Z</time></trkpt><trkpt lat="40.8406883" lon="17.3143976"><ele>371.0</ele><time>2026-05-02T15:17:18.488Z</time></trkpt><trkpt lat="40.8406819" lon="17.3145589"><ele>371.0</ele><time>2026-05-02T15:17:19.49Z</time></trkpt><trkpt lat="40.8406783" lon="17.3147207"><ele>371.0</ele><time>2026-05-02T15:17:20.489Z</time></trkpt><trkpt lat="40.8407471" lon="17.314879"><ele>371.0</ele><time>2026-05-02T15:17:21.49Z</time></trkpt><trkpt lat="40.8407981" lon="17.3150259"><ele>371.75</ele><time>2026-05-02T15:17:22.489Z</time></trkpt><trkpt lat="40.8408426" lon="17.3151661"><ele>372.5</ele><time>2026-05-02T15:17:23.488Z</time></trkpt><trkpt lat="40.8408883" lon="17.315311"><ele>373.25</ele><time>2026-05-02T15:17:24.488Z</time></trkpt><trkpt lat="40.8408978" lon="17.3154498"><ele>374.0</ele><time>2026-05-02T15:17:25.488Z</time></trkpt><trkpt lat="40.8409146" lon="17.315601"><ele>374.0</ele><time>2026-05-02T15:17:26.488Z</time></trkpt><trkpt lat="40.8409275" lon="17.3157551"><ele>374.0</ele><time>2026-05-02T15:17:27.49Z</time></trkpt><trkpt lat="40.8409283" lon="17.3159046"><ele>374.0</ele><time>2026-05-02T15:17:28.488Z</time></trkpt><trkpt lat="40.8409231" lon="17.316068"><ele>374.0</ele><time>2026-05-02T15:17:29.489Z</time></trkpt><trkpt lat="40.8409117" lon="17.3162347"><ele>374.25</ele><time>2026-05-02T15:17:30.489Z</time></trkpt><trkpt lat="40.8408934" lon="17.316408"><ele>374.5</ele><time>2026-05-02T15:17:31.489Z</time></trkpt><trkpt lat="40.8408719" lon="17.3165679"><ele>374.75</ele><time>2026-05-02T15:17:32.489Z</time></trkpt><trkpt lat="40.8408376" lon="17.3167284"><ele>375.0</ele><time>2026-05-02T15:17:33.489Z</time></trkpt><trkpt lat="40.8407928" lon="17.3168901"><ele>375.0</ele><time>2026-05-02T15:17:34.489Z</time></trkpt><trkpt lat="40.8407421" lon="17.3170507"><ele>375.0</ele><time>2026-05-02T15:17:35.489Z</time></trkpt><trkpt lat="40.8406852" lon="17.31721"><ele>375.0</ele><time>2026-05-02T15:17:36.49Z</time></trkpt><trkpt lat="40.8406213" lon="17.31737"><ele>375.0</ele><time>2026-05-02T15:17:37.489Z</time></trkpt><trkpt lat="40.8405573" lon="17.3175162"><ele>374.75</ele><time>2026-05-02T15:17:38.49Z</time></trkpt><trkpt lat="40.840481" lon="17.3176616"><ele>374.5</ele><time>2026-05-02T15:17:39.489Z</time></trkpt><trkpt lat="40.8404079" lon="17.317813"><ele>374.25</ele><time>2026-05-02T15:17:40.49Z</time></trkpt><trkpt lat="40.8403373" lon="17.3179734"><ele>374.0</ele><time>2026-05-02T15:17:41.488Z</time></trkpt><trkpt lat="40.8402694" lon="17.3181271"><ele>374.0</ele><time>2026-05-02T15:17:42.489Z</time></trkpt><trkpt lat="40.8401805" lon="17.3182649"><ele>374.0</ele><time>2026-05-02T15:17:43.488Z</time></trkpt><trkpt lat="40.8400976" lon="17.3183972"><ele>374.0</ele><time>2026-05-02T15:17:44.488Z</time></trkpt><trkpt lat="40.8400079" lon="17.3185213"><ele>374.0</ele><time>2026-05-02T15:17:45.489Z</time></trkpt><trkpt lat="40.8399209" lon="17.318648"><ele>374.25</ele><time>2026-05-02T15:17:46.489Z</time></trkpt><trkpt lat="40.8398314" lon="17.318768"><ele>374.5</ele><time>2026-05-02T15:17:47.489Z</time></trkpt><trkpt lat="40.8397452" lon="17.3188872"><ele>374.75</ele><time>2026-05-02T15:17:48.49Z</time></trkpt><trkpt lat="40.8396644" lon="17.3190155"><ele>375.0</ele><time>2026-05-02T15:17:49.49Z</time></trkpt><trkpt lat="40.8395803" lon="17.3191448"><ele>375.0</ele><time>2026-05-02T15:17:50.489Z</time></trkpt><trkpt lat="40.839497" lon="17.3192843"><ele>375.0</ele><time>2026-05-02T15:17:51.489Z</time></trkpt><trkpt lat="40.8394204" lon="17.3194231"><ele>375.0</ele><time>2026-05-02T15:17:52.489Z</time></trkpt><trkpt lat="40.8393398" lon="17.3195519"><ele>375.0</ele><time>2026-05-02T15:17:53.489Z</time></trkpt><trkpt lat="40.8392663" lon="17.3196856"><ele>376.0</ele><time>2026-05-02T15:17:54.489Z</time></trkpt><trkpt lat="40.8391904" lon="17.3198071"><ele>377.0</ele><time>2026-05-02T15:17:55.489Z</time></trkpt><trkpt lat="40.8391329" lon="17.3199643"><ele>378.0</ele><time>2026-05-02T15:17:56.489Z</time></trkpt><trkpt lat="40.8390783" lon="17.3200984"><ele>379.0</ele><time>2026-05-02T15:17:57.488Z</time></trkpt><trkpt lat="40.8390041" lon="17.320239"><ele>379.0</ele><time>2026-05-02T15:17:58.489Z</time></trkpt><trkpt lat="40.8389328" lon="17.3203783"><ele>379.0</ele><time>2026-05-02T15:17:59.49Z</time></trkpt><trkpt lat="40.8388469" lon="17.320514"><ele>379.0</ele><time>2026-05-02T15:18:00.489Z</time></trkpt><trkpt lat="40.8387648" lon="17.3206571"><ele>379.0</ele><time>2026-05-02T15:18:01.489Z</time></trkpt><trkpt lat="40.8386859" lon="17.3207976"><ele>379.5</ele><time>2026-05-02T15:18:02.489Z</time></trkpt><trkpt lat="40.8386061" lon="17.3209404"><ele>380.0</ele><time>2026-05-02T15:18:03.488Z</time></trkpt><trkpt lat="40.8385328" lon="17.3210777"><ele>380.5</ele><time>2026-05-02T15:18:04.488Z</time></trkpt><trkpt lat="40.8384627" lon="17.3212172"><ele>381.0</ele><time>2026-05-02T15:18:05.488Z</time></trkpt><trkpt lat="40.8383781" lon="17.321333"><ele>381.5</ele><time>2026-05-02T15:18:06.489Z</time></trkpt><trkpt lat="40.838288" lon="17.3214425"><ele>382.0</ele><time>2026-05-02T15:18:07.488Z</time></trkpt><trkpt lat="40.838192" lon="17.3215469"><ele>382.5</ele><time>2026-05-02T15:18:08.49Z</time></trkpt><trkpt lat="40.8380841" lon="17.3216078"><ele>383.0</ele><time>2026-05-02T15:18:09.489Z</time></trkpt><trkpt lat="40.8379736" lon="17.3216822"><ele>383.0</ele><time>2026-05-02T15:18:10.489Z</time></trkpt><trkpt lat="40.8378747" lon="17.3217587"><ele>383.0</ele><time>2026-05-02T15:18:11.489Z</time></trkpt><trkpt lat="40.8377624" lon="17.3218551"><ele>383.0</ele><time>2026-05-02T15:18:12.489Z</time></trkpt><trkpt lat="40.8376682" lon="17.3219699"><ele>383.0</ele><time>2026-05-02T15:18:13.489Z</time></trkpt><trkpt lat="40.8375951" lon="17.3220987"><ele>383.25</ele><time>2026-05-02T15:18:14.488Z</time></trkpt><trkpt lat="40.8375179" lon="17.3222144"><ele>383.5</ele><time>2026-05-02T15:18:15.489Z</time></trkpt><trkpt lat="40.8374348" lon="17.3223312"><ele>383.75</ele><time>2026-05-02T15:18:16.489Z</time></trkpt><trkpt lat="40.8373612" lon="17.3224603"><ele>384.0</ele><time>2026-05-02T15:18:17.489Z</time></trkpt><trkpt lat="40.8372808" lon="17.3225841"><ele>384.5</ele><time>2026-05-02T15:18:18.49Z</time></trkpt><trkpt lat="40.8372001" lon="17.3227089"><ele>385.0</ele><time>2026-05-02T15:18:19.489Z</time></trkpt><trkpt lat="40.8371077" lon="17.3228211"><ele>385.5</ele><time>2026-05-02T15:18:20.489Z</time></trkpt><trkpt lat="40.8370283" lon="17.3229232"><ele>386.0</ele><time>2026-05-02T15:18:21.489Z</time></trkpt><trkpt lat="40.8369343" lon="17.3230128"><ele>385.75</ele><time>2026-05-02T15:18:22.489Z</time></trkpt><trkpt lat="40.8368329" lon="17.3230962"><ele>385.5</ele><time>2026-05-02T15:18:23.489Z</time></trkpt><trkpt lat="40.8367394" lon="17.3231973"><ele>385.25</ele><time>2026-05-02T15:18:24.489Z</time></trkpt><trkpt lat="40.8366486" lon="17.3233098"><ele>385.0</ele><time>2026-05-02T15:18:25.489Z</time></trkpt><trkpt lat="40.8365771" lon="17.3234494"><ele>386.0</ele><time>2026-05-02T15:18:26.49Z</time></trkpt><trkpt lat="40.8365186" lon="17.3236064"><ele>387.0</ele><time>2026-05-02T15:18:27.489Z</time></trkpt><trkpt lat="40.8364808" lon="17.3237755"><ele>388.0</ele><time>2026-05-02T15:18:28.49Z</time></trkpt><trkpt lat="40.8364553" lon="17.3239364"><ele>389.0</ele><time>2026-05-02T15:18:29.489Z</time></trkpt><trkpt lat="40.8364247" lon="17.3240971"><ele>389.0</ele><time>2026-05-02T15:18:30.489Z</time></trkpt><trkpt lat="40.8363794" lon="17.3242573"><ele>389.0</ele><time>2026-05-02T15:18:31.489Z</time></trkpt><trkpt lat="40.8363305" lon="17.3244093"><ele>389.0</ele><time>2026-05-02T15:18:32.489Z</time></trkpt><trkpt lat="40.8362567" lon="17.3245392"><ele>389.0</ele><time>2026-05-02T15:18:33.489Z</time></trkpt><trkpt lat="40.8361972" lon="17.3246883"><ele>388.0</ele><time>2026-05-02T15:18:34.489Z</time></trkpt><trkpt lat="40.8361448" lon="17.3248456"><ele>387.0</ele><time>2026-05-02T15:18:35.489Z</time></trkpt><trkpt lat="40.8361137" lon="17.325016"><ele>386.0</ele><time>2026-05-02T15:18:36.489Z</time></trkpt><trkpt lat="40.8360768" lon="17.3251845"><ele>385.0</ele><time>2026-05-02T15:18:37.49Z</time></trkpt><trkpt lat="40.8360496" lon="17.3253477"><ele>385.0</ele><time>2026-05-02T15:18:38.489Z</time></trkpt><trkpt lat="40.8360164" lon="17.3254975"><ele>385.0</ele><time>2026-05-02T15:18:39.489Z</time></trkpt><trkpt lat="40.8360022" lon="17.3256413"><ele>385.0</ele><time>2026-05-02T15:18:40.489Z</time></trkpt><trkpt lat="40.8359784" lon="17.325783"><ele>385.0</ele><time>2026-05-02T15:18:41.489Z</time></trkpt><trkpt lat="40.8359616" lon="17.3259205"><ele>385.0</ele><time>2026-05-02T15:18:42.489Z</time></trkpt><trkpt lat="40.8359495" lon="17.3260453"><ele>385.50000000000006</ele><time>2026-05-02T15:18:43.489Z</time></trkpt><trkpt lat="40.8359478" lon="17.3261648"><ele>386.0</ele><time>2026-05-02T15:18:44.489Z</time></trkpt><trkpt lat="40.8359483" lon="17.3262546"><ele>386.5</ele><time>2026-05-02T15:18:45.489Z</time></trkpt><trkpt lat="40.8359483" lon="17.3263524"><ele>387.0</ele><time>2026-05-02T15:18:46.488Z</time></trkpt><trkpt lat="40.8359429" lon="17.3264401"><ele>387.50000000000006</ele><time>2026-05-02T15:18:47.489Z</time></trkpt><trkpt lat="40.8358783" lon="17.3265291"><ele>388.0</ele><time>2026-05-02T15:18:48.489Z</time></trkpt><trkpt lat="40.8358268" lon="17.326614"><ele>386.79999999999995</ele><time>2026-05-02T15:18:49.489Z</time></trkpt><trkpt lat="40.835775" lon="17.326692"><ele>385.6</ele><time>2026-05-02T15:18:50.489Z</time></trkpt><trkpt lat="40.8357063" lon="17.3267743"><ele>384.4</ele><time>2026-05-02T15:18:51.489Z</time></trkpt><trkpt lat="40.8356407" lon="17.3268628"><ele>383.20000000000005</ele><time>2026-05-02T15:18:52.49Z</time></trkpt><trkpt lat="40.8355755" lon="17.3269544"><ele>382.0</ele><time>2026-05-02T15:18:53.49Z</time></trkpt><trkpt lat="40.835521" lon="17.3270515"><ele>382.0</ele><time>2026-05-02T15:18:54.489Z</time></trkpt><trkpt lat="40.8354684" lon="17.327156"><ele>382.0</ele><time>2026-05-02T15:18:55.488Z</time></trkpt><trkpt lat="40.8354158" lon="17.3272566"><ele>382.0</ele><time>2026-05-02T15:18:56.489Z</time></trkpt><trkpt lat="40.835363" lon="17.327349"><ele>382.0</ele><time>2026-05-02T15:18:57.489Z</time></trkpt><trkpt lat="40.8353169" lon="17.3274254"><ele>382.0</ele><time>2026-05-02T15:18:58.489Z</time></trkpt><trkpt lat="40.8352675" lon="17.3275117"><ele>382.0</ele><time>2026-05-02T15:18:59.489Z</time></trkpt><trkpt lat="40.8352097" lon="17.3275836"><ele>381.20000000000005</ele><time>2026-05-02T15:19:00.489Z</time></trkpt><trkpt lat="40.8351541" lon="17.3276553"><ele>380.4</ele><time>2026-05-02T15:19:01.489Z</time></trkpt><trkpt lat="40.8350939" lon="17.3277321"><ele>379.6</ele><time>2026-05-02T15:19:02.489Z</time></trkpt><trkpt lat="40.8349909" lon="17.3277815"><ele>378.79999999999995</ele><time>2026-05-02T15:19:03.489Z</time></trkpt><trkpt lat="40.8348896" lon="17.3277109"><ele>378.0</ele><time>2026-05-02T15:19:04.489Z</time></trkpt><trkpt lat="40.8348034" lon="17.327705"><ele>378.0</ele><time>2026-05-02T15:19:05.489Z</time></trkpt><trkpt lat="40.8346959" lon="17.3277135"><ele>378.0</ele><time>2026-05-02T15:19:06.489Z</time></trkpt><trkpt lat="40.8346058" lon="17.3277483"><ele>378.0</ele><time>2026-05-02T15:19:07.489Z</time></trkpt><trkpt lat="40.8345251" lon="17.3277864"><ele>378.0</ele><time>2026-05-02T15:19:08.488Z</time></trkpt><trkpt lat="40.8344475" lon="17.3278308"><ele>378.0</ele><time>2026-05-02T15:19:09.488Z</time></trkpt><trkpt lat="40.834378" lon="17.3278798"><ele>378.0</ele><time>2026-05-02T15:19:10.488Z</time></trkpt><trkpt lat="40.8343258" lon="17.3279287"><ele>378.0</ele><time>2026-05-02T15:19:11.488Z</time></trkpt><trkpt lat="40.8342691" lon="17.3280004"><ele>378.0</ele><time>2026-05-02T15:19:12.49Z</time></trkpt><trkpt lat="40.8342315" lon="17.3280965"><ele>378.0</ele><time>2026-05-02T15:19:13.49Z</time></trkpt><trkpt lat="40.834193" lon="17.3282011"><ele>378.0</ele><time>2026-05-02T15:19:14.49Z</time></trkpt><trkpt lat="40.8341518" lon="17.3283052"><ele>378.0</ele><time>2026-05-02T15:19:15.489Z</time></trkpt><trkpt lat="40.834107" lon="17.3284199"><ele>377.4</ele><time>2026-05-02T15:19:16.489Z</time></trkpt><trkpt lat="40.8340699" lon="17.3285312"><ele>376.79999999999995</ele><time>2026-05-02T15:19:17.489Z</time></trkpt><trkpt lat="40.8340174" lon="17.3286425"><ele>376.2</ele><time>2026-05-02T15:19:18.49Z</time></trkpt><trkpt lat="40.8339565" lon="17.3287564"><ele>375.6</ele><time>2026-05-02T15:19:19.489Z</time></trkpt><trkpt lat="40.8338872" lon="17.3288668"><ele>375.0</ele><time>2026-05-02T15:19:20.489Z</time></trkpt><trkpt lat="40.8338134" lon="17.3289846"><ele>377.0</ele><time>2026-05-02T15:19:21.489Z</time></trkpt><trkpt lat="40.8337318" lon="17.3290926"><ele>379.0</ele><time>2026-05-02T15:19:22.488Z</time></trkpt><trkpt lat="40.8336434" lon="17.3292049"><ele>381.0</ele><time>2026-05-02T15:19:23.489Z</time></trkpt><trkpt lat="40.8335554" lon="17.3293112"><ele>383.0</ele><time>2026-05-02T15:19:24.489Z</time></trkpt><trkpt lat="40.8334637" lon="17.3294186"><ele>383.0</ele><time>2026-05-02T15:19:25.489Z</time></trkpt><trkpt lat="40.8333701" lon="17.3295341"><ele>383.0</ele><time>2026-05-02T15:19:26.489Z</time></trkpt><trkpt lat="40.8332736" lon="17.3296433"><ele>383.0</ele><time>2026-05-02T15:19:27.489Z</time></trkpt><trkpt lat="40.8331726" lon="17.3297499"><ele>383.0</ele><time>2026-05-02T15:19:28.489Z</time></trkpt><trkpt lat="40.833072" lon="17.3298508"><ele>378.25</ele><time>2026-05-02T15:19:29.489Z</time></trkpt><trkpt lat="40.8329668" lon="17.3299564"><ele>373.5</ele><time>2026-05-02T15:19:30.489Z</time></trkpt><trkpt lat="40.8328605" lon="17.3300609"><ele>368.75</ele><time>2026-05-02T15:19:31.488Z</time></trkpt><trkpt lat="40.8327537" lon="17.330172"><ele>364.0</ele><time>2026-05-02T15:19:32.488Z</time></trkpt><trkpt lat="40.8326579" lon="17.3302823"><ele>363.75</ele><time>2026-05-02T15:19:33.488Z</time></trkpt><trkpt lat="40.8325698" lon="17.3304165"><ele>363.5</ele><time>2026-05-02T15:19:34.489Z</time></trkpt><trkpt lat="40.8324827" lon="17.3305565"><ele>363.25</ele><time>2026-05-02T15:19:35.489Z</time></trkpt><trkpt lat="40.8323971" lon="17.3306887"><ele>363.0</ele><time>2026-05-02T15:19:36.489Z</time></trkpt><trkpt lat="40.8322997" lon="17.3308176"><ele>363.0</ele><time>2026-05-02T15:19:37.489Z</time></trkpt><trkpt lat="40.8322051" lon="17.3309531"><ele>363.0</ele><time>2026-05-02T15:19:38.49Z</time></trkpt><trkpt lat="40.8321081" lon="17.3310846"><ele>363.0</ele><time>2026-05-02T15:19:39.49Z</time></trkpt><trkpt lat="40.8320239" lon="17.3312234"><ele>363.0</ele><time>2026-05-02T15:19:40.489Z</time></trkpt><trkpt lat="40.8319433" lon="17.3313684"><ele>365.5</ele><time>2026-05-02T15:19:41.489Z</time></trkpt><trkpt lat="40.831867" lon="17.3315111"><ele>368.0</ele><time>2026-05-02T15:19:42.489Z</time></trkpt><trkpt lat="40.8317876" lon="17.3316544"><ele>370.5</ele><time>2026-05-02T15:19:43.489Z</time></trkpt><trkpt lat="40.831714" lon="17.331811"><ele>373.0</ele><time>2026-05-02T15:19:44.488Z</time></trkpt><trkpt lat="40.8316436" lon="17.3319537"><ele>373.0</ele><time>2026-05-02T15:19:45.489Z</time></trkpt><trkpt lat="40.8315714" lon="17.3320981"><ele>373.0</ele><time>2026-05-02T15:19:46.489Z</time></trkpt><trkpt lat="40.831512" lon="17.3322402"><ele>373.0</ele><time>2026-05-02T15:19:47.489Z</time></trkpt><trkpt lat="40.8314566" lon="17.3323897"><ele>373.0</ele><time>2026-05-02T15:19:48.489Z</time></trkpt><trkpt lat="40.8314104" lon="17.3325389"><ele>371.0</ele><time>2026-05-02T15:19:49.488Z</time></trkpt><trkpt lat="40.8313804" lon="17.3326705"><ele>369.0</ele><time>2026-05-02T15:19:50.488Z</time></trkpt><trkpt lat="40.8313527" lon="17.3328102"><ele>367.0</ele><time>2026-05-02T15:19:51.489Z</time></trkpt><trkpt lat="40.8313153" lon="17.3329447"><ele>365.0</ele><time>2026-05-02T15:19:52.489Z</time></trkpt><trkpt lat="40.8312703" lon="17.3330799"><ele>363.0</ele><time>2026-05-02T15:19:53.49Z</time></trkpt><trkpt lat="40.8312182" lon="17.3332035"><ele>363.5</ele><time>2026-05-02T15:19:54.489Z</time></trkpt><trkpt lat="40.8311657" lon="17.3333275"><ele>364.0</ele><time>2026-05-02T15:19:55.488Z</time></trkpt><trkpt lat="40.8311043" lon="17.3333905"><ele>364.5</ele><time>2026-05-02T15:19:56.489Z</time></trkpt><trkpt lat="40.8310342" lon="17.3334309"><ele>365.0</ele><time>2026-05-02T15:19:57.488Z</time></trkpt><trkpt lat="40.8309539" lon="17.3334618"><ele>365.5</ele><time>2026-05-02T15:19:58.489Z</time></trkpt><trkpt lat="40.8308766" lon="17.3334374"><ele>366.0</ele><time>2026-05-02T15:20:00.488Z</time></trkpt><trkpt lat="40.830815" lon="17.3333224"><ele>366.0</ele><time>2026-05-02T15:20:01.49Z</time></trkpt><trkpt lat="40.830778" lon="17.3332525"><ele>366.0</ele><time>2026-05-02T15:20:02.488Z</time></trkpt><trkpt lat="40.8307354" lon="17.3331851"><ele>366.0</ele><time>2026-05-02T15:20:03.488Z</time></trkpt><trkpt lat="40.8306895" lon="17.3331165"><ele>366.0</ele><time>2026-05-02T15:20:04.489Z</time></trkpt><trkpt lat="40.8306341" lon="17.3330614"><ele>366.0</ele><time>2026-05-02T15:20:05.489Z</time></trkpt><trkpt lat="40.8305216" lon="17.3330272"><ele>366.0</ele><time>2026-05-02T15:20:07.489Z</time></trkpt><trkpt lat="40.8304351" lon="17.3330877"><ele>366.0</ele><time>2026-05-02T15:20:09.488Z</time></trkpt><trkpt lat="40.8303919" lon="17.333171"><ele>366.0</ele><time>2026-05-02T15:20:10.488Z</time></trkpt><trkpt lat="40.8303424" lon="17.3332489"><ele>366.0</ele><time>2026-05-02T15:20:11.489Z</time></trkpt><trkpt lat="40.8302895" lon="17.3333181"><ele>366.0</ele><time>2026-05-02T15:20:12.488Z</time></trkpt><trkpt lat="40.8302273" lon="17.3333768"><ele>366.0</ele><time>2026-05-02T15:20:13.488Z</time></trkpt><trkpt lat="40.8301593" lon="17.3334403"><ele>366.0</ele><time>2026-05-02T15:20:14.487Z</time></trkpt><trkpt lat="40.8300891" lon="17.3335004"><ele>367.1666666666667</ele><time>2026-05-02T15:20:15.488Z</time></trkpt><trkpt lat="40.8300188" lon="17.33355"><ele>368.3333333333333</ele><time>2026-05-02T15:20:16.488Z</time></trkpt><trkpt lat="40.8299503" lon="17.3335938"><ele>369.5</ele><time>2026-05-02T15:20:17.488Z</time></trkpt><trkpt lat="40.8298797" lon="17.3336409"><ele>370.66666666666663</ele><time>2026-05-02T15:20:18.487Z</time></trkpt><trkpt lat="40.8298145" lon="17.3336896"><ele>371.8333333333333</ele><time>2026-05-02T15:20:19.488Z</time></trkpt><trkpt lat="40.8297616" lon="17.3337415"><ele>373.0</ele><time>2026-05-02T15:20:20.488Z</time></trkpt><trkpt lat="40.8297233" lon="17.3338611"><ele>371.42857142857144</ele><time>2026-05-02T15:20:22.487Z</time></trkpt><trkpt lat="40.8297254" lon="17.3339454"><ele>369.8571428571429</ele><time>2026-05-02T15:20:23.488Z</time></trkpt><trkpt lat="40.8297244" lon="17.3340332"><ele>368.2857142857143</ele><time>2026-05-02T15:20:24.488Z</time></trkpt><trkpt lat="40.829735" lon="17.3341155"><ele>366.7142857142857</ele><time>2026-05-02T15:20:25.489Z</time></trkpt><trkpt lat="40.8297474" lon="17.3342161"><ele>365.1428571428571</ele><time>2026-05-02T15:20:26.487Z</time></trkpt><trkpt lat="40.8297552" lon="17.3343243"><ele>363.57142857142856</ele><time>2026-05-02T15:20:27.488Z</time></trkpt><trkpt lat="40.8297614" lon="17.3344273"><ele>362.0</ele><time>2026-05-02T15:20:28.489Z</time></trkpt><trkpt lat="40.8297683" lon="17.3345327"><ele>362.0</ele><time>2026-05-02T15:20:29.487Z</time></trkpt><trkpt lat="40.8297704" lon="17.334636"><ele>362.0</ele><time>2026-05-02T15:20:30.489Z</time></trkpt><trkpt lat="40.8297703" lon="17.3347451"><ele>362.0</ele><time>2026-05-02T15:20:31.487Z</time></trkpt><trkpt lat="40.8297705" lon="17.3348577"><ele>362.0</ele><time>2026-05-02T15:20:32.488Z</time></trkpt><trkpt lat="40.8297667" lon="17.3349735"><ele>362.0</ele><time>2026-05-02T15:20:33.488Z</time></trkpt><trkpt lat="40.8297608" lon="17.3350852"><ele>362.0</ele><time>2026-05-02T15:20:34.488Z</time></trkpt><trkpt lat="40.8297461" lon="17.3351911"><ele>358.83333333333337</ele><time>2026-05-02T15:20:35.488Z</time></trkpt><trkpt lat="40.8297265" lon="17.3352902"><ele>355.6666666666667</ele><time>2026-05-02T15:20:36.488Z</time></trkpt><trkpt lat="40.829706" lon="17.3353902"><ele>352.5</ele><time>2026-05-02T15:20:37.488Z</time></trkpt><trkpt lat="40.8296835" lon="17.335484"><ele>349.3333333333333</ele><time>2026-05-02T15:20:38.488Z</time></trkpt><trkpt lat="40.829658" lon="17.3355708"><ele>346.16666666666663</ele><time>2026-05-02T15:20:39.488Z</time></trkpt><trkpt lat="40.8296211" lon="17.3357178"><ele>343.0</ele><time>2026-05-02T15:20:41.488Z</time></trkpt><trkpt lat="40.8296082" lon="17.3357994"><ele>340.2</ele><time>2026-05-02T15:20:42.488Z</time></trkpt><trkpt lat="40.8295838" lon="17.3359504"><ele>337.4</ele><time>2026-05-02T15:20:44.488Z</time></trkpt><trkpt lat="40.8295428" lon="17.336101"><ele>334.59999999999997</ele><time>2026-05-02T15:20:46.488Z</time></trkpt><trkpt lat="40.8295136" lon="17.3361791"><ele>331.79999999999995</ele><time>2026-05-02T15:20:47.487Z</time></trkpt><trkpt lat="40.8294816" lon="17.3362519"><ele>329.0</ele><time>2026-05-02T15:20:48.488Z</time></trkpt><trkpt lat="40.8294044" lon="17.33636"><ele>329.0</ele><time>2026-05-02T15:20:50.488Z</time></trkpt><trkpt lat="40.8293451" lon="17.3364598"><ele>329.0</ele><time>2026-05-02T15:20:52.489Z</time></trkpt><trkpt lat="40.8294047" lon="17.3365486"><ele>329.0</ele><time>2026-05-02T15:20:55.488Z</time></trkpt><trkpt lat="40.8294964" lon="17.3364872"><ele>329.0</ele><time>2026-05-02T15:20:57.487Z</time></trkpt><trkpt lat="40.8295893" lon="17.3363738"><ele>329.0</ele><time>2026-05-02T15:20:59.489Z</time></trkpt><trkpt lat="40.8296377" lon="17.3363144"><ele>329.0</ele><time>2026-05-02T15:21:00.487Z</time></trkpt><trkpt lat="40.8296856" lon="17.3362459"><ele>329.0</ele><time>2026-05-02T15:21:01.487Z</time></trkpt><trkpt lat="40.8297362" lon="17.3361827"><ele>329.0</ele><time>2026-05-02T15:21:02.489Z</time></trkpt><trkpt lat="40.8297821" lon="17.3361087"><ele>329.0</ele><time>2026-05-02T15:21:03.487Z</time></trkpt><trkpt lat="40.8298322" lon="17.3360268"><ele>329.0</ele><time>2026-05-02T15:21:04.489Z</time></trkpt><trkpt lat="40.8298964" lon="17.3359259"><ele>329.0</ele><time>2026-05-02T15:21:05.488Z</time></trkpt><trkpt lat="40.8299488" lon="17.3358402"><ele>329.0</ele><time>2026-05-02T15:21:06.488Z</time></trkpt><trkpt lat="40.830002" lon="17.3357737"><ele>329.0</ele><time>2026-05-02T15:21:07.489Z</time></trkpt><trkpt lat="40.8300471" lon="17.3357011"><ele>329.0</ele><time>2026-05-02T15:21:08.488Z</time></trkpt><trkpt lat="40.8301062" lon="17.3355705"><ele>329.0</ele><time>2026-05-02T15:21:10.489Z</time></trkpt><trkpt lat="40.830152" lon="17.3354411"><ele>329.0</ele><time>2026-05-02T15:21:12.488Z</time></trkpt><trkpt lat="40.8301764" lon="17.3353535"><ele>329.0</ele><time>2026-05-02T15:21:14.489Z</time></trkpt><trkpt lat="40.830189" lon="17.3352519"><ele>326.5</ele><time>2026-05-02T15:21:16.489Z</time></trkpt><trkpt lat="40.8302011" lon="17.3351438"><ele>324.0</ele><time>2026-05-02T15:21:19.488Z</time></trkpt><trkpt lat="40.8302653" lon="17.3351349"><ele>321.5</ele><time>2026-05-02T15:21:23.489Z</time></trkpt><trkpt lat="40.8302664" lon="17.3352199"><ele>319.0</ele><time>2026-05-02T15:21:25.487Z</time></trkpt><trkpt lat="40.8302459" lon="17.3353433"><ele>316.5</ele><time>2026-05-02T15:21:27.488Z</time></trkpt><trkpt lat="40.8302367" lon="17.3355037"><ele>314.0</ele><time>2026-05-02T15:21:29.488Z</time></trkpt><trkpt lat="40.8302324" lon="17.3355901"><ele>310.83333333333337</ele><time>2026-05-02T15:21:30.489Z</time></trkpt><trkpt lat="40.8302282" lon="17.3356743"><ele>307.6666666666667</ele><time>2026-05-02T15:21:31.488Z</time></trkpt><trkpt lat="40.8302186" lon="17.3357573"><ele>304.5</ele><time>2026-05-02T15:21:32.488Z</time></trkpt><trkpt lat="40.8302137" lon="17.3358497"><ele>301.3333333333333</ele><time>2026-05-02T15:21:33.488Z</time></trkpt><trkpt lat="40.8302072" lon="17.335939"><ele>298.16666666666663</ele><time>2026-05-02T15:21:34.489Z</time></trkpt><trkpt lat="40.8301982" lon="17.336029"><ele>295.0</ele><time>2026-05-02T15:21:35.488Z</time></trkpt><trkpt lat="40.8301716" lon="17.3361795"><ele>295.00000000000006</ele><time>2026-05-02T15:21:37.489Z</time></trkpt><trkpt lat="40.8301626" lon="17.3362756"><ele>295.0</ele><time>2026-05-02T15:21:38.487Z</time></trkpt><trkpt lat="40.8301559" lon="17.3363749"><ele>295.0</ele><time>2026-05-02T15:21:39.488Z</time></trkpt><trkpt lat="40.8301306" lon="17.3364665"><ele>295.0</ele><time>2026-05-02T15:21:40.489Z</time></trkpt><trkpt lat="40.8301039" lon="17.3365544"><ele>295.0</ele><time>2026-05-02T15:21:41.488Z</time></trkpt><trkpt lat="40.8300794" lon="17.3366446"><ele>295.00000000000006</ele><time>2026-05-02T15:21:42.488Z</time></trkpt><trkpt lat="40.8300451" lon="17.3367164"><ele>295.0</ele><time>2026-05-02T15:21:43.488Z</time></trkpt><trkpt lat="40.829991" lon="17.336851"><ele>294.5</ele><time>2026-05-02T15:21:45.488Z</time></trkpt><trkpt lat="40.8299357" lon="17.3369807"><ele>294.0</ele><time>2026-05-02T15:21:47.489Z</time></trkpt><trkpt lat="40.8298829" lon="17.3371189"><ele>293.5</ele><time>2026-05-02T15:21:49.487Z</time></trkpt><trkpt lat="40.8298161" lon="17.3372403"><ele>293.0</ele><time>2026-05-02T15:21:51.488Z</time></trkpt><trkpt lat="40.8297459" lon="17.3373674"><ele>293.0</ele><time>2026-05-02T15:21:53.487Z</time></trkpt><trkpt lat="40.8296666" lon="17.3374538"><ele>293.0</ele><time>2026-05-02T15:21:55.489Z</time></trkpt><trkpt lat="40.8295673" lon="17.3374828"><ele>293.0</ele><time>2026-05-02T15:21:57.488Z</time></trkpt><trkpt lat="40.8294792" lon="17.3374599"><ele>293.0</ele><time>2026-05-02T15:21:59.489Z</time></trkpt><trkpt lat="40.8294123" lon="17.3374523"><ele>293.0</ele><time>2026-05-02T15:22:01.488Z</time></trkpt><trkpt lat="40.8293891" lon="17.337557"><ele>293.0</ele><time>2026-05-02T15:22:04.488Z</time></trkpt><trkpt lat="40.82949" lon="17.3376143"><ele>293.0</ele><time>2026-05-02T15:22:06.489Z</time></trkpt><trkpt lat="40.829554" lon="17.3376321"><ele>293.0</ele><time>2026-05-02T15:22:07.487Z</time></trkpt><trkpt lat="40.8296175" lon="17.3376433"><ele>293.0</ele><time>2026-05-02T15:22:08.488Z</time></trkpt><trkpt lat="40.8296812" lon="17.3376469"><ele>293.0</ele><time>2026-05-02T15:22:09.489Z</time></trkpt><trkpt lat="40.8298024" lon="17.3376266"><ele>293.0</ele><time>2026-05-02T15:22:11.489Z</time></trkpt><trkpt lat="40.8298664" lon="17.3376061"><ele>293.0</ele><time>2026-05-02T15:22:12.489Z</time></trkpt><trkpt lat="40.8299799" lon="17.3375481"><ele>293.0</ele><time>2026-05-02T15:22:14.488Z</time></trkpt><trkpt lat="40.8300692" lon="17.3374719"><ele>293.0</ele><time>2026-05-02T15:22:16.489Z</time></trkpt><trkpt lat="40.8301301" lon="17.3374179"><ele>293.0</ele><time>2026-05-02T15:22:18.488Z</time></trkpt><trkpt lat="40.8301866" lon="17.3373508"><ele>293.0</ele><time>2026-05-02T15:22:21.488Z</time></trkpt><trkpt lat="40.8302517" lon="17.3373923"><ele>293.0</ele><time>2026-05-02T15:22:25.487Z</time></trkpt><trkpt lat="40.8302173" lon="17.3374733"><ele>293.0</ele><time>2026-05-02T15:22:28.488Z</time></trkpt><trkpt lat="40.8301475" lon="17.3375693"><ele>293.0</ele><time>2026-05-02T15:22:30.488Z</time></trkpt><trkpt lat="40.8300667" lon="17.3376887"><ele>293.0</ele><time>2026-05-02T15:22:32.487Z</time></trkpt><trkpt lat="40.8300245" lon="17.3377585"><ele>293.0</ele><time>2026-05-02T15:22:33.488Z</time></trkpt><trkpt lat="40.8299742" lon="17.3378252"><ele>293.0</ele><time>2026-05-02T15:22:34.488Z</time></trkpt><trkpt lat="40.8299216" lon="17.337893"><ele>293.0</ele><time>2026-05-02T15:22:35.488Z</time></trkpt><trkpt lat="40.8298618" lon="17.3379305"><ele>293.0</ele><time>2026-05-02T15:22:36.488Z</time></trkpt><trkpt lat="40.8297654" lon="17.3379631"><ele>293.0</ele><time>2026-05-02T15:22:38.488Z</time></trkpt><trkpt lat="40.8297032" lon="17.3380437"><ele>293.0</ele><time>2026-05-02T15:22:40.488Z</time></trkpt><trkpt lat="40.8297718" lon="17.3380821"><ele>293.0</ele><time>2026-05-02T15:22:42.488Z</time></trkpt><trkpt lat="40.8298649" lon="17.3380623"><ele>293.0</ele><time>2026-05-02T15:22:44.488Z</time></trkpt><trkpt lat="40.8299682" lon="17.3380195"><ele>293.0</ele><time>2026-05-02T15:22:46.489Z</time></trkpt><trkpt lat="40.8300291" lon="17.3379961"><ele>293.0</ele><time>2026-05-02T15:22:47.488Z</time></trkpt><trkpt lat="40.8301039" lon="17.3379656"><ele>289.0</ele><time>2026-05-02T15:22:48.488Z</time></trkpt><trkpt lat="40.8301715" lon="17.3379237"><ele>285.0</ele><time>2026-05-02T15:22:49.489Z</time></trkpt><trkpt lat="40.8302362" lon="17.3378599"><ele>281.0</ele><time>2026-05-02T15:22:50.488Z</time></trkpt><trkpt lat="40.8303054" lon="17.3378091"><ele>277.0</ele><time>2026-05-02T15:22:51.488Z</time></trkpt><trkpt lat="40.8303744" lon="17.3377391"><ele>273.0</ele><time>2026-05-02T15:22:52.487Z</time></trkpt><trkpt lat="40.8304346" lon="17.3376859"><ele>269.0</ele><time>2026-05-02T15:22:53.488Z</time></trkpt><trkpt lat="40.8304839" lon="17.3376338"><ele>269.0</ele><time>2026-05-02T15:22:54.488Z</time></trkpt><trkpt lat="40.8305521" lon="17.3375555"><ele>269.0</ele><time>2026-05-02T15:22:56.487Z</time></trkpt><trkpt lat="40.8306112" lon="17.3375113"><ele>269.0</ele><time>2026-05-02T15:22:59.488Z</time></trkpt><trkpt lat="40.8306265" lon="17.3376225"><ele>269.0</ele><time>2026-05-02T15:23:03.487Z</time></trkpt><trkpt lat="40.8305226" lon="17.3377613"><ele>269.0</ele><time>2026-05-02T15:23:06.488Z</time></trkpt><trkpt lat="40.8304671" lon="17.3378805"><ele>269.0</ele><time>2026-05-02T15:23:08.487Z</time></trkpt><trkpt lat="40.8304392" lon="17.3379606"><ele>269.0</ele><time>2026-05-02T15:23:09.487Z</time></trkpt><trkpt lat="40.8304055" lon="17.3380317"><ele>269.0</ele><time>2026-05-02T15:23:10.487Z</time></trkpt><trkpt lat="40.830339" lon="17.3381831"><ele>269.0</ele><time>2026-05-02T15:23:12.486Z</time></trkpt><trkpt lat="40.830315" lon="17.3382719"><ele>269.0</ele><time>2026-05-02T15:23:13.487Z</time></trkpt><trkpt lat="40.8302661" lon="17.3383363"><ele>269.0</ele><time>2026-05-02T15:23:14.488Z</time></trkpt><trkpt lat="40.8302432" lon="17.3384141"><ele>269.33333333333337</ele><time>2026-05-02T15:23:15.487Z</time></trkpt><trkpt lat="40.8301764" lon="17.3384726"><ele>269.6666666666667</ele><time>2026-05-02T15:23:16.487Z</time></trkpt><trkpt lat="40.8301156" lon="17.3385367"><ele>270.0</ele><time>2026-05-02T15:23:17.487Z</time></trkpt><trkpt lat="40.8300609" lon="17.3385793"><ele>270.3333333333333</ele><time>2026-05-02T15:23:18.487Z</time></trkpt><trkpt lat="40.8300074" lon="17.3386271"><ele>270.66666666666663</ele><time>2026-05-02T15:23:19.486Z</time></trkpt><trkpt lat="40.8299268" lon="17.3387145"><ele>271.0</ele><time>2026-05-02T15:23:21.487Z</time></trkpt><trkpt lat="40.8299742" lon="17.3387945"><ele>271.0</ele><time>2026-05-02T15:23:24.487Z</time></trkpt><trkpt lat="40.83006" lon="17.3387666"><ele>271.0</ele><time>2026-05-02T15:23:26.487Z</time></trkpt><trkpt lat="40.8301485" lon="17.3386992"><ele>271.0</ele><time>2026-05-02T15:23:28.486Z</time></trkpt><trkpt lat="40.8302151" lon="17.3386704"><ele>271.0</ele><time>2026-05-02T15:23:30.487Z</time></trkpt><trkpt lat="40.8302486" lon="17.3387538"><ele>271.0</ele><time>2026-05-02T15:23:33.487Z</time></trkpt><trkpt lat="40.830171" lon="17.3388156"><ele>271.0</ele><time>2026-05-02T15:23:35.486Z</time></trkpt><trkpt lat="40.830095" lon="17.3389248"><ele>266.8</ele><time>2026-05-02T15:23:37.487Z</time></trkpt><trkpt lat="40.8300083" lon="17.3390504"><ele>262.6</ele><time>2026-05-02T15:23:39.486Z</time></trkpt><trkpt lat="40.829966" lon="17.3391165"><ele>258.4</ele><time>2026-05-02T15:23:40.487Z</time></trkpt><trkpt lat="40.8299361" lon="17.3392217"><ele>254.2</ele><time>2026-05-02T15:23:41.487Z</time></trkpt><trkpt lat="40.8298962" lon="17.3393017"><ele>250.0</ele><time>2026-05-02T15:23:42.486Z</time></trkpt><trkpt lat="40.8298037" lon="17.3394232"><ele>250.0</ele><time>2026-05-02T15:23:44.487Z</time></trkpt><trkpt lat="40.8297403" lon="17.3395704"><ele>250.0</ele><time>2026-05-02T15:23:46.487Z</time></trkpt><trkpt lat="40.8297249" lon="17.3396626"><ele>250.0</ele><time>2026-05-02T15:23:47.488Z</time></trkpt><trkpt lat="40.8297281" lon="17.3398457"><ele>250.0</ele><time>2026-05-02T15:23:49.486Z</time></trkpt><trkpt lat="40.829722" lon="17.3399428"><ele>250.0</ele><time>2026-05-02T15:23:50.487Z</time></trkpt><trkpt lat="40.82972" lon="17.3400376"><ele>247.6</ele><time>2026-05-02T15:23:51.487Z</time></trkpt><trkpt lat="40.8297159" lon="17.3401261"><ele>245.2</ele><time>2026-05-02T15:23:52.487Z</time></trkpt><trkpt lat="40.8297131" lon="17.3402714"><ele>242.8</ele><time>2026-05-02T15:23:54.487Z</time></trkpt><trkpt lat="40.8297165" lon="17.3404278"><ele>240.4</ele><time>2026-05-02T15:23:56.488Z</time></trkpt><trkpt lat="40.8297098" lon="17.3405152"><ele>238.0</ele><time>2026-05-02T15:23:57.487Z</time></trkpt><trkpt lat="40.8296817" lon="17.3406853"><ele>236.16666666666666</ele><time>2026-05-02T15:23:59.486Z</time></trkpt><trkpt lat="40.8296573" lon="17.3407901"><ele>234.33333333333331</ele><time>2026-05-02T15:24:00.486Z</time></trkpt><trkpt lat="40.8296177" lon="17.3408811"><ele>232.5</ele><time>2026-05-02T15:24:01.487Z</time></trkpt><trkpt lat="40.8295733" lon="17.3409665"><ele>230.66666666666669</ele><time>2026-05-02T15:24:02.488Z</time></trkpt><trkpt lat="40.8295255" lon="17.3410508"><ele>228.83333333333334</ele><time>2026-05-02T15:24:03.487Z</time></trkpt><trkpt lat="40.8294757" lon="17.3411373"><ele>227.0</ele><time>2026-05-02T15:24:04.487Z</time></trkpt><trkpt lat="40.8294233" lon="17.3412384"><ele>227.0</ele><time>2026-05-02T15:24:05.487Z</time></trkpt><trkpt lat="40.8293736" lon="17.3413481"><ele>227.0</ele><time>2026-05-02T15:24:06.487Z</time></trkpt><trkpt lat="40.8293272" lon="17.3414564"><ele>227.0</ele><time>2026-05-02T15:24:07.487Z</time></trkpt><trkpt lat="40.8292923" lon="17.3415674"><ele>227.0</ele><time>2026-05-02T15:24:08.487Z</time></trkpt><trkpt lat="40.8292599" lon="17.3416708"><ele>227.0</ele><time>2026-05-02T15:24:09.487Z</time></trkpt><trkpt lat="40.8292276" lon="17.341777"><ele>227.66666666666669</ele><time>2026-05-02T15:24:10.487Z</time></trkpt><trkpt lat="40.8291943" lon="17.3418769"><ele>228.33333333333334</ele><time>2026-05-02T15:24:11.486Z</time></trkpt><trkpt lat="40.8291525" lon="17.3419691"><ele>229.0</ele><time>2026-05-02T15:24:12.486Z</time></trkpt><trkpt lat="40.8291171" lon="17.3420667"><ele>229.66666666666669</ele><time>2026-05-02T15:24:13.487Z</time></trkpt><trkpt lat="40.8290545" lon="17.3421475"><ele>230.33333333333334</ele><time>2026-05-02T15:24:14.486Z</time></trkpt><trkpt lat="40.8289984" lon="17.3422351"><ele>231.0</ele><time>2026-05-02T15:24:15.487Z</time></trkpt><trkpt lat="40.8289316" lon="17.3423152"><ele>228.5</ele><time>2026-05-02T15:24:16.486Z</time></trkpt><trkpt lat="40.8288628" lon="17.3423947"><ele>226.0</ele><time>2026-05-02T15:24:17.487Z</time></trkpt><trkpt lat="40.8287986" lon="17.3424769"><ele>223.5</ele><time>2026-05-02T15:24:18.487Z</time></trkpt><trkpt lat="40.8287422" lon="17.3425567"><ele>221.0</ele><time>2026-05-02T15:24:19.487Z</time></trkpt><trkpt lat="40.8286859" lon="17.3426327"><ele>218.5</ele><time>2026-05-02T15:24:20.487Z</time></trkpt><trkpt lat="40.828628" lon="17.3427252"><ele>216.0</ele><time>2026-05-02T15:24:21.486Z</time></trkpt><trkpt lat="40.8285863" lon="17.3427991"><ele>216.0</ele><time>2026-05-02T15:24:22.487Z</time></trkpt><trkpt lat="40.8285576" lon="17.3428821"><ele>216.0</ele><time>2026-05-02T15:24:23.488Z</time></trkpt><trkpt lat="40.8285316" lon="17.3429672"><ele>216.0</ele><time>2026-05-02T15:24:24.487Z</time></trkpt><trkpt lat="40.8285168" lon="17.3430693"><ele>216.0</ele><time>2026-05-02T15:24:25.487Z</time></trkpt><trkpt lat="40.8285055" lon="17.3431893"><ele>216.0</ele><time>2026-05-02T15:24:26.486Z</time></trkpt><trkpt lat="40.8285461" lon="17.3433359"><ele>216.0</ele><time>2026-05-02T15:24:27.487Z</time></trkpt><trkpt lat="40.8285554" lon="17.343457"><ele>215.60000000000002</ele><time>2026-05-02T15:24:28.487Z</time></trkpt><trkpt lat="40.8285584" lon="17.3436038"><ele>215.20000000000002</ele><time>2026-05-02T15:24:29.488Z</time></trkpt><trkpt lat="40.8285704" lon="17.343743"><ele>214.79999999999998</ele><time>2026-05-02T15:24:30.488Z</time></trkpt><trkpt lat="40.8285753" lon="17.3438834"><ele>214.39999999999998</ele><time>2026-05-02T15:24:31.487Z</time></trkpt><trkpt lat="40.8285624" lon="17.3440134"><ele>214.0</ele><time>2026-05-02T15:24:32.486Z</time></trkpt><trkpt lat="40.8285673" lon="17.3441249"><ele>213.16666666666666</ele><time>2026-05-02T15:24:33.486Z</time></trkpt><trkpt lat="40.8285692" lon="17.3442409"><ele>212.33333333333331</ele><time>2026-05-02T15:24:34.488Z</time></trkpt><trkpt lat="40.8285771" lon="17.3443479"><ele>211.5</ele><time>2026-05-02T15:24:35.487Z</time></trkpt><trkpt lat="40.8285841" lon="17.3444463"><ele>210.66666666666669</ele><time>2026-05-02T15:24:36.488Z</time></trkpt><trkpt lat="40.8285895" lon="17.3445874"><ele>209.83333333333334</ele><time>2026-05-02T15:24:38.487Z</time></trkpt><trkpt lat="40.8285704" lon="17.3447048"><ele>209.0</ele><time>2026-05-02T15:24:40.487Z</time></trkpt><trkpt lat="40.8285009" lon="17.3447881"><ele>206.83333333333334</ele><time>2026-05-02T15:24:42.487Z</time></trkpt><trkpt lat="40.8283816" lon="17.3448306"><ele>204.66666666666669</ele><time>2026-05-02T15:24:44.486Z</time></trkpt><trkpt lat="40.8283144" lon="17.3448503"><ele>202.5</ele><time>2026-05-02T15:24:45.488Z</time></trkpt><trkpt lat="40.8282445" lon="17.3448699"><ele>200.33333333333331</ele><time>2026-05-02T15:24:46.487Z</time></trkpt><trkpt lat="40.8281722" lon="17.3448897"><ele>198.16666666666666</ele><time>2026-05-02T15:24:47.486Z</time></trkpt><trkpt lat="40.8280961" lon="17.3449138"><ele>196.0</ele><time>2026-05-02T15:24:48.487Z</time></trkpt><trkpt lat="40.828018" lon="17.3449392"><ele>195.99999999999997</ele><time>2026-05-02T15:24:49.486Z</time></trkpt><trkpt lat="40.8279365" lon="17.344966"><ele>196.0</ele><time>2026-05-02T15:24:50.486Z</time></trkpt><trkpt lat="40.8278511" lon="17.3449862"><ele>196.0</ele><time>2026-05-02T15:24:51.487Z</time></trkpt><trkpt lat="40.827763" lon="17.3450049"><ele>196.0</ele><time>2026-05-02T15:24:52.487Z</time></trkpt><trkpt lat="40.82767" lon="17.3450242"><ele>195.99999999999997</ele><time>2026-05-02T15:24:53.487Z</time></trkpt><trkpt lat="40.8275826" lon="17.3450358"><ele>196.0</ele><time>2026-05-02T15:24:54.487Z</time></trkpt><trkpt lat="40.82749" lon="17.3450485"><ele>195.4</ele><time>2026-05-02T15:24:55.487Z</time></trkpt><trkpt lat="40.8273932" lon="17.3450603"><ele>194.8</ele><time>2026-05-02T15:24:56.487Z</time></trkpt><trkpt lat="40.8272942" lon="17.3450713"><ele>194.20000000000002</ele><time>2026-05-02T15:24:57.487Z</time></trkpt><trkpt lat="40.827194" lon="17.3450836"><ele>193.60000000000002</ele><time>2026-05-02T15:24:58.488Z</time></trkpt><trkpt lat="40.8270975" lon="17.3450971"><ele>193.0</ele><time>2026-05-02T15:24:59.487Z</time></trkpt><trkpt lat="40.8269926" lon="17.3451141"><ele>193.0</ele><time>2026-05-02T15:25:00.486Z</time></trkpt><trkpt lat="40.8268872" lon="17.345142"><ele>193.0</ele><time>2026-05-02T15:25:01.487Z</time></trkpt><trkpt lat="40.8267796" lon="17.345174"><ele>193.0</ele><time>2026-05-02T15:25:02.487Z</time></trkpt><trkpt lat="40.8266771" lon="17.3452131"><ele>193.0</ele><time>2026-05-02T15:25:03.487Z</time></trkpt><trkpt lat="40.8265663" lon="17.3452556"><ele>193.0</ele><time>2026-05-02T15:25:04.487Z</time></trkpt><trkpt lat="40.826455" lon="17.3452994"><ele>193.75</ele><time>2026-05-02T15:25:05.487Z</time></trkpt><trkpt lat="40.8263378" lon="17.3453423"><ele>194.5</ele><time>2026-05-02T15:25:06.488Z</time></trkpt><trkpt lat="40.8262224" lon="17.3453902"><ele>195.25</ele><time>2026-05-02T15:25:07.487Z</time></trkpt><trkpt lat="40.8261055" lon="17.3454308"><ele>196.0</ele><time>2026-05-02T15:25:08.487Z</time></trkpt><trkpt lat="40.8259946" lon="17.3454719"><ele>196.5</ele><time>2026-05-02T15:25:09.486Z</time></trkpt><trkpt lat="40.8258803" lon="17.3455094"><ele>197.0</ele><time>2026-05-02T15:25:10.487Z</time></trkpt><trkpt lat="40.825763" lon="17.3455398"><ele>197.5</ele><time>2026-05-02T15:25:11.487Z</time></trkpt><trkpt lat="40.8256432" lon="17.3455739"><ele>198.0</ele><time>2026-05-02T15:25:12.487Z</time></trkpt><trkpt lat="40.8255278" lon="17.3456085"><ele>198.25</ele><time>2026-05-02T15:25:13.487Z</time></trkpt><trkpt lat="40.8253975" lon="17.3456377"><ele>198.5</ele><time>2026-05-02T15:25:14.486Z</time></trkpt><trkpt lat="40.8252676" lon="17.3456409"><ele>198.75</ele><time>2026-05-02T15:25:15.487Z</time></trkpt><trkpt lat="40.8251376" lon="17.3456433"><ele>199.0</ele><time>2026-05-02T15:25:16.487Z</time></trkpt><trkpt lat="40.8250082" lon="17.3456552"><ele>199.0</ele><time>2026-05-02T15:25:17.487Z</time></trkpt><trkpt lat="40.8248769" lon="17.3456701"><ele>199.0</ele><time>2026-05-02T15:25:18.488Z</time></trkpt><trkpt lat="40.824743" lon="17.3456845"><ele>199.0</ele><time>2026-05-02T15:25:19.487Z</time></trkpt><trkpt lat="40.8246148" lon="17.3457117"><ele>199.0</ele><time>2026-05-02T15:25:20.487Z</time></trkpt><trkpt lat="40.824496" lon="17.3457494"><ele>199.0</ele><time>2026-05-02T15:25:21.486Z</time></trkpt><trkpt lat="40.8243698" lon="17.345781"><ele>199.0</ele><time>2026-05-02T15:25:22.487Z</time></trkpt><trkpt lat="40.8242378" lon="17.3458156"><ele>199.0</ele><time>2026-05-02T15:25:23.487Z</time></trkpt><trkpt lat="40.8241127" lon="17.3458468"><ele>199.0</ele><time>2026-05-02T15:25:24.487Z</time></trkpt><trkpt lat="40.8239953" lon="17.3458867"><ele>198.75</ele><time>2026-05-02T15:25:25.487Z</time></trkpt><trkpt lat="40.823877" lon="17.3459384"><ele>198.5</ele><time>2026-05-02T15:25:26.486Z</time></trkpt><trkpt lat="40.823752" lon="17.3459929"><ele>198.25</ele><time>2026-05-02T15:25:27.486Z</time></trkpt><trkpt lat="40.8236243" lon="17.3460418"><ele>198.0</ele><time>2026-05-02T15:25:28.486Z</time></trkpt><trkpt lat="40.8235064" lon="17.3460949"><ele>197.5</ele><time>2026-05-02T15:25:29.486Z</time></trkpt><trkpt lat="40.8233845" lon="17.3461465"><ele>197.0</ele><time>2026-05-02T15:25:30.488Z</time></trkpt><trkpt lat="40.823274" lon="17.346213"><ele>196.5</ele><time>2026-05-02T15:25:31.487Z</time></trkpt><trkpt lat="40.8231647" lon="17.3462782"><ele>196.0</ele><time>2026-05-02T15:25:32.488Z</time></trkpt><trkpt lat="40.823059" lon="17.3463491"><ele>195.20000000000002</ele><time>2026-05-02T15:25:33.487Z</time></trkpt><trkpt lat="40.8229627" lon="17.3464134"><ele>194.4</ele><time>2026-05-02T15:25:34.488Z</time></trkpt><trkpt lat="40.8228735" lon="17.3464743"><ele>193.6</ele><time>2026-05-02T15:25:35.486Z</time></trkpt><trkpt lat="40.8227958" lon="17.3465281"><ele>192.8</ele><time>2026-05-02T15:25:36.488Z</time></trkpt><trkpt lat="40.8227284" lon="17.3465768"><ele>192.0</ele><time>2026-05-02T15:25:37.486Z</time></trkpt><trkpt lat="40.8226581" lon="17.3466767"><ele>192.0</ele><time>2026-05-02T15:25:39.488Z</time></trkpt><trkpt lat="40.8226763" lon="17.3467908"><ele>192.0</ele><time>2026-05-02T15:25:41.488Z</time></trkpt><trkpt lat="40.8227414" lon="17.3468176"><ele>192.0</ele><time>2026-05-02T15:25:42.486Z</time></trkpt><trkpt lat="40.8228738" lon="17.3468424"><ele>192.0</ele><time>2026-05-02T15:25:44.487Z</time></trkpt><trkpt lat="40.8229519" lon="17.346822"><ele>192.0</ele><time>2026-05-02T15:25:45.488Z</time></trkpt><trkpt lat="40.823036" lon="17.3467874"><ele>192.0</ele><time>2026-05-02T15:25:46.487Z</time></trkpt><trkpt lat="40.8231221" lon="17.3467487"><ele>192.0</ele><time>2026-05-02T15:25:47.486Z</time></trkpt><trkpt lat="40.8232093" lon="17.3467126"><ele>192.0</ele><time>2026-05-02T15:25:48.488Z</time></trkpt><trkpt lat="40.8232909" lon="17.346685"><ele>192.0</ele><time>2026-05-02T15:25:49.486Z</time></trkpt><trkpt lat="40.8233704" lon="17.3466864"><ele>192.0</ele><time>2026-05-02T15:25:50.487Z</time></trkpt><trkpt lat="40.823464" lon="17.3467379"><ele>192.0</ele><time>2026-05-02T15:25:51.488Z</time></trkpt><trkpt lat="40.8235533" lon="17.346785"><ele>192.0</ele><time>2026-05-02T15:25:52.486Z</time></trkpt><trkpt lat="40.8235935" lon="17.3468811"><ele>192.0</ele><time>2026-05-02T15:25:53.487Z</time></trkpt><trkpt lat="40.8236375" lon="17.3469824"><ele>192.0</ele><time>2026-05-02T15:25:54.487Z</time></trkpt><trkpt lat="40.8235538" lon="17.3471363"><ele>192.0</ele><time>2026-05-02T15:25:55.487Z</time></trkpt><trkpt lat="40.8234957" lon="17.3472533"><ele>192.0</ele><time>2026-05-02T15:25:56.487Z</time></trkpt><trkpt lat="40.8234481" lon="17.3473616"><ele>190.6</ele><time>2026-05-02T15:25:57.486Z</time></trkpt><trkpt lat="40.8233964" lon="17.3474802"><ele>189.2</ele><time>2026-05-02T15:25:58.487Z</time></trkpt><trkpt lat="40.8233444" lon="17.3475852"><ele>187.8</ele><time>2026-05-02T15:25:59.487Z</time></trkpt><trkpt lat="40.8232957" lon="17.3476847"><ele>186.4</ele><time>2026-05-02T15:26:00.487Z</time></trkpt><trkpt lat="40.8232489" lon="17.3477749"><ele>185.0</ele><time>2026-05-02T15:26:01.487Z</time></trkpt><trkpt lat="40.8231682" lon="17.3478681"><ele>185.0</ele><time>2026-05-02T15:26:03.487Z</time></trkpt><trkpt lat="40.8230839" lon="17.3479376"><ele>185.0</ele><time>2026-05-02T15:26:05.486Z</time></trkpt><trkpt lat="40.8229817" lon="17.3480019"><ele>185.0</ele><time>2026-05-02T15:26:07.486Z</time></trkpt><trkpt lat="40.8229144" lon="17.3480231"><ele>185.0</ele><time>2026-05-02T15:26:08.487Z</time></trkpt><trkpt lat="40.8228387" lon="17.3480347"><ele>185.0</ele><time>2026-05-02T15:26:09.487Z</time></trkpt><trkpt lat="40.8227522" lon="17.3480348"><ele>185.0</ele><time>2026-05-02T15:26:10.487Z</time></trkpt><trkpt lat="40.8226602" lon="17.3480316"><ele>185.2</ele><time>2026-05-02T15:26:11.487Z</time></trkpt><trkpt lat="40.8225622" lon="17.3480193"><ele>185.4</ele><time>2026-05-02T15:26:12.487Z</time></trkpt><trkpt lat="40.8224578" lon="17.3479936"><ele>185.60000000000002</ele><time>2026-05-02T15:26:13.486Z</time></trkpt><trkpt lat="40.8223502" lon="17.3479583"><ele>185.8</ele><time>2026-05-02T15:26:14.486Z</time></trkpt><trkpt lat="40.8222399" lon="17.3479066"><ele>186.0</ele><time>2026-05-02T15:26:15.485Z</time></trkpt><trkpt lat="40.8221297" lon="17.34783"><ele>186.0</ele><time>2026-05-02T15:26:16.486Z</time></trkpt><trkpt lat="40.8220294" lon="17.347737"><ele>186.0</ele><time>2026-05-02T15:26:17.486Z</time></trkpt><trkpt lat="40.8219408" lon="17.3476313"><ele>186.0</ele><time>2026-05-02T15:26:18.486Z</time></trkpt><trkpt lat="40.8218575" lon="17.347512"><ele>186.0</ele><time>2026-05-02T15:26:19.485Z</time></trkpt><trkpt lat="40.8217836" lon="17.3473802"><ele>186.75</ele><time>2026-05-02T15:26:20.486Z</time></trkpt><trkpt lat="40.8217201" lon="17.3472353"><ele>187.5</ele><time>2026-05-02T15:26:21.486Z</time></trkpt><trkpt lat="40.8216583" lon="17.3470838"><ele>188.25</ele><time>2026-05-02T15:26:22.486Z</time></trkpt><trkpt lat="40.8216022" lon="17.3469231"><ele>189.0</ele><time>2026-05-02T15:26:23.485Z</time></trkpt><trkpt lat="40.8215459" lon="17.3467536"><ele>190.25</ele><time>2026-05-02T15:26:24.486Z</time></trkpt><trkpt lat="40.8214947" lon="17.3465809"><ele>191.5</ele><time>2026-05-02T15:26:25.486Z</time></trkpt><trkpt lat="40.8214389" lon="17.3464021"><ele>192.75</ele><time>2026-05-02T15:26:26.487Z</time></trkpt><trkpt lat="40.821378" lon="17.3462222"><ele>194.0</ele><time>2026-05-02T15:26:27.486Z</time></trkpt><trkpt lat="40.821306" lon="17.3460552"><ele>195.5</ele><time>2026-05-02T15:26:28.486Z</time></trkpt><trkpt lat="40.821231" lon="17.3458949"><ele>197.0</ele><time>2026-05-02T15:26:29.486Z</time></trkpt><trkpt lat="40.8211405" lon="17.3457497"><ele>198.5</ele><time>2026-05-02T15:26:30.486Z</time></trkpt><trkpt lat="40.8210369" lon="17.3456165"><ele>200.0</ele><time>2026-05-02T15:26:31.486Z</time></trkpt><trkpt lat="40.8209257" lon="17.3455064"><ele>200.5</ele><time>2026-05-02T15:26:32.486Z</time></trkpt><trkpt lat="40.8208073" lon="17.3454224"><ele>201.0</ele><time>2026-05-02T15:26:33.486Z</time></trkpt><trkpt lat="40.8206802" lon="17.3453563"><ele>201.5</ele><time>2026-05-02T15:26:34.486Z</time></trkpt><trkpt lat="40.8205538" lon="17.3453091"><ele>202.0</ele><time>2026-05-02T15:26:35.487Z</time></trkpt><trkpt lat="40.8204254" lon="17.3452826"><ele>202.0</ele><time>2026-05-02T15:26:36.487Z</time></trkpt><trkpt lat="40.8202982" lon="17.3452764"><ele>202.0</ele><time>2026-05-02T15:26:37.486Z</time></trkpt><trkpt lat="40.8201696" lon="17.3452835"><ele>202.0</ele><time>2026-05-02T15:26:38.486Z</time></trkpt><trkpt lat="40.8200375" lon="17.3453056"><ele>202.0</ele><time>2026-05-02T15:26:39.486Z</time></trkpt><trkpt lat="40.8199056" lon="17.3453415"><ele>203.25</ele><time>2026-05-02T15:26:40.485Z</time></trkpt><trkpt lat="40.8197765" lon="17.3453798"><ele>204.5</ele><time>2026-05-02T15:26:41.485Z</time></trkpt><trkpt lat="40.8196516" lon="17.3454293"><ele>205.75</ele><time>2026-05-02T15:26:42.486Z</time></trkpt><trkpt lat="40.8195175" lon="17.3454676"><ele>207.0</ele><time>2026-05-02T15:26:43.486Z</time></trkpt><trkpt lat="40.8193838" lon="17.3455117"><ele>207.5</ele><time>2026-05-02T15:26:44.486Z</time></trkpt><trkpt lat="40.8192495" lon="17.3455563"><ele>208.0</ele><time>2026-05-02T15:26:45.486Z</time></trkpt><trkpt lat="40.8191096" lon="17.345601"><ele>208.5</ele><time>2026-05-02T15:26:46.486Z</time></trkpt><trkpt lat="40.8189762" lon="17.3456366"><ele>209.0</ele><time>2026-05-02T15:26:47.487Z</time></trkpt><trkpt lat="40.8188348" lon="17.345664"><ele>209.0</ele><time>2026-05-02T15:26:48.487Z</time></trkpt><trkpt lat="40.8186927" lon="17.3456883"><ele>209.0</ele><time>2026-05-02T15:26:49.486Z</time></trkpt><trkpt lat="40.8185502" lon="17.3456942"><ele>209.0</ele><time>2026-05-02T15:26:50.487Z</time></trkpt><trkpt lat="40.8184055" lon="17.3456944"><ele>209.0</ele><time>2026-05-02T15:26:51.486Z</time></trkpt><trkpt lat="40.8182514" lon="17.3456753"><ele>210.0</ele><time>2026-05-02T15:26:52.486Z</time></trkpt><trkpt lat="40.8181008" lon="17.3456567"><ele>211.0</ele><time>2026-05-02T15:26:53.485Z</time></trkpt><trkpt lat="40.8179398" lon="17.3456107"><ele>212.0</ele><time>2026-05-02T15:26:54.486Z</time></trkpt><trkpt lat="40.8177829" lon="17.3455543"><ele>216.0</ele><time>2026-05-02T15:26:55.486Z</time></trkpt><trkpt lat="40.8176292" lon="17.3454892"><ele>220.0</ele><time>2026-05-02T15:26:56.487Z</time></trkpt><trkpt lat="40.8174811" lon="17.3454064"><ele>224.0</ele><time>2026-05-02T15:26:57.486Z</time></trkpt><trkpt lat="40.817318" lon="17.3453198"><ele>224.0</ele><time>2026-05-02T15:26:58.486Z</time></trkpt><trkpt lat="40.8171617" lon="17.3452235"><ele>224.0</ele><time>2026-05-02T15:26:59.487Z</time></trkpt><trkpt lat="40.8170047" lon="17.3451494"><ele>224.0</ele><time>2026-05-02T15:27:00.486Z</time></trkpt><trkpt lat="40.816851" lon="17.3450821"><ele>224.66666666666669</ele><time>2026-05-02T15:27:01.486Z</time></trkpt><trkpt lat="40.8166927" lon="17.3450326"><ele>225.33333333333331</ele><time>2026-05-02T15:27:02.486Z</time></trkpt><trkpt lat="40.8165307" lon="17.3450078"><ele>226.0</ele><time>2026-05-02T15:27:03.486Z</time></trkpt><trkpt lat="40.8163718" lon="17.344997"><ele>226.0</ele><time>2026-05-02T15:27:04.487Z</time></trkpt><trkpt lat="40.8162113" lon="17.345006"><ele>226.0</ele><time>2026-05-02T15:27:05.487Z</time></trkpt><trkpt lat="40.8160555" lon="17.3450223"><ele>226.0</ele><time>2026-05-02T15:27:06.487Z</time></trkpt><trkpt lat="40.8159039" lon="17.3450616"><ele>226.33333333333331</ele><time>2026-05-02T15:27:07.487Z</time></trkpt><trkpt lat="40.815752" lon="17.3451126"><ele>226.66666666666669</ele><time>2026-05-02T15:27:08.486Z</time></trkpt><trkpt lat="40.815603" lon="17.3451814"><ele>227.0</ele><time>2026-05-02T15:27:09.486Z</time></trkpt><trkpt lat="40.8154593" lon="17.3452604"><ele>227.0</ele><time>2026-05-02T15:27:10.486Z</time></trkpt><trkpt lat="40.8153217" lon="17.3453509"><ele>227.0</ele><time>2026-05-02T15:27:11.486Z</time></trkpt><trkpt lat="40.8151836" lon="17.3454455"><ele>227.0</ele><time>2026-05-02T15:27:12.486Z</time></trkpt><trkpt lat="40.8150373" lon="17.3455445"><ele>227.5</ele><time>2026-05-02T15:27:13.485Z</time></trkpt><trkpt lat="40.8149058" lon="17.3456415"><ele>228.0</ele><time>2026-05-02T15:27:14.486Z</time></trkpt><trkpt lat="40.814781" lon="17.3457442"><ele>228.5</ele><time>2026-05-02T15:27:15.486Z</time></trkpt><trkpt lat="40.8146522" lon="17.3458442"><ele>229.0</ele><time>2026-05-02T15:27:16.485Z</time></trkpt><trkpt lat="40.814519" lon="17.3459441"><ele>229.0</ele><time>2026-05-02T15:27:17.486Z</time></trkpt><trkpt lat="40.8143856" lon="17.3460397"><ele>229.0</ele><time>2026-05-02T15:27:18.486Z</time></trkpt><trkpt lat="40.8142494" lon="17.3461237"><ele>229.0</ele><time>2026-05-02T15:27:19.486Z</time></trkpt><trkpt lat="40.8141249" lon="17.3462001"><ele>229.0</ele><time>2026-05-02T15:27:20.486Z</time></trkpt><trkpt lat="40.8139959" lon="17.346263"><ele>228.75</ele><time>2026-05-02T15:27:21.485Z</time></trkpt><trkpt lat="40.8138573" lon="17.3463243"><ele>228.5</ele><time>2026-05-02T15:27:22.486Z</time></trkpt><trkpt lat="40.8137198" lon="17.346377"><ele>228.25</ele><time>2026-05-02T15:27:23.486Z</time></trkpt><trkpt lat="40.813577" lon="17.3464139"><ele>228.0</ele><time>2026-05-02T15:27:24.485Z</time></trkpt><trkpt lat="40.8134304" lon="17.3464412"><ele>231.25</ele><time>2026-05-02T15:27:25.486Z</time></trkpt><trkpt lat="40.8132801" lon="17.346456"><ele>234.5</ele><time>2026-05-02T15:27:26.486Z</time></trkpt><trkpt lat="40.8131327" lon="17.3464652"><ele>237.75</ele><time>2026-05-02T15:27:27.486Z</time></trkpt><trkpt lat="40.8129837" lon="17.3464587"><ele>241.0</ele><time>2026-05-02T15:27:28.486Z</time></trkpt><trkpt lat="40.8128344" lon="17.346442"><ele>241.0</ele><time>2026-05-02T15:27:29.486Z</time></trkpt><trkpt lat="40.8126858" lon="17.3464135"><ele>241.0</ele><time>2026-05-02T15:27:30.486Z</time></trkpt><trkpt lat="40.8125365" lon="17.3463686"><ele>241.0</ele><time>2026-05-02T15:27:31.487Z</time></trkpt><trkpt lat="40.8123917" lon="17.3463073"><ele>252.33333333333331</ele><time>2026-05-02T15:27:32.486Z</time></trkpt><trkpt lat="40.8122429" lon="17.3462445"><ele>263.6666666666667</ele><time>2026-05-02T15:27:33.486Z</time></trkpt><trkpt lat="40.8120941" lon="17.3461724"><ele>275.0</ele><time>2026-05-02T15:27:34.486Z</time></trkpt><trkpt lat="40.8119514" lon="17.3460982"><ele>269.33333333333337</ele><time>2026-05-02T15:27:35.486Z</time></trkpt><trkpt lat="40.8118187" lon="17.3459768"><ele>263.6666666666667</ele><time>2026-05-02T15:27:36.485Z</time></trkpt><trkpt lat="40.8116838" lon="17.3458695"><ele>258.0</ele><time>2026-05-02T15:27:37.486Z</time></trkpt><trkpt lat="40.8115646" lon="17.3457329"><ele>258.0</ele><time>2026-05-02T15:27:38.486Z</time></trkpt><trkpt lat="40.8114415" lon="17.3455984"><ele>258.0</ele><time>2026-05-02T15:27:39.487Z</time></trkpt><trkpt lat="40.8113237" lon="17.3454474"><ele>258.0</ele><time>2026-05-02T15:27:40.486Z</time></trkpt><trkpt lat="40.811208" lon="17.345301"><ele>259.0</ele><time>2026-05-02T15:27:41.487Z</time></trkpt><trkpt lat="40.8110797" lon="17.3451815"><ele>260.0</ele><time>2026-05-02T15:27:42.485Z</time></trkpt><trkpt lat="40.8109456" lon="17.3450604"><ele>261.0</ele><time>2026-05-02T15:27:43.486Z</time></trkpt><trkpt lat="40.8108306" lon="17.3449374"><ele>261.0</ele><time>2026-05-02T15:27:44.486Z</time></trkpt><trkpt lat="40.8106754" lon="17.3448692"><ele>261.0</ele><time>2026-05-02T15:27:45.486Z</time></trkpt><trkpt lat="40.8105189" lon="17.3448322"><ele>261.0</ele><time>2026-05-02T15:27:46.486Z</time></trkpt><trkpt lat="40.8103622" lon="17.3447981"><ele>261.0</ele><time>2026-05-02T15:27:47.486Z</time></trkpt><trkpt lat="40.8102102" lon="17.3447791"><ele>261.0</ele><time>2026-05-02T15:27:48.486Z</time></trkpt><trkpt lat="40.810041" lon="17.3448027"><ele>261.0</ele><time>2026-05-02T15:27:49.486Z</time></trkpt><trkpt lat="40.8098808" lon="17.3448128"><ele>262.0</ele><time>2026-05-02T15:27:50.486Z</time></trkpt><trkpt lat="40.8097209" lon="17.3448473"><ele>263.0</ele><time>2026-05-02T15:27:51.487Z</time></trkpt><trkpt lat="40.8095597" lon="17.3448801"><ele>264.0</ele><time>2026-05-02T15:27:52.487Z</time></trkpt><trkpt lat="40.8094049" lon="17.3449118"><ele>267.6666666666667</ele><time>2026-05-02T15:27:53.486Z</time></trkpt><trkpt lat="40.8092462" lon="17.344953"><ele>271.33333333333337</ele><time>2026-05-02T15:27:54.486Z</time></trkpt><trkpt lat="40.8090916" lon="17.3450071"><ele>275.0</ele><time>2026-05-02T15:27:55.487Z</time></trkpt><trkpt lat="40.808942" lon="17.3451092"><ele>275.0</ele><time>2026-05-02T15:27:56.487Z</time></trkpt><trkpt lat="40.8087931" lon="17.3451973"><ele>275.0</ele><time>2026-05-02T15:27:57.486Z</time></trkpt><trkpt lat="40.8086791" lon="17.3453093"><ele>275.0</ele><time>2026-05-02T15:27:58.486Z</time></trkpt><trkpt lat="40.8085782" lon="17.3454134"><ele>275.0</ele><time>2026-05-02T15:27:59.485Z</time></trkpt><trkpt lat="40.8084722" lon="17.3455134"><ele>274.6</ele><time>2026-05-02T15:28:00.486Z</time></trkpt><trkpt lat="40.8083911" lon="17.3456226"><ele>274.2</ele><time>2026-05-02T15:28:01.486Z</time></trkpt><trkpt lat="40.8083045" lon="17.345717"><ele>273.8</ele><time>2026-05-02T15:28:02.487Z</time></trkpt><trkpt lat="40.8082253" lon="17.3458006"><ele>273.4</ele><time>2026-05-02T15:28:03.486Z</time></trkpt><trkpt lat="40.808159" lon="17.3458725"><ele>273.0</ele><time>2026-05-02T15:28:04.486Z</time></trkpt><trkpt lat="40.808097" lon="17.3459391"><ele>273.0</ele><time>2026-05-02T15:28:05.486Z</time></trkpt><trkpt lat="40.8080477" lon="17.3459989"><ele>273.0</ele><time>2026-05-02T15:28:06.485Z</time></trkpt><trkpt lat="40.8079668" lon="17.3460881"><ele>273.0</ele><time>2026-05-02T15:28:08.486Z</time></trkpt><trkpt lat="40.8079202" lon="17.3461541"><ele>273.0</ele><time>2026-05-02T15:28:50.486Z</time></trkpt><trkpt lat="40.8078627" lon="17.3462171"><ele>273.0</ele><time>2026-05-02T15:28:53.485Z</time></trkpt><trkpt lat="40.8078044" lon="17.3462793"><ele>273.0</ele><time>2026-05-02T15:28:55.485Z</time></trkpt><trkpt lat="40.8077165" lon="17.3463592"><ele>273.3333333333333</ele><time>2026-05-02T15:28:57.486Z</time></trkpt><trkpt lat="40.8076507" lon="17.3464023"><ele>273.6666666666667</ele><time>2026-05-02T15:28:58.486Z</time></trkpt><trkpt lat="40.8075974" lon="17.3464551"><ele>274.0</ele><time>2026-05-02T15:28:59.486Z</time></trkpt><trkpt lat="40.8075171" lon="17.3465121"><ele>274.33333333333337</ele><time>2026-05-02T15:29:00.486Z</time></trkpt><trkpt lat="40.8074628" lon="17.3465625"><ele>274.6666666666667</ele><time>2026-05-02T15:29:01.486Z</time></trkpt><trkpt lat="40.8073897" lon="17.3466277"><ele>275.0</ele><time>2026-05-02T15:29:02.486Z</time></trkpt><trkpt lat="40.8073185" lon="17.346696"><ele>275.0</ele><time>2026-05-02T15:29:03.484Z</time></trkpt><trkpt lat="40.8072279" lon="17.3467818"><ele>275.0</ele><time>2026-05-02T15:29:04.486Z</time></trkpt><trkpt lat="40.8071253" lon="17.3468551"><ele>275.0</ele><time>2026-05-02T15:29:05.485Z</time></trkpt><trkpt lat="40.8070392" lon="17.3469131"><ele>275.0</ele><time>2026-05-02T15:29:06.485Z</time></trkpt><trkpt lat="40.8069819" lon="17.3469674"><ele>275.0</ele><time>2026-05-02T15:29:07.485Z</time></trkpt><trkpt lat="40.8069235" lon="17.3470021"><ele>275.0</ele><time>2026-05-02T15:29:08.485Z</time></trkpt><trkpt lat="40.8068573" lon="17.3470457"><ele>275.0</ele><time>2026-05-02T15:29:10.485Z</time></trkpt><trkpt lat="40.8067946" lon="17.3470788"><ele>275.0</ele><time>2026-05-02T15:29:36.486Z</time></trkpt><trkpt lat="40.8067164" lon="17.3471452"><ele>275.0</ele><time>2026-05-02T15:30:38.485Z</time></trkpt><trkpt lat="40.8066508" lon="17.3471353"><ele>275.0</ele><time>2026-05-02T15:30:40.484Z</time></trkpt><trkpt lat="40.806688" lon="17.3470404"><ele>275.0</ele><time>2026-05-02T15:30:44.485Z</time></trkpt><trkpt lat="40.8067978" lon="17.3469757"><ele>275.0</ele><time>2026-05-02T15:30:46.485Z</time></trkpt><trkpt lat="40.8068695" lon="17.3469301"><ele>275.0</ele><time>2026-05-02T15:30:47.485Z</time></trkpt><trkpt lat="40.8069443" lon="17.3468781"><ele>275.0</ele><time>2026-05-02T15:30:48.486Z</time></trkpt><trkpt lat="40.8070229" lon="17.3468149"><ele>275.0</ele><time>2026-05-02T15:30:49.485Z</time></trkpt><trkpt lat="40.8070963" lon="17.3467401"><ele>275.0</ele><time>2026-05-02T15:30:50.485Z</time></trkpt><trkpt lat="40.8071645" lon="17.3466676"><ele>275.0</ele><time>2026-05-02T15:30:51.486Z</time></trkpt><trkpt lat="40.807234" lon="17.3465885"><ele>275.0</ele><time>2026-05-02T15:30:52.485Z</time></trkpt><trkpt lat="40.8073072" lon="17.3464853"><ele>275.0</ele><time>2026-05-02T15:30:53.486Z</time></trkpt><trkpt lat="40.8073916" lon="17.3463853"><ele>275.0</ele><time>2026-05-02T15:30:54.485Z</time></trkpt><trkpt lat="40.8074731" lon="17.3462763"><ele>275.0</ele><time>2026-05-02T15:30:55.486Z</time></trkpt><trkpt lat="40.8075567" lon="17.3461748"><ele>274.5</ele><time>2026-05-02T15:30:56.484Z</time></trkpt><trkpt lat="40.807639" lon="17.3460581"><ele>274.0</ele><time>2026-05-02T15:30:57.485Z</time></trkpt><trkpt lat="40.8077148" lon="17.3459425"><ele>273.5</ele><time>2026-05-02T15:30:58.485Z</time></trkpt><trkpt lat="40.8077877" lon="17.3458285"><ele>273.0</ele><time>2026-05-02T15:30:59.486Z</time></trkpt><trkpt lat="40.8078636" lon="17.3457125"><ele>273.0</ele><time>2026-05-02T15:31:00.486Z</time></trkpt><trkpt lat="40.8079349" lon="17.345594"><ele>273.0</ele><time>2026-05-02T15:31:01.485Z</time></trkpt><trkpt lat="40.8080038" lon="17.3454808"><ele>273.0</ele><time>2026-05-02T15:31:02.484Z</time></trkpt><trkpt lat="40.8080749" lon="17.3453721"><ele>273.0</ele><time>2026-05-02T15:31:03.484Z</time></trkpt><trkpt lat="40.80814" lon="17.3452645"><ele>273.0</ele><time>2026-05-02T15:31:04.485Z</time></trkpt><trkpt lat="40.8081991" lon="17.3451516"><ele>277.2</ele><time>2026-05-02T15:31:05.486Z</time></trkpt><trkpt lat="40.8082496" lon="17.3450378"><ele>281.4</ele><time>2026-05-02T15:31:06.486Z</time></trkpt><trkpt lat="40.8082892" lon="17.3449135"><ele>285.59999999999997</ele><time>2026-05-02T15:31:07.485Z</time></trkpt><trkpt lat="40.8083174" lon="17.344792"><ele>289.8</ele><time>2026-05-02T15:31:08.484Z</time></trkpt><trkpt lat="40.8083349" lon="17.344661"><ele>294.0</ele><time>2026-05-02T15:31:09.485Z</time></trkpt><trkpt lat="40.808361" lon="17.3445333"><ele>295.2</ele><time>2026-05-02T15:31:10.485Z</time></trkpt><trkpt lat="40.8083933" lon="17.3444242"><ele>296.4</ele><time>2026-05-02T15:31:11.484Z</time></trkpt><trkpt lat="40.808453" lon="17.3443117"><ele>297.6</ele><time>2026-05-02T15:31:12.486Z</time></trkpt><trkpt lat="40.8085518" lon="17.3442569"><ele>298.8</ele><time>2026-05-02T15:31:13.485Z</time></trkpt><trkpt lat="40.808646" lon="17.3442038"><ele>300.0</ele><time>2026-05-02T15:31:14.485Z</time></trkpt><trkpt lat="40.8087525" lon="17.3441809"><ele>300.0</ele><time>2026-05-02T15:31:15.485Z</time></trkpt><trkpt lat="40.8088578" lon="17.344149"><ele>300.0</ele><time>2026-05-02T15:31:16.486Z</time></trkpt><trkpt lat="40.8089645" lon="17.3441201"><ele>300.0</ele><time>2026-05-02T15:31:17.485Z</time></trkpt><trkpt lat="40.809082" lon="17.3440964"><ele>300.0</ele><time>2026-05-02T15:31:18.485Z</time></trkpt><trkpt lat="40.8091972" lon="17.3440662"><ele>300.0</ele><time>2026-05-02T15:31:19.485Z</time></trkpt><trkpt lat="40.8093163" lon="17.3440262"><ele>300.0</ele><time>2026-05-02T15:31:20.485Z</time></trkpt><trkpt lat="40.809444" lon="17.3439902"><ele>300.0</ele><time>2026-05-02T15:31:21.485Z</time></trkpt><trkpt lat="40.809569" lon="17.3439488"><ele>300.0</ele><time>2026-05-02T15:31:22.485Z</time></trkpt><trkpt lat="40.8096926" lon="17.3439099"><ele>300.25</ele><time>2026-05-02T15:31:23.485Z</time></trkpt><trkpt lat="40.8098169" lon="17.3438809"><ele>300.5</ele><time>2026-05-02T15:31:24.484Z</time></trkpt><trkpt lat="40.8099367" lon="17.3438542"><ele>300.75</ele><time>2026-05-02T15:31:25.485Z</time></trkpt><trkpt lat="40.8100491" lon="17.3438117"><ele>301.0</ele><time>2026-05-02T15:31:26.485Z</time></trkpt><trkpt lat="40.8101604" lon="17.3437579"><ele>301.0</ele><time>2026-05-02T15:31:27.485Z</time></trkpt><trkpt lat="40.8102669" lon="17.3436963"><ele>301.0</ele><time>2026-05-02T15:31:28.485Z</time></trkpt><trkpt lat="40.810369" lon="17.3436343"><ele>301.0</ele><time>2026-05-02T15:31:29.484Z</time></trkpt><trkpt lat="40.8104643" lon="17.3435721"><ele>301.0</ele><time>2026-05-02T15:31:30.484Z</time></trkpt><trkpt lat="40.8105497" lon="17.3435113"><ele>301.0</ele><time>2026-05-02T15:31:31.485Z</time></trkpt><trkpt lat="40.81063" lon="17.3434448"><ele>301.0</ele><time>2026-05-02T15:31:32.485Z</time></trkpt><trkpt lat="40.8106982" lon="17.3433733"><ele>301.0</ele><time>2026-05-02T15:31:33.486Z</time></trkpt><trkpt lat="40.8107438" lon="17.3432445"><ele>301.0</ele><time>2026-05-02T15:31:34.484Z</time></trkpt><trkpt lat="40.810788" lon="17.3431291"><ele>301.0</ele><time>2026-05-02T15:31:35.484Z</time></trkpt><trkpt lat="40.810827" lon="17.343015"><ele>301.0</ele><time>2026-05-02T15:31:36.485Z</time></trkpt><trkpt lat="40.8108674" lon="17.3428966"><ele>302.3333333333333</ele><time>2026-05-02T15:31:37.485Z</time></trkpt><trkpt lat="40.8109067" lon="17.3427764"><ele>303.66666666666663</ele><time>2026-05-02T15:31:38.485Z</time></trkpt><trkpt lat="40.8109481" lon="17.3426581"><ele>305.0</ele><time>2026-05-02T15:31:39.485Z</time></trkpt><trkpt lat="40.8109841" lon="17.3425484"><ele>306.3333333333333</ele><time>2026-05-02T15:31:40.484Z</time></trkpt><trkpt lat="40.8110174" lon="17.3424474"><ele>307.6666666666667</ele><time>2026-05-02T15:31:41.484Z</time></trkpt><trkpt lat="40.8110508" lon="17.3423581"><ele>309.0</ele><time>2026-05-02T15:31:42.485Z</time></trkpt><trkpt lat="40.8110794" lon="17.34228"><ele>309.0</ele><time>2026-05-02T15:31:43.485Z</time></trkpt><trkpt lat="40.8111252" lon="17.3421352"><ele>309.0</ele><time>2026-05-02T15:31:45.484Z</time></trkpt><trkpt lat="40.8111441" lon="17.3419764"><ele>309.0</ele><time>2026-05-02T15:31:47.484Z</time></trkpt><trkpt lat="40.8111532" lon="17.3418922"><ele>309.0</ele><time>2026-05-02T15:31:48.485Z</time></trkpt><trkpt lat="40.811167" lon="17.3417855"><ele>309.0</ele><time>2026-05-02T15:31:49.485Z</time></trkpt><trkpt lat="40.8111763" lon="17.3416649"><ele>309.0</ele><time>2026-05-02T15:31:50.486Z</time></trkpt><trkpt lat="40.8111936" lon="17.3415365"><ele>309.0</ele><time>2026-05-02T15:31:51.485Z</time></trkpt><trkpt lat="40.8112138" lon="17.3413993"><ele>309.0</ele><time>2026-05-02T15:31:52.485Z</time></trkpt><trkpt lat="40.8112379" lon="17.341252"><ele>309.0</ele><time>2026-05-02T15:31:53.485Z</time></trkpt><trkpt lat="40.8112684" lon="17.341104"><ele>309.0</ele><time>2026-05-02T15:31:54.485Z</time></trkpt><trkpt lat="40.8113091" lon="17.3409467"><ele>308.25</ele><time>2026-05-02T15:31:55.486Z</time></trkpt><trkpt lat="40.8113516" lon="17.3407821"><ele>307.5</ele><time>2026-05-02T15:31:56.485Z</time></trkpt><trkpt lat="40.8114" lon="17.3406132"><ele>306.75</ele><time>2026-05-02T15:31:57.485Z</time></trkpt><trkpt lat="40.8114535" lon="17.340435"><ele>306.0</ele><time>2026-05-02T15:31:58.485Z</time></trkpt><trkpt lat="40.8115151" lon="17.340257"><ele>305.0</ele><time>2026-05-02T15:31:59.486Z</time></trkpt><trkpt lat="40.8115801" lon="17.3400762"><ele>304.0</ele><time>2026-05-02T15:32:00.485Z</time></trkpt><trkpt lat="40.8116569" lon="17.3398987"><ele>303.0</ele><time>2026-05-02T15:32:01.485Z</time></trkpt><trkpt lat="40.8117433" lon="17.3397196"><ele>303.0</ele><time>2026-05-02T15:32:02.484Z</time></trkpt><trkpt lat="40.8118406" lon="17.3395319"><ele>303.0</ele><time>2026-05-02T15:32:03.483Z</time></trkpt><trkpt lat="40.8119381" lon="17.3393403"><ele>303.0</ele><time>2026-05-02T15:32:04.484Z</time></trkpt><trkpt lat="40.8120317" lon="17.3391475"><ele>303.0</ele><time>2026-05-02T15:32:05.485Z</time></trkpt><trkpt lat="40.8121239" lon="17.3389512"><ele>303.0</ele><time>2026-05-02T15:32:06.484Z</time></trkpt><trkpt lat="40.812206" lon="17.3387413"><ele>303.0</ele><time>2026-05-02T15:32:07.484Z</time></trkpt><trkpt lat="40.8122788" lon="17.338523"><ele>301.3333333333333</ele><time>2026-05-02T15:32:08.484Z</time></trkpt><trkpt lat="40.8123474" lon="17.338302"><ele>299.66666666666663</ele><time>2026-05-02T15:32:09.484Z</time></trkpt><trkpt lat="40.8124119" lon="17.3380761"><ele>298.0</ele><time>2026-05-02T15:32:10.484Z</time></trkpt><trkpt lat="40.8124818" lon="17.3378486"><ele>296.66666666666663</ele><time>2026-05-02T15:32:11.485Z</time></trkpt><trkpt lat="40.8125573" lon="17.3376196"><ele>295.3333333333333</ele><time>2026-05-02T15:32:12.484Z</time></trkpt><trkpt lat="40.8126283" lon="17.3374002"><ele>294.0</ele><time>2026-05-02T15:32:13.485Z</time></trkpt><trkpt lat="40.8126997" lon="17.3371793"><ele>294.0</ele><time>2026-05-02T15:32:14.484Z</time></trkpt><trkpt lat="40.8127743" lon="17.3369593"><ele>294.0</ele><time>2026-05-02T15:32:15.484Z</time></trkpt><trkpt lat="40.8128386" lon="17.3367393"><ele>294.0</ele><time>2026-05-02T15:32:16.484Z</time></trkpt><trkpt lat="40.8128969" lon="17.3365163"><ele>293.0</ele><time>2026-05-02T15:32:17.484Z</time></trkpt><trkpt lat="40.8129374" lon="17.3362917"><ele>292.0</ele><time>2026-05-02T15:32:18.484Z</time></trkpt><trkpt lat="40.8129729" lon="17.3360637"><ele>291.0</ele><time>2026-05-02T15:32:19.484Z</time></trkpt><trkpt lat="40.8130053" lon="17.3358331"><ele>291.0</ele><time>2026-05-02T15:32:20.484Z</time></trkpt><trkpt lat="40.8130443" lon="17.3356021"><ele>291.0</ele><time>2026-05-02T15:32:21.484Z</time></trkpt><trkpt lat="40.8130899" lon="17.3353687"><ele>291.0</ele><time>2026-05-02T15:32:22.484Z</time></trkpt><trkpt lat="40.813145" lon="17.3351357"><ele>289.6666666666667</ele><time>2026-05-02T15:32:23.483Z</time></trkpt><trkpt lat="40.8132033" lon="17.3348984"><ele>288.33333333333337</ele><time>2026-05-02T15:32:24.484Z</time></trkpt><trkpt lat="40.813271" lon="17.334674"><ele>287.0</ele><time>2026-05-02T15:32:25.485Z</time></trkpt><trkpt lat="40.8133313" lon="17.3344443"><ele>285.6666666666667</ele><time>2026-05-02T15:32:26.484Z</time></trkpt><trkpt lat="40.8133864" lon="17.3342135"><ele>284.3333333333333</ele><time>2026-05-02T15:32:27.484Z</time></trkpt><trkpt lat="40.813436" lon="17.3339827"><ele>283.0</ele><time>2026-05-02T15:32:28.484Z</time></trkpt><trkpt lat="40.8134867" lon="17.3337503"><ele>283.3333333333333</ele><time>2026-05-02T15:32:29.485Z</time></trkpt><trkpt lat="40.8135302" lon="17.3335193"><ele>283.6666666666667</ele><time>2026-05-02T15:32:30.484Z</time></trkpt><trkpt lat="40.8135667" lon="17.3332828"><ele>284.0</ele><time>2026-05-02T15:32:31.484Z</time></trkpt><trkpt lat="40.8135917" lon="17.3330416"><ele>282.33333333333337</ele><time>2026-05-02T15:32:32.484Z</time></trkpt><trkpt lat="40.813602" lon="17.3327991"><ele>280.6666666666667</ele><time>2026-05-02T15:32:33.484Z</time></trkpt><trkpt lat="40.8136039" lon="17.3325532"><ele>279.0</ele><time>2026-05-02T15:32:34.484Z</time></trkpt><trkpt lat="40.8135974" lon="17.3323032"><ele>278.3333333333333</ele><time>2026-05-02T15:32:35.485Z</time></trkpt><trkpt lat="40.81359" lon="17.3320516"><ele>277.66666666666663</ele><time>2026-05-02T15:32:36.485Z</time></trkpt><trkpt lat="40.8135807" lon="17.3318048"><ele>277.0</ele><time>2026-05-02T15:32:37.484Z</time></trkpt><trkpt lat="40.8135752" lon="17.3315608"><ele>276.3333333333333</ele><time>2026-05-02T15:32:38.484Z</time></trkpt><trkpt lat="40.8135736" lon="17.3313164"><ele>275.6666666666667</ele><time>2026-05-02T15:32:39.484Z</time></trkpt><trkpt lat="40.8135802" lon="17.3310734"><ele>275.0</ele><time>2026-05-02T15:32:40.484Z</time></trkpt><trkpt lat="40.8135946" lon="17.3308282"><ele>275.0</ele><time>2026-05-02T15:32:41.483Z</time></trkpt><trkpt lat="40.8136174" lon="17.3305849"><ele>275.0</ele><time>2026-05-02T15:32:42.484Z</time></trkpt><trkpt lat="40.8136501" lon="17.3303415"><ele>275.0</ele><time>2026-05-02T15:32:43.484Z</time></trkpt><trkpt lat="40.8136956" lon="17.3301038"><ele>274.33333333333337</ele><time>2026-05-02T15:32:44.484Z</time></trkpt><trkpt lat="40.8137426" lon="17.3298667"><ele>273.6666666666667</ele><time>2026-05-02T15:32:45.484Z</time></trkpt><trkpt lat="40.8137852" lon="17.329632"><ele>273.0</ele><time>2026-05-02T15:32:46.484Z</time></trkpt><trkpt lat="40.8138158" lon="17.3293985"><ele>272.0</ele><time>2026-05-02T15:32:47.484Z</time></trkpt><trkpt lat="40.8138364" lon="17.3291604"><ele>271.0</ele><time>2026-05-02T15:32:48.485Z</time></trkpt><trkpt lat="40.8138522" lon="17.3289177"><ele>270.0</ele><time>2026-05-02T15:32:49.483Z</time></trkpt><trkpt lat="40.8138578" lon="17.3286673"><ele>270.0</ele><time>2026-05-02T15:32:50.485Z</time></trkpt><trkpt lat="40.8138641" lon="17.3284157"><ele>270.0</ele><time>2026-05-02T15:32:51.485Z</time></trkpt><trkpt lat="40.8138692" lon="17.3281613"><ele>270.0</ele><time>2026-05-02T15:32:52.483Z</time></trkpt><trkpt lat="40.8138736" lon="17.3279116"><ele>270.0</ele><time>2026-05-02T15:32:53.484Z</time></trkpt><trkpt lat="40.813879" lon="17.3276736"><ele>270.0</ele><time>2026-05-02T15:32:54.484Z</time></trkpt><trkpt lat="40.8138897" lon="17.3274462"><ele>270.0</ele><time>2026-05-02T15:32:55.484Z</time></trkpt><trkpt lat="40.8138963" lon="17.3272268"><ele>269.6666666666667</ele><time>2026-05-02T15:32:56.484Z</time></trkpt><trkpt lat="40.813904" lon="17.3270214"><ele>269.33333333333337</ele><time>2026-05-02T15:32:57.483Z</time></trkpt><trkpt lat="40.813921" lon="17.3268199"><ele>269.0</ele><time>2026-05-02T15:32:58.484Z</time></trkpt><trkpt lat="40.8139496" lon="17.32662"><ele>269.0</ele><time>2026-05-02T15:32:59.485Z</time></trkpt><trkpt lat="40.8139908" lon="17.3264162"><ele>269.0</ele><time>2026-05-02T15:33:00.485Z</time></trkpt><trkpt lat="40.8140391" lon="17.3262166"><ele>269.0</ele><time>2026-05-02T15:33:01.485Z</time></trkpt><trkpt lat="40.814096" lon="17.3260138"><ele>268.33333333333337</ele><time>2026-05-02T15:33:02.483Z</time></trkpt><trkpt lat="40.8141509" lon="17.3258004"><ele>267.6666666666667</ele><time>2026-05-02T15:33:03.484Z</time></trkpt><trkpt lat="40.8142092" lon="17.3255843"><ele>267.0</ele><time>2026-05-02T15:33:04.483Z</time></trkpt><trkpt lat="40.8142641" lon="17.325369"><ele>267.0</ele><time>2026-05-02T15:33:05.484Z</time></trkpt><trkpt lat="40.8143198" lon="17.3251543"><ele>267.0</ele><time>2026-05-02T15:33:06.484Z</time></trkpt><trkpt lat="40.8143666" lon="17.3249412"><ele>267.0</ele><time>2026-05-02T15:33:07.484Z</time></trkpt><trkpt lat="40.8144088" lon="17.3247222"><ele>266.6666666666667</ele><time>2026-05-02T15:33:08.484Z</time></trkpt><trkpt lat="40.8144342" lon="17.3244894"><ele>266.33333333333337</ele><time>2026-05-02T15:33:09.484Z</time></trkpt><trkpt lat="40.814458" lon="17.3242549"><ele>266.0</ele><time>2026-05-02T15:33:10.484Z</time></trkpt><trkpt lat="40.814453" lon="17.3240164"><ele>266.0</ele><time>2026-05-02T15:33:11.484Z</time></trkpt><trkpt lat="40.8144505" lon="17.3237752"><ele>266.0</ele><time>2026-05-02T15:33:12.484Z</time></trkpt><trkpt lat="40.8144504" lon="17.3235539"><ele>266.0</ele><time>2026-05-02T15:33:13.484Z</time></trkpt><trkpt lat="40.8144749" lon="17.3233299"><ele>266.0</ele><time>2026-05-02T15:33:14.484Z</time></trkpt><trkpt lat="40.8145182" lon="17.3231185"><ele>266.0</ele><time>2026-05-02T15:33:15.483Z</time></trkpt><trkpt lat="40.8145645" lon="17.3229067"><ele>266.0</ele><time>2026-05-02T15:33:16.484Z</time></trkpt><trkpt lat="40.8146263" lon="17.3227066"><ele>266.33333333333337</ele><time>2026-05-02T15:33:17.484Z</time></trkpt><trkpt lat="40.8146963" lon="17.3225109"><ele>266.6666666666667</ele><time>2026-05-02T15:33:18.484Z</time></trkpt><trkpt lat="40.814772" lon="17.3223153"><ele>267.0</ele><time>2026-05-02T15:33:19.485Z</time></trkpt><trkpt lat="40.8148517" lon="17.3221203"><ele>267.0</ele><time>2026-05-02T15:33:20.484Z</time></trkpt><trkpt lat="40.8149324" lon="17.3219226"><ele>267.0</ele><time>2026-05-02T15:33:21.484Z</time></trkpt><trkpt lat="40.8150093" lon="17.3217305"><ele>267.0</ele><time>2026-05-02T15:33:22.484Z</time></trkpt><trkpt lat="40.8150878" lon="17.3215456"><ele>266.6666666666667</ele><time>2026-05-02T15:33:23.484Z</time></trkpt><trkpt lat="40.8151658" lon="17.3213654"><ele>266.33333333333337</ele><time>2026-05-02T15:33:24.484Z</time></trkpt><trkpt lat="40.8152387" lon="17.3211831"><ele>266.0</ele><time>2026-05-02T15:33:25.484Z</time></trkpt><trkpt lat="40.8153112" lon="17.3210056"><ele>266.0</ele><time>2026-05-02T15:33:26.484Z</time></trkpt><trkpt lat="40.8153834" lon="17.3208219"><ele>266.0</ele><time>2026-05-02T15:33:27.485Z</time></trkpt><trkpt lat="40.8154551" lon="17.3206437"><ele>266.0</ele><time>2026-05-02T15:33:28.485Z</time></trkpt><trkpt lat="40.8155308" lon="17.3204658"><ele>266.25</ele><time>2026-05-02T15:33:29.484Z</time></trkpt><trkpt lat="40.8156049" lon="17.3202914"><ele>266.5</ele><time>2026-05-02T15:33:30.484Z</time></trkpt><trkpt lat="40.8156766" lon="17.3201221"><ele>266.75</ele><time>2026-05-02T15:33:31.484Z</time></trkpt><trkpt lat="40.8157457" lon="17.3199554"><ele>267.0</ele><time>2026-05-02T15:33:32.485Z</time></trkpt><trkpt lat="40.8158054" lon="17.3197879"><ele>266.75</ele><time>2026-05-02T15:33:33.485Z</time></trkpt><trkpt lat="40.8158597" lon="17.3196213"><ele>266.5</ele><time>2026-05-02T15:33:34.485Z</time></trkpt><trkpt lat="40.8159067" lon="17.3194574"><ele>266.25</ele><time>2026-05-02T15:33:35.484Z</time></trkpt><trkpt lat="40.8159545" lon="17.3192887"><ele>266.0</ele><time>2026-05-02T15:33:36.484Z</time></trkpt><trkpt lat="40.8159908" lon="17.3191172"><ele>266.0</ele><time>2026-05-02T15:33:37.483Z</time></trkpt><trkpt lat="40.8160126" lon="17.3189488"><ele>266.0</ele><time>2026-05-02T15:33:38.484Z</time></trkpt><trkpt lat="40.8160276" lon="17.3187816"><ele>266.0</ele><time>2026-05-02T15:33:39.485Z</time></trkpt><trkpt lat="40.8160362" lon="17.3186143"><ele>266.0</ele><time>2026-05-02T15:33:40.484Z</time></trkpt><trkpt lat="40.8160491" lon="17.318442"><ele>266.0</ele><time>2026-05-02T15:33:41.484Z</time></trkpt><trkpt lat="40.8160632" lon="17.318284"><ele>266.0</ele><time>2026-05-02T15:33:42.485Z</time></trkpt><trkpt lat="40.8160834" lon="17.3181305"><ele>266.0</ele><time>2026-05-02T15:33:43.484Z</time></trkpt><trkpt lat="40.8161116" lon="17.3179711"><ele>266.0</ele><time>2026-05-02T15:33:44.484Z</time></trkpt><trkpt lat="40.8161462" lon="17.3178101"><ele>265.75</ele><time>2026-05-02T15:33:45.485Z</time></trkpt><trkpt lat="40.816183" lon="17.3176506"><ele>265.5</ele><time>2026-05-02T15:33:46.484Z</time></trkpt><trkpt lat="40.8162207" lon="17.3174878"><ele>265.25</ele><time>2026-05-02T15:33:47.485Z</time></trkpt><trkpt lat="40.8162588" lon="17.3173205"><ele>265.0</ele><time>2026-05-02T15:33:48.483Z</time></trkpt><trkpt lat="40.8162954" lon="17.3171557"><ele>265.0</ele><time>2026-05-02T15:33:49.485Z</time></trkpt><trkpt lat="40.8163304" lon="17.3169929"><ele>265.0</ele><time>2026-05-02T15:33:50.484Z</time></trkpt><trkpt lat="40.8163561" lon="17.3168254"><ele>265.0</ele><time>2026-05-02T15:33:51.484Z</time></trkpt><trkpt lat="40.8163766" lon="17.3166601"><ele>265.0</ele><time>2026-05-02T15:33:52.484Z</time></trkpt><trkpt lat="40.8163967" lon="17.3164945"><ele>265.5</ele><time>2026-05-02T15:33:53.484Z</time></trkpt><trkpt lat="40.816409" lon="17.3163322"><ele>266.0</ele><time>2026-05-02T15:33:54.484Z</time></trkpt><trkpt lat="40.8164214" lon="17.3161714"><ele>266.5</ele><time>2026-05-02T15:33:55.485Z</time></trkpt><trkpt lat="40.8164386" lon="17.3160149"><ele>267.0</ele><time>2026-05-02T15:33:56.485Z</time></trkpt><trkpt lat="40.8164479" lon="17.315858"><ele>267.0</ele><time>2026-05-02T15:33:57.484Z</time></trkpt><trkpt lat="40.8164622" lon="17.3157073"><ele>267.0</ele><time>2026-05-02T15:33:58.484Z</time></trkpt><trkpt lat="40.8164831" lon="17.3155512"><ele>267.0</ele><time>2026-05-02T15:33:59.484Z</time></trkpt><trkpt lat="40.8165142" lon="17.3153929"><ele>267.0</ele><time>2026-05-02T15:34:00.485Z</time></trkpt><trkpt lat="40.816553" lon="17.3152369"><ele>267.25</ele><time>2026-05-02T15:34:01.484Z</time></trkpt><trkpt lat="40.8165988" lon="17.3150853"><ele>267.5</ele><time>2026-05-02T15:34:02.484Z</time></trkpt><trkpt lat="40.8166544" lon="17.3149322"><ele>267.75</ele><time>2026-05-02T15:34:03.483Z</time></trkpt><trkpt lat="40.8167086" lon="17.3147855"><ele>268.0</ele><time>2026-05-02T15:34:04.483Z</time></trkpt><trkpt lat="40.8167665" lon="17.3146279"><ele>268.0</ele><time>2026-05-02T15:34:05.484Z</time></trkpt><trkpt lat="40.8168178" lon="17.3144669"><ele>268.0</ele><time>2026-05-02T15:34:06.484Z</time></trkpt><trkpt lat="40.8168642" lon="17.3143042"><ele>268.0</ele><time>2026-05-02T15:34:07.485Z</time></trkpt><trkpt lat="40.8169017" lon="17.3141369"><ele>268.0</ele><time>2026-05-02T15:34:08.485Z</time></trkpt><trkpt lat="40.8169365" lon="17.3139671"><ele>268.0</ele><time>2026-05-02T15:34:09.485Z</time></trkpt><trkpt lat="40.8169507" lon="17.3137911"><ele>268.0</ele><time>2026-05-02T15:34:10.483Z</time></trkpt><trkpt lat="40.8169653" lon="17.3136123"><ele>268.0</ele><time>2026-05-02T15:34:11.484Z</time></trkpt><trkpt lat="40.8169775" lon="17.3134264"><ele>268.0</ele><time>2026-05-02T15:34:12.484Z</time></trkpt><trkpt lat="40.8169852" lon="17.3132438"><ele>268.0</ele><time>2026-05-02T15:34:13.484Z</time></trkpt><trkpt lat="40.8169943" lon="17.313065"><ele>268.0</ele><time>2026-05-02T15:34:14.484Z</time></trkpt><trkpt lat="40.8170008" lon="17.3128856"><ele>268.0</ele><time>2026-05-02T15:34:15.485Z</time></trkpt><trkpt lat="40.8170094" lon="17.3127088"><ele>268.0</ele><time>2026-05-02T15:34:16.483Z</time></trkpt><trkpt lat="40.8170194" lon="17.3125332"><ele>268.0</ele><time>2026-05-02T15:34:17.484Z</time></trkpt><trkpt lat="40.8170316" lon="17.3123582"><ele>268.0</ele><time>2026-05-02T15:34:18.484Z</time></trkpt><trkpt lat="40.8170462" lon="17.3121785"><ele>268.0</ele><time>2026-05-02T15:34:19.484Z</time></trkpt><trkpt lat="40.8170632" lon="17.3119954"><ele>268.0</ele><time>2026-05-02T15:34:20.483Z</time></trkpt><trkpt lat="40.817082" lon="17.3118087"><ele>268.0</ele><time>2026-05-02T15:34:21.484Z</time></trkpt><trkpt lat="40.8171011" lon="17.3116232"><ele>268.0</ele><time>2026-05-02T15:34:22.484Z</time></trkpt><trkpt lat="40.8171205" lon="17.3114344"><ele>268.0</ele><time>2026-05-02T15:34:23.484Z</time></trkpt><trkpt lat="40.8171399" lon="17.3112434"><ele>268.0</ele><time>2026-05-02T15:34:24.484Z</time></trkpt><trkpt lat="40.8171638" lon="17.3110481"><ele>268.0</ele><time>2026-05-02T15:34:25.484Z</time></trkpt><trkpt lat="40.8171863" lon="17.3108547"><ele>268.0</ele><time>2026-05-02T15:34:26.484Z</time></trkpt><trkpt lat="40.8172105" lon="17.3106594"><ele>268.0</ele><time>2026-05-02T15:34:27.485Z</time></trkpt><trkpt lat="40.8172345" lon="17.3104649"><ele>268.0</ele><time>2026-05-02T15:34:28.483Z</time></trkpt><trkpt lat="40.8172555" lon="17.3102691"><ele>268.0</ele><time>2026-05-02T15:34:29.484Z</time></trkpt><trkpt lat="40.8172796" lon="17.3100758"><ele>268.0</ele><time>2026-05-02T15:34:30.485Z</time></trkpt><trkpt lat="40.8173023" lon="17.3098891"><ele>268.0</ele><time>2026-05-02T15:34:31.483Z</time></trkpt><trkpt lat="40.8173246" lon="17.3097031"><ele>268.0</ele><time>2026-05-02T15:34:32.484Z</time></trkpt><trkpt lat="40.817347" lon="17.3095181"><ele>268.0</ele><time>2026-05-02T15:34:33.485Z</time></trkpt><trkpt lat="40.8173613" lon="17.3093313"><ele>268.0</ele><time>2026-05-02T15:34:34.484Z</time></trkpt><trkpt lat="40.8173706" lon="17.3091477"><ele>268.0</ele><time>2026-05-02T15:34:35.483Z</time></trkpt><trkpt lat="40.8173701" lon="17.3089634"><ele>268.0</ele><time>2026-05-02T15:34:36.484Z</time></trkpt><trkpt lat="40.8173616" lon="17.3087878"><ele>268.0</ele><time>2026-05-02T15:34:37.485Z</time></trkpt><trkpt lat="40.8173523" lon="17.3086066"><ele>268.0</ele><time>2026-05-02T15:34:38.484Z</time></trkpt><trkpt lat="40.8173477" lon="17.3084308"><ele>268.0</ele><time>2026-05-02T15:34:39.484Z</time></trkpt><trkpt lat="40.8173508" lon="17.3082562"><ele>268.0</ele><time>2026-05-02T15:34:40.484Z</time></trkpt><trkpt lat="40.8173624" lon="17.30808"><ele>268.0</ele><time>2026-05-02T15:34:41.484Z</time></trkpt><trkpt lat="40.8173776" lon="17.3079075"><ele>268.0</ele><time>2026-05-02T15:34:42.485Z</time></trkpt><trkpt lat="40.8174031" lon="17.307732"><ele>268.0</ele><time>2026-05-02T15:34:43.484Z</time></trkpt><trkpt lat="40.8174505" lon="17.3075619"><ele>268.0</ele><time>2026-05-02T15:34:44.483Z</time></trkpt><trkpt lat="40.8174918" lon="17.3073871"><ele>268.25</ele><time>2026-05-02T15:34:45.484Z</time></trkpt><trkpt lat="40.8175434" lon="17.307211"><ele>268.5</ele><time>2026-05-02T15:34:46.484Z</time></trkpt><trkpt lat="40.8175932" lon="17.307028"><ele>268.75</ele><time>2026-05-02T15:34:47.485Z</time></trkpt><trkpt lat="40.8176462" lon="17.3068416"><ele>269.0</ele><time>2026-05-02T15:34:48.483Z</time></trkpt><trkpt lat="40.8176985" lon="17.3066549"><ele>269.0</ele><time>2026-05-02T15:34:49.484Z</time></trkpt><trkpt lat="40.8177494" lon="17.3064632"><ele>269.0</ele><time>2026-05-02T15:34:50.484Z</time></trkpt><trkpt lat="40.8178015" lon="17.3062754"><ele>269.0</ele><time>2026-05-02T15:34:51.484Z</time></trkpt><trkpt lat="40.8178555" lon="17.3060693"><ele>269.0</ele><time>2026-05-02T15:34:52.485Z</time></trkpt><trkpt lat="40.8179146" lon="17.3058762"><ele>269.0</ele><time>2026-05-02T15:34:53.484Z</time></trkpt><trkpt lat="40.8179649" lon="17.3056741"><ele>269.0</ele><time>2026-05-02T15:34:54.484Z</time></trkpt><trkpt lat="40.8180263" lon="17.3054796"><ele>269.0</ele><time>2026-05-02T15:34:55.485Z</time></trkpt><trkpt lat="40.818076" lon="17.3052814"><ele>269.0</ele><time>2026-05-02T15:34:56.484Z</time></trkpt><trkpt lat="40.8181333" lon="17.305088"><ele>269.0</ele><time>2026-05-02T15:34:57.485Z</time></trkpt><trkpt lat="40.8181906" lon="17.3048944"><ele>269.6666666666667</ele><time>2026-05-02T15:34:58.484Z</time></trkpt><trkpt lat="40.8182459" lon="17.304697"><ele>270.3333333333333</ele><time>2026-05-02T15:34:59.484Z</time></trkpt><trkpt lat="40.8183007" lon="17.3045067"><ele>271.0</ele><time>2026-05-02T15:35:00.484Z</time></trkpt><trkpt lat="40.8183558" lon="17.3043159"><ele>271.0</ele><time>2026-05-02T15:35:01.483Z</time></trkpt><trkpt lat="40.8184111" lon="17.3041233"><ele>271.0</ele><time>2026-05-02T15:35:02.483Z</time></trkpt><trkpt lat="40.8184657" lon="17.3039396"><ele>271.0</ele><time>2026-05-02T15:35:03.484Z</time></trkpt><trkpt lat="40.81852" lon="17.3037512"><ele>271.0</ele><time>2026-05-02T15:35:04.484Z</time></trkpt><trkpt lat="40.8185665" lon="17.3035802"><ele>271.0</ele><time>2026-05-02T15:35:05.484Z</time></trkpt><trkpt lat="40.8186087" lon="17.3034105"><ele>271.0</ele><time>2026-05-02T15:35:06.483Z</time></trkpt><trkpt lat="40.8186522" lon="17.3032434"><ele>271.0</ele><time>2026-05-02T15:35:07.484Z</time></trkpt><trkpt lat="40.8186989" lon="17.3030819"><ele>271.0</ele><time>2026-05-02T15:35:08.483Z</time></trkpt><trkpt lat="40.8187467" lon="17.3029295"><ele>271.0</ele><time>2026-05-02T15:35:09.483Z</time></trkpt><trkpt lat="40.8187912" lon="17.3027743"><ele>271.0</ele><time>2026-05-02T15:35:10.483Z</time></trkpt><trkpt lat="40.8188382" lon="17.302626"><ele>271.0</ele><time>2026-05-02T15:35:11.483Z</time></trkpt><trkpt lat="40.8188814" lon="17.3024756"><ele>271.0</ele><time>2026-05-02T15:35:12.483Z</time></trkpt><trkpt lat="40.8189195" lon="17.3023285"><ele>271.0</ele><time>2026-05-02T15:35:13.483Z</time></trkpt><trkpt lat="40.8189569" lon="17.3021784"><ele>271.0</ele><time>2026-05-02T15:35:14.483Z</time></trkpt><trkpt lat="40.8189908" lon="17.3020264"><ele>271.0</ele><time>2026-05-02T15:35:15.482Z</time></trkpt><trkpt lat="40.8190272" lon="17.3018656"><ele>271.0</ele><time>2026-05-02T15:35:16.483Z</time></trkpt><trkpt lat="40.8190623" lon="17.3017013"><ele>271.0</ele><time>2026-05-02T15:35:17.483Z</time></trkpt><trkpt lat="40.8191019" lon="17.3015364"><ele>271.0</ele><time>2026-05-02T15:35:18.484Z</time></trkpt><trkpt lat="40.819143" lon="17.3013668"><ele>271.0</ele><time>2026-05-02T15:35:19.483Z</time></trkpt><trkpt lat="40.8191874" lon="17.3011944"><ele>271.0</ele><time>2026-05-02T15:35:20.482Z</time></trkpt><trkpt lat="40.8192261" lon="17.3010234"><ele>271.0</ele><time>2026-05-02T15:35:21.482Z</time></trkpt><trkpt lat="40.8192677" lon="17.3008499"><ele>271.0</ele><time>2026-05-02T15:35:22.483Z</time></trkpt><trkpt lat="40.8193074" lon="17.3006759"><ele>271.0</ele><time>2026-05-02T15:35:23.483Z</time></trkpt><trkpt lat="40.8193481" lon="17.3004998"><ele>271.5</ele><time>2026-05-02T15:35:24.483Z</time></trkpt><trkpt lat="40.8193898" lon="17.3003252"><ele>272.0</ele><time>2026-05-02T15:35:25.483Z</time></trkpt><trkpt lat="40.8194313" lon="17.3001536"><ele>272.5</ele><time>2026-05-02T15:35:26.483Z</time></trkpt><trkpt lat="40.8194745" lon="17.2999822"><ele>273.0</ele><time>2026-05-02T15:35:27.483Z</time></trkpt><trkpt lat="40.819517" lon="17.2998147"><ele>273.75</ele><time>2026-05-02T15:35:28.483Z</time></trkpt><trkpt lat="40.8195588" lon="17.2996453"><ele>274.5</ele><time>2026-05-02T15:35:29.483Z</time></trkpt><trkpt lat="40.8196011" lon="17.299476"><ele>275.25</ele><time>2026-05-02T15:35:30.483Z</time></trkpt><trkpt lat="40.8196493" lon="17.2992968"><ele>276.0</ele><time>2026-05-02T15:35:31.483Z</time></trkpt><trkpt lat="40.8196972" lon="17.2991196"><ele>276.0</ele><time>2026-05-02T15:35:32.483Z</time></trkpt><trkpt lat="40.8197454" lon="17.2989447"><ele>276.0</ele><time>2026-05-02T15:35:33.483Z</time></trkpt><trkpt lat="40.8197905" lon="17.2987727"><ele>276.0</ele><time>2026-05-02T15:35:34.483Z</time></trkpt><trkpt lat="40.8198388" lon="17.2986054"><ele>276.0</ele><time>2026-05-02T15:35:35.483Z</time></trkpt><trkpt lat="40.8198867" lon="17.2984285"><ele>276.5</ele><time>2026-05-02T15:35:36.483Z</time></trkpt><trkpt lat="40.8199354" lon="17.2982507"><ele>277.0</ele><time>2026-05-02T15:35:37.483Z</time></trkpt><trkpt lat="40.8199848" lon="17.2980751"><ele>277.5</ele><time>2026-05-02T15:35:38.483Z</time></trkpt><trkpt lat="40.8200344" lon="17.2979004"><ele>278.0</ele><time>2026-05-02T15:35:39.483Z</time></trkpt><trkpt lat="40.8200818" lon="17.2977316"><ele>278.75</ele><time>2026-05-02T15:35:40.484Z</time></trkpt><trkpt lat="40.8201319" lon="17.2975539"><ele>279.5</ele><time>2026-05-02T15:35:41.482Z</time></trkpt><trkpt lat="40.8201835" lon="17.2973802"><ele>280.25</ele><time>2026-05-02T15:35:42.483Z</time></trkpt><trkpt lat="40.8202304" lon="17.2972148"><ele>281.0</ele><time>2026-05-02T15:35:43.483Z</time></trkpt><trkpt lat="40.8202792" lon="17.2970438"><ele>282.0</ele><time>2026-05-02T15:35:44.483Z</time></trkpt><trkpt lat="40.8203217" lon="17.2968798"><ele>283.0</ele><time>2026-05-02T15:35:45.483Z</time></trkpt><trkpt lat="40.8203757" lon="17.2967034"><ele>284.0</ele><time>2026-05-02T15:35:46.483Z</time></trkpt><trkpt lat="40.8204235" lon="17.2965425"><ele>285.0</ele><time>2026-05-02T15:35:47.483Z</time></trkpt><trkpt lat="40.8204678" lon="17.296365"><ele>285.0</ele><time>2026-05-02T15:35:48.483Z</time></trkpt><trkpt lat="40.8205148" lon="17.2961862"><ele>285.0</ele><time>2026-05-02T15:35:49.483Z</time></trkpt><trkpt lat="40.8205634" lon="17.2960098"><ele>285.0</ele><time>2026-05-02T15:35:50.482Z</time></trkpt><trkpt lat="40.8206158" lon="17.2958444"><ele>285.0</ele><time>2026-05-02T15:35:51.482Z</time></trkpt><trkpt lat="40.8206691" lon="17.295649"><ele>286.0</ele><time>2026-05-02T15:35:52.483Z</time></trkpt><trkpt lat="40.8207185" lon="17.2954732"><ele>287.0</ele><time>2026-05-02T15:35:53.483Z</time></trkpt><trkpt lat="40.8207661" lon="17.2953072"><ele>288.0</ele><time>2026-05-02T15:35:54.483Z</time></trkpt><trkpt lat="40.8208116" lon="17.295143"><ele>289.0</ele><time>2026-05-02T15:35:55.484Z</time></trkpt><trkpt lat="40.8208603" lon="17.294964"><ele>289.0</ele><time>2026-05-02T15:35:56.483Z</time></trkpt><trkpt lat="40.8209039" lon="17.2947876"><ele>289.0</ele><time>2026-05-02T15:35:57.483Z</time></trkpt><trkpt lat="40.820955" lon="17.2946159"><ele>289.0</ele><time>2026-05-02T15:35:58.484Z</time></trkpt><trkpt lat="40.8210058" lon="17.2944357"><ele>289.0</ele><time>2026-05-02T15:35:59.483Z</time></trkpt><trkpt lat="40.8210586" lon="17.2942583"><ele>290.5</ele><time>2026-05-02T15:36:00.483Z</time></trkpt><trkpt lat="40.8211068" lon="17.2940862"><ele>292.0</ele><time>2026-05-02T15:36:01.483Z</time></trkpt><trkpt lat="40.8211566" lon="17.2939025"><ele>293.5</ele><time>2026-05-02T15:36:02.483Z</time></trkpt><trkpt lat="40.8212069" lon="17.2937268"><ele>295.0</ele><time>2026-05-02T15:36:03.483Z</time></trkpt><trkpt lat="40.8212589" lon="17.2935479"><ele>296.3333333333333</ele><time>2026-05-02T15:36:04.484Z</time></trkpt><trkpt lat="40.82131" lon="17.2933635"><ele>297.6666666666667</ele><time>2026-05-02T15:36:05.483Z</time></trkpt><trkpt lat="40.8213644" lon="17.2931758"><ele>299.0</ele><time>2026-05-02T15:36:06.483Z</time></trkpt><trkpt lat="40.8214189" lon="17.2929865"><ele>300.0</ele><time>2026-05-02T15:36:07.483Z</time></trkpt><trkpt lat="40.8214712" lon="17.2927975"><ele>301.0</ele><time>2026-05-02T15:36:08.483Z</time></trkpt><trkpt lat="40.8215246" lon="17.2926103"><ele>302.0</ele><time>2026-05-02T15:36:09.482Z</time></trkpt><trkpt lat="40.8215825" lon="17.2924149"><ele>304.0</ele><time>2026-05-02T15:36:10.483Z</time></trkpt><trkpt lat="40.8216388" lon="17.2922241"><ele>306.0</ele><time>2026-05-02T15:36:11.484Z</time></trkpt><trkpt lat="40.8216907" lon="17.2920409"><ele>308.0</ele><time>2026-05-02T15:36:12.483Z</time></trkpt><trkpt lat="40.8217425" lon="17.2918545"><ele>308.0</ele><time>2026-05-02T15:36:13.484Z</time></trkpt><trkpt lat="40.8217869" lon="17.2916656"><ele>308.0</ele><time>2026-05-02T15:36:14.483Z</time></trkpt><trkpt lat="40.821831" lon="17.2914773"><ele>308.0</ele><time>2026-05-02T15:36:15.483Z</time></trkpt><trkpt lat="40.8218624" lon="17.2912828"><ele>308.0</ele><time>2026-05-02T15:36:16.484Z</time></trkpt><trkpt lat="40.8218703" lon="17.2910914"><ele>308.75</ele><time>2026-05-02T15:36:17.483Z</time></trkpt><trkpt lat="40.8218738" lon="17.2909047"><ele>309.5</ele><time>2026-05-02T15:36:18.482Z</time></trkpt><trkpt lat="40.8218586" lon="17.2907118"><ele>310.25</ele><time>2026-05-02T15:36:19.483Z</time></trkpt><trkpt lat="40.8218371" lon="17.2905216"><ele>311.0</ele><time>2026-05-02T15:36:20.483Z</time></trkpt><trkpt lat="40.8218141" lon="17.2903381"><ele>311.75</ele><time>2026-05-02T15:36:21.483Z</time></trkpt><trkpt lat="40.8217914" lon="17.2901483"><ele>312.5</ele><time>2026-05-02T15:36:22.483Z</time></trkpt><trkpt lat="40.8217693" lon="17.2899574"><ele>313.25</ele><time>2026-05-02T15:36:23.483Z</time></trkpt><trkpt lat="40.8217504" lon="17.2897613"><ele>314.0</ele><time>2026-05-02T15:36:24.482Z</time></trkpt><trkpt lat="40.8217361" lon="17.2895666"><ele>314.33333333333337</ele><time>2026-05-02T15:36:25.482Z</time></trkpt><trkpt lat="40.8217273" lon="17.2893668"><ele>314.6666666666667</ele><time>2026-05-02T15:36:26.482Z</time></trkpt><trkpt lat="40.8217221" lon="17.2891612"><ele>315.0</ele><time>2026-05-02T15:36:27.484Z</time></trkpt><trkpt lat="40.8217231" lon="17.288953"><ele>315.6666666666667</ele><time>2026-05-02T15:36:28.483Z</time></trkpt><trkpt lat="40.8217243" lon="17.2887435"><ele>316.33333333333337</ele><time>2026-05-02T15:36:29.483Z</time></trkpt><trkpt lat="40.8217221" lon="17.2885372"><ele>317.0</ele><time>2026-05-02T15:36:30.484Z</time></trkpt><trkpt lat="40.8217173" lon="17.2883295"><ele>317.0</ele><time>2026-05-02T15:36:31.483Z</time></trkpt><trkpt lat="40.8217096" lon="17.2881224"><ele>317.0</ele><time>2026-05-02T15:36:32.483Z</time></trkpt><trkpt lat="40.8217009" lon="17.2879157"><ele>317.0</ele><time>2026-05-02T15:36:33.483Z</time></trkpt><trkpt lat="40.8216901" lon="17.2877067"><ele>316.33333333333337</ele><time>2026-05-02T15:36:34.483Z</time></trkpt><trkpt lat="40.8216762" lon="17.2874963"><ele>315.6666666666667</ele><time>2026-05-02T15:36:35.483Z</time></trkpt><trkpt lat="40.8216628" lon="17.2872885"><ele>315.0</ele><time>2026-05-02T15:36:36.484Z</time></trkpt><trkpt lat="40.821653" lon="17.2870795"><ele>314.3333333333333</ele><time>2026-05-02T15:36:37.483Z</time></trkpt><trkpt lat="40.8216493" lon="17.2868717"><ele>313.66666666666663</ele><time>2026-05-02T15:36:38.482Z</time></trkpt><trkpt lat="40.8216472" lon="17.2866605"><ele>313.0</ele><time>2026-05-02T15:36:39.483Z</time></trkpt><trkpt lat="40.8216524" lon="17.2864444"><ele>312.3333333333333</ele><time>2026-05-02T15:36:40.482Z</time></trkpt><trkpt lat="40.8216579" lon="17.2862239"><ele>311.6666666666667</ele><time>2026-05-02T15:36:41.483Z</time></trkpt><trkpt lat="40.8216633" lon="17.2860074"><ele>311.0</ele><time>2026-05-02T15:36:42.484Z</time></trkpt><trkpt lat="40.8216732" lon="17.2857972"><ele>310.33333333333337</ele><time>2026-05-02T15:36:43.483Z</time></trkpt><trkpt lat="40.8216863" lon="17.2855906"><ele>309.6666666666667</ele><time>2026-05-02T15:36:44.483Z</time></trkpt><trkpt lat="40.8216976" lon="17.2853958"><ele>309.0</ele><time>2026-05-02T15:36:45.482Z</time></trkpt><trkpt lat="40.8217042" lon="17.2851987"><ele>309.0</ele><time>2026-05-02T15:36:46.482Z</time></trkpt><trkpt lat="40.821716" lon="17.285004"><ele>309.0</ele><time>2026-05-02T15:36:47.483Z</time></trkpt><trkpt lat="40.8217279" lon="17.2848136"><ele>309.0</ele><time>2026-05-02T15:36:48.483Z</time></trkpt><trkpt lat="40.8217359" lon="17.2846185"><ele>309.0</ele><time>2026-05-02T15:36:49.483Z</time></trkpt><trkpt lat="40.8217462" lon="17.2844225"><ele>309.0</ele><time>2026-05-02T15:36:50.484Z</time></trkpt><trkpt lat="40.821754" lon="17.2842255"><ele>309.0</ele><time>2026-05-02T15:36:51.484Z</time></trkpt><trkpt lat="40.8217617" lon="17.2840254"><ele>309.0</ele><time>2026-05-02T15:36:52.484Z</time></trkpt><trkpt lat="40.8217688" lon="17.283831"><ele>309.0</ele><time>2026-05-02T15:36:53.482Z</time></trkpt><trkpt lat="40.8217708" lon="17.2836341"><ele>308.75</ele><time>2026-05-02T15:36:54.484Z</time></trkpt><trkpt lat="40.8217672" lon="17.2834345"><ele>308.5</ele><time>2026-05-02T15:36:55.483Z</time></trkpt><trkpt lat="40.8217575" lon="17.2832435"><ele>308.25</ele><time>2026-05-02T15:36:56.483Z</time></trkpt><trkpt lat="40.8217458" lon="17.2830501"><ele>308.0</ele><time>2026-05-02T15:36:57.484Z</time></trkpt><trkpt lat="40.8217316" lon="17.2828554"><ele>308.0</ele><time>2026-05-02T15:36:58.482Z</time></trkpt><trkpt lat="40.8217186" lon="17.2826543"><ele>308.0</ele><time>2026-05-02T15:36:59.483Z</time></trkpt><trkpt lat="40.8217074" lon="17.2824492"><ele>308.0</ele><time>2026-05-02T15:37:00.482Z</time></trkpt><trkpt lat="40.8216936" lon="17.282245"><ele>307.0</ele><time>2026-05-02T15:37:01.482Z</time></trkpt><trkpt lat="40.8216856" lon="17.2820397"><ele>306.0</ele><time>2026-05-02T15:37:02.482Z</time></trkpt><trkpt lat="40.8216697" lon="17.2818314"><ele>305.0</ele><time>2026-05-02T15:37:03.484Z</time></trkpt><trkpt lat="40.8216653" lon="17.281621"><ele>305.0</ele><time>2026-05-02T15:37:04.482Z</time></trkpt><trkpt lat="40.8216534" lon="17.2814067"><ele>305.0</ele><time>2026-05-02T15:37:05.484Z</time></trkpt><trkpt lat="40.821649" lon="17.281189"><ele>305.0</ele><time>2026-05-02T15:37:06.483Z</time></trkpt><trkpt lat="40.8216465" lon="17.2809791"><ele>305.0</ele><time>2026-05-02T15:37:07.483Z</time></trkpt><trkpt lat="40.8216389" lon="17.2807662"><ele>305.0</ele><time>2026-05-02T15:37:08.483Z</time></trkpt><trkpt lat="40.8216297" lon="17.2805524"><ele>305.0</ele><time>2026-05-02T15:37:09.484Z</time></trkpt><trkpt lat="40.8216201" lon="17.2803387"><ele>305.0</ele><time>2026-05-02T15:37:10.483Z</time></trkpt><trkpt lat="40.8216088" lon="17.2801252"><ele>305.0</ele><time>2026-05-02T15:37:11.483Z</time></trkpt><trkpt lat="40.8216003" lon="17.2799111"><ele>305.0</ele><time>2026-05-02T15:37:12.484Z</time></trkpt><trkpt lat="40.8215889" lon="17.2796985"><ele>305.0</ele><time>2026-05-02T15:37:13.483Z</time></trkpt><trkpt lat="40.821579" lon="17.2794874"><ele>305.0</ele><time>2026-05-02T15:37:14.483Z</time></trkpt><trkpt lat="40.8215708" lon="17.2792762"><ele>305.0</ele><time>2026-05-02T15:37:15.483Z</time></trkpt><trkpt lat="40.8215598" lon="17.2790645"><ele>305.33333333333337</ele><time>2026-05-02T15:37:16.483Z</time></trkpt><trkpt lat="40.821549" lon="17.2788477"><ele>305.6666666666667</ele><time>2026-05-02T15:37:17.482Z</time></trkpt><trkpt lat="40.8215382" lon="17.2786424"><ele>306.0</ele><time>2026-05-02T15:37:18.483Z</time></trkpt><trkpt lat="40.821524" lon="17.2784374"><ele>306.0</ele><time>2026-05-02T15:37:19.483Z</time></trkpt><trkpt lat="40.8215124" lon="17.2782277"><ele>306.0</ele><time>2026-05-02T15:37:20.483Z</time></trkpt><trkpt lat="40.8215" lon="17.2780284"><ele>306.0</ele><time>2026-05-02T15:37:21.483Z</time></trkpt><trkpt lat="40.8214841" lon="17.2778483"><ele>306.0</ele><time>2026-05-02T15:37:22.483Z</time></trkpt><trkpt lat="40.8214775" lon="17.2776694"><ele>306.0</ele><time>2026-05-02T15:37:23.484Z</time></trkpt><trkpt lat="40.8214601" lon="17.2774977"><ele>306.0</ele><time>2026-05-02T15:37:24.483Z</time></trkpt><trkpt lat="40.8214512" lon="17.2773628"><ele>306.0</ele><time>2026-05-02T15:37:25.483Z</time></trkpt><trkpt lat="40.8214321" lon="17.2772184"><ele>306.0</ele><time>2026-05-02T15:37:26.483Z</time></trkpt><trkpt lat="40.8214243" lon="17.2770935"><ele>306.0</ele><time>2026-05-02T15:37:27.483Z</time></trkpt><trkpt lat="40.8214161" lon="17.2769827"><ele>306.0</ele><time>2026-05-02T15:37:28.483Z</time></trkpt><trkpt lat="40.8214038" lon="17.2768759"><ele>306.0</ele><time>2026-05-02T15:37:29.483Z</time></trkpt><trkpt lat="40.8213848" lon="17.2767882"><ele>306.0</ele><time>2026-05-02T15:37:30.484Z</time></trkpt><trkpt lat="40.8213615" lon="17.2766917"><ele>306.0</ele><time>2026-05-02T15:37:31.482Z</time></trkpt><trkpt lat="40.8213329" lon="17.2766141"><ele>306.0</ele><time>2026-05-02T15:37:32.482Z</time></trkpt><trkpt lat="40.8212695" lon="17.2765652"><ele>306.0</ele><time>2026-05-02T15:37:33.483Z</time></trkpt><trkpt lat="40.8212112" lon="17.2765295"><ele>306.0</ele><time>2026-05-02T15:37:34.483Z</time></trkpt><trkpt lat="40.8211448" lon="17.2765014"><ele>306.0</ele><time>2026-05-02T15:37:35.483Z</time></trkpt><trkpt lat="40.8210711" lon="17.2764783"><ele>306.0</ele><time>2026-05-02T15:37:36.483Z</time></trkpt><trkpt lat="40.8209918" lon="17.2764519"><ele>306.0</ele><time>2026-05-02T15:37:37.483Z</time></trkpt><trkpt lat="40.8209122" lon="17.2764226"><ele>306.0</ele><time>2026-05-02T15:37:38.482Z</time></trkpt><trkpt lat="40.8208307" lon="17.2763923"><ele>306.0</ele><time>2026-05-02T15:37:39.482Z</time></trkpt><trkpt lat="40.8207405" lon="17.2763586"><ele>306.0</ele><time>2026-05-02T15:37:40.483Z</time></trkpt><trkpt lat="40.8206374" lon="17.2763131"><ele>306.40000000000003</ele><time>2026-05-02T15:37:41.483Z</time></trkpt><trkpt lat="40.820546" lon="17.2762683"><ele>306.8</ele><time>2026-05-02T15:37:42.482Z</time></trkpt><trkpt lat="40.8204518" lon="17.2762244"><ele>307.20000000000005</ele><time>2026-05-02T15:37:43.484Z</time></trkpt><trkpt lat="40.8203399" lon="17.276177"><ele>307.6</ele><time>2026-05-02T15:37:44.482Z</time></trkpt><trkpt lat="40.8202294" lon="17.2761326"><ele>308.0</ele><time>2026-05-02T15:37:45.482Z</time></trkpt><trkpt lat="40.8201141" lon="17.2760835"><ele>308.25</ele><time>2026-05-02T15:37:46.483Z</time></trkpt><trkpt lat="40.8199915" lon="17.276037"><ele>308.5</ele><time>2026-05-02T15:37:47.483Z</time></trkpt><trkpt lat="40.8198658" lon="17.2759938"><ele>308.75</ele><time>2026-05-02T15:37:48.484Z</time></trkpt><trkpt lat="40.8197382" lon="17.2759297"><ele>309.0</ele><time>2026-05-02T15:37:49.483Z</time></trkpt><trkpt lat="40.8196023" lon="17.2758717"><ele>309.0</ele><time>2026-05-02T15:37:50.482Z</time></trkpt><trkpt lat="40.8194636" lon="17.2758125"><ele>309.0</ele><time>2026-05-02T15:37:51.482Z</time></trkpt><trkpt lat="40.8193187" lon="17.2757474"><ele>309.0</ele><time>2026-05-02T15:37:52.484Z</time></trkpt><trkpt lat="40.8191726" lon="17.2756867"><ele>310.0</ele><time>2026-05-02T15:37:53.483Z</time></trkpt><trkpt lat="40.8190184" lon="17.275613"><ele>311.0</ele><time>2026-05-02T15:37:54.483Z</time></trkpt><trkpt lat="40.8188646" lon="17.2755483"><ele>312.0</ele><time>2026-05-02T15:37:55.483Z</time></trkpt><trkpt lat="40.8187154" lon="17.2754864"><ele>312.0</ele><time>2026-05-02T15:37:56.483Z</time></trkpt><trkpt lat="40.8185846" lon="17.2754347"><ele>312.0</ele><time>2026-05-02T15:37:57.483Z</time></trkpt><trkpt lat="40.8184475" lon="17.2753725"><ele>312.0</ele><time>2026-05-02T15:37:58.483Z</time></trkpt><trkpt lat="40.8183097" lon="17.2753132"><ele>312.0</ele><time>2026-05-02T15:37:59.482Z</time></trkpt><trkpt lat="40.8181786" lon="17.2752604"><ele>314.25</ele><time>2026-05-02T15:38:00.483Z</time></trkpt><trkpt lat="40.8180463" lon="17.2752045"><ele>316.5</ele><time>2026-05-02T15:38:01.484Z</time></trkpt><trkpt lat="40.817916" lon="17.2751538"><ele>318.75</ele><time>2026-05-02T15:38:02.482Z</time></trkpt><trkpt lat="40.8177865" lon="17.275098"><ele>321.0</ele><time>2026-05-02T15:38:03.483Z</time></trkpt><trkpt lat="40.8176605" lon="17.2750456"><ele>323.0</ele><time>2026-05-02T15:38:04.483Z</time></trkpt><trkpt lat="40.8175362" lon="17.2749892"><ele>325.0</ele><time>2026-05-02T15:38:05.483Z</time></trkpt><trkpt lat="40.8174106" lon="17.2749342"><ele>327.0</ele><time>2026-05-02T15:38:06.484Z</time></trkpt><trkpt lat="40.8172839" lon="17.2748858"><ele>329.0</ele><time>2026-05-02T15:38:07.483Z</time></trkpt><trkpt lat="40.8171592" lon="17.2748325"><ele>329.0</ele><time>2026-05-02T15:38:08.483Z</time></trkpt><trkpt lat="40.8170367" lon="17.2747814"><ele>329.0</ele><time>2026-05-02T15:38:09.483Z</time></trkpt><trkpt lat="40.8169219" lon="17.2747213"><ele>329.0</ele><time>2026-05-02T15:38:10.482Z</time></trkpt><trkpt lat="40.8168155" lon="17.2746505"><ele>329.0</ele><time>2026-05-02T15:38:11.483Z</time></trkpt><trkpt lat="40.8166999" lon="17.274581"><ele>333.5</ele><time>2026-05-02T15:38:12.483Z</time></trkpt><trkpt lat="40.8165983" lon="17.2745014"><ele>338.0</ele><time>2026-05-02T15:38:13.483Z</time></trkpt><trkpt lat="40.8164847" lon="17.2744455"><ele>342.5</ele><time>2026-05-02T15:38:14.482Z</time></trkpt><trkpt lat="40.8163691" lon="17.2743871"><ele>347.0</ele><time>2026-05-02T15:38:15.483Z</time></trkpt><trkpt lat="40.8162399" lon="17.2743439"><ele>347.0</ele><time>2026-05-02T15:38:16.483Z</time></trkpt><trkpt lat="40.81613" lon="17.2743521"><ele>347.0</ele><time>2026-05-02T15:38:17.482Z</time></trkpt><trkpt lat="40.8160115" lon="17.2743349"><ele>347.0</ele><time>2026-05-02T15:38:18.482Z</time></trkpt><trkpt lat="40.8159089" lon="17.2743588"><ele>347.0</ele><time>2026-05-02T15:38:19.482Z</time></trkpt><trkpt lat="40.815794" lon="17.2743617"><ele>347.0</ele><time>2026-05-02T15:38:20.482Z</time></trkpt><trkpt lat="40.8157164" lon="17.2743965"><ele>348.5</ele><time>2026-05-02T15:38:21.483Z</time></trkpt><trkpt lat="40.8155898" lon="17.2744133"><ele>350.0</ele><time>2026-05-02T15:38:22.482Z</time></trkpt><trkpt lat="40.8154807" lon="17.274428"><ele>351.5</ele><time>2026-05-02T15:38:23.482Z</time></trkpt><trkpt lat="40.8153626" lon="17.2744365"><ele>353.0</ele><time>2026-05-02T15:38:24.483Z</time></trkpt><trkpt lat="40.8152479" lon="17.2744423"><ele>354.5</ele><time>2026-05-02T15:38:25.482Z</time></trkpt><trkpt lat="40.8151389" lon="17.2744467"><ele>356.0</ele><time>2026-05-02T15:38:26.481Z</time></trkpt><trkpt lat="40.8150172" lon="17.2744528"><ele>357.5</ele><time>2026-05-02T15:38:27.483Z</time></trkpt><trkpt lat="40.8148886" lon="17.2744478"><ele>359.0</ele><time>2026-05-02T15:38:28.482Z</time></trkpt><trkpt lat="40.8147712" lon="17.2744498"><ele>359.0</ele><time>2026-05-02T15:38:29.482Z</time></trkpt><trkpt lat="40.8146415" lon="17.2744309"><ele>359.0</ele><time>2026-05-02T15:38:30.483Z</time></trkpt><trkpt lat="40.8145317" lon="17.2744117"><ele>359.0</ele><time>2026-05-02T15:38:31.482Z</time></trkpt><trkpt lat="40.8144036" lon="17.2744049"><ele>359.0</ele><time>2026-05-02T15:38:32.481Z</time></trkpt><trkpt lat="40.814285" lon="17.2743793"><ele>359.5</ele><time>2026-05-02T15:38:33.482Z</time></trkpt><trkpt lat="40.8141609" lon="17.2743591"><ele>360.0</ele><time>2026-05-02T15:38:34.482Z</time></trkpt><trkpt lat="40.8140475" lon="17.2743104"><ele>360.5</ele><time>2026-05-02T15:38:35.482Z</time></trkpt><trkpt lat="40.8139264" lon="17.2742486"><ele>361.0</ele><time>2026-05-02T15:38:36.483Z</time></trkpt><trkpt lat="40.8138107" lon="17.2741791"><ele>361.0</ele><time>2026-05-02T15:38:37.483Z</time></trkpt><trkpt lat="40.8136991" lon="17.274127"><ele>361.0</ele><time>2026-05-02T15:38:38.482Z</time></trkpt><trkpt lat="40.8136087" lon="17.274029"><ele>361.0</ele><time>2026-05-02T15:38:39.482Z</time></trkpt><trkpt lat="40.8134938" lon="17.27391"><ele>361.0</ele><time>2026-05-02T15:38:40.483Z</time></trkpt><trkpt lat="40.8133859" lon="17.2738023"><ele>363.5</ele><time>2026-05-02T15:38:41.482Z</time></trkpt><trkpt lat="40.8133232" lon="17.2736611"><ele>366.0</ele><time>2026-05-02T15:38:42.481Z</time></trkpt><trkpt lat="40.8132548" lon="17.2735395"><ele>368.5</ele><time>2026-05-02T15:38:43.481Z</time></trkpt><trkpt lat="40.8131839" lon="17.2734294"><ele>371.0</ele><time>2026-05-02T15:38:44.482Z</time></trkpt><trkpt lat="40.813131" lon="17.2733046"><ele>371.0</ele><time>2026-05-02T15:38:45.482Z</time></trkpt><trkpt lat="40.8130762" lon="17.2731734"><ele>371.0</ele><time>2026-05-02T15:38:46.482Z</time></trkpt><trkpt lat="40.8130175" lon="17.2730444"><ele>371.0</ele><time>2026-05-02T15:38:47.481Z</time></trkpt><trkpt lat="40.8129606" lon="17.2729128"><ele>371.0</ele><time>2026-05-02T15:38:48.482Z</time></trkpt><trkpt lat="40.812903" lon="17.2727777"><ele>372.25</ele><time>2026-05-02T15:38:49.482Z</time></trkpt><trkpt lat="40.812844" lon="17.2726466"><ele>373.5</ele><time>2026-05-02T15:38:50.482Z</time></trkpt><trkpt lat="40.8127795" lon="17.2725231"><ele>374.75</ele><time>2026-05-02T15:38:51.482Z</time></trkpt><trkpt lat="40.812734" lon="17.2723817"><ele>376.0</ele><time>2026-05-02T15:38:52.482Z</time></trkpt><trkpt lat="40.8126762" lon="17.2722354"><ele>378.0</ele><time>2026-05-02T15:38:53.482Z</time></trkpt><trkpt lat="40.8126102" lon="17.2720969"><ele>380.0</ele><time>2026-05-02T15:38:54.483Z</time></trkpt><trkpt lat="40.8125498" lon="17.2719487"><ele>382.0</ele><time>2026-05-02T15:38:55.481Z</time></trkpt><trkpt lat="40.8124533" lon="17.2718086"><ele>384.0</ele><time>2026-05-02T15:38:56.482Z</time></trkpt><trkpt lat="40.812359" lon="17.2716812"><ele>384.0</ele><time>2026-05-02T15:38:57.481Z</time></trkpt><trkpt lat="40.8122486" lon="17.2715503"><ele>384.0</ele><time>2026-05-02T15:38:58.481Z</time></trkpt><trkpt lat="40.8121379" lon="17.2714282"><ele>384.0</ele><time>2026-05-02T15:38:59.482Z</time></trkpt><trkpt lat="40.8120288" lon="17.2712949"><ele>384.0</ele><time>2026-05-02T15:39:00.482Z</time></trkpt><trkpt lat="40.8119311" lon="17.2711509"><ele>384.25</ele><time>2026-05-02T15:39:01.482Z</time></trkpt><trkpt lat="40.8118403" lon="17.2710018"><ele>384.5</ele><time>2026-05-02T15:39:02.482Z</time></trkpt><trkpt lat="40.8117576" lon="17.2708317"><ele>384.75</ele><time>2026-05-02T15:39:03.481Z</time></trkpt><trkpt lat="40.8117285" lon="17.2706511"><ele>385.0</ele><time>2026-05-02T15:39:04.482Z</time></trkpt><trkpt lat="40.8116917" lon="17.2704832"><ele>385.5</ele><time>2026-05-02T15:39:05.482Z</time></trkpt><trkpt lat="40.8116548" lon="17.2703313"><ele>386.0</ele><time>2026-05-02T15:39:06.481Z</time></trkpt><trkpt lat="40.8116208" lon="17.2701803"><ele>386.5</ele><time>2026-05-02T15:39:07.482Z</time></trkpt><trkpt lat="40.811581" lon="17.2700347"><ele>387.0</ele><time>2026-05-02T15:39:08.482Z</time></trkpt><trkpt lat="40.8115437" lon="17.2698873"><ele>387.0</ele><time>2026-05-02T15:39:09.481Z</time></trkpt><trkpt lat="40.8115077" lon="17.2697401"><ele>387.0</ele><time>2026-05-02T15:39:10.482Z</time></trkpt><trkpt lat="40.8114675" lon="17.2695895"><ele>387.0</ele><time>2026-05-02T15:39:11.482Z</time></trkpt><trkpt lat="40.8114233" lon="17.2694394"><ele>387.0</ele><time>2026-05-02T15:39:12.482Z</time></trkpt><trkpt lat="40.8113729" lon="17.2692757"><ele>387.0</ele><time>2026-05-02T15:39:13.482Z</time></trkpt><trkpt lat="40.8113152" lon="17.2691196"><ele>387.0</ele><time>2026-05-02T15:39:14.482Z</time></trkpt><trkpt lat="40.8112545" lon="17.2689684"><ele>387.0</ele><time>2026-05-02T15:39:15.481Z</time></trkpt><trkpt lat="40.8111915" lon="17.268816"><ele>387.0</ele><time>2026-05-02T15:39:16.482Z</time></trkpt><trkpt lat="40.8111256" lon="17.2686673"><ele>386.75</ele><time>2026-05-02T15:39:17.481Z</time></trkpt><trkpt lat="40.8110585" lon="17.2685245"><ele>386.5</ele><time>2026-05-02T15:39:18.482Z</time></trkpt><trkpt lat="40.810989" lon="17.2683837"><ele>386.25</ele><time>2026-05-02T15:39:19.483Z</time></trkpt><trkpt lat="40.8109259" lon="17.2682504"><ele>386.0</ele><time>2026-05-02T15:39:20.482Z</time></trkpt><trkpt lat="40.8108579" lon="17.2681413"><ele>386.8</ele><time>2026-05-02T15:39:21.482Z</time></trkpt><trkpt lat="40.8107873" lon="17.2680495"><ele>387.6</ele><time>2026-05-02T15:39:22.482Z</time></trkpt><trkpt lat="40.8107174" lon="17.2679621"><ele>388.4</ele><time>2026-05-02T15:39:23.481Z</time></trkpt><trkpt lat="40.8106327" lon="17.2678796"><ele>389.2</ele><time>2026-05-02T15:39:24.483Z</time></trkpt><trkpt lat="40.8105348" lon="17.2678119"><ele>390.0</ele><time>2026-05-02T15:39:25.482Z</time></trkpt><trkpt lat="40.8104211" lon="17.2677552"><ele>390.0</ele><time>2026-05-02T15:39:26.482Z</time></trkpt><trkpt lat="40.8102981" lon="17.26771"><ele>390.0</ele><time>2026-05-02T15:39:27.481Z</time></trkpt><trkpt lat="40.8101699" lon="17.2676701"><ele>390.0</ele><time>2026-05-02T15:39:28.482Z</time></trkpt><trkpt lat="40.8100401" lon="17.2676445"><ele>390.0</ele><time>2026-05-02T15:39:29.482Z</time></trkpt><trkpt lat="40.8099128" lon="17.2676185"><ele>390.5</ele><time>2026-05-02T15:39:30.482Z</time></trkpt><trkpt lat="40.8097859" lon="17.2675945"><ele>391.0</ele><time>2026-05-02T15:39:31.481Z</time></trkpt><trkpt lat="40.8096704" lon="17.2675647"><ele>391.5</ele><time>2026-05-02T15:39:32.483Z</time></trkpt><trkpt lat="40.8095598" lon="17.2675214"><ele>392.0</ele><time>2026-05-02T15:39:33.481Z</time></trkpt><trkpt lat="40.8094581" lon="17.2674623"><ele>392.0</ele><time>2026-05-02T15:39:34.481Z</time></trkpt><trkpt lat="40.8093652" lon="17.2673889"><ele>392.0</ele><time>2026-05-02T15:39:35.483Z</time></trkpt><trkpt lat="40.8092783" lon="17.2673018"><ele>392.0</ele><time>2026-05-02T15:39:36.482Z</time></trkpt><trkpt lat="40.8092018" lon="17.2672208"><ele>392.0</ele><time>2026-05-02T15:39:37.483Z</time></trkpt><trkpt lat="40.809114" lon="17.2671295"><ele>392.0</ele><time>2026-05-02T15:39:38.482Z</time></trkpt><trkpt lat="40.8090264" lon="17.2670463"><ele>392.20000000000005</ele><time>2026-05-02T15:39:39.482Z</time></trkpt><trkpt lat="40.8089398" lon="17.2669728"><ele>392.4</ele><time>2026-05-02T15:39:40.482Z</time></trkpt><trkpt lat="40.8088497" lon="17.2669079"><ele>392.6</ele><time>2026-05-02T15:39:41.482Z</time></trkpt><trkpt lat="40.8087648" lon="17.2668522"><ele>392.79999999999995</ele><time>2026-05-02T15:39:42.481Z</time></trkpt><trkpt lat="40.8086908" lon="17.2668024"><ele>393.0</ele><time>2026-05-02T15:39:43.482Z</time></trkpt><trkpt lat="40.8086207" lon="17.2667598"><ele>393.0</ele><time>2026-05-02T15:39:44.482Z</time></trkpt><trkpt lat="40.8085534" lon="17.2667172"><ele>393.0</ele><time>2026-05-02T15:39:45.481Z</time></trkpt><trkpt lat="40.8084895" lon="17.2666771"><ele>393.0</ele><time>2026-05-02T15:39:46.482Z</time></trkpt><trkpt lat="40.8083705" lon="17.2665986"><ele>393.0</ele><time>2026-05-02T15:39:48.482Z</time></trkpt><trkpt lat="40.8082731" lon="17.2665096"><ele>393.0</ele><time>2026-05-02T15:39:50.481Z</time></trkpt><trkpt lat="40.8082071" lon="17.266466"><ele>393.28571428571433</ele><time>2026-05-02T15:39:51.481Z</time></trkpt><trkpt lat="40.8081419" lon="17.2664234"><ele>393.57142857142856</ele><time>2026-05-02T15:39:52.481Z</time></trkpt><trkpt lat="40.8080767" lon="17.2663846"><ele>393.8571428571429</ele><time>2026-05-02T15:39:53.482Z</time></trkpt><trkpt lat="40.8080163" lon="17.266342"><ele>394.14285714285717</ele><time>2026-05-02T15:39:54.482Z</time></trkpt><trkpt lat="40.8079533" lon="17.2663053"><ele>394.42857142857144</ele><time>2026-05-02T15:39:55.482Z</time></trkpt><trkpt lat="40.8078917" lon="17.2662662"><ele>394.7142857142857</ele><time>2026-05-02T15:39:56.482Z</time></trkpt><trkpt lat="40.8078258" lon="17.2662334"><ele>395.0</ele><time>2026-05-02T15:39:57.482Z</time></trkpt><trkpt lat="40.8077534" lon="17.2662025"><ele>394.99999999999994</ele><time>2026-05-02T15:39:58.481Z</time></trkpt><trkpt lat="40.80768" lon="17.2661693"><ele>395.0</ele><time>2026-05-02T15:39:59.482Z</time></trkpt><trkpt lat="40.8076026" lon="17.2661422"><ele>395.0</ele><time>2026-05-02T15:40:00.483Z</time></trkpt><trkpt lat="40.8075107" lon="17.2661191"><ele>395.0</ele><time>2026-05-02T15:40:01.482Z</time></trkpt><trkpt lat="40.8074253" lon="17.2660907"><ele>394.99999999999994</ele><time>2026-05-02T15:40:02.483Z</time></trkpt><trkpt lat="40.8073412" lon="17.2660481"><ele>395.0</ele><time>2026-05-02T15:40:03.482Z</time></trkpt><trkpt lat="40.8072563" lon="17.2660034"><ele>395.4</ele><time>2026-05-02T15:40:04.482Z</time></trkpt><trkpt lat="40.8071677" lon="17.2659468"><ele>395.8</ele><time>2026-05-02T15:40:05.482Z</time></trkpt><trkpt lat="40.8070762" lon="17.2658841"><ele>396.20000000000005</ele><time>2026-05-02T15:40:06.482Z</time></trkpt><trkpt lat="40.8069871" lon="17.2658246"><ele>396.6</ele><time>2026-05-02T15:40:07.481Z</time></trkpt><trkpt lat="40.8068971" lon="17.2657703"><ele>397.0</ele><time>2026-05-02T15:40:08.481Z</time></trkpt><trkpt lat="40.8068082" lon="17.2657163"><ele>397.20000000000005</ele><time>2026-05-02T15:40:09.483Z</time></trkpt><trkpt lat="40.806716" lon="17.2656591"><ele>397.4</ele><time>2026-05-02T15:40:10.483Z</time></trkpt><trkpt lat="40.8066313" lon="17.2656004"><ele>397.6</ele><time>2026-05-02T15:40:11.482Z</time></trkpt><trkpt lat="40.8065482" lon="17.2655437"><ele>397.79999999999995</ele><time>2026-05-02T15:40:12.483Z</time></trkpt><trkpt lat="40.8064657" lon="17.2654842"><ele>398.0</ele><time>2026-05-02T15:40:13.482Z</time></trkpt><trkpt lat="40.8063817" lon="17.2654325"><ele>397.59999999999997</ele><time>2026-05-02T15:40:14.482Z</time></trkpt><trkpt lat="40.806294" lon="17.2653762"><ele>397.2</ele><time>2026-05-02T15:40:15.482Z</time></trkpt><trkpt lat="40.8062089" lon="17.265324"><ele>396.8</ele><time>2026-05-02T15:40:16.482Z</time></trkpt><trkpt lat="40.8061205" lon="17.2652737"><ele>396.4</ele><time>2026-05-02T15:40:17.482Z</time></trkpt><trkpt lat="40.8060337" lon="17.265225"><ele>396.0</ele><time>2026-05-02T15:40:18.482Z</time></trkpt><trkpt lat="40.8059538" lon="17.2651815"><ele>396.0</ele><time>2026-05-02T15:40:19.482Z</time></trkpt><trkpt lat="40.8058685" lon="17.2651362"><ele>396.0</ele><time>2026-05-02T15:40:20.482Z</time></trkpt><trkpt lat="40.8057809" lon="17.2650932"><ele>396.0</ele><time>2026-05-02T15:40:21.482Z</time></trkpt><trkpt lat="40.8056929" lon="17.2650603"><ele>396.0</ele><time>2026-05-02T15:40:22.481Z</time></trkpt><trkpt lat="40.8056089" lon="17.2650261"><ele>396.0</ele><time>2026-05-02T15:40:23.482Z</time></trkpt><trkpt lat="40.8055277" lon="17.2649992"><ele>396.0</ele><time>2026-05-02T15:40:24.482Z</time></trkpt><trkpt lat="40.8054445" lon="17.2649765"><ele>396.0</ele><time>2026-05-02T15:40:25.482Z</time></trkpt><trkpt lat="40.805382" lon="17.2649564"><ele>396.0</ele><time>2026-05-02T15:40:26.482Z</time></trkpt><trkpt lat="40.8052752" lon="17.2649196"><ele>396.0</ele><time>2026-05-02T15:40:28.482Z</time></trkpt><trkpt lat="40.8051764" lon="17.2648853"><ele>396.0</ele><time>2026-05-02T15:40:30.482Z</time></trkpt><trkpt lat="40.8050774" lon="17.264842"><ele>396.0</ele><time>2026-05-02T15:40:32.481Z</time></trkpt><trkpt lat="40.8049819" lon="17.2647923"><ele>395.6</ele><time>2026-05-02T15:40:34.483Z</time></trkpt><trkpt lat="40.8048768" lon="17.2647217"><ele>395.20000000000005</ele><time>2026-05-02T15:40:36.482Z</time></trkpt><trkpt lat="40.8047599" lon="17.2646341"><ele>394.79999999999995</ele><time>2026-05-02T15:40:38.482Z</time></trkpt><trkpt lat="40.8046866" lon="17.2646018"><ele>394.4</ele><time>2026-05-02T15:40:39.482Z</time></trkpt><trkpt lat="40.8046252" lon="17.2645553"><ele>394.0</ele><time>2026-05-02T15:40:40.483Z</time></trkpt><trkpt lat="40.804568" lon="17.2645126"><ele>394.0</ele><time>2026-05-02T15:40:41.482Z</time></trkpt><trkpt lat="40.8045052" lon="17.2644633"><ele>394.0</ele><time>2026-05-02T15:40:42.481Z</time></trkpt><trkpt lat="40.8044487" lon="17.2644164"><ele>394.0</ele><time>2026-05-02T15:40:43.482Z</time></trkpt><trkpt lat="40.8043911" lon="17.2643743"><ele>394.0</ele><time>2026-05-02T15:40:44.482Z</time></trkpt><trkpt lat="40.8043322" lon="17.2643276"><ele>394.0</ele><time>2026-05-02T15:40:45.481Z</time></trkpt><trkpt lat="40.8042736" lon="17.2642832"><ele>394.0</ele><time>2026-05-02T15:40:46.483Z</time></trkpt><trkpt lat="40.8042143" lon="17.264239"><ele>394.0</ele><time>2026-05-02T15:40:47.482Z</time></trkpt><trkpt lat="40.8041604" lon="17.2641902"><ele>393.6666666666667</ele><time>2026-05-02T15:40:48.482Z</time></trkpt><trkpt lat="40.8041067" lon="17.2641342"><ele>393.33333333333337</ele><time>2026-05-02T15:40:49.482Z</time></trkpt><trkpt lat="40.8040494" lon="17.2640655"><ele>393.0</ele><time>2026-05-02T15:40:50.483Z</time></trkpt><trkpt lat="40.8040076" lon="17.2639944"><ele>392.66666666666663</ele><time>2026-05-02T15:40:51.482Z</time></trkpt><trkpt lat="40.8039469" lon="17.2639211"><ele>392.3333333333333</ele><time>2026-05-02T15:40:52.481Z</time></trkpt><trkpt lat="40.8038797" lon="17.2638392"><ele>392.0</ele><time>2026-05-02T15:40:53.481Z</time></trkpt><trkpt lat="40.8038127" lon="17.2637548"><ele>391.6</ele><time>2026-05-02T15:40:54.482Z</time></trkpt><trkpt lat="40.8037415" lon="17.2636629"><ele>391.20000000000005</ele><time>2026-05-02T15:40:55.482Z</time></trkpt><trkpt lat="40.8036722" lon="17.263577"><ele>390.8</ele><time>2026-05-02T15:40:56.482Z</time></trkpt><trkpt lat="40.8036052" lon="17.263493"><ele>390.4</ele><time>2026-05-02T15:40:57.482Z</time></trkpt><trkpt lat="40.8035292" lon="17.263411"><ele>390.0</ele><time>2026-05-02T15:40:58.481Z</time></trkpt><trkpt lat="40.803462" lon="17.2633313"><ele>390.0</ele><time>2026-05-02T15:40:59.483Z</time></trkpt><trkpt lat="40.8033986" lon="17.2632537"><ele>390.0</ele><time>2026-05-02T15:41:00.482Z</time></trkpt><trkpt lat="40.8033349" lon="17.2631647"><ele>390.0</ele><time>2026-05-02T15:41:01.482Z</time></trkpt><trkpt lat="40.8032697" lon="17.2630956"><ele>390.0</ele><time>2026-05-02T15:41:02.482Z</time></trkpt><trkpt lat="40.8032019" lon="17.2630271"><ele>390.0</ele><time>2026-05-02T15:41:03.482Z</time></trkpt><trkpt lat="40.8031364" lon="17.262957"><ele>390.0</ele><time>2026-05-02T15:41:04.482Z</time></trkpt><trkpt lat="40.8030753" lon="17.2628885"><ele>389.3333333333333</ele><time>2026-05-02T15:41:05.482Z</time></trkpt><trkpt lat="40.8030057" lon="17.2628251"><ele>388.66666666666663</ele><time>2026-05-02T15:41:06.482Z</time></trkpt><trkpt lat="40.8029418" lon="17.262761"><ele>388.0</ele><time>2026-05-02T15:41:07.482Z</time></trkpt><trkpt lat="40.8028792" lon="17.2626989"><ele>387.3333333333333</ele><time>2026-05-02T15:41:08.482Z</time></trkpt><trkpt lat="40.8028156" lon="17.2626355"><ele>386.66666666666663</ele><time>2026-05-02T15:41:09.483Z</time></trkpt><trkpt lat="40.8027524" lon="17.2625826"><ele>386.0</ele><time>2026-05-02T15:41:10.481Z</time></trkpt><trkpt lat="40.802692" lon="17.2625286"><ele>385.99999999999994</ele><time>2026-05-02T15:41:11.481Z</time></trkpt><trkpt lat="40.8026309" lon="17.2624731"><ele>386.0</ele><time>2026-05-02T15:41:12.481Z</time></trkpt><trkpt lat="40.8025695" lon="17.2624155"><ele>386.0</ele><time>2026-05-02T15:41:13.481Z</time></trkpt><trkpt lat="40.8025041" lon="17.262354"><ele>386.0</ele><time>2026-05-02T15:41:14.481Z</time></trkpt><trkpt lat="40.8024417" lon="17.262285"><ele>385.99999999999994</ele><time>2026-05-02T15:41:15.482Z</time></trkpt><trkpt lat="40.8023749" lon="17.2622186"><ele>386.0</ele><time>2026-05-02T15:41:16.483Z</time></trkpt><trkpt lat="40.8023069" lon="17.2621619"><ele>385.99999999999994</ele><time>2026-05-02T15:41:17.483Z</time></trkpt><trkpt lat="40.8022369" lon="17.2621115"><ele>386.0</ele><time>2026-05-02T15:41:18.482Z</time></trkpt><trkpt lat="40.8021612" lon="17.2620709"><ele>386.0</ele><time>2026-05-02T15:41:19.482Z</time></trkpt><trkpt lat="40.8020798" lon="17.2620434"><ele>386.0</ele><time>2026-05-02T15:41:20.482Z</time></trkpt><trkpt lat="40.801997" lon="17.2620556"><ele>385.99999999999994</ele><time>2026-05-02T15:41:21.482Z</time></trkpt><trkpt lat="40.8019156" lon="17.2620747"><ele>386.0</ele><time>2026-05-02T15:41:22.481Z</time></trkpt><trkpt lat="40.8018355" lon="17.2621026"><ele>386.66666666666663</ele><time>2026-05-02T15:41:23.481Z</time></trkpt><trkpt lat="40.8017619" lon="17.2621313"><ele>387.3333333333333</ele><time>2026-05-02T15:41:24.482Z</time></trkpt><trkpt lat="40.8016859" lon="17.2621589"><ele>388.0</ele><time>2026-05-02T15:41:25.481Z</time></trkpt><trkpt lat="40.8016082" lon="17.2621808"><ele>388.66666666666663</ele><time>2026-05-02T15:41:26.481Z</time></trkpt><trkpt lat="40.801532" lon="17.2621942"><ele>389.3333333333333</ele><time>2026-05-02T15:41:27.481Z</time></trkpt><trkpt lat="40.8014531" lon="17.262183"><ele>390.0</ele><time>2026-05-02T15:41:28.481Z</time></trkpt><trkpt lat="40.8013868" lon="17.2621415"><ele>390.0</ele><time>2026-05-02T15:41:29.481Z</time></trkpt><trkpt lat="40.8013237" lon="17.2620807"><ele>390.0</ele><time>2026-05-02T15:41:30.482Z</time></trkpt><trkpt lat="40.8012702" lon="17.2620085"><ele>390.0</ele><time>2026-05-02T15:41:31.482Z</time></trkpt><trkpt lat="40.8012135" lon="17.2619302"><ele>390.0</ele><time>2026-05-02T15:41:32.481Z</time></trkpt><trkpt lat="40.8011562" lon="17.2618391"><ele>390.0</ele><time>2026-05-02T15:41:33.48Z</time></trkpt><trkpt lat="40.8010934" lon="17.261747"><ele>390.0</ele><time>2026-05-02T15:41:34.48Z</time></trkpt><trkpt lat="40.8010305" lon="17.2616564"><ele>390.0</ele><time>2026-05-02T15:41:35.481Z</time></trkpt><trkpt lat="40.8009691" lon="17.261558"><ele>390.0</ele><time>2026-05-02T15:41:36.481Z</time></trkpt><trkpt lat="40.8009096" lon="17.2614529"><ele>390.0</ele><time>2026-05-02T15:41:37.48Z</time></trkpt><trkpt lat="40.8008566" lon="17.2613406"><ele>390.0</ele><time>2026-05-02T15:41:38.482Z</time></trkpt><trkpt lat="40.800805" lon="17.2612304"><ele>390.0</ele><time>2026-05-02T15:41:39.481Z</time></trkpt><trkpt lat="40.8007547" lon="17.2611194"><ele>389.8</ele><time>2026-05-02T15:41:40.481Z</time></trkpt><trkpt lat="40.8007013" lon="17.2610044"><ele>389.6</ele><time>2026-05-02T15:41:41.482Z</time></trkpt><trkpt lat="40.8006595" lon="17.2609008"><ele>389.4</ele><time>2026-05-02T15:41:42.481Z</time></trkpt><trkpt lat="40.8006199" lon="17.2607861"><ele>389.2</ele><time>2026-05-02T15:41:43.481Z</time></trkpt><trkpt lat="40.8005764" lon="17.2606715"><ele>389.0</ele><time>2026-05-02T15:41:44.481Z</time></trkpt><trkpt lat="40.8005382" lon="17.260566"><ele>388.5714285714286</ele><time>2026-05-02T15:41:45.481Z</time></trkpt><trkpt lat="40.800508" lon="17.2604764"><ele>388.1428571428571</ele><time>2026-05-02T15:41:46.481Z</time></trkpt><trkpt lat="40.8004785" lon="17.2603897"><ele>387.7142857142857</ele><time>2026-05-02T15:41:47.481Z</time></trkpt><trkpt lat="40.8004463" lon="17.2603038"><ele>387.28571428571433</ele><time>2026-05-02T15:41:48.48Z</time></trkpt><trkpt lat="40.8004151" lon="17.2602186"><ele>386.8571428571429</ele><time>2026-05-02T15:41:49.481Z</time></trkpt><trkpt lat="40.8003923" lon="17.2601371"><ele>386.42857142857144</ele><time>2026-05-02T15:41:50.481Z</time></trkpt><trkpt lat="40.8003723" lon="17.2600479"><ele>386.0</ele><time>2026-05-02T15:41:51.481Z</time></trkpt><trkpt lat="40.8003381" lon="17.2599466"><ele>386.0</ele><time>2026-05-02T15:41:52.481Z</time></trkpt><trkpt lat="40.8003136" lon="17.2598504"><ele>386.0</ele><time>2026-05-02T15:41:53.481Z</time></trkpt><trkpt lat="40.8002776" lon="17.2597351"><ele>386.0</ele><time>2026-05-02T15:41:54.481Z</time></trkpt><trkpt lat="40.8002464" lon="17.2596264"><ele>386.0</ele><time>2026-05-02T15:41:55.481Z</time></trkpt><trkpt lat="40.8002023" lon="17.259512"><ele>386.0</ele><time>2026-05-02T15:41:56.481Z</time></trkpt><trkpt lat="40.8001622" lon="17.2593891"><ele>384.6</ele><time>2026-05-02T15:41:57.482Z</time></trkpt><trkpt lat="40.8001242" lon="17.2592578"><ele>383.20000000000005</ele><time>2026-05-02T15:41:58.481Z</time></trkpt><trkpt lat="40.8000918" lon="17.259131"><ele>381.79999999999995</ele><time>2026-05-02T15:41:59.48Z</time></trkpt><trkpt lat="40.8000607" lon="17.258991"><ele>380.4</ele><time>2026-05-02T15:42:00.48Z</time></trkpt><trkpt lat="40.8000328" lon="17.2588507"><ele>379.0</ele><time>2026-05-02T15:42:01.481Z</time></trkpt><trkpt lat="40.8000029" lon="17.2587107"><ele>378.2</ele><time>2026-05-02T15:42:02.481Z</time></trkpt><trkpt lat="40.7999735" lon="17.2585643"><ele>377.4</ele><time>2026-05-02T15:42:03.481Z</time></trkpt><trkpt lat="40.7999443" lon="17.2584179"><ele>376.6</ele><time>2026-05-02T15:42:04.481Z</time></trkpt><trkpt lat="40.7999186" lon="17.2582724"><ele>375.8</ele><time>2026-05-02T15:42:05.481Z</time></trkpt><trkpt lat="40.7998887" lon="17.2581399"><ele>375.0</ele><time>2026-05-02T15:42:06.481Z</time></trkpt><trkpt lat="40.7998617" lon="17.2580001"><ele>374.0</ele><time>2026-05-02T15:42:07.481Z</time></trkpt><trkpt lat="40.7998369" lon="17.2578524"><ele>373.0</ele><time>2026-05-02T15:42:08.482Z</time></trkpt><trkpt lat="40.7998063" lon="17.2577103"><ele>372.0</ele><time>2026-05-02T15:42:09.481Z</time></trkpt><trkpt lat="40.7997732" lon="17.2575686"><ele>371.0</ele><time>2026-05-02T15:42:10.48Z</time></trkpt><trkpt lat="40.7997264" lon="17.2574289"><ele>371.0</ele><time>2026-05-02T15:42:11.481Z</time></trkpt><trkpt lat="40.7996817" lon="17.2573047"><ele>371.0</ele><time>2026-05-02T15:42:12.481Z</time></trkpt><trkpt lat="40.7996182" lon="17.2571798"><ele>371.0</ele><time>2026-05-02T15:42:13.481Z</time></trkpt><trkpt lat="40.799556" lon="17.2570561"><ele>371.0</ele><time>2026-05-02T15:42:14.481Z</time></trkpt><trkpt lat="40.7994798" lon="17.2569368"><ele>371.0</ele><time>2026-05-02T15:42:15.481Z</time></trkpt><trkpt lat="40.7993994" lon="17.2568244"><ele>370.5</ele><time>2026-05-02T15:42:16.481Z</time></trkpt><trkpt lat="40.7993126" lon="17.2567165"><ele>370.0</ele><time>2026-05-02T15:42:17.481Z</time></trkpt><trkpt lat="40.79922" lon="17.2566084"><ele>369.5</ele><time>2026-05-02T15:42:18.481Z</time></trkpt><trkpt lat="40.7991236" lon="17.2565068"><ele>369.0</ele><time>2026-05-02T15:42:19.481Z</time></trkpt><trkpt lat="40.7990327" lon="17.2564069"><ele>368.5</ele><time>2026-05-02T15:42:20.48Z</time></trkpt><trkpt lat="40.7989414" lon="17.2563091"><ele>368.0</ele><time>2026-05-02T15:42:21.482Z</time></trkpt><trkpt lat="40.7988472" lon="17.2562084"><ele>367.5</ele><time>2026-05-02T15:42:22.482Z</time></trkpt><trkpt lat="40.7987488" lon="17.256108"><ele>367.0</ele><time>2026-05-02T15:42:23.481Z</time></trkpt><trkpt lat="40.7986523" lon="17.2560142"><ele>367.0</ele><time>2026-05-02T15:42:24.48Z</time></trkpt><trkpt lat="40.7985596" lon="17.255919"><ele>367.0</ele><time>2026-05-02T15:42:25.48Z</time></trkpt><trkpt lat="40.7984609" lon="17.2558213"><ele>367.0</ele><time>2026-05-02T15:42:26.48Z</time></trkpt><trkpt lat="40.7983697" lon="17.2557164"><ele>367.0</ele><time>2026-05-02T15:42:27.481Z</time></trkpt><trkpt lat="40.7982688" lon="17.2556247"><ele>367.25</ele><time>2026-05-02T15:42:28.481Z</time></trkpt><trkpt lat="40.7981696" lon="17.255527"><ele>367.5</ele><time>2026-05-02T15:42:29.481Z</time></trkpt><trkpt lat="40.7980692" lon="17.2554261"><ele>367.75</ele><time>2026-05-02T15:42:30.48Z</time></trkpt><trkpt lat="40.7979693" lon="17.2553292"><ele>368.0</ele><time>2026-05-02T15:42:31.48Z</time></trkpt><trkpt lat="40.7978675" lon="17.2552225"><ele>368.0</ele><time>2026-05-02T15:42:32.48Z</time></trkpt><trkpt lat="40.797768" lon="17.2551171"><ele>368.0</ele><time>2026-05-02T15:42:33.481Z</time></trkpt><trkpt lat="40.7976583" lon="17.2550079"><ele>368.0</ele><time>2026-05-02T15:42:34.481Z</time></trkpt><trkpt lat="40.7975491" lon="17.2549029"><ele>368.0</ele><time>2026-05-02T15:42:35.48Z</time></trkpt><trkpt lat="40.79744" lon="17.2547978"><ele>368.0</ele><time>2026-05-02T15:42:36.481Z</time></trkpt><trkpt lat="40.7973309" lon="17.2546904"><ele>368.0</ele><time>2026-05-02T15:42:37.481Z</time></trkpt><trkpt lat="40.7972229" lon="17.254585"><ele>368.0</ele><time>2026-05-02T15:42:38.481Z</time></trkpt><trkpt lat="40.7971143" lon="17.2544832"><ele>368.0</ele><time>2026-05-02T15:42:39.481Z</time></trkpt><trkpt lat="40.7970075" lon="17.2543926"><ele>368.0</ele><time>2026-05-02T15:42:40.481Z</time></trkpt><trkpt lat="40.7968992" lon="17.254299"><ele>368.0</ele><time>2026-05-02T15:42:41.48Z</time></trkpt><trkpt lat="40.7967933" lon="17.2542052"><ele>368.0</ele><time>2026-05-02T15:42:42.481Z</time></trkpt><trkpt lat="40.7966851" lon="17.2541137"><ele>368.0</ele><time>2026-05-02T15:42:43.481Z</time></trkpt><trkpt lat="40.7965792" lon="17.2540247"><ele>368.25</ele><time>2026-05-02T15:42:44.481Z</time></trkpt><trkpt lat="40.7964747" lon="17.2539362"><ele>368.5</ele><time>2026-05-02T15:42:45.481Z</time></trkpt><trkpt lat="40.7963702" lon="17.2538482"><ele>368.75</ele><time>2026-05-02T15:42:46.482Z</time></trkpt><trkpt lat="40.7962645" lon="17.2537593"><ele>369.0</ele><time>2026-05-02T15:42:47.48Z</time></trkpt><trkpt lat="40.796159" lon="17.2536734"><ele>369.0</ele><time>2026-05-02T15:42:48.48Z</time></trkpt><trkpt lat="40.7960522" lon="17.2535857"><ele>369.0</ele><time>2026-05-02T15:42:49.482Z</time></trkpt><trkpt lat="40.7959454" lon="17.2534991"><ele>369.0</ele><time>2026-05-02T15:42:50.482Z</time></trkpt><trkpt lat="40.7958383" lon="17.2534161"><ele>369.0</ele><time>2026-05-02T15:42:51.481Z</time></trkpt><trkpt lat="40.7957297" lon="17.253325"><ele>369.75</ele><time>2026-05-02T15:42:52.481Z</time></trkpt><trkpt lat="40.795622" lon="17.2532366"><ele>370.5</ele><time>2026-05-02T15:42:53.481Z</time></trkpt><trkpt lat="40.7955139" lon="17.2531511"><ele>371.25</ele><time>2026-05-02T15:42:54.48Z</time></trkpt><trkpt lat="40.7954065" lon="17.2530702"><ele>372.0</ele><time>2026-05-02T15:42:55.481Z</time></trkpt><trkpt lat="40.795301" lon="17.252984"><ele>372.75</ele><time>2026-05-02T15:42:56.481Z</time></trkpt><trkpt lat="40.795198" lon="17.2528956"><ele>373.5</ele><time>2026-05-02T15:42:57.481Z</time></trkpt><trkpt lat="40.795093" lon="17.2528091"><ele>374.25</ele><time>2026-05-02T15:42:58.481Z</time></trkpt><trkpt lat="40.7949865" lon="17.2527248"><ele>375.0</ele><time>2026-05-02T15:42:59.481Z</time></trkpt><trkpt lat="40.7948858" lon="17.2526321"><ele>375.0</ele><time>2026-05-02T15:43:00.481Z</time></trkpt><trkpt lat="40.7947911" lon="17.2525462"><ele>375.0</ele><time>2026-05-02T15:43:01.481Z</time></trkpt><trkpt lat="40.7946977" lon="17.2524635"><ele>375.0</ele><time>2026-05-02T15:43:02.48Z</time></trkpt><trkpt lat="40.7946034" lon="17.2523827"><ele>375.0</ele><time>2026-05-02T15:43:03.481Z</time></trkpt><trkpt lat="40.7945119" lon="17.2523055"><ele>375.0</ele><time>2026-05-02T15:43:04.48Z</time></trkpt><trkpt lat="40.7944187" lon="17.2522224"><ele>375.2</ele><time>2026-05-02T15:43:05.481Z</time></trkpt><trkpt lat="40.7943328" lon="17.2521435"><ele>375.4</ele><time>2026-05-02T15:43:06.481Z</time></trkpt><trkpt lat="40.7942549" lon="17.2520636"><ele>375.6</ele><time>2026-05-02T15:43:07.481Z</time></trkpt><trkpt lat="40.7941868" lon="17.2519751"><ele>375.8</ele><time>2026-05-02T15:43:08.482Z</time></trkpt><trkpt lat="40.7941322" lon="17.2518829"><ele>376.0</ele><time>2026-05-02T15:43:09.482Z</time></trkpt><trkpt lat="40.7940872" lon="17.2517843"><ele>376.0</ele><time>2026-05-02T15:43:10.482Z</time></trkpt><trkpt lat="40.794048" lon="17.2516813"><ele>376.0</ele><time>2026-05-02T15:43:11.482Z</time></trkpt><trkpt lat="40.7940047" lon="17.2515783"><ele>376.0</ele><time>2026-05-02T15:43:12.481Z</time></trkpt><trkpt lat="40.7939657" lon="17.2514766"><ele>376.0</ele><time>2026-05-02T15:43:13.481Z</time></trkpt><trkpt lat="40.7939282" lon="17.2513792"><ele>376.0</ele><time>2026-05-02T15:43:14.482Z</time></trkpt><trkpt lat="40.7938933" lon="17.2512823"><ele>376.0</ele><time>2026-05-02T15:43:15.481Z</time></trkpt><trkpt lat="40.7938568" lon="17.2511889"><ele>376.16666666666663</ele><time>2026-05-02T15:43:16.481Z</time></trkpt><trkpt lat="40.7938261" lon="17.2510987"><ele>376.3333333333333</ele><time>2026-05-02T15:43:17.482Z</time></trkpt><trkpt lat="40.7937901" lon="17.2510155"><ele>376.5</ele><time>2026-05-02T15:43:18.481Z</time></trkpt><trkpt lat="40.7937512" lon="17.250932"><ele>376.6666666666667</ele><time>2026-05-02T15:43:19.48Z</time></trkpt><trkpt lat="40.7937177" lon="17.2508545"><ele>376.83333333333337</ele><time>2026-05-02T15:43:20.482Z</time></trkpt><trkpt lat="40.7936842" lon="17.2507806"><ele>377.0</ele><time>2026-05-02T15:43:21.481Z</time></trkpt><trkpt lat="40.7936329" lon="17.2506474"><ele>377.0</ele><time>2026-05-02T15:43:23.48Z</time></trkpt><trkpt lat="40.7935852" lon="17.250556"><ele>377.0</ele><time>2026-05-02T15:43:25.481Z</time></trkpt><trkpt lat="40.7935367" lon="17.2504569"><ele>377.0</ele><time>2026-05-02T15:44:02.481Z</time></trkpt><trkpt lat="40.7935" lon="17.2503688"><ele>377.0</ele><time>2026-05-02T15:44:04.481Z</time></trkpt><trkpt lat="40.7934521" lon="17.250246"><ele>377.0</ele><time>2026-05-02T15:44:06.481Z</time></trkpt><trkpt lat="40.7934235" lon="17.2501713"><ele>377.0</ele><time>2026-05-02T15:44:07.48Z</time></trkpt><trkpt lat="40.7933691" lon="17.2500258"><ele>377.1428571428571</ele><time>2026-05-02T15:44:09.481Z</time></trkpt><trkpt lat="40.793339" lon="17.2499443"><ele>377.2857142857143</ele><time>2026-05-02T15:44:10.481Z</time></trkpt><trkpt lat="40.7933141" lon="17.2498612"><ele>377.42857142857144</ele><time>2026-05-02T15:44:11.481Z</time></trkpt><trkpt lat="40.7932938" lon="17.2497782"><ele>377.57142857142856</ele><time>2026-05-02T15:44:12.481Z</time></trkpt><trkpt lat="40.7932693" lon="17.2496852"><ele>377.7142857142857</ele><time>2026-05-02T15:44:13.481Z</time></trkpt><trkpt lat="40.7932564" lon="17.2495947"><ele>377.85714285714283</ele><time>2026-05-02T15:44:14.482Z</time></trkpt><trkpt lat="40.7932508" lon="17.2494856"><ele>378.0</ele><time>2026-05-02T15:44:15.481Z</time></trkpt><trkpt lat="40.793261" lon="17.2493796"><ele>378.0</ele><time>2026-05-02T15:44:16.482Z</time></trkpt><trkpt lat="40.7932723" lon="17.2492804"><ele>378.0</ele><time>2026-05-02T15:44:17.48Z</time></trkpt><trkpt lat="40.7932803" lon="17.249171"><ele>378.0</ele><time>2026-05-02T15:44:18.481Z</time></trkpt><trkpt lat="40.7932856" lon="17.2490691"><ele>378.0</ele><time>2026-05-02T15:44:19.48Z</time></trkpt><trkpt lat="40.7932914" lon="17.248966"><ele>378.0</ele><time>2026-05-02T15:44:20.481Z</time></trkpt><trkpt lat="40.7932981" lon="17.2488659"><ele>378.0</ele><time>2026-05-02T15:44:21.48Z</time></trkpt><trkpt lat="40.7933009" lon="17.2487704"><ele>378.3333333333333</ele><time>2026-05-02T15:44:22.481Z</time></trkpt><trkpt lat="40.7933076" lon="17.2486737"><ele>378.6666666666667</ele><time>2026-05-02T15:44:23.48Z</time></trkpt><trkpt lat="40.7933122" lon="17.2485731"><ele>379.0</ele><time>2026-05-02T15:44:24.48Z</time></trkpt><trkpt lat="40.7933149" lon="17.2484699"><ele>379.33333333333337</ele><time>2026-05-02T15:44:25.48Z</time></trkpt><trkpt lat="40.7933137" lon="17.2483556"><ele>379.6666666666667</ele><time>2026-05-02T15:44:26.48Z</time></trkpt><trkpt lat="40.7933092" lon="17.2482304"><ele>380.0</ele><time>2026-05-02T15:44:27.481Z</time></trkpt><trkpt lat="40.7933019" lon="17.2480986"><ele>380.2</ele><time>2026-05-02T15:44:28.48Z</time></trkpt><trkpt lat="40.7932968" lon="17.2479591"><ele>380.4</ele><time>2026-05-02T15:44:29.48Z</time></trkpt><trkpt lat="40.7932771" lon="17.2478099"><ele>380.6</ele><time>2026-05-02T15:44:30.48Z</time></trkpt><trkpt lat="40.7932709" lon="17.2476831"><ele>380.8</ele><time>2026-05-02T15:44:31.48Z</time></trkpt><trkpt lat="40.7932529" lon="17.2475522"><ele>381.0</ele><time>2026-05-02T15:44:32.48Z</time></trkpt><trkpt lat="40.7932399" lon="17.2474197"><ele>381.4</ele><time>2026-05-02T15:44:33.479Z</time></trkpt><trkpt lat="40.7932298" lon="17.2472915"><ele>381.8</ele><time>2026-05-02T15:44:34.48Z</time></trkpt><trkpt lat="40.7932142" lon="17.2471677"><ele>382.2</ele><time>2026-05-02T15:44:35.48Z</time></trkpt><trkpt lat="40.7932007" lon="17.2470387"><ele>382.59999999999997</ele><time>2026-05-02T15:44:36.48Z</time></trkpt><trkpt lat="40.7931856" lon="17.2469236"><ele>383.0</ele><time>2026-05-02T15:44:37.48Z</time></trkpt><trkpt lat="40.7931672" lon="17.2468193"><ele>383.0</ele><time>2026-05-02T15:44:38.48Z</time></trkpt><trkpt lat="40.7931449" lon="17.2467193"><ele>383.0</ele><time>2026-05-02T15:44:39.479Z</time></trkpt><trkpt lat="40.7931239" lon="17.2466239"><ele>383.0</ele><time>2026-05-02T15:44:40.48Z</time></trkpt><trkpt lat="40.7930993" lon="17.246529"><ele>383.0</ele><time>2026-05-02T15:44:41.48Z</time></trkpt><trkpt lat="40.7930774" lon="17.2464341"><ele>383.0</ele><time>2026-05-02T15:44:42.48Z</time></trkpt><trkpt lat="40.7930503" lon="17.2463405"><ele>383.0</ele><time>2026-05-02T15:44:43.479Z</time></trkpt><trkpt lat="40.7930185" lon="17.246253"><ele>383.0</ele><time>2026-05-02T15:44:44.481Z</time></trkpt><trkpt lat="40.7929829" lon="17.2461825"><ele>383.0</ele><time>2026-05-02T15:44:45.48Z</time></trkpt><trkpt lat="40.7929282" lon="17.2460554"><ele>383.0</ele><time>2026-05-02T15:44:47.48Z</time></trkpt><trkpt lat="40.7928815" lon="17.245942"><ele>383.0</ele><time>2026-05-02T15:44:49.481Z</time></trkpt><trkpt lat="40.7928162" lon="17.2458092"><ele>383.0</ele><time>2026-05-02T15:44:51.481Z</time></trkpt><trkpt lat="40.7927741" lon="17.2457381"><ele>383.0</ele><time>2026-05-02T15:44:52.48Z</time></trkpt><trkpt lat="40.7927254" lon="17.2456672"><ele>383.0</ele><time>2026-05-02T15:44:53.48Z</time></trkpt><trkpt lat="40.7926692" lon="17.2455885"><ele>383.0</ele><time>2026-05-02T15:44:54.48Z</time></trkpt><trkpt lat="40.7926088" lon="17.2455065"><ele>383.0</ele><time>2026-05-02T15:44:55.48Z</time></trkpt><trkpt lat="40.7925459" lon="17.2454172"><ele>383.0</ele><time>2026-05-02T15:44:56.48Z</time></trkpt><trkpt lat="40.7924868" lon="17.2453191"><ele>383.0</ele><time>2026-05-02T15:44:57.48Z</time></trkpt><trkpt lat="40.7924275" lon="17.2452157"><ele>382.79999999999995</ele><time>2026-05-02T15:44:58.479Z</time></trkpt><trkpt lat="40.7923691" lon="17.2451083"><ele>382.6</ele><time>2026-05-02T15:44:59.479Z</time></trkpt><trkpt lat="40.792315" lon="17.2450029"><ele>382.4</ele><time>2026-05-02T15:45:00.479Z</time></trkpt><trkpt lat="40.7922603" lon="17.2448911"><ele>382.20000000000005</ele><time>2026-05-02T15:45:01.48Z</time></trkpt><trkpt lat="40.792205" lon="17.2447754"><ele>382.0</ele><time>2026-05-02T15:45:02.481Z</time></trkpt><trkpt lat="40.792147" lon="17.2446605"><ele>382.40000000000003</ele><time>2026-05-02T15:45:03.48Z</time></trkpt><trkpt lat="40.7920845" lon="17.2445437"><ele>382.8</ele><time>2026-05-02T15:45:04.48Z</time></trkpt><trkpt lat="40.7920259" lon="17.2444237"><ele>383.2</ele><time>2026-05-02T15:45:05.48Z</time></trkpt><trkpt lat="40.7919665" lon="17.2442962"><ele>383.6</ele><time>2026-05-02T15:45:06.48Z</time></trkpt><trkpt lat="40.791906" lon="17.2441687"><ele>384.0</ele><time>2026-05-02T15:45:07.48Z</time></trkpt><trkpt lat="40.7918429" lon="17.2440395"><ele>386.0</ele><time>2026-05-02T15:45:08.48Z</time></trkpt><trkpt lat="40.7917774" lon="17.2439138"><ele>388.0</ele><time>2026-05-02T15:45:09.48Z</time></trkpt><trkpt lat="40.7917228" lon="17.2437919"><ele>390.0</ele><time>2026-05-02T15:45:10.48Z</time></trkpt><trkpt lat="40.7916623" lon="17.2436739"><ele>392.0</ele><time>2026-05-02T15:45:11.479Z</time></trkpt><trkpt lat="40.791619" lon="17.243556"><ele>394.0</ele><time>2026-05-02T15:45:12.479Z</time></trkpt><trkpt lat="40.7915709" lon="17.2434576"><ele>394.00000000000006</ele><time>2026-05-02T15:45:13.48Z</time></trkpt><trkpt lat="40.7915312" lon="17.2433591"><ele>394.0</ele><time>2026-05-02T15:45:14.48Z</time></trkpt><trkpt lat="40.7914749" lon="17.2432754"><ele>394.0</ele><time>2026-05-02T15:45:15.48Z</time></trkpt><trkpt lat="40.7914143" lon="17.2431758"><ele>394.0</ele><time>2026-05-02T15:45:16.481Z</time></trkpt><trkpt lat="40.7913748" lon="17.2430813"><ele>394.00000000000006</ele><time>2026-05-02T15:45:18.479Z</time></trkpt><trkpt lat="40.7913563" lon="17.2429849"><ele>394.0</ele><time>2026-05-02T15:45:24.48Z</time></trkpt><trkpt lat="40.791353" lon="17.2428806"><ele>396.2</ele><time>2026-05-02T15:45:26.48Z</time></trkpt><trkpt lat="40.7913595" lon="17.2427453"><ele>398.4</ele><time>2026-05-02T15:45:28.481Z</time></trkpt><trkpt lat="40.7913252" lon="17.2425914"><ele>400.6</ele><time>2026-05-02T15:45:30.48Z</time></trkpt><trkpt lat="40.7912402" lon="17.2425266"><ele>402.8</ele><time>2026-05-02T15:45:32.479Z</time></trkpt><trkpt lat="40.7911254" lon="17.2425755"><ele>405.0</ele><time>2026-05-02T15:45:34.48Z</time></trkpt><trkpt lat="40.7910598" lon="17.2426627"><ele>404.6666666666667</ele><time>2026-05-02T15:45:36.48Z</time></trkpt><trkpt lat="40.7909935" lon="17.2427606"><ele>404.33333333333337</ele><time>2026-05-02T15:45:38.48Z</time></trkpt><trkpt lat="40.7908875" lon="17.242849"><ele>404.0</ele><time>2026-05-02T15:45:40.48Z</time></trkpt><trkpt lat="40.7908256" lon="17.2428875"><ele>403.6666666666667</ele><time>2026-05-02T15:45:41.479Z</time></trkpt><trkpt lat="40.7907571" lon="17.2429217"><ele>403.33333333333337</ele><time>2026-05-02T15:45:42.48Z</time></trkpt><trkpt lat="40.7906803" lon="17.2429557"><ele>403.0</ele><time>2026-05-02T15:45:43.481Z</time></trkpt><trkpt lat="40.7906084" lon="17.2429902"><ele>403.00000000000006</ele><time>2026-05-02T15:45:44.48Z</time></trkpt><trkpt lat="40.7905287" lon="17.2430261"><ele>403.0</ele><time>2026-05-02T15:45:45.48Z</time></trkpt><trkpt lat="40.7904499" lon="17.2430612"><ele>403.0</ele><time>2026-05-02T15:45:46.481Z</time></trkpt><trkpt lat="40.7903687" lon="17.2430921"><ele>403.0</ele><time>2026-05-02T15:45:47.48Z</time></trkpt><trkpt lat="40.7902902" lon="17.24313"><ele>403.00000000000006</ele><time>2026-05-02T15:45:48.48Z</time></trkpt><trkpt lat="40.7902132" lon="17.2431685"><ele>403.0</ele><time>2026-05-02T15:45:49.48Z</time></trkpt><trkpt lat="40.7901127" lon="17.2432148"><ele>401.6666666666667</ele><time>2026-05-02T15:45:51.48Z</time></trkpt><trkpt lat="40.7900348" lon="17.2432467"><ele>400.33333333333337</ele><time>2026-05-02T15:45:56.48Z</time></trkpt><trkpt lat="40.7899647" lon="17.2432819"><ele>399.0</ele><time>2026-05-02T15:45:58.48Z</time></trkpt><trkpt lat="40.7898649" lon="17.24334"><ele>397.66666666666663</ele><time>2026-05-02T15:46:00.48Z</time></trkpt><trkpt lat="40.7897583" lon="17.2433875"><ele>396.3333333333333</ele><time>2026-05-02T15:46:02.48Z</time></trkpt><trkpt lat="40.7896933" lon="17.2434166"><ele>395.0</ele><time>2026-05-02T15:46:03.479Z</time></trkpt><trkpt lat="40.7896193" lon="17.2434508"><ele>395.0</ele><time>2026-05-02T15:46:04.479Z</time></trkpt><trkpt lat="40.7895361" lon="17.2434919"><ele>395.0</ele><time>2026-05-02T15:46:05.48Z</time></trkpt><trkpt lat="40.7894467" lon="17.2435353"><ele>395.0</ele><time>2026-05-02T15:46:06.48Z</time></trkpt><trkpt lat="40.7893561" lon="17.2435797"><ele>395.0</ele><time>2026-05-02T15:46:07.48Z</time></trkpt><trkpt lat="40.7892565" lon="17.2436286"><ele>395.0</ele><time>2026-05-02T15:46:08.48Z</time></trkpt><trkpt lat="40.7891532" lon="17.2436803"><ele>394.99999999999994</ele><time>2026-05-02T15:46:09.48Z</time></trkpt><trkpt lat="40.7890495" lon="17.2437288"><ele>395.0</ele><time>2026-05-02T15:46:10.48Z</time></trkpt><trkpt lat="40.7889579" lon="17.2437697"><ele>395.0</ele><time>2026-05-02T15:46:11.48Z</time></trkpt><trkpt lat="40.7888777" lon="17.2438038"><ele>395.0</ele><time>2026-05-02T15:46:12.48Z</time></trkpt><trkpt lat="40.7888063" lon="17.2438421"><ele>394.99999999999994</ele><time>2026-05-02T15:46:13.479Z</time></trkpt><trkpt lat="40.7887444" lon="17.2438774"><ele>395.0</ele><time>2026-05-02T15:46:14.48Z</time></trkpt><trkpt lat="40.7886808" lon="17.243911"><ele>394.99999999999994</ele><time>2026-05-02T15:46:15.48Z</time></trkpt><trkpt lat="40.7886118" lon="17.2439342"><ele>395.0</ele><time>2026-05-02T15:46:16.48Z</time></trkpt><trkpt lat="40.7885339" lon="17.2439515"><ele>395.0</ele><time>2026-05-02T15:46:17.48Z</time></trkpt><trkpt lat="40.7884442" lon="17.2439651"><ele>395.0</ele><time>2026-05-02T15:46:18.48Z</time></trkpt><trkpt lat="40.7883464" lon="17.243971"><ele>394.99999999999994</ele><time>2026-05-02T15:46:19.48Z</time></trkpt><trkpt lat="40.7882401" lon="17.2439793"><ele>395.0</ele><time>2026-05-02T15:46:20.48Z</time></trkpt><trkpt lat="40.7881257" lon="17.2439941"><ele>393.0</ele><time>2026-05-02T15:46:21.481Z</time></trkpt><trkpt lat="40.788003" lon="17.2440176"><ele>391.0</ele><time>2026-05-02T15:46:22.481Z</time></trkpt><trkpt lat="40.7878778" lon="17.2440501"><ele>389.0</ele><time>2026-05-02T15:46:23.48Z</time></trkpt><trkpt lat="40.7877492" lon="17.2440809"><ele>387.0</ele><time>2026-05-02T15:46:24.48Z</time></trkpt><trkpt lat="40.7876382" lon="17.2441063"><ele>386.8</ele><time>2026-05-02T15:46:25.48Z</time></trkpt><trkpt lat="40.7875411" lon="17.2441253"><ele>386.6</ele><time>2026-05-02T15:46:26.481Z</time></trkpt><trkpt lat="40.7874447" lon="17.2441473"><ele>386.40000000000003</ele><time>2026-05-02T15:46:27.479Z</time></trkpt><trkpt lat="40.787345" lon="17.2441696"><ele>386.20000000000005</ele><time>2026-05-02T15:46:28.48Z</time></trkpt><trkpt lat="40.787243" lon="17.2441939"><ele>386.0</ele><time>2026-05-02T15:46:29.48Z</time></trkpt><trkpt lat="40.787144" lon="17.2442179"><ele>385.99999999999994</ele><time>2026-05-02T15:46:30.479Z</time></trkpt><trkpt lat="40.787062" lon="17.2442408"><ele>386.0</ele><time>2026-05-02T15:46:31.48Z</time></trkpt><trkpt lat="40.7869929" lon="17.2442576"><ele>386.0</ele><time>2026-05-02T15:46:32.479Z</time></trkpt><trkpt lat="40.7869218" lon="17.2442719"><ele>386.0</ele><time>2026-05-02T15:46:33.48Z</time></trkpt><trkpt lat="40.7868437" lon="17.2442911"><ele>385.99999999999994</ele><time>2026-05-02T15:46:34.479Z</time></trkpt><trkpt lat="40.7867592" lon="17.2443109"><ele>386.0</ele><time>2026-05-02T15:46:35.479Z</time></trkpt><trkpt lat="40.7866699" lon="17.2443309"><ele>386.4</ele><time>2026-05-02T15:46:36.481Z</time></trkpt><trkpt lat="40.7865773" lon="17.2443557"><ele>386.8</ele><time>2026-05-02T15:46:37.48Z</time></trkpt><trkpt lat="40.7864805" lon="17.24438"><ele>387.2</ele><time>2026-05-02T15:46:38.48Z</time></trkpt><trkpt lat="40.7863816" lon="17.2443992"><ele>387.59999999999997</ele><time>2026-05-02T15:46:39.48Z</time></trkpt><trkpt lat="40.78628" lon="17.2444164"><ele>388.0</ele><time>2026-05-02T15:46:40.48Z</time></trkpt><trkpt lat="40.786178" lon="17.2444415"><ele>388.00000000000006</ele><time>2026-05-02T15:46:41.479Z</time></trkpt><trkpt lat="40.7860895" lon="17.2444588"><ele>388.0</ele><time>2026-05-02T15:46:42.479Z</time></trkpt><trkpt lat="40.7859971" lon="17.2444808"><ele>388.0</ele><time>2026-05-02T15:46:43.48Z</time></trkpt><trkpt lat="40.7859068" lon="17.244508"><ele>388.0</ele><time>2026-05-02T15:46:44.48Z</time></trkpt><trkpt lat="40.7858168" lon="17.2445289"><ele>388.00000000000006</ele><time>2026-05-02T15:46:45.481Z</time></trkpt><trkpt lat="40.7857364" lon="17.2445421"><ele>388.0</ele><time>2026-05-02T15:46:46.481Z</time></trkpt><trkpt lat="40.7856477" lon="17.2445694"><ele>388.79999999999995</ele><time>2026-05-02T15:46:47.48Z</time></trkpt><trkpt lat="40.7855579" lon="17.2445886"><ele>389.6</ele><time>2026-05-02T15:46:48.48Z</time></trkpt><trkpt lat="40.7854645" lon="17.2446132"><ele>390.4</ele><time>2026-05-02T15:46:49.481Z</time></trkpt><trkpt lat="40.7853631" lon="17.2446394"><ele>391.20000000000005</ele><time>2026-05-02T15:46:50.481Z</time></trkpt><trkpt lat="40.7852578" lon="17.2446648"><ele>392.0</ele><time>2026-05-02T15:46:51.481Z</time></trkpt><trkpt lat="40.7851526" lon="17.2446906"><ele>392.6</ele><time>2026-05-02T15:46:52.481Z</time></trkpt><trkpt lat="40.7850417" lon="17.2447143"><ele>393.20000000000005</ele><time>2026-05-02T15:46:53.479Z</time></trkpt><trkpt lat="40.7849401" lon="17.2447355"><ele>393.8</ele><time>2026-05-02T15:46:54.479Z</time></trkpt><trkpt lat="40.7848438" lon="17.2447473"><ele>394.4</ele><time>2026-05-02T15:46:55.48Z</time></trkpt><trkpt lat="40.784758" lon="17.2447552"><ele>395.0</ele><time>2026-05-02T15:46:56.48Z</time></trkpt><trkpt lat="40.7846892" lon="17.2447516"><ele>394.99999999999994</ele><time>2026-05-02T15:46:57.48Z</time></trkpt><trkpt lat="40.7846183" lon="17.2447396"><ele>395.0</ele><time>2026-05-02T15:46:58.48Z</time></trkpt><trkpt lat="40.7845405" lon="17.2447188"><ele>395.0</ele><time>2026-05-02T15:46:59.48Z</time></trkpt><trkpt lat="40.784462" lon="17.2446825"><ele>395.0</ele><time>2026-05-02T15:47:00.479Z</time></trkpt><trkpt lat="40.7843818" lon="17.244634"><ele>394.99999999999994</ele><time>2026-05-02T15:47:01.481Z</time></trkpt><trkpt lat="40.7843" lon="17.2445707"><ele>395.0</ele><time>2026-05-02T15:47:02.48Z</time></trkpt><trkpt lat="40.784217" lon="17.2444966"><ele>394.8</ele><time>2026-05-02T15:47:03.48Z</time></trkpt><trkpt lat="40.7841409" lon="17.2444099"><ele>394.6</ele><time>2026-05-02T15:47:04.479Z</time></trkpt><trkpt lat="40.7840738" lon="17.244319"><ele>394.4</ele><time>2026-05-02T15:47:05.479Z</time></trkpt><trkpt lat="40.7840152" lon="17.2442233"><ele>394.2</ele><time>2026-05-02T15:47:06.48Z</time></trkpt><trkpt lat="40.7839693" lon="17.2441172"><ele>394.0</ele><time>2026-05-02T15:47:07.479Z</time></trkpt><trkpt lat="40.7839229" lon="17.2440059"><ele>395.79999999999995</ele><time>2026-05-02T15:47:08.48Z</time></trkpt><trkpt lat="40.78388" lon="17.2438829"><ele>397.59999999999997</ele><time>2026-05-02T15:47:09.48Z</time></trkpt><trkpt lat="40.7838433" lon="17.243749"><ele>399.4</ele><time>2026-05-02T15:47:10.48Z</time></trkpt><trkpt lat="40.7838134" lon="17.2436354"><ele>401.2</ele><time>2026-05-02T15:47:11.48Z</time></trkpt><trkpt lat="40.7837739" lon="17.2435287"><ele>403.0</ele><time>2026-05-02T15:47:12.48Z</time></trkpt><trkpt lat="40.783675" lon="17.2434514"><ele>403.0</ele><time>2026-05-02T15:47:13.48Z</time></trkpt><trkpt lat="40.7835934" lon="17.2433942"><ele>403.0</ele><time>2026-05-02T15:47:14.48Z</time></trkpt><trkpt lat="40.7835101" lon="17.2433442"><ele>403.0</ele><time>2026-05-02T15:47:15.479Z</time></trkpt><trkpt lat="40.7834258" lon="17.2433084"><ele>403.0</ele><time>2026-05-02T15:47:16.48Z</time></trkpt><trkpt lat="40.7833567" lon="17.2432783"><ele>403.0</ele><time>2026-05-02T15:47:17.479Z</time></trkpt><trkpt lat="40.7832408" lon="17.2432568"><ele>402.79999999999995</ele><time>2026-05-02T15:47:19.48Z</time></trkpt><trkpt lat="40.783112" lon="17.2432657"><ele>402.6</ele><time>2026-05-02T15:47:21.48Z</time></trkpt><trkpt lat="40.7830419" lon="17.2432936"><ele>402.4</ele><time>2026-05-02T15:47:22.48Z</time></trkpt><trkpt lat="40.7829707" lon="17.2433323"><ele>402.20000000000005</ele><time>2026-05-02T15:47:23.48Z</time></trkpt><trkpt lat="40.7828949" lon="17.2433852"><ele>402.0</ele><time>2026-05-02T15:47:24.48Z</time></trkpt><trkpt lat="40.7828119" lon="17.243449"><ele>402.0</ele><time>2026-05-02T15:47:25.48Z</time></trkpt><trkpt lat="40.7827333" lon="17.2435218"><ele>402.0</ele><time>2026-05-02T15:47:26.478Z</time></trkpt><trkpt lat="40.782651" lon="17.2435905"><ele>402.0</ele><time>2026-05-02T15:47:27.479Z</time></trkpt><trkpt lat="40.7825718" lon="17.24366"><ele>402.0</ele><time>2026-05-02T15:47:28.48Z</time></trkpt><trkpt lat="40.7824906" lon="17.2437281"><ele>402.0</ele><time>2026-05-02T15:47:29.478Z</time></trkpt><trkpt lat="40.7824065" lon="17.2437877"><ele>401.40000000000003</ele><time>2026-05-02T15:47:30.479Z</time></trkpt><trkpt lat="40.7823195" lon="17.2438485"><ele>400.8</ele><time>2026-05-02T15:47:31.479Z</time></trkpt><trkpt lat="40.7822317" lon="17.2438926"><ele>400.2</ele><time>2026-05-02T15:47:32.479Z</time></trkpt><trkpt lat="40.7821545" lon="17.2439262"><ele>399.6</ele><time>2026-05-02T15:47:33.479Z</time></trkpt><trkpt lat="40.782061" lon="17.2439451"><ele>399.0</ele><time>2026-05-02T15:47:34.479Z</time></trkpt><trkpt lat="40.7819748" lon="17.2439231"><ele>399.0</ele><time>2026-05-02T15:47:35.48Z</time></trkpt><trkpt lat="40.7818851" lon="17.2439402"><ele>399.0</ele><time>2026-05-02T15:47:36.479Z</time></trkpt><trkpt lat="40.7817986" lon="17.2439351"><ele>399.0</ele><time>2026-05-02T15:47:37.479Z</time></trkpt><trkpt lat="40.7817119" lon="17.2439253"><ele>399.0</ele><time>2026-05-02T15:47:38.478Z</time></trkpt><trkpt lat="40.7816404" lon="17.243915"><ele>399.0</ele><time>2026-05-02T15:47:39.479Z</time></trkpt><trkpt lat="40.7815651" lon="17.2438967"><ele>399.0</ele><time>2026-05-02T15:47:40.479Z</time></trkpt><trkpt lat="40.7814927" lon="17.2438772"><ele>399.1666666666667</ele><time>2026-05-02T15:47:41.479Z</time></trkpt><trkpt lat="40.7814199" lon="17.2438734"><ele>399.33333333333337</ele><time>2026-05-02T15:47:42.478Z</time></trkpt><trkpt lat="40.7813387" lon="17.243858"><ele>399.5</ele><time>2026-05-02T15:47:43.48Z</time></trkpt><trkpt lat="40.7812563" lon="17.2438462"><ele>399.6666666666667</ele><time>2026-05-02T15:47:44.48Z</time></trkpt><trkpt lat="40.7811759" lon="17.2438332"><ele>399.83333333333337</ele><time>2026-05-02T15:47:45.479Z</time></trkpt><trkpt lat="40.7810905" lon="17.2438211"><ele>400.0</ele><time>2026-05-02T15:47:46.478Z</time></trkpt><trkpt lat="40.7810042" lon="17.243808"><ele>400.00000000000006</ele><time>2026-05-02T15:47:47.479Z</time></trkpt><trkpt lat="40.7809204" lon="17.2437963"><ele>400.0</ele><time>2026-05-02T15:47:48.479Z</time></trkpt><trkpt lat="40.78084" lon="17.2437827"><ele>400.0</ele><time>2026-05-02T15:47:49.479Z</time></trkpt><trkpt lat="40.7807685" lon="17.2437729"><ele>400.0</ele><time>2026-05-02T15:47:50.48Z</time></trkpt><trkpt lat="40.780658" lon="17.243756"><ele>400.00000000000006</ele><time>2026-05-02T15:47:52.479Z</time></trkpt><trkpt lat="40.7805857" lon="17.2437134"><ele>400.0</ele><time>2026-05-02T15:47:54.479Z</time></trkpt><trkpt lat="40.7805634" lon="17.2436337"><ele>400.00000000000006</ele><time>2026-05-02T15:47:56.479Z</time></trkpt><trkpt lat="40.7806069" lon="17.2435308"><ele>400.0</ele><time>2026-05-02T15:47:58.479Z</time></trkpt><trkpt lat="40.7806379" lon="17.2434541"><ele>400.0</ele><time>2026-05-02T15:47:59.479Z</time></trkpt><trkpt lat="40.7806693" lon="17.2433807"><ele>400.0</ele><time>2026-05-02T15:48:00.479Z</time></trkpt><trkpt lat="40.7806987" lon="17.2433038"><ele>400.00000000000006</ele><time>2026-05-02T15:48:01.479Z</time></trkpt><trkpt lat="40.7807509" lon="17.2431495"><ele>400.0</ele><time>2026-05-02T15:48:03.48Z</time></trkpt><trkpt lat="40.7807787" lon="17.243071"><ele>400.6666666666667</ele><time>2026-05-02T15:48:04.48Z</time></trkpt><trkpt lat="40.7808028" lon="17.2429926"><ele>401.33333333333337</ele><time>2026-05-02T15:48:05.48Z</time></trkpt><trkpt lat="40.7808275" lon="17.2429131"><ele>402.0</ele><time>2026-05-02T15:48:06.479Z</time></trkpt><trkpt lat="40.7808684" lon="17.2427576"><ele>402.66666666666663</ele><time>2026-05-02T15:48:08.479Z</time></trkpt><trkpt lat="40.7808904" lon="17.2426768"><ele>403.3333333333333</ele><time>2026-05-02T15:48:09.478Z</time></trkpt><trkpt lat="40.7809117" lon="17.2425919"><ele>404.0</ele><time>2026-05-02T15:48:10.478Z</time></trkpt><trkpt lat="40.7809358" lon="17.2425082"><ele>404.0</ele><time>2026-05-02T15:48:11.478Z</time></trkpt><trkpt lat="40.7809641" lon="17.2424265"><ele>404.0</ele><time>2026-05-02T15:48:12.478Z</time></trkpt><trkpt lat="40.7809892" lon="17.2423425"><ele>404.0</ele><time>2026-05-02T15:48:13.478Z</time></trkpt><trkpt lat="40.781013" lon="17.2422585"><ele>404.0</ele><time>2026-05-02T15:48:14.478Z</time></trkpt><trkpt lat="40.7810344" lon="17.2421764"><ele>404.0</ele><time>2026-05-02T15:48:15.478Z</time></trkpt><trkpt lat="40.7810552" lon="17.242092"><ele>404.0</ele><time>2026-05-02T15:48:16.479Z</time></trkpt><trkpt lat="40.7810762" lon="17.2420113"><ele>404.0</ele><time>2026-05-02T15:48:17.479Z</time></trkpt><trkpt lat="40.78111" lon="17.2418529"><ele>403.99999999999994</ele><time>2026-05-02T15:48:19.48Z</time></trkpt><trkpt lat="40.7811244" lon="17.2417672"><ele>404.0</ele><time>2026-05-02T15:48:20.479Z</time></trkpt><trkpt lat="40.7811403" lon="17.2416807"><ele>404.0</ele><time>2026-05-02T15:48:21.479Z</time></trkpt><trkpt lat="40.7811547" lon="17.2415969"><ele>404.0</ele><time>2026-05-02T15:48:22.479Z</time></trkpt><trkpt lat="40.7811899" lon="17.2414469"><ele>403.99999999999994</ele><time>2026-05-02T15:48:24.478Z</time></trkpt><trkpt lat="40.7812324" lon="17.2412964"><ele>404.0</ele><time>2026-05-02T15:48:26.478Z</time></trkpt><trkpt lat="40.7812554" lon="17.2412119"><ele>404.1428571428571</ele><time>2026-05-02T15:48:27.479Z</time></trkpt><trkpt lat="40.7812774" lon="17.2411256"><ele>404.2857142857143</ele><time>2026-05-02T15:48:28.48Z</time></trkpt><trkpt lat="40.7813106" lon="17.2410429"><ele>404.42857142857144</ele><time>2026-05-02T15:48:29.479Z</time></trkpt><trkpt lat="40.7813433" lon="17.2409548"><ele>404.57142857142856</ele><time>2026-05-02T15:48:30.479Z</time></trkpt><trkpt lat="40.7813737" lon="17.2408663"><ele>404.7142857142857</ele><time>2026-05-02T15:48:31.479Z</time></trkpt><trkpt lat="40.781405" lon="17.2407771"><ele>404.85714285714283</ele><time>2026-05-02T15:48:32.48Z</time></trkpt><trkpt lat="40.781438" lon="17.240678"><ele>405.0</ele><time>2026-05-02T15:48:33.48Z</time></trkpt><trkpt lat="40.7814769" lon="17.2405887"><ele>406.0</ele><time>2026-05-02T15:48:34.48Z</time></trkpt><trkpt lat="40.7815335" lon="17.2404394"><ele>407.0</ele><time>2026-05-02T15:48:36.479Z</time></trkpt><trkpt lat="40.7815686" lon="17.24036"><ele>408.0</ele><time>2026-05-02T15:48:37.479Z</time></trkpt><trkpt lat="40.7816207" lon="17.2402304"><ele>409.0</ele><time>2026-05-02T15:48:39.479Z</time></trkpt><trkpt lat="40.7816721" lon="17.2401233"><ele>410.0</ele><time>2026-05-02T15:48:41.479Z</time></trkpt><trkpt lat="40.7817308" lon="17.2400179"><ele>409.99999999999994</ele><time>2026-05-02T15:48:43.479Z</time></trkpt><trkpt lat="40.7817801" lon="17.2399269"><ele>410.0</ele><time>2026-05-02T15:48:45.478Z</time></trkpt><trkpt lat="40.7818123" lon="17.2398472"><ele>410.0</ele><time>2026-05-02T15:48:46.479Z</time></trkpt><trkpt lat="40.781868" lon="17.2397236"><ele>410.0</ele><time>2026-05-02T15:48:48.48Z</time></trkpt><trkpt lat="40.7818945" lon="17.2396473"><ele>409.99999999999994</ele><time>2026-05-02T15:48:49.479Z</time></trkpt><trkpt lat="40.7819568" lon="17.2395161"><ele>410.0</ele><time>2026-05-02T15:48:51.48Z</time></trkpt><trkpt lat="40.7820073" lon="17.2393913"><ele>409.8</ele><time>2026-05-02T15:48:53.479Z</time></trkpt><trkpt lat="40.782073" lon="17.2392762"><ele>409.6</ele><time>2026-05-02T15:48:55.479Z</time></trkpt><trkpt lat="40.7821308" lon="17.2392018"><ele>409.4</ele><time>2026-05-02T15:48:57.479Z</time></trkpt><trkpt lat="40.7821965" lon="17.2391511"><ele>409.2</ele><time>2026-05-02T15:49:00.479Z</time></trkpt><trkpt lat="40.782271" lon="17.2390943"><ele>409.0</ele><time>2026-05-02T15:49:02.48Z</time></trkpt><trkpt lat="40.7823385" lon="17.2389875"><ele>409.0</ele><time>2026-05-02T15:49:04.48Z</time></trkpt><trkpt lat="40.7824008" lon="17.2389184"><ele>409.0</ele><time>2026-05-02T15:49:06.478Z</time></trkpt><trkpt lat="40.7824797" lon="17.2388711"><ele>409.0</ele><time>2026-05-02T15:49:08.479Z</time></trkpt><trkpt lat="40.7825416" lon="17.238851"><ele>409.0</ele><time>2026-05-02T15:49:10.479Z</time></trkpt><trkpt lat="40.7826056" lon="17.2388555"><ele>409.0</ele><time>2026-05-02T15:49:22.48Z</time></trkpt><trkpt lat="40.782567" lon="17.2389254"><ele>409.0</ele><time>2026-05-02T15:49:30.478Z</time></trkpt><trkpt lat="40.7825296" lon="17.2389935"><ele>409.0</ele><time>2026-05-02T15:49:33.478Z</time></trkpt><trkpt lat="40.7824721" lon="17.2390552"><ele>409.0</ele><time>2026-05-02T15:49:36.478Z</time></trkpt><trkpt lat="40.7824146" lon="17.2391284"><ele>409.0</ele><time>2026-05-02T15:49:40.479Z</time></trkpt><trkpt lat="40.7823676" lon="17.2391881"><ele>409.0</ele><time>2026-05-02T15:49:47.479Z</time></trkpt></trkseg><trkseg><trkpt lat="40.7822713" lon="17.2391967"><ele>409.00000000000006</ele><time>2026-05-02T16:02:18.476Z</time></trkpt><trkpt lat="40.7821878" lon="17.2391425"><ele>409.0</ele><time>2026-05-02T16:02:21.477Z</time></trkpt><trkpt lat="40.7821057" lon="17.2391465"><ele>409.0</ele><time>2026-05-02T16:02:24.476Z</time></trkpt><trkpt lat="40.7820498" lon="17.239205"><ele>409.0</ele><time>2026-05-02T16:02:26.476Z</time></trkpt><trkpt lat="40.7820028" lon="17.2393186"><ele>409.00000000000006</ele><time>2026-05-02T16:02:28.476Z</time></trkpt><trkpt lat="40.7819546" lon="17.2394387"><ele>409.0</ele><time>2026-05-02T16:02:30.476Z</time></trkpt><trkpt lat="40.7818504" lon="17.2396495"><ele>409.1666666666667</ele><time>2026-05-02T16:02:33.476Z</time></trkpt><trkpt lat="40.7818088" lon="17.239733"><ele>409.33333333333337</ele><time>2026-05-02T16:02:34.477Z</time></trkpt><trkpt lat="40.7817668" lon="17.239815"><ele>409.5</ele><time>2026-05-02T16:02:35.477Z</time></trkpt><trkpt lat="40.7817261" lon="17.2399005"><ele>409.66666666666663</ele><time>2026-05-02T16:02:36.475Z</time></trkpt><trkpt lat="40.7816834" lon="17.2399891"><ele>409.8333333333333</ele><time>2026-05-02T16:02:37.477Z</time></trkpt><trkpt lat="40.7816444" lon="17.2400793"><ele>410.0</ele><time>2026-05-02T16:02:38.477Z</time></trkpt><trkpt lat="40.7816054" lon="17.2401678"><ele>409.99999999999994</ele><time>2026-05-02T16:02:39.477Z</time></trkpt><trkpt lat="40.781563" lon="17.240255"><ele>410.0</ele><time>2026-05-02T16:02:40.476Z</time></trkpt><trkpt lat="40.7815248" lon="17.2403449"><ele>410.0</ele><time>2026-05-02T16:02:41.476Z</time></trkpt><trkpt lat="40.7814853" lon="17.2404404"><ele>410.0</ele><time>2026-05-02T16:02:42.476Z</time></trkpt><trkpt lat="40.7814433" lon="17.2405405"><ele>409.99999999999994</ele><time>2026-05-02T16:02:43.476Z</time></trkpt><trkpt lat="40.7814067" lon="17.2406442"><ele>410.0</ele><time>2026-05-02T16:02:44.475Z</time></trkpt><trkpt lat="40.7813649" lon="17.2407437"><ele>409.16666666666663</ele><time>2026-05-02T16:02:45.477Z</time></trkpt><trkpt lat="40.7813239" lon="17.2408408"><ele>408.3333333333333</ele><time>2026-05-02T16:02:46.476Z</time></trkpt><trkpt lat="40.7812861" lon="17.2409371"><ele>407.5</ele><time>2026-05-02T16:02:47.477Z</time></trkpt><trkpt lat="40.7812501" lon="17.2410368"><ele>406.66666666666663</ele><time>2026-05-02T16:02:48.476Z</time></trkpt><trkpt lat="40.781217" lon="17.2411382"><ele>405.8333333333333</ele><time>2026-05-02T16:02:49.477Z</time></trkpt><trkpt lat="40.7811846" lon="17.2412383"><ele>405.0</ele><time>2026-05-02T16:02:50.475Z</time></trkpt><trkpt lat="40.7811569" lon="17.2413371"><ele>405.0</ele><time>2026-05-02T16:02:51.476Z</time></trkpt><trkpt lat="40.781129" lon="17.2414392"><ele>405.0</ele><time>2026-05-02T16:02:52.476Z</time></trkpt><trkpt lat="40.7811055" lon="17.2415484"><ele>405.0</ele><time>2026-05-02T16:02:53.475Z</time></trkpt><trkpt lat="40.7810843" lon="17.241664"><ele>405.0</ele><time>2026-05-02T16:02:54.476Z</time></trkpt><trkpt lat="40.7810591" lon="17.2417758"><ele>405.0</ele><time>2026-05-02T16:02:55.477Z</time></trkpt><trkpt lat="40.7810359" lon="17.2418889"><ele>405.0</ele><time>2026-05-02T16:02:56.476Z</time></trkpt><trkpt lat="40.7810122" lon="17.2420068"><ele>405.0</ele><time>2026-05-02T16:02:57.477Z</time></trkpt><trkpt lat="40.780983" lon="17.2421196"><ele>405.0</ele><time>2026-05-02T16:02:58.476Z</time></trkpt><trkpt lat="40.7809498" lon="17.2422327"><ele>405.0</ele><time>2026-05-02T16:02:59.476Z</time></trkpt><trkpt lat="40.7809229" lon="17.2423444"><ele>405.0</ele><time>2026-05-02T16:03:00.476Z</time></trkpt><trkpt lat="40.7808924" lon="17.2424582"><ele>405.0</ele><time>2026-05-02T16:03:01.476Z</time></trkpt><trkpt lat="40.780866" lon="17.2425702"><ele>404.8333333333333</ele><time>2026-05-02T16:03:02.475Z</time></trkpt><trkpt lat="40.7808382" lon="17.2426826"><ele>404.66666666666663</ele><time>2026-05-02T16:03:03.475Z</time></trkpt><trkpt lat="40.780814" lon="17.2427974"><ele>404.5</ele><time>2026-05-02T16:03:04.476Z</time></trkpt><trkpt lat="40.7807762" lon="17.2429004"><ele>404.3333333333333</ele><time>2026-05-02T16:03:05.476Z</time></trkpt><trkpt lat="40.7807406" lon="17.2430014"><ele>404.16666666666663</ele><time>2026-05-02T16:03:06.476Z</time></trkpt><trkpt lat="40.78071" lon="17.2430989"><ele>404.0</ele><time>2026-05-02T16:03:07.477Z</time></trkpt><trkpt lat="40.7806789" lon="17.2431908"><ele>403.3333333333333</ele><time>2026-05-02T16:03:08.475Z</time></trkpt><trkpt lat="40.780644" lon="17.2432738"><ele>402.66666666666663</ele><time>2026-05-02T16:03:09.476Z</time></trkpt><trkpt lat="40.7806126" lon="17.243355"><ele>402.0</ele><time>2026-05-02T16:03:10.476Z</time></trkpt><trkpt lat="40.7805809" lon="17.2434278"><ele>401.33333333333337</ele><time>2026-05-02T16:03:11.476Z</time></trkpt><trkpt lat="40.7805278" lon="17.2435496"><ele>400.6666666666667</ele><time>2026-05-02T16:03:13.475Z</time></trkpt><trkpt lat="40.7804749" lon="17.2436383"><ele>400.0</ele><time>2026-05-02T16:03:15.476Z</time></trkpt><trkpt lat="40.780423" lon="17.2437229"><ele>400.0</ele><time>2026-05-02T16:03:17.476Z</time></trkpt><trkpt lat="40.7803851" lon="17.2438503"><ele>400.0</ele><time>2026-05-02T16:03:19.477Z</time></trkpt><trkpt lat="40.7803221" lon="17.2439938"><ele>400.0</ele><time>2026-05-02T16:03:21.476Z</time></trkpt><trkpt lat="40.7802513" lon="17.2441241"><ele>400.0</ele><time>2026-05-02T16:03:23.475Z</time></trkpt><trkpt lat="40.780194" lon="17.2442359"><ele>399.83333333333337</ele><time>2026-05-02T16:03:25.476Z</time></trkpt><trkpt lat="40.7801546" lon="17.2443313"><ele>399.6666666666667</ele><time>2026-05-02T16:03:27.476Z</time></trkpt><trkpt lat="40.7801369" lon="17.2444176"><ele>399.5</ele><time>2026-05-02T16:03:29.476Z</time></trkpt><trkpt lat="40.7801241" lon="17.2445119"><ele>399.33333333333337</ele><time>2026-05-02T16:03:31.475Z</time></trkpt><trkpt lat="40.7801595" lon="17.2446198"><ele>399.1666666666667</ele><time>2026-05-02T16:03:34.475Z</time></trkpt><trkpt lat="40.7802129" lon="17.2446997"><ele>399.0</ele><time>2026-05-02T16:03:36.476Z</time></trkpt><trkpt lat="40.7802772" lon="17.2447904"><ele>399.2</ele><time>2026-05-02T16:03:38.476Z</time></trkpt><trkpt lat="40.7803406" lon="17.2449006"><ele>399.4</ele><time>2026-05-02T16:03:40.475Z</time></trkpt><trkpt lat="40.7804041" lon="17.2450174"><ele>399.6</ele><time>2026-05-02T16:03:42.476Z</time></trkpt><trkpt lat="40.78047" lon="17.2451434"><ele>399.8</ele><time>2026-05-02T16:03:44.474Z</time></trkpt><trkpt lat="40.7805268" lon="17.245274"><ele>400.0</ele><time>2026-05-02T16:03:46.474Z</time></trkpt><trkpt lat="40.7805851" lon="17.2453809"><ele>400.00000000000006</ele><time>2026-05-02T16:03:48.475Z</time></trkpt><trkpt lat="40.78064" lon="17.2454876"><ele>400.0</ele><time>2026-05-02T16:03:50.476Z</time></trkpt><trkpt lat="40.7806685" lon="17.2455669"><ele>400.0</ele><time>2026-05-02T16:03:53.476Z</time></trkpt><trkpt lat="40.7806918" lon="17.2456546"><ele>400.0</ele><time>2026-05-02T16:03:57.476Z</time></trkpt><trkpt lat="40.7807147" lon="17.2457539"><ele>400.00000000000006</ele><time>2026-05-02T16:03:59.475Z</time></trkpt><trkpt lat="40.7806589" lon="17.245883"><ele>400.0</ele><time>2026-05-02T16:04:01.476Z</time></trkpt><trkpt lat="40.7805752" lon="17.2460039"><ele>399.83333333333337</ele><time>2026-05-02T16:04:03.475Z</time></trkpt><trkpt lat="40.7805153" lon="17.2460716"><ele>399.6666666666667</ele><time>2026-05-02T16:04:04.476Z</time></trkpt><trkpt lat="40.7804541" lon="17.2461441"><ele>399.5</ele><time>2026-05-02T16:04:05.475Z</time></trkpt><trkpt lat="40.780389" lon="17.24622"><ele>399.33333333333337</ele><time>2026-05-02T16:04:06.475Z</time></trkpt><trkpt lat="40.7803157" lon="17.2463033"><ele>399.1666666666667</ele><time>2026-05-02T16:04:07.476Z</time></trkpt><trkpt lat="40.7802413" lon="17.2463895"><ele>399.0</ele><time>2026-05-02T16:04:08.475Z</time></trkpt><trkpt lat="40.7801655" lon="17.2464748"><ele>399.0</ele><time>2026-05-02T16:04:09.475Z</time></trkpt><trkpt lat="40.7800897" lon="17.2465687"><ele>399.0</ele><time>2026-05-02T16:04:10.476Z</time></trkpt><trkpt lat="40.7800097" lon="17.2466591"><ele>399.0</ele><time>2026-05-02T16:04:11.474Z</time></trkpt><trkpt lat="40.7799323" lon="17.2467477"><ele>399.0</ele><time>2026-05-02T16:04:12.475Z</time></trkpt><trkpt lat="40.7798523" lon="17.2468389"><ele>399.0</ele><time>2026-05-02T16:04:13.475Z</time></trkpt><trkpt lat="40.7797709" lon="17.2469325"><ele>399.0</ele><time>2026-05-02T16:04:14.475Z</time></trkpt><trkpt lat="40.7796899" lon="17.2470224"><ele>399.0</ele><time>2026-05-02T16:04:15.474Z</time></trkpt><trkpt lat="40.7796097" lon="17.247118"><ele>399.0</ele><time>2026-05-02T16:04:16.475Z</time></trkpt><trkpt lat="40.7795273" lon="17.2472142"><ele>399.0</ele><time>2026-05-02T16:04:17.475Z</time></trkpt><trkpt lat="40.7794422" lon="17.2473106"><ele>399.0</ele><time>2026-05-02T16:04:18.475Z</time></trkpt><trkpt lat="40.779357" lon="17.247406"><ele>398.5</ele><time>2026-05-02T16:04:19.475Z</time></trkpt><trkpt lat="40.7792718" lon="17.2475032"><ele>398.0</ele><time>2026-05-02T16:04:20.474Z</time></trkpt><trkpt lat="40.7791871" lon="17.2475998"><ele>397.5</ele><time>2026-05-02T16:04:21.475Z</time></trkpt><trkpt lat="40.7791018" lon="17.2476958"><ele>397.0</ele><time>2026-05-02T16:04:22.474Z</time></trkpt><trkpt lat="40.7790154" lon="17.247798"><ele>397.0</ele><time>2026-05-02T16:04:23.474Z</time></trkpt><trkpt lat="40.7789236" lon="17.2478939"><ele>397.0</ele><time>2026-05-02T16:04:24.474Z</time></trkpt><trkpt lat="40.7788287" lon="17.2479917"><ele>397.0</ele><time>2026-05-02T16:04:25.474Z</time></trkpt><trkpt lat="40.778732" lon="17.2480891"><ele>397.0</ele><time>2026-05-02T16:04:26.474Z</time></trkpt><trkpt lat="40.7786292" lon="17.2481829"><ele>396.5</ele><time>2026-05-02T16:04:27.476Z</time></trkpt><trkpt lat="40.7785234" lon="17.2482728"><ele>396.0</ele><time>2026-05-02T16:04:28.475Z</time></trkpt><trkpt lat="40.7784175" lon="17.2483623"><ele>395.5</ele><time>2026-05-02T16:04:29.474Z</time></trkpt><trkpt lat="40.7783124" lon="17.2484541"><ele>395.0</ele><time>2026-05-02T16:04:30.475Z</time></trkpt><trkpt lat="40.7782082" lon="17.2485467"><ele>395.0</ele><time>2026-05-02T16:04:31.475Z</time></trkpt><trkpt lat="40.7781041" lon="17.2486335"><ele>395.0</ele><time>2026-05-02T16:04:32.476Z</time></trkpt><trkpt lat="40.7780022" lon="17.2487206"><ele>395.0</ele><time>2026-05-02T16:04:33.474Z</time></trkpt><trkpt lat="40.7779042" lon="17.2488072"><ele>395.0</ele><time>2026-05-02T16:04:34.475Z</time></trkpt><trkpt lat="40.777806" lon="17.2488875"><ele>395.25</ele><time>2026-05-02T16:04:35.475Z</time></trkpt><trkpt lat="40.7777025" lon="17.2489696"><ele>395.5</ele><time>2026-05-02T16:04:36.475Z</time></trkpt><trkpt lat="40.7776038" lon="17.249056"><ele>395.75</ele><time>2026-05-02T16:04:37.475Z</time></trkpt><trkpt lat="40.7775114" lon="17.24915"><ele>396.0</ele><time>2026-05-02T16:04:38.475Z</time></trkpt><trkpt lat="40.7774226" lon="17.2492527"><ele>396.0</ele><time>2026-05-02T16:04:39.476Z</time></trkpt><trkpt lat="40.777335" lon="17.2493598"><ele>396.0</ele><time>2026-05-02T16:04:40.475Z</time></trkpt><trkpt lat="40.777261" lon="17.2494896"><ele>396.0</ele><time>2026-05-02T16:04:41.476Z</time></trkpt><trkpt lat="40.7771933" lon="17.2496319"><ele>396.0</ele><time>2026-05-02T16:04:42.475Z</time></trkpt><trkpt lat="40.7771369" lon="17.2497813"><ele>395.25</ele><time>2026-05-02T16:04:43.476Z</time></trkpt><trkpt lat="40.7770908" lon="17.2499351"><ele>394.5</ele><time>2026-05-02T16:04:44.476Z</time></trkpt><trkpt lat="40.7770492" lon="17.2500872"><ele>393.75</ele><time>2026-05-02T16:04:45.474Z</time></trkpt><trkpt lat="40.7770097" lon="17.250249"><ele>393.0</ele><time>2026-05-02T16:04:46.474Z</time></trkpt><trkpt lat="40.7769733" lon="17.2504233"><ele>393.0</ele><time>2026-05-02T16:04:47.474Z</time></trkpt><trkpt lat="40.7769348" lon="17.2505907"><ele>393.0</ele><time>2026-05-02T16:04:48.475Z</time></trkpt><trkpt lat="40.7769022" lon="17.250762"><ele>393.0</ele><time>2026-05-02T16:04:49.475Z</time></trkpt><trkpt lat="40.7768655" lon="17.2509336"><ele>393.0</ele><time>2026-05-02T16:04:50.475Z</time></trkpt><trkpt lat="40.7768348" lon="17.2511055"><ele>393.0</ele><time>2026-05-02T16:04:51.475Z</time></trkpt><trkpt lat="40.7768044" lon="17.2512763"><ele>393.0</ele><time>2026-05-02T16:04:52.476Z</time></trkpt><trkpt lat="40.7767707" lon="17.251441"><ele>393.0</ele><time>2026-05-02T16:04:53.475Z</time></trkpt><trkpt lat="40.7767409" lon="17.2516104"><ele>393.0</ele><time>2026-05-02T16:04:54.475Z</time></trkpt><trkpt lat="40.7767141" lon="17.251777"><ele>393.5</ele><time>2026-05-02T16:04:55.475Z</time></trkpt><trkpt lat="40.7766855" lon="17.2519422"><ele>394.0</ele><time>2026-05-02T16:04:56.475Z</time></trkpt><trkpt lat="40.7766657" lon="17.2521082"><ele>394.5</ele><time>2026-05-02T16:04:57.476Z</time></trkpt><trkpt lat="40.7766547" lon="17.2522791"><ele>395.0</ele><time>2026-05-02T16:04:58.475Z</time></trkpt><trkpt lat="40.7766617" lon="17.2524538"><ele>395.25</ele><time>2026-05-02T16:04:59.475Z</time></trkpt><trkpt lat="40.776688" lon="17.2526238"><ele>395.5</ele><time>2026-05-02T16:05:00.475Z</time></trkpt><trkpt lat="40.7767294" lon="17.2527871"><ele>395.75</ele><time>2026-05-02T16:05:01.475Z</time></trkpt><trkpt lat="40.7767824" lon="17.2529462"><ele>396.0</ele><time>2026-05-02T16:05:02.476Z</time></trkpt><trkpt lat="40.776846" lon="17.2531011"><ele>397.0</ele><time>2026-05-02T16:05:03.475Z</time></trkpt><trkpt lat="40.7769199" lon="17.2532524"><ele>398.0</ele><time>2026-05-02T16:05:04.475Z</time></trkpt><trkpt lat="40.776997" lon="17.253398"><ele>399.0</ele><time>2026-05-02T16:05:05.476Z</time></trkpt><trkpt lat="40.7770743" lon="17.2535396"><ele>400.0</ele><time>2026-05-02T16:05:06.475Z</time></trkpt><trkpt lat="40.7771594" lon="17.2536821"><ele>400.0</ele><time>2026-05-02T16:05:07.475Z</time></trkpt><trkpt lat="40.7772461" lon="17.2538213"><ele>400.0</ele><time>2026-05-02T16:05:08.475Z</time></trkpt><trkpt lat="40.7773377" lon="17.2539684"><ele>400.0</ele><time>2026-05-02T16:05:09.474Z</time></trkpt><trkpt lat="40.7774316" lon="17.2541058"><ele>400.0</ele><time>2026-05-02T16:05:10.475Z</time></trkpt><trkpt lat="40.7775253" lon="17.2542471"><ele>401.0</ele><time>2026-05-02T16:05:11.475Z</time></trkpt><trkpt lat="40.7776181" lon="17.2543861"><ele>402.0</ele><time>2026-05-02T16:05:12.475Z</time></trkpt><trkpt lat="40.777716" lon="17.2545257"><ele>403.0</ele><time>2026-05-02T16:05:13.475Z</time></trkpt><trkpt lat="40.7778134" lon="17.2546672"><ele>404.0</ele><time>2026-05-02T16:05:14.474Z</time></trkpt><trkpt lat="40.7779071" lon="17.2548031"><ele>405.5</ele><time>2026-05-02T16:05:15.476Z</time></trkpt><trkpt lat="40.7780022" lon="17.254951"><ele>407.0</ele><time>2026-05-02T16:05:16.476Z</time></trkpt><trkpt lat="40.7780995" lon="17.2550976"><ele>408.5</ele><time>2026-05-02T16:05:17.476Z</time></trkpt><trkpt lat="40.7781947" lon="17.2552465"><ele>410.0</ele><time>2026-05-02T16:05:18.475Z</time></trkpt><trkpt lat="40.778293" lon="17.2553887"><ele>410.0</ele><time>2026-05-02T16:05:19.474Z</time></trkpt><trkpt lat="40.7783904" lon="17.255533"><ele>410.0</ele><time>2026-05-02T16:05:20.475Z</time></trkpt><trkpt lat="40.7784852" lon="17.2556677"><ele>410.0</ele><time>2026-05-02T16:05:21.475Z</time></trkpt><trkpt lat="40.7785807" lon="17.2558047"><ele>410.0</ele><time>2026-05-02T16:05:22.474Z</time></trkpt><trkpt lat="40.7786703" lon="17.2559419"><ele>410.5</ele><time>2026-05-02T16:05:23.475Z</time></trkpt><trkpt lat="40.7787541" lon="17.2560822"><ele>411.0</ele><time>2026-05-02T16:05:24.476Z</time></trkpt><trkpt lat="40.778823" lon="17.2562235"><ele>411.5</ele><time>2026-05-02T16:05:25.474Z</time></trkpt><trkpt lat="40.7788901" lon="17.25637"><ele>412.0</ele><time>2026-05-02T16:05:26.475Z</time></trkpt><trkpt lat="40.7789067" lon="17.256524"><ele>412.0</ele><time>2026-05-02T16:05:27.475Z</time></trkpt><trkpt lat="40.7789211" lon="17.256688"><ele>412.0</ele><time>2026-05-02T16:05:28.476Z</time></trkpt><trkpt lat="40.7789043" lon="17.2568538"><ele>412.0</ele><time>2026-05-02T16:05:29.475Z</time></trkpt><trkpt lat="40.7788685" lon="17.2570219"><ele>412.0</ele><time>2026-05-02T16:05:30.474Z</time></trkpt><trkpt lat="40.7788168" lon="17.2571837"><ele>412.25</ele><time>2026-05-02T16:05:31.475Z</time></trkpt><trkpt lat="40.7787463" lon="17.2573391"><ele>412.5</ele><time>2026-05-02T16:05:32.475Z</time></trkpt><trkpt lat="40.7786726" lon="17.2574927"><ele>412.75</ele><time>2026-05-02T16:05:33.475Z</time></trkpt><trkpt lat="40.778597" lon="17.2576585"><ele>413.0</ele><time>2026-05-02T16:05:34.475Z</time></trkpt><trkpt lat="40.7785225" lon="17.2578236"><ele>413.3333333333333</ele><time>2026-05-02T16:05:35.474Z</time></trkpt><trkpt lat="40.7784471" lon="17.2579991"><ele>413.66666666666663</ele><time>2026-05-02T16:05:36.475Z</time></trkpt><trkpt lat="40.7783668" lon="17.2581737"><ele>414.0</ele><time>2026-05-02T16:05:37.475Z</time></trkpt><trkpt lat="40.7782899" lon="17.2583499"><ele>414.0</ele><time>2026-05-02T16:05:38.475Z</time></trkpt><trkpt lat="40.7782119" lon="17.2585304"><ele>414.0</ele><time>2026-05-02T16:05:39.475Z</time></trkpt><trkpt lat="40.7781273" lon="17.2587172"><ele>414.0</ele><time>2026-05-02T16:05:40.476Z</time></trkpt><trkpt lat="40.7780375" lon="17.2589009"><ele>412.33333333333337</ele><time>2026-05-02T16:05:41.474Z</time></trkpt><trkpt lat="40.7779521" lon="17.2590925"><ele>410.6666666666667</ele><time>2026-05-02T16:05:42.475Z</time></trkpt><trkpt lat="40.77786" lon="17.2592855"><ele>409.0</ele><time>2026-05-02T16:05:43.474Z</time></trkpt><trkpt lat="40.7777655" lon="17.2594864"><ele>409.0</ele><time>2026-05-02T16:05:44.475Z</time></trkpt><trkpt lat="40.7776629" lon="17.2596941"><ele>409.0</ele><time>2026-05-02T16:05:45.475Z</time></trkpt><trkpt lat="40.7775627" lon="17.2599061"><ele>409.0</ele><time>2026-05-02T16:05:46.475Z</time></trkpt><trkpt lat="40.7774616" lon="17.2601222"><ele>409.0</ele><time>2026-05-02T16:05:47.474Z</time></trkpt><trkpt lat="40.7773568" lon="17.260345"><ele>409.0</ele><time>2026-05-02T16:05:48.475Z</time></trkpt><trkpt lat="40.777259" lon="17.2605635"><ele>409.0</ele><time>2026-05-02T16:05:49.474Z</time></trkpt><trkpt lat="40.7771636" lon="17.2607727"><ele>409.33333333333337</ele><time>2026-05-02T16:05:50.475Z</time></trkpt><trkpt lat="40.7770664" lon="17.2609798"><ele>409.66666666666663</ele><time>2026-05-02T16:05:51.475Z</time></trkpt><trkpt lat="40.776965" lon="17.2611891"><ele>410.0</ele><time>2026-05-02T16:05:52.475Z</time></trkpt><trkpt lat="40.7768679" lon="17.2614031"><ele>411.66666666666663</ele><time>2026-05-02T16:05:53.475Z</time></trkpt><trkpt lat="40.7767719" lon="17.2616156"><ele>413.33333333333337</ele><time>2026-05-02T16:05:54.474Z</time></trkpt><trkpt lat="40.7766767" lon="17.2618308"><ele>415.0</ele><time>2026-05-02T16:05:55.476Z</time></trkpt><trkpt lat="40.7765776" lon="17.2620407"><ele>415.0</ele><time>2026-05-02T16:05:56.474Z</time></trkpt><trkpt lat="40.7764788" lon="17.2622556"><ele>415.0</ele><time>2026-05-02T16:05:57.475Z</time></trkpt><trkpt lat="40.7763846" lon="17.2624622"><ele>415.0</ele><time>2026-05-02T16:05:58.476Z</time></trkpt><trkpt lat="40.7762847" lon="17.2626714"><ele>414.6666666666667</ele><time>2026-05-02T16:05:59.475Z</time></trkpt><trkpt lat="40.7761824" lon="17.262881"><ele>414.33333333333337</ele><time>2026-05-02T16:06:00.476Z</time></trkpt><trkpt lat="40.7760845" lon="17.2630979"><ele>414.0</ele><time>2026-05-02T16:06:01.476Z</time></trkpt><trkpt lat="40.775984" lon="17.2633112"><ele>414.33333333333337</ele><time>2026-05-02T16:06:02.475Z</time></trkpt><trkpt lat="40.7758916" lon="17.2635419"><ele>414.6666666666667</ele><time>2026-05-02T16:06:03.476Z</time></trkpt><trkpt lat="40.775796" lon="17.2637585"><ele>415.0</ele><time>2026-05-02T16:06:04.475Z</time></trkpt><trkpt lat="40.7756957" lon="17.2639659"><ele>415.0</ele><time>2026-05-02T16:06:05.476Z</time></trkpt><trkpt lat="40.7755996" lon="17.2641658"><ele>415.0</ele><time>2026-05-02T16:06:06.475Z</time></trkpt><trkpt lat="40.775508" lon="17.264363"><ele>415.0</ele><time>2026-05-02T16:06:07.474Z</time></trkpt><trkpt lat="40.7754203" lon="17.2645585"><ele>415.0</ele><time>2026-05-02T16:06:08.475Z</time></trkpt><trkpt lat="40.7753274" lon="17.2647605"><ele>415.0</ele><time>2026-05-02T16:06:09.475Z</time></trkpt><trkpt lat="40.7752395" lon="17.2649537"><ele>415.0</ele><time>2026-05-02T16:06:10.474Z</time></trkpt><trkpt lat="40.7751428" lon="17.2651506"><ele>415.6666666666667</ele><time>2026-05-02T16:06:11.475Z</time></trkpt><trkpt lat="40.7750438" lon="17.2653532"><ele>416.33333333333337</ele><time>2026-05-02T16:06:12.474Z</time></trkpt><trkpt lat="40.7749491" lon="17.2655586"><ele>417.0</ele><time>2026-05-02T16:06:13.474Z</time></trkpt><trkpt lat="40.774854" lon="17.2657696"><ele>417.0</ele><time>2026-05-02T16:06:14.475Z</time></trkpt><trkpt lat="40.7747569" lon="17.2659821"><ele>417.0</ele><time>2026-05-02T16:06:15.475Z</time></trkpt><trkpt lat="40.7746611" lon="17.2661913"><ele>417.0</ele><time>2026-05-02T16:06:16.474Z</time></trkpt><trkpt lat="40.7745635" lon="17.2663994"><ele>417.33333333333337</ele><time>2026-05-02T16:06:17.476Z</time></trkpt><trkpt lat="40.7744672" lon="17.2666062"><ele>417.6666666666667</ele><time>2026-05-02T16:06:18.475Z</time></trkpt><trkpt lat="40.7743712" lon="17.2668126"><ele>418.0</ele><time>2026-05-02T16:06:19.475Z</time></trkpt><trkpt lat="40.7742749" lon="17.2670232"><ele>418.6666666666667</ele><time>2026-05-02T16:06:20.475Z</time></trkpt><trkpt lat="40.7741786" lon="17.267235"><ele>419.33333333333337</ele><time>2026-05-02T16:06:21.476Z</time></trkpt><trkpt lat="40.7740805" lon="17.2674466"><ele>420.0</ele><time>2026-05-02T16:06:22.475Z</time></trkpt><trkpt lat="40.7739821" lon="17.2676571"><ele>420.0</ele><time>2026-05-02T16:06:23.475Z</time></trkpt><trkpt lat="40.7738834" lon="17.2678706"><ele>420.0</ele><time>2026-05-02T16:06:24.475Z</time></trkpt><trkpt lat="40.7737837" lon="17.268087"><ele>420.0</ele><time>2026-05-02T16:06:25.475Z</time></trkpt><trkpt lat="40.773682" lon="17.268309"><ele>420.0</ele><time>2026-05-02T16:06:26.475Z</time></trkpt><trkpt lat="40.7735779" lon="17.2685338"><ele>420.0</ele><time>2026-05-02T16:06:27.476Z</time></trkpt><trkpt lat="40.7734729" lon="17.2687575"><ele>420.0</ele><time>2026-05-02T16:06:28.474Z</time></trkpt><trkpt lat="40.773369" lon="17.2689825"><ele>420.0</ele><time>2026-05-02T16:06:29.474Z</time></trkpt><trkpt lat="40.7732638" lon="17.2692095"><ele>420.0</ele><time>2026-05-02T16:06:30.476Z</time></trkpt><trkpt lat="40.773158" lon="17.2694322"><ele>420.0</ele><time>2026-05-02T16:06:31.475Z</time></trkpt><trkpt lat="40.7730545" lon="17.2696534"><ele>420.33333333333337</ele><time>2026-05-02T16:06:32.475Z</time></trkpt><trkpt lat="40.7729516" lon="17.2698782"><ele>420.6666666666667</ele><time>2026-05-02T16:06:33.475Z</time></trkpt><trkpt lat="40.772851" lon="17.2701003"><ele>421.0</ele><time>2026-05-02T16:06:34.475Z</time></trkpt><trkpt lat="40.7727498" lon="17.2703198"><ele>421.6666666666667</ele><time>2026-05-02T16:06:35.475Z</time></trkpt><trkpt lat="40.7726481" lon="17.270541"><ele>422.33333333333337</ele><time>2026-05-02T16:06:36.475Z</time></trkpt><trkpt lat="40.7725492" lon="17.2707589"><ele>423.0</ele><time>2026-05-02T16:06:37.475Z</time></trkpt><trkpt lat="40.7724515" lon="17.270972"><ele>424.0</ele><time>2026-05-02T16:06:38.475Z</time></trkpt><trkpt lat="40.7723565" lon="17.2711837"><ele>425.0</ele><time>2026-05-02T16:06:39.475Z</time></trkpt><trkpt lat="40.7722621" lon="17.2713921"><ele>426.0</ele><time>2026-05-02T16:06:40.475Z</time></trkpt><trkpt lat="40.772172" lon="17.2715962"><ele>426.66666666666663</ele><time>2026-05-02T16:06:41.476Z</time></trkpt><trkpt lat="40.7720805" lon="17.271801"><ele>427.3333333333333</ele><time>2026-05-02T16:06:42.474Z</time></trkpt><trkpt lat="40.7719843" lon="17.2719864"><ele>428.0</ele><time>2026-05-02T16:06:43.475Z</time></trkpt><trkpt lat="40.7718829" lon="17.2721633"><ele>427.66666666666663</ele><time>2026-05-02T16:06:44.475Z</time></trkpt><trkpt lat="40.7717756" lon="17.2723367"><ele>427.33333333333337</ele><time>2026-05-02T16:06:45.475Z</time></trkpt><trkpt lat="40.7716642" lon="17.2725061"><ele>427.0</ele><time>2026-05-02T16:06:46.475Z</time></trkpt><trkpt lat="40.7715496" lon="17.2726737"><ele>427.0</ele><time>2026-05-02T16:06:47.475Z</time></trkpt><trkpt lat="40.7714309" lon="17.2728381"><ele>427.0</ele><time>2026-05-02T16:06:48.475Z</time></trkpt><trkpt lat="40.7713088" lon="17.2729977"><ele>427.0</ele><time>2026-05-02T16:06:49.475Z</time></trkpt><trkpt lat="40.7711798" lon="17.2731517"><ele>427.0</ele><time>2026-05-02T16:06:50.475Z</time></trkpt><trkpt lat="40.7710421" lon="17.2732956"><ele>427.0</ele><time>2026-05-02T16:06:51.475Z</time></trkpt><trkpt lat="40.7709013" lon="17.2734304"><ele>427.0</ele><time>2026-05-02T16:06:52.475Z</time></trkpt><trkpt lat="40.7707562" lon="17.2735664"><ele>427.0</ele><time>2026-05-02T16:06:53.476Z</time></trkpt><trkpt lat="40.7706086" lon="17.2737003"><ele>427.0</ele><time>2026-05-02T16:06:54.474Z</time></trkpt><trkpt lat="40.7704604" lon="17.2738353"><ele>427.0</ele><time>2026-05-02T16:06:55.475Z</time></trkpt><trkpt lat="40.7703109" lon="17.2739693"><ele>425.33333333333337</ele><time>2026-05-02T16:06:56.475Z</time></trkpt><trkpt lat="40.7701632" lon="17.2740987"><ele>423.66666666666663</ele><time>2026-05-02T16:06:57.475Z</time></trkpt><trkpt lat="40.7700143" lon="17.2742341"><ele>422.0</ele><time>2026-05-02T16:06:58.475Z</time></trkpt><trkpt lat="40.769865" lon="17.2743635"><ele>422.0</ele><time>2026-05-02T16:06:59.475Z</time></trkpt><trkpt lat="40.769718" lon="17.2744971"><ele>422.0</ele><time>2026-05-02T16:07:00.476Z</time></trkpt><trkpt lat="40.7695681" lon="17.2746316"><ele>422.0</ele><time>2026-05-02T16:07:01.475Z</time></trkpt><trkpt lat="40.7694175" lon="17.2747676"><ele>421.0</ele><time>2026-05-02T16:07:02.474Z</time></trkpt><trkpt lat="40.7692666" lon="17.2749022"><ele>420.0</ele><time>2026-05-02T16:07:03.475Z</time></trkpt><trkpt lat="40.7691161" lon="17.2750382"><ele>419.0</ele><time>2026-05-02T16:07:04.475Z</time></trkpt><trkpt lat="40.7689637" lon="17.2751766"><ele>419.0</ele><time>2026-05-02T16:07:05.475Z</time></trkpt><trkpt lat="40.7688118" lon="17.2753143"><ele>419.0</ele><time>2026-05-02T16:07:06.474Z</time></trkpt><trkpt lat="40.7686586" lon="17.2754537"><ele>419.0</ele><time>2026-05-02T16:07:07.474Z</time></trkpt><trkpt lat="40.7685009" lon="17.2755938"><ele>417.0</ele><time>2026-05-02T16:07:08.476Z</time></trkpt><trkpt lat="40.7683431" lon="17.2757339"><ele>415.0</ele><time>2026-05-02T16:07:09.475Z</time></trkpt><trkpt lat="40.768185" lon="17.2758756"><ele>413.0</ele><time>2026-05-02T16:07:10.474Z</time></trkpt><trkpt lat="40.7680241" lon="17.276021"><ele>413.0</ele><time>2026-05-02T16:07:11.475Z</time></trkpt><trkpt lat="40.7678637" lon="17.276166"><ele>413.0</ele><time>2026-05-02T16:07:12.474Z</time></trkpt><trkpt lat="40.7676993" lon="17.2763155"><ele>413.0</ele><time>2026-05-02T16:07:13.475Z</time></trkpt><trkpt lat="40.7675333" lon="17.2764629"><ele>412.3333333333333</ele><time>2026-05-02T16:07:14.474Z</time></trkpt><trkpt lat="40.767365" lon="17.2766149"><ele>411.66666666666663</ele><time>2026-05-02T16:07:15.476Z</time></trkpt><trkpt lat="40.7671883" lon="17.2767744"><ele>411.0</ele><time>2026-05-02T16:07:16.474Z</time></trkpt><trkpt lat="40.7670122" lon="17.2769341"><ele>410.66666666666663</ele><time>2026-05-02T16:07:17.476Z</time></trkpt><trkpt lat="40.7668376" lon="17.2770935"><ele>410.3333333333333</ele><time>2026-05-02T16:07:18.475Z</time></trkpt><trkpt lat="40.7666573" lon="17.2772525"><ele>410.0</ele><time>2026-05-02T16:07:19.474Z</time></trkpt><trkpt lat="40.766477" lon="17.2774126"><ele>409.66666666666663</ele><time>2026-05-02T16:07:20.475Z</time></trkpt><trkpt lat="40.7662972" lon="17.2775733"><ele>409.33333333333337</ele><time>2026-05-02T16:07:21.475Z</time></trkpt><trkpt lat="40.7661204" lon="17.2777282"><ele>409.0</ele><time>2026-05-02T16:07:22.476Z</time></trkpt><trkpt lat="40.7659464" lon="17.2778846"><ele>409.0</ele><time>2026-05-02T16:07:23.475Z</time></trkpt><trkpt lat="40.7657781" lon="17.2780464"><ele>409.0</ele><time>2026-05-02T16:07:24.476Z</time></trkpt><trkpt lat="40.7656159" lon="17.2782141"><ele>409.0</ele><time>2026-05-02T16:07:25.476Z</time></trkpt><trkpt lat="40.7654634" lon="17.2783894"><ele>409.0</ele><time>2026-05-02T16:07:26.476Z</time></trkpt><trkpt lat="40.7653216" lon="17.2785778"><ele>409.0</ele><time>2026-05-02T16:07:27.474Z</time></trkpt><trkpt lat="40.7651852" lon="17.2787724"><ele>409.0</ele><time>2026-05-02T16:07:28.476Z</time></trkpt><trkpt lat="40.7650578" lon="17.2789789"><ele>408.6666666666667</ele><time>2026-05-02T16:07:29.475Z</time></trkpt><trkpt lat="40.764937" lon="17.2791893"><ele>408.33333333333337</ele><time>2026-05-02T16:07:30.476Z</time></trkpt><trkpt lat="40.7648232" lon="17.2794083"><ele>408.0</ele><time>2026-05-02T16:07:31.476Z</time></trkpt><trkpt lat="40.76472" lon="17.2796381"><ele>408.33333333333337</ele><time>2026-05-02T16:07:32.475Z</time></trkpt><trkpt lat="40.7646327" lon="17.2798791"><ele>408.6666666666667</ele><time>2026-05-02T16:07:33.474Z</time></trkpt><trkpt lat="40.7645537" lon="17.2801298"><ele>409.0</ele><time>2026-05-02T16:07:34.474Z</time></trkpt><trkpt lat="40.7644871" lon="17.2803834"><ele>409.0</ele><time>2026-05-02T16:07:35.474Z</time></trkpt><trkpt lat="40.7644294" lon="17.2806401"><ele>409.0</ele><time>2026-05-02T16:07:36.474Z</time></trkpt><trkpt lat="40.764385" lon="17.2808976"><ele>409.0</ele><time>2026-05-02T16:07:37.473Z</time></trkpt><trkpt lat="40.764348" lon="17.2811617"><ele>408.33333333333337</ele><time>2026-05-02T16:07:38.473Z</time></trkpt><trkpt lat="40.7643237" lon="17.2814282"><ele>407.66666666666663</ele><time>2026-05-02T16:07:39.475Z</time></trkpt><trkpt lat="40.7643116" lon="17.2816979"><ele>407.0</ele><time>2026-05-02T16:07:40.474Z</time></trkpt><trkpt lat="40.7643055" lon="17.2819718"><ele>406.66666666666663</ele><time>2026-05-02T16:07:41.473Z</time></trkpt><trkpt lat="40.7643065" lon="17.2822472"><ele>406.33333333333337</ele><time>2026-05-02T16:07:42.474Z</time></trkpt><trkpt lat="40.7643105" lon="17.2825206"><ele>406.0</ele><time>2026-05-02T16:07:43.474Z</time></trkpt><trkpt lat="40.7643114" lon="17.2827954"><ele>406.0</ele><time>2026-05-02T16:07:44.474Z</time></trkpt><trkpt lat="40.7643138" lon="17.2830706"><ele>406.0</ele><time>2026-05-02T16:07:45.474Z</time></trkpt><trkpt lat="40.7643154" lon="17.283337"><ele>406.0</ele><time>2026-05-02T16:07:46.474Z</time></trkpt><trkpt lat="40.7643193" lon="17.2836"><ele>405.6666666666667</ele><time>2026-05-02T16:07:47.474Z</time></trkpt><trkpt lat="40.7643237" lon="17.2838634"><ele>405.33333333333337</ele><time>2026-05-02T16:07:48.474Z</time></trkpt><trkpt lat="40.7643232" lon="17.2841237"><ele>405.0</ele><time>2026-05-02T16:07:49.474Z</time></trkpt><trkpt lat="40.764323" lon="17.2843781"><ele>404.0</ele><time>2026-05-02T16:07:50.474Z</time></trkpt><trkpt lat="40.7643256" lon="17.2846348"><ele>403.0</ele><time>2026-05-02T16:07:51.474Z</time></trkpt><trkpt lat="40.7643286" lon="17.2848843"><ele>402.0</ele><time>2026-05-02T16:07:52.474Z</time></trkpt><trkpt lat="40.7643311" lon="17.2851334"><ele>401.66666666666663</ele><time>2026-05-02T16:07:53.474Z</time></trkpt><trkpt lat="40.7643396" lon="17.2853793"><ele>401.3333333333333</ele><time>2026-05-02T16:07:54.475Z</time></trkpt><trkpt lat="40.7643425" lon="17.2856265"><ele>401.0</ele><time>2026-05-02T16:07:55.473Z</time></trkpt><trkpt lat="40.7643465" lon="17.2858706"><ele>402.0</ele><time>2026-05-02T16:07:56.474Z</time></trkpt><trkpt lat="40.7643512" lon="17.286115"><ele>403.0</ele><time>2026-05-02T16:07:57.473Z</time></trkpt><trkpt lat="40.7643536" lon="17.2863563"><ele>404.0</ele><time>2026-05-02T16:07:58.474Z</time></trkpt><trkpt lat="40.764359" lon="17.2865985"><ele>403.3333333333333</ele><time>2026-05-02T16:07:59.475Z</time></trkpt><trkpt lat="40.7643641" lon="17.2868449"><ele>402.66666666666663</ele><time>2026-05-02T16:08:00.474Z</time></trkpt><trkpt lat="40.7643705" lon="17.287083"><ele>402.0</ele><time>2026-05-02T16:08:01.474Z</time></trkpt><trkpt lat="40.7643726" lon="17.2873207"><ele>401.0</ele><time>2026-05-02T16:08:02.474Z</time></trkpt><trkpt lat="40.7643796" lon="17.2875619"><ele>400.0</ele><time>2026-05-02T16:08:03.473Z</time></trkpt><trkpt lat="40.7643827" lon="17.2878059"><ele>399.0</ele><time>2026-05-02T16:08:04.474Z</time></trkpt><trkpt lat="40.7643842" lon="17.2880488"><ele>397.66666666666663</ele><time>2026-05-02T16:08:05.474Z</time></trkpt><trkpt lat="40.7643886" lon="17.2882935"><ele>396.3333333333333</ele><time>2026-05-02T16:08:06.473Z</time></trkpt><trkpt lat="40.7643916" lon="17.2885358"><ele>395.0</ele><time>2026-05-02T16:08:07.474Z</time></trkpt><trkpt lat="40.7644086" lon="17.288792"><ele>395.0</ele><time>2026-05-02T16:08:08.474Z</time></trkpt><trkpt lat="40.7644234" lon="17.2890422"><ele>395.0</ele><time>2026-05-02T16:08:09.475Z</time></trkpt><trkpt lat="40.7644168" lon="17.289296"><ele>395.0</ele><time>2026-05-02T16:08:10.474Z</time></trkpt><trkpt lat="40.7644194" lon="17.2895427"><ele>395.0</ele><time>2026-05-02T16:08:11.474Z</time></trkpt><trkpt lat="40.7644224" lon="17.2897869"><ele>395.0</ele><time>2026-05-02T16:08:12.474Z</time></trkpt><trkpt lat="40.7644346" lon="17.2900374"><ele>395.0</ele><time>2026-05-02T16:08:13.474Z</time></trkpt><trkpt lat="40.7644364" lon="17.2902686"><ele>395.0</ele><time>2026-05-02T16:08:14.475Z</time></trkpt><trkpt lat="40.7644427" lon="17.2905044"><ele>395.0</ele><time>2026-05-02T16:08:15.474Z</time></trkpt><trkpt lat="40.7644455" lon="17.2907343"><ele>395.0</ele><time>2026-05-02T16:08:16.474Z</time></trkpt><trkpt lat="40.7644458" lon="17.290957"><ele>395.3333333333333</ele><time>2026-05-02T16:08:17.473Z</time></trkpt><trkpt lat="40.764453" lon="17.2911719"><ele>395.66666666666663</ele><time>2026-05-02T16:08:18.474Z</time></trkpt><trkpt lat="40.7644534" lon="17.2913758"><ele>396.0</ele><time>2026-05-02T16:08:19.474Z</time></trkpt><trkpt lat="40.7644606" lon="17.2915781"><ele>396.0</ele><time>2026-05-02T16:08:20.473Z</time></trkpt><trkpt lat="40.7644669" lon="17.291777"><ele>396.0</ele><time>2026-05-02T16:08:21.474Z</time></trkpt><trkpt lat="40.7644668" lon="17.2919725"><ele>396.0</ele><time>2026-05-02T16:08:22.474Z</time></trkpt><trkpt lat="40.7644619" lon="17.2921668"><ele>396.0</ele><time>2026-05-02T16:08:23.474Z</time></trkpt><trkpt lat="40.7644537" lon="17.2923578"><ele>396.0</ele><time>2026-05-02T16:08:24.475Z</time></trkpt><trkpt lat="40.7644396" lon="17.2925434"><ele>396.0</ele><time>2026-05-02T16:08:25.473Z</time></trkpt><trkpt lat="40.7644232" lon="17.292727"><ele>396.0</ele><time>2026-05-02T16:08:26.473Z</time></trkpt><trkpt lat="40.7644032" lon="17.2929043"><ele>396.0</ele><time>2026-05-02T16:08:27.473Z</time></trkpt><trkpt lat="40.7643816" lon="17.2930811"><ele>396.75</ele><time>2026-05-02T16:08:28.475Z</time></trkpt><trkpt lat="40.7643544" lon="17.2932515"><ele>397.5</ele><time>2026-05-02T16:08:29.475Z</time></trkpt><trkpt lat="40.7643276" lon="17.2934129"><ele>398.25</ele><time>2026-05-02T16:08:30.474Z</time></trkpt><trkpt lat="40.7642953" lon="17.2935654"><ele>399.0</ele><time>2026-05-02T16:08:31.474Z</time></trkpt><trkpt lat="40.7642609" lon="17.2937086"><ele>399.0</ele><time>2026-05-02T16:08:32.474Z</time></trkpt><trkpt lat="40.7642264" lon="17.2938431"><ele>399.0</ele><time>2026-05-02T16:08:33.474Z</time></trkpt><trkpt lat="40.7641977" lon="17.2939721"><ele>399.0</ele><time>2026-05-02T16:08:34.474Z</time></trkpt><trkpt lat="40.7641705" lon="17.2940901"><ele>399.0</ele><time>2026-05-02T16:08:35.475Z</time></trkpt><trkpt lat="40.7641399" lon="17.2942036"><ele>399.0</ele><time>2026-05-02T16:08:36.475Z</time></trkpt><trkpt lat="40.764111" lon="17.2943124"><ele>398.3333333333333</ele><time>2026-05-02T16:08:37.475Z</time></trkpt><trkpt lat="40.7640857" lon="17.2944223"><ele>397.66666666666663</ele><time>2026-05-02T16:08:38.475Z</time></trkpt><trkpt lat="40.7640619" lon="17.2945247"><ele>397.0</ele><time>2026-05-02T16:08:39.474Z</time></trkpt><trkpt lat="40.764037" lon="17.2946311"><ele>396.3333333333333</ele><time>2026-05-02T16:08:40.473Z</time></trkpt><trkpt lat="40.7640099" lon="17.2947344"><ele>395.66666666666663</ele><time>2026-05-02T16:08:41.474Z</time></trkpt><trkpt lat="40.7639841" lon="17.2948376"><ele>395.0</ele><time>2026-05-02T16:08:42.475Z</time></trkpt><trkpt lat="40.7639571" lon="17.294945"><ele>394.66666666666663</ele><time>2026-05-02T16:08:43.473Z</time></trkpt><trkpt lat="40.7639307" lon="17.295055"><ele>394.3333333333333</ele><time>2026-05-02T16:08:44.475Z</time></trkpt><trkpt lat="40.7639033" lon="17.295158"><ele>394.0</ele><time>2026-05-02T16:08:45.475Z</time></trkpt><trkpt lat="40.7638779" lon="17.2952687"><ele>393.66666666666663</ele><time>2026-05-02T16:08:46.474Z</time></trkpt><trkpt lat="40.7638504" lon="17.2953814"><ele>393.3333333333333</ele><time>2026-05-02T16:08:47.474Z</time></trkpt><trkpt lat="40.7638235" lon="17.2955002"><ele>393.0</ele><time>2026-05-02T16:08:48.474Z</time></trkpt><trkpt lat="40.7637924" lon="17.2956164"><ele>392.1666666666667</ele><time>2026-05-02T16:08:49.474Z</time></trkpt><trkpt lat="40.7637609" lon="17.2957293"><ele>391.33333333333337</ele><time>2026-05-02T16:08:50.473Z</time></trkpt><trkpt lat="40.7637293" lon="17.2958398"><ele>390.5</ele><time>2026-05-02T16:08:51.474Z</time></trkpt><trkpt lat="40.7637048" lon="17.29595"><ele>389.6666666666667</ele><time>2026-05-02T16:08:52.474Z</time></trkpt><trkpt lat="40.7636816" lon="17.2960547"><ele>388.83333333333337</ele><time>2026-05-02T16:08:53.474Z</time></trkpt><trkpt lat="40.7636592" lon="17.2961526"><ele>388.0</ele><time>2026-05-02T16:08:54.474Z</time></trkpt><trkpt lat="40.7636361" lon="17.2962449"><ele>388.00000000000006</ele><time>2026-05-02T16:08:55.474Z</time></trkpt><trkpt lat="40.7636146" lon="17.2963311"><ele>388.0</ele><time>2026-05-02T16:08:56.474Z</time></trkpt><trkpt lat="40.7635925" lon="17.2964129"><ele>388.0</ele><time>2026-05-02T16:08:57.474Z</time></trkpt><trkpt lat="40.7635567" lon="17.2965653"><ele>388.0</ele><time>2026-05-02T16:08:59.474Z</time></trkpt><trkpt lat="40.7635372" lon="17.296645"><ele>388.00000000000006</ele><time>2026-05-02T16:09:00.474Z</time></trkpt><trkpt lat="40.763516" lon="17.2967318"><ele>388.0</ele><time>2026-05-02T16:09:01.473Z</time></trkpt><trkpt lat="40.7634896" lon="17.2968323"><ele>388.5</ele><time>2026-05-02T16:09:02.474Z</time></trkpt><trkpt lat="40.7634558" lon="17.2969565"><ele>389.0</ele><time>2026-05-02T16:09:03.473Z</time></trkpt><trkpt lat="40.7634203" lon="17.2970945"><ele>389.5</ele><time>2026-05-02T16:09:04.474Z</time></trkpt><trkpt lat="40.7633843" lon="17.2972392"><ele>390.0</ele><time>2026-05-02T16:09:05.474Z</time></trkpt><trkpt lat="40.7633448" lon="17.2973961"><ele>389.0</ele><time>2026-05-02T16:09:06.475Z</time></trkpt><trkpt lat="40.7632984" lon="17.2975624"><ele>388.0</ele><time>2026-05-02T16:09:07.473Z</time></trkpt><trkpt lat="40.76325" lon="17.2977375"><ele>387.0</ele><time>2026-05-02T16:09:08.474Z</time></trkpt><trkpt lat="40.7631996" lon="17.2979313"><ele>386.0</ele><time>2026-05-02T16:09:09.474Z</time></trkpt><trkpt lat="40.7631493" lon="17.2981251"><ele>385.66666666666663</ele><time>2026-05-02T16:09:10.475Z</time></trkpt><trkpt lat="40.7630948" lon="17.2983283"><ele>385.33333333333337</ele><time>2026-05-02T16:09:11.474Z</time></trkpt><trkpt lat="40.7630379" lon="17.2985416"><ele>385.0</ele><time>2026-05-02T16:09:12.474Z</time></trkpt><trkpt lat="40.7629849" lon="17.2987504"><ele>386.0</ele><time>2026-05-02T16:09:13.474Z</time></trkpt><trkpt lat="40.7629308" lon="17.2989536"><ele>387.0</ele><time>2026-05-02T16:09:14.473Z</time></trkpt><trkpt lat="40.7628774" lon="17.29916"><ele>388.0</ele><time>2026-05-02T16:09:15.474Z</time></trkpt><trkpt lat="40.7628241" lon="17.2993713"><ele>388.0</ele><time>2026-05-02T16:09:16.474Z</time></trkpt><trkpt lat="40.7627693" lon="17.2995807"><ele>388.0</ele><time>2026-05-02T16:09:17.473Z</time></trkpt><trkpt lat="40.7627131" lon="17.2997983"><ele>388.0</ele><time>2026-05-02T16:09:18.474Z</time></trkpt><trkpt lat="40.762658" lon="17.3000162"><ele>389.6666666666667</ele><time>2026-05-02T16:09:19.475Z</time></trkpt><trkpt lat="40.7625992" lon="17.3002394"><ele>391.33333333333337</ele><time>2026-05-02T16:09:20.473Z</time></trkpt><trkpt lat="40.7625399" lon="17.3004563"><ele>393.0</ele><time>2026-05-02T16:09:21.474Z</time></trkpt><trkpt lat="40.7624866" lon="17.3006765"><ele>393.33333333333337</ele><time>2026-05-02T16:09:22.474Z</time></trkpt><trkpt lat="40.7624314" lon="17.3008962"><ele>393.6666666666667</ele><time>2026-05-02T16:09:23.474Z</time></trkpt><trkpt lat="40.7623751" lon="17.3011261"><ele>394.0</ele><time>2026-05-02T16:09:24.474Z</time></trkpt><trkpt lat="40.7623194" lon="17.3013614"><ele>392.6666666666667</ele><time>2026-05-02T16:09:25.474Z</time></trkpt><trkpt lat="40.7622562" lon="17.3015969"><ele>391.33333333333337</ele><time>2026-05-02T16:09:26.474Z</time></trkpt><trkpt lat="40.7621999" lon="17.3018287"><ele>390.0</ele><time>2026-05-02T16:09:27.474Z</time></trkpt><trkpt lat="40.7621411" lon="17.302059"><ele>389.66666666666663</ele><time>2026-05-02T16:09:28.475Z</time></trkpt><trkpt lat="40.7620805" lon="17.302285"><ele>389.3333333333333</ele><time>2026-05-02T16:09:29.474Z</time></trkpt><trkpt lat="40.7620257" lon="17.3025136"><ele>389.0</ele><time>2026-05-02T16:09:30.475Z</time></trkpt><trkpt lat="40.7619674" lon="17.3027375"><ele>389.0</ele><time>2026-05-02T16:09:31.474Z</time></trkpt><trkpt lat="40.7619105" lon="17.3029612"><ele>389.0</ele><time>2026-05-02T16:09:32.474Z</time></trkpt><trkpt lat="40.7618467" lon="17.3031777"><ele>389.0</ele><time>2026-05-02T16:09:33.474Z</time></trkpt><trkpt lat="40.7617896" lon="17.3033988"><ele>390.66666666666663</ele><time>2026-05-02T16:09:34.473Z</time></trkpt><trkpt lat="40.7617333" lon="17.3036211"><ele>392.33333333333337</ele><time>2026-05-02T16:09:35.474Z</time></trkpt><trkpt lat="40.761669" lon="17.3038508"><ele>394.0</ele><time>2026-05-02T16:09:36.474Z</time></trkpt><trkpt lat="40.7616077" lon="17.3040852"><ele>394.0</ele><time>2026-05-02T16:09:37.474Z</time></trkpt><trkpt lat="40.7615529" lon="17.3043151"><ele>394.0</ele><time>2026-05-02T16:09:38.474Z</time></trkpt><trkpt lat="40.7614946" lon="17.3045467"><ele>394.0</ele><time>2026-05-02T16:09:39.475Z</time></trkpt><trkpt lat="40.7614341" lon="17.304766"><ele>393.6666666666667</ele><time>2026-05-02T16:09:40.474Z</time></trkpt><trkpt lat="40.7613746" lon="17.3049936"><ele>393.33333333333337</ele><time>2026-05-02T16:09:41.474Z</time></trkpt><trkpt lat="40.7613108" lon="17.3052245"><ele>393.0</ele><time>2026-05-02T16:09:42.473Z</time></trkpt><trkpt lat="40.7612491" lon="17.305454"><ele>393.0</ele><time>2026-05-02T16:09:43.474Z</time></trkpt><trkpt lat="40.7611895" lon="17.3056849"><ele>393.0</ele><time>2026-05-02T16:09:44.474Z</time></trkpt><trkpt lat="40.7611288" lon="17.3059121"><ele>393.0</ele><time>2026-05-02T16:09:45.473Z</time></trkpt><trkpt lat="40.7610699" lon="17.306133"><ele>394.33333333333337</ele><time>2026-05-02T16:09:46.475Z</time></trkpt><trkpt lat="40.7610096" lon="17.3063535"><ele>395.6666666666667</ele><time>2026-05-02T16:09:47.474Z</time></trkpt><trkpt lat="40.7609503" lon="17.3065681"><ele>397.0</ele><time>2026-05-02T16:09:48.473Z</time></trkpt><trkpt lat="40.7608934" lon="17.3067813"><ele>397.0</ele><time>2026-05-02T16:09:49.475Z</time></trkpt><trkpt lat="40.7608444" lon="17.3069975"><ele>397.0</ele><time>2026-05-02T16:09:50.474Z</time></trkpt><trkpt lat="40.7607889" lon="17.3072093"><ele>397.0</ele><time>2026-05-02T16:09:51.473Z</time></trkpt><trkpt lat="40.7607354" lon="17.3074188"><ele>396.33333333333337</ele><time>2026-05-02T16:09:52.474Z</time></trkpt><trkpt lat="40.7606852" lon="17.3076208"><ele>395.66666666666663</ele><time>2026-05-02T16:09:53.475Z</time></trkpt><trkpt lat="40.7606358" lon="17.3078209"><ele>395.0</ele><time>2026-05-02T16:09:54.473Z</time></trkpt><trkpt lat="40.7605844" lon="17.3080191"><ele>394.25</ele><time>2026-05-02T16:09:55.474Z</time></trkpt><trkpt lat="40.7605344" lon="17.3082107"><ele>393.5</ele><time>2026-05-02T16:09:56.475Z</time></trkpt><trkpt lat="40.7604857" lon="17.3083976"><ele>392.75</ele><time>2026-05-02T16:09:57.474Z</time></trkpt><trkpt lat="40.7604415" lon="17.3085779"><ele>392.0</ele><time>2026-05-02T16:09:58.473Z</time></trkpt><trkpt lat="40.7604017" lon="17.3087332"><ele>391.99999999999994</ele><time>2026-05-02T16:09:59.474Z</time></trkpt><trkpt lat="40.7603705" lon="17.3088702"><ele>392.0</ele><time>2026-05-02T16:10:00.473Z</time></trkpt><trkpt lat="40.7603407" lon="17.3089865"><ele>392.0</ele><time>2026-05-02T16:10:01.474Z</time></trkpt><trkpt lat="40.7603161" lon="17.3090789"><ele>392.0</ele><time>2026-05-02T16:10:02.474Z</time></trkpt><trkpt lat="40.7602856" lon="17.3091581"><ele>391.99999999999994</ele><time>2026-05-02T16:10:03.473Z</time></trkpt><trkpt lat="40.7602459" lon="17.3092338"><ele>392.0</ele><time>2026-05-02T16:10:04.473Z</time></trkpt><trkpt lat="40.7602034" lon="17.3093118"><ele>392.16666666666663</ele><time>2026-05-02T16:10:05.474Z</time></trkpt><trkpt lat="40.760166" lon="17.3093922"><ele>392.3333333333333</ele><time>2026-05-02T16:10:06.474Z</time></trkpt><trkpt lat="40.7601439" lon="17.3094924"><ele>392.5</ele><time>2026-05-02T16:10:07.473Z</time></trkpt><trkpt lat="40.7601403" lon="17.3096027"><ele>392.66666666666663</ele><time>2026-05-02T16:10:08.475Z</time></trkpt><trkpt lat="40.7601372" lon="17.3097215"><ele>392.8333333333333</ele><time>2026-05-02T16:10:09.474Z</time></trkpt><trkpt lat="40.7601221" lon="17.3098472"><ele>393.0</ele><time>2026-05-02T16:10:10.474Z</time></trkpt><trkpt lat="40.7600927" lon="17.3099785"><ele>392.5</ele><time>2026-05-02T16:10:11.474Z</time></trkpt><trkpt lat="40.7600553" lon="17.3101142"><ele>392.0</ele><time>2026-05-02T16:10:12.473Z</time></trkpt><trkpt lat="40.7600182" lon="17.3102533"><ele>391.5</ele><time>2026-05-02T16:10:13.474Z</time></trkpt><trkpt lat="40.7599779" lon="17.3104032"><ele>391.0</ele><time>2026-05-02T16:10:14.474Z</time></trkpt><trkpt lat="40.7599394" lon="17.3105535"><ele>390.25</ele><time>2026-05-02T16:10:15.475Z</time></trkpt><trkpt lat="40.7599013" lon="17.3107117"><ele>389.5</ele><time>2026-05-02T16:10:16.473Z</time></trkpt><trkpt lat="40.7598603" lon="17.3108755"><ele>388.75</ele><time>2026-05-02T16:10:17.474Z</time></trkpt><trkpt lat="40.7598168" lon="17.3110372"><ele>388.0</ele><time>2026-05-02T16:10:18.475Z</time></trkpt><trkpt lat="40.759775" lon="17.3112035"><ele>388.0</ele><time>2026-05-02T16:10:19.474Z</time></trkpt><trkpt lat="40.7597313" lon="17.3113742"><ele>388.0</ele><time>2026-05-02T16:10:20.474Z</time></trkpt><trkpt lat="40.7596877" lon="17.3115521"><ele>388.0</ele><time>2026-05-02T16:10:21.474Z</time></trkpt><trkpt lat="40.7596425" lon="17.3117332"><ele>388.0</ele><time>2026-05-02T16:10:22.474Z</time></trkpt><trkpt lat="40.7595953" lon="17.3119194"><ele>387.6666666666667</ele><time>2026-05-02T16:10:23.474Z</time></trkpt><trkpt lat="40.7595509" lon="17.3121118"><ele>387.33333333333337</ele><time>2026-05-02T16:10:24.474Z</time></trkpt><trkpt lat="40.7595038" lon="17.3123003"><ele>387.0</ele><time>2026-05-02T16:10:25.474Z</time></trkpt><trkpt lat="40.7594553" lon="17.3124879"><ele>386.66666666666663</ele><time>2026-05-02T16:10:26.474Z</time></trkpt><trkpt lat="40.7594132" lon="17.3126782"><ele>386.3333333333333</ele><time>2026-05-02T16:10:27.474Z</time></trkpt><trkpt lat="40.7593602" lon="17.3128638"><ele>386.0</ele><time>2026-05-02T16:10:28.474Z</time></trkpt><trkpt lat="40.7593127" lon="17.3130519"><ele>385.75</ele><time>2026-05-02T16:10:29.474Z</time></trkpt><trkpt lat="40.7592664" lon="17.3132354"><ele>385.5</ele><time>2026-05-02T16:10:30.475Z</time></trkpt><trkpt lat="40.7592147" lon="17.3134172"><ele>385.25</ele><time>2026-05-02T16:10:31.475Z</time></trkpt><trkpt lat="40.7591683" lon="17.3136"><ele>385.0</ele><time>2026-05-02T16:10:32.474Z</time></trkpt><trkpt lat="40.7591174" lon="17.3137757"><ele>384.75</ele><time>2026-05-02T16:10:33.474Z</time></trkpt><trkpt lat="40.7590697" lon="17.3139566"><ele>384.5</ele><time>2026-05-02T16:10:34.474Z</time></trkpt><trkpt lat="40.7590255" lon="17.3141304"><ele>384.25</ele><time>2026-05-02T16:10:35.474Z</time></trkpt><trkpt lat="40.7589802" lon="17.314306"><ele>384.0</ele><time>2026-05-02T16:10:36.474Z</time></trkpt><trkpt lat="40.7588961" lon="17.3146297"><ele>383.79999999999995</ele><time>2026-05-02T16:10:38.474Z</time></trkpt><trkpt lat="40.7588557" lon="17.3147672"><ele>383.59999999999997</ele><time>2026-05-02T16:10:39.474Z</time></trkpt><trkpt lat="40.7588218" lon="17.3148893"><ele>383.4</ele><time>2026-05-02T16:10:40.474Z</time></trkpt><trkpt lat="40.7587903" lon="17.3149956"><ele>383.2</ele><time>2026-05-02T16:10:41.473Z</time></trkpt><trkpt lat="40.7587604" lon="17.3150877"><ele>383.0</ele><time>2026-05-02T16:10:42.475Z</time></trkpt><trkpt lat="40.7586947" lon="17.3152184"><ele>383.0</ele><time>2026-05-02T16:10:44.474Z</time></trkpt><trkpt lat="40.7586751" lon="17.31534"><ele>383.0</ele><time>2026-05-02T16:10:46.474Z</time></trkpt><trkpt lat="40.7586653" lon="17.3154748"><ele>383.0</ele><time>2026-05-02T16:10:48.474Z</time></trkpt><trkpt lat="40.7586645" lon="17.3155986"><ele>383.0</ele><time>2026-05-02T16:10:50.474Z</time></trkpt><trkpt lat="40.7586494" lon="17.3157346"><ele>383.0</ele><time>2026-05-02T16:10:52.474Z</time></trkpt><trkpt lat="40.7585943" lon="17.3158724"><ele>383.0</ele><time>2026-05-02T16:10:54.473Z</time></trkpt><trkpt lat="40.7585641" lon="17.3159551"><ele>383.0</ele><time>2026-05-02T16:10:55.474Z</time></trkpt><trkpt lat="40.7585436" lon="17.316062"><ele>383.0</ele><time>2026-05-02T16:10:56.473Z</time></trkpt><trkpt lat="40.7585222" lon="17.3161409"><ele>383.0</ele><time>2026-05-02T16:10:57.473Z</time></trkpt><trkpt lat="40.7584872" lon="17.3162522"><ele>383.0</ele><time>2026-05-02T16:10:59.474Z</time></trkpt><trkpt lat="40.7584707" lon="17.3163533"><ele>383.0</ele><time>2026-05-02T16:11:01.474Z</time></trkpt><trkpt lat="40.7584469" lon="17.3164436"><ele>382.59999999999997</ele><time>2026-05-02T16:11:03.473Z</time></trkpt><trkpt lat="40.7584151" lon="17.3165529"><ele>382.2</ele><time>2026-05-02T16:11:05.472Z</time></trkpt><trkpt lat="40.758366" lon="17.3167226"><ele>381.8</ele><time>2026-05-02T16:11:07.472Z</time></trkpt><trkpt lat="40.758335" lon="17.3168234"><ele>381.4</ele><time>2026-05-02T16:11:08.473Z</time></trkpt><trkpt lat="40.7583082" lon="17.3169484"><ele>381.0</ele><time>2026-05-02T16:11:09.474Z</time></trkpt><trkpt lat="40.7582746" lon="17.317073"><ele>381.0</ele><time>2026-05-02T16:11:10.474Z</time></trkpt><trkpt lat="40.7582427" lon="17.3171931"><ele>381.0</ele><time>2026-05-02T16:11:11.474Z</time></trkpt><trkpt lat="40.7582018" lon="17.3173257"><ele>381.0</ele><time>2026-05-02T16:11:12.473Z</time></trkpt><trkpt lat="40.7581665" lon="17.3174604"><ele>381.0</ele><time>2026-05-02T16:11:13.473Z</time></trkpt><trkpt lat="40.7581304" lon="17.3175965"><ele>381.0</ele><time>2026-05-02T16:11:14.473Z</time></trkpt><trkpt lat="40.7580955" lon="17.3177349"><ele>381.75</ele><time>2026-05-02T16:11:15.473Z</time></trkpt><trkpt lat="40.7580588" lon="17.3178765"><ele>382.5</ele><time>2026-05-02T16:11:16.474Z</time></trkpt><trkpt lat="40.7580233" lon="17.3180195"><ele>383.25</ele><time>2026-05-02T16:11:17.473Z</time></trkpt><trkpt lat="40.7579874" lon="17.3181626"><ele>384.0</ele><time>2026-05-02T16:11:18.474Z</time></trkpt><trkpt lat="40.7579489" lon="17.3183031"><ele>384.0</ele><time>2026-05-02T16:11:19.474Z</time></trkpt><trkpt lat="40.7579097" lon="17.3184471"><ele>384.0</ele><time>2026-05-02T16:11:20.472Z</time></trkpt><trkpt lat="40.7578708" lon="17.3185877"><ele>384.0</ele><time>2026-05-02T16:11:21.473Z</time></trkpt><trkpt lat="40.7578327" lon="17.3187303"><ele>384.0</ele><time>2026-05-02T16:11:22.474Z</time></trkpt><trkpt lat="40.7577951" lon="17.3188729"><ele>384.0</ele><time>2026-05-02T16:11:23.473Z</time></trkpt><trkpt lat="40.7577575" lon="17.3190075"><ele>384.0</ele><time>2026-05-02T16:11:24.473Z</time></trkpt><trkpt lat="40.7577249" lon="17.3191422"><ele>384.0</ele><time>2026-05-02T16:11:25.472Z</time></trkpt><trkpt lat="40.7576928" lon="17.3192747"><ele>384.0</ele><time>2026-05-02T16:11:26.473Z</time></trkpt><trkpt lat="40.7576662" lon="17.3194045"><ele>384.0</ele><time>2026-05-02T16:11:27.472Z</time></trkpt><trkpt lat="40.7576325" lon="17.3195334"><ele>383.4</ele><time>2026-05-02T16:11:28.473Z</time></trkpt><trkpt lat="40.7575966" lon="17.3196674"><ele>382.79999999999995</ele><time>2026-05-02T16:11:29.474Z</time></trkpt><trkpt lat="40.7575597" lon="17.3197996"><ele>382.20000000000005</ele><time>2026-05-02T16:11:30.474Z</time></trkpt><trkpt lat="40.7575211" lon="17.3199393"><ele>381.6</ele><time>2026-05-02T16:11:31.473Z</time></trkpt><trkpt lat="40.7574866" lon="17.3200739"><ele>381.0</ele><time>2026-05-02T16:11:32.472Z</time></trkpt><trkpt lat="40.757456" lon="17.3202003"><ele>381.0</ele><time>2026-05-02T16:11:33.473Z</time></trkpt><trkpt lat="40.7574215" lon="17.3203269"><ele>381.0</ele><time>2026-05-02T16:11:34.473Z</time></trkpt><trkpt lat="40.7573916" lon="17.320449"><ele>381.0</ele><time>2026-05-02T16:11:35.473Z</time></trkpt><trkpt lat="40.7573707" lon="17.320588"><ele>381.0</ele><time>2026-05-02T16:11:36.473Z</time></trkpt><trkpt lat="40.7573402" lon="17.3207203"><ele>381.0</ele><time>2026-05-02T16:11:37.474Z</time></trkpt><trkpt lat="40.7573092" lon="17.3208506"><ele>381.20000000000005</ele><time>2026-05-02T16:11:38.473Z</time></trkpt><trkpt lat="40.757273" lon="17.3209876"><ele>381.40000000000003</ele><time>2026-05-02T16:11:39.473Z</time></trkpt><trkpt lat="40.7572397" lon="17.3210958"><ele>381.6</ele><time>2026-05-02T16:11:40.473Z</time></trkpt><trkpt lat="40.7572032" lon="17.3212324"><ele>381.8</ele><time>2026-05-02T16:11:41.474Z</time></trkpt><trkpt lat="40.7571636" lon="17.3213748"><ele>382.0</ele><time>2026-05-02T16:11:42.474Z</time></trkpt><trkpt lat="40.7571413" lon="17.3215091"><ele>382.40000000000003</ele><time>2026-05-02T16:11:43.473Z</time></trkpt><trkpt lat="40.7571046" lon="17.3216332"><ele>382.8</ele><time>2026-05-02T16:11:44.473Z</time></trkpt><trkpt lat="40.7570746" lon="17.3217516"><ele>383.2</ele><time>2026-05-02T16:11:45.473Z</time></trkpt><trkpt lat="40.7570452" lon="17.3218716"><ele>383.6</ele><time>2026-05-02T16:11:46.474Z</time></trkpt><trkpt lat="40.7570166" lon="17.3219871"><ele>384.0</ele><time>2026-05-02T16:11:47.472Z</time></trkpt><trkpt lat="40.7569869" lon="17.3221169"><ele>384.0</ele><time>2026-05-02T16:11:48.473Z</time></trkpt><trkpt lat="40.7569553" lon="17.3222294"><ele>384.0</ele><time>2026-05-02T16:11:49.473Z</time></trkpt><trkpt lat="40.7569316" lon="17.3223402"><ele>384.0</ele><time>2026-05-02T16:11:50.474Z</time></trkpt><trkpt lat="40.7568992" lon="17.3224582"><ele>384.0</ele><time>2026-05-02T16:11:51.472Z</time></trkpt><trkpt lat="40.7568751" lon="17.3225694"><ele>384.0</ele><time>2026-05-02T16:11:52.474Z</time></trkpt><trkpt lat="40.7568469" lon="17.3226762"><ele>384.0</ele><time>2026-05-02T16:11:53.473Z</time></trkpt><trkpt lat="40.7568159" lon="17.3227719"><ele>384.0</ele><time>2026-05-02T16:11:54.472Z</time></trkpt><trkpt lat="40.7567972" lon="17.3228554"><ele>384.0</ele><time>2026-05-02T16:11:55.474Z</time></trkpt><trkpt lat="40.7567729" lon="17.3229732"><ele>384.0</ele><time>2026-05-02T16:11:57.472Z</time></trkpt><trkpt lat="40.7567387" lon="17.3231001"><ele>384.0</ele><time>2026-05-02T16:11:59.472Z</time></trkpt><trkpt lat="40.7566931" lon="17.3232432"><ele>384.0</ele><time>2026-05-02T16:12:01.473Z</time></trkpt><trkpt lat="40.7566599" lon="17.3233513"><ele>384.0</ele><time>2026-05-02T16:12:02.473Z</time></trkpt><trkpt lat="40.756627" lon="17.323451"><ele>384.0</ele><time>2026-05-02T16:12:03.472Z</time></trkpt><trkpt lat="40.7565981" lon="17.3235449"><ele>384.0</ele><time>2026-05-02T16:12:04.473Z</time></trkpt><trkpt lat="40.7565774" lon="17.3236314"><ele>384.0</ele><time>2026-05-02T16:12:05.473Z</time></trkpt><trkpt lat="40.7565592" lon="17.3237432"><ele>384.0</ele><time>2026-05-02T16:12:06.474Z</time></trkpt><trkpt lat="40.7565437" lon="17.3238405"><ele>384.0</ele><time>2026-05-02T16:12:07.473Z</time></trkpt><trkpt lat="40.7565189" lon="17.3239213"><ele>384.0</ele><time>2026-05-02T16:12:08.473Z</time></trkpt><trkpt lat="40.7565006" lon="17.3240111"><ele>384.0</ele><time>2026-05-02T16:12:09.473Z</time></trkpt><trkpt lat="40.7564761" lon="17.3240889"><ele>384.0</ele><time>2026-05-02T16:12:10.473Z</time></trkpt><trkpt lat="40.7564369" lon="17.3242386"><ele>384.0</ele><time>2026-05-02T16:12:12.473Z</time></trkpt><trkpt lat="40.756404" lon="17.3243594"><ele>384.0</ele><time>2026-05-02T16:12:14.473Z</time></trkpt><trkpt lat="40.7563791" lon="17.3244928"><ele>384.0</ele><time>2026-05-02T16:12:16.473Z</time></trkpt><trkpt lat="40.756327" lon="17.3246044"><ele>384.0</ele><time>2026-05-02T16:12:18.473Z</time></trkpt><trkpt lat="40.7562897" lon="17.3247324"><ele>384.0</ele><time>2026-05-02T16:12:20.473Z</time></trkpt><trkpt lat="40.7562574" lon="17.3248499"><ele>384.0</ele><time>2026-05-02T16:12:22.474Z</time></trkpt><trkpt lat="40.7562388" lon="17.3249499"><ele>384.0</ele><time>2026-05-02T16:12:24.474Z</time></trkpt><trkpt lat="40.7562146" lon="17.3250463"><ele>385.0</ele><time>2026-05-02T16:12:26.472Z</time></trkpt><trkpt lat="40.7561943" lon="17.3251487"><ele>386.0</ele><time>2026-05-02T16:12:28.474Z</time></trkpt><trkpt lat="40.7561858" lon="17.3252528"><ele>387.0</ele><time>2026-05-02T16:12:30.473Z</time></trkpt><trkpt lat="40.7561558" lon="17.3253728"><ele>388.0</ele><time>2026-05-02T16:12:32.473Z</time></trkpt><trkpt lat="40.7561352" lon="17.3254837"><ele>389.0</ele><time>2026-05-02T16:12:34.473Z</time></trkpt><trkpt lat="40.7561134" lon="17.325586"><ele>390.0</ele><time>2026-05-02T16:12:36.473Z</time></trkpt><trkpt lat="40.7560845" lon="17.3256677"><ele>390.3333333333333</ele><time>2026-05-02T16:12:38.474Z</time></trkpt><trkpt lat="40.7560695" lon="17.3257588"><ele>390.66666666666663</ele><time>2026-05-02T16:12:41.473Z</time></trkpt><trkpt lat="40.7560277" lon="17.3258764"><ele>391.0</ele><time>2026-05-02T16:13:23.473Z</time></trkpt><trkpt lat="40.7560076" lon="17.3259814"><ele>391.3333333333333</ele><time>2026-05-02T16:13:25.473Z</time></trkpt><trkpt lat="40.7559948" lon="17.3260971"><ele>391.66666666666663</ele><time>2026-05-02T16:13:27.473Z</time></trkpt><trkpt lat="40.7559616" lon="17.3262114"><ele>392.0</ele><time>2026-05-02T16:13:29.474Z</time></trkpt><trkpt lat="40.7558987" lon="17.3263069"><ele>392.20000000000005</ele><time>2026-05-02T16:13:31.473Z</time></trkpt><trkpt lat="40.7558344" lon="17.3263977"><ele>392.4</ele><time>2026-05-02T16:13:33.474Z</time></trkpt><trkpt lat="40.7557635" lon="17.3265176"><ele>392.6</ele><time>2026-05-02T16:13:35.473Z</time></trkpt><trkpt lat="40.7557199" lon="17.3266417"><ele>392.79999999999995</ele><time>2026-05-02T16:13:37.473Z</time></trkpt><trkpt lat="40.7556796" lon="17.3267699"><ele>393.0</ele><time>2026-05-02T16:13:39.474Z</time></trkpt><trkpt lat="40.7556343" lon="17.3268947"><ele>393.0</ele><time>2026-05-02T16:13:41.473Z</time></trkpt><trkpt lat="40.7555975" lon="17.3270043"><ele>393.0</ele><time>2026-05-02T16:13:43.473Z</time></trkpt><trkpt lat="40.7555906" lon="17.3271251"><ele>393.0</ele><time>2026-05-02T16:13:52.474Z</time></trkpt><trkpt lat="40.755558" lon="17.3272427"><ele>393.0</ele><time>2026-05-02T16:13:55.473Z</time></trkpt><trkpt lat="40.7554902" lon="17.3273141"><ele>393.0</ele><time>2026-05-02T16:13:56.474Z</time></trkpt><trkpt lat="40.7554279" lon="17.327446"><ele>392.42857142857144</ele><time>2026-05-02T16:13:58.472Z</time></trkpt><trkpt lat="40.7553853" lon="17.3275291"><ele>391.8571428571429</ele><time>2026-05-02T16:13:59.473Z</time></trkpt><trkpt lat="40.7553589" lon="17.3276135"><ele>391.28571428571433</ele><time>2026-05-02T16:14:00.473Z</time></trkpt><trkpt lat="40.7553147" lon="17.3276994"><ele>390.7142857142857</ele><time>2026-05-02T16:14:01.473Z</time></trkpt><trkpt lat="40.7552897" lon="17.3277866"><ele>390.1428571428571</ele><time>2026-05-02T16:14:02.473Z</time></trkpt><trkpt lat="40.7552385" lon="17.3278641"><ele>389.5714285714286</ele><time>2026-05-02T16:14:03.474Z</time></trkpt><trkpt lat="40.7552058" lon="17.3279439"><ele>389.0</ele><time>2026-05-02T16:14:04.472Z</time></trkpt><trkpt lat="40.7551746" lon="17.3280187"><ele>390.49999999999994</ele><time>2026-05-02T16:14:05.474Z</time></trkpt><trkpt lat="40.755129" lon="17.3281106"><ele>392.0</ele><time>2026-05-02T16:14:06.473Z</time></trkpt><trkpt lat="40.7550418" lon="17.3282423"><ele>393.5</ele><time>2026-05-02T16:14:08.473Z</time></trkpt><trkpt lat="40.7550118" lon="17.3283188"><ele>395.0</ele><time>2026-05-02T16:14:09.473Z</time></trkpt><trkpt lat="40.7549954" lon="17.3284306"><ele>396.49999999999994</ele><time>2026-05-02T16:14:10.474Z</time></trkpt><trkpt lat="40.7549832" lon="17.3285268"><ele>398.0</ele><time>2026-05-02T16:14:11.473Z</time></trkpt><trkpt lat="40.7549513" lon="17.3286263"><ele>397.99999999999994</ele><time>2026-05-02T16:14:12.474Z</time></trkpt><trkpt lat="40.7549537" lon="17.3287317"><ele>398.0</ele><time>2026-05-02T16:14:13.473Z</time></trkpt><trkpt lat="40.7548869" lon="17.3288017"><ele>398.0</ele><time>2026-05-02T16:14:14.472Z</time></trkpt><trkpt lat="40.7548682" lon="17.3288838"><ele>398.0</ele><time>2026-05-02T16:14:15.472Z</time></trkpt><trkpt lat="40.7548459" lon="17.3289645"><ele>397.99999999999994</ele><time>2026-05-02T16:14:16.473Z</time></trkpt><trkpt lat="40.7548123" lon="17.3290659"><ele>398.0</ele><time>2026-05-02T16:14:17.471Z</time></trkpt><trkpt lat="40.7547931" lon="17.3291772"><ele>397.3333333333333</ele><time>2026-05-02T16:14:18.472Z</time></trkpt><trkpt lat="40.7547856" lon="17.3292886"><ele>396.66666666666663</ele><time>2026-05-02T16:14:19.472Z</time></trkpt><trkpt lat="40.7547575" lon="17.3293874"><ele>396.0</ele><time>2026-05-02T16:14:20.473Z</time></trkpt><trkpt lat="40.7547304" lon="17.3294849"><ele>395.33333333333337</ele><time>2026-05-02T16:14:21.473Z</time></trkpt><trkpt lat="40.7547024" lon="17.3295901"><ele>394.6666666666667</ele><time>2026-05-02T16:14:22.472Z</time></trkpt><trkpt lat="40.7546781" lon="17.3296962"><ele>394.0</ele><time>2026-05-02T16:14:23.472Z</time></trkpt><trkpt lat="40.7546494" lon="17.3298022"><ele>393.1666666666667</ele><time>2026-05-02T16:14:24.473Z</time></trkpt><trkpt lat="40.7546245" lon="17.3299144"><ele>392.33333333333337</ele><time>2026-05-02T16:14:25.472Z</time></trkpt><trkpt lat="40.754598" lon="17.3300356"><ele>391.5</ele><time>2026-05-02T16:14:26.472Z</time></trkpt><trkpt lat="40.7545761" lon="17.33015"><ele>390.66666666666663</ele><time>2026-05-02T16:14:27.473Z</time></trkpt><trkpt lat="40.7545552" lon="17.3302597"><ele>389.8333333333333</ele><time>2026-05-02T16:14:28.471Z</time></trkpt><trkpt lat="40.7545295" lon="17.330372"><ele>389.0</ele><time>2026-05-02T16:14:29.472Z</time></trkpt><trkpt lat="40.7545136" lon="17.3304803"><ele>389.16666666666663</ele><time>2026-05-02T16:14:30.472Z</time></trkpt><trkpt lat="40.7544835" lon="17.3305861"><ele>389.3333333333333</ele><time>2026-05-02T16:14:31.473Z</time></trkpt><trkpt lat="40.7544599" lon="17.3306931"><ele>389.5</ele><time>2026-05-02T16:14:32.472Z</time></trkpt><trkpt lat="40.7544376" lon="17.3308018"><ele>389.66666666666663</ele><time>2026-05-02T16:14:33.473Z</time></trkpt><trkpt lat="40.754417" lon="17.3309035"><ele>389.8333333333333</ele><time>2026-05-02T16:14:34.472Z</time></trkpt><trkpt lat="40.7543922" lon="17.3310028"><ele>390.0</ele><time>2026-05-02T16:14:35.472Z</time></trkpt><trkpt lat="40.7543716" lon="17.3311028"><ele>390.5</ele><time>2026-05-02T16:14:36.472Z</time></trkpt><trkpt lat="40.7543539" lon="17.3312068"><ele>391.0</ele><time>2026-05-02T16:14:37.471Z</time></trkpt><trkpt lat="40.7543284" lon="17.3313037"><ele>391.5</ele><time>2026-05-02T16:14:38.472Z</time></trkpt><trkpt lat="40.754306" lon="17.3314056"><ele>392.0</ele><time>2026-05-02T16:14:39.473Z</time></trkpt><trkpt lat="40.7542857" lon="17.3315111"><ele>392.5</ele><time>2026-05-02T16:14:40.471Z</time></trkpt><trkpt lat="40.7542592" lon="17.3316043"><ele>393.0</ele><time>2026-05-02T16:14:41.472Z</time></trkpt><trkpt lat="40.7542364" lon="17.3317151"><ele>393.0</ele><time>2026-05-02T16:14:42.472Z</time></trkpt><trkpt lat="40.7541983" lon="17.3318021"><ele>393.0</ele><time>2026-05-02T16:14:43.471Z</time></trkpt><trkpt lat="40.7541765" lon="17.3319085"><ele>393.0</ele><time>2026-05-02T16:14:44.473Z</time></trkpt><trkpt lat="40.7541515" lon="17.3320107"><ele>393.0</ele><time>2026-05-02T16:14:45.471Z</time></trkpt><trkpt lat="40.7541174" lon="17.332113"><ele>393.0</ele><time>2026-05-02T16:14:46.473Z</time></trkpt><trkpt lat="40.7540876" lon="17.3322303"><ele>393.0</ele><time>2026-05-02T16:14:47.473Z</time></trkpt><trkpt lat="40.75407" lon="17.3323447"><ele>392.4</ele><time>2026-05-02T16:14:48.472Z</time></trkpt><trkpt lat="40.7540425" lon="17.3324649"><ele>391.79999999999995</ele><time>2026-05-02T16:14:49.472Z</time></trkpt><trkpt lat="40.7540159" lon="17.3325812"><ele>391.2</ele><time>2026-05-02T16:14:50.473Z</time></trkpt><trkpt lat="40.7539887" lon="17.3326996"><ele>390.6</ele><time>2026-05-02T16:14:51.472Z</time></trkpt><trkpt lat="40.7539566" lon="17.332811"><ele>390.0</ele><time>2026-05-02T16:14:52.472Z</time></trkpt><trkpt lat="40.7539301" lon="17.332913"><ele>390.0</ele><time>2026-05-02T16:14:53.472Z</time></trkpt><trkpt lat="40.753911" lon="17.3330273"><ele>390.0</ele><time>2026-05-02T16:14:54.473Z</time></trkpt><trkpt lat="40.7538891" lon="17.3331328"><ele>390.0</ele><time>2026-05-02T16:14:55.472Z</time></trkpt><trkpt lat="40.7538751" lon="17.3332401"><ele>390.0</ele><time>2026-05-02T16:14:56.473Z</time></trkpt><trkpt lat="40.7538496" lon="17.3333559"><ele>390.0</ele><time>2026-05-02T16:14:57.471Z</time></trkpt><trkpt lat="40.7538255" lon="17.3334756"><ele>390.0</ele><time>2026-05-02T16:14:58.472Z</time></trkpt><trkpt lat="40.7537936" lon="17.3335965"><ele>389.2</ele><time>2026-05-02T16:14:59.471Z</time></trkpt><trkpt lat="40.7537736" lon="17.3337241"><ele>388.4</ele><time>2026-05-02T16:15:00.472Z</time></trkpt><trkpt lat="40.7537458" lon="17.3338515"><ele>387.6</ele><time>2026-05-02T16:15:01.472Z</time></trkpt><trkpt lat="40.7537172" lon="17.3339846"><ele>386.8</ele><time>2026-05-02T16:15:02.472Z</time></trkpt><trkpt lat="40.7536895" lon="17.3341156"><ele>386.0</ele><time>2026-05-02T16:15:03.472Z</time></trkpt><trkpt lat="40.7536583" lon="17.3342496"><ele>385.4</ele><time>2026-05-02T16:15:04.472Z</time></trkpt><trkpt lat="40.7536298" lon="17.3343824"><ele>384.8</ele><time>2026-05-02T16:15:05.471Z</time></trkpt><trkpt lat="40.7536025" lon="17.3345101"><ele>384.2</ele><time>2026-05-02T16:15:06.472Z</time></trkpt><trkpt lat="40.7535865" lon="17.33465"><ele>383.59999999999997</ele><time>2026-05-02T16:15:07.471Z</time></trkpt><trkpt lat="40.7535581" lon="17.3347866"><ele>383.0</ele><time>2026-05-02T16:15:08.472Z</time></trkpt><trkpt lat="40.7535333" lon="17.3349235"><ele>383.0</ele><time>2026-05-02T16:15:09.473Z</time></trkpt><trkpt lat="40.7535174" lon="17.3350644"><ele>383.0</ele><time>2026-05-02T16:15:10.472Z</time></trkpt><trkpt lat="40.7534981" lon="17.3353504"><ele>383.0</ele><time>2026-05-02T16:15:12.471Z</time></trkpt><trkpt lat="40.753497" lon="17.3355064"><ele>383.0</ele><time>2026-05-02T16:15:13.472Z</time></trkpt><trkpt lat="40.7535009" lon="17.3356625"><ele>383.0</ele><time>2026-05-02T16:15:14.472Z</time></trkpt><trkpt lat="40.7535012" lon="17.335814"><ele>383.0</ele><time>2026-05-02T16:15:15.472Z</time></trkpt><trkpt lat="40.7535015" lon="17.3359662"><ele>383.0</ele><time>2026-05-02T16:15:16.472Z</time></trkpt><trkpt lat="40.7534948" lon="17.3361269"><ele>383.0</ele><time>2026-05-02T16:15:17.473Z</time></trkpt><trkpt lat="40.7534999" lon="17.3362867"><ele>382.75</ele><time>2026-05-02T16:15:18.473Z</time></trkpt><trkpt lat="40.7535002" lon="17.3364383"><ele>382.5</ele><time>2026-05-02T16:15:19.471Z</time></trkpt><trkpt lat="40.7535108" lon="17.3366251"><ele>382.25</ele><time>2026-05-02T16:15:20.472Z</time></trkpt><trkpt lat="40.7535109" lon="17.3367871"><ele>382.0</ele><time>2026-05-02T16:15:21.471Z</time></trkpt><trkpt lat="40.7535071" lon="17.3369449"><ele>382.0</ele><time>2026-05-02T16:15:22.472Z</time></trkpt><trkpt lat="40.7534877" lon="17.3371171"><ele>382.0</ele><time>2026-05-02T16:15:23.471Z</time></trkpt><trkpt lat="40.7534583" lon="17.3372768"><ele>382.0</ele><time>2026-05-02T16:15:24.471Z</time></trkpt><trkpt lat="40.7534145" lon="17.3374422"><ele>382.0</ele><time>2026-05-02T16:15:25.472Z</time></trkpt><trkpt lat="40.753357" lon="17.3375926"><ele>381.25</ele><time>2026-05-02T16:15:26.472Z</time></trkpt><trkpt lat="40.7532956" lon="17.3377446"><ele>380.5</ele><time>2026-05-02T16:15:27.471Z</time></trkpt><trkpt lat="40.7532159" lon="17.3378861"><ele>379.75</ele><time>2026-05-02T16:15:28.471Z</time></trkpt><trkpt lat="40.7531411" lon="17.3380277"><ele>379.0</ele><time>2026-05-02T16:15:29.473Z</time></trkpt><trkpt lat="40.7530668" lon="17.3381736"><ele>378.5</ele><time>2026-05-02T16:15:30.472Z</time></trkpt><trkpt lat="40.7529967" lon="17.3383217"><ele>378.0</ele><time>2026-05-02T16:15:31.472Z</time></trkpt><trkpt lat="40.7529299" lon="17.3384728"><ele>377.5</ele><time>2026-05-02T16:15:32.472Z</time></trkpt><trkpt lat="40.7528682" lon="17.3386317"><ele>377.0</ele><time>2026-05-02T16:15:33.473Z</time></trkpt><trkpt lat="40.7528156" lon="17.3387926"><ele>376.5</ele><time>2026-05-02T16:15:34.473Z</time></trkpt><trkpt lat="40.7527693" lon="17.3389601"><ele>376.0</ele><time>2026-05-02T16:15:35.472Z</time></trkpt><trkpt lat="40.7527368" lon="17.3391301"><ele>375.5</ele><time>2026-05-02T16:15:36.472Z</time></trkpt><trkpt lat="40.7527214" lon="17.3393056"><ele>375.0</ele><time>2026-05-02T16:15:37.471Z</time></trkpt><trkpt lat="40.7527178" lon="17.3394827"><ele>375.0</ele><time>2026-05-02T16:15:38.472Z</time></trkpt><trkpt lat="40.752712" lon="17.3396645"><ele>375.0</ele><time>2026-05-02T16:15:39.472Z</time></trkpt><trkpt lat="40.7527088" lon="17.3398301"><ele>375.0</ele><time>2026-05-02T16:15:40.472Z</time></trkpt><trkpt lat="40.7527351" lon="17.3400107"><ele>375.0</ele><time>2026-05-02T16:15:41.472Z</time></trkpt><trkpt lat="40.7527943" lon="17.3401726"><ele>375.0</ele><time>2026-05-02T16:15:42.471Z</time></trkpt><trkpt lat="40.7528323" lon="17.3403402"><ele>375.0</ele><time>2026-05-02T16:15:43.472Z</time></trkpt><trkpt lat="40.7528695" lon="17.3405049"><ele>375.0</ele><time>2026-05-02T16:15:44.472Z</time></trkpt><trkpt lat="40.7529135" lon="17.3406684"><ele>375.0</ele><time>2026-05-02T16:15:45.472Z</time></trkpt><trkpt lat="40.75296" lon="17.3408348"><ele>375.0</ele><time>2026-05-02T16:15:46.472Z</time></trkpt><trkpt lat="40.7530128" lon="17.3409919"><ele>375.0</ele><time>2026-05-02T16:15:47.472Z</time></trkpt><trkpt lat="40.7530658" lon="17.3411488"><ele>375.0</ele><time>2026-05-02T16:15:48.473Z</time></trkpt><trkpt lat="40.7531206" lon="17.3412999"><ele>375.0</ele><time>2026-05-02T16:15:49.472Z</time></trkpt><trkpt lat="40.7531801" lon="17.3414432"><ele>375.25</ele><time>2026-05-02T16:15:50.473Z</time></trkpt><trkpt lat="40.7532522" lon="17.3415805"><ele>375.5</ele><time>2026-05-02T16:15:51.471Z</time></trkpt><trkpt lat="40.7533214" lon="17.3417079"><ele>375.75</ele><time>2026-05-02T16:15:52.471Z</time></trkpt><trkpt lat="40.7534179" lon="17.3418139"><ele>376.0</ele><time>2026-05-02T16:15:53.472Z</time></trkpt><trkpt lat="40.7535123" lon="17.3419258"><ele>374.75</ele><time>2026-05-02T16:15:54.471Z</time></trkpt><trkpt lat="40.7536234" lon="17.342002"><ele>373.5</ele><time>2026-05-02T16:15:55.471Z</time></trkpt><trkpt lat="40.7537539" lon="17.3420307"><ele>372.25</ele><time>2026-05-02T16:15:56.473Z</time></trkpt><trkpt lat="40.7538717" lon="17.3420756"><ele>371.0</ele><time>2026-05-02T16:15:57.472Z</time></trkpt><trkpt lat="40.753979" lon="17.3421148"><ele>371.0</ele><time>2026-05-02T16:15:58.472Z</time></trkpt><trkpt lat="40.7540876" lon="17.3421557"><ele>371.0</ele><time>2026-05-02T16:15:59.471Z</time></trkpt><trkpt lat="40.7541791" lon="17.3422212"><ele>371.0</ele><time>2026-05-02T16:16:00.472Z</time></trkpt><trkpt lat="40.7542646" lon="17.3423049"><ele>371.0</ele><time>2026-05-02T16:16:01.472Z</time></trkpt><trkpt lat="40.7543384" lon="17.3424015"><ele>371.0</ele><time>2026-05-02T16:16:02.471Z</time></trkpt><trkpt lat="40.7543955" lon="17.3425121"><ele>371.20000000000005</ele><time>2026-05-02T16:16:03.473Z</time></trkpt><trkpt lat="40.7544363" lon="17.3426344"><ele>371.40000000000003</ele><time>2026-05-02T16:16:04.472Z</time></trkpt><trkpt lat="40.7544608" lon="17.3427647"><ele>371.6</ele><time>2026-05-02T16:16:05.472Z</time></trkpt><trkpt lat="40.7544772" lon="17.3429013"><ele>371.8</ele><time>2026-05-02T16:16:06.473Z</time></trkpt><trkpt lat="40.7544825" lon="17.3430409"><ele>372.0</ele><time>2026-05-02T16:16:07.473Z</time></trkpt><trkpt lat="40.7544845" lon="17.3431682"><ele>371.40000000000003</ele><time>2026-05-02T16:16:08.472Z</time></trkpt><trkpt lat="40.7544795" lon="17.3432775"><ele>370.8</ele><time>2026-05-02T16:16:09.471Z</time></trkpt><trkpt lat="40.7544709" lon="17.3433789"><ele>370.2</ele><time>2026-05-02T16:16:10.473Z</time></trkpt><trkpt lat="40.7544591" lon="17.3434615"><ele>369.6</ele><time>2026-05-02T16:16:11.471Z</time></trkpt><trkpt lat="40.7544363" lon="17.3436232"><ele>369.0</ele><time>2026-05-02T16:16:13.472Z</time></trkpt><trkpt lat="40.7544023" lon="17.3437874"><ele>369.0</ele><time>2026-05-02T16:16:15.472Z</time></trkpt><trkpt lat="40.7543785" lon="17.3438708"><ele>369.0</ele><time>2026-05-02T16:16:16.472Z</time></trkpt><trkpt lat="40.7543539" lon="17.3439493"><ele>369.0</ele><time>2026-05-02T16:16:17.472Z</time></trkpt><trkpt lat="40.7543351" lon="17.3440361"><ele>369.0</ele><time>2026-05-02T16:16:18.473Z</time></trkpt><trkpt lat="40.7543191" lon="17.3441213"><ele>369.0</ele><time>2026-05-02T16:16:19.472Z</time></trkpt><trkpt lat="40.7543017" lon="17.3442141"><ele>369.0</ele><time>2026-05-02T16:16:20.473Z</time></trkpt><trkpt lat="40.7542781" lon="17.3443037"><ele>369.0</ele><time>2026-05-02T16:16:21.472Z</time></trkpt><trkpt lat="40.7542378" lon="17.3443938"><ele>369.2</ele><time>2026-05-02T16:16:22.472Z</time></trkpt><trkpt lat="40.7541866" lon="17.3444804"><ele>369.4</ele><time>2026-05-02T16:16:23.471Z</time></trkpt><trkpt lat="40.7541241" lon="17.3445637"><ele>369.6</ele><time>2026-05-02T16:16:24.471Z</time></trkpt><trkpt lat="40.7540495" lon="17.3446394"><ele>369.8</ele><time>2026-05-02T16:16:25.472Z</time></trkpt><trkpt lat="40.7539706" lon="17.3447152"><ele>370.0</ele><time>2026-05-02T16:16:26.471Z</time></trkpt><trkpt lat="40.7538858" lon="17.3447773"><ele>370.0</ele><time>2026-05-02T16:16:27.473Z</time></trkpt><trkpt lat="40.7537916" lon="17.3448295"><ele>370.0</ele><time>2026-05-02T16:16:28.472Z</time></trkpt><trkpt lat="40.753697" lon="17.3448873"><ele>370.0</ele><time>2026-05-02T16:16:29.472Z</time></trkpt><trkpt lat="40.7535958" lon="17.3449448"><ele>370.0</ele><time>2026-05-02T16:16:30.473Z</time></trkpt><trkpt lat="40.753501" lon="17.345013"><ele>370.0</ele><time>2026-05-02T16:16:31.471Z</time></trkpt><trkpt lat="40.7534035" lon="17.3450943"><ele>368.75</ele><time>2026-05-02T16:16:32.472Z</time></trkpt><trkpt lat="40.7533145" lon="17.3451834"><ele>367.5</ele><time>2026-05-02T16:16:33.471Z</time></trkpt><trkpt lat="40.7532221" lon="17.3452785"><ele>366.25</ele><time>2026-05-02T16:16:34.471Z</time></trkpt><trkpt lat="40.7531294" lon="17.3453764"><ele>365.0</ele><time>2026-05-02T16:16:35.473Z</time></trkpt><trkpt lat="40.7530319" lon="17.3454671"><ele>364.5</ele><time>2026-05-02T16:16:36.471Z</time></trkpt><trkpt lat="40.7529274" lon="17.3455494"><ele>364.0</ele><time>2026-05-02T16:16:37.472Z</time></trkpt><trkpt lat="40.752823" lon="17.3456254"><ele>363.5</ele><time>2026-05-02T16:16:38.473Z</time></trkpt><trkpt lat="40.7527156" lon="17.3456997"><ele>363.0</ele><time>2026-05-02T16:16:39.472Z</time></trkpt><trkpt lat="40.752608" lon="17.3457701"><ele>363.0</ele><time>2026-05-02T16:16:40.471Z</time></trkpt><trkpt lat="40.7525042" lon="17.3458376"><ele>363.0</ele><time>2026-05-02T16:16:41.471Z</time></trkpt><trkpt lat="40.7524071" lon="17.3459149"><ele>363.0</ele><time>2026-05-02T16:16:42.471Z</time></trkpt><trkpt lat="40.7523191" lon="17.3460053"><ele>363.0</ele><time>2026-05-02T16:16:43.473Z</time></trkpt><trkpt lat="40.7522432" lon="17.3461055"><ele>363.0</ele><time>2026-05-02T16:16:44.472Z</time></trkpt><trkpt lat="40.7521865" lon="17.3462214"><ele>363.0</ele><time>2026-05-02T16:16:45.472Z</time></trkpt><trkpt lat="40.7521444" lon="17.3463574"><ele>363.0</ele><time>2026-05-02T16:16:46.472Z</time></trkpt><trkpt lat="40.7521322" lon="17.3465021"><ele>363.0</ele><time>2026-05-02T16:16:47.472Z</time></trkpt><trkpt lat="40.7521326" lon="17.3466543"><ele>363.0</ele><time>2026-05-02T16:16:48.472Z</time></trkpt><trkpt lat="40.7521404" lon="17.3468179"><ele>364.5</ele><time>2026-05-02T16:16:49.473Z</time></trkpt><trkpt lat="40.7521544" lon="17.3469879"><ele>366.0</ele><time>2026-05-02T16:16:50.471Z</time></trkpt><trkpt lat="40.7521674" lon="17.3471629"><ele>367.5</ele><time>2026-05-02T16:16:51.471Z</time></trkpt><trkpt lat="40.7521817" lon="17.3473406"><ele>369.0</ele><time>2026-05-02T16:16:52.472Z</time></trkpt><trkpt lat="40.7522001" lon="17.3475258"><ele>369.25</ele><time>2026-05-02T16:16:53.471Z</time></trkpt><trkpt lat="40.7522101" lon="17.3477118"><ele>369.5</ele><time>2026-05-02T16:16:54.472Z</time></trkpt><trkpt lat="40.7522205" lon="17.3478953"><ele>369.75</ele><time>2026-05-02T16:16:55.472Z</time></trkpt><trkpt lat="40.7522349" lon="17.3480837"><ele>370.0</ele><time>2026-05-02T16:16:56.471Z</time></trkpt><trkpt lat="40.752246" lon="17.3482701"><ele>368.75</ele><time>2026-05-02T16:16:57.473Z</time></trkpt><trkpt lat="40.7522548" lon="17.3484556"><ele>367.5</ele><time>2026-05-02T16:16:58.472Z</time></trkpt><trkpt lat="40.7522663" lon="17.3486407"><ele>366.25</ele><time>2026-05-02T16:16:59.472Z</time></trkpt><trkpt lat="40.7522792" lon="17.348819"><ele>365.0</ele><time>2026-05-02T16:17:00.473Z</time></trkpt><trkpt lat="40.7522878" lon="17.3489923"><ele>364.25</ele><time>2026-05-02T16:17:01.471Z</time></trkpt><trkpt lat="40.7522959" lon="17.3491645"><ele>363.5</ele><time>2026-05-02T16:17:02.471Z</time></trkpt><trkpt lat="40.7523055" lon="17.34934"><ele>362.75</ele><time>2026-05-02T16:17:03.473Z</time></trkpt><trkpt lat="40.7523205" lon="17.349518"><ele>362.0</ele><time>2026-05-02T16:17:04.473Z</time></trkpt><trkpt lat="40.7523355" lon="17.3496905"><ele>362.0</ele><time>2026-05-02T16:17:05.472Z</time></trkpt><trkpt lat="40.7523531" lon="17.3498653"><ele>362.0</ele><time>2026-05-02T16:17:06.472Z</time></trkpt><trkpt lat="40.752371" lon="17.3500445"><ele>362.0</ele><time>2026-05-02T16:17:07.472Z</time></trkpt><trkpt lat="40.7523944" lon="17.350225"><ele>362.0</ele><time>2026-05-02T16:17:08.472Z</time></trkpt><trkpt lat="40.7524165" lon="17.3504014"><ele>361.25</ele><time>2026-05-02T16:17:09.473Z</time></trkpt><trkpt lat="40.7524368" lon="17.3505793"><ele>360.5</ele><time>2026-05-02T16:17:10.472Z</time></trkpt><trkpt lat="40.7524553" lon="17.350765"><ele>359.75</ele><time>2026-05-02T16:17:11.472Z</time></trkpt><trkpt lat="40.7524737" lon="17.3509484"><ele>359.0</ele><time>2026-05-02T16:17:12.472Z</time></trkpt><trkpt lat="40.7524886" lon="17.3511311"><ele>359.0</ele><time>2026-05-02T16:17:13.473Z</time></trkpt><trkpt lat="40.7525033" lon="17.3513214"><ele>359.0</ele><time>2026-05-02T16:17:14.472Z</time></trkpt><trkpt lat="40.7525216" lon="17.3515068"><ele>359.0</ele><time>2026-05-02T16:17:15.472Z</time></trkpt><trkpt lat="40.7525415" lon="17.3516883"><ele>359.0</ele><time>2026-05-02T16:17:16.471Z</time></trkpt><trkpt lat="40.7525664" lon="17.3518659"><ele>358.0</ele><time>2026-05-02T16:17:17.472Z</time></trkpt><trkpt lat="40.7526104" lon="17.3520386"><ele>357.0</ele><time>2026-05-02T16:17:18.471Z</time></trkpt><trkpt lat="40.7526626" lon="17.3522075"><ele>356.0</ele><time>2026-05-02T16:17:19.471Z</time></trkpt><trkpt lat="40.7527159" lon="17.3523768"><ele>355.0</ele><time>2026-05-02T16:17:20.472Z</time></trkpt><trkpt lat="40.7527642" lon="17.3525363"><ele>356.5</ele><time>2026-05-02T16:17:21.473Z</time></trkpt><trkpt lat="40.7528051" lon="17.3527081"><ele>358.0</ele><time>2026-05-02T16:17:22.472Z</time></trkpt><trkpt lat="40.7528399" lon="17.3528823"><ele>359.5</ele><time>2026-05-02T16:17:23.472Z</time></trkpt><trkpt lat="40.752874" lon="17.3530617"><ele>361.0</ele><time>2026-05-02T16:17:24.47Z</time></trkpt><trkpt lat="40.7528899" lon="17.3532356"><ele>361.0</ele><time>2026-05-02T16:17:25.471Z</time></trkpt><trkpt lat="40.752907" lon="17.3534235"><ele>361.0</ele><time>2026-05-02T16:17:26.471Z</time></trkpt><trkpt lat="40.7529172" lon="17.3536123"><ele>361.0</ele><time>2026-05-02T16:17:27.472Z</time></trkpt><trkpt lat="40.7529321" lon="17.3537988"><ele>361.0</ele><time>2026-05-02T16:17:28.471Z</time></trkpt><trkpt lat="40.7529488" lon="17.3539963"><ele>358.66666666666663</ele><time>2026-05-02T16:17:29.471Z</time></trkpt><trkpt lat="40.7529639" lon="17.3541994"><ele>356.3333333333333</ele><time>2026-05-02T16:17:30.471Z</time></trkpt><trkpt lat="40.7529781" lon="17.3544051"><ele>354.0</ele><time>2026-05-02T16:17:31.471Z</time></trkpt><trkpt lat="40.7529919" lon="17.3546137"><ele>353.0</ele><time>2026-05-02T16:17:32.472Z</time></trkpt><trkpt lat="40.7530098" lon="17.3548246"><ele>352.0</ele><time>2026-05-02T16:17:33.471Z</time></trkpt><trkpt lat="40.7530265" lon="17.3550361"><ele>351.0</ele><time>2026-05-02T16:17:34.471Z</time></trkpt><trkpt lat="40.7530403" lon="17.355255"><ele>351.0</ele><time>2026-05-02T16:17:35.472Z</time></trkpt><trkpt lat="40.7530623" lon="17.3554701"><ele>351.0</ele><time>2026-05-02T16:17:36.471Z</time></trkpt><trkpt lat="40.7530776" lon="17.3556821"><ele>351.0</ele><time>2026-05-02T16:17:37.471Z</time></trkpt><trkpt lat="40.7530934" lon="17.3558951"><ele>350.0</ele><time>2026-05-02T16:17:38.471Z</time></trkpt><trkpt lat="40.7531111" lon="17.3561049"><ele>349.0</ele><time>2026-05-02T16:17:39.471Z</time></trkpt><trkpt lat="40.7531274" lon="17.3563147"><ele>348.0</ele><time>2026-05-02T16:17:40.471Z</time></trkpt><trkpt lat="40.7531436" lon="17.3565241"><ele>347.0</ele><time>2026-05-02T16:17:41.471Z</time></trkpt><trkpt lat="40.7531621" lon="17.3567307"><ele>346.0</ele><time>2026-05-02T16:17:42.471Z</time></trkpt><trkpt lat="40.75318" lon="17.3569347"><ele>345.0</ele><time>2026-05-02T16:17:43.471Z</time></trkpt><trkpt lat="40.7531943" lon="17.3571408"><ele>344.6666666666667</ele><time>2026-05-02T16:17:44.472Z</time></trkpt><trkpt lat="40.7532069" lon="17.3573419"><ele>344.33333333333337</ele><time>2026-05-02T16:17:45.472Z</time></trkpt><trkpt lat="40.7532226" lon="17.3575444"><ele>344.0</ele><time>2026-05-02T16:17:46.471Z</time></trkpt><trkpt lat="40.753239" lon="17.3577448"><ele>344.0</ele><time>2026-05-02T16:17:47.47Z</time></trkpt><trkpt lat="40.7532556" lon="17.3579428"><ele>344.0</ele><time>2026-05-02T16:17:48.472Z</time></trkpt><trkpt lat="40.753271" lon="17.3581387"><ele>344.0</ele><time>2026-05-02T16:17:49.472Z</time></trkpt><trkpt lat="40.7532843" lon="17.3583334"><ele>344.0</ele><time>2026-05-02T16:17:50.471Z</time></trkpt><trkpt lat="40.7532996" lon="17.3585253"><ele>343.5</ele><time>2026-05-02T16:17:51.471Z</time></trkpt><trkpt lat="40.753313" lon="17.3587195"><ele>343.0</ele><time>2026-05-02T16:17:52.47Z</time></trkpt><trkpt lat="40.7533304" lon="17.3589075"><ele>342.5</ele><time>2026-05-02T16:17:53.471Z</time></trkpt><trkpt lat="40.753346" lon="17.3590991"><ele>342.0</ele><time>2026-05-02T16:17:54.471Z</time></trkpt><trkpt lat="40.7533646" lon="17.3592882"><ele>342.0</ele><time>2026-05-02T16:17:55.472Z</time></trkpt><trkpt lat="40.75338" lon="17.3594741"><ele>342.0</ele><time>2026-05-02T16:17:56.471Z</time></trkpt><trkpt lat="40.7533953" lon="17.3596603"><ele>342.0</ele><time>2026-05-02T16:17:57.471Z</time></trkpt><trkpt lat="40.7534111" lon="17.3598436"><ele>342.0</ele><time>2026-05-02T16:17:58.471Z</time></trkpt><trkpt lat="40.7534245" lon="17.3600321"><ele>342.0</ele><time>2026-05-02T16:17:59.47Z</time></trkpt><trkpt lat="40.7534353" lon="17.3602172"><ele>342.0</ele><time>2026-05-02T16:18:00.471Z</time></trkpt><trkpt lat="40.7534416" lon="17.3604004"><ele>342.0</ele><time>2026-05-02T16:18:01.471Z</time></trkpt><trkpt lat="40.7534471" lon="17.3605846"><ele>342.0</ele><time>2026-05-02T16:18:02.471Z</time></trkpt><trkpt lat="40.7534507" lon="17.3607664"><ele>341.75</ele><time>2026-05-02T16:18:03.47Z</time></trkpt><trkpt lat="40.753459" lon="17.3609501"><ele>341.5</ele><time>2026-05-02T16:18:04.472Z</time></trkpt><trkpt lat="40.7534658" lon="17.3611357"><ele>341.25</ele><time>2026-05-02T16:18:05.472Z</time></trkpt><trkpt lat="40.7534706" lon="17.3613218"><ele>341.0</ele><time>2026-05-02T16:18:06.471Z</time></trkpt><trkpt lat="40.7534792" lon="17.3615089"><ele>340.5</ele><time>2026-05-02T16:18:07.47Z</time></trkpt><trkpt lat="40.7534845" lon="17.3616993"><ele>340.0</ele><time>2026-05-02T16:18:08.471Z</time></trkpt><trkpt lat="40.7534968" lon="17.3618852"><ele>339.5</ele><time>2026-05-02T16:18:09.471Z</time></trkpt><trkpt lat="40.7535116" lon="17.3620669"><ele>339.0</ele><time>2026-05-02T16:18:10.472Z</time></trkpt><trkpt lat="40.7535359" lon="17.36225"><ele>338.75</ele><time>2026-05-02T16:18:11.471Z</time></trkpt><trkpt lat="40.753568" lon="17.362432"><ele>338.5</ele><time>2026-05-02T16:18:12.471Z</time></trkpt><trkpt lat="40.7536017" lon="17.3626095"><ele>338.25</ele><time>2026-05-02T16:18:13.472Z</time></trkpt><trkpt lat="40.7536406" lon="17.3627943"><ele>338.0</ele><time>2026-05-02T16:18:14.47Z</time></trkpt><trkpt lat="40.7536721" lon="17.3629744"><ele>337.5</ele><time>2026-05-02T16:18:15.47Z</time></trkpt><trkpt lat="40.7536984" lon="17.3631535"><ele>337.0</ele><time>2026-05-02T16:18:16.471Z</time></trkpt><trkpt lat="40.7537109" lon="17.3633384"><ele>336.5</ele><time>2026-05-02T16:18:17.471Z</time></trkpt><trkpt lat="40.7537172" lon="17.36353"><ele>336.0</ele><time>2026-05-02T16:18:18.47Z</time></trkpt><trkpt lat="40.7537117" lon="17.3637145"><ele>335.75</ele><time>2026-05-02T16:18:19.47Z</time></trkpt><trkpt lat="40.7537035" lon="17.3639025"><ele>335.5</ele><time>2026-05-02T16:18:20.47Z</time></trkpt><trkpt lat="40.7536952" lon="17.3640958"><ele>335.25</ele><time>2026-05-02T16:18:21.47Z</time></trkpt><trkpt lat="40.7536847" lon="17.3642886"><ele>335.0</ele><time>2026-05-02T16:18:22.472Z</time></trkpt><trkpt lat="40.7536788" lon="17.3644766"><ele>335.0</ele><time>2026-05-02T16:18:23.471Z</time></trkpt><trkpt lat="40.7536706" lon="17.3646679"><ele>335.0</ele><time>2026-05-02T16:18:24.471Z</time></trkpt><trkpt lat="40.7536631" lon="17.3648637"><ele>335.0</ele><time>2026-05-02T16:18:25.471Z</time></trkpt><trkpt lat="40.7536548" lon="17.365057"><ele>335.0</ele><time>2026-05-02T16:18:26.471Z</time></trkpt><trkpt lat="40.7536489" lon="17.3652532"><ele>335.0</ele><time>2026-05-02T16:18:27.472Z</time></trkpt><trkpt lat="40.7536436" lon="17.3654504"><ele>335.0</ele><time>2026-05-02T16:18:28.471Z</time></trkpt><trkpt lat="40.7536389" lon="17.3656466"><ele>335.0</ele><time>2026-05-02T16:18:29.471Z</time></trkpt><trkpt lat="40.753639" lon="17.3658405"><ele>335.0</ele><time>2026-05-02T16:18:30.47Z</time></trkpt><trkpt lat="40.7536298" lon="17.3660361"><ele>334.75</ele><time>2026-05-02T16:18:31.47Z</time></trkpt><trkpt lat="40.753608" lon="17.3662261"><ele>334.5</ele><time>2026-05-02T16:18:32.47Z</time></trkpt><trkpt lat="40.7535756" lon="17.3664082"><ele>334.25</ele><time>2026-05-02T16:18:33.471Z</time></trkpt><trkpt lat="40.7535258" lon="17.3665809"><ele>334.0</ele><time>2026-05-02T16:18:34.471Z</time></trkpt><trkpt lat="40.7534542" lon="17.3667421"><ele>334.0</ele><time>2026-05-02T16:18:35.472Z</time></trkpt><trkpt lat="40.7533642" lon="17.3668895"><ele>334.0</ele><time>2026-05-02T16:18:36.471Z</time></trkpt><trkpt lat="40.7532752" lon="17.3670391"><ele>334.0</ele><time>2026-05-02T16:18:37.472Z</time></trkpt><trkpt lat="40.7531756" lon="17.3671852"><ele>334.0</ele><time>2026-05-02T16:18:38.472Z</time></trkpt><trkpt lat="40.7530759" lon="17.3673297"><ele>336.0</ele><time>2026-05-02T16:18:39.47Z</time></trkpt><trkpt lat="40.7529753" lon="17.367476"><ele>338.0</ele><time>2026-05-02T16:18:40.471Z</time></trkpt><trkpt lat="40.7528723" lon="17.3676232"><ele>340.0</ele><time>2026-05-02T16:18:41.471Z</time></trkpt><trkpt lat="40.7527683" lon="17.3677688"><ele>340.3333333333333</ele><time>2026-05-02T16:18:42.471Z</time></trkpt><trkpt lat="40.7526682" lon="17.3679176"><ele>340.6666666666667</ele><time>2026-05-02T16:18:43.47Z</time></trkpt><trkpt lat="40.7525684" lon="17.3680649"><ele>341.0</ele><time>2026-05-02T16:18:44.471Z</time></trkpt><trkpt lat="40.7524709" lon="17.368216"><ele>341.0</ele><time>2026-05-02T16:18:45.471Z</time></trkpt><trkpt lat="40.7523828" lon="17.3683767"><ele>341.0</ele><time>2026-05-02T16:18:46.471Z</time></trkpt><trkpt lat="40.7523016" lon="17.368546"><ele>341.0</ele><time>2026-05-02T16:18:47.47Z</time></trkpt><trkpt lat="40.7522295" lon="17.3687261"><ele>343.33333333333337</ele><time>2026-05-02T16:18:48.472Z</time></trkpt><trkpt lat="40.7521688" lon="17.3689183"><ele>345.6666666666667</ele><time>2026-05-02T16:18:49.472Z</time></trkpt><trkpt lat="40.7521201" lon="17.3691135"><ele>348.0</ele><time>2026-05-02T16:18:50.472Z</time></trkpt><trkpt lat="40.7520814" lon="17.3693158"><ele>348.0</ele><time>2026-05-02T16:18:51.471Z</time></trkpt><trkpt lat="40.752047" lon="17.369519"><ele>348.0</ele><time>2026-05-02T16:18:52.471Z</time></trkpt><trkpt lat="40.7520153" lon="17.3697262"><ele>348.0</ele><time>2026-05-02T16:18:53.471Z</time></trkpt><trkpt lat="40.7519863" lon="17.3699344"><ele>347.0</ele><time>2026-05-02T16:18:54.47Z</time></trkpt><trkpt lat="40.7519562" lon="17.3701511"><ele>346.0</ele><time>2026-05-02T16:18:55.472Z</time></trkpt><trkpt lat="40.7519258" lon="17.3703671"><ele>345.0</ele><time>2026-05-02T16:18:56.472Z</time></trkpt><trkpt lat="40.7518942" lon="17.3705969"><ele>344.3333333333333</ele><time>2026-05-02T16:18:57.471Z</time></trkpt><trkpt lat="40.7518616" lon="17.3708164"><ele>343.66666666666663</ele><time>2026-05-02T16:18:58.472Z</time></trkpt><trkpt lat="40.7518288" lon="17.3710403"><ele>343.0</ele><time>2026-05-02T16:18:59.471Z</time></trkpt><trkpt lat="40.7517948" lon="17.3712653"><ele>342.0</ele><time>2026-05-02T16:19:00.472Z</time></trkpt><trkpt lat="40.7517613" lon="17.3714908"><ele>341.0</ele><time>2026-05-02T16:19:01.472Z</time></trkpt><trkpt lat="40.7517281" lon="17.3717122"><ele>340.0</ele><time>2026-05-02T16:19:02.471Z</time></trkpt><trkpt lat="40.7516961" lon="17.3719403"><ele>340.0</ele><time>2026-05-02T16:19:03.471Z</time></trkpt><trkpt lat="40.7516636" lon="17.3721717"><ele>340.0</ele><time>2026-05-02T16:19:04.471Z</time></trkpt><trkpt lat="40.7516324" lon="17.3724007"><ele>340.0</ele><time>2026-05-02T16:19:05.471Z</time></trkpt><trkpt lat="40.7515969" lon="17.3726281"><ele>340.0</ele><time>2026-05-02T16:19:06.47Z</time></trkpt><trkpt lat="40.7515634" lon="17.3728543"><ele>340.0</ele><time>2026-05-02T16:19:07.471Z</time></trkpt><trkpt lat="40.7515286" lon="17.3730845"><ele>340.0</ele><time>2026-05-02T16:19:08.471Z</time></trkpt><trkpt lat="40.7514964" lon="17.3733154"><ele>342.0</ele><time>2026-05-02T16:19:09.47Z</time></trkpt><trkpt lat="40.7514663" lon="17.3735477"><ele>344.0</ele><time>2026-05-02T16:19:10.471Z</time></trkpt><trkpt lat="40.7514368" lon="17.3737754"><ele>346.0</ele><time>2026-05-02T16:19:11.471Z</time></trkpt><trkpt lat="40.7514029" lon="17.3740038"><ele>348.0</ele><time>2026-05-02T16:19:12.471Z</time></trkpt><trkpt lat="40.7513666" lon="17.3742337"><ele>350.0</ele><time>2026-05-02T16:19:13.471Z</time></trkpt><trkpt lat="40.751332" lon="17.3744606"><ele>352.0</ele><time>2026-05-02T16:19:14.471Z</time></trkpt><trkpt lat="40.7512965" lon="17.3746911"><ele>352.66666666666663</ele><time>2026-05-02T16:19:15.47Z</time></trkpt><trkpt lat="40.7512616" lon="17.3749182"><ele>353.3333333333333</ele><time>2026-05-02T16:19:16.471Z</time></trkpt><trkpt lat="40.751233" lon="17.3751467"><ele>354.0</ele><time>2026-05-02T16:19:17.471Z</time></trkpt><trkpt lat="40.7512162" lon="17.3753778"><ele>354.3333333333333</ele><time>2026-05-02T16:19:18.47Z</time></trkpt><trkpt lat="40.7512079" lon="17.3756063"><ele>354.66666666666663</ele><time>2026-05-02T16:19:19.471Z</time></trkpt><trkpt lat="40.7512084" lon="17.3758379"><ele>355.0</ele><time>2026-05-02T16:19:20.471Z</time></trkpt><trkpt lat="40.7512187" lon="17.3760719"><ele>355.0</ele><time>2026-05-02T16:19:21.472Z</time></trkpt><trkpt lat="40.7512371" lon="17.3763054"><ele>355.0</ele><time>2026-05-02T16:19:22.471Z</time></trkpt><trkpt lat="40.7512608" lon="17.3765397"><ele>355.0</ele><time>2026-05-02T16:19:23.471Z</time></trkpt><trkpt lat="40.7512929" lon="17.376776"><ele>354.66666666666663</ele><time>2026-05-02T16:19:24.471Z</time></trkpt><trkpt lat="40.7513227" lon="17.3770052"><ele>354.3333333333333</ele><time>2026-05-02T16:19:25.471Z</time></trkpt><trkpt lat="40.7513494" lon="17.377227"><ele>354.0</ele><time>2026-05-02T16:19:26.471Z</time></trkpt><trkpt lat="40.7513724" lon="17.3774448"><ele>353.0</ele><time>2026-05-02T16:19:27.471Z</time></trkpt><trkpt lat="40.7513924" lon="17.3776595"><ele>352.0</ele><time>2026-05-02T16:19:28.471Z</time></trkpt><trkpt lat="40.7513959" lon="17.377869"><ele>351.0</ele><time>2026-05-02T16:19:29.47Z</time></trkpt><trkpt lat="40.7513818" lon="17.3780753"><ele>350.3333333333333</ele><time>2026-05-02T16:19:30.471Z</time></trkpt><trkpt lat="40.7513459" lon="17.3782744"><ele>349.66666666666663</ele><time>2026-05-02T16:19:31.471Z</time></trkpt><trkpt lat="40.7512965" lon="17.3784668"><ele>349.0</ele><time>2026-05-02T16:19:32.471Z</time></trkpt><trkpt lat="40.7512326" lon="17.3786615"><ele>350.3333333333333</ele><time>2026-05-02T16:19:33.471Z</time></trkpt><trkpt lat="40.751172" lon="17.3788591"><ele>351.6666666666667</ele><time>2026-05-02T16:19:34.472Z</time></trkpt><trkpt lat="40.7511308" lon="17.379071"><ele>353.0</ele><time>2026-05-02T16:19:35.472Z</time></trkpt><trkpt lat="40.7510953" lon="17.3792918"><ele>353.0</ele><time>2026-05-02T16:19:36.471Z</time></trkpt><trkpt lat="40.7510674" lon="17.3795183"><ele>353.0</ele><time>2026-05-02T16:19:37.472Z</time></trkpt><trkpt lat="40.7510402" lon="17.3797492"><ele>353.0</ele><time>2026-05-02T16:19:38.47Z</time></trkpt><trkpt lat="40.7510169" lon="17.3799827"><ele>348.33333333333337</ele><time>2026-05-02T16:19:39.472Z</time></trkpt><trkpt lat="40.7509918" lon="17.3802229"><ele>343.6666666666667</ele><time>2026-05-02T16:19:40.471Z</time></trkpt><trkpt lat="40.7509668" lon="17.3804663"><ele>339.0</ele><time>2026-05-02T16:19:41.471Z</time></trkpt><trkpt lat="40.7509429" lon="17.3807091"><ele>339.0</ele><time>2026-05-02T16:19:42.47Z</time></trkpt><trkpt lat="40.7509174" lon="17.3809495"><ele>339.0</ele><time>2026-05-02T16:19:43.47Z</time></trkpt><trkpt lat="40.7508916" lon="17.3811847"><ele>339.0</ele><time>2026-05-02T16:19:44.471Z</time></trkpt><trkpt lat="40.750868" lon="17.3814182"><ele>338.6666666666667</ele><time>2026-05-02T16:19:45.471Z</time></trkpt><trkpt lat="40.7508502" lon="17.381645"><ele>338.33333333333337</ele><time>2026-05-02T16:19:46.471Z</time></trkpt><trkpt lat="40.7508409" lon="17.381877"><ele>338.0</ele><time>2026-05-02T16:19:47.471Z</time></trkpt><trkpt lat="40.7508406" lon="17.3821034"><ele>338.0</ele><time>2026-05-02T16:19:48.471Z</time></trkpt><trkpt lat="40.7508429" lon="17.382326"><ele>338.0</ele><time>2026-05-02T16:19:49.471Z</time></trkpt><trkpt lat="40.750843" lon="17.3825443"><ele>338.0</ele><time>2026-05-02T16:19:50.471Z</time></trkpt><trkpt lat="40.7508362" lon="17.3827636"><ele>338.0</ele><time>2026-05-02T16:19:51.471Z</time></trkpt><trkpt lat="40.7508196" lon="17.3829819"><ele>338.0</ele><time>2026-05-02T16:19:52.47Z</time></trkpt><trkpt lat="40.750797" lon="17.383203"><ele>338.0</ele><time>2026-05-02T16:19:53.472Z</time></trkpt><trkpt lat="40.7507647" lon="17.3834239"><ele>337.6666666666667</ele><time>2026-05-02T16:19:54.471Z</time></trkpt><trkpt lat="40.7507189" lon="17.3836426"><ele>337.3333333333333</ele><time>2026-05-02T16:19:55.47Z</time></trkpt><trkpt lat="40.7506661" lon="17.3838603"><ele>337.0</ele><time>2026-05-02T16:19:56.471Z</time></trkpt><trkpt lat="40.7506079" lon="17.3840822"><ele>337.66666666666663</ele><time>2026-05-02T16:19:57.471Z</time></trkpt><trkpt lat="40.750546" lon="17.3843059"><ele>338.3333333333333</ele><time>2026-05-02T16:19:58.471Z</time></trkpt><trkpt lat="40.7504832" lon="17.384528"><ele>339.0</ele><time>2026-05-02T16:19:59.47Z</time></trkpt><trkpt lat="40.7504227" lon="17.3847498"><ele>340.6666666666667</ele><time>2026-05-02T16:20:00.472Z</time></trkpt><trkpt lat="40.750362" lon="17.3849713"><ele>342.33333333333337</ele><time>2026-05-02T16:20:01.471Z</time></trkpt><trkpt lat="40.7503015" lon="17.3851938"><ele>344.0</ele><time>2026-05-02T16:20:02.471Z</time></trkpt><trkpt lat="40.7502418" lon="17.3854169"><ele>340.6666666666667</ele><time>2026-05-02T16:20:03.471Z</time></trkpt><trkpt lat="40.7501804" lon="17.385639"><ele>337.3333333333333</ele><time>2026-05-02T16:20:04.471Z</time></trkpt><trkpt lat="40.7501168" lon="17.3858627"><ele>334.0</ele><time>2026-05-02T16:20:05.471Z</time></trkpt><trkpt lat="40.7500511" lon="17.3860856"><ele>334.0</ele><time>2026-05-02T16:20:06.471Z</time></trkpt><trkpt lat="40.7499821" lon="17.3863084"><ele>334.0</ele><time>2026-05-02T16:20:07.472Z</time></trkpt><trkpt lat="40.7499084" lon="17.3865306"><ele>334.0</ele><time>2026-05-02T16:20:08.471Z</time></trkpt><trkpt lat="40.7498302" lon="17.386751"><ele>336.66666666666663</ele><time>2026-05-02T16:20:09.471Z</time></trkpt><trkpt lat="40.7497475" lon="17.3869745"><ele>339.3333333333333</ele><time>2026-05-02T16:20:10.471Z</time></trkpt><trkpt lat="40.7496594" lon="17.3871934"><ele>342.0</ele><time>2026-05-02T16:20:11.471Z</time></trkpt><trkpt lat="40.7495679" lon="17.3874108"><ele>340.0</ele><time>2026-05-02T16:20:12.472Z</time></trkpt><trkpt lat="40.7494782" lon="17.3876333"><ele>338.0</ele><time>2026-05-02T16:20:13.471Z</time></trkpt><trkpt lat="40.7493857" lon="17.3878548"><ele>336.0</ele><time>2026-05-02T16:20:14.471Z</time></trkpt><trkpt lat="40.7492904" lon="17.3880755"><ele>336.0</ele><time>2026-05-02T16:20:15.471Z</time></trkpt><trkpt lat="40.7491919" lon="17.3882967"><ele>336.0</ele><time>2026-05-02T16:20:16.471Z</time></trkpt><trkpt lat="40.7490934" lon="17.3885209"><ele>336.0</ele><time>2026-05-02T16:20:17.472Z</time></trkpt><trkpt lat="40.7489966" lon="17.3887472"><ele>338.3333333333333</ele><time>2026-05-02T16:20:18.471Z</time></trkpt><trkpt lat="40.7488966" lon="17.3889726"><ele>340.66666666666663</ele><time>2026-05-02T16:20:19.471Z</time></trkpt><trkpt lat="40.7487981" lon="17.3891964"><ele>343.0</ele><time>2026-05-02T16:20:20.471Z</time></trkpt><trkpt lat="40.7486965" lon="17.3894217"><ele>343.0</ele><time>2026-05-02T16:20:21.471Z</time></trkpt><trkpt lat="40.7485946" lon="17.3896498"><ele>343.0</ele><time>2026-05-02T16:20:22.472Z</time></trkpt><trkpt lat="40.7484965" lon="17.389878"><ele>343.0</ele><time>2026-05-02T16:20:23.472Z</time></trkpt><trkpt lat="40.7484008" lon="17.390108"><ele>343.3333333333333</ele><time>2026-05-02T16:20:24.472Z</time></trkpt><trkpt lat="40.7482996" lon="17.3903335"><ele>343.6666666666667</ele><time>2026-05-02T16:20:25.471Z</time></trkpt><trkpt lat="40.7481972" lon="17.3905615"><ele>344.0</ele><time>2026-05-02T16:20:26.47Z</time></trkpt><trkpt lat="40.7480955" lon="17.3907893"><ele>344.0</ele><time>2026-05-02T16:20:27.471Z</time></trkpt><trkpt lat="40.7479946" lon="17.3910164"><ele>344.0</ele><time>2026-05-02T16:20:28.47Z</time></trkpt><trkpt lat="40.7478956" lon="17.3912451"><ele>344.0</ele><time>2026-05-02T16:20:29.469Z</time></trkpt><trkpt lat="40.7477954" lon="17.3914714"><ele>343.0</ele><time>2026-05-02T16:20:30.471Z</time></trkpt><trkpt lat="40.7476964" lon="17.3916962"><ele>342.0</ele><time>2026-05-02T16:20:31.47Z</time></trkpt><trkpt lat="40.7475984" lon="17.3919261"><ele>341.0</ele><time>2026-05-02T16:20:32.47Z</time></trkpt><trkpt lat="40.747499" lon="17.3921505"><ele>342.33333333333337</ele><time>2026-05-02T16:20:33.471Z</time></trkpt><trkpt lat="40.7474" lon="17.3923746"><ele>343.6666666666667</ele><time>2026-05-02T16:20:34.47Z</time></trkpt><trkpt lat="40.7473033" lon="17.3925921"><ele>345.0</ele><time>2026-05-02T16:20:35.471Z</time></trkpt><trkpt lat="40.7472114" lon="17.3928074"><ele>347.3333333333333</ele><time>2026-05-02T16:20:36.471Z</time></trkpt><trkpt lat="40.7471193" lon="17.3930226"><ele>349.66666666666663</ele><time>2026-05-02T16:20:37.47Z</time></trkpt><trkpt lat="40.7470269" lon="17.3932395"><ele>352.0</ele><time>2026-05-02T16:20:38.47Z</time></trkpt><trkpt lat="40.7469332" lon="17.393457"><ele>349.66666666666663</ele><time>2026-05-02T16:20:39.471Z</time></trkpt><trkpt lat="40.7468455" lon="17.3936807"><ele>347.3333333333333</ele><time>2026-05-02T16:20:40.47Z</time></trkpt><trkpt lat="40.7467521" lon="17.3939004"><ele>345.0</ele><time>2026-05-02T16:20:41.47Z</time></trkpt><trkpt lat="40.7466545" lon="17.3941209"><ele>345.0</ele><time>2026-05-02T16:20:42.47Z</time></trkpt><trkpt lat="40.7465593" lon="17.3943405"><ele>345.0</ele><time>2026-05-02T16:20:43.471Z</time></trkpt><trkpt lat="40.7464614" lon="17.3945634"><ele>345.0</ele><time>2026-05-02T16:20:44.47Z</time></trkpt><trkpt lat="40.7463641" lon="17.3947906"><ele>346.6666666666667</ele><time>2026-05-02T16:20:45.47Z</time></trkpt><trkpt lat="40.7462646" lon="17.3950125"><ele>348.33333333333337</ele><time>2026-05-02T16:20:46.47Z</time></trkpt><trkpt lat="40.7461658" lon="17.3952368"><ele>350.0</ele><time>2026-05-02T16:20:47.47Z</time></trkpt><trkpt lat="40.7460686" lon="17.3954623"><ele>347.33333333333337</ele><time>2026-05-02T16:20:48.47Z</time></trkpt><trkpt lat="40.7459736" lon="17.3956842"><ele>344.6666666666667</ele><time>2026-05-02T16:20:49.47Z</time></trkpt><trkpt lat="40.7458798" lon="17.3958984"><ele>342.0</ele><time>2026-05-02T16:20:50.471Z</time></trkpt><trkpt lat="40.7457843" lon="17.396112"><ele>342.0</ele><time>2026-05-02T16:20:51.47Z</time></trkpt><trkpt lat="40.7456912" lon="17.3963232"><ele>342.0</ele><time>2026-05-02T16:20:52.47Z</time></trkpt><trkpt lat="40.7455982" lon="17.396533"><ele>342.0</ele><time>2026-05-02T16:20:53.47Z</time></trkpt><trkpt lat="40.7455079" lon="17.3967371"><ele>343.0</ele><time>2026-05-02T16:20:54.469Z</time></trkpt><trkpt lat="40.7454222" lon="17.3969307"><ele>344.0</ele><time>2026-05-02T16:20:55.47Z</time></trkpt><trkpt lat="40.7453434" lon="17.3971253"><ele>345.0</ele><time>2026-05-02T16:20:56.471Z</time></trkpt><trkpt lat="40.7452647" lon="17.3973072"><ele>343.6666666666667</ele><time>2026-05-02T16:20:57.47Z</time></trkpt><trkpt lat="40.7451983" lon="17.3974967"><ele>342.33333333333337</ele><time>2026-05-02T16:20:58.47Z</time></trkpt><trkpt lat="40.7451465" lon="17.3976975"><ele>341.0</ele><time>2026-05-02T16:20:59.469Z</time></trkpt><trkpt lat="40.7451111" lon="17.3979115"><ele>341.6666666666667</ele><time>2026-05-02T16:21:00.47Z</time></trkpt><trkpt lat="40.7450817" lon="17.3981293"><ele>342.3333333333333</ele><time>2026-05-02T16:21:01.471Z</time></trkpt><trkpt lat="40.7450605" lon="17.3983553"><ele>343.0</ele><time>2026-05-02T16:21:02.47Z</time></trkpt><trkpt lat="40.7450346" lon="17.3985869"><ele>343.0</ele><time>2026-05-02T16:21:03.47Z</time></trkpt><trkpt lat="40.7450088" lon="17.3988138"><ele>343.0</ele><time>2026-05-02T16:21:04.47Z</time></trkpt><trkpt lat="40.7449821" lon="17.3990471"><ele>343.0</ele><time>2026-05-02T16:21:05.471Z</time></trkpt><trkpt lat="40.7449573" lon="17.3992676"><ele>343.66666666666663</ele><time>2026-05-02T16:21:06.47Z</time></trkpt><trkpt lat="40.7449312" lon="17.3994897"><ele>344.3333333333333</ele><time>2026-05-02T16:21:07.47Z</time></trkpt><trkpt lat="40.7449025" lon="17.3997096"><ele>345.0</ele><time>2026-05-02T16:21:08.47Z</time></trkpt><trkpt lat="40.7448738" lon="17.3999298"><ele>345.0</ele><time>2026-05-02T16:21:09.47Z</time></trkpt><trkpt lat="40.7448484" lon="17.4001478"><ele>345.0</ele><time>2026-05-02T16:21:10.47Z</time></trkpt><trkpt lat="40.7448225" lon="17.4003648"><ele>345.0</ele><time>2026-05-02T16:21:11.47Z</time></trkpt><trkpt lat="40.7447932" lon="17.4005811"><ele>344.3333333333333</ele><time>2026-05-02T16:21:12.47Z</time></trkpt><trkpt lat="40.7447657" lon="17.4007931"><ele>343.66666666666663</ele><time>2026-05-02T16:21:13.47Z</time></trkpt><trkpt lat="40.7447366" lon="17.4010075"><ele>343.0</ele><time>2026-05-02T16:21:14.471Z</time></trkpt><trkpt lat="40.7447078" lon="17.4012182"><ele>343.3333333333333</ele><time>2026-05-02T16:21:15.47Z</time></trkpt><trkpt lat="40.74468" lon="17.4014286"><ele>343.6666666666667</ele><time>2026-05-02T16:21:16.47Z</time></trkpt><trkpt lat="40.744653" lon="17.4016329"><ele>344.0</ele><time>2026-05-02T16:21:17.471Z</time></trkpt><trkpt lat="40.7446276" lon="17.401837"><ele>344.0</ele><time>2026-05-02T16:21:18.471Z</time></trkpt><trkpt lat="40.7446032" lon="17.402038"><ele>344.0</ele><time>2026-05-02T16:21:19.471Z</time></trkpt><trkpt lat="40.7445764" lon="17.4022328"><ele>344.0</ele><time>2026-05-02T16:21:20.471Z</time></trkpt><trkpt lat="40.7445537" lon="17.402425"><ele>343.75</ele><time>2026-05-02T16:21:21.469Z</time></trkpt><trkpt lat="40.7445402" lon="17.4026154"><ele>343.5</ele><time>2026-05-02T16:21:22.47Z</time></trkpt><trkpt lat="40.7445378" lon="17.4028028"><ele>343.25</ele><time>2026-05-02T16:21:23.471Z</time></trkpt><trkpt lat="40.7445474" lon="17.4029899"><ele>343.0</ele><time>2026-05-02T16:21:24.469Z</time></trkpt><trkpt lat="40.7445721" lon="17.4031697"><ele>343.0</ele><time>2026-05-02T16:21:25.47Z</time></trkpt><trkpt lat="40.7446115" lon="17.4033381"><ele>343.0</ele><time>2026-05-02T16:21:26.471Z</time></trkpt><trkpt lat="40.7446649" lon="17.4035017"><ele>343.0</ele><time>2026-05-02T16:21:27.469Z</time></trkpt><trkpt lat="40.7447288" lon="17.4036525"><ele>343.0</ele><time>2026-05-02T16:21:28.471Z</time></trkpt><trkpt lat="40.7447999" lon="17.4037898"><ele>342.75</ele><time>2026-05-02T16:21:29.47Z</time></trkpt><trkpt lat="40.7448745" lon="17.4039213"><ele>342.5</ele><time>2026-05-02T16:21:30.471Z</time></trkpt><trkpt lat="40.7449489" lon="17.4040329"><ele>342.25</ele><time>2026-05-02T16:21:31.47Z</time></trkpt><trkpt lat="40.7450232" lon="17.4041471"><ele>342.0</ele><time>2026-05-02T16:21:32.47Z</time></trkpt><trkpt lat="40.7450987" lon="17.4042625"><ele>342.0</ele><time>2026-05-02T16:21:33.47Z</time></trkpt><trkpt lat="40.7451691" lon="17.4043721"><ele>342.0</ele><time>2026-05-02T16:21:34.47Z</time></trkpt><trkpt lat="40.7452386" lon="17.4044819"><ele>342.0</ele><time>2026-05-02T16:21:35.469Z</time></trkpt><trkpt lat="40.7453082" lon="17.4045876"><ele>342.0</ele><time>2026-05-02T16:21:36.47Z</time></trkpt><trkpt lat="40.7453792" lon="17.4046996"><ele>342.0</ele><time>2026-05-02T16:21:37.47Z</time></trkpt><trkpt lat="40.7454551" lon="17.4048163"><ele>342.25</ele><time>2026-05-02T16:21:38.47Z</time></trkpt><trkpt lat="40.7455365" lon="17.4049376"><ele>342.5</ele><time>2026-05-02T16:21:39.47Z</time></trkpt><trkpt lat="40.7456237" lon="17.4050607"><ele>342.75</ele><time>2026-05-02T16:21:40.47Z</time></trkpt><trkpt lat="40.7457141" lon="17.4051952"><ele>343.0</ele><time>2026-05-02T16:21:41.469Z</time></trkpt><trkpt lat="40.7458067" lon="17.4053324"><ele>343.0</ele><time>2026-05-02T16:21:42.47Z</time></trkpt><trkpt lat="40.745898" lon="17.4054733"><ele>343.0</ele><time>2026-05-02T16:21:43.47Z</time></trkpt><trkpt lat="40.7459938" lon="17.4056142"><ele>343.0</ele><time>2026-05-02T16:21:44.47Z</time></trkpt><trkpt lat="40.7460885" lon="17.4057557"><ele>343.0</ele><time>2026-05-02T16:21:45.47Z</time></trkpt><trkpt lat="40.7461873" lon="17.4059037"><ele>342.75</ele><time>2026-05-02T16:21:46.47Z</time></trkpt><trkpt lat="40.7462898" lon="17.4060453"><ele>342.5</ele><time>2026-05-02T16:21:47.47Z</time></trkpt><trkpt lat="40.746396" lon="17.4061855"><ele>342.25</ele><time>2026-05-02T16:21:48.47Z</time></trkpt><trkpt lat="40.7465082" lon="17.4063177"><ele>342.0</ele><time>2026-05-02T16:21:49.47Z</time></trkpt><trkpt lat="40.7466226" lon="17.4064483"><ele>341.5</ele><time>2026-05-02T16:21:50.469Z</time></trkpt><trkpt lat="40.7467383" lon="17.4065763"><ele>341.0</ele><time>2026-05-02T16:21:51.471Z</time></trkpt><trkpt lat="40.7468518" lon="17.4067037"><ele>340.5</ele><time>2026-05-02T16:21:52.469Z</time></trkpt><trkpt lat="40.7469661" lon="17.4068234"><ele>340.0</ele><time>2026-05-02T16:21:53.471Z</time></trkpt><trkpt lat="40.7470693" lon="17.4069436"><ele>340.75</ele><time>2026-05-02T16:21:54.47Z</time></trkpt><trkpt lat="40.7471623" lon="17.4070744"><ele>341.5</ele><time>2026-05-02T16:21:55.47Z</time></trkpt><trkpt lat="40.7472421" lon="17.4072101"><ele>342.25</ele><time>2026-05-02T16:21:56.47Z</time></trkpt><trkpt lat="40.7473096" lon="17.4073561"><ele>343.0</ele><time>2026-05-02T16:21:57.47Z</time></trkpt><trkpt lat="40.7473605" lon="17.4075095"><ele>343.0</ele><time>2026-05-02T16:21:58.47Z</time></trkpt><trkpt lat="40.7473995" lon="17.4076701"><ele>343.0</ele><time>2026-05-02T16:21:59.471Z</time></trkpt><trkpt lat="40.7474258" lon="17.4078331"><ele>343.0</ele><time>2026-05-02T16:22:00.47Z</time></trkpt><trkpt lat="40.7474412" lon="17.4079963"><ele>343.0</ele><time>2026-05-02T16:22:01.47Z</time></trkpt><trkpt lat="40.7474427" lon="17.4081629"><ele>344.0</ele><time>2026-05-02T16:22:02.469Z</time></trkpt><trkpt lat="40.747428" lon="17.4083297"><ele>345.0</ele><time>2026-05-02T16:22:03.471Z</time></trkpt><trkpt lat="40.7474039" lon="17.4084995"><ele>346.0</ele><time>2026-05-02T16:22:04.47Z</time></trkpt><trkpt lat="40.7473758" lon="17.4086749"><ele>347.0</ele><time>2026-05-02T16:22:05.469Z</time></trkpt><trkpt lat="40.747347" lon="17.408858"><ele>348.25</ele><time>2026-05-02T16:22:06.471Z</time></trkpt><trkpt lat="40.7473224" lon="17.4090424"><ele>349.5</ele><time>2026-05-02T16:22:07.469Z</time></trkpt><trkpt lat="40.7473005" lon="17.4092285"><ele>350.75</ele><time>2026-05-02T16:22:08.47Z</time></trkpt><trkpt lat="40.7472823" lon="17.4094181"><ele>352.0</ele><time>2026-05-02T16:22:09.47Z</time></trkpt><trkpt lat="40.7472699" lon="17.4096037"><ele>351.75</ele><time>2026-05-02T16:22:10.47Z</time></trkpt><trkpt lat="40.7472616" lon="17.4097909"><ele>351.5</ele><time>2026-05-02T16:22:11.47Z</time></trkpt><trkpt lat="40.7472562" lon="17.4099755"><ele>351.25</ele><time>2026-05-02T16:22:12.47Z</time></trkpt><trkpt lat="40.7472507" lon="17.4101565"><ele>351.0</ele><time>2026-05-02T16:22:13.47Z</time></trkpt><trkpt lat="40.747244" lon="17.4103319"><ele>350.5</ele><time>2026-05-02T16:22:14.469Z</time></trkpt><trkpt lat="40.7472283" lon="17.4105022"><ele>350.0</ele><time>2026-05-02T16:22:15.469Z</time></trkpt><trkpt lat="40.7471893" lon="17.4106534"><ele>349.5</ele><time>2026-05-02T16:22:16.471Z</time></trkpt><trkpt lat="40.7471439" lon="17.4107987"><ele>349.0</ele><time>2026-05-02T16:22:17.47Z</time></trkpt><trkpt lat="40.7470742" lon="17.4109415"><ele>349.0</ele><time>2026-05-02T16:22:18.471Z</time></trkpt><trkpt lat="40.7469655" lon="17.4110304"><ele>349.0</ele><time>2026-05-02T16:22:19.47Z</time></trkpt><trkpt lat="40.7468802" lon="17.4111422"><ele>349.0</ele><time>2026-05-02T16:22:20.471Z</time></trkpt><trkpt lat="40.7467959" lon="17.4112399"><ele>349.0</ele><time>2026-05-02T16:22:21.471Z</time></trkpt><trkpt lat="40.7467062" lon="17.4113327"><ele>350.0</ele><time>2026-05-02T16:22:22.471Z</time></trkpt><trkpt lat="40.746605" lon="17.4114064"><ele>351.0</ele><time>2026-05-02T16:22:23.47Z</time></trkpt><trkpt lat="40.7464876" lon="17.4114469"><ele>352.0</ele><time>2026-05-02T16:22:24.47Z</time></trkpt><trkpt lat="40.746368" lon="17.4114887"><ele>353.0</ele><time>2026-05-02T16:22:25.47Z</time></trkpt><trkpt lat="40.7462456" lon="17.4115287"><ele>353.0</ele><time>2026-05-02T16:22:26.471Z</time></trkpt><trkpt lat="40.7461163" lon="17.4115679"><ele>353.0</ele><time>2026-05-02T16:22:27.47Z</time></trkpt><trkpt lat="40.7459848" lon="17.4116132"><ele>353.0</ele><time>2026-05-02T16:22:28.47Z</time></trkpt><trkpt lat="40.7458597" lon="17.4116759"><ele>353.0</ele><time>2026-05-02T16:22:29.47Z</time></trkpt><trkpt lat="40.74575" lon="17.4117663"><ele>352.5</ele><time>2026-05-02T16:22:30.47Z</time></trkpt><trkpt lat="40.7456428" lon="17.4118823"><ele>352.0</ele><time>2026-05-02T16:22:31.47Z</time></trkpt><trkpt lat="40.7455309" lon="17.412001"><ele>351.5</ele><time>2026-05-02T16:22:32.47Z</time></trkpt><trkpt lat="40.7454193" lon="17.4121146"><ele>351.0</ele><time>2026-05-02T16:22:33.47Z</time></trkpt><trkpt lat="40.7453126" lon="17.4122434"><ele>351.5</ele><time>2026-05-02T16:22:34.47Z</time></trkpt><trkpt lat="40.7452133" lon="17.4123785"><ele>352.0</ele><time>2026-05-02T16:22:35.469Z</time></trkpt><trkpt lat="40.7451228" lon="17.4125204"><ele>352.5</ele><time>2026-05-02T16:22:36.469Z</time></trkpt><trkpt lat="40.7450355" lon="17.4126629"><ele>353.0</ele><time>2026-05-02T16:22:37.471Z</time></trkpt><trkpt lat="40.7449501" lon="17.4128057"><ele>353.0</ele><time>2026-05-02T16:22:38.47Z</time></trkpt><trkpt lat="40.7448761" lon="17.4129533"><ele>353.0</ele><time>2026-05-02T16:22:39.469Z</time></trkpt><trkpt lat="40.7448142" lon="17.4131126"><ele>353.0</ele><time>2026-05-02T16:22:40.469Z</time></trkpt><trkpt lat="40.744762" lon="17.4132749"><ele>353.0</ele><time>2026-05-02T16:22:41.47Z</time></trkpt><trkpt lat="40.7447276" lon="17.4134504"><ele>355.0</ele><time>2026-05-02T16:22:42.47Z</time></trkpt><trkpt lat="40.7446922" lon="17.4136223"><ele>357.0</ele><time>2026-05-02T16:22:43.47Z</time></trkpt><trkpt lat="40.7446724" lon="17.4138081"><ele>359.0</ele><time>2026-05-02T16:22:44.471Z</time></trkpt><trkpt lat="40.7446519" lon="17.4139893"><ele>361.0</ele><time>2026-05-02T16:22:45.47Z</time></trkpt><trkpt lat="40.7446353" lon="17.4141761"><ele>362.25</ele><time>2026-05-02T16:22:46.47Z</time></trkpt><trkpt lat="40.7446152" lon="17.4143547"><ele>363.5</ele><time>2026-05-02T16:22:47.47Z</time></trkpt><trkpt lat="40.7445876" lon="17.4145342"><ele>364.75</ele><time>2026-05-02T16:22:48.47Z</time></trkpt><trkpt lat="40.7445584" lon="17.4147279"><ele>366.0</ele><time>2026-05-02T16:22:49.47Z</time></trkpt><trkpt lat="40.7445236" lon="17.4149071"><ele>366.75</ele><time>2026-05-02T16:22:50.471Z</time></trkpt><trkpt lat="40.7444892" lon="17.4150782"><ele>367.5</ele><time>2026-05-02T16:22:51.471Z</time></trkpt><trkpt lat="40.7444561" lon="17.4152377"><ele>368.25</ele><time>2026-05-02T16:22:52.47Z</time></trkpt><trkpt lat="40.7444311" lon="17.4153966"><ele>369.0</ele><time>2026-05-02T16:22:53.47Z</time></trkpt><trkpt lat="40.744422" lon="17.415561"><ele>370.5</ele><time>2026-05-02T16:22:54.47Z</time></trkpt><trkpt lat="40.7444283" lon="17.4157204"><ele>372.0</ele><time>2026-05-02T16:22:55.47Z</time></trkpt><trkpt lat="40.74445" lon="17.4158718"><ele>373.5</ele><time>2026-05-02T16:22:56.47Z</time></trkpt><trkpt lat="40.7444725" lon="17.4160179"><ele>375.0</ele><time>2026-05-02T16:22:57.47Z</time></trkpt><trkpt lat="40.7444841" lon="17.4161713"><ele>375.0</ele><time>2026-05-02T16:22:58.47Z</time></trkpt><trkpt lat="40.7444729" lon="17.4163191"><ele>375.0</ele><time>2026-05-02T16:22:59.469Z</time></trkpt><trkpt lat="40.74445" lon="17.4164648"><ele>375.0</ele><time>2026-05-02T16:23:00.47Z</time></trkpt><trkpt lat="40.7444281" lon="17.4166124"><ele>375.0</ele><time>2026-05-02T16:23:01.47Z</time></trkpt><trkpt lat="40.7444121" lon="17.4167662"><ele>375.0</ele><time>2026-05-02T16:23:02.471Z</time></trkpt><trkpt lat="40.7444042" lon="17.416916"><ele>375.0</ele><time>2026-05-02T16:23:03.469Z</time></trkpt><trkpt lat="40.7444046" lon="17.4170592"><ele>375.0</ele><time>2026-05-02T16:23:04.47Z</time></trkpt><trkpt lat="40.7444066" lon="17.4172064"><ele>375.0</ele><time>2026-05-02T16:23:05.47Z</time></trkpt><trkpt lat="40.7444063" lon="17.4173466"><ele>375.0</ele><time>2026-05-02T16:23:06.47Z</time></trkpt><trkpt lat="40.7443887" lon="17.4174858"><ele>375.0</ele><time>2026-05-02T16:23:07.47Z</time></trkpt><trkpt lat="40.7443517" lon="17.4176186"><ele>375.0</ele><time>2026-05-02T16:23:08.471Z</time></trkpt><trkpt lat="40.7443049" lon="17.4177416"><ele>375.0</ele><time>2026-05-02T16:23:09.469Z</time></trkpt><trkpt lat="40.7442503" lon="17.417858"><ele>375.0</ele><time>2026-05-02T16:23:10.47Z</time></trkpt><trkpt lat="40.7441789" lon="17.4179621"><ele>375.0</ele><time>2026-05-02T16:23:11.471Z</time></trkpt><trkpt lat="40.7440914" lon="17.4180545"><ele>375.0</ele><time>2026-05-02T16:23:12.469Z</time></trkpt><trkpt lat="40.7440096" lon="17.4181528"><ele>375.0</ele><time>2026-05-02T16:23:13.469Z</time></trkpt><trkpt lat="40.7439262" lon="17.4182451"><ele>375.0</ele><time>2026-05-02T16:23:14.471Z</time></trkpt><trkpt lat="40.7438491" lon="17.4183453"><ele>375.0</ele><time>2026-05-02T16:23:15.47Z</time></trkpt><trkpt lat="40.7437809" lon="17.4184586"><ele>375.0</ele><time>2026-05-02T16:23:16.471Z</time></trkpt><trkpt lat="40.7437126" lon="17.4185692"><ele>375.0</ele><time>2026-05-02T16:23:17.47Z</time></trkpt><trkpt lat="40.7436459" lon="17.4186822"><ele>375.0</ele><time>2026-05-02T16:23:18.47Z</time></trkpt><trkpt lat="40.7435801" lon="17.4187997"><ele>375.0</ele><time>2026-05-02T16:23:19.471Z</time></trkpt><trkpt lat="40.7435109" lon="17.4189178"><ele>375.0</ele><time>2026-05-02T16:23:20.469Z</time></trkpt><trkpt lat="40.7434421" lon="17.4190382"><ele>375.0</ele><time>2026-05-02T16:23:21.469Z</time></trkpt><trkpt lat="40.7433708" lon="17.4191583"><ele>374.25</ele><time>2026-05-02T16:23:22.47Z</time></trkpt><trkpt lat="40.7433097" lon="17.4192858"><ele>373.5</ele><time>2026-05-02T16:23:23.471Z</time></trkpt><trkpt lat="40.7432559" lon="17.4194264"><ele>372.75</ele><time>2026-05-02T16:23:24.471Z</time></trkpt><trkpt lat="40.7432139" lon="17.4195784"><ele>372.0</ele><time>2026-05-02T16:23:25.47Z</time></trkpt><trkpt lat="40.7431787" lon="17.4197219"><ele>373.6666666666667</ele><time>2026-05-02T16:23:26.471Z</time></trkpt><trkpt lat="40.743148" lon="17.4198548"><ele>375.3333333333333</ele><time>2026-05-02T16:23:27.469Z</time></trkpt><trkpt lat="40.7431202" lon="17.4199699"><ele>377.0</ele><time>2026-05-02T16:23:28.469Z</time></trkpt><trkpt lat="40.7430968" lon="17.4200801"><ele>378.66666666666663</ele><time>2026-05-02T16:23:29.468Z</time></trkpt><trkpt lat="40.7430749" lon="17.4201845"><ele>380.3333333333333</ele><time>2026-05-02T16:23:30.469Z</time></trkpt><trkpt lat="40.7430576" lon="17.420278"><ele>382.0</ele><time>2026-05-02T16:23:31.47Z</time></trkpt><trkpt lat="40.7430366" lon="17.4203776"><ele>382.0</ele><time>2026-05-02T16:23:32.469Z</time></trkpt><trkpt lat="40.7430168" lon="17.4204651"><ele>382.0</ele><time>2026-05-02T16:23:33.469Z</time></trkpt><trkpt lat="40.7430002" lon="17.4205619"><ele>382.0</ele><time>2026-05-02T16:23:34.469Z</time></trkpt><trkpt lat="40.7429886" lon="17.4206661"><ele>382.0</ele><time>2026-05-02T16:23:35.468Z</time></trkpt><trkpt lat="40.742985" lon="17.4207798"><ele>382.0</ele><time>2026-05-02T16:23:36.468Z</time></trkpt><trkpt lat="40.74299" lon="17.4208977"><ele>382.0</ele><time>2026-05-02T16:23:37.469Z</time></trkpt><trkpt lat="40.7430095" lon="17.4210187"><ele>382.6</ele><time>2026-05-02T16:23:38.468Z</time></trkpt><trkpt lat="40.7430235" lon="17.4211396"><ele>383.20000000000005</ele><time>2026-05-02T16:23:39.468Z</time></trkpt><trkpt lat="40.7430371" lon="17.421262"><ele>383.8</ele><time>2026-05-02T16:23:40.469Z</time></trkpt><trkpt lat="40.7430503" lon="17.4213801"><ele>384.4</ele><time>2026-05-02T16:23:41.47Z</time></trkpt><trkpt lat="40.7430702" lon="17.421495"><ele>385.0</ele><time>2026-05-02T16:23:42.469Z</time></trkpt><trkpt lat="40.7430959" lon="17.4216024"><ele>385.00000000000006</ele><time>2026-05-02T16:23:43.469Z</time></trkpt><trkpt lat="40.7431333" lon="17.4217034"><ele>385.0</ele><time>2026-05-02T16:23:44.47Z</time></trkpt><trkpt lat="40.7431779" lon="17.4218011"><ele>385.0</ele><time>2026-05-02T16:23:45.468Z</time></trkpt><trkpt lat="40.7432251" lon="17.4218982"><ele>385.0</ele><time>2026-05-02T16:23:46.469Z</time></trkpt><trkpt lat="40.7432712" lon="17.4219886"><ele>385.00000000000006</ele><time>2026-05-02T16:23:47.47Z</time></trkpt><trkpt lat="40.7433152" lon="17.4220747"><ele>385.0</ele><time>2026-05-02T16:23:48.469Z</time></trkpt><trkpt lat="40.7433561" lon="17.4221577"><ele>385.00000000000006</ele><time>2026-05-02T16:23:49.469Z</time></trkpt><trkpt lat="40.7433964" lon="17.4222435"><ele>385.0</ele><time>2026-05-02T16:23:50.47Z</time></trkpt><trkpt lat="40.7434327" lon="17.4223406"><ele>385.0</ele><time>2026-05-02T16:23:51.469Z</time></trkpt><trkpt lat="40.7434603" lon="17.4224158"><ele>385.0</ele><time>2026-05-02T16:23:52.47Z</time></trkpt><trkpt lat="40.743487" lon="17.4225012"><ele>385.00000000000006</ele><time>2026-05-02T16:23:53.469Z</time></trkpt><trkpt lat="40.743545" lon="17.4226412"><ele>385.0</ele><time>2026-05-02T16:23:55.468Z</time></trkpt><trkpt lat="40.7435853" lon="17.4227577"><ele>385.0</ele><time>2026-05-02T16:23:57.47Z</time></trkpt><trkpt lat="40.7436267" lon="17.4228952"><ele>385.0</ele><time>2026-05-02T16:23:59.469Z</time></trkpt><trkpt lat="40.743605" lon="17.4230518"><ele>385.0</ele><time>2026-05-02T16:24:01.47Z</time></trkpt><trkpt lat="40.7435992" lon="17.4231912"><ele>385.0</ele><time>2026-05-02T16:24:03.468Z</time></trkpt><trkpt lat="40.7435617" lon="17.4232764"><ele>385.0</ele><time>2026-05-02T16:24:05.469Z</time></trkpt><trkpt lat="40.743557" lon="17.4233641"><ele>385.6666666666667</ele><time>2026-05-02T16:24:08.469Z</time></trkpt><trkpt lat="40.7435378" lon="17.4234539"><ele>386.33333333333337</ele><time>2026-05-02T16:24:18.469Z</time></trkpt><trkpt lat="40.743508" lon="17.4235695"><ele>387.0</ele><time>2026-05-02T16:24:21.469Z</time></trkpt><trkpt lat="40.7434742" lon="17.4236891"><ele>387.66666666666663</ele><time>2026-05-02T16:24:23.469Z</time></trkpt><trkpt lat="40.7434457" lon="17.4237783"><ele>388.3333333333333</ele><time>2026-05-02T16:24:25.469Z</time></trkpt><trkpt lat="40.7434274" lon="17.4238674"><ele>389.0</ele><time>2026-05-02T16:24:27.469Z</time></trkpt><trkpt lat="40.7434045" lon="17.4239609"><ele>389.16666666666663</ele><time>2026-05-02T16:24:29.469Z</time></trkpt><trkpt lat="40.7433795" lon="17.4240459"><ele>389.3333333333333</ele><time>2026-05-02T16:24:31.468Z</time></trkpt><trkpt lat="40.7433572" lon="17.4241492"><ele>389.5</ele><time>2026-05-02T16:24:33.469Z</time></trkpt><trkpt lat="40.7433296" lon="17.4242333"><ele>389.66666666666663</ele><time>2026-05-02T16:24:35.469Z</time></trkpt><trkpt lat="40.7433016" lon="17.4243262"><ele>389.8333333333333</ele><time>2026-05-02T16:24:37.469Z</time></trkpt><trkpt lat="40.7432724" lon="17.4244286"><ele>390.0</ele><time>2026-05-02T16:24:39.469Z</time></trkpt><trkpt lat="40.7432409" lon="17.4245413"><ele>389.5</ele><time>2026-05-02T16:24:41.469Z</time></trkpt><trkpt lat="40.743216" lon="17.4246484"><ele>389.0</ele><time>2026-05-02T16:24:43.47Z</time></trkpt><trkpt lat="40.7431985" lon="17.4247797"><ele>388.5</ele><time>2026-05-02T16:24:45.469Z</time></trkpt><trkpt lat="40.743176" lon="17.4248854"><ele>388.0</ele><time>2026-05-02T16:24:47.469Z</time></trkpt><trkpt lat="40.7431459" lon="17.4249799"><ele>387.5</ele><time>2026-05-02T16:24:49.47Z</time></trkpt><trkpt lat="40.7431183" lon="17.4250819"><ele>387.0</ele><time>2026-05-02T16:24:52.47Z</time></trkpt><trkpt lat="40.7430925" lon="17.4251657"><ele>387.0</ele><time>2026-05-02T16:24:55.468Z</time></trkpt><trkpt lat="40.7430672" lon="17.4252807"><ele>387.0</ele><time>2026-05-02T16:24:58.469Z</time></trkpt><trkpt lat="40.7430505" lon="17.4253768"><ele>387.0</ele><time>2026-05-02T16:25:00.47Z</time></trkpt><trkpt lat="40.7430349" lon="17.4254679"><ele>387.0</ele><time>2026-05-02T16:25:02.469Z</time></trkpt><trkpt lat="40.7430067" lon="17.4255572"><ele>387.0</ele><time>2026-05-02T16:25:04.469Z</time></trkpt><trkpt lat="40.7429724" lon="17.4256526"><ele>387.0</ele><time>2026-05-02T16:25:06.469Z</time></trkpt><trkpt lat="40.742937" lon="17.4257593"><ele>386.6666666666667</ele><time>2026-05-02T16:25:08.468Z</time></trkpt><trkpt lat="40.7429006" lon="17.4258561"><ele>386.33333333333337</ele><time>2026-05-02T16:25:10.469Z</time></trkpt><trkpt lat="40.7428619" lon="17.425926"><ele>386.0</ele><time>2026-05-02T16:25:12.469Z</time></trkpt><trkpt lat="40.7428257" lon="17.4260304"><ele>385.6666666666667</ele><time>2026-05-02T16:25:15.468Z</time></trkpt><trkpt lat="40.742795" lon="17.4261314"><ele>385.33333333333337</ele><time>2026-05-02T16:25:18.468Z</time></trkpt><trkpt lat="40.7427661" lon="17.4262275"><ele>385.0</ele><time>2026-05-02T16:25:21.47Z</time></trkpt><trkpt lat="40.7427434" lon="17.4263053"><ele>384.85714285714283</ele><time>2026-05-02T16:25:23.469Z</time></trkpt><trkpt lat="40.7427199" lon="17.4263893"><ele>384.7142857142857</ele><time>2026-05-02T16:25:25.47Z</time></trkpt><trkpt lat="40.7426991" lon="17.4264747"><ele>384.57142857142856</ele><time>2026-05-02T16:25:27.469Z</time></trkpt><trkpt lat="40.7426723" lon="17.4265653"><ele>384.42857142857144</ele><time>2026-05-02T16:25:29.468Z</time></trkpt><trkpt lat="40.7426515" lon="17.426661"><ele>384.2857142857143</ele><time>2026-05-02T16:25:31.468Z</time></trkpt><trkpt lat="40.7426425" lon="17.4267565"><ele>384.1428571428571</ele><time>2026-05-02T16:25:33.469Z</time></trkpt><trkpt lat="40.7426379" lon="17.4268435"><ele>384.0</ele><time>2026-05-02T16:25:35.469Z</time></trkpt><trkpt lat="40.7426259" lon="17.4269364"><ele>384.85714285714283</ele><time>2026-05-02T16:25:37.469Z</time></trkpt><trkpt lat="40.742603" lon="17.4270157"><ele>385.7142857142857</ele><time>2026-05-02T16:25:39.469Z</time></trkpt><trkpt lat="40.742576" lon="17.4270985"><ele>386.57142857142856</ele><time>2026-05-02T16:25:41.469Z</time></trkpt><trkpt lat="40.7425308" lon="17.4271825"><ele>387.42857142857144</ele><time>2026-05-02T16:25:44.47Z</time></trkpt><trkpt lat="40.7424798" lon="17.4272508"><ele>388.2857142857143</ele><time>2026-05-02T16:25:58.469Z</time></trkpt><trkpt lat="40.7424584" lon="17.4273516"><ele>389.1428571428571</ele><time>2026-05-02T16:26:02.469Z</time></trkpt><trkpt lat="40.7424156" lon="17.4274291"><ele>390.0</ele><time>2026-05-02T16:26:05.468Z</time></trkpt><trkpt lat="40.742356" lon="17.4275099"><ele>390.0</ele><time>2026-05-02T16:26:08.468Z</time></trkpt><trkpt lat="40.7423016" lon="17.4276071"><ele>390.0</ele><time>2026-05-02T16:26:11.469Z</time></trkpt><trkpt lat="40.7422404" lon="17.4276913"><ele>390.0</ele><time>2026-05-02T16:26:14.469Z</time></trkpt><trkpt lat="40.7421937" lon="17.4277581"><ele>390.0</ele><time>2026-05-02T16:26:16.469Z</time></trkpt><trkpt lat="40.7421597" lon="17.4278454"><ele>390.0</ele><time>2026-05-02T16:26:18.469Z</time></trkpt><trkpt lat="40.7421257" lon="17.427919"><ele>390.0</ele><time>2026-05-02T16:26:20.469Z</time></trkpt><trkpt lat="40.7421027" lon="17.4279973"><ele>389.5</ele><time>2026-05-02T16:26:22.469Z</time></trkpt><trkpt lat="40.7420397" lon="17.4280007"><ele>389.0</ele><time>2026-05-02T16:26:25.468Z</time></trkpt><trkpt lat="40.7419679" lon="17.4280081"><ele>388.5</ele><time>2026-05-02T16:26:28.469Z</time></trkpt><trkpt lat="40.7419127" lon="17.4280712"><ele>388.0</ele><time>2026-05-02T16:26:30.469Z</time></trkpt><trkpt lat="40.7418561" lon="17.4281776"><ele>387.5</ele><time>2026-05-02T16:26:32.468Z</time></trkpt><trkpt lat="40.7417939" lon="17.4282692"><ele>387.0</ele><time>2026-05-02T16:26:34.468Z</time></trkpt><trkpt lat="40.7417453" lon="17.4283549"><ele>386.8</ele><time>2026-05-02T16:26:36.468Z</time></trkpt><trkpt lat="40.7416946" lon="17.4284532"><ele>386.6</ele><time>2026-05-02T16:26:38.467Z</time></trkpt><trkpt lat="40.7416436" lon="17.4285542"><ele>386.40000000000003</ele><time>2026-05-02T16:26:40.468Z</time></trkpt><trkpt lat="40.7415876" lon="17.428657"><ele>386.20000000000005</ele><time>2026-05-02T16:26:42.468Z</time></trkpt><trkpt lat="40.7415399" lon="17.4287604"><ele>386.0</ele><time>2026-05-02T16:26:44.468Z</time></trkpt><trkpt lat="40.7414934" lon="17.4288657"><ele>385.49999999999994</ele><time>2026-05-02T16:26:46.469Z</time></trkpt><trkpt lat="40.7414443" lon="17.4289802"><ele>385.0</ele><time>2026-05-02T16:26:48.469Z</time></trkpt><trkpt lat="40.7414008" lon="17.429088"><ele>384.5</ele><time>2026-05-02T16:26:50.468Z</time></trkpt><trkpt lat="40.7413635" lon="17.4291833"><ele>384.0</ele><time>2026-05-02T16:26:52.468Z</time></trkpt><trkpt lat="40.7413229" lon="17.4292705"><ele>383.5</ele><time>2026-05-02T16:26:54.467Z</time></trkpt><trkpt lat="40.7412776" lon="17.429368"><ele>383.0</ele><time>2026-05-02T16:26:56.468Z</time></trkpt><trkpt lat="40.741244" lon="17.4294885"><ele>383.0</ele><time>2026-05-02T16:26:58.467Z</time></trkpt><trkpt lat="40.7412041" lon="17.4295832"><ele>383.0</ele><time>2026-05-02T16:27:00.468Z</time></trkpt><trkpt lat="40.7411676" lon="17.4296784"><ele>383.0</ele><time>2026-05-02T16:27:03.468Z</time></trkpt><trkpt lat="40.7411252" lon="17.4297896"><ele>383.0</ele><time>2026-05-02T16:27:06.468Z</time></trkpt><trkpt lat="40.7410927" lon="17.4298722"><ele>383.0</ele><time>2026-05-02T16:27:08.467Z</time></trkpt><trkpt lat="40.7410592" lon="17.4299484"><ele>383.0</ele><time>2026-05-02T16:27:10.468Z</time></trkpt><trkpt lat="40.7410223" lon="17.4300409"><ele>380.79999999999995</ele><time>2026-05-02T16:27:12.468Z</time></trkpt><trkpt lat="40.740983" lon="17.4301604"><ele>378.6</ele><time>2026-05-02T16:27:14.467Z</time></trkpt><trkpt lat="40.7409396" lon="17.4303034"><ele>376.4</ele><time>2026-05-02T16:27:16.468Z</time></trkpt><trkpt lat="40.7408928" lon="17.4304257"><ele>374.20000000000005</ele><time>2026-05-02T16:27:18.467Z</time></trkpt><trkpt lat="40.7408615" lon="17.4305066"><ele>372.0</ele><time>2026-05-02T16:27:21.468Z</time></trkpt><trkpt lat="40.74081" lon="17.4305985"><ele>371.7142857142857</ele><time>2026-05-02T16:27:26.468Z</time></trkpt><trkpt lat="40.7407936" lon="17.4306849"><ele>371.42857142857144</ele><time>2026-05-02T16:27:28.469Z</time></trkpt><trkpt lat="40.74083" lon="17.430791"><ele>371.1428571428571</ele><time>2026-05-02T16:27:30.468Z</time></trkpt><trkpt lat="40.7408599" lon="17.4309076"><ele>370.8571428571429</ele><time>2026-05-02T16:27:32.469Z</time></trkpt><trkpt lat="40.7408757" lon="17.430989"><ele>370.57142857142856</ele><time>2026-05-02T16:27:33.469Z</time></trkpt><trkpt lat="40.740877" lon="17.4310731"><ele>370.2857142857143</ele><time>2026-05-02T16:27:34.469Z</time></trkpt><trkpt lat="40.7408841" lon="17.4311592"><ele>370.0</ele><time>2026-05-02T16:27:35.468Z</time></trkpt><trkpt lat="40.7408915" lon="17.4312521"><ele>369.16666666666663</ele><time>2026-05-02T16:27:36.468Z</time></trkpt><trkpt lat="40.7409016" lon="17.4313486"><ele>368.3333333333333</ele><time>2026-05-02T16:27:37.468Z</time></trkpt><trkpt lat="40.740901" lon="17.4314655"><ele>367.5</ele><time>2026-05-02T16:27:38.467Z</time></trkpt><trkpt lat="40.7409114" lon="17.4315735"><ele>366.6666666666667</ele><time>2026-05-02T16:27:39.468Z</time></trkpt><trkpt lat="40.7409299" lon="17.4316932"><ele>365.83333333333337</ele><time>2026-05-02T16:27:40.468Z</time></trkpt><trkpt lat="40.7409419" lon="17.4318069"><ele>365.0</ele><time>2026-05-02T16:27:41.468Z</time></trkpt><trkpt lat="40.7409521" lon="17.4319064"><ele>365.00000000000006</ele><time>2026-05-02T16:27:42.468Z</time></trkpt><trkpt lat="40.7409584" lon="17.432002"><ele>365.0</ele><time>2026-05-02T16:27:43.468Z</time></trkpt><trkpt lat="40.7409679" lon="17.4321018"><ele>365.0</ele><time>2026-05-02T16:27:44.469Z</time></trkpt><trkpt lat="40.7409789" lon="17.4321924"><ele>365.0</ele><time>2026-05-02T16:27:45.469Z</time></trkpt><trkpt lat="40.7409846" lon="17.4322827"><ele>365.0</ele><time>2026-05-02T16:27:46.468Z</time></trkpt><trkpt lat="40.7409875" lon="17.4323744"><ele>365.00000000000006</ele><time>2026-05-02T16:27:47.469Z</time></trkpt><trkpt lat="40.7409789" lon="17.432464"><ele>365.0</ele><time>2026-05-02T16:27:48.468Z</time></trkpt><trkpt lat="40.7409629" lon="17.4325563"><ele>364.5</ele><time>2026-05-02T16:27:49.468Z</time></trkpt><trkpt lat="40.7409417" lon="17.4326569"><ele>364.0</ele><time>2026-05-02T16:27:50.469Z</time></trkpt><trkpt lat="40.7409217" lon="17.4327601"><ele>363.5</ele><time>2026-05-02T16:27:51.468Z</time></trkpt><trkpt lat="40.7409017" lon="17.4328642"><ele>363.0</ele><time>2026-05-02T16:27:52.468Z</time></trkpt><trkpt lat="40.740884" lon="17.4329634"><ele>362.5</ele><time>2026-05-02T16:27:53.468Z</time></trkpt><trkpt lat="40.7408667" lon="17.4330563"><ele>362.0</ele><time>2026-05-02T16:27:54.468Z</time></trkpt><trkpt lat="40.7408531" lon="17.4331524"><ele>362.0</ele><time>2026-05-02T16:27:55.468Z</time></trkpt><trkpt lat="40.7408535" lon="17.4332459"><ele>362.0</ele><time>2026-05-02T16:27:56.468Z</time></trkpt><trkpt lat="40.7408798" lon="17.4333273"><ele>362.0</ele><time>2026-05-02T16:27:57.467Z</time></trkpt><trkpt lat="40.7409383" lon="17.4334239"><ele>362.0</ele><time>2026-05-02T16:27:58.468Z</time></trkpt><trkpt lat="40.7409742" lon="17.433505"><ele>362.0</ele><time>2026-05-02T16:27:59.468Z</time></trkpt><trkpt lat="40.7410169" lon="17.4335932"><ele>362.0</ele><time>2026-05-02T16:28:00.468Z</time></trkpt><trkpt lat="40.7410602" lon="17.4336806"><ele>361.20000000000005</ele><time>2026-05-02T16:28:01.468Z</time></trkpt><trkpt lat="40.7411092" lon="17.4337854"><ele>360.4</ele><time>2026-05-02T16:28:02.467Z</time></trkpt><trkpt lat="40.7411548" lon="17.4338931"><ele>359.6</ele><time>2026-05-02T16:28:03.468Z</time></trkpt><trkpt lat="40.7412029" lon="17.4340074"><ele>358.79999999999995</ele><time>2026-05-02T16:28:04.468Z</time></trkpt><trkpt lat="40.7412541" lon="17.4341277"><ele>358.0</ele><time>2026-05-02T16:28:05.467Z</time></trkpt><trkpt lat="40.7413054" lon="17.4342562"><ele>358.0</ele><time>2026-05-02T16:28:06.469Z</time></trkpt><trkpt lat="40.7413518" lon="17.4343941"><ele>358.0</ele><time>2026-05-02T16:28:07.468Z</time></trkpt><trkpt lat="40.7413935" lon="17.4345378"><ele>358.0</ele><time>2026-05-02T16:28:08.468Z</time></trkpt><trkpt lat="40.7414281" lon="17.4346957"><ele>358.0</ele><time>2026-05-02T16:28:09.467Z</time></trkpt><trkpt lat="40.7414644" lon="17.4348543"><ele>357.5</ele><time>2026-05-02T16:28:10.467Z</time></trkpt><trkpt lat="40.7414971" lon="17.4350165"><ele>357.0</ele><time>2026-05-02T16:28:11.468Z</time></trkpt><trkpt lat="40.7415281" lon="17.4351801"><ele>356.5</ele><time>2026-05-02T16:28:12.469Z</time></trkpt><trkpt lat="40.7415568" lon="17.4353488"><ele>356.0</ele><time>2026-05-02T16:28:13.468Z</time></trkpt><trkpt lat="40.7415846" lon="17.4355232"><ele>355.0</ele><time>2026-05-02T16:28:14.469Z</time></trkpt><trkpt lat="40.7416108" lon="17.4356937"><ele>354.0</ele><time>2026-05-02T16:28:15.467Z</time></trkpt><trkpt lat="40.74164" lon="17.4358551"><ele>353.0</ele><time>2026-05-02T16:28:16.469Z</time></trkpt><trkpt lat="40.7416614" lon="17.4360143"><ele>352.0</ele><time>2026-05-02T16:28:17.468Z</time></trkpt><trkpt lat="40.7416813" lon="17.4361622"><ele>352.0</ele><time>2026-05-02T16:28:18.469Z</time></trkpt><trkpt lat="40.7417018" lon="17.4363003"><ele>352.0</ele><time>2026-05-02T16:28:19.468Z</time></trkpt><trkpt lat="40.7417154" lon="17.4364313"><ele>352.0</ele><time>2026-05-02T16:28:20.468Z</time></trkpt><trkpt lat="40.7417141" lon="17.4365562"><ele>352.0</ele><time>2026-05-02T16:28:21.467Z</time></trkpt><trkpt lat="40.7417032" lon="17.4366789"><ele>352.0</ele><time>2026-05-02T16:28:22.469Z</time></trkpt><trkpt lat="40.7416816" lon="17.436796"><ele>352.0</ele><time>2026-05-02T16:28:23.469Z</time></trkpt><trkpt lat="40.7416563" lon="17.4369019"><ele>352.0</ele><time>2026-05-02T16:28:24.468Z</time></trkpt><trkpt lat="40.7416388" lon="17.4370095"><ele>352.0</ele><time>2026-05-02T16:28:25.468Z</time></trkpt><trkpt lat="40.7416432" lon="17.4371213"><ele>352.0</ele><time>2026-05-02T16:28:26.469Z</time></trkpt><trkpt lat="40.7416787" lon="17.437228"><ele>352.0</ele><time>2026-05-02T16:28:27.469Z</time></trkpt><trkpt lat="40.7417311" lon="17.4373286"><ele>352.0</ele><time>2026-05-02T16:28:28.468Z</time></trkpt><trkpt lat="40.7417918" lon="17.437436"><ele>351.6</ele><time>2026-05-02T16:28:29.468Z</time></trkpt><trkpt lat="40.7418353" lon="17.4375542"><ele>351.20000000000005</ele><time>2026-05-02T16:28:30.468Z</time></trkpt><trkpt lat="40.7418689" lon="17.437682"><ele>350.8</ele><time>2026-05-02T16:28:31.468Z</time></trkpt><trkpt lat="40.741904" lon="17.4378246"><ele>350.4</ele><time>2026-05-02T16:28:32.468Z</time></trkpt><trkpt lat="40.7419311" lon="17.437977"><ele>350.0</ele><time>2026-05-02T16:28:33.469Z</time></trkpt><trkpt lat="40.7419523" lon="17.4381376"><ele>348.75</ele><time>2026-05-02T16:28:34.467Z</time></trkpt><trkpt lat="40.7419774" lon="17.4383051"><ele>347.5</ele><time>2026-05-02T16:28:35.468Z</time></trkpt><trkpt lat="40.7420034" lon="17.438483"><ele>346.25</ele><time>2026-05-02T16:28:36.467Z</time></trkpt><trkpt lat="40.7420202" lon="17.4386591"><ele>345.0</ele><time>2026-05-02T16:28:37.468Z</time></trkpt><trkpt lat="40.7420308" lon="17.4388478"><ele>342.6666666666667</ele><time>2026-05-02T16:28:38.469Z</time></trkpt><trkpt lat="40.7420244" lon="17.4390439"><ele>340.33333333333337</ele><time>2026-05-02T16:28:39.468Z</time></trkpt><trkpt lat="40.7420043" lon="17.4392511"><ele>338.0</ele><time>2026-05-02T16:28:40.467Z</time></trkpt><trkpt lat="40.7419654" lon="17.43947"><ele>338.6666666666667</ele><time>2026-05-02T16:28:41.468Z</time></trkpt><trkpt lat="40.7419155" lon="17.4396973"><ele>339.3333333333333</ele><time>2026-05-02T16:28:42.468Z</time></trkpt><trkpt lat="40.7418546" lon="17.4399317"><ele>340.0</ele><time>2026-05-02T16:28:43.468Z</time></trkpt><trkpt lat="40.7417963" lon="17.4401696"><ele>340.0</ele><time>2026-05-02T16:28:44.468Z</time></trkpt><trkpt lat="40.7417428" lon="17.440407"><ele>340.0</ele><time>2026-05-02T16:28:45.468Z</time></trkpt><trkpt lat="40.7416856" lon="17.4406373"><ele>340.0</ele><time>2026-05-02T16:28:46.468Z</time></trkpt><trkpt lat="40.7416311" lon="17.440872"><ele>337.66666666666663</ele><time>2026-05-02T16:28:47.467Z</time></trkpt><trkpt lat="40.7416008" lon="17.4411123"><ele>335.3333333333333</ele><time>2026-05-02T16:28:48.469Z</time></trkpt><trkpt lat="40.7415897" lon="17.4413546"><ele>333.0</ele><time>2026-05-02T16:28:49.468Z</time></trkpt><trkpt lat="40.7415849" lon="17.441594"><ele>332.3333333333333</ele><time>2026-05-02T16:28:50.468Z</time></trkpt><trkpt lat="40.7415782" lon="17.4418433"><ele>331.66666666666663</ele><time>2026-05-02T16:28:51.469Z</time></trkpt><trkpt lat="40.7415514" lon="17.4420836"><ele>331.0</ele><time>2026-05-02T16:28:52.468Z</time></trkpt><trkpt lat="40.7415064" lon="17.4423145"><ele>330.0</ele><time>2026-05-02T16:28:53.469Z</time></trkpt><trkpt lat="40.7414529" lon="17.4425321"><ele>329.0</ele><time>2026-05-02T16:28:54.468Z</time></trkpt><trkpt lat="40.741411" lon="17.442745"><ele>328.0</ele><time>2026-05-02T16:28:55.467Z</time></trkpt><trkpt lat="40.74138" lon="17.4429524"><ele>328.25</ele><time>2026-05-02T16:28:56.467Z</time></trkpt><trkpt lat="40.7413412" lon="17.4431472"><ele>328.5</ele><time>2026-05-02T16:28:57.468Z</time></trkpt><trkpt lat="40.7412895" lon="17.4433251"><ele>328.75</ele><time>2026-05-02T16:28:58.468Z</time></trkpt><trkpt lat="40.7412159" lon="17.4434848"><ele>329.0</ele><time>2026-05-02T16:28:59.467Z</time></trkpt><trkpt lat="40.7411306" lon="17.4436339"><ele>329.25</ele><time>2026-05-02T16:29:00.467Z</time></trkpt><trkpt lat="40.7410263" lon="17.4437626"><ele>329.5</ele><time>2026-05-02T16:29:01.469Z</time></trkpt><trkpt lat="40.7409189" lon="17.4438855"><ele>329.75</ele><time>2026-05-02T16:29:02.468Z</time></trkpt><trkpt lat="40.7408153" lon="17.4440184"><ele>330.0</ele><time>2026-05-02T16:29:03.468Z</time></trkpt><trkpt lat="40.7407254" lon="17.4441672"><ele>330.0</ele><time>2026-05-02T16:29:04.468Z</time></trkpt><trkpt lat="40.7406499" lon="17.4443428"><ele>330.0</ele><time>2026-05-02T16:29:05.469Z</time></trkpt><trkpt lat="40.7405987" lon="17.4445343"><ele>330.0</ele><time>2026-05-02T16:29:06.467Z</time></trkpt><trkpt lat="40.7405629" lon="17.4447347"><ele>328.0</ele><time>2026-05-02T16:29:07.468Z</time></trkpt><trkpt lat="40.740532" lon="17.4449347"><ele>326.0</ele><time>2026-05-02T16:29:08.468Z</time></trkpt><trkpt lat="40.7405099" lon="17.445142"><ele>324.0</ele><time>2026-05-02T16:29:09.468Z</time></trkpt><trkpt lat="40.7405048" lon="17.4453517"><ele>323.0</ele><time>2026-05-02T16:29:10.468Z</time></trkpt><trkpt lat="40.7405129" lon="17.4455592"><ele>322.0</ele><time>2026-05-02T16:29:11.468Z</time></trkpt><trkpt lat="40.7405303" lon="17.4457688"><ele>321.0</ele><time>2026-05-02T16:29:12.468Z</time></trkpt><trkpt lat="40.7405492" lon="17.4459772"><ele>321.0</ele><time>2026-05-02T16:29:13.468Z</time></trkpt><trkpt lat="40.7405624" lon="17.4461873"><ele>321.0</ele><time>2026-05-02T16:29:14.468Z</time></trkpt><trkpt lat="40.740574" lon="17.4463911"><ele>321.0</ele><time>2026-05-02T16:29:15.467Z</time></trkpt><trkpt lat="40.7405728" lon="17.4465938"><ele>319.3333333333333</ele><time>2026-05-02T16:29:16.468Z</time></trkpt><trkpt lat="40.7405442" lon="17.4467979"><ele>317.66666666666663</ele><time>2026-05-02T16:29:17.468Z</time></trkpt><trkpt lat="40.7405082" lon="17.4470019"><ele>316.0</ele><time>2026-05-02T16:29:18.469Z</time></trkpt><trkpt lat="40.7404645" lon="17.4472138"><ele>314.3333333333333</ele><time>2026-05-02T16:29:19.467Z</time></trkpt><trkpt lat="40.7404182" lon="17.4474281"><ele>312.6666666666667</ele><time>2026-05-02T16:29:20.466Z</time></trkpt><trkpt lat="40.7403756" lon="17.4476454"><ele>311.0</ele><time>2026-05-02T16:29:21.468Z</time></trkpt><trkpt lat="40.7403377" lon="17.4478654"><ele>310.0</ele><time>2026-05-02T16:29:22.466Z</time></trkpt><trkpt lat="40.7403112" lon="17.4480914"><ele>309.0</ele><time>2026-05-02T16:29:23.466Z</time></trkpt><trkpt lat="40.7402846" lon="17.4483216"><ele>308.0</ele><time>2026-05-02T16:29:24.467Z</time></trkpt><trkpt lat="40.7402647" lon="17.4485519"><ele>308.0</ele><time>2026-05-02T16:29:25.467Z</time></trkpt><trkpt lat="40.7402479" lon="17.4487867"><ele>308.0</ele><time>2026-05-02T16:29:26.467Z</time></trkpt><trkpt lat="40.7402372" lon="17.4490283"><ele>308.0</ele><time>2026-05-02T16:29:27.467Z</time></trkpt><trkpt lat="40.7402203" lon="17.4492612"><ele>308.33333333333337</ele><time>2026-05-02T16:29:28.466Z</time></trkpt><trkpt lat="40.7402055" lon="17.4494985"><ele>308.6666666666667</ele><time>2026-05-02T16:29:29.468Z</time></trkpt><trkpt lat="40.7401888" lon="17.4497331"><ele>309.0</ele><time>2026-05-02T16:29:30.467Z</time></trkpt><trkpt lat="40.7401702" lon="17.4499636"><ele>309.0</ele><time>2026-05-02T16:29:31.467Z</time></trkpt><trkpt lat="40.7401509" lon="17.4501873"><ele>309.0</ele><time>2026-05-02T16:29:32.467Z</time></trkpt><trkpt lat="40.7401273" lon="17.4504062"><ele>309.0</ele><time>2026-05-02T16:29:33.466Z</time></trkpt><trkpt lat="40.7401086" lon="17.4506256"><ele>309.0</ele><time>2026-05-02T16:29:34.468Z</time></trkpt><trkpt lat="40.7400858" lon="17.4508389"><ele>309.0</ele><time>2026-05-02T16:29:35.467Z</time></trkpt><trkpt lat="40.740063" lon="17.451052"><ele>309.0</ele><time>2026-05-02T16:29:36.468Z</time></trkpt><trkpt lat="40.7400421" lon="17.4512599"><ele>309.0</ele><time>2026-05-02T16:29:37.468Z</time></trkpt><trkpt lat="40.7400158" lon="17.4514677"><ele>309.0</ele><time>2026-05-02T16:29:38.467Z</time></trkpt><trkpt lat="40.7399945" lon="17.4516742"><ele>309.0</ele><time>2026-05-02T16:29:39.467Z</time></trkpt><trkpt lat="40.7399765" lon="17.4518768"><ele>309.0</ele><time>2026-05-02T16:29:40.467Z</time></trkpt><trkpt lat="40.739959" lon="17.4520813"><ele>309.0</ele><time>2026-05-02T16:29:41.467Z</time></trkpt><trkpt lat="40.7399513" lon="17.4522808"><ele>309.0</ele><time>2026-05-02T16:29:42.466Z</time></trkpt><trkpt lat="40.7399513" lon="17.4524769"><ele>308.75</ele><time>2026-05-02T16:29:43.467Z</time></trkpt><trkpt lat="40.7399545" lon="17.4526651"><ele>308.5</ele><time>2026-05-02T16:29:44.467Z</time></trkpt><trkpt lat="40.7399582" lon="17.4528608"><ele>308.25</ele><time>2026-05-02T16:29:45.467Z</time></trkpt><trkpt lat="40.7399376" lon="17.4530404"><ele>308.0</ele><time>2026-05-02T16:29:46.468Z</time></trkpt><trkpt lat="40.7399061" lon="17.4532113"><ele>306.75</ele><time>2026-05-02T16:29:47.467Z</time></trkpt><trkpt lat="40.7398688" lon="17.4533788"><ele>305.5</ele><time>2026-05-02T16:29:48.467Z</time></trkpt><trkpt lat="40.7398254" lon="17.45355"><ele>304.25</ele><time>2026-05-02T16:29:49.467Z</time></trkpt><trkpt lat="40.739785" lon="17.4537143"><ele>303.0</ele><time>2026-05-02T16:29:50.467Z</time></trkpt><trkpt lat="40.7397443" lon="17.4538752"><ele>301.75</ele><time>2026-05-02T16:29:51.467Z</time></trkpt><trkpt lat="40.7397074" lon="17.4540341"><ele>300.5</ele><time>2026-05-02T16:29:52.468Z</time></trkpt><trkpt lat="40.7396855" lon="17.4541877"><ele>299.25</ele><time>2026-05-02T16:29:53.467Z</time></trkpt><trkpt lat="40.7396659" lon="17.4543351"><ele>298.0</ele><time>2026-05-02T16:29:54.467Z</time></trkpt><trkpt lat="40.7397027" lon="17.4545061"><ele>297.25</ele><time>2026-05-02T16:29:55.467Z</time></trkpt><trkpt lat="40.7397491" lon="17.4546693"><ele>296.5</ele><time>2026-05-02T16:29:56.467Z</time></trkpt><trkpt lat="40.7397966" lon="17.4548179"><ele>295.75</ele><time>2026-05-02T16:29:57.467Z</time></trkpt><trkpt lat="40.7398657" lon="17.454965"><ele>295.0</ele><time>2026-05-02T16:29:58.466Z</time></trkpt><trkpt lat="40.7399443" lon="17.4551002"><ele>295.0</ele><time>2026-05-02T16:29:59.467Z</time></trkpt><trkpt lat="40.7400323" lon="17.4552302"><ele>295.0</ele><time>2026-05-02T16:30:00.468Z</time></trkpt><trkpt lat="40.7401248" lon="17.4553631"><ele>295.0</ele><time>2026-05-02T16:30:01.468Z</time></trkpt><trkpt lat="40.7402201" lon="17.4554976"><ele>295.0</ele><time>2026-05-02T16:30:02.467Z</time></trkpt><trkpt lat="40.7403211" lon="17.4556287"><ele>294.5</ele><time>2026-05-02T16:30:03.467Z</time></trkpt><trkpt lat="40.7404103" lon="17.4557593"><ele>294.0</ele><time>2026-05-02T16:30:04.467Z</time></trkpt><trkpt lat="40.7405014" lon="17.4558844"><ele>293.5</ele><time>2026-05-02T16:30:05.468Z</time></trkpt><trkpt lat="40.7405926" lon="17.4560155"><ele>293.0</ele><time>2026-05-02T16:30:06.468Z</time></trkpt><trkpt lat="40.740686" lon="17.4561422"><ele>293.0</ele><time>2026-05-02T16:30:07.468Z</time></trkpt><trkpt lat="40.7407776" lon="17.45627"><ele>293.0</ele><time>2026-05-02T16:30:08.466Z</time></trkpt><trkpt lat="40.7408661" lon="17.4563928"><ele>293.0</ele><time>2026-05-02T16:30:09.467Z</time></trkpt><trkpt lat="40.7409578" lon="17.4565129"><ele>293.0</ele><time>2026-05-02T16:30:10.466Z</time></trkpt><trkpt lat="40.7410475" lon="17.4566313"><ele>294.5</ele><time>2026-05-02T16:30:11.467Z</time></trkpt><trkpt lat="40.7411291" lon="17.4567454"><ele>296.0</ele><time>2026-05-02T16:30:12.467Z</time></trkpt><trkpt lat="40.7411988" lon="17.4568646"><ele>297.5</ele><time>2026-05-02T16:30:13.466Z</time></trkpt><trkpt lat="40.7412549" lon="17.4569945"><ele>299.0</ele><time>2026-05-02T16:30:14.466Z</time></trkpt><trkpt lat="40.7412949" lon="17.4571413"><ele>299.25</ele><time>2026-05-02T16:30:15.467Z</time></trkpt><trkpt lat="40.7413134" lon="17.4573015"><ele>299.5</ele><time>2026-05-02T16:30:16.468Z</time></trkpt><trkpt lat="40.7413194" lon="17.4574632"><ele>299.75</ele><time>2026-05-02T16:30:17.468Z</time></trkpt><trkpt lat="40.7413027" lon="17.4576283"><ele>300.0</ele><time>2026-05-02T16:30:18.466Z</time></trkpt><trkpt lat="40.74126" lon="17.4577874"><ele>300.0</ele><time>2026-05-02T16:30:19.467Z</time></trkpt><trkpt lat="40.7411994" lon="17.4579386"><ele>300.0</ele><time>2026-05-02T16:30:20.468Z</time></trkpt><trkpt lat="40.7411324" lon="17.4580716"><ele>300.0</ele><time>2026-05-02T16:30:21.468Z</time></trkpt><trkpt lat="40.7410584" lon="17.4582058"><ele>300.0</ele><time>2026-05-02T16:30:22.468Z</time></trkpt><trkpt lat="40.7409917" lon="17.4583315"><ele>300.0</ele><time>2026-05-02T16:30:23.467Z</time></trkpt><trkpt lat="40.7409242" lon="17.4584549"><ele>300.0</ele><time>2026-05-02T16:30:24.467Z</time></trkpt><trkpt lat="40.7408574" lon="17.4585741"><ele>300.0</ele><time>2026-05-02T16:30:25.467Z</time></trkpt><trkpt lat="40.740794" lon="17.458693"><ele>300.0</ele><time>2026-05-02T16:30:26.468Z</time></trkpt><trkpt lat="40.7407334" lon="17.4588023"><ele>300.0</ele><time>2026-05-02T16:30:27.467Z</time></trkpt><trkpt lat="40.7406799" lon="17.4589076"><ele>301.4</ele><time>2026-05-02T16:30:28.467Z</time></trkpt><trkpt lat="40.7406144" lon="17.4590154"><ele>302.8</ele><time>2026-05-02T16:30:29.467Z</time></trkpt><trkpt lat="40.740556" lon="17.4591209"><ele>304.2</ele><time>2026-05-02T16:30:30.467Z</time></trkpt><trkpt lat="40.740493" lon="17.4592309"><ele>305.6</ele><time>2026-05-02T16:30:31.467Z</time></trkpt><trkpt lat="40.7404262" lon="17.4593399"><ele>307.0</ele><time>2026-05-02T16:30:32.467Z</time></trkpt><trkpt lat="40.7403582" lon="17.4594513"><ele>307.0</ele><time>2026-05-02T16:30:33.467Z</time></trkpt><trkpt lat="40.7402874" lon="17.4595592"><ele>307.0</ele><time>2026-05-02T16:30:34.467Z</time></trkpt><trkpt lat="40.7402071" lon="17.4596722"><ele>307.0</ele><time>2026-05-02T16:30:35.467Z</time></trkpt><trkpt lat="40.7401201" lon="17.459781"><ele>307.0</ele><time>2026-05-02T16:30:36.466Z</time></trkpt><trkpt lat="40.7400319" lon="17.4598822"><ele>308.0</ele><time>2026-05-02T16:30:37.467Z</time></trkpt><trkpt lat="40.7399498" lon="17.4599867"><ele>309.0</ele><time>2026-05-02T16:30:38.467Z</time></trkpt><trkpt lat="40.739876" lon="17.4601006"><ele>310.0</ele><time>2026-05-02T16:30:39.467Z</time></trkpt><trkpt lat="40.7398144" lon="17.4602324"><ele>311.0</ele><time>2026-05-02T16:30:40.468Z</time></trkpt><trkpt lat="40.739769" lon="17.4603776"><ele>309.75</ele><time>2026-05-02T16:30:41.467Z</time></trkpt><trkpt lat="40.7397358" lon="17.4605348"><ele>308.5</ele><time>2026-05-02T16:30:42.466Z</time></trkpt><trkpt lat="40.7397292" lon="17.4607016"><ele>307.25</ele><time>2026-05-02T16:30:43.467Z</time></trkpt><trkpt lat="40.7397339" lon="17.4608707"><ele>306.0</ele><time>2026-05-02T16:30:44.467Z</time></trkpt><trkpt lat="40.7397653" lon="17.4610516"><ele>306.0</ele><time>2026-05-02T16:30:45.468Z</time></trkpt><trkpt lat="40.7397928" lon="17.4612296"><ele>306.0</ele><time>2026-05-02T16:30:46.467Z</time></trkpt><trkpt lat="40.7398127" lon="17.4614085"><ele>306.0</ele><time>2026-05-02T16:30:47.467Z</time></trkpt><trkpt lat="40.7398184" lon="17.461587"><ele>306.0</ele><time>2026-05-02T16:30:48.467Z</time></trkpt><trkpt lat="40.7397989" lon="17.4617574"><ele>305.75</ele><time>2026-05-02T16:30:49.468Z</time></trkpt><trkpt lat="40.7397551" lon="17.4619184"><ele>305.5</ele><time>2026-05-02T16:30:50.467Z</time></trkpt><trkpt lat="40.7397092" lon="17.4620736"><ele>305.25</ele><time>2026-05-02T16:30:51.467Z</time></trkpt><trkpt lat="40.7396546" lon="17.4622364"><ele>305.0</ele><time>2026-05-02T16:30:52.466Z</time></trkpt><trkpt lat="40.7396085" lon="17.4624019"><ele>305.0</ele><time>2026-05-02T16:30:53.466Z</time></trkpt><trkpt lat="40.7395805" lon="17.4625647"><ele>305.0</ele><time>2026-05-02T16:30:54.467Z</time></trkpt><trkpt lat="40.739572" lon="17.462729"><ele>305.0</ele><time>2026-05-02T16:30:55.467Z</time></trkpt><trkpt lat="40.7395823" lon="17.4628876"><ele>305.0</ele><time>2026-05-02T16:30:56.467Z</time></trkpt><trkpt lat="40.7396063" lon="17.4630428"><ele>305.75</ele><time>2026-05-02T16:30:57.467Z</time></trkpt><trkpt lat="40.7396187" lon="17.463199"><ele>306.5</ele><time>2026-05-02T16:30:58.468Z</time></trkpt><trkpt lat="40.7396259" lon="17.463349"><ele>307.25</ele><time>2026-05-02T16:30:59.468Z</time></trkpt><trkpt lat="40.7396061" lon="17.4635087"><ele>308.0</ele><time>2026-05-02T16:31:00.467Z</time></trkpt><trkpt lat="40.7395744" lon="17.4636636"><ele>308.25</ele><time>2026-05-02T16:31:01.468Z</time></trkpt><trkpt lat="40.7395266" lon="17.4638106"><ele>308.5</ele><time>2026-05-02T16:31:02.467Z</time></trkpt><trkpt lat="40.7394766" lon="17.4639547"><ele>308.75</ele><time>2026-05-02T16:31:03.467Z</time></trkpt><trkpt lat="40.739431" lon="17.4640989"><ele>309.0</ele><time>2026-05-02T16:31:04.467Z</time></trkpt><trkpt lat="40.739388" lon="17.4642434"><ele>308.25</ele><time>2026-05-02T16:31:05.467Z</time></trkpt><trkpt lat="40.7393434" lon="17.4643864"><ele>307.5</ele><time>2026-05-02T16:31:06.466Z</time></trkpt><trkpt lat="40.7393133" lon="17.4645381"><ele>306.75</ele><time>2026-05-02T16:31:07.467Z</time></trkpt><trkpt lat="40.7392986" lon="17.4646979"><ele>306.0</ele><time>2026-05-02T16:31:08.467Z</time></trkpt><trkpt lat="40.7393051" lon="17.4648768"><ele>306.0</ele><time>2026-05-02T16:31:09.468Z</time></trkpt><trkpt lat="40.7393058" lon="17.4650488"><ele>306.0</ele><time>2026-05-02T16:31:10.466Z</time></trkpt><trkpt lat="40.7393083" lon="17.4652191"><ele>306.0</ele><time>2026-05-02T16:31:11.467Z</time></trkpt><trkpt lat="40.7393138" lon="17.4653997"><ele>306.0</ele><time>2026-05-02T16:31:12.468Z</time></trkpt><trkpt lat="40.7393147" lon="17.4655724"><ele>304.25</ele><time>2026-05-02T16:31:13.467Z</time></trkpt><trkpt lat="40.7393168" lon="17.4657443"><ele>302.5</ele><time>2026-05-02T16:31:14.467Z</time></trkpt><trkpt lat="40.7393159" lon="17.4659055"><ele>300.75</ele><time>2026-05-02T16:31:15.466Z</time></trkpt><trkpt lat="40.7393212" lon="17.466057"><ele>299.0</ele><time>2026-05-02T16:31:16.468Z</time></trkpt><trkpt lat="40.7393323" lon="17.4661999"><ele>298.2</ele><time>2026-05-02T16:31:17.467Z</time></trkpt><trkpt lat="40.7393414" lon="17.4663393"><ele>297.4</ele><time>2026-05-02T16:31:18.466Z</time></trkpt><trkpt lat="40.739358" lon="17.4664686"><ele>296.6</ele><time>2026-05-02T16:31:19.468Z</time></trkpt><trkpt lat="40.7393736" lon="17.4665996"><ele>295.8</ele><time>2026-05-02T16:31:20.467Z</time></trkpt><trkpt lat="40.7393838" lon="17.4667274"><ele>295.0</ele><time>2026-05-02T16:31:21.467Z</time></trkpt><trkpt lat="40.7393831" lon="17.4668651"><ele>295.0</ele><time>2026-05-02T16:31:22.468Z</time></trkpt><trkpt lat="40.7393513" lon="17.4670006"><ele>295.0</ele><time>2026-05-02T16:31:23.468Z</time></trkpt><trkpt lat="40.7393254" lon="17.4671369"><ele>295.0</ele><time>2026-05-02T16:31:24.467Z</time></trkpt><trkpt lat="40.7392898" lon="17.467276"><ele>295.0</ele><time>2026-05-02T16:31:25.467Z</time></trkpt><trkpt lat="40.7392652" lon="17.4674136"><ele>295.0</ele><time>2026-05-02T16:31:26.466Z</time></trkpt><trkpt lat="40.7392333" lon="17.4675534"><ele>294.6</ele><time>2026-05-02T16:31:27.466Z</time></trkpt><trkpt lat="40.7392075" lon="17.4676969"><ele>294.2</ele><time>2026-05-02T16:31:28.467Z</time></trkpt><trkpt lat="40.7391904" lon="17.4678428"><ele>293.8</ele><time>2026-05-02T16:31:29.467Z</time></trkpt><trkpt lat="40.7391806" lon="17.467979"><ele>293.4</ele><time>2026-05-02T16:31:30.467Z</time></trkpt><trkpt lat="40.739176" lon="17.4681132"><ele>293.0</ele><time>2026-05-02T16:31:31.466Z</time></trkpt><trkpt lat="40.739178" lon="17.4682415"><ele>292.83333333333337</ele><time>2026-05-02T16:31:32.468Z</time></trkpt><trkpt lat="40.7391724" lon="17.4683616"><ele>292.6666666666667</ele><time>2026-05-02T16:31:33.467Z</time></trkpt><trkpt lat="40.7391571" lon="17.46848"><ele>292.5</ele><time>2026-05-02T16:31:34.467Z</time></trkpt><trkpt lat="40.7391298" lon="17.4685888"><ele>292.3333333333333</ele><time>2026-05-02T16:31:35.467Z</time></trkpt><trkpt lat="40.7390933" lon="17.4686921"><ele>292.16666666666663</ele><time>2026-05-02T16:31:36.467Z</time></trkpt><trkpt lat="40.7390469" lon="17.4687899"><ele>292.0</ele><time>2026-05-02T16:31:37.466Z</time></trkpt><trkpt lat="40.7389938" lon="17.4688735"><ele>292.3333333333333</ele><time>2026-05-02T16:31:38.467Z</time></trkpt><trkpt lat="40.7389435" lon="17.4689538"><ele>292.66666666666663</ele><time>2026-05-02T16:31:39.466Z</time></trkpt><trkpt lat="40.7388959" lon="17.4690294"><ele>293.0</ele><time>2026-05-02T16:31:40.467Z</time></trkpt><trkpt lat="40.7388482" lon="17.4691054"><ele>293.3333333333333</ele><time>2026-05-02T16:31:41.468Z</time></trkpt><trkpt lat="40.7388051" lon="17.4691806"><ele>293.6666666666667</ele><time>2026-05-02T16:31:42.467Z</time></trkpt><trkpt lat="40.7387638" lon="17.4692632"><ele>294.0</ele><time>2026-05-02T16:31:43.468Z</time></trkpt><trkpt lat="40.7387214" lon="17.4693466"><ele>294.0</ele><time>2026-05-02T16:31:44.467Z</time></trkpt><trkpt lat="40.7386856" lon="17.4694326"><ele>294.0</ele><time>2026-05-02T16:31:45.467Z</time></trkpt><trkpt lat="40.7386571" lon="17.4695147"><ele>294.0</ele><time>2026-05-02T16:31:46.467Z</time></trkpt><trkpt lat="40.7386265" lon="17.4696026"><ele>294.0</ele><time>2026-05-02T16:31:47.466Z</time></trkpt><trkpt lat="40.7385978" lon="17.4696922"><ele>294.0</ele><time>2026-05-02T16:31:48.467Z</time></trkpt><trkpt lat="40.7385678" lon="17.4697767"><ele>294.0</ele><time>2026-05-02T16:31:49.467Z</time></trkpt><trkpt lat="40.7385437" lon="17.469857"><ele>294.0</ele><time>2026-05-02T16:31:50.468Z</time></trkpt><trkpt lat="40.7385183" lon="17.4699366"><ele>294.8333333333333</ele><time>2026-05-02T16:31:51.466Z</time></trkpt><trkpt lat="40.7384939" lon="17.4700222"><ele>295.6666666666667</ele><time>2026-05-02T16:31:52.467Z</time></trkpt><trkpt lat="40.7384633" lon="17.4701054"><ele>296.5</ele><time>2026-05-02T16:31:53.468Z</time></trkpt><trkpt lat="40.7384309" lon="17.4701859"><ele>297.33333333333337</ele><time>2026-05-02T16:31:54.467Z</time></trkpt><trkpt lat="40.7383987" lon="17.4702676"><ele>298.1666666666667</ele><time>2026-05-02T16:31:55.467Z</time></trkpt><trkpt lat="40.7383715" lon="17.4703458"><ele>299.0</ele><time>2026-05-02T16:31:56.467Z</time></trkpt><trkpt lat="40.7383255" lon="17.4705004"><ele>299.2857142857143</ele><time>2026-05-02T16:31:58.468Z</time></trkpt><trkpt lat="40.7382993" lon="17.4705822"><ele>299.57142857142856</ele><time>2026-05-02T16:31:59.466Z</time></trkpt><trkpt lat="40.7382741" lon="17.4706693"><ele>299.8571428571429</ele><time>2026-05-02T16:32:00.467Z</time></trkpt><trkpt lat="40.7382485" lon="17.4707604"><ele>300.1428571428571</ele><time>2026-05-02T16:32:01.467Z</time></trkpt><trkpt lat="40.7382239" lon="17.4708567"><ele>300.42857142857144</ele><time>2026-05-02T16:32:02.467Z</time></trkpt><trkpt lat="40.7381939" lon="17.4709554"><ele>300.7142857142857</ele><time>2026-05-02T16:32:03.467Z</time></trkpt><trkpt lat="40.7381671" lon="17.4710543"><ele>301.0</ele><time>2026-05-02T16:32:04.467Z</time></trkpt><trkpt lat="40.7381382" lon="17.4711494"><ele>301.0</ele><time>2026-05-02T16:32:05.467Z</time></trkpt><trkpt lat="40.7381128" lon="17.4712428"><ele>301.0</ele><time>2026-05-02T16:32:06.467Z</time></trkpt><trkpt lat="40.7380906" lon="17.4713352"><ele>301.0</ele><time>2026-05-02T16:32:07.466Z</time></trkpt><trkpt lat="40.7380699" lon="17.4714278"><ele>301.0</ele><time>2026-05-02T16:32:08.467Z</time></trkpt><trkpt lat="40.7380614" lon="17.4715299"><ele>301.0</ele><time>2026-05-02T16:32:09.467Z</time></trkpt><trkpt lat="40.7380571" lon="17.471641"><ele>301.0</ele><time>2026-05-02T16:32:10.466Z</time></trkpt><trkpt lat="40.738057" lon="17.4717517"><ele>300.6</ele><time>2026-05-02T16:32:11.468Z</time></trkpt><trkpt lat="40.738058" lon="17.4718709"><ele>300.20000000000005</ele><time>2026-05-02T16:32:12.467Z</time></trkpt><trkpt lat="40.7380642" lon="17.4719945"><ele>299.79999999999995</ele><time>2026-05-02T16:32:13.467Z</time></trkpt><trkpt lat="40.738069" lon="17.4721168"><ele>299.4</ele><time>2026-05-02T16:32:14.466Z</time></trkpt><trkpt lat="40.7380704" lon="17.4722411"><ele>299.0</ele><time>2026-05-02T16:32:15.466Z</time></trkpt><trkpt lat="40.7380696" lon="17.4723612"><ele>298.59999999999997</ele><time>2026-05-02T16:32:16.466Z</time></trkpt><trkpt lat="40.7380708" lon="17.4724816"><ele>298.2</ele><time>2026-05-02T16:32:17.466Z</time></trkpt><trkpt lat="40.7380381" lon="17.4725978"><ele>297.79999999999995</ele><time>2026-05-02T16:32:18.466Z</time></trkpt><trkpt lat="40.738018" lon="17.4727211"><ele>297.4</ele><time>2026-05-02T16:32:19.466Z</time></trkpt><trkpt lat="40.7379643" lon="17.4728171"><ele>297.0</ele><time>2026-05-02T16:32:20.465Z</time></trkpt><trkpt lat="40.737914" lon="17.4729248"><ele>297.0</ele><time>2026-05-02T16:32:21.466Z</time></trkpt><trkpt lat="40.7378488" lon="17.4730156"><ele>297.0</ele><time>2026-05-02T16:32:22.466Z</time></trkpt><trkpt lat="40.7377843" lon="17.473102"><ele>297.0</ele><time>2026-05-02T16:32:23.465Z</time></trkpt><trkpt lat="40.7377184" lon="17.473192"><ele>297.0</ele><time>2026-05-02T16:32:24.466Z</time></trkpt><trkpt lat="40.7376621" lon="17.4732926"><ele>297.0</ele><time>2026-05-02T16:32:25.466Z</time></trkpt><trkpt lat="40.7376173" lon="17.4733915"><ele>297.0</ele><time>2026-05-02T16:32:26.466Z</time></trkpt><trkpt lat="40.7375814" lon="17.4734768"><ele>297.0</ele><time>2026-05-02T16:32:27.466Z</time></trkpt><trkpt lat="40.7375512" lon="17.4735514"><ele>297.0</ele><time>2026-05-02T16:32:28.466Z</time></trkpt><trkpt lat="40.7375184" lon="17.4736274"><ele>297.0</ele><time>2026-05-02T16:32:29.467Z</time></trkpt><trkpt lat="40.7374889" lon="17.4737047"><ele>297.0</ele><time>2026-05-02T16:32:30.465Z</time></trkpt><trkpt lat="40.7374617" lon="17.4737835"><ele>297.0</ele><time>2026-05-02T16:32:31.467Z</time></trkpt><trkpt lat="40.7374306" lon="17.4738624"><ele>297.0</ele><time>2026-05-02T16:32:32.465Z</time></trkpt><trkpt lat="40.7373973" lon="17.4739511"><ele>296.5</ele><time>2026-05-02T16:32:33.467Z</time></trkpt><trkpt lat="40.7373617" lon="17.4740434"><ele>296.0</ele><time>2026-05-02T16:32:34.466Z</time></trkpt><trkpt lat="40.7373246" lon="17.4741412"><ele>295.5</ele><time>2026-05-02T16:32:35.466Z</time></trkpt><trkpt lat="40.7372851" lon="17.4742399"><ele>295.0</ele><time>2026-05-02T16:32:36.466Z</time></trkpt><trkpt lat="40.7372493" lon="17.474333"><ele>294.5</ele><time>2026-05-02T16:32:37.465Z</time></trkpt><trkpt lat="40.7372168" lon="17.4744211"><ele>294.0</ele><time>2026-05-02T16:32:38.465Z</time></trkpt><trkpt lat="40.7371619" lon="17.4745642"><ele>293.0</ele><time>2026-05-02T16:32:40.467Z</time></trkpt><trkpt lat="40.7371437" lon="17.4746934"><ele>292.0</ele><time>2026-05-02T16:32:42.467Z</time></trkpt><trkpt lat="40.7371675" lon="17.474788"><ele>291.0</ele><time>2026-05-02T16:32:44.467Z</time></trkpt><trkpt lat="40.7372047" lon="17.4748908"><ele>290.0</ele><time>2026-05-02T16:32:46.466Z</time></trkpt><trkpt lat="40.7372396" lon="17.4750104"><ele>289.0</ele><time>2026-05-02T16:32:48.466Z</time></trkpt><trkpt lat="40.7372643" lon="17.475145"><ele>289.0</ele><time>2026-05-02T16:32:50.465Z</time></trkpt><trkpt lat="40.7372766" lon="17.4752277"><ele>289.0</ele><time>2026-05-02T16:32:51.466Z</time></trkpt><trkpt lat="40.7372855" lon="17.4753957"><ele>289.0</ele><time>2026-05-02T16:32:53.466Z</time></trkpt><trkpt lat="40.7372902" lon="17.4754895"><ele>289.0</ele><time>2026-05-02T16:32:54.467Z</time></trkpt><trkpt lat="40.7372888" lon="17.4755859"><ele>289.0</ele><time>2026-05-02T16:32:55.466Z</time></trkpt><trkpt lat="40.7372789" lon="17.475684"><ele>289.0</ele><time>2026-05-02T16:32:56.467Z</time></trkpt><trkpt lat="40.7372542" lon="17.4757918"><ele>288.2</ele><time>2026-05-02T16:32:57.466Z</time></trkpt><trkpt lat="40.73722" lon="17.4759034"><ele>287.4</ele><time>2026-05-02T16:32:58.466Z</time></trkpt><trkpt lat="40.7371718" lon="17.476024"><ele>286.6</ele><time>2026-05-02T16:32:59.466Z</time></trkpt><trkpt lat="40.7371242" lon="17.476148"><ele>285.8</ele><time>2026-05-02T16:33:00.466Z</time></trkpt><trkpt lat="40.7370696" lon="17.4762741"><ele>285.0</ele><time>2026-05-02T16:33:01.467Z</time></trkpt><trkpt lat="40.7370141" lon="17.4763976"><ele>285.0</ele><time>2026-05-02T16:33:02.466Z</time></trkpt><trkpt lat="40.7369542" lon="17.4765236"><ele>285.0</ele><time>2026-05-02T16:33:03.467Z</time></trkpt><trkpt lat="40.7368841" lon="17.4766452"><ele>285.0</ele><time>2026-05-02T16:33:04.465Z</time></trkpt><trkpt lat="40.7368112" lon="17.47677"><ele>285.0</ele><time>2026-05-02T16:33:05.466Z</time></trkpt><trkpt lat="40.7367388" lon="17.4768853"><ele>285.25</ele><time>2026-05-02T16:33:06.466Z</time></trkpt><trkpt lat="40.7366679" lon="17.4769997"><ele>285.5</ele><time>2026-05-02T16:33:07.466Z</time></trkpt><trkpt lat="40.7365987" lon="17.4771204"><ele>285.75</ele><time>2026-05-02T16:33:08.466Z</time></trkpt><trkpt lat="40.7365285" lon="17.4772436"><ele>286.0</ele><time>2026-05-02T16:33:09.467Z</time></trkpt><trkpt lat="40.7364567" lon="17.4773686"><ele>286.0</ele><time>2026-05-02T16:33:10.466Z</time></trkpt><trkpt lat="40.7363821" lon="17.4774949"><ele>286.0</ele><time>2026-05-02T16:33:11.465Z</time></trkpt><trkpt lat="40.7363081" lon="17.4776283"><ele>286.0</ele><time>2026-05-02T16:33:12.465Z</time></trkpt><trkpt lat="40.7362408" lon="17.4777507"><ele>286.0</ele><time>2026-05-02T16:33:13.466Z</time></trkpt><trkpt lat="40.736175" lon="17.4778968"><ele>286.25</ele><time>2026-05-02T16:33:14.465Z</time></trkpt><trkpt lat="40.7361308" lon="17.4780661"><ele>286.5</ele><time>2026-05-02T16:33:15.466Z</time></trkpt><trkpt lat="40.7360822" lon="17.4782414"><ele>286.75</ele><time>2026-05-02T16:33:16.467Z</time></trkpt><trkpt lat="40.7360589" lon="17.4784152"><ele>287.0</ele><time>2026-05-02T16:33:17.467Z</time></trkpt><trkpt lat="40.7360303" lon="17.478596"><ele>287.0</ele><time>2026-05-02T16:33:18.466Z</time></trkpt><trkpt lat="40.7360047" lon="17.4787742"><ele>287.0</ele><time>2026-05-02T16:33:19.467Z</time></trkpt><trkpt lat="40.7359778" lon="17.4789569"><ele>287.0</ele><time>2026-05-02T16:33:20.466Z</time></trkpt><trkpt lat="40.7359537" lon="17.4791319"><ele>287.0</ele><time>2026-05-02T16:33:21.465Z</time></trkpt><trkpt lat="40.735935" lon="17.4793025"><ele>287.0</ele><time>2026-05-02T16:33:22.465Z</time></trkpt><trkpt lat="40.7359156" lon="17.4794677"><ele>287.0</ele><time>2026-05-02T16:33:23.465Z</time></trkpt><trkpt lat="40.7358914" lon="17.4796325"><ele>287.0</ele><time>2026-05-02T16:33:24.467Z</time></trkpt><trkpt lat="40.7358601" lon="17.4797865"><ele>287.0</ele><time>2026-05-02T16:33:25.466Z</time></trkpt><trkpt lat="40.7358075" lon="17.4799436"><ele>286.0</ele><time>2026-05-02T16:33:26.466Z</time></trkpt><trkpt lat="40.7357383" lon="17.4800858"><ele>285.0</ele><time>2026-05-02T16:33:27.467Z</time></trkpt><trkpt lat="40.7356594" lon="17.4802277"><ele>284.0</ele><time>2026-05-02T16:33:28.465Z</time></trkpt><trkpt lat="40.7355641" lon="17.4803642"><ele>283.0</ele><time>2026-05-02T16:33:29.465Z</time></trkpt><trkpt lat="40.7354643" lon="17.4805002"><ele>282.0</ele><time>2026-05-02T16:33:30.466Z</time></trkpt><trkpt lat="40.7353585" lon="17.4806388"><ele>281.0</ele><time>2026-05-02T16:33:31.465Z</time></trkpt><trkpt lat="40.7352529" lon="17.4807758"><ele>280.0</ele><time>2026-05-02T16:33:32.466Z</time></trkpt><trkpt lat="40.735148" lon="17.4809188"><ele>279.0</ele><time>2026-05-02T16:33:33.466Z</time></trkpt><trkpt lat="40.7350489" lon="17.4810715"><ele>279.0</ele><time>2026-05-02T16:33:34.465Z</time></trkpt><trkpt lat="40.7349585" lon="17.4812367"><ele>279.0</ele><time>2026-05-02T16:33:35.466Z</time></trkpt><trkpt lat="40.734878" lon="17.4814141"><ele>279.0</ele><time>2026-05-02T16:33:36.467Z</time></trkpt><trkpt lat="40.7347977" lon="17.4815934"><ele>277.6666666666667</ele><time>2026-05-02T16:33:37.465Z</time></trkpt><trkpt lat="40.7347194" lon="17.4817725"><ele>276.33333333333337</ele><time>2026-05-02T16:33:38.466Z</time></trkpt><trkpt lat="40.7346421" lon="17.4819473"><ele>275.0</ele><time>2026-05-02T16:33:39.466Z</time></trkpt><trkpt lat="40.7345668" lon="17.4821144"><ele>274.75</ele><time>2026-05-02T16:33:40.466Z</time></trkpt><trkpt lat="40.7344951" lon="17.4822789"><ele>274.5</ele><time>2026-05-02T16:33:41.466Z</time></trkpt><trkpt lat="40.7344309" lon="17.4824408"><ele>274.25</ele><time>2026-05-02T16:33:42.466Z</time></trkpt><trkpt lat="40.734362" lon="17.482593"><ele>274.0</ele><time>2026-05-02T16:33:43.465Z</time></trkpt><trkpt lat="40.7342947" lon="17.4827501"><ele>274.75</ele><time>2026-05-02T16:33:44.466Z</time></trkpt><trkpt lat="40.7342273" lon="17.4829093"><ele>275.5</ele><time>2026-05-02T16:33:45.466Z</time></trkpt><trkpt lat="40.7341584" lon="17.4830681"><ele>276.25</ele><time>2026-05-02T16:33:46.467Z</time></trkpt><trkpt lat="40.7340898" lon="17.48323"><ele>277.0</ele><time>2026-05-02T16:33:47.465Z</time></trkpt><trkpt lat="40.7340211" lon="17.4833879"><ele>277.25</ele><time>2026-05-02T16:33:48.466Z</time></trkpt><trkpt lat="40.7339551" lon="17.4835431"><ele>277.5</ele><time>2026-05-02T16:33:49.467Z</time></trkpt><trkpt lat="40.7338913" lon="17.483691"><ele>277.75</ele><time>2026-05-02T16:33:50.465Z</time></trkpt><trkpt lat="40.7338269" lon="17.483831"><ele>278.0</ele><time>2026-05-02T16:33:51.467Z</time></trkpt><trkpt lat="40.7337485" lon="17.4839802"><ele>278.75</ele><time>2026-05-02T16:33:52.467Z</time></trkpt><trkpt lat="40.7336603" lon="17.4840903"><ele>279.5</ele><time>2026-05-02T16:33:53.466Z</time></trkpt><trkpt lat="40.7335736" lon="17.4842101"><ele>280.25</ele><time>2026-05-02T16:33:54.467Z</time></trkpt><trkpt lat="40.7334832" lon="17.4843353"><ele>281.0</ele><time>2026-05-02T16:33:55.466Z</time></trkpt><trkpt lat="40.7334014" lon="17.4844639"><ele>279.75</ele><time>2026-05-02T16:33:56.466Z</time></trkpt><trkpt lat="40.7333433" lon="17.4846113"><ele>278.5</ele><time>2026-05-02T16:33:57.466Z</time></trkpt><trkpt lat="40.7333063" lon="17.4847668"><ele>277.25</ele><time>2026-05-02T16:33:58.466Z</time></trkpt><trkpt lat="40.7332848" lon="17.4849316"><ele>276.0</ele><time>2026-05-02T16:33:59.465Z</time></trkpt><trkpt lat="40.7332693" lon="17.4851003"><ele>276.0</ele><time>2026-05-02T16:34:00.467Z</time></trkpt><trkpt lat="40.7332508" lon="17.4852751"><ele>276.0</ele><time>2026-05-02T16:34:01.466Z</time></trkpt><trkpt lat="40.733212" lon="17.4854461"><ele>276.0</ele><time>2026-05-02T16:34:02.465Z</time></trkpt><trkpt lat="40.7331655" lon="17.485618"><ele>276.0</ele><time>2026-05-02T16:34:03.466Z</time></trkpt><trkpt lat="40.7331163" lon="17.4857884"><ele>276.0</ele><time>2026-05-02T16:34:04.466Z</time></trkpt><trkpt lat="40.7330645" lon="17.4859582"><ele>276.0</ele><time>2026-05-02T16:34:05.465Z</time></trkpt><trkpt lat="40.7330086" lon="17.4861275"><ele>276.0</ele><time>2026-05-02T16:34:06.466Z</time></trkpt><trkpt lat="40.7329489" lon="17.486297"><ele>276.0</ele><time>2026-05-02T16:34:07.466Z</time></trkpt><trkpt lat="40.7328874" lon="17.4864687"><ele>276.0</ele><time>2026-05-02T16:34:08.466Z</time></trkpt><trkpt lat="40.7328337" lon="17.4866433"><ele>276.0</ele><time>2026-05-02T16:34:09.465Z</time></trkpt><trkpt lat="40.7327875" lon="17.4868218"><ele>276.0</ele><time>2026-05-02T16:34:10.466Z</time></trkpt><trkpt lat="40.732746" lon="17.487005"><ele>276.0</ele><time>2026-05-02T16:34:11.466Z</time></trkpt><trkpt lat="40.7327086" lon="17.4871863"><ele>273.25</ele><time>2026-05-02T16:34:12.467Z</time></trkpt><trkpt lat="40.73267" lon="17.4873695"><ele>270.5</ele><time>2026-05-02T16:34:13.466Z</time></trkpt><trkpt lat="40.7326325" lon="17.4875532"><ele>267.75</ele><time>2026-05-02T16:34:14.467Z</time></trkpt><trkpt lat="40.7325985" lon="17.4877356"><ele>265.0</ele><time>2026-05-02T16:34:15.465Z</time></trkpt><trkpt lat="40.7325539" lon="17.4879135"><ele>265.0</ele><time>2026-05-02T16:34:16.465Z</time></trkpt><trkpt lat="40.7324969" lon="17.4880885"><ele>265.0</ele><time>2026-05-02T16:34:17.466Z</time></trkpt><trkpt lat="40.732425" lon="17.4882572"><ele>265.0</ele><time>2026-05-02T16:34:18.465Z</time></trkpt><trkpt lat="40.7323547" lon="17.4884303"><ele>265.0</ele><time>2026-05-02T16:34:19.466Z</time></trkpt><trkpt lat="40.732275" lon="17.4885984"><ele>265.0</ele><time>2026-05-02T16:34:20.465Z</time></trkpt><trkpt lat="40.73219" lon="17.4887569"><ele>265.0</ele><time>2026-05-02T16:34:21.466Z</time></trkpt><trkpt lat="40.7320962" lon="17.4889109"><ele>265.0</ele><time>2026-05-02T16:34:22.465Z</time></trkpt><trkpt lat="40.7319938" lon="17.4890481"><ele>265.0</ele><time>2026-05-02T16:34:23.466Z</time></trkpt><trkpt lat="40.731884" lon="17.489176"><ele>264.5</ele><time>2026-05-02T16:34:24.466Z</time></trkpt><trkpt lat="40.7317708" lon="17.4893019"><ele>264.0</ele><time>2026-05-02T16:34:25.466Z</time></trkpt><trkpt lat="40.73165" lon="17.4894221"><ele>263.5</ele><time>2026-05-02T16:34:26.467Z</time></trkpt><trkpt lat="40.7315324" lon="17.4895384"><ele>263.0</ele><time>2026-05-02T16:34:27.467Z</time></trkpt><trkpt lat="40.731417" lon="17.4896519"><ele>263.0</ele><time>2026-05-02T16:34:28.466Z</time></trkpt><trkpt lat="40.7313005" lon="17.4897741"><ele>263.0</ele><time>2026-05-02T16:34:29.466Z</time></trkpt><trkpt lat="40.7311835" lon="17.4898958"><ele>263.0</ele><time>2026-05-02T16:34:30.466Z</time></trkpt><trkpt lat="40.7310796" lon="17.4900161"><ele>263.0</ele><time>2026-05-02T16:34:31.465Z</time></trkpt><trkpt lat="40.7309681" lon="17.490141"><ele>263.0</ele><time>2026-05-02T16:34:32.466Z</time></trkpt><trkpt lat="40.7308543" lon="17.4902656"><ele>263.0</ele><time>2026-05-02T16:34:33.465Z</time></trkpt><trkpt lat="40.7307418" lon="17.4903904"><ele>263.0</ele><time>2026-05-02T16:34:34.465Z</time></trkpt><trkpt lat="40.7306314" lon="17.4905176"><ele>263.0</ele><time>2026-05-02T16:34:35.466Z</time></trkpt><trkpt lat="40.730522" lon="17.490639"><ele>263.0</ele><time>2026-05-02T16:34:36.465Z</time></trkpt><trkpt lat="40.7304147" lon="17.4907575"><ele>263.0</ele><time>2026-05-02T16:34:37.466Z</time></trkpt><trkpt lat="40.7303069" lon="17.4908719"><ele>263.0</ele><time>2026-05-02T16:34:38.466Z</time></trkpt><trkpt lat="40.7301954" lon="17.4909826"><ele>263.0</ele><time>2026-05-02T16:34:39.466Z</time></trkpt><trkpt lat="40.7300838" lon="17.4910928"><ele>262.25</ele><time>2026-05-02T16:34:40.466Z</time></trkpt><trkpt lat="40.7299711" lon="17.491198"><ele>261.5</ele><time>2026-05-02T16:34:41.465Z</time></trkpt><trkpt lat="40.7298554" lon="17.4912965"><ele>260.75</ele><time>2026-05-02T16:34:42.466Z</time></trkpt><trkpt lat="40.7297405" lon="17.4913995"><ele>260.0</ele><time>2026-05-02T16:34:43.467Z</time></trkpt><trkpt lat="40.7296271" lon="17.4915042"><ele>260.0</ele><time>2026-05-02T16:34:44.467Z</time></trkpt><trkpt lat="40.7295192" lon="17.4916017"><ele>260.0</ele><time>2026-05-02T16:34:45.466Z</time></trkpt><trkpt lat="40.729416" lon="17.4917077"><ele>260.0</ele><time>2026-05-02T16:34:46.465Z</time></trkpt><trkpt lat="40.729316" lon="17.4918224"><ele>260.0</ele><time>2026-05-02T16:34:47.466Z</time></trkpt><trkpt lat="40.7292188" lon="17.4919447"><ele>259.75</ele><time>2026-05-02T16:34:48.465Z</time></trkpt><trkpt lat="40.7291249" lon="17.4920688"><ele>259.5</ele><time>2026-05-02T16:34:49.466Z</time></trkpt><trkpt lat="40.7290283" lon="17.4921964"><ele>259.25</ele><time>2026-05-02T16:34:50.466Z</time></trkpt><trkpt lat="40.7289315" lon="17.4923282"><ele>259.0</ele><time>2026-05-02T16:34:51.466Z</time></trkpt><trkpt lat="40.7288335" lon="17.49246"><ele>259.0</ele><time>2026-05-02T16:34:52.465Z</time></trkpt><trkpt lat="40.7287345" lon="17.492594"><ele>259.0</ele><time>2026-05-02T16:34:53.465Z</time></trkpt><trkpt lat="40.7286328" lon="17.4927251"><ele>259.0</ele><time>2026-05-02T16:34:54.466Z</time></trkpt><trkpt lat="40.7285327" lon="17.49286"><ele>259.0</ele><time>2026-05-02T16:34:55.466Z</time></trkpt><trkpt lat="40.7284338" lon="17.4929961"><ele>257.75</ele><time>2026-05-02T16:34:56.466Z</time></trkpt><trkpt lat="40.7283438" lon="17.4931403"><ele>256.5</ele><time>2026-05-02T16:34:57.466Z</time></trkpt><trkpt lat="40.7282614" lon="17.4932947"><ele>255.25</ele><time>2026-05-02T16:34:58.466Z</time></trkpt><trkpt lat="40.7281898" lon="17.4934614"><ele>254.0</ele><time>2026-05-02T16:34:59.466Z</time></trkpt><trkpt lat="40.728125" lon="17.4936346"><ele>255.5</ele><time>2026-05-02T16:35:00.467Z</time></trkpt><trkpt lat="40.7280617" lon="17.4938096"><ele>257.0</ele><time>2026-05-02T16:35:01.466Z</time></trkpt><trkpt lat="40.727999" lon="17.4939895"><ele>258.5</ele><time>2026-05-02T16:35:02.466Z</time></trkpt><trkpt lat="40.7279362" lon="17.4941648"><ele>260.0</ele><time>2026-05-02T16:35:03.466Z</time></trkpt><trkpt lat="40.7278704" lon="17.4943389"><ele>260.0</ele><time>2026-05-02T16:35:04.467Z</time></trkpt><trkpt lat="40.7278078" lon="17.4945138"><ele>260.0</ele><time>2026-05-02T16:35:05.466Z</time></trkpt><trkpt lat="40.7277463" lon="17.4946882"><ele>260.0</ele><time>2026-05-02T16:35:06.466Z</time></trkpt><trkpt lat="40.7276842" lon="17.4948623"><ele>260.0</ele><time>2026-05-02T16:35:07.467Z</time></trkpt><trkpt lat="40.7276203" lon="17.4950307"><ele>258.5</ele><time>2026-05-02T16:35:08.467Z</time></trkpt><trkpt lat="40.7275564" lon="17.4951905"><ele>257.0</ele><time>2026-05-02T16:35:09.466Z</time></trkpt><trkpt lat="40.7274785" lon="17.495339"><ele>255.5</ele><time>2026-05-02T16:35:10.467Z</time></trkpt><trkpt lat="40.7273937" lon="17.4954825"><ele>254.0</ele><time>2026-05-02T16:35:11.466Z</time></trkpt><trkpt lat="40.7273079" lon="17.4956235"><ele>254.0</ele><time>2026-05-02T16:35:12.466Z</time></trkpt><trkpt lat="40.7272216" lon="17.4957616"><ele>254.0</ele><time>2026-05-02T16:35:13.465Z</time></trkpt><trkpt lat="40.7271376" lon="17.4958983"><ele>254.0</ele><time>2026-05-02T16:35:14.465Z</time></trkpt><trkpt lat="40.727052" lon="17.4960241"><ele>254.0</ele><time>2026-05-02T16:35:15.466Z</time></trkpt><trkpt lat="40.7269636" lon="17.4961436"><ele>252.75</ele><time>2026-05-02T16:35:16.465Z</time></trkpt><trkpt lat="40.7268733" lon="17.4962586"><ele>251.5</ele><time>2026-05-02T16:35:17.465Z</time></trkpt><trkpt lat="40.7267821" lon="17.4963783"><ele>250.25</ele><time>2026-05-02T16:35:18.465Z</time></trkpt><trkpt lat="40.7266906" lon="17.4965037"><ele>249.0</ele><time>2026-05-02T16:35:19.464Z</time></trkpt><trkpt lat="40.7266096" lon="17.4966462"><ele>249.0</ele><time>2026-05-02T16:35:20.465Z</time></trkpt><trkpt lat="40.7265439" lon="17.496807"><ele>249.0</ele><time>2026-05-02T16:35:21.465Z</time></trkpt><trkpt lat="40.7265051" lon="17.4969804"><ele>249.0</ele><time>2026-05-02T16:35:22.464Z</time></trkpt><trkpt lat="40.7264879" lon="17.4971563"><ele>249.0</ele><time>2026-05-02T16:35:23.464Z</time></trkpt><trkpt lat="40.7264821" lon="17.4973347"><ele>249.25</ele><time>2026-05-02T16:35:24.466Z</time></trkpt><trkpt lat="40.7264775" lon="17.4975109"><ele>249.5</ele><time>2026-05-02T16:35:25.465Z</time></trkpt><trkpt lat="40.7264708" lon="17.4976846"><ele>249.75</ele><time>2026-05-02T16:35:26.464Z</time></trkpt><trkpt lat="40.7264689" lon="17.4978609"><ele>250.0</ele><time>2026-05-02T16:35:27.464Z</time></trkpt><trkpt lat="40.7264685" lon="17.4980283"><ele>249.5</ele><time>2026-05-02T16:35:28.465Z</time></trkpt><trkpt lat="40.7264696" lon="17.4982031"><ele>249.0</ele><time>2026-05-02T16:35:29.465Z</time></trkpt><trkpt lat="40.7264707" lon="17.4983786"><ele>248.5</ele><time>2026-05-02T16:35:30.465Z</time></trkpt><trkpt lat="40.7264706" lon="17.4985598"><ele>248.0</ele><time>2026-05-02T16:35:31.465Z</time></trkpt><trkpt lat="40.7264697" lon="17.4987432"><ele>248.0</ele><time>2026-05-02T16:35:32.465Z</time></trkpt><trkpt lat="40.7264685" lon="17.4989289"><ele>248.0</ele><time>2026-05-02T16:35:33.465Z</time></trkpt><trkpt lat="40.7264732" lon="17.499114"><ele>248.0</ele><time>2026-05-02T16:35:34.465Z</time></trkpt><trkpt lat="40.7264761" lon="17.4993001"><ele>248.0</ele><time>2026-05-02T16:35:35.465Z</time></trkpt><trkpt lat="40.7264782" lon="17.4994908"><ele>247.5</ele><time>2026-05-02T16:35:36.465Z</time></trkpt><trkpt lat="40.726481" lon="17.4996798"><ele>247.0</ele><time>2026-05-02T16:35:37.465Z</time></trkpt><trkpt lat="40.7264823" lon="17.4998646"><ele>246.5</ele><time>2026-05-02T16:35:38.465Z</time></trkpt><trkpt lat="40.7264818" lon="17.5000511"><ele>246.0</ele><time>2026-05-02T16:35:39.465Z</time></trkpt><trkpt lat="40.7264768" lon="17.5002441"><ele>245.25</ele><time>2026-05-02T16:35:40.465Z</time></trkpt><trkpt lat="40.7264826" lon="17.5004339"><ele>244.5</ele><time>2026-05-02T16:35:41.465Z</time></trkpt><trkpt lat="40.7264798" lon="17.5006217"><ele>243.75</ele><time>2026-05-02T16:35:42.464Z</time></trkpt><trkpt lat="40.7264767" lon="17.5008"><ele>243.0</ele><time>2026-05-02T16:35:43.465Z</time></trkpt><trkpt lat="40.7264703" lon="17.5009746"><ele>243.0</ele><time>2026-05-02T16:35:44.464Z</time></trkpt><trkpt lat="40.7264777" lon="17.5011565"><ele>243.0</ele><time>2026-05-02T16:35:45.466Z</time></trkpt><trkpt lat="40.7264968" lon="17.5013385"><ele>243.0</ele><time>2026-05-02T16:35:46.466Z</time></trkpt><trkpt lat="40.726527" lon="17.5015148"><ele>243.0</ele><time>2026-05-02T16:35:47.465Z</time></trkpt><trkpt lat="40.7265596" lon="17.5016846"><ele>242.5</ele><time>2026-05-02T16:35:48.464Z</time></trkpt><trkpt lat="40.7265901" lon="17.5018522"><ele>242.0</ele><time>2026-05-02T16:35:49.465Z</time></trkpt><trkpt lat="40.7266179" lon="17.5020245"><ele>241.5</ele><time>2026-05-02T16:35:50.465Z</time></trkpt><trkpt lat="40.7266496" lon="17.5021982"><ele>241.0</ele><time>2026-05-02T16:35:51.464Z</time></trkpt><trkpt lat="40.7266783" lon="17.5023601"><ele>240.75</ele><time>2026-05-02T16:35:52.466Z</time></trkpt><trkpt lat="40.7267123" lon="17.5025159"><ele>240.5</ele><time>2026-05-02T16:35:53.465Z</time></trkpt><trkpt lat="40.7267433" lon="17.5026716"><ele>240.25</ele><time>2026-05-02T16:35:54.466Z</time></trkpt><trkpt lat="40.7267711" lon="17.5028274"><ele>240.0</ele><time>2026-05-02T16:35:55.465Z</time></trkpt><trkpt lat="40.7268052" lon="17.5029856"><ele>240.0</ele><time>2026-05-02T16:35:56.464Z</time></trkpt><trkpt lat="40.7268435" lon="17.5031378"><ele>240.0</ele><time>2026-05-02T16:35:57.465Z</time></trkpt><trkpt lat="40.726874" lon="17.5032919"><ele>240.0</ele><time>2026-05-02T16:35:58.465Z</time></trkpt><trkpt lat="40.7268989" lon="17.5034532"><ele>240.0</ele><time>2026-05-02T16:35:59.466Z</time></trkpt><trkpt lat="40.7269141" lon="17.5036184"><ele>240.25</ele><time>2026-05-02T16:36:00.464Z</time></trkpt><trkpt lat="40.7269267" lon="17.5037867"><ele>240.5</ele><time>2026-05-02T16:36:01.465Z</time></trkpt><trkpt lat="40.726926" lon="17.5039631"><ele>240.75</ele><time>2026-05-02T16:36:02.465Z</time></trkpt><trkpt lat="40.7269242" lon="17.504143"><ele>241.0</ele><time>2026-05-02T16:36:03.464Z</time></trkpt><trkpt lat="40.7269252" lon="17.5043235"><ele>241.0</ele><time>2026-05-02T16:36:04.465Z</time></trkpt><trkpt lat="40.7269301" lon="17.5045174"><ele>241.0</ele><time>2026-05-02T16:36:05.465Z</time></trkpt><trkpt lat="40.7269299" lon="17.5047003"><ele>241.0</ele><time>2026-05-02T16:36:06.464Z</time></trkpt><trkpt lat="40.7269242" lon="17.504884"><ele>241.0</ele><time>2026-05-02T16:36:07.464Z</time></trkpt><trkpt lat="40.7269195" lon="17.5050605"><ele>241.75</ele><time>2026-05-02T16:36:08.464Z</time></trkpt><trkpt lat="40.7269194" lon="17.5052257"><ele>242.5</ele><time>2026-05-02T16:36:09.465Z</time></trkpt><trkpt lat="40.7269332" lon="17.5053859"><ele>243.25</ele><time>2026-05-02T16:36:10.465Z</time></trkpt><trkpt lat="40.726954" lon="17.5055455"><ele>244.0</ele><time>2026-05-02T16:36:11.465Z</time></trkpt><trkpt lat="40.7269728" lon="17.5057041"><ele>244.75</ele><time>2026-05-02T16:36:12.465Z</time></trkpt><trkpt lat="40.7269848" lon="17.50587"><ele>245.5</ele><time>2026-05-02T16:36:13.465Z</time></trkpt><trkpt lat="40.7269862" lon="17.5060363"><ele>246.25</ele><time>2026-05-02T16:36:14.465Z</time></trkpt><trkpt lat="40.7269801" lon="17.5062025"><ele>247.0</ele><time>2026-05-02T16:36:15.465Z</time></trkpt><trkpt lat="40.7269802" lon="17.5063717"><ele>247.0</ele><time>2026-05-02T16:36:16.465Z</time></trkpt><trkpt lat="40.7269787" lon="17.5065405"><ele>247.0</ele><time>2026-05-02T16:36:17.465Z</time></trkpt><trkpt lat="40.7269756" lon="17.5067073"><ele>247.0</ele><time>2026-05-02T16:36:18.466Z</time></trkpt><trkpt lat="40.7269644" lon="17.506869"><ele>247.0</ele><time>2026-05-02T16:36:19.465Z</time></trkpt><trkpt lat="40.7269462" lon="17.5070297"><ele>247.0</ele><time>2026-05-02T16:36:20.465Z</time></trkpt><trkpt lat="40.7269282" lon="17.5071951"><ele>247.0</ele><time>2026-05-02T16:36:21.465Z</time></trkpt><trkpt lat="40.7269181" lon="17.5073629"><ele>247.0</ele><time>2026-05-02T16:36:22.466Z</time></trkpt><trkpt lat="40.7269223" lon="17.5075317"><ele>247.0</ele><time>2026-05-02T16:36:23.466Z</time></trkpt><trkpt lat="40.7269393" lon="17.5077006"><ele>247.0</ele><time>2026-05-02T16:36:24.465Z</time></trkpt><trkpt lat="40.7269594" lon="17.507864"><ele>247.0</ele><time>2026-05-02T16:36:25.465Z</time></trkpt><trkpt lat="40.7269658" lon="17.5080382"><ele>247.0</ele><time>2026-05-02T16:36:26.465Z</time></trkpt><trkpt lat="40.7269686" lon="17.5082094"><ele>247.0</ele><time>2026-05-02T16:36:27.466Z</time></trkpt><trkpt lat="40.7269632" lon="17.5083824"><ele>246.5</ele><time>2026-05-02T16:36:28.465Z</time></trkpt><trkpt lat="40.7269517" lon="17.5085584"><ele>246.0</ele><time>2026-05-02T16:36:29.465Z</time></trkpt><trkpt lat="40.7269468" lon="17.5087407"><ele>245.5</ele><time>2026-05-02T16:36:30.464Z</time></trkpt><trkpt lat="40.726948" lon="17.5089257"><ele>245.0</ele><time>2026-05-02T16:36:31.465Z</time></trkpt><trkpt lat="40.7269643" lon="17.5091118"><ele>243.75</ele><time>2026-05-02T16:36:32.465Z</time></trkpt><trkpt lat="40.7269852" lon="17.5092927"><ele>242.5</ele><time>2026-05-02T16:36:33.465Z</time></trkpt><trkpt lat="40.7270088" lon="17.5094839"><ele>241.25</ele><time>2026-05-02T16:36:34.465Z</time></trkpt><trkpt lat="40.7270204" lon="17.509666"><ele>240.0</ele><time>2026-05-02T16:36:35.464Z</time></trkpt><trkpt lat="40.7270226" lon="17.509846"><ele>239.0</ele><time>2026-05-02T16:36:36.465Z</time></trkpt><trkpt lat="40.7270155" lon="17.5100254"><ele>238.0</ele><time>2026-05-02T16:36:37.466Z</time></trkpt><trkpt lat="40.7269974" lon="17.510203"><ele>237.0</ele><time>2026-05-02T16:36:38.464Z</time></trkpt><trkpt lat="40.7269706" lon="17.5103787"><ele>236.0</ele><time>2026-05-02T16:36:39.464Z</time></trkpt><trkpt lat="40.7269307" lon="17.5105409"><ele>235.5</ele><time>2026-05-02T16:36:40.465Z</time></trkpt><trkpt lat="40.7268944" lon="17.510707"><ele>235.0</ele><time>2026-05-02T16:36:41.464Z</time></trkpt><trkpt lat="40.7268597" lon="17.5108652"><ele>234.5</ele><time>2026-05-02T16:36:42.465Z</time></trkpt><trkpt lat="40.7268293" lon="17.511025"><ele>234.0</ele><time>2026-05-02T16:36:43.466Z</time></trkpt><trkpt lat="40.7267973" lon="17.5111872"><ele>233.25</ele><time>2026-05-02T16:36:44.465Z</time></trkpt><trkpt lat="40.7267664" lon="17.5113586"><ele>232.5</ele><time>2026-05-02T16:36:45.464Z</time></trkpt><trkpt lat="40.7267366" lon="17.5115325"><ele>231.75</ele><time>2026-05-02T16:36:46.465Z</time></trkpt><trkpt lat="40.7267063" lon="17.5117026"><ele>231.0</ele><time>2026-05-02T16:36:47.465Z</time></trkpt><trkpt lat="40.7266776" lon="17.5118827"><ele>231.0</ele><time>2026-05-02T16:36:48.466Z</time></trkpt><trkpt lat="40.7266483" lon="17.5120637"><ele>231.0</ele><time>2026-05-02T16:36:49.466Z</time></trkpt><trkpt lat="40.7266177" lon="17.5122453"><ele>231.0</ele><time>2026-05-02T16:36:50.465Z</time></trkpt><trkpt lat="40.7265858" lon="17.5124244"><ele>231.0</ele><time>2026-05-02T16:36:51.466Z</time></trkpt><trkpt lat="40.7265532" lon="17.5126049"><ele>231.0</ele><time>2026-05-02T16:36:52.466Z</time></trkpt><trkpt lat="40.7265208" lon="17.5127871"><ele>231.0</ele><time>2026-05-02T16:36:53.465Z</time></trkpt><trkpt lat="40.726489" lon="17.5129692"><ele>231.0</ele><time>2026-05-02T16:36:54.465Z</time></trkpt><trkpt lat="40.7264552" lon="17.5131472"><ele>231.0</ele><time>2026-05-02T16:36:55.466Z</time></trkpt><trkpt lat="40.7264228" lon="17.5133232"><ele>231.5</ele><time>2026-05-02T16:36:56.466Z</time></trkpt><trkpt lat="40.7263931" lon="17.5134997"><ele>232.0</ele><time>2026-05-02T16:36:57.465Z</time></trkpt><trkpt lat="40.7263663" lon="17.5136785"><ele>232.5</ele><time>2026-05-02T16:36:58.465Z</time></trkpt><trkpt lat="40.7263581" lon="17.5138517"><ele>233.0</ele><time>2026-05-02T16:36:59.466Z</time></trkpt><trkpt lat="40.7263872" lon="17.5140178"><ele>233.25</ele><time>2026-05-02T16:37:00.465Z</time></trkpt><trkpt lat="40.7264762" lon="17.514156"><ele>233.5</ele><time>2026-05-02T16:37:01.466Z</time></trkpt><trkpt lat="40.7265338" lon="17.5142873"><ele>233.75</ele><time>2026-05-02T16:37:02.464Z</time></trkpt><trkpt lat="40.726589" lon="17.5144149"><ele>234.0</ele><time>2026-05-02T16:37:03.465Z</time></trkpt><trkpt lat="40.7266394" lon="17.5145518"><ele>234.0</ele><time>2026-05-02T16:37:04.466Z</time></trkpt><trkpt lat="40.7266803" lon="17.5146915"><ele>234.0</ele><time>2026-05-02T16:37:05.465Z</time></trkpt><trkpt lat="40.7267077" lon="17.5148378"><ele>234.0</ele><time>2026-05-02T16:37:06.465Z</time></trkpt><trkpt lat="40.7267312" lon="17.5149837"><ele>234.0</ele><time>2026-05-02T16:37:07.465Z</time></trkpt><trkpt lat="40.7267564" lon="17.515127"><ele>234.0</ele><time>2026-05-02T16:37:08.465Z</time></trkpt><trkpt lat="40.7267807" lon="17.5152691"><ele>233.99999999999997</ele><time>2026-05-02T16:37:09.464Z</time></trkpt><trkpt lat="40.7268055" lon="17.5154067"><ele>233.99999999999997</ele><time>2026-05-02T16:37:10.465Z</time></trkpt><trkpt lat="40.7268221" lon="17.5155381"><ele>234.0</ele><time>2026-05-02T16:37:11.466Z</time></trkpt><trkpt lat="40.7268339" lon="17.5156675"><ele>234.0</ele><time>2026-05-02T16:37:12.465Z</time></trkpt><trkpt lat="40.7268395" lon="17.5157898"><ele>234.2</ele><time>2026-05-02T16:37:13.465Z</time></trkpt><trkpt lat="40.7268431" lon="17.5159141"><ele>234.39999999999998</ele><time>2026-05-02T16:37:14.465Z</time></trkpt><trkpt lat="40.7268357" lon="17.5160399"><ele>234.6</ele><time>2026-05-02T16:37:15.465Z</time></trkpt><trkpt lat="40.7268275" lon="17.516166"><ele>234.8</ele><time>2026-05-02T16:37:16.466Z</time></trkpt><trkpt lat="40.726819" lon="17.5162937"><ele>235.0</ele><time>2026-05-02T16:37:17.465Z</time></trkpt><trkpt lat="40.7268128" lon="17.5164242"><ele>234.5</ele><time>2026-05-02T16:37:18.464Z</time></trkpt><trkpt lat="40.726804" lon="17.5165703"><ele>234.0</ele><time>2026-05-02T16:37:19.465Z</time></trkpt><trkpt lat="40.7267964" lon="17.5167198"><ele>233.5</ele><time>2026-05-02T16:37:20.465Z</time></trkpt><trkpt lat="40.7267905" lon="17.5168696"><ele>233.0</ele><time>2026-05-02T16:37:21.465Z</time></trkpt><trkpt lat="40.7267829" lon="17.5170248"><ele>232.75</ele><time>2026-05-02T16:37:22.465Z</time></trkpt><trkpt lat="40.7267814" lon="17.5171917"><ele>232.5</ele><time>2026-05-02T16:37:23.465Z</time></trkpt><trkpt lat="40.7267699" lon="17.5173577"><ele>232.25</ele><time>2026-05-02T16:37:24.465Z</time></trkpt><trkpt lat="40.7267522" lon="17.5175261"><ele>232.0</ele><time>2026-05-02T16:37:25.464Z</time></trkpt><trkpt lat="40.7267342" lon="17.5177015"><ele>232.0</ele><time>2026-05-02T16:37:26.465Z</time></trkpt><trkpt lat="40.7267156" lon="17.517879"><ele>232.0</ele><time>2026-05-02T16:37:27.464Z</time></trkpt><trkpt lat="40.7267029" lon="17.5180631"><ele>232.0</ele><time>2026-05-02T16:37:28.465Z</time></trkpt><trkpt lat="40.7266882" lon="17.5182459"><ele>232.0</ele><time>2026-05-02T16:37:29.466Z</time></trkpt><trkpt lat="40.726679" lon="17.5184199"><ele>231.75</ele><time>2026-05-02T16:37:30.465Z</time></trkpt><trkpt lat="40.7266718" lon="17.5185937"><ele>231.5</ele><time>2026-05-02T16:37:31.465Z</time></trkpt><trkpt lat="40.7266664" lon="17.5187715"><ele>231.25</ele><time>2026-05-02T16:37:32.465Z</time></trkpt><trkpt lat="40.7266621" lon="17.5189516"><ele>231.0</ele><time>2026-05-02T16:37:33.465Z</time></trkpt><trkpt lat="40.7266551" lon="17.519126"><ele>230.75</ele><time>2026-05-02T16:37:34.466Z</time></trkpt><trkpt lat="40.7266484" lon="17.5193021"><ele>230.5</ele><time>2026-05-02T16:37:35.465Z</time></trkpt><trkpt lat="40.7266443" lon="17.5194757"><ele>230.25</ele><time>2026-05-02T16:37:36.464Z</time></trkpt><trkpt lat="40.7266381" lon="17.5196496"><ele>230.0</ele><time>2026-05-02T16:37:37.464Z</time></trkpt><trkpt lat="40.7266324" lon="17.5198245"><ele>230.5</ele><time>2026-05-02T16:37:38.464Z</time></trkpt><trkpt lat="40.726628" lon="17.5199955"><ele>231.0</ele><time>2026-05-02T16:37:39.465Z</time></trkpt><trkpt lat="40.7266226" lon="17.5201652"><ele>231.5</ele><time>2026-05-02T16:37:40.466Z</time></trkpt><trkpt lat="40.7266163" lon="17.5203318"><ele>232.0</ele><time>2026-05-02T16:37:41.466Z</time></trkpt><trkpt lat="40.7266094" lon="17.5205005"><ele>232.75</ele><time>2026-05-02T16:37:42.466Z</time></trkpt><trkpt lat="40.7266016" lon="17.5206729"><ele>233.5</ele><time>2026-05-02T16:37:43.464Z</time></trkpt><trkpt lat="40.726597" lon="17.5208506"><ele>234.25</ele><time>2026-05-02T16:37:44.465Z</time></trkpt><trkpt lat="40.7265906" lon="17.5210247"><ele>235.0</ele><time>2026-05-02T16:37:45.464Z</time></trkpt><trkpt lat="40.7265865" lon="17.5211996"><ele>235.75</ele><time>2026-05-02T16:37:46.465Z</time></trkpt><trkpt lat="40.7265756" lon="17.5213773"><ele>236.5</ele><time>2026-05-02T16:37:47.464Z</time></trkpt><trkpt lat="40.7265728" lon="17.521548"><ele>237.25</ele><time>2026-05-02T16:37:48.464Z</time></trkpt><trkpt lat="40.7265675" lon="17.5217207"><ele>238.0</ele><time>2026-05-02T16:37:49.464Z</time></trkpt><trkpt lat="40.7265568" lon="17.5218949"><ele>238.5</ele><time>2026-05-02T16:37:50.464Z</time></trkpt><trkpt lat="40.7265412" lon="17.5220726"><ele>239.0</ele><time>2026-05-02T16:37:51.464Z</time></trkpt><trkpt lat="40.7265074" lon="17.5222434"><ele>239.5</ele><time>2026-05-02T16:37:52.465Z</time></trkpt><trkpt lat="40.7264678" lon="17.522415"><ele>240.0</ele><time>2026-05-02T16:37:53.465Z</time></trkpt><trkpt lat="40.7264285" lon="17.5225854"><ele>240.0</ele><time>2026-05-02T16:37:54.466Z</time></trkpt><trkpt lat="40.7263911" lon="17.5227535"><ele>240.0</ele><time>2026-05-02T16:37:55.465Z</time></trkpt><trkpt lat="40.7263643" lon="17.5229281"><ele>240.0</ele><time>2026-05-02T16:37:56.465Z</time></trkpt><trkpt lat="40.7263346" lon="17.5230937"><ele>240.0</ele><time>2026-05-02T16:37:57.466Z</time></trkpt><trkpt lat="40.726305" lon="17.5232676"><ele>240.0</ele><time>2026-05-02T16:37:58.465Z</time></trkpt><trkpt lat="40.7262738" lon="17.5234378"><ele>240.0</ele><time>2026-05-02T16:37:59.465Z</time></trkpt><trkpt lat="40.7262456" lon="17.5236071"><ele>240.0</ele><time>2026-05-02T16:38:00.465Z</time></trkpt><trkpt lat="40.7262161" lon="17.5237766"><ele>240.0</ele><time>2026-05-02T16:38:01.465Z</time></trkpt><trkpt lat="40.7261867" lon="17.5239449"><ele>240.0</ele><time>2026-05-02T16:38:02.465Z</time></trkpt><trkpt lat="40.7261544" lon="17.524115"><ele>240.0</ele><time>2026-05-02T16:38:03.465Z</time></trkpt><trkpt lat="40.7261147" lon="17.524287"><ele>240.0</ele><time>2026-05-02T16:38:04.466Z</time></trkpt><trkpt lat="40.7260683" lon="17.5244548"><ele>240.0</ele><time>2026-05-02T16:38:05.466Z</time></trkpt><trkpt lat="40.7260151" lon="17.5246139"><ele>237.5</ele><time>2026-05-02T16:38:06.465Z</time></trkpt><trkpt lat="40.7259333" lon="17.5247686"><ele>235.0</ele><time>2026-05-02T16:38:07.465Z</time></trkpt><trkpt lat="40.7258584" lon="17.5249208"><ele>232.5</ele><time>2026-05-02T16:38:08.465Z</time></trkpt><trkpt lat="40.7257717" lon="17.5250715"><ele>230.0</ele><time>2026-05-02T16:38:09.465Z</time></trkpt><trkpt lat="40.72569" lon="17.5252266"><ele>230.0</ele><time>2026-05-02T16:38:10.463Z</time></trkpt><trkpt lat="40.7256157" lon="17.5253777"><ele>230.0</ele><time>2026-05-02T16:38:11.464Z</time></trkpt><trkpt lat="40.725547" lon="17.5255387"><ele>230.0</ele><time>2026-05-02T16:38:12.465Z</time></trkpt><trkpt lat="40.725484" lon="17.5257008"><ele>230.0</ele><time>2026-05-02T16:38:13.464Z</time></trkpt><trkpt lat="40.725418" lon="17.5258576"><ele>230.0</ele><time>2026-05-02T16:38:14.465Z</time></trkpt><trkpt lat="40.7253537" lon="17.5260206"><ele>230.0</ele><time>2026-05-02T16:38:15.464Z</time></trkpt><trkpt lat="40.7252957" lon="17.5261737"><ele>230.0</ele><time>2026-05-02T16:38:16.464Z</time></trkpt><trkpt lat="40.7252525" lon="17.5263274"><ele>230.0</ele><time>2026-05-02T16:38:17.464Z</time></trkpt><trkpt lat="40.7252071" lon="17.5264896"><ele>230.0</ele><time>2026-05-02T16:38:18.465Z</time></trkpt><trkpt lat="40.7251654" lon="17.5266497"><ele>230.0</ele><time>2026-05-02T16:38:19.464Z</time></trkpt><trkpt lat="40.7251284" lon="17.5268091"><ele>230.0</ele><time>2026-05-02T16:38:20.465Z</time></trkpt><trkpt lat="40.7250958" lon="17.5269692"><ele>230.0</ele><time>2026-05-02T16:38:21.465Z</time></trkpt><trkpt lat="40.7250564" lon="17.5271259"><ele>230.0</ele><time>2026-05-02T16:38:22.464Z</time></trkpt><trkpt lat="40.7250195" lon="17.5272875"><ele>230.0</ele><time>2026-05-02T16:38:23.465Z</time></trkpt><trkpt lat="40.7249879" lon="17.5274426"><ele>230.0</ele><time>2026-05-02T16:38:24.464Z</time></trkpt><trkpt lat="40.7249587" lon="17.5275969"><ele>230.0</ele><time>2026-05-02T16:38:25.464Z</time></trkpt><trkpt lat="40.7249385" lon="17.5277531"><ele>230.0</ele><time>2026-05-02T16:38:26.464Z</time></trkpt><trkpt lat="40.7249286" lon="17.5279151"><ele>230.0</ele><time>2026-05-02T16:38:27.464Z</time></trkpt><trkpt lat="40.724917" lon="17.5280755"><ele>230.0</ele><time>2026-05-02T16:38:28.464Z</time></trkpt><trkpt lat="40.7249101" lon="17.5282379"><ele>230.0</ele><time>2026-05-02T16:38:29.464Z</time></trkpt><trkpt lat="40.724904" lon="17.5284029"><ele>230.0</ele><time>2026-05-02T16:38:30.464Z</time></trkpt><trkpt lat="40.7248975" lon="17.5285666"><ele>230.0</ele><time>2026-05-02T16:38:31.463Z</time></trkpt><trkpt lat="40.7248898" lon="17.5287318"><ele>230.0</ele><time>2026-05-02T16:38:32.463Z</time></trkpt><trkpt lat="40.7248793" lon="17.5288982"><ele>230.0</ele><time>2026-05-02T16:38:33.465Z</time></trkpt><trkpt lat="40.724868" lon="17.5290632"><ele>229.75</ele><time>2026-05-02T16:38:34.464Z</time></trkpt><trkpt lat="40.7248543" lon="17.5292286"><ele>229.5</ele><time>2026-05-02T16:38:35.464Z</time></trkpt><trkpt lat="40.7248419" lon="17.5293857"><ele>229.25</ele><time>2026-05-02T16:38:36.464Z</time></trkpt><trkpt lat="40.7248265" lon="17.5295288"><ele>229.0</ele><time>2026-05-02T16:38:37.465Z</time></trkpt><trkpt lat="40.7248164" lon="17.5296736"><ele>229.0</ele><time>2026-05-02T16:38:38.465Z</time></trkpt><trkpt lat="40.7248118" lon="17.5298146"><ele>228.99999999999997</ele><time>2026-05-02T16:38:39.463Z</time></trkpt><trkpt lat="40.7248046" lon="17.5299533"><ele>228.99999999999997</ele><time>2026-05-02T16:38:40.463Z</time></trkpt><trkpt lat="40.7247931" lon="17.5300959"><ele>229.0</ele><time>2026-05-02T16:38:41.465Z</time></trkpt><trkpt lat="40.724785" lon="17.5302397"><ele>229.0</ele><time>2026-05-02T16:38:42.464Z</time></trkpt><trkpt lat="40.7247791" lon="17.530383"><ele>229.25</ele><time>2026-05-02T16:38:43.465Z</time></trkpt><trkpt lat="40.7247746" lon="17.5305238"><ele>229.5</ele><time>2026-05-02T16:38:44.465Z</time></trkpt><trkpt lat="40.7247703" lon="17.5306694"><ele>229.75</ele><time>2026-05-02T16:38:45.464Z</time></trkpt><trkpt lat="40.724766" lon="17.530817"><ele>230.0</ele><time>2026-05-02T16:38:46.464Z</time></trkpt><trkpt lat="40.7247584" lon="17.5311243"><ele>229.25</ele><time>2026-05-02T16:38:48.463Z</time></trkpt><trkpt lat="40.7247519" lon="17.5312772"><ele>228.5</ele><time>2026-05-02T16:38:49.464Z</time></trkpt><trkpt lat="40.7247384" lon="17.5314314"><ele>227.75</ele><time>2026-05-02T16:38:50.464Z</time></trkpt><trkpt lat="40.7247303" lon="17.5315836"><ele>227.0</ele><time>2026-05-02T16:38:51.465Z</time></trkpt><trkpt lat="40.7247182" lon="17.5317378"><ele>227.0</ele><time>2026-05-02T16:38:52.465Z</time></trkpt><trkpt lat="40.724711" lon="17.5318905"><ele>227.0</ele><time>2026-05-02T16:38:53.464Z</time></trkpt><trkpt lat="40.7247093" lon="17.5320545"><ele>227.0</ele><time>2026-05-02T16:38:54.463Z</time></trkpt><trkpt lat="40.7247312" lon="17.5322214"><ele>227.0</ele><time>2026-05-02T16:38:55.464Z</time></trkpt><trkpt lat="40.7247635" lon="17.5323894"><ele>225.75</ele><time>2026-05-02T16:38:56.463Z</time></trkpt><trkpt lat="40.7248111" lon="17.5325487"><ele>224.5</ele><time>2026-05-02T16:38:57.464Z</time></trkpt><trkpt lat="40.7248728" lon="17.5326951"><ele>223.25</ele><time>2026-05-02T16:38:58.464Z</time></trkpt><trkpt lat="40.724945" lon="17.5328317"><ele>222.0</ele><time>2026-05-02T16:38:59.464Z</time></trkpt><trkpt lat="40.7250093" lon="17.5329668"><ele>220.5</ele><time>2026-05-02T16:39:00.464Z</time></trkpt><trkpt lat="40.7250649" lon="17.5331108"><ele>219.0</ele><time>2026-05-02T16:39:01.464Z</time></trkpt><trkpt lat="40.7251155" lon="17.5332624"><ele>217.5</ele><time>2026-05-02T16:39:02.464Z</time></trkpt><trkpt lat="40.7251456" lon="17.5334231"><ele>216.0</ele><time>2026-05-02T16:39:03.464Z</time></trkpt><trkpt lat="40.7251597" lon="17.5335882"><ele>215.5</ele><time>2026-05-02T16:39:04.464Z</time></trkpt><trkpt lat="40.725149" lon="17.5337592"><ele>215.0</ele><time>2026-05-02T16:39:05.464Z</time></trkpt><trkpt lat="40.7251309" lon="17.5339319"><ele>214.5</ele><time>2026-05-02T16:39:06.463Z</time></trkpt><trkpt lat="40.7250988" lon="17.5341081"><ele>214.0</ele><time>2026-05-02T16:39:07.464Z</time></trkpt><trkpt lat="40.7250596" lon="17.5342753"><ele>214.0</ele><time>2026-05-02T16:39:08.465Z</time></trkpt><trkpt lat="40.7250126" lon="17.5344369"><ele>214.0</ele><time>2026-05-02T16:39:09.464Z</time></trkpt><trkpt lat="40.7249579" lon="17.5345894"><ele>214.0</ele><time>2026-05-02T16:39:10.465Z</time></trkpt><trkpt lat="40.7248939" lon="17.5347313"><ele>214.0</ele><time>2026-05-02T16:39:11.464Z</time></trkpt><trkpt lat="40.7248336" lon="17.5348757"><ele>213.5</ele><time>2026-05-02T16:39:12.464Z</time></trkpt><trkpt lat="40.7247839" lon="17.5350232"><ele>213.0</ele><time>2026-05-02T16:39:13.463Z</time></trkpt><trkpt lat="40.7247749" lon="17.5351733"><ele>212.5</ele><time>2026-05-02T16:39:14.464Z</time></trkpt><trkpt lat="40.7247799" lon="17.5353312"><ele>212.0</ele><time>2026-05-02T16:39:15.465Z</time></trkpt><trkpt lat="40.7248141" lon="17.5354767"><ele>211.75</ele><time>2026-05-02T16:39:16.464Z</time></trkpt><trkpt lat="40.7248709" lon="17.5356156"><ele>211.5</ele><time>2026-05-02T16:39:17.464Z</time></trkpt><trkpt lat="40.7249329" lon="17.5357493"><ele>211.25</ele><time>2026-05-02T16:39:18.464Z</time></trkpt><trkpt lat="40.724983" lon="17.535888"><ele>211.0</ele><time>2026-05-02T16:39:19.464Z</time></trkpt><trkpt lat="40.7250234" lon="17.536019"><ele>211.0</ele><time>2026-05-02T16:39:20.463Z</time></trkpt><trkpt lat="40.7250208" lon="17.5361949"><ele>211.0</ele><time>2026-05-02T16:39:21.463Z</time></trkpt><trkpt lat="40.7249743" lon="17.5363887"><ele>211.0</ele><time>2026-05-02T16:39:22.464Z</time></trkpt><trkpt lat="40.7249636" lon="17.5365693"><ele>211.0</ele><time>2026-05-02T16:39:23.465Z</time></trkpt><trkpt lat="40.7249566" lon="17.5367505"><ele>211.5</ele><time>2026-05-02T16:39:24.464Z</time></trkpt><trkpt lat="40.7249581" lon="17.5369386"><ele>212.0</ele><time>2026-05-02T16:39:25.464Z</time></trkpt><trkpt lat="40.7249638" lon="17.5371313"><ele>212.5</ele><time>2026-05-02T16:39:26.465Z</time></trkpt><trkpt lat="40.7249688" lon="17.5373265"><ele>213.0</ele><time>2026-05-02T16:39:27.465Z</time></trkpt><trkpt lat="40.7249663" lon="17.5375194"><ele>213.33333333333331</ele><time>2026-05-02T16:39:28.464Z</time></trkpt><trkpt lat="40.7249658" lon="17.537728"><ele>213.66666666666666</ele><time>2026-05-02T16:39:29.464Z</time></trkpt><trkpt lat="40.7249495" lon="17.5379324"><ele>214.0</ele><time>2026-05-02T16:39:30.463Z</time></trkpt><trkpt lat="40.7249241" lon="17.5381325"><ele>215.66666666666666</ele><time>2026-05-02T16:39:31.465Z</time></trkpt><trkpt lat="40.7248998" lon="17.53833"><ele>217.33333333333331</ele><time>2026-05-02T16:39:32.464Z</time></trkpt><trkpt lat="40.7248735" lon="17.5385281"><ele>219.0</ele><time>2026-05-02T16:39:33.464Z</time></trkpt><trkpt lat="40.724847" lon="17.5387284"><ele>219.66666666666669</ele><time>2026-05-02T16:39:34.465Z</time></trkpt><trkpt lat="40.7248187" lon="17.5389318"><ele>220.33333333333334</ele><time>2026-05-02T16:39:35.465Z</time></trkpt><trkpt lat="40.7247915" lon="17.53914"><ele>221.0</ele><time>2026-05-02T16:39:36.464Z</time></trkpt><trkpt lat="40.724763" lon="17.5393489"><ele>221.66666666666669</ele><time>2026-05-02T16:39:37.464Z</time></trkpt><trkpt lat="40.7247326" lon="17.5395651"><ele>222.33333333333331</ele><time>2026-05-02T16:39:38.464Z</time></trkpt><trkpt lat="40.7247011" lon="17.5397876"><ele>223.0</ele><time>2026-05-02T16:39:39.464Z</time></trkpt><trkpt lat="40.7246731" lon="17.5400063"><ele>223.0</ele><time>2026-05-02T16:39:40.465Z</time></trkpt><trkpt lat="40.7246428" lon="17.5402312"><ele>223.0</ele><time>2026-05-02T16:39:41.464Z</time></trkpt><trkpt lat="40.7246115" lon="17.5404596"><ele>223.0</ele><time>2026-05-02T16:39:42.464Z</time></trkpt><trkpt lat="40.7245837" lon="17.5406885"><ele>224.0</ele><time>2026-05-02T16:39:43.464Z</time></trkpt><trkpt lat="40.7245654" lon="17.5409144"><ele>225.0</ele><time>2026-05-02T16:39:44.464Z</time></trkpt><trkpt lat="40.7245681" lon="17.5411382"><ele>226.0</ele><time>2026-05-02T16:39:45.464Z</time></trkpt><trkpt lat="40.7245882" lon="17.5413599"><ele>228.33333333333331</ele><time>2026-05-02T16:39:46.464Z</time></trkpt><trkpt lat="40.7246155" lon="17.5415824"><ele>230.66666666666669</ele><time>2026-05-02T16:39:47.464Z</time></trkpt><trkpt lat="40.724657" lon="17.5417943"><ele>233.0</ele><time>2026-05-02T16:39:48.463Z</time></trkpt><trkpt lat="40.7246977" lon="17.5420074"><ele>234.33333333333334</ele><time>2026-05-02T16:39:49.463Z</time></trkpt><trkpt lat="40.7247401" lon="17.542213"><ele>235.66666666666669</ele><time>2026-05-02T16:39:50.465Z</time></trkpt><trkpt lat="40.7247775" lon="17.5424083"><ele>237.0</ele><time>2026-05-02T16:39:51.465Z</time></trkpt><trkpt lat="40.724809" lon="17.5425957"><ele>237.0</ele><time>2026-05-02T16:39:52.464Z</time></trkpt><trkpt lat="40.7248275" lon="17.5427736"><ele>237.0</ele><time>2026-05-02T16:39:53.464Z</time></trkpt><trkpt lat="40.7248385" lon="17.542959"><ele>237.0</ele><time>2026-05-02T16:39:54.465Z</time></trkpt><trkpt lat="40.724838" lon="17.5431439"><ele>237.0</ele><time>2026-05-02T16:39:55.464Z</time></trkpt><trkpt lat="40.7248319" lon="17.5433194"><ele>237.25</ele><time>2026-05-02T16:39:56.464Z</time></trkpt><trkpt lat="40.7248164" lon="17.5434921"><ele>237.5</ele><time>2026-05-02T16:39:57.464Z</time></trkpt><trkpt lat="40.7247954" lon="17.5436469"><ele>237.75</ele><time>2026-05-02T16:39:58.463Z</time></trkpt><trkpt lat="40.7247708" lon="17.5437897"><ele>238.0</ele><time>2026-05-02T16:39:59.464Z</time></trkpt><trkpt lat="40.7247506" lon="17.5439391"><ele>238.0</ele><time>2026-05-02T16:40:00.465Z</time></trkpt><trkpt lat="40.7247556" lon="17.5440948"><ele>238.0</ele><time>2026-05-02T16:40:01.463Z</time></trkpt><trkpt lat="40.7247707" lon="17.5442517"><ele>238.0</ele><time>2026-05-02T16:40:02.463Z</time></trkpt><trkpt lat="40.724797" lon="17.5444092"><ele>238.0</ele><time>2026-05-02T16:40:03.464Z</time></trkpt><trkpt lat="40.7248256" lon="17.5445747"><ele>238.0</ele><time>2026-05-02T16:40:04.464Z</time></trkpt><trkpt lat="40.7248505" lon="17.5447382"><ele>238.0</ele><time>2026-05-02T16:40:05.464Z</time></trkpt><trkpt lat="40.7248781" lon="17.5449042"><ele>238.0</ele><time>2026-05-02T16:40:06.464Z</time></trkpt><trkpt lat="40.7249126" lon="17.5450678"><ele>238.0</ele><time>2026-05-02T16:40:07.464Z</time></trkpt><trkpt lat="40.7249579" lon="17.5452309"><ele>238.0</ele><time>2026-05-02T16:40:08.464Z</time></trkpt><trkpt lat="40.7250147" lon="17.5453862"><ele>238.0</ele><time>2026-05-02T16:40:09.465Z</time></trkpt><trkpt lat="40.7250805" lon="17.5455362"><ele>238.0</ele><time>2026-05-02T16:40:10.465Z</time></trkpt><trkpt lat="40.7251385" lon="17.5456865"><ele>238.0</ele><time>2026-05-02T16:40:11.465Z</time></trkpt><trkpt lat="40.7251928" lon="17.545834"><ele>238.0</ele><time>2026-05-02T16:40:12.465Z</time></trkpt><trkpt lat="40.7252278" lon="17.545999"><ele>238.0</ele><time>2026-05-02T16:40:13.463Z</time></trkpt><trkpt lat="40.7252441" lon="17.5461649"><ele>238.0</ele><time>2026-05-02T16:40:14.463Z</time></trkpt><trkpt lat="40.7252407" lon="17.546335"><ele>238.0</ele><time>2026-05-02T16:40:15.464Z</time></trkpt><trkpt lat="40.7252234" lon="17.5465047"><ele>237.5</ele><time>2026-05-02T16:40:16.464Z</time></trkpt><trkpt lat="40.7251983" lon="17.5466887"><ele>237.0</ele><time>2026-05-02T16:40:17.464Z</time></trkpt><trkpt lat="40.7251718" lon="17.5468753"><ele>236.5</ele><time>2026-05-02T16:40:18.464Z</time></trkpt><trkpt lat="40.7251491" lon="17.5470667"><ele>236.0</ele><time>2026-05-02T16:40:19.464Z</time></trkpt><trkpt lat="40.7251375" lon="17.5472589"><ele>235.25</ele><time>2026-05-02T16:40:20.464Z</time></trkpt><trkpt lat="40.725142" lon="17.5474524"><ele>234.5</ele><time>2026-05-02T16:40:21.465Z</time></trkpt><trkpt lat="40.7251553" lon="17.5476458"><ele>233.75</ele><time>2026-05-02T16:40:22.465Z</time></trkpt><trkpt lat="40.725148" lon="17.547839"><ele>233.0</ele><time>2026-05-02T16:40:23.465Z</time></trkpt><trkpt lat="40.7251272" lon="17.5480328"><ele>233.0</ele><time>2026-05-02T16:40:24.464Z</time></trkpt><trkpt lat="40.7250775" lon="17.5482184"><ele>233.0</ele><time>2026-05-02T16:40:25.464Z</time></trkpt><trkpt lat="40.7250249" lon="17.5483965"><ele>233.0</ele><time>2026-05-02T16:40:26.464Z</time></trkpt><trkpt lat="40.7249757" lon="17.5485744"><ele>233.0</ele><time>2026-05-02T16:40:27.464Z</time></trkpt><trkpt lat="40.7249339" lon="17.5487459"><ele>233.5</ele><time>2026-05-02T16:40:28.464Z</time></trkpt><trkpt lat="40.7248989" lon="17.548929"><ele>234.0</ele><time>2026-05-02T16:40:29.463Z</time></trkpt><trkpt lat="40.7248783" lon="17.5491116"><ele>234.5</ele><time>2026-05-02T16:40:30.464Z</time></trkpt><trkpt lat="40.7248682" lon="17.5492944"><ele>235.0</ele><time>2026-05-02T16:40:31.464Z</time></trkpt><trkpt lat="40.7248688" lon="17.5494697"><ele>234.75</ele><time>2026-05-02T16:40:32.464Z</time></trkpt><trkpt lat="40.7248867" lon="17.5496351"><ele>234.5</ele><time>2026-05-02T16:40:33.464Z</time></trkpt><trkpt lat="40.7249005" lon="17.5498051"><ele>234.25</ele><time>2026-05-02T16:40:34.464Z</time></trkpt><trkpt lat="40.7249146" lon="17.5499714"><ele>234.0</ele><time>2026-05-02T16:40:35.464Z</time></trkpt><trkpt lat="40.7249314" lon="17.5501384"><ele>234.0</ele><time>2026-05-02T16:40:36.463Z</time></trkpt><trkpt lat="40.7249557" lon="17.5503033"><ele>234.0</ele><time>2026-05-02T16:40:37.463Z</time></trkpt><trkpt lat="40.7249763" lon="17.5504669"><ele>234.0</ele><time>2026-05-02T16:40:38.463Z</time></trkpt><trkpt lat="40.7250104" lon="17.5506215"><ele>234.0</ele><time>2026-05-02T16:40:39.463Z</time></trkpt><trkpt lat="40.7250531" lon="17.5507724"><ele>233.75</ele><time>2026-05-02T16:40:40.463Z</time></trkpt><trkpt lat="40.725105" lon="17.5509163"><ele>233.5</ele><time>2026-05-02T16:40:41.464Z</time></trkpt><trkpt lat="40.7251768" lon="17.5510533"><ele>233.25</ele><time>2026-05-02T16:40:42.464Z</time></trkpt><trkpt lat="40.7252574" lon="17.5511743"><ele>233.0</ele><time>2026-05-02T16:40:43.464Z</time></trkpt><trkpt lat="40.7253565" lon="17.5512946"><ele>231.25</ele><time>2026-05-02T16:40:44.464Z</time></trkpt><trkpt lat="40.7254619" lon="17.5514054"><ele>229.5</ele><time>2026-05-02T16:40:45.465Z</time></trkpt><trkpt lat="40.7255576" lon="17.551534"><ele>227.75</ele><time>2026-05-02T16:40:46.463Z</time></trkpt><trkpt lat="40.7256482" lon="17.5516751"><ele>226.0</ele><time>2026-05-02T16:40:47.464Z</time></trkpt><trkpt lat="40.7257141" lon="17.55186"><ele>226.0</ele><time>2026-05-02T16:40:48.464Z</time></trkpt><trkpt lat="40.7257696" lon="17.5520345"><ele>226.0</ele><time>2026-05-02T16:40:49.464Z</time></trkpt><trkpt lat="40.7258195" lon="17.5522167"><ele>226.0</ele><time>2026-05-02T16:40:50.464Z</time></trkpt><trkpt lat="40.7258606" lon="17.5523976"><ele>226.0</ele><time>2026-05-02T16:40:51.464Z</time></trkpt><trkpt lat="40.725903" lon="17.5525733"><ele>225.75</ele><time>2026-05-02T16:40:52.463Z</time></trkpt><trkpt lat="40.7259401" lon="17.5527456"><ele>225.5</ele><time>2026-05-02T16:40:53.464Z</time></trkpt><trkpt lat="40.7259767" lon="17.5529007"><ele>225.25</ele><time>2026-05-02T16:40:54.463Z</time></trkpt><trkpt lat="40.7260115" lon="17.5530509"><ele>225.0</ele><time>2026-05-02T16:40:55.464Z</time></trkpt><trkpt lat="40.7260506" lon="17.5531846"><ele>226.8</ele><time>2026-05-02T16:40:56.463Z</time></trkpt><trkpt lat="40.7261158" lon="17.5532966"><ele>228.6</ele><time>2026-05-02T16:40:57.464Z</time></trkpt><trkpt lat="40.7261816" lon="17.553394"><ele>230.39999999999998</ele><time>2026-05-02T16:40:58.464Z</time></trkpt><trkpt lat="40.7262496" lon="17.5534944"><ele>232.2</ele><time>2026-05-02T16:40:59.464Z</time></trkpt><trkpt lat="40.7263166" lon="17.5535902"><ele>234.0</ele><time>2026-05-02T16:41:00.464Z</time></trkpt><trkpt lat="40.7263823" lon="17.5536888"><ele>234.2</ele><time>2026-05-02T16:41:01.463Z</time></trkpt><trkpt lat="40.726452" lon="17.5537824"><ele>234.39999999999998</ele><time>2026-05-02T16:41:02.464Z</time></trkpt><trkpt lat="40.72652" lon="17.5538806"><ele>234.6</ele><time>2026-05-02T16:41:03.464Z</time></trkpt><trkpt lat="40.7265878" lon="17.5539779"><ele>234.8</ele><time>2026-05-02T16:41:04.463Z</time></trkpt><trkpt lat="40.7266513" lon="17.5540792"><ele>235.0</ele><time>2026-05-02T16:41:05.464Z</time></trkpt><trkpt lat="40.7267118" lon="17.5541828"><ele>235.0</ele><time>2026-05-02T16:41:06.464Z</time></trkpt><trkpt lat="40.7267703" lon="17.5543006"><ele>235.0</ele><time>2026-05-02T16:41:07.463Z</time></trkpt><trkpt lat="40.7268249" lon="17.5544343"><ele>235.0</ele><time>2026-05-02T16:41:08.463Z</time></trkpt><trkpt lat="40.7268694" lon="17.5545624"><ele>235.0</ele><time>2026-05-02T16:41:09.463Z</time></trkpt><trkpt lat="40.7269092" lon="17.5547003"><ele>235.0</ele><time>2026-05-02T16:41:10.463Z</time></trkpt><trkpt lat="40.7269318" lon="17.5548441"><ele>236.75</ele><time>2026-05-02T16:41:11.462Z</time></trkpt><trkpt lat="40.7269412" lon="17.5549905"><ele>238.5</ele><time>2026-05-02T16:41:12.464Z</time></trkpt><trkpt lat="40.7269454" lon="17.5551467"><ele>240.25</ele><time>2026-05-02T16:41:13.464Z</time></trkpt><trkpt lat="40.7269461" lon="17.5553027"><ele>242.0</ele><time>2026-05-02T16:41:14.462Z</time></trkpt><trkpt lat="40.7269442" lon="17.5554551"><ele>242.0</ele><time>2026-05-02T16:41:15.463Z</time></trkpt><trkpt lat="40.726945" lon="17.5556162"><ele>242.0</ele><time>2026-05-02T16:41:16.463Z</time></trkpt><trkpt lat="40.7269477" lon="17.5557791"><ele>242.0</ele><time>2026-05-02T16:41:17.463Z</time></trkpt><trkpt lat="40.7269482" lon="17.5559427"><ele>242.0</ele><time>2026-05-02T16:41:18.463Z</time></trkpt><trkpt lat="40.7269503" lon="17.556105"><ele>240.5</ele><time>2026-05-02T16:41:19.463Z</time></trkpt><trkpt lat="40.7269502" lon="17.5562611"><ele>239.0</ele><time>2026-05-02T16:41:20.463Z</time></trkpt><trkpt lat="40.7269549" lon="17.5564185"><ele>237.5</ele><time>2026-05-02T16:41:21.463Z</time></trkpt><trkpt lat="40.726961" lon="17.556576"><ele>236.0</ele><time>2026-05-02T16:41:22.463Z</time></trkpt><trkpt lat="40.7269795" lon="17.5567312"><ele>236.0</ele><time>2026-05-02T16:41:23.463Z</time></trkpt><trkpt lat="40.7270096" lon="17.5568875"><ele>236.0</ele><time>2026-05-02T16:41:24.462Z</time></trkpt><trkpt lat="40.7270483" lon="17.5570418"><ele>236.0</ele><time>2026-05-02T16:41:25.464Z</time></trkpt><trkpt lat="40.7271016" lon="17.5571897"><ele>236.0</ele><time>2026-05-02T16:41:26.464Z</time></trkpt><trkpt lat="40.7271677" lon="17.557326"><ele>234.0</ele><time>2026-05-02T16:41:27.462Z</time></trkpt><trkpt lat="40.7272296" lon="17.5574614"><ele>232.0</ele><time>2026-05-02T16:41:28.463Z</time></trkpt><trkpt lat="40.7273052" lon="17.5575934"><ele>230.0</ele><time>2026-05-02T16:41:29.463Z</time></trkpt><trkpt lat="40.7273658" lon="17.557728"><ele>228.0</ele><time>2026-05-02T16:41:30.464Z</time></trkpt><trkpt lat="40.7274122" lon="17.5578592"><ele>227.75</ele><time>2026-05-02T16:41:31.463Z</time></trkpt><trkpt lat="40.7274553" lon="17.5579993"><ele>227.5</ele><time>2026-05-02T16:41:32.463Z</time></trkpt><trkpt lat="40.727478" lon="17.5581507"><ele>227.25</ele><time>2026-05-02T16:41:33.463Z</time></trkpt><trkpt lat="40.7274988" lon="17.5583023"><ele>227.0</ele><time>2026-05-02T16:41:34.463Z</time></trkpt><trkpt lat="40.7275093" lon="17.5584488"><ele>227.0</ele><time>2026-05-02T16:41:35.463Z</time></trkpt><trkpt lat="40.7275241" lon="17.5585973"><ele>227.0</ele><time>2026-05-02T16:41:36.463Z</time></trkpt><trkpt lat="40.7275277" lon="17.5587561"><ele>227.0</ele><time>2026-05-02T16:41:37.463Z</time></trkpt><trkpt lat="40.7275395" lon="17.5589201"><ele>227.0</ele><time>2026-05-02T16:41:38.463Z</time></trkpt><trkpt lat="40.7275478" lon="17.5590748"><ele>227.25</ele><time>2026-05-02T16:41:39.462Z</time></trkpt><trkpt lat="40.7275556" lon="17.5592229"><ele>227.5</ele><time>2026-05-02T16:41:40.462Z</time></trkpt><trkpt lat="40.7275595" lon="17.5593756"><ele>227.75</ele><time>2026-05-02T16:41:41.463Z</time></trkpt><trkpt lat="40.7275681" lon="17.5595261"><ele>228.0</ele><time>2026-05-02T16:41:42.464Z</time></trkpt><trkpt lat="40.7275755" lon="17.5596722"><ele>228.0</ele><time>2026-05-02T16:41:43.463Z</time></trkpt><trkpt lat="40.7275809" lon="17.5598146"><ele>228.0</ele><time>2026-05-02T16:41:44.462Z</time></trkpt><trkpt lat="40.7275876" lon="17.559957"><ele>228.0</ele><time>2026-05-02T16:41:45.462Z</time></trkpt><trkpt lat="40.7275958" lon="17.5600929"><ele>228.0</ele><time>2026-05-02T16:41:46.463Z</time></trkpt><trkpt lat="40.7276081" lon="17.5602204"><ele>228.0</ele><time>2026-05-02T16:41:47.464Z</time></trkpt><trkpt lat="40.7276245" lon="17.5603449"><ele>227.4</ele><time>2026-05-02T16:41:48.464Z</time></trkpt><trkpt lat="40.7276486" lon="17.560466"><ele>226.8</ele><time>2026-05-02T16:41:49.463Z</time></trkpt><trkpt lat="40.7276763" lon="17.5605917"><ele>226.2</ele><time>2026-05-02T16:41:50.463Z</time></trkpt><trkpt lat="40.7277168" lon="17.5607175"><ele>225.6</ele><time>2026-05-02T16:41:51.463Z</time></trkpt><trkpt lat="40.7277639" lon="17.5608432"><ele>225.0</ele><time>2026-05-02T16:41:52.462Z</time></trkpt><trkpt lat="40.7278174" lon="17.5609718"><ele>224.2</ele><time>2026-05-02T16:41:53.463Z</time></trkpt><trkpt lat="40.7278659" lon="17.5611029"><ele>223.4</ele><time>2026-05-02T16:41:54.463Z</time></trkpt><trkpt lat="40.7279122" lon="17.5612311"><ele>222.60000000000002</ele><time>2026-05-02T16:41:55.464Z</time></trkpt><trkpt lat="40.7279555" lon="17.5613638"><ele>221.8</ele><time>2026-05-02T16:41:56.463Z</time></trkpt><trkpt lat="40.727982" lon="17.5614997"><ele>221.0</ele><time>2026-05-02T16:41:57.462Z</time></trkpt><trkpt lat="40.7280036" lon="17.5616451"><ele>220.60000000000002</ele><time>2026-05-02T16:41:58.463Z</time></trkpt><trkpt lat="40.7280162" lon="17.5617872"><ele>220.20000000000002</ele><time>2026-05-02T16:41:59.463Z</time></trkpt><trkpt lat="40.7279985" lon="17.5619218"><ele>219.79999999999998</ele><time>2026-05-02T16:42:00.463Z</time></trkpt><trkpt lat="40.7279889" lon="17.5620558"><ele>219.39999999999998</ele><time>2026-05-02T16:42:01.463Z</time></trkpt><trkpt lat="40.7279922" lon="17.5621711"><ele>219.0</ele><time>2026-05-02T16:42:02.462Z</time></trkpt><trkpt lat="40.7280021" lon="17.5622726"><ele>219.0</ele><time>2026-05-02T16:42:03.463Z</time></trkpt><trkpt lat="40.7280103" lon="17.5623789"><ele>218.99999999999997</ele><time>2026-05-02T16:42:04.463Z</time></trkpt><trkpt lat="40.7280256" lon="17.5624894"><ele>218.99999999999997</ele><time>2026-05-02T16:42:05.462Z</time></trkpt><trkpt lat="40.7280514" lon="17.5626457"><ele>219.0</ele><time>2026-05-02T16:42:07.462Z</time></trkpt><trkpt lat="40.7280596" lon="17.5627382"><ele>219.0</ele><time>2026-05-02T16:42:08.463Z</time></trkpt><trkpt lat="40.7280896" lon="17.5628549"><ele>219.39999999999998</ele><time>2026-05-02T16:42:09.462Z</time></trkpt><trkpt lat="40.7281018" lon="17.5629598"><ele>219.79999999999998</ele><time>2026-05-02T16:42:10.463Z</time></trkpt><trkpt lat="40.7281154" lon="17.563069"><ele>220.20000000000002</ele><time>2026-05-02T16:42:11.462Z</time></trkpt><trkpt lat="40.7281453" lon="17.5631977"><ele>220.60000000000002</ele><time>2026-05-02T16:42:12.463Z</time></trkpt><trkpt lat="40.728177" lon="17.5633152"><ele>221.0</ele><time>2026-05-02T16:42:13.463Z</time></trkpt><trkpt lat="40.7282002" lon="17.5634488"><ele>221.0</ele><time>2026-05-02T16:42:14.463Z</time></trkpt><trkpt lat="40.7282197" lon="17.5635871"><ele>221.0</ele><time>2026-05-02T16:42:15.463Z</time></trkpt><trkpt lat="40.7282226" lon="17.563738"><ele>221.0</ele><time>2026-05-02T16:42:16.463Z</time></trkpt><trkpt lat="40.7282247" lon="17.5638991"><ele>221.0</ele><time>2026-05-02T16:42:17.463Z</time></trkpt><trkpt lat="40.7282207" lon="17.5640396"><ele>222.4</ele><time>2026-05-02T16:42:18.463Z</time></trkpt><trkpt lat="40.7282178" lon="17.5641846"><ele>223.8</ele><time>2026-05-02T16:42:19.463Z</time></trkpt><trkpt lat="40.7282232" lon="17.5643281"><ele>225.20000000000002</ele><time>2026-05-02T16:42:20.463Z</time></trkpt><trkpt lat="40.7282308" lon="17.5644673"><ele>226.60000000000002</ele><time>2026-05-02T16:42:21.464Z</time></trkpt><trkpt lat="40.728231" lon="17.5646112"><ele>228.0</ele><time>2026-05-02T16:42:22.462Z</time></trkpt><trkpt lat="40.7282245" lon="17.5647593"><ele>228.8</ele><time>2026-05-02T16:42:23.463Z</time></trkpt><trkpt lat="40.72821" lon="17.5649006"><ele>229.60000000000002</ele><time>2026-05-02T16:42:24.464Z</time></trkpt><trkpt lat="40.728185" lon="17.5650355"><ele>230.39999999999998</ele><time>2026-05-02T16:42:25.464Z</time></trkpt><trkpt lat="40.7281512" lon="17.5651749"><ele>231.2</ele><time>2026-05-02T16:42:26.463Z</time></trkpt><trkpt lat="40.7280876" lon="17.565281"><ele>232.0</ele><time>2026-05-02T16:42:27.464Z</time></trkpt><trkpt lat="40.7280152" lon="17.5653844"><ele>232.8</ele><time>2026-05-02T16:42:28.463Z</time></trkpt><trkpt lat="40.7279442" lon="17.5654768"><ele>233.6</ele><time>2026-05-02T16:42:29.463Z</time></trkpt><trkpt lat="40.7278648" lon="17.5655599"><ele>234.40000000000003</ele><time>2026-05-02T16:42:30.462Z</time></trkpt><trkpt lat="40.7277847" lon="17.5656427"><ele>235.20000000000002</ele><time>2026-05-02T16:42:31.463Z</time></trkpt><trkpt lat="40.7277131" lon="17.5656971"><ele>236.0</ele><time>2026-05-02T16:42:32.464Z</time></trkpt><trkpt lat="40.7276364" lon="17.5657616"><ele>236.16666666666669</ele><time>2026-05-02T16:42:33.463Z</time></trkpt><trkpt lat="40.7275739" lon="17.5658233"><ele>236.33333333333334</ele><time>2026-05-02T16:42:34.463Z</time></trkpt><trkpt lat="40.7275164" lon="17.565877"><ele>236.5</ele><time>2026-05-02T16:42:35.464Z</time></trkpt><trkpt lat="40.7274603" lon="17.5659261"><ele>236.66666666666669</ele><time>2026-05-02T16:42:36.463Z</time></trkpt><trkpt lat="40.7274012" lon="17.5659895"><ele>236.83333333333334</ele><time>2026-05-02T16:42:47.463Z</time></trkpt><trkpt lat="40.727328" lon="17.5660684"><ele>237.0</ele><time>2026-05-02T16:42:50.463Z</time></trkpt><trkpt lat="40.7272725" lon="17.5661317"><ele>236.83333333333334</ele><time>2026-05-02T16:42:52.464Z</time></trkpt><trkpt lat="40.7272097" lon="17.5662099"><ele>236.66666666666669</ele><time>2026-05-02T16:42:54.463Z</time></trkpt><trkpt lat="40.7271815" lon="17.5663547"><ele>236.5</ele><time>2026-05-02T16:42:56.463Z</time></trkpt><trkpt lat="40.7271806" lon="17.566438"><ele>236.33333333333334</ele><time>2026-05-02T16:42:57.464Z</time></trkpt><trkpt lat="40.727186" lon="17.5665285"><ele>236.16666666666669</ele><time>2026-05-02T16:42:58.463Z</time></trkpt><trkpt lat="40.7271959" lon="17.5666246"><ele>236.0</ele><time>2026-05-02T16:42:59.463Z</time></trkpt><trkpt lat="40.7272197" lon="17.5667315"><ele>236.00000000000003</ele><time>2026-05-02T16:43:00.464Z</time></trkpt><trkpt lat="40.7272517" lon="17.5668283"><ele>236.0</ele><time>2026-05-02T16:43:01.463Z</time></trkpt><trkpt lat="40.7273017" lon="17.5669276"><ele>236.0</ele><time>2026-05-02T16:43:02.462Z</time></trkpt><trkpt lat="40.7273579" lon="17.5670057"><ele>236.0</ele><time>2026-05-02T16:43:03.463Z</time></trkpt><trkpt lat="40.7274083" lon="17.5670684"><ele>236.00000000000003</ele><time>2026-05-02T16:43:04.464Z</time></trkpt><trkpt lat="40.7274704" lon="17.5671421"><ele>236.0</ele><time>2026-05-02T16:43:06.463Z</time></trkpt><trkpt lat="40.7275315" lon="17.5672068"><ele>235.66666666666669</ele><time>2026-05-02T16:43:08.463Z</time></trkpt><trkpt lat="40.7276095" lon="17.5672812"><ele>235.33333333333334</ele><time>2026-05-02T16:43:10.463Z</time></trkpt><trkpt lat="40.7276936" lon="17.5673915"><ele>235.0</ele><time>2026-05-02T16:43:12.462Z</time></trkpt><trkpt lat="40.7277404" lon="17.567461"><ele>234.66666666666669</ele><time>2026-05-02T16:43:13.462Z</time></trkpt><trkpt lat="40.7277906" lon="17.5675345"><ele>234.33333333333334</ele><time>2026-05-02T16:43:14.463Z</time></trkpt><trkpt lat="40.7278313" lon="17.567621"><ele>234.0</ele><time>2026-05-02T16:43:15.462Z</time></trkpt><trkpt lat="40.7278553" lon="17.5677263"><ele>234.0</ele><time>2026-05-02T16:43:16.463Z</time></trkpt><trkpt lat="40.7278898" lon="17.5678296"><ele>233.99999999999997</ele><time>2026-05-02T16:43:17.464Z</time></trkpt><trkpt lat="40.7279219" lon="17.5679478"><ele>233.99999999999997</ele><time>2026-05-02T16:43:18.463Z</time></trkpt><trkpt lat="40.7279482" lon="17.5680731"><ele>234.0</ele><time>2026-05-02T16:43:19.464Z</time></trkpt><trkpt lat="40.7279656" lon="17.5681915"><ele>234.0</ele><time>2026-05-02T16:43:20.464Z</time></trkpt><trkpt lat="40.7279853" lon="17.5683108"><ele>233.66666666666666</ele><time>2026-05-02T16:43:21.463Z</time></trkpt><trkpt lat="40.7280047" lon="17.5684241"><ele>233.33333333333331</ele><time>2026-05-02T16:43:22.462Z</time></trkpt><trkpt lat="40.7280196" lon="17.5685418"><ele>233.0</ele><time>2026-05-02T16:43:23.462Z</time></trkpt><trkpt lat="40.7280386" lon="17.568656"><ele>232.66666666666666</ele><time>2026-05-02T16:43:24.463Z</time></trkpt><trkpt lat="40.7280574" lon="17.5687646"><ele>232.33333333333331</ele><time>2026-05-02T16:43:25.463Z</time></trkpt><trkpt lat="40.728074" lon="17.5688674"><ele>232.0</ele><time>2026-05-02T16:43:26.464Z</time></trkpt><trkpt lat="40.728097" lon="17.568976"><ele>231.83333333333331</ele><time>2026-05-02T16:43:27.463Z</time></trkpt><trkpt lat="40.7281181" lon="17.5690726"><ele>231.66666666666666</ele><time>2026-05-02T16:43:28.462Z</time></trkpt><trkpt lat="40.7281412" lon="17.5691709"><ele>231.5</ele><time>2026-05-02T16:43:29.463Z</time></trkpt><trkpt lat="40.7281609" lon="17.5692823"><ele>231.33333333333331</ele><time>2026-05-02T16:43:30.463Z</time></trkpt><trkpt lat="40.7281835" lon="17.5693802"><ele>231.16666666666666</ele><time>2026-05-02T16:43:31.462Z</time></trkpt><trkpt lat="40.7282017" lon="17.5694843"><ele>231.0</ele><time>2026-05-02T16:43:32.462Z</time></trkpt><trkpt lat="40.7282111" lon="17.5695916"><ele>231.33333333333334</ele><time>2026-05-02T16:43:33.463Z</time></trkpt><trkpt lat="40.7282189" lon="17.5696966"><ele>231.66666666666669</ele><time>2026-05-02T16:43:34.463Z</time></trkpt><trkpt lat="40.7282213" lon="17.5697958"><ele>232.0</ele><time>2026-05-02T16:43:35.462Z</time></trkpt><trkpt lat="40.7282202" lon="17.5698911"><ele>232.33333333333334</ele><time>2026-05-02T16:43:36.463Z</time></trkpt><trkpt lat="40.7282212" lon="17.570035"><ele>232.66666666666669</ele><time>2026-05-02T16:43:38.463Z</time></trkpt><trkpt lat="40.728213" lon="17.5701294"><ele>233.0</ele><time>2026-05-02T16:43:45.463Z</time></trkpt><trkpt lat="40.7281752" lon="17.5702047"><ele>233.0</ele><time>2026-05-02T16:44:00.463Z</time></trkpt><trkpt lat="40.7281327" lon="17.5702766"><ele>233.0</ele><time>2026-05-02T16:44:02.461Z</time></trkpt><trkpt lat="40.7280538" lon="17.5703929"><ele>233.0</ele><time>2026-05-02T16:44:04.462Z</time></trkpt><trkpt lat="40.7280157" lon="17.5705429"><ele>233.0</ele><time>2026-05-02T16:44:06.462Z</time></trkpt><trkpt lat="40.7280915" lon="17.5707003"><ele>233.0</ele><time>2026-05-02T16:44:08.463Z</time></trkpt><trkpt lat="40.7281443" lon="17.5707897"><ele>233.00000000000003</ele><time>2026-05-02T16:44:09.462Z</time></trkpt><trkpt lat="40.728178" lon="17.5708674"><ele>233.0</ele><time>2026-05-02T16:44:10.463Z</time></trkpt><trkpt lat="40.7281845" lon="17.5709736"><ele>233.0</ele><time>2026-05-02T16:44:11.462Z</time></trkpt><trkpt lat="40.7281963" lon="17.5710621"><ele>233.0</ele><time>2026-05-02T16:44:12.461Z</time></trkpt><trkpt lat="40.7282134" lon="17.5711505"><ele>233.00000000000003</ele><time>2026-05-02T16:44:13.462Z</time></trkpt><trkpt lat="40.7282336" lon="17.5712673"><ele>233.0</ele><time>2026-05-02T16:44:14.463Z</time></trkpt><trkpt lat="40.7282524" lon="17.5713708"><ele>232.85714285714286</ele><time>2026-05-02T16:44:15.462Z</time></trkpt><trkpt lat="40.728263" lon="17.5714667"><ele>232.71428571428572</ele><time>2026-05-02T16:44:16.462Z</time></trkpt><trkpt lat="40.7282721" lon="17.5715651"><ele>232.57142857142858</ele><time>2026-05-02T16:44:17.462Z</time></trkpt><trkpt lat="40.7282702" lon="17.5716562"><ele>232.42857142857144</ele><time>2026-05-02T16:44:18.462Z</time></trkpt><trkpt lat="40.7282706" lon="17.571753"><ele>232.28571428571428</ele><time>2026-05-02T16:44:19.461Z</time></trkpt><trkpt lat="40.7282676" lon="17.571856"><ele>232.14285714285717</ele><time>2026-05-02T16:44:20.462Z</time></trkpt><trkpt lat="40.7282642" lon="17.571955"><ele>232.00000000000003</ele><time>2026-05-02T16:44:21.462Z</time></trkpt><trkpt lat="40.7282633" lon="17.5720483"><ele>231.8</ele><time>2026-05-02T16:44:22.462Z</time></trkpt><trkpt lat="40.7282631" lon="17.5721466"><ele>231.6</ele><time>2026-05-02T16:44:23.462Z</time></trkpt><trkpt lat="40.7282637" lon="17.5722324"><ele>231.40000000000003</ele><time>2026-05-02T16:44:24.461Z</time></trkpt><trkpt lat="40.7282575" lon="17.572387"><ele>231.20000000000002</ele><time>2026-05-02T16:44:26.462Z</time></trkpt><trkpt lat="40.7282365" lon="17.5725261"><ele>231.0</ele><time>2026-05-02T16:44:28.461Z</time></trkpt><trkpt lat="40.7281963" lon="17.57265"><ele>231.0</ele><time>2026-05-02T16:44:30.463Z</time></trkpt><trkpt lat="40.7281768" lon="17.572733"><ele>231.0</ele><time>2026-05-02T16:44:31.461Z</time></trkpt></trkseg></trk></gpx>